<?xml version='1.0' encoding='UTF-8'?><gpx version="1.1" creator="JPX - https://github.com/jenetics/jpx" xmlns="http://www.topografix.com/GPX/1/1"><trk><trkseg><trkpt lat="44.877089886638664" lon="7.312886911666083"><ele>384.0</ele><time>2026-04-25T09:31:08.999Z</time></trkpt><trkpt lat="44.87705840215602" lon="7.312787810627841"><ele>384.0</ele><time>2026-04-25T09:31:09.999Z</time></trkpt><trkpt lat="44.87708174023861" lon="7.312642370792346"><ele>384.0</ele><time>2026-04-25T09:31:13.999Z</time></trkpt><trkpt lat="44.87705710258592" lon="7.312560563754989"><ele>384.0</ele><time>2026-04-25T09:31:14.999Z</time></trkpt><trkpt lat="44.87699217773951" lon="7.312475292377798"><ele>384.0</ele><time>2026-04-25T09:31:15.999Z</time></trkpt><trkpt lat="44.87691304731899" lon="7.312402261596387"><ele>384.0</ele><time>2026-04-25T09:31:16.999Z</time></trkpt><trkpt lat="44.87683705135572" lon="7.312327909268531"><ele>383.79999999999995</ele><time>2026-04-25T09:31:17.999Z</time></trkpt><trkpt lat="44.87676763692027" lon="7.312263178713427"><ele>383.59999999999997</ele><time>2026-04-25T09:31:18.999Z</time></trkpt><trkpt lat="44.876689448948405" lon="7.312180858064283"><ele>383.4</ele><time>2026-04-25T09:31:19.999Z</time></trkpt><trkpt lat="44.876602954224325" lon="7.312096737873191"><ele>383.2</ele><time>2026-04-25T09:31:20.999Z</time></trkpt><trkpt lat="44.876506745234146" lon="7.312014524833225"><ele>383.0</ele><time>2026-04-25T09:31:21.999Z</time></trkpt><trkpt lat="44.87639858487088" lon="7.311929642278188"><ele>382.75</ele><time>2026-04-25T09:31:22.999Z</time></trkpt><trkpt lat="44.87628787844178" lon="7.311845710856875"><ele>382.5</ele><time>2026-04-25T09:31:23.999Z</time></trkpt><trkpt lat="44.876161895423046" lon="7.311745616422114"><ele>382.25</ele><time>2026-04-25T09:31:24.999Z</time></trkpt><trkpt lat="44.87603898633811" lon="7.311649541733773"><ele>382.0</ele><time>2026-04-25T09:31:25.999Z</time></trkpt><trkpt lat="44.87592888196399" lon="7.311563439169968"><ele>382.0</ele><time>2026-04-25T09:31:26.999Z</time></trkpt><trkpt lat="44.87581629162295" lon="7.3114769248365885"><ele>382.0</ele><time>2026-04-25T09:31:27.999Z</time></trkpt><trkpt lat="44.8756975765035" lon="7.31138135392427"><ele>382.0</ele><time>2026-04-25T09:31:28.999Z</time></trkpt><trkpt lat="44.87557589941188" lon="7.311278107601046"><ele>382.0</ele><time>2026-04-25T09:31:29.999Z</time></trkpt><trkpt lat="44.87546556740275" lon="7.3111785582045625"><ele>382.0</ele><time>2026-04-25T09:31:30.999Z</time></trkpt><trkpt lat="44.87537169943931" lon="7.3110819541719625"><ele>382.0</ele><time>2026-04-25T09:31:31.999Z</time></trkpt><trkpt lat="44.87527597642255" lon="7.3109836290864685"><ele>382.0</ele><time>2026-04-25T09:31:32.999Z</time></trkpt><trkpt lat="44.87518131920002" lon="7.310874936582886"><ele>382.0</ele><time>2026-04-25T09:31:33.999Z</time></trkpt><trkpt lat="44.875092077799366" lon="7.310766503365467"><ele>381.5</ele><time>2026-04-25T09:31:34.998Z</time></trkpt><trkpt lat="44.87500227450029" lon="7.310642180765744"><ele>381.0</ele><time>2026-04-25T09:31:35.998Z</time></trkpt><trkpt lat="44.87491792206257" lon="7.310528781607126"><ele>380.5</ele><time>2026-04-25T09:31:36.998Z</time></trkpt><trkpt lat="44.8748445740775" lon="7.310424448301657"><ele>380.0</ele><time>2026-04-25T09:31:37.998Z</time></trkpt><trkpt lat="44.87476781090696" lon="7.310311724840642"><ele>380.0</ele><time>2026-04-25T09:31:38.998Z</time></trkpt><trkpt lat="44.87468736401898" lon="7.310175758757105"><ele>380.0</ele><time>2026-04-25T09:31:39.998Z</time></trkpt><trkpt lat="44.874602595895716" lon="7.310040908238971"><ele>380.0</ele><time>2026-04-25T09:31:40.998Z</time></trkpt><trkpt lat="44.87454004321088" lon="7.30991595605482"><ele>380.0</ele><time>2026-04-25T09:31:41.998Z</time></trkpt><trkpt lat="44.87448433213385" lon="7.309800794504407"><ele>380.4</ele><time>2026-04-25T09:31:42.998Z</time></trkpt><trkpt lat="44.874432768689864" lon="7.309682744343354"><ele>380.8</ele><time>2026-04-25T09:31:43.998Z</time></trkpt><trkpt lat="44.87438251925892" lon="7.309563486298849"><ele>381.20000000000005</ele><time>2026-04-25T09:31:44.998Z</time></trkpt><trkpt lat="44.874330832797" lon="7.309439798044339"><ele>381.6</ele><time>2026-04-25T09:31:45.998Z</time></trkpt><trkpt lat="44.87427969873174" lon="7.3093067327370616"><ele>382.0</ele><time>2026-04-25T09:31:46.998Z</time></trkpt><trkpt lat="44.874235836655345" lon="7.309164982137793"><ele>382.6</ele><time>2026-04-25T09:31:47.998Z</time></trkpt><trkpt lat="44.874202541062196" lon="7.309036574236736"><ele>383.20000000000005</ele><time>2026-04-25T09:31:48.998Z</time></trkpt><trkpt lat="44.874164525020234" lon="7.308911198773352"><ele>383.8</ele><time>2026-04-25T09:31:49.998Z</time></trkpt><trkpt lat="44.87412491768362" lon="7.308770554722935"><ele>384.4</ele><time>2026-04-25T09:31:50.998Z</time></trkpt><trkpt lat="44.87408469572081" lon="7.308636945725123"><ele>385.0</ele><time>2026-04-25T09:31:51.998Z</time></trkpt><trkpt lat="44.87404828368635" lon="7.3085112681528415"><ele>385.0</ele><time>2026-04-25T09:31:52.998Z</time></trkpt><trkpt lat="44.874015672160276" lon="7.308385714365426"><ele>385.0</ele><time>2026-04-25T09:31:53.998Z</time></trkpt><trkpt lat="44.87398194617044" lon="7.308241990937472"><ele>385.0</ele><time>2026-04-25T09:31:54.998Z</time></trkpt><trkpt lat="44.87397125984805" lon="7.308091405080631"><ele>385.0</ele><time>2026-04-25T09:31:55.998Z</time></trkpt><trkpt lat="44.873973649282554" lon="7.307955773268649"><ele>385.0</ele><time>2026-04-25T09:31:56.998Z</time></trkpt><trkpt lat="44.873965444253685" lon="7.307818241644974"><ele>385.0</ele><time>2026-04-25T09:31:57.998Z</time></trkpt><trkpt lat="44.87395221000481" lon="7.307668052166439"><ele>385.0</ele><time>2026-04-25T09:31:58.998Z</time></trkpt><trkpt lat="44.87393889041661" lon="7.3075258094017475"><ele>385.0</ele><time>2026-04-25T09:31:59.998Z</time></trkpt><trkpt lat="44.873925340214186" lon="7.307393928203801"><ele>385.0</ele><time>2026-04-25T09:32:00.998Z</time></trkpt><trkpt lat="44.873915295310105" lon="7.3072563450766905"><ele>385.0</ele><time>2026-04-25T09:32:01.998Z</time></trkpt><trkpt lat="44.87390273441405" lon="7.307119818533881"><ele>385.00000000000006</ele><time>2026-04-25T09:32:02.998Z</time></trkpt><trkpt lat="44.87389257904367" lon="7.306996991275442"><ele>385.0</ele><time>2026-04-25T09:32:03.998Z</time></trkpt><trkpt lat="44.87388904322305" lon="7.306895860019449"><ele>385.0</ele><time>2026-04-25T09:32:04.998Z</time></trkpt><trkpt lat="44.87386390695611" lon="7.306810139903255"><ele>385.0</ele><time>2026-04-25T09:32:05.998Z</time></trkpt><trkpt lat="44.87383684534302" lon="7.306646360213249"><ele>385.00000000000006</ele><time>2026-04-25T09:32:07.998Z</time></trkpt><trkpt lat="44.87383336146689" lon="7.306551623177956"><ele>385.0</ele><time>2026-04-25T09:32:08.998Z</time></trkpt><trkpt lat="44.87379157373477" lon="7.306463284167105"><ele>385.0</ele><time>2026-04-25T09:32:09.998Z</time></trkpt><trkpt lat="44.8736850416093" lon="7.306431028747727"><ele>385.0</ele><time>2026-04-25T09:32:10.998Z</time></trkpt><trkpt lat="44.87358548327994" lon="7.306433619070522"><ele>385.0</ele><time>2026-04-25T09:32:11.998Z</time></trkpt><trkpt lat="44.87349616647024" lon="7.306397727599906"><ele>385.0</ele><time>2026-04-25T09:32:12.998Z</time></trkpt><trkpt lat="44.87340432859288" lon="7.306384289281751"><ele>385.0</ele><time>2026-04-25T09:32:13.998Z</time></trkpt><trkpt lat="44.873308459724754" lon="7.306365057803837"><ele>384.8</ele><time>2026-04-25T09:32:14.998Z</time></trkpt><trkpt lat="44.87320682610975" lon="7.306341162526049"><ele>384.6</ele><time>2026-04-25T09:32:15.998Z</time></trkpt><trkpt lat="44.87311369169944" lon="7.306311642045579"><ele>384.4</ele><time>2026-04-25T09:32:16.998Z</time></trkpt><trkpt lat="44.87302721392518" lon="7.306275355909319"><ele>384.2</ele><time>2026-04-25T09:32:17.998Z</time></trkpt><trkpt lat="44.872933559355324" lon="7.3062221651912145"><ele>384.0</ele><time>2026-04-25T09:32:18.998Z</time></trkpt><trkpt lat="44.872839718315326" lon="7.306152573727059"><ele>384.0</ele><time>2026-04-25T09:32:19.998Z</time></trkpt><trkpt lat="44.872745553666284" lon="7.306069006999571"><ele>384.0</ele><time>2026-04-25T09:32:20.997Z</time></trkpt><trkpt lat="44.8726668021389" lon="7.3059711865524575"><ele>384.0</ele><time>2026-04-25T09:32:22Z</time></trkpt><trkpt lat="44.87260724644359" lon="7.305863073384923"><ele>384.0</ele><time>2026-04-25T09:32:23Z</time></trkpt><trkpt lat="44.872556436600824" lon="7.305733612896369"><ele>384.0</ele><time>2026-04-25T09:32:24Z</time></trkpt><trkpt lat="44.8725149042591" lon="7.305593107688314"><ele>384.2</ele><time>2026-04-25T09:32:25Z</time></trkpt><trkpt lat="44.87247909633622" lon="7.3054530708187055"><ele>384.4</ele><time>2026-04-25T09:32:26Z</time></trkpt><trkpt lat="44.872450061082986" lon="7.305319164015248"><ele>384.6</ele><time>2026-04-25T09:32:27Z</time></trkpt><trkpt lat="44.87241878144315" lon="7.3051828022919745"><ele>384.8</ele><time>2026-04-25T09:32:28Z</time></trkpt><trkpt lat="44.87237394643524" lon="7.305042840158806"><ele>385.0</ele><time>2026-04-25T09:32:29Z</time></trkpt><trkpt lat="44.872326053115046" lon="7.304893709394713"><ele>385.5</ele><time>2026-04-25T09:32:30Z</time></trkpt><trkpt lat="44.87226461396813" lon="7.304732071200229"><ele>386.0</ele><time>2026-04-25T09:32:31Z</time></trkpt><trkpt lat="44.872205324274795" lon="7.304559135105861"><ele>386.5</ele><time>2026-04-25T09:32:32Z</time></trkpt><trkpt lat="44.87214630221383" lon="7.304376048546592"><ele>387.0</ele><time>2026-04-25T09:32:33Z</time></trkpt><trkpt lat="44.87208052180033" lon="7.304240125811283"><ele>387.0</ele><time>2026-04-25T09:32:34Z</time></trkpt><trkpt lat="44.87200994190244" lon="7.304094709068581"><ele>387.0</ele><time>2026-04-25T09:32:35Z</time></trkpt><trkpt lat="44.87192566284729" lon="7.30396883853267"><ele>387.0</ele><time>2026-04-25T09:32:36Z</time></trkpt><trkpt lat="44.87182832771574" lon="7.303844989633681"><ele>387.0</ele><time>2026-04-25T09:32:37Z</time></trkpt><trkpt lat="44.871718157703135" lon="7.303747276893367"><ele>387.20000000000005</ele><time>2026-04-25T09:32:38Z</time></trkpt><trkpt lat="44.87160716529578" lon="7.303675120651113"><ele>387.4</ele><time>2026-04-25T09:32:39Z</time></trkpt><trkpt lat="44.87150588927209" lon="7.303617733312505"><ele>387.6</ele><time>2026-04-25T09:32:40Z</time></trkpt><trkpt lat="44.87142071387364" lon="7.303544837601265"><ele>387.79999999999995</ele><time>2026-04-25T09:32:41Z</time></trkpt><trkpt lat="44.871350815828976" lon="7.303442136131327"><ele>388.0</ele><time>2026-04-25T09:32:42Z</time></trkpt><trkpt lat="44.871291138401546" lon="7.303313660186576"><ele>388.0</ele><time>2026-04-25T09:32:43Z</time></trkpt><trkpt lat="44.87124611318203" lon="7.303167295116937"><ele>388.0</ele><time>2026-04-25T09:32:44Z</time></trkpt><trkpt lat="44.87120517369417" lon="7.303007721933637"><ele>388.0</ele><time>2026-04-25T09:32:45Z</time></trkpt><trkpt lat="44.87116816586373" lon="7.302845843510063"><ele>388.0</ele><time>2026-04-25T09:32:46Z</time></trkpt><trkpt lat="44.87113091236601" lon="7.302691411777599"><ele>388.0</ele><time>2026-04-25T09:32:47Z</time></trkpt><trkpt lat="44.87109080892929" lon="7.3025410500801735"><ele>388.0</ele><time>2026-04-25T09:32:48Z</time></trkpt><trkpt lat="44.87105143344118" lon="7.302410888132156"><ele>388.0</ele><time>2026-04-25T09:32:49Z</time></trkpt><trkpt lat="44.871016372787295" lon="7.3022764674095795"><ele>388.0</ele><time>2026-04-25T09:32:49.999Z</time></trkpt><trkpt lat="44.870951694435334" lon="7.302057261464541"><ele>389.5</ele><time>2026-04-25T09:32:50.999Z</time></trkpt><trkpt lat="44.8709083144894" lon="7.3019009321883175"><ele>391.0</ele><time>2026-04-25T09:32:51.999Z</time></trkpt><trkpt lat="44.870866250433416" lon="7.301754410153912"><ele>392.5</ele><time>2026-04-25T09:32:52.999Z</time></trkpt><trkpt lat="44.870822885489936" lon="7.3015987769630994"><ele>394.0</ele><time>2026-04-25T09:32:53.999Z</time></trkpt><trkpt lat="44.87077997505958" lon="7.301458106693805"><ele>395.2</ele><time>2026-04-25T09:32:54.999Z</time></trkpt><trkpt lat="44.87074045882113" lon="7.30134369013527"><ele>396.4</ele><time>2026-04-25T09:32:55.999Z</time></trkpt><trkpt lat="44.87068895574441" lon="7.3012261444074715"><ele>397.6</ele><time>2026-04-25T09:32:56.999Z</time></trkpt><trkpt lat="44.87061327915924" lon="7.301137163921325"><ele>398.8</ele><time>2026-04-25T09:32:57.999Z</time></trkpt><trkpt lat="44.87051595620318" lon="7.301101501182623"><ele>400.0</ele><time>2026-04-25T09:32:58.999Z</time></trkpt><trkpt lat="44.87039669117436" lon="7.301099895320017"><ele>400.0</ele><time>2026-04-25T09:32:59.999Z</time></trkpt><trkpt lat="44.87027317442437" lon="7.301111900464669"><ele>400.0</ele><time>2026-04-25T09:33:00.999Z</time></trkpt><trkpt lat="44.87016377597138" lon="7.301125883641378"><ele>400.0</ele><time>2026-04-25T09:33:01.999Z</time></trkpt><trkpt lat="44.87005062819316" lon="7.301138207443591"><ele>400.0</ele><time>2026-04-25T09:33:02.999Z</time></trkpt><trkpt lat="44.86993326946131" lon="7.301145756586897"><ele>403.25</ele><time>2026-04-25T09:33:03.999Z</time></trkpt><trkpt lat="44.86980946669101" lon="7.301159971616394"><ele>406.5</ele><time>2026-04-25T09:33:04.999Z</time></trkpt><trkpt lat="44.86967669092685" lon="7.301202718225152"><ele>409.75</ele><time>2026-04-25T09:33:05.999Z</time></trkpt><trkpt lat="44.86954610986253" lon="7.301261888524172"><ele>413.0</ele><time>2026-04-25T09:33:06.999Z</time></trkpt><trkpt lat="44.86941765198555" lon="7.301335806613041"><ele>412.0</ele><time>2026-04-25T09:33:07.999Z</time></trkpt><trkpt lat="44.86930491580111" lon="7.30143005591288"><ele>411.0</ele><time>2026-04-25T09:33:08.999Z</time></trkpt><trkpt lat="44.86918999917958" lon="7.301524060936665"><ele>410.0</ele><time>2026-04-25T09:33:09.999Z</time></trkpt><trkpt lat="44.86907717733059" lon="7.30162284144449"><ele>409.0</ele><time>2026-04-25T09:33:10.999Z</time></trkpt><trkpt lat="44.868965942497155" lon="7.301715526760647"><ele>409.0</ele><time>2026-04-25T09:33:11.999Z</time></trkpt><trkpt lat="44.868859855053" lon="7.30179948484677"><ele>409.0</ele><time>2026-04-25T09:33:12.999Z</time></trkpt><trkpt lat="44.868768606053045" lon="7.301852988904733"><ele>409.0</ele><time>2026-04-25T09:33:13.999Z</time></trkpt><trkpt lat="44.8686838683555" lon="7.301883783397879"><ele>409.0</ele><time>2026-04-25T09:33:14.999Z</time></trkpt><trkpt lat="44.86860818207276" lon="7.301890317309201"><ele>409.0</ele><time>2026-04-25T09:33:15.999Z</time></trkpt><trkpt lat="44.86853387615272" lon="7.301878991081414"><ele>409.00000000000006</ele><time>2026-04-25T09:33:16.999Z</time></trkpt><trkpt lat="44.86846340074114" lon="7.301851865424024"><ele>409.0</ele><time>2026-04-25T09:33:17.999Z</time></trkpt><trkpt lat="44.868395213791736" lon="7.301810698849413"><ele>409.0</ele><time>2026-04-25T09:33:18.999Z</time></trkpt><trkpt lat="44.86832597647094" lon="7.3017534206224886"><ele>409.0</ele><time>2026-04-25T09:33:19.999Z</time></trkpt><trkpt lat="44.86826728097263" lon="7.30170013215198"><ele>409.00000000000006</ele><time>2026-04-25T09:33:20.999Z</time></trkpt><trkpt lat="44.86819082062857" lon="7.301580999304132"><ele>409.0</ele><time>2026-04-25T09:33:22.999Z</time></trkpt><trkpt lat="44.86816099020285" lon="7.301471683651474"><ele>411.0</ele><time>2026-04-25T09:33:23.999Z</time></trkpt><trkpt lat="44.86812207698459" lon="7.301354847481663"><ele>413.0</ele><time>2026-04-25T09:33:24.999Z</time></trkpt><trkpt lat="44.86806115704749" lon="7.301239078029329"><ele>415.0</ele><time>2026-04-25T09:33:25.999Z</time></trkpt><trkpt lat="44.86799226219754" lon="7.301125605874409"><ele>417.0</ele><time>2026-04-25T09:33:26.999Z</time></trkpt><trkpt lat="44.867932410502796" lon="7.301017201214566"><ele>419.0</ele><time>2026-04-25T09:33:27.999Z</time></trkpt><trkpt lat="44.8678842790853" lon="7.300917827342996"><ele>418.99999999999994</ele><time>2026-04-25T09:33:28.999Z</time></trkpt><trkpt lat="44.867836122296126" lon="7.300824097480528"><ele>419.0</ele><time>2026-04-25T09:33:29.999Z</time></trkpt><trkpt lat="44.867787635661436" lon="7.300732282924045"><ele>419.0</ele><time>2026-04-25T09:33:30.999Z</time></trkpt><trkpt lat="44.86774646278685" lon="7.300646942539752"><ele>419.0</ele><time>2026-04-25T09:33:31.999Z</time></trkpt><trkpt lat="44.86771892900717" lon="7.300566775875883"><ele>419.0</ele><time>2026-04-25T09:33:32.999Z</time></trkpt><trkpt lat="44.867718942168594" lon="7.300468225253503"><ele>418.99999999999994</ele><time>2026-04-25T09:33:33.999Z</time></trkpt><trkpt lat="44.86774505975874" lon="7.30036482973034"><ele>419.0</ele><time>2026-04-25T09:33:34.999Z</time></trkpt><trkpt lat="44.86779733626668" lon="7.30023562041295"><ele>419.66666666666663</ele><time>2026-04-25T09:33:36.998Z</time></trkpt><trkpt lat="44.86783027775439" lon="7.30011305802479"><ele>420.3333333333333</ele><time>2026-04-25T09:33:38.998Z</time></trkpt><trkpt lat="44.86787814668341" lon="7.299990572750756"><ele>421.0</ele><time>2026-04-25T09:33:40.998Z</time></trkpt><trkpt lat="44.86790546238665" lon="7.299854381896871"><ele>421.66666666666663</ele><time>2026-04-25T09:33:42.998Z</time></trkpt><trkpt lat="44.86786724404709" lon="7.299775326843425"><ele>422.3333333333333</ele><time>2026-04-25T09:33:43.998Z</time></trkpt><trkpt lat="44.86780990868961" lon="7.299693299844788"><ele>423.0</ele><time>2026-04-25T09:33:44.998Z</time></trkpt><trkpt lat="44.86775475787565" lon="7.299600571287818"><ele>422.79999999999995</ele><time>2026-04-25T09:33:45.998Z</time></trkpt><trkpt lat="44.86768855116355" lon="7.299495745652187"><ele>422.6</ele><time>2026-04-25T09:33:46.998Z</time></trkpt><trkpt lat="44.86761455200475" lon="7.299394870809347"><ele>422.4</ele><time>2026-04-25T09:33:47.998Z</time></trkpt><trkpt lat="44.8675351793793" lon="7.299357587891814"><ele>422.20000000000005</ele><time>2026-04-25T09:33:48.998Z</time></trkpt><trkpt lat="44.8674720558776" lon="7.299333246337774"><ele>422.0</ele><time>2026-04-25T09:33:49.998Z</time></trkpt><trkpt lat="44.867361088384165" lon="7.299275274835163"><ele>422.0</ele><time>2026-04-25T09:33:51.998Z</time></trkpt><trkpt lat="44.86722679281881" lon="7.299204263531686"><ele>422.0</ele><time>2026-04-25T09:33:53.998Z</time></trkpt><trkpt lat="44.86715045333929" lon="7.299171596781804"><ele>422.0</ele><time>2026-04-25T09:33:54.998Z</time></trkpt><trkpt lat="44.86708372468783" lon="7.299162538449751"><ele>422.0</ele><time>2026-04-25T09:33:55.998Z</time></trkpt><trkpt lat="44.86701581974022" lon="7.299162631702875"><ele>422.0</ele><time>2026-04-25T09:33:56.998Z</time></trkpt><trkpt lat="44.866907495880575" lon="7.299087996343561"><ele>422.0</ele><time>2026-04-25T09:33:58.998Z</time></trkpt><trkpt lat="44.86685684943589" lon="7.299003760755958"><ele>422.0</ele><time>2026-04-25T09:34:00.998Z</time></trkpt><trkpt lat="44.86678138457786" lon="7.298949590382863"><ele>422.0</ele><time>2026-04-25T09:34:06.998Z</time></trkpt><trkpt lat="44.86666236197117" lon="7.298891587104761"><ele>422.0</ele><time>2026-04-25T09:34:08.998Z</time></trkpt><trkpt lat="44.86653796727485" lon="7.298826961622391"><ele>422.0</ele><time>2026-04-25T09:34:10.998Z</time></trkpt><trkpt lat="44.86646293513744" lon="7.29878220033837"><ele>421.66666666666663</ele><time>2026-04-25T09:34:11.998Z</time></trkpt><trkpt lat="44.866390896995405" lon="7.298734731904281"><ele>421.3333333333333</ele><time>2026-04-25T09:34:12.998Z</time></trkpt><trkpt lat="44.8663190337931" lon="7.298688022020906"><ele>421.0</ele><time>2026-04-25T09:34:13.998Z</time></trkpt><trkpt lat="44.86625601804669" lon="7.29864695249609"><ele>420.66666666666663</ele><time>2026-04-25T09:34:14.998Z</time></trkpt><trkpt lat="44.866160445110395" lon="7.298583709260989"><ele>420.3333333333333</ele><time>2026-04-25T09:34:16.998Z</time></trkpt><trkpt lat="44.86612465512699" lon="7.29849485523099"><ele>420.0</ele><time>2026-04-25T09:34:18.998Z</time></trkpt><trkpt lat="44.86618065238681" lon="7.298321883974855"><ele>420.0</ele><time>2026-04-25T09:34:19.998Z</time></trkpt><trkpt lat="44.866226167267676" lon="7.298202929331191"><ele>420.0</ele><time>2026-04-25T09:34:20.998Z</time></trkpt><trkpt lat="44.8662644035007" lon="7.2980631099445485"><ele>420.0</ele><time>2026-04-25T09:34:21.997Z</time></trkpt><trkpt lat="44.86630088677765" lon="7.2979046750481835"><ele>420.0</ele><time>2026-04-25T09:34:22.997Z</time></trkpt><trkpt lat="44.86633167100675" lon="7.297744331176961"><ele>420.0</ele><time>2026-04-25T09:34:23.997Z</time></trkpt><trkpt lat="44.866363813134704" lon="7.297582049705057"><ele>421.0</ele><time>2026-04-25T09:34:24.997Z</time></trkpt><trkpt lat="44.86639649367493" lon="7.29741594593807"><ele>422.0</ele><time>2026-04-25T09:34:25.997Z</time></trkpt><trkpt lat="44.866438369264124" lon="7.297236115018692"><ele>423.0</ele><time>2026-04-25T09:34:27Z</time></trkpt><trkpt lat="44.86648361040607" lon="7.297071792510198"><ele>424.0</ele><time>2026-04-25T09:34:28Z</time></trkpt><trkpt lat="44.866524610219834" lon="7.296928000235939"><ele>424.4</ele><time>2026-04-25T09:34:29Z</time></trkpt><trkpt lat="44.86654065241951" lon="7.29678285967682"><ele>424.79999999999995</ele><time>2026-04-25T09:34:30Z</time></trkpt><trkpt lat="44.86651181375658" lon="7.296637444284137"><ele>425.20000000000005</ele><time>2026-04-25T09:34:31Z</time></trkpt><trkpt lat="44.866443800623856" lon="7.296519224893118"><ele>425.6</ele><time>2026-04-25T09:34:32Z</time></trkpt><trkpt lat="44.8663539904124" lon="7.296426200573246"><ele>426.0</ele><time>2026-04-25T09:34:33Z</time></trkpt><trkpt lat="44.86626733910452" lon="7.296348174611334"><ele>426.8</ele><time>2026-04-25T09:34:34Z</time></trkpt><trkpt lat="44.86620481540872" lon="7.296271407933572"><ele>427.6</ele><time>2026-04-25T09:34:35Z</time></trkpt><trkpt lat="44.86620284554524" lon="7.296114063240617"><ele>428.4</ele><time>2026-04-25T09:34:36Z</time></trkpt><trkpt lat="44.86621354215373" lon="7.2959491183033816"><ele>429.2</ele><time>2026-04-25T09:34:37Z</time></trkpt><trkpt lat="44.86621831057851" lon="7.295799306002856"><ele>430.0</ele><time>2026-04-25T09:34:38Z</time></trkpt><trkpt lat="44.8662234262472" lon="7.295668693213998"><ele>430.8</ele><time>2026-04-25T09:34:39Z</time></trkpt><trkpt lat="44.86623757203549" lon="7.295554576013284"><ele>431.6</ele><time>2026-04-25T09:34:40Z</time></trkpt><trkpt lat="44.8661842863027" lon="7.295411812180153"><ele>432.4</ele><time>2026-04-25T09:34:41Z</time></trkpt><trkpt lat="44.86618786899487" lon="7.295275774986138"><ele>433.2</ele><time>2026-04-25T09:34:42Z</time></trkpt><trkpt lat="44.866195424573725" lon="7.295143120658879"><ele>434.0</ele><time>2026-04-25T09:34:43Z</time></trkpt><trkpt lat="44.86620911895024" lon="7.295012751773466"><ele>434.0</ele><time>2026-04-25T09:34:44Z</time></trkpt><trkpt lat="44.86624787782495" lon="7.294873884093952"><ele>434.0</ele><time>2026-04-25T09:34:45Z</time></trkpt><trkpt lat="44.86633069823919" lon="7.294763227215963"><ele>434.0</ele><time>2026-04-25T09:34:46Z</time></trkpt><trkpt lat="44.866399176716705" lon="7.294631723710615"><ele>434.0</ele><time>2026-04-25T09:34:47Z</time></trkpt><trkpt lat="44.866473973345116" lon="7.294515748687639"><ele>434.0</ele><time>2026-04-25T09:34:48Z</time></trkpt><trkpt lat="44.86652411367119" lon="7.294400626444893"><ele>433.79999999999995</ele><time>2026-04-25T09:34:49Z</time></trkpt><trkpt lat="44.86655110862092" lon="7.294299063416486"><ele>433.59999999999997</ele><time>2026-04-25T09:34:50Z</time></trkpt><trkpt lat="44.86654515029192" lon="7.294209642996088"><ele>433.4</ele><time>2026-04-25T09:34:51Z</time></trkpt><trkpt lat="44.86641943421554" lon="7.294098646042218"><ele>433.2</ele><time>2026-04-25T09:34:53Z</time></trkpt><trkpt lat="44.86632246660534" lon="7.294063176594884"><ele>433.0</ele><time>2026-04-25T09:34:53.999Z</time></trkpt><trkpt lat="44.86622802678882" lon="7.2940036014776215"><ele>433.0</ele><time>2026-04-25T09:34:54.999Z</time></trkpt><trkpt lat="44.866118172089934" lon="7.293929743928703"><ele>433.0</ele><time>2026-04-25T09:34:55.999Z</time></trkpt><trkpt lat="44.86601468703696" lon="7.293862167401577"><ele>433.0</ele><time>2026-04-25T09:34:56.999Z</time></trkpt><trkpt lat="44.86595748162701" lon="7.2936968349641385"><ele>433.0</ele><time>2026-04-25T09:34:57.999Z</time></trkpt><trkpt lat="44.865877809813355" lon="7.2935581667531775"><ele>433.0</ele><time>2026-04-25T09:34:58.999Z</time></trkpt><trkpt lat="44.86578376658398" lon="7.293431052130787"><ele>433.0</ele><time>2026-04-25T09:34:59.999Z</time></trkpt><trkpt lat="44.86567535511265" lon="7.293297957676578"><ele>433.0</ele><time>2026-04-25T09:35:00.999Z</time></trkpt><trkpt lat="44.86554281975042" lon="7.293166381164497"><ele>433.0</ele><time>2026-04-25T09:35:01.999Z</time></trkpt><trkpt lat="44.86539541545614" lon="7.2930382710609445"><ele>434.0</ele><time>2026-04-25T09:35:02.999Z</time></trkpt><trkpt lat="44.86525522405791" lon="7.292869730137951"><ele>435.0</ele><time>2026-04-25T09:35:03.999Z</time></trkpt><trkpt lat="44.86510815803492" lon="7.292741637395542"><ele>436.0</ele><time>2026-04-25T09:35:04.999Z</time></trkpt><trkpt lat="44.86500148532914" lon="7.292588608067733"><ele>438.0</ele><time>2026-04-25T09:35:05.999Z</time></trkpt><trkpt lat="44.864897023887835" lon="7.292439328063232"><ele>440.0</ele><time>2026-04-25T09:35:06.999Z</time></trkpt><trkpt lat="44.86478556109206" lon="7.292316475714782"><ele>442.0</ele><time>2026-04-25T09:35:07.999Z</time></trkpt><trkpt lat="44.86469498328271" lon="7.292179301641002"><ele>444.0</ele><time>2026-04-25T09:35:08.999Z</time></trkpt><trkpt lat="44.86460737690196" lon="7.292068414929187"><ele>444.2</ele><time>2026-04-25T09:35:09.999Z</time></trkpt><trkpt lat="44.86452256298579" lon="7.291977551323785"><ele>444.4</ele><time>2026-04-25T09:35:10.999Z</time></trkpt><trkpt lat="44.86443578475929" lon="7.291913831781808"><ele>444.6</ele><time>2026-04-25T09:35:11.999Z</time></trkpt><trkpt lat="44.86434021258863" lon="7.2918896137782285"><ele>444.8</ele><time>2026-04-25T09:35:12.999Z</time></trkpt><trkpt lat="44.86422432836169" lon="7.29190160365889"><ele>445.0</ele><time>2026-04-25T09:35:13.999Z</time></trkpt><trkpt lat="44.864112627141424" lon="7.291938234413644"><ele>446.0</ele><time>2026-04-25T09:35:14.999Z</time></trkpt><trkpt lat="44.86401645749436" lon="7.292007525014112"><ele>447.0</ele><time>2026-04-25T09:35:15.999Z</time></trkpt><trkpt lat="44.86391913095435" lon="7.2921241954642815"><ele>448.0</ele><time>2026-04-25T09:35:16.999Z</time></trkpt><trkpt lat="44.86382508273073" lon="7.292260714163575"><ele>449.0</ele><time>2026-04-25T09:35:17.999Z</time></trkpt><trkpt lat="44.863742983470146" lon="7.292373003888091"><ele>449.3333333333333</ele><time>2026-04-25T09:35:18.999Z</time></trkpt><trkpt lat="44.8636683953875" lon="7.29245273706515"><ele>449.66666666666663</ele><time>2026-04-25T09:35:19.999Z</time></trkpt><trkpt lat="44.863587548515945" lon="7.2924787063508765"><ele>450.0</ele><time>2026-04-25T09:35:20.999Z</time></trkpt><trkpt lat="44.86351179189353" lon="7.2925008978356"><ele>450.33333333333337</ele><time>2026-04-25T09:35:21.999Z</time></trkpt><trkpt lat="44.86343932010888" lon="7.292454893015212"><ele>450.6666666666667</ele><time>2026-04-25T09:35:22.999Z</time></trkpt><trkpt lat="44.863360628844184" lon="7.2923882285879955"><ele>451.0</ele><time>2026-04-25T09:35:23.999Z</time></trkpt><trkpt lat="44.8632759334582" lon="7.29231603351622"><ele>453.25</ele><time>2026-04-25T09:35:24.999Z</time></trkpt><trkpt lat="44.86318588182751" lon="7.292225666915167"><ele>455.5</ele><time>2026-04-25T09:35:25.999Z</time></trkpt><trkpt lat="44.863078861629994" lon="7.292136074898528"><ele>457.75</ele><time>2026-04-25T09:35:26.999Z</time></trkpt><trkpt lat="44.86297759150374" lon="7.292027894316227"><ele>460.0</ele><time>2026-04-25T09:35:27.999Z</time></trkpt><trkpt lat="44.862885647236666" lon="7.291912850000464"><ele>460.0</ele><time>2026-04-25T09:35:28.999Z</time></trkpt><trkpt lat="44.862809629422074" lon="7.29182106256628"><ele>460.0</ele><time>2026-04-25T09:35:29.999Z</time></trkpt><trkpt lat="44.86275799825223" lon="7.2917193519065915"><ele>460.0</ele><time>2026-04-25T09:35:30.999Z</time></trkpt><trkpt lat="44.8627189422993" lon="7.291566767771541"><ele>460.0</ele><time>2026-04-25T09:35:31.999Z</time></trkpt><trkpt lat="44.86266142464109" lon="7.291391817347005"><ele>460.0</ele><time>2026-04-25T09:35:32.999Z</time></trkpt><trkpt lat="44.86259901268978" lon="7.291205684583909"><ele>462.5</ele><time>2026-04-25T09:35:33.999Z</time></trkpt><trkpt lat="44.86253664267846" lon="7.291029899373369"><ele>465.0</ele><time>2026-04-25T09:35:34.999Z</time></trkpt><trkpt lat="44.862478599891645" lon="7.29087519400015"><ele>467.5</ele><time>2026-04-25T09:35:35.999Z</time></trkpt><trkpt lat="44.86244640829635" lon="7.290698141941437"><ele>470.0</ele><time>2026-04-25T09:35:36.999Z</time></trkpt><trkpt lat="44.862433538937736" lon="7.290487043527834"><ele>471.3333333333333</ele><time>2026-04-25T09:35:37.999Z</time></trkpt><trkpt lat="44.86240026727841" lon="7.290262384565753"><ele>472.66666666666663</ele><time>2026-04-25T09:35:38.999Z</time></trkpt><trkpt lat="44.862330021737755" lon="7.2900628293365335"><ele>474.0</ele><time>2026-04-25T09:35:39.999Z</time></trkpt><trkpt lat="44.8622777141467" lon="7.289886976019446"><ele>475.0</ele><time>2026-04-25T09:35:40.998Z</time></trkpt><trkpt lat="44.86222049071144" lon="7.289720125726337"><ele>476.0</ele><time>2026-04-25T09:35:41.998Z</time></trkpt><trkpt lat="44.8621847168138" lon="7.289517872638416"><ele>477.0</ele><time>2026-04-25T09:35:42.998Z</time></trkpt><trkpt lat="44.86216133294313" lon="7.289302904972069"><ele>478.0</ele><time>2026-04-25T09:35:43.998Z</time></trkpt><trkpt lat="44.86215809607454" lon="7.289058954890651"><ele>478.25</ele><time>2026-04-25T09:35:44.998Z</time></trkpt><trkpt lat="44.862158113234926" lon="7.28882293018872"><ele>478.5</ele><time>2026-04-25T09:35:45.998Z</time></trkpt><trkpt lat="44.862154993785424" lon="7.288618708972563"><ele>478.75</ele><time>2026-04-25T09:35:46.998Z</time></trkpt><trkpt lat="44.86215013535588" lon="7.288448983594731"><ele>479.0</ele><time>2026-04-25T09:35:47.998Z</time></trkpt><trkpt lat="44.862127756281296" lon="7.288290661411083"><ele>479.0</ele><time>2026-04-25T09:35:48.998Z</time></trkpt><trkpt lat="44.86210770611283" lon="7.2881591627848605"><ele>479.0</ele><time>2026-04-25T09:35:49.998Z</time></trkpt><trkpt lat="44.862061555199205" lon="7.288014341409772"><ele>479.0</ele><time>2026-04-25T09:35:50.998Z</time></trkpt><trkpt lat="44.86201650422023" lon="7.287869085943968"><ele>479.0</ele><time>2026-04-25T09:35:51.998Z</time></trkpt><trkpt lat="44.86200020320465" lon="7.287747315658083"><ele>479.0</ele><time>2026-04-25T09:35:52.998Z</time></trkpt><trkpt lat="44.86205767688922" lon="7.287634212616723"><ele>480.5</ele><time>2026-04-25T09:35:53.998Z</time></trkpt><trkpt lat="44.862124839039296" lon="7.287484236103966"><ele>482.0</ele><time>2026-04-25T09:35:54.998Z</time></trkpt><trkpt lat="44.86216399981274" lon="7.287313895526106"><ele>483.5</ele><time>2026-04-25T09:35:55.998Z</time></trkpt><trkpt lat="44.862163471265916" lon="7.287116287817468"><ele>485.0</ele><time>2026-04-25T09:35:56.998Z</time></trkpt><trkpt lat="44.862121008453784" lon="7.286909670311898"><ele>486.75</ele><time>2026-04-25T09:35:57.998Z</time></trkpt><trkpt lat="44.86205793626442" lon="7.286720374542942"><ele>488.5</ele><time>2026-04-25T09:35:58.998Z</time></trkpt><trkpt lat="44.86199144480535" lon="7.286557920489644"><ele>490.25</ele><time>2026-04-25T09:35:59.998Z</time></trkpt><trkpt lat="44.86189186229313" lon="7.286419103005407"><ele>492.0</ele><time>2026-04-25T09:36:00.998Z</time></trkpt><trkpt lat="44.86178900736066" lon="7.286255541463598"><ele>497.33333333333337</ele><time>2026-04-25T09:36:01.998Z</time></trkpt><trkpt lat="44.861677696266696" lon="7.286101134692319"><ele>502.6666666666667</ele><time>2026-04-25T09:36:02.998Z</time></trkpt><trkpt lat="44.86160868255045" lon="7.285890193750656"><ele>508.0</ele><time>2026-04-25T09:36:03.998Z</time></trkpt><trkpt lat="44.86156311739731" lon="7.285671522679107"><ele>509.0</ele><time>2026-04-25T09:36:04.998Z</time></trkpt><trkpt lat="44.86153834993611" lon="7.285479274385064"><ele>510.0</ele><time>2026-04-25T09:36:05.998Z</time></trkpt><trkpt lat="44.86149497546472" lon="7.285308095438025"><ele>511.0</ele><time>2026-04-25T09:36:06.998Z</time></trkpt><trkpt lat="44.86144642798358" lon="7.285168547256359"><ele>512.0</ele><time>2026-04-25T09:36:07.998Z</time></trkpt><trkpt lat="44.861405915709646" lon="7.285055560149597"><ele>512.0</ele><time>2026-04-25T09:36:08.998Z</time></trkpt><trkpt lat="44.8613569034769" lon="7.284959717349148"><ele>512.0</ele><time>2026-04-25T09:36:09.998Z</time></trkpt><trkpt lat="44.861323928137715" lon="7.28483449828013"><ele>512.0</ele><time>2026-04-25T09:36:10.998Z</time></trkpt><trkpt lat="44.861291766474494" lon="7.28471400585538"><ele>512.0</ele><time>2026-04-25T09:36:11.998Z</time></trkpt><trkpt lat="44.86127747530427" lon="7.284569801812461"><ele>512.0</ele><time>2026-04-25T09:36:12.998Z</time></trkpt><trkpt lat="44.86125188649871" lon="7.284416196873852"><ele>513.5</ele><time>2026-04-25T09:36:13.998Z</time></trkpt><trkpt lat="44.86121735289528" lon="7.284251905472979"><ele>515.0</ele><time>2026-04-25T09:36:14.998Z</time></trkpt><trkpt lat="44.86123120292282" lon="7.284076038572405"><ele>516.5</ele><time>2026-04-25T09:36:15.998Z</time></trkpt><trkpt lat="44.86123307492924" lon="7.283903596740763"><ele>518.0</ele><time>2026-04-25T09:36:16.998Z</time></trkpt><trkpt lat="44.861224503152464" lon="7.283728044481677"><ele>520.1999999999999</ele><time>2026-04-25T09:36:17.998Z</time></trkpt><trkpt lat="44.861234564466756" lon="7.283569381074942"><ele>522.4</ele><time>2026-04-25T09:36:18.998Z</time></trkpt><trkpt lat="44.86124559700567" lon="7.283412522154171"><ele>524.5999999999999</ele><time>2026-04-25T09:36:19.998Z</time></trkpt><trkpt lat="44.86124640242183" lon="7.283271397035083"><ele>526.8</ele><time>2026-04-25T09:36:20.998Z</time></trkpt><trkpt lat="44.86122846103516" lon="7.283128094428335"><ele>529.0</ele><time>2026-04-25T09:36:21.998Z</time></trkpt><trkpt lat="44.86119659762787" lon="7.282973490178923"><ele>530.2</ele><time>2026-04-25T09:36:22.998Z</time></trkpt><trkpt lat="44.86118536733521" lon="7.28281738069451"><ele>531.4</ele><time>2026-04-25T09:36:23.998Z</time></trkpt><trkpt lat="44.86117382882337" lon="7.282679696546798"><ele>532.6</ele><time>2026-04-25T09:36:24.998Z</time></trkpt><trkpt lat="44.86116244321674" lon="7.282536654076719"><ele>533.8</ele><time>2026-04-25T09:36:25.998Z</time></trkpt><trkpt lat="44.861129879234824" lon="7.282414594714455"><ele>535.0</ele><time>2026-04-25T09:36:26.997Z</time></trkpt><trkpt lat="44.861114930908755" lon="7.282316667479082"><ele>536.0</ele><time>2026-04-25T09:36:27.997Z</time></trkpt><trkpt lat="44.86109945149733" lon="7.282225041895774"><ele>537.0</ele><time>2026-04-25T09:36:29.997Z</time></trkpt><trkpt lat="44.861068743464855" lon="7.282137887587317"><ele>538.0</ele><time>2026-04-25T09:36:38Z</time></trkpt><trkpt lat="44.86100358858732" lon="7.282123824012854"><ele>539.0</ele><time>2026-04-25T09:37:45.998Z</time></trkpt><trkpt lat="44.860877418262874" lon="7.282177734341069"><ele>540.0</ele><time>2026-04-25T09:37:47.998Z</time></trkpt><trkpt lat="44.86078110745137" lon="7.2822115011331165"><ele>541.0</ele><time>2026-04-25T09:37:48.998Z</time></trkpt><trkpt lat="44.86067607528818" lon="7.282167259481702"><ele>544.25</ele><time>2026-04-25T09:37:49.998Z</time></trkpt><trkpt lat="44.86056727839539" lon="7.282187100946463"><ele>547.5</ele><time>2026-04-25T09:37:50.998Z</time></trkpt><trkpt lat="44.860446897157445" lon="7.282195264000765"><ele>550.75</ele><time>2026-04-25T09:37:51.998Z</time></trkpt><trkpt lat="44.86032361676112" lon="7.282217400979058"><ele>554.0</ele><time>2026-04-25T09:37:52.998Z</time></trkpt><trkpt lat="44.8602273143931" lon="7.282237910892468"><ele>554.0</ele><time>2026-04-25T09:37:53.998Z</time></trkpt><trkpt lat="44.860146106099926" lon="7.282245341937866"><ele>554.0</ele><time>2026-04-25T09:37:54.998Z</time></trkpt><trkpt lat="44.860067843865245" lon="7.2822472347875875"><ele>554.0</ele><time>2026-04-25T09:37:55.998Z</time></trkpt><trkpt lat="44.85999796917939" lon="7.282251103457488"><ele>554.0</ele><time>2026-04-25T09:37:56.998Z</time></trkpt><trkpt lat="44.85993498374765" lon="7.282255139703693"><ele>554.0</ele><time>2026-04-25T09:37:57.998Z</time></trkpt><trkpt lat="44.85982569985395" lon="7.282244274323749"><ele>554.0</ele><time>2026-04-25T09:37:59.998Z</time></trkpt><trkpt lat="44.8597298861013" lon="7.28209680354853"><ele>555.5</ele><time>2026-04-25T09:38:01.998Z</time></trkpt><trkpt lat="44.859649652384995" lon="7.281996046534501"><ele>557.0</ele><time>2026-04-25T09:38:02.998Z</time></trkpt><trkpt lat="44.85955848268662" lon="7.281889612166086"><ele>558.5</ele><time>2026-04-25T09:38:03.998Z</time></trkpt><trkpt lat="44.859453355406146" lon="7.281794507095719"><ele>560.0</ele><time>2026-04-25T09:38:04.998Z</time></trkpt><trkpt lat="44.85935324052623" lon="7.281713088889819"><ele>558.0</ele><time>2026-04-25T09:38:05.998Z</time></trkpt><trkpt lat="44.859258572299794" lon="7.281636100031112"><ele>556.0</ele><time>2026-04-25T09:38:06.998Z</time></trkpt><trkpt lat="44.85916310137598" lon="7.281559206102691"><ele>554.0</ele><time>2026-04-25T09:38:07.998Z</time></trkpt><trkpt lat="44.85906991319019" lon="7.281490151524738"><ele>552.0</ele><time>2026-04-25T09:38:08.998Z</time></trkpt><trkpt lat="44.85898125883517" lon="7.281439931620963"><ele>550.0</ele><time>2026-04-25T09:38:09.998Z</time></trkpt><trkpt lat="44.85892100930889" lon="7.281382058365127"><ele>550.0</ele><time>2026-04-25T09:38:10.998Z</time></trkpt><trkpt lat="44.85886361928549" lon="7.281328936595826"><ele>550.0</ele><time>2026-04-25T09:38:11.998Z</time></trkpt><trkpt lat="44.85878169413373" lon="7.281422833831031"><ele>550.0</ele><time>2026-04-25T09:38:13.998Z</time></trkpt><trkpt lat="44.85872454046735" lon="7.281550110484633"><ele>550.0</ele><time>2026-04-25T09:38:15.998Z</time></trkpt><trkpt lat="44.85870089713991" lon="7.281699110615828"><ele>550.0</ele><time>2026-04-25T09:38:16.998Z</time></trkpt><trkpt lat="44.858682874374004" lon="7.281856863154181"><ele>550.0</ele><time>2026-04-25T09:38:17.998Z</time></trkpt><trkpt lat="44.85866966725629" lon="7.2820223763629"><ele>550.0</ele><time>2026-04-25T09:38:18.998Z</time></trkpt><trkpt lat="44.858623893660244" lon="7.2821780051574025"><ele>550.0</ele><time>2026-04-25T09:38:19.998Z</time></trkpt><trkpt lat="44.858567261602616" lon="7.2823247106338"><ele>550.0</ele><time>2026-04-25T09:38:20.998Z</time></trkpt><trkpt lat="44.85852789065007" lon="7.282481067265596"><ele>545.75</ele><time>2026-04-25T09:38:21.998Z</time></trkpt><trkpt lat="44.85851024876088" lon="7.282652804099206"><ele>541.5</ele><time>2026-04-25T09:38:22.998Z</time></trkpt><trkpt lat="44.85850665122268" lon="7.282821191046832"><ele>537.25</ele><time>2026-04-25T09:38:23.998Z</time></trkpt><trkpt lat="44.85849637005" lon="7.282991110539017"><ele>533.0</ele><time>2026-04-25T09:38:24.998Z</time></trkpt><trkpt lat="44.85847428745383" lon="7.283164051618054"><ele>538.0</ele><time>2026-04-25T09:38:25.998Z</time></trkpt><trkpt lat="44.858448930719575" lon="7.2833032268088855"><ele>543.0</ele><time>2026-04-25T09:38:26.998Z</time></trkpt><trkpt lat="44.85840974868543" lon="7.283432536187572"><ele>548.0</ele><time>2026-04-25T09:38:27.998Z</time></trkpt><trkpt lat="44.858352167903064" lon="7.283501269991921"><ele>553.0</ele><time>2026-04-25T09:38:28.998Z</time></trkpt><trkpt lat="44.85829618130111" lon="7.283544971763396"><ele>558.0</ele><time>2026-04-25T09:38:29.998Z</time></trkpt><trkpt lat="44.858232316043875" lon="7.283557236074884"><ele>563.0</ele><time>2026-04-25T09:38:31.997Z</time></trkpt><trkpt lat="44.8582802349507" lon="7.283406179946965"><ele>563.0</ele><time>2026-04-25T09:38:33.997Z</time></trkpt><trkpt lat="44.85830115732205" lon="7.283303445532276"><ele>563.0</ele><time>2026-04-25T09:38:34.997Z</time></trkpt><trkpt lat="44.85829940158093" lon="7.283177135580352"><ele>563.0</ele><time>2026-04-25T09:38:35.997Z</time></trkpt><trkpt lat="44.858272375690724" lon="7.283073819449528"><ele>563.0</ele><time>2026-04-25T09:38:36.997Z</time></trkpt><trkpt lat="44.85822678420116" lon="7.282997994358555"><ele>563.0</ele><time>2026-04-25T09:38:37.997Z</time></trkpt><trkpt lat="44.858178682887186" lon="7.282921161339452"><ele>563.0</ele><time>2026-04-25T09:38:39Z</time></trkpt><trkpt lat="44.8581540903199" lon="7.282817013480457"><ele>564.0</ele><time>2026-04-25T09:38:40Z</time></trkpt><trkpt lat="44.85812470456317" lon="7.2827216896620826"><ele>565.0</ele><time>2026-04-25T09:38:41Z</time></trkpt><trkpt lat="44.85809381762099" lon="7.282614872349793"><ele>566.0</ele><time>2026-04-25T09:38:42Z</time></trkpt><trkpt lat="44.85806696223122" lon="7.282510826406682"><ele>567.0</ele><time>2026-04-25T09:38:43Z</time></trkpt><trkpt lat="44.85804212068268" lon="7.282402356692954"><ele>568.0</ele><time>2026-04-25T09:38:44Z</time></trkpt><trkpt lat="44.85802969148839" lon="7.282296837437552"><ele>569.0</ele><time>2026-04-25T09:38:45Z</time></trkpt><trkpt lat="44.85802012333049" lon="7.282176048434385"><ele>570.2</ele><time>2026-04-25T09:38:46Z</time></trkpt><trkpt lat="44.85800941064387" lon="7.282023374002866"><ele>571.4</ele><time>2026-04-25T09:38:47Z</time></trkpt><trkpt lat="44.857993440375495" lon="7.281862800743609"><ele>572.6</ele><time>2026-04-25T09:38:48Z</time></trkpt><trkpt lat="44.85797654502144" lon="7.281737449432395"><ele>573.8</ele><time>2026-04-25T09:38:49Z</time></trkpt><trkpt lat="44.85798800754564" lon="7.28159974690884"><ele>575.0</ele><time>2026-04-25T09:38:50Z</time></trkpt><trkpt lat="44.85795982291917" lon="7.2814765744336025"><ele>575.0</ele><time>2026-04-25T09:38:51Z</time></trkpt><trkpt lat="44.85792997257617" lon="7.281366029829222"><ele>575.0</ele><time>2026-04-25T09:38:52Z</time></trkpt><trkpt lat="44.857878936460935" lon="7.281271774144409"><ele>575.0</ele><time>2026-04-25T09:38:53Z</time></trkpt><trkpt lat="44.8578340888778" lon="7.281207960038302"><ele>575.0</ele><time>2026-04-25T09:39:19.999Z</time></trkpt><trkpt lat="44.85774460700219" lon="7.281267715638239"><ele>575.0</ele><time>2026-04-25T09:39:22.999Z</time></trkpt><trkpt lat="44.857752823395664" lon="7.2813836001917585"><ele>575.0</ele><time>2026-04-25T09:39:24.999Z</time></trkpt><trkpt lat="44.85767345038967" lon="7.281453951345544"><ele>580.0</ele><time>2026-04-25T09:39:26.999Z</time></trkpt><trkpt lat="44.857603227433195" lon="7.281458705861226"><ele>585.0</ele><time>2026-04-25T09:39:27.999Z</time></trkpt><trkpt lat="44.857523521966876" lon="7.281406780291023"><ele>590.0</ele><time>2026-04-25T09:39:28.999Z</time></trkpt><trkpt lat="44.857451653883636" lon="7.281345940370145"><ele>595.0</ele><time>2026-04-25T09:39:29.999Z</time></trkpt><trkpt lat="44.85739465303515" lon="7.281285735737456"><ele>600.0</ele><time>2026-04-25T09:39:30.999Z</time></trkpt><trkpt lat="44.8573250334407" lon="7.281275090190568"><ele>605.0</ele><time>2026-04-25T09:39:31.999Z</time></trkpt><trkpt lat="44.857240543136044" lon="7.28125671095221"><ele>605.8333333333333</ele><time>2026-04-25T09:39:32.999Z</time></trkpt><trkpt lat="44.85716237931036" lon="7.281305377629892"><ele>606.6666666666666</ele><time>2026-04-25T09:39:33.999Z</time></trkpt><trkpt lat="44.85708403477533" lon="7.281308459909472"><ele>607.5</ele><time>2026-04-25T09:39:34.999Z</time></trkpt><trkpt lat="44.85701695739811" lon="7.281310097069937"><ele>608.3333333333334</ele><time>2026-04-25T09:39:35.999Z</time></trkpt><trkpt lat="44.85692765508777" lon="7.281293172097963"><ele>609.1666666666667</ele><time>2026-04-25T09:39:36.999Z</time></trkpt><trkpt lat="44.856863518986756" lon="7.281242379044084"><ele>610.0</ele><time>2026-04-25T09:39:37.999Z</time></trkpt><trkpt lat="44.85681177231097" lon="7.281161617310148"><ele>613.2</ele><time>2026-04-25T09:39:38.999Z</time></trkpt><trkpt lat="44.85676760195796" lon="7.281030196699353"><ele>616.4</ele><time>2026-04-25T09:39:40.999Z</time></trkpt><trkpt lat="44.856714823117045" lon="7.280933337004754"><ele>619.6</ele><time>2026-04-25T09:39:42.999Z</time></trkpt><trkpt lat="44.85670059624056" lon="7.2808015465094025"><ele>622.8</ele><time>2026-04-25T09:39:44.999Z</time></trkpt><trkpt lat="44.856749337500034" lon="7.280744386572729"><ele>626.0</ele><time>2026-04-25T09:39:45.999Z</time></trkpt><trkpt lat="44.856783198628406" lon="7.280585768327739"><ele>629.2</ele><time>2026-04-25T09:39:47.999Z</time></trkpt><trkpt lat="44.85676192169691" lon="7.28046749151848"><ele>632.4000000000001</ele><time>2026-04-25T09:39:48.999Z</time></trkpt><trkpt lat="44.85671911464706" lon="7.280329587379518"><ele>635.6</ele><time>2026-04-25T09:39:49.998Z</time></trkpt><trkpt lat="44.856688081788" lon="7.280237028277025"><ele>638.8000000000001</ele><time>2026-04-25T09:39:50.998Z</time></trkpt><trkpt lat="44.856639153709295" lon="7.28009469212342"><ele>642.0</ele><time>2026-04-25T09:39:52.998Z</time></trkpt><trkpt lat="44.85659919814314" lon="7.279978456311686"><ele>642.0</ele><time>2026-04-25T09:39:54.998Z</time></trkpt><trkpt lat="44.85656569551824" lon="7.279891285365699"><ele>642.0</ele><time>2026-04-25T09:39:57.998Z</time></trkpt><trkpt lat="44.85660154206264" lon="7.279758653999614"><ele>642.0</ele><time>2026-04-25T09:40:00.998Z</time></trkpt><trkpt lat="44.85652094925682" lon="7.279697037465586"><ele>642.0</ele><time>2026-04-25T09:40:01.998Z</time></trkpt><trkpt lat="44.85648347377155" lon="7.279576245613601"><ele>642.0</ele><time>2026-04-25T09:40:02.998Z</time></trkpt><trkpt lat="44.85645048840098" lon="7.279461683577686"><ele>642.0</ele><time>2026-04-25T09:40:03.998Z</time></trkpt><trkpt lat="44.856424187910605" lon="7.279342590015622"><ele>646.5</ele><time>2026-04-25T09:40:04.998Z</time></trkpt><trkpt lat="44.8565904458086" lon="7.27911340683087"><ele>651.0</ele><time>2026-04-25T09:40:05.998Z</time></trkpt><trkpt lat="44.85657070216827" lon="7.2789939721926995"><ele>655.5</ele><time>2026-04-25T09:40:06.998Z</time></trkpt><trkpt lat="44.856507031746055" lon="7.278889909503662"><ele>660.0</ele><time>2026-04-25T09:40:08.998Z</time></trkpt><trkpt lat="44.85657498599752" lon="7.278855639483729"><ele>664.1666666666666</ele><time>2026-04-25T09:40:11.998Z</time></trkpt><trkpt lat="44.856650963980314" lon="7.278864114476586"><ele>668.3333333333334</ele><time>2026-04-25T09:40:13.998Z</time></trkpt><trkpt lat="44.856732385105985" lon="7.278795494826633"><ele>672.5</ele><time>2026-04-25T09:40:14.998Z</time></trkpt><trkpt lat="44.85679631306302" lon="7.278828471747747"><ele>676.6666666666667</ele><time>2026-04-25T09:40:15.998Z</time></trkpt><trkpt lat="44.85688556498636" lon="7.278800582094098"><ele>680.8333333333334</ele><time>2026-04-25T09:40:16.998Z</time></trkpt><trkpt lat="44.85696726596386" lon="7.278777411802765"><ele>685.0</ele><time>2026-04-25T09:40:17.998Z</time></trkpt><trkpt lat="44.8570553986206" lon="7.278724988426572"><ele>685.0</ele><time>2026-04-25T09:40:18.998Z</time></trkpt><trkpt lat="44.85717409350266" lon="7.2786546154695015"><ele>685.0</ele><time>2026-04-25T09:40:19.998Z</time></trkpt><trkpt lat="44.857278619836684" lon="7.278630354991477"><ele>685.0</ele><time>2026-04-25T09:40:20.998Z</time></trkpt><trkpt lat="44.85735775030882" lon="7.278627371934417"><ele>685.0</ele><time>2026-04-25T09:40:21.998Z</time></trkpt><trkpt lat="44.85742930303003" lon="7.278594941211954"><ele>685.0</ele><time>2026-04-25T09:40:22.998Z</time></trkpt><trkpt lat="44.85750111101564" lon="7.278542727327031"><ele>685.0</ele><time>2026-04-25T09:40:23.998Z</time></trkpt><trkpt lat="44.85756910065397" lon="7.278424783690943"><ele>685.0</ele><time>2026-04-25T09:40:25.998Z</time></trkpt><trkpt lat="44.85763131922731" lon="7.278345792417884"><ele>685.0</ele><time>2026-04-25T09:40:27.998Z</time></trkpt><trkpt lat="44.85766931162659" lon="7.278263471773811"><ele>685.0</ele><time>2026-04-25T09:40:28.998Z</time></trkpt><trkpt lat="44.85771037596465" lon="7.278159532675217"><ele>685.0</ele><time>2026-04-25T09:40:29.998Z</time></trkpt><trkpt lat="44.85773364617785" lon="7.278055081899974"><ele>685.0</ele><time>2026-04-25T09:40:30.998Z</time></trkpt><trkpt lat="44.857741072100424" lon="7.277961879554764"><ele>681.6</ele><time>2026-04-25T09:40:31.998Z</time></trkpt><trkpt lat="44.85771720228931" lon="7.277840093325031"><ele>678.2</ele><time>2026-04-25T09:40:33.998Z</time></trkpt><trkpt lat="44.85763437256938" lon="7.277692538558699"><ele>674.8</ele><time>2026-04-25T09:40:35.997Z</time></trkpt><trkpt lat="44.857648220855836" lon="7.277520805102677"><ele>671.4</ele><time>2026-04-25T09:40:37.997Z</time></trkpt><trkpt lat="44.857659088699144" lon="7.277416826085444"><ele>668.0</ele><time>2026-04-25T09:40:38.997Z</time></trkpt><trkpt lat="44.857662351472754" lon="7.277321731256799"><ele>668.0</ele><time>2026-04-25T09:40:39.997Z</time></trkpt><trkpt lat="44.857629299793366" lon="7.277173724087083"><ele>668.0</ele><time>2026-04-25T09:40:41.997Z</time></trkpt><trkpt lat="44.85758315250847" lon="7.277033749113873"><ele>668.0</ele><time>2026-04-25T09:40:42.997Z</time></trkpt><trkpt lat="44.85753586521574" lon="7.276909950701791"><ele>668.0</ele><time>2026-04-25T09:40:44Z</time></trkpt><trkpt lat="44.85748994970382" lon="7.276795246011711"><ele>668.0</ele><time>2026-04-25T09:40:45Z</time></trkpt><trkpt lat="44.85741523751293" lon="7.276843135656287"><ele>674.0</ele><time>2026-04-25T09:40:49Z</time></trkpt><trkpt lat="44.8574102854543" lon="7.276941230209513"><ele>680.0</ele><time>2026-04-25T09:40:50Z</time></trkpt><trkpt lat="44.85741090330198" lon="7.277058076876022"><ele>686.0</ele><time>2026-04-25T09:40:51Z</time></trkpt><trkpt lat="44.85739315109998" lon="7.27716461873088"><ele>692.0</ele><time>2026-04-25T09:40:52Z</time></trkpt><trkpt lat="44.85732503125593" lon="7.277209426923914"><ele>698.0</ele><time>2026-04-25T09:40:53Z</time></trkpt><trkpt lat="44.85717021107577" lon="7.277106475865681"><ele>698.0</ele><time>2026-04-25T09:40:58Z</time></trkpt><trkpt lat="44.85708329860574" lon="7.27708003170771"><ele>698.0</ele><time>2026-04-25T09:40:59Z</time></trkpt><trkpt lat="44.857009326286835" lon="7.27704961582258"><ele>698.0</ele><time>2026-04-25T09:41:00Z</time></trkpt><trkpt lat="44.856928825192185" lon="7.277054365444954"><ele>698.0</ele><time>2026-04-25T09:41:01Z</time></trkpt><trkpt lat="44.85686867656389" lon="7.277100753082023"><ele>698.0</ele><time>2026-04-25T09:41:02Z</time></trkpt><trkpt lat="44.85684145119244" lon="7.277214599699757"><ele>698.0</ele><time>2026-04-25T09:41:04Z</time></trkpt><trkpt lat="44.85675238121903" lon="7.277253552591654"><ele>701.0</ele><time>2026-04-25T09:41:05.999Z</time></trkpt><trkpt lat="44.856679862699814" lon="7.277301494675319"><ele>704.0</ele><time>2026-04-25T09:41:06.999Z</time></trkpt><trkpt lat="44.85659403414901" lon="7.277351907279141"><ele>707.0</ele><time>2026-04-25T09:41:07.999Z</time></trkpt><trkpt lat="44.856514791225095" lon="7.277372919573543"><ele>710.0</ele><time>2026-04-25T09:41:08.999Z</time></trkpt><trkpt lat="44.856405373556356" lon="7.277345733434375"><ele>713.0</ele><time>2026-04-25T09:41:10.999Z</time></trkpt><trkpt lat="44.85632577347731" lon="7.277253691962903"><ele>713.0</ele><time>2026-04-25T09:41:12.999Z</time></trkpt><trkpt lat="44.85607187585156" lon="7.2773673745503675"><ele>713.0</ele><time>2026-04-25T09:41:14.999Z</time></trkpt><trkpt lat="44.85598528070671" lon="7.277266511646652"><ele>713.0</ele><time>2026-04-25T09:41:16.999Z</time></trkpt><trkpt lat="44.855957804753054" lon="7.277179883190182"><ele>713.0</ele><time>2026-04-25T09:41:17.999Z</time></trkpt><trkpt lat="44.85592063203314" lon="7.277086230156487"><ele>715.8333333333333</ele><time>2026-04-25T09:41:18.999Z</time></trkpt><trkpt lat="44.85587137088853" lon="7.277017884777868"><ele>718.6666666666666</ele><time>2026-04-25T09:41:19.999Z</time></trkpt><trkpt lat="44.85582349812524" lon="7.2769263205565835"><ele>721.5</ele><time>2026-04-25T09:41:20.999Z</time></trkpt><trkpt lat="44.855774341363016" lon="7.27685256287037"><ele>724.3333333333334</ele><time>2026-04-25T09:41:21.999Z</time></trkpt><trkpt lat="44.855723250220215" lon="7.276779828175124"><ele>727.1666666666667</ele><time>2026-04-25T09:41:22.999Z</time></trkpt><trkpt lat="44.855664476928865" lon="7.276736583498529"><ele>730.0</ele><time>2026-04-25T09:41:23.999Z</time></trkpt><trkpt lat="44.855568383933864" lon="7.276709008668789"><ele>730.0</ele><time>2026-04-25T09:41:25.999Z</time></trkpt><trkpt lat="44.85545593077448" lon="7.276738359639186"><ele>730.0</ele><time>2026-04-25T09:41:27.999Z</time></trkpt><trkpt lat="44.85537074227914" lon="7.276812788943861"><ele>730.0</ele><time>2026-04-25T09:41:29.999Z</time></trkpt><trkpt lat="44.85529080818725" lon="7.276801097339663"><ele>730.0</ele><time>2026-04-25T09:41:31.999Z</time></trkpt><trkpt lat="44.8552377374635" lon="7.276606727715575"><ele>730.0</ele><time>2026-04-25T09:41:33.999Z</time></trkpt><trkpt lat="44.855240950417574" lon="7.276511186619679"><ele>732.6666666666667</ele><time>2026-04-25T09:41:34.999Z</time></trkpt><trkpt lat="44.855262596340324" lon="7.27640225924321"><ele>735.3333333333334</ele><time>2026-04-25T09:41:35.999Z</time></trkpt><trkpt lat="44.855302018464755" lon="7.276285460709763"><ele>738.0</ele><time>2026-04-25T09:41:36.999Z</time></trkpt><trkpt lat="44.855355997810264" lon="7.276155169526618"><ele>740.6666666666666</ele><time>2026-04-25T09:41:37.999Z</time></trkpt><trkpt lat="44.85536613560648" lon="7.27604507615105"><ele>743.3333333333333</ele><time>2026-04-25T09:41:38.999Z</time></trkpt><trkpt lat="44.85537187355794" lon="7.2759164683929916"><ele>746.0</ele><time>2026-04-25T09:41:39.999Z</time></trkpt><trkpt lat="44.855372656544475" lon="7.275791168396734"><ele>746.0</ele><time>2026-04-25T09:41:40.999Z</time></trkpt><trkpt lat="44.85538815807942" lon="7.275673295336298"><ele>746.0</ele><time>2026-04-25T09:41:41.999Z</time></trkpt><trkpt lat="44.855381578127144" lon="7.275579133689001"><ele>746.0</ele><time>2026-04-25T09:41:42.999Z</time></trkpt><trkpt lat="44.85544100113054" lon="7.275469653111621"><ele>746.0</ele><time>2026-04-25T09:41:44.999Z</time></trkpt><trkpt lat="44.8555061674715" lon="7.275409699263439"><ele>746.0</ele><time>2026-04-25T09:41:45.999Z</time></trkpt><trkpt lat="44.85558213449974" lon="7.275368246107357"><ele>746.0</ele><time>2026-04-25T09:41:46.999Z</time></trkpt><trkpt lat="44.85567534679238" lon="7.2753537162560304"><ele>748.8</ele><time>2026-04-25T09:41:47.999Z</time></trkpt><trkpt lat="44.85574293724225" lon="7.275308955166769"><ele>751.5999999999999</ele><time>2026-04-25T09:41:48.999Z</time></trkpt><trkpt lat="44.855759317333316" lon="7.275198511507186"><ele>754.4</ele><time>2026-04-25T09:41:50.999Z</time></trkpt><trkpt lat="44.85575507329104" lon="7.274987492213109"><ele>757.2</ele><time>2026-04-25T09:41:52.998Z</time></trkpt><trkpt lat="44.85580618814969" lon="7.274839807340191"><ele>760.0</ele><time>2026-04-25T09:41:53.998Z</time></trkpt><trkpt lat="44.855862501964474" lon="7.274687911327563"><ele>761.2</ele><time>2026-04-25T09:41:54.998Z</time></trkpt><trkpt lat="44.85590380451496" lon="7.274506510508187"><ele>762.4</ele><time>2026-04-25T09:41:55.998Z</time></trkpt><trkpt lat="44.85589012352348" lon="7.274366362521359"><ele>763.5999999999999</ele><time>2026-04-25T09:41:56.998Z</time></trkpt><trkpt lat="44.85589794408573" lon="7.2742537023745575"><ele>764.8</ele><time>2026-04-25T09:41:57.998Z</time></trkpt><trkpt lat="44.855909057507716" lon="7.2741368772402915"><ele>766.0</ele><time>2026-04-25T09:41:58.998Z</time></trkpt><trkpt lat="44.85591501822603" lon="7.274021599860627"><ele>767.6666666666667</ele><time>2026-04-25T09:41:59.998Z</time></trkpt><trkpt lat="44.8559080235534" lon="7.273902102628603"><ele>769.3333333333334</ele><time>2026-04-25T09:42:00.998Z</time></trkpt><trkpt lat="44.85590970874913" lon="7.273784229575902"><ele>771.0</ele><time>2026-04-25T09:42:01.998Z</time></trkpt><trkpt lat="44.8559105301033" lon="7.273660904460673"><ele>772.6666666666667</ele><time>2026-04-25T09:42:02.998Z</time></trkpt><trkpt lat="44.855895630083324" lon="7.273522764266035"><ele>774.3333333333334</ele><time>2026-04-25T09:42:03.998Z</time></trkpt><trkpt lat="44.855873441036394" lon="7.273396383762772"><ele>776.0</ele><time>2026-04-25T09:42:04.998Z</time></trkpt><trkpt lat="44.8558660211289" lon="7.273273926654736"><ele>776.0</ele><time>2026-04-25T09:42:06.998Z</time></trkpt><trkpt lat="44.85593213757945" lon="7.273152522113566"><ele>776.0</ele><time>2026-04-25T09:42:08.998Z</time></trkpt><trkpt lat="44.85599907813355" lon="7.273092085240346"><ele>776.0</ele><time>2026-04-25T09:42:09.998Z</time></trkpt><trkpt lat="44.856081791680026" lon="7.27304049997598"><ele>776.0</ele><time>2026-04-25T09:42:10.998Z</time></trkpt><trkpt lat="44.85616045308645" lon="7.272970651265119"><ele>776.0</ele><time>2026-04-25T09:42:11.998Z</time></trkpt><trkpt lat="44.85623596989094" lon="7.272893138597598"><ele>777.0</ele><time>2026-04-25T09:42:12.998Z</time></trkpt><trkpt lat="44.85632279917424" lon="7.272814400615509"><ele>778.0</ele><time>2026-04-25T09:42:13.998Z</time></trkpt><trkpt lat="44.85642139518857" lon="7.272752197298463"><ele>779.0</ele><time>2026-04-25T09:42:14.998Z</time></trkpt><trkpt lat="44.856506459938636" lon="7.272695454585026"><ele>780.0</ele><time>2026-04-25T09:42:15.998Z</time></trkpt><trkpt lat="44.856566369131336" lon="7.272544924724885"><ele>781.0</ele><time>2026-04-25T09:42:17.998Z</time></trkpt><trkpt lat="44.856600123683016" lon="7.272461513652184"><ele>781.0</ele><time>2026-04-25T09:42:18.998Z</time></trkpt><trkpt lat="44.85665375744652" lon="7.2723528293294875"><ele>781.0</ele><time>2026-04-25T09:42:20.998Z</time></trkpt><trkpt lat="44.85676029762879" lon="7.272404363952819"><ele>781.0</ele><time>2026-04-25T09:42:22.998Z</time></trkpt><trkpt lat="44.856836224678595" lon="7.272423749287753"><ele>781.0</ele><time>2026-04-25T09:42:23.998Z</time></trkpt><trkpt lat="44.856915788397735" lon="7.272414342089482"><ele>781.0</ele><time>2026-04-25T09:42:24.998Z</time></trkpt><trkpt lat="44.85700084433941" lon="7.272373214499218"><ele>778.25</ele><time>2026-04-25T09:42:25.998Z</time></trkpt><trkpt lat="44.85710850213646" lon="7.272310867879362"><ele>775.5</ele><time>2026-04-25T09:42:26.998Z</time></trkpt><trkpt lat="44.8572068356845" lon="7.272215407897175"><ele>772.75</ele><time>2026-04-25T09:42:27.998Z</time></trkpt><trkpt lat="44.857317987808756" lon="7.272123770760635"><ele>770.0</ele><time>2026-04-25T09:42:28.998Z</time></trkpt><trkpt lat="44.85736958600388" lon="7.27194853994018"><ele>771.8333333333334</ele><time>2026-04-25T09:42:29.998Z</time></trkpt><trkpt lat="44.85740692169909" lon="7.271845303594353"><ele>773.6666666666667</ele><time>2026-04-25T09:42:30.998Z</time></trkpt><trkpt lat="44.85745438330985" lon="7.271782804857079"><ele>775.5</ele><time>2026-04-25T09:42:31.998Z</time></trkpt><trkpt lat="44.85758064892286" lon="7.271772477170204"><ele>777.3333333333333</ele><time>2026-04-25T09:42:33.998Z</time></trkpt><trkpt lat="44.85765243226888" lon="7.271831469911638"><ele>779.1666666666666</ele><time>2026-04-25T09:42:35.998Z</time></trkpt><trkpt lat="44.85767866638534" lon="7.271727589865408"><ele>781.0</ele><time>2026-04-25T09:42:37.998Z</time></trkpt><trkpt lat="44.85778803336506" lon="7.271711319170685"><ele>781.0</ele><time>2026-04-25T09:42:38.997Z</time></trkpt><trkpt lat="44.857894784431416" lon="7.27165463601472"><ele>781.0</ele><time>2026-04-25T09:42:39.997Z</time></trkpt><trkpt lat="44.858006189868455" lon="7.271516159835435"><ele>781.0</ele><time>2026-04-25T09:42:40.997Z</time></trkpt><trkpt lat="44.85807961276061" lon="7.271361591380627"><ele>781.0</ele><time>2026-04-25T09:42:41.997Z</time></trkpt><trkpt lat="44.85817252218545" lon="7.27122341020002"><ele>786.8</ele><time>2026-04-25T09:42:42.997Z</time></trkpt><trkpt lat="44.858262095429275" lon="7.271132969691405"><ele>792.5999999999999</ele><time>2026-04-25T09:42:43.997Z</time></trkpt><trkpt lat="44.85836039109812" lon="7.271036829296596"><ele>798.4</ele><time>2026-04-25T09:42:44.997Z</time></trkpt><trkpt lat="44.858453548355875" lon="7.2709613782762155"><ele>804.2</ele><time>2026-04-25T09:42:45.997Z</time></trkpt><trkpt lat="44.85855466599659" lon="7.2709401336893835"><ele>810.0</ele><time>2026-04-25T09:42:46.997Z</time></trkpt><trkpt lat="44.85862790742254" lon="7.270915841346378"><ele>811.4</ele><time>2026-04-25T09:42:47.997Z</time></trkpt><trkpt lat="44.85871224770518" lon="7.27095291939455"><ele>812.8</ele><time>2026-04-25T09:42:48.997Z</time></trkpt><trkpt lat="44.85879880950981" lon="7.271058491304747"><ele>814.2</ele><time>2026-04-25T09:42:50Z</time></trkpt><trkpt lat="44.85887289058529" lon="7.271153344525601"><ele>815.6</ele><time>2026-04-25T09:42:51Z</time></trkpt><trkpt lat="44.858933331398816" lon="7.271225365625348"><ele>817.0</ele><time>2026-04-25T09:42:52Z</time></trkpt><trkpt lat="44.85899781400839" lon="7.271274209845241"><ele>817.0</ele><time>2026-04-25T09:42:53Z</time></trkpt><trkpt lat="44.85912074023991" lon="7.271248465933117"><ele>817.0</ele><time>2026-04-25T09:42:55Z</time></trkpt><trkpt lat="44.85920639390025" lon="7.2712402129604445"><ele>817.0</ele><time>2026-04-25T09:42:56Z</time></trkpt><trkpt lat="44.85927273589359" lon="7.27125944988662"><ele>817.0</ele><time>2026-04-25T09:42:57Z</time></trkpt><trkpt lat="44.85931419222645" lon="7.271385669375405"><ele>817.0</ele><time>2026-04-25T09:42:58Z</time></trkpt><trkpt lat="44.85937049703814" lon="7.2714958350770305"><ele>812.2</ele><time>2026-04-25T09:42:59Z</time></trkpt><trkpt lat="44.859443974922854" lon="7.271589271969503"><ele>807.4000000000001</ele><time>2026-04-25T09:43:00Z</time></trkpt><trkpt lat="44.85952065942435" lon="7.2716851282942665"><ele>802.5999999999999</ele><time>2026-04-25T09:43:01Z</time></trkpt><trkpt lat="44.85958963026831" lon="7.271761434412176"><ele>797.8</ele><time>2026-04-25T09:43:02Z</time></trkpt><trkpt lat="44.85966825171821" lon="7.271776634238195"><ele>793.0</ele><time>2026-04-25T09:43:04Z</time></trkpt><trkpt lat="44.859642444245644" lon="7.271637574238989"><ele>792.9999999999999</ele><time>2026-04-25T09:43:08Z</time></trkpt><trkpt lat="44.859572531889384" lon="7.2715331338601406"><ele>793.0</ele><time>2026-04-25T09:43:09.999Z</time></trkpt><trkpt lat="44.85952609040168" lon="7.271363581385058"><ele>793.0</ele><time>2026-04-25T09:43:11.999Z</time></trkpt><trkpt lat="44.85950403908474" lon="7.27127271021334"><ele>793.0</ele><time>2026-04-25T09:43:12.999Z</time></trkpt><trkpt lat="44.859477916759076" lon="7.271186180402465"><ele>792.9999999999999</ele><time>2026-04-25T09:43:13.999Z</time></trkpt><trkpt lat="44.85945089767434" lon="7.271102387615701"><ele>793.0</ele><time>2026-04-25T09:43:14.999Z</time></trkpt><trkpt lat="44.85938989687331" lon="7.270947760412731"><ele>797.8</ele><time>2026-04-25T09:43:16.999Z</time></trkpt><trkpt lat="44.85934717081793" lon="7.270869330285589"><ele>802.5999999999999</ele><time>2026-04-25T09:43:17.999Z</time></trkpt><trkpt lat="44.859265955765885" lon="7.270806783078846"><ele>807.4000000000001</ele><time>2026-04-25T09:43:18.999Z</time></trkpt><trkpt lat="44.85914289425582" lon="7.2708598722102025"><ele>812.2</ele><time>2026-04-25T09:43:19.999Z</time></trkpt><trkpt lat="44.859063266220474" lon="7.2708044596083115"><ele>817.0</ele><time>2026-04-25T09:43:20.999Z</time></trkpt><trkpt lat="44.859000541004505" lon="7.270745892859191"><ele>817.0</ele><time>2026-04-25T09:43:21.999Z</time></trkpt><trkpt lat="44.858943226513304" lon="7.270645122168311"><ele>817.0</ele><time>2026-04-25T09:43:22.999Z</time></trkpt><trkpt lat="44.85887089881868" lon="7.2705261530402785"><ele>817.0</ele><time>2026-04-25T09:43:23.999Z</time></trkpt><trkpt lat="44.85879687697047" lon="7.270422871662949"><ele>817.0</ele><time>2026-04-25T09:43:24.999Z</time></trkpt><trkpt lat="44.85870881186098" lon="7.270305670338907"><ele>817.0</ele><time>2026-04-25T09:43:25.999Z</time></trkpt><trkpt lat="44.858604995489394" lon="7.270186657665707"><ele>822.0</ele><time>2026-04-25T09:43:26.999Z</time></trkpt><trkpt lat="44.858513388390044" lon="7.270114764119794"><ele>827.0</ele><time>2026-04-25T09:43:27.999Z</time></trkpt><trkpt lat="44.85842823685066" lon="7.270105628024512"><ele>832.0</ele><time>2026-04-25T09:43:28.999Z</time></trkpt><trkpt lat="44.85834149885976" lon="7.270138558855096"><ele>837.0</ele><time>2026-04-25T09:43:29.999Z</time></trkpt><trkpt lat="44.85826760394603" lon="7.270188125875234"><ele>842.0</ele><time>2026-04-25T09:43:30.999Z</time></trkpt><trkpt lat="44.858189547527665" lon="7.270257687371732"><ele>842.0</ele><time>2026-04-25T09:43:31.999Z</time></trkpt><trkpt lat="44.858086557917794" lon="7.27031790478428"><ele>842.0</ele><time>2026-04-25T09:43:32.999Z</time></trkpt><trkpt lat="44.857995473541045" lon="7.270368797550736"><ele>842.0</ele><time>2026-04-25T09:43:33.999Z</time></trkpt><trkpt lat="44.857897646658266" lon="7.270408995221884"><ele>842.0</ele><time>2026-04-25T09:43:34.999Z</time></trkpt><trkpt lat="44.85781622273665" lon="7.270423784516767"><ele>842.0</ele><time>2026-04-25T09:43:35.999Z</time></trkpt><trkpt lat="44.85775479991251" lon="7.270391950407069"><ele>842.0000000000001</ele><time>2026-04-25T09:43:36.999Z</time></trkpt><trkpt lat="44.85769537072717" lon="7.27033528806319"><ele>842.0</ele><time>2026-04-25T09:43:37.999Z</time></trkpt><trkpt lat="44.85765190678013" lon="7.270268374173158"><ele>842.0</ele><time>2026-04-25T09:43:38.999Z</time></trkpt><trkpt lat="44.85758384322767" lon="7.270170537847703"><ele>842.0</ele><time>2026-04-25T09:43:39.999Z</time></trkpt><trkpt lat="44.85750974430024" lon="7.270073333867618"><ele>842.0000000000001</ele><time>2026-04-25T09:43:40.999Z</time></trkpt><trkpt lat="44.85743762314531" lon="7.269997710832262"><ele>842.0</ele><time>2026-04-25T09:43:41.999Z</time></trkpt><trkpt lat="44.85734265480892" lon="7.269984105571957"><ele>843.5000000000001</ele><time>2026-04-25T09:43:42.999Z</time></trkpt><trkpt lat="44.85724533621867" lon="7.2700354381862535"><ele>845.0</ele><time>2026-04-25T09:43:43.999Z</time></trkpt><trkpt lat="44.85717121494864" lon="7.270127795433278"><ele>846.5</ele><time>2026-04-25T09:43:44.999Z</time></trkpt><trkpt lat="44.85711137647026" lon="7.270198973369716"><ele>848.0</ele><time>2026-04-25T09:43:45.999Z</time></trkpt><trkpt lat="44.857048582204655" lon="7.270248193019734"><ele>849.5000000000001</ele><time>2026-04-25T09:43:46.999Z</time></trkpt><trkpt lat="44.85699197641325" lon="7.27031366225405"><ele>851.0</ele><time>2026-04-25T09:43:47.999Z</time></trkpt><trkpt lat="44.85693938401754" lon="7.270374490362835"><ele>851.0</ele><time>2026-04-25T09:43:48.999Z</time></trkpt><trkpt lat="44.8569044968258" lon="7.2705117494989215"><ele>851.0</ele><time>2026-04-25T09:43:49.999Z</time></trkpt><trkpt lat="44.85682421475279" lon="7.270575132391117"><ele>851.0</ele><time>2026-04-25T09:43:50.999Z</time></trkpt><trkpt lat="44.856733747809756" lon="7.270577956570911"><ele>851.0</ele><time>2026-04-25T09:43:51.999Z</time></trkpt><trkpt lat="44.85663383526181" lon="7.270533485289119"><ele>851.0</ele><time>2026-04-25T09:43:52.999Z</time></trkpt><trkpt lat="44.856558341456086" lon="7.270370820997035"><ele>853.5</ele><time>2026-04-25T09:43:53.999Z</time></trkpt><trkpt lat="44.85645318097263" lon="7.270289259611122"><ele>856.0</ele><time>2026-04-25T09:43:54.999Z</time></trkpt><trkpt lat="44.856331026515704" lon="7.270203058370976"><ele>858.5</ele><time>2026-04-25T09:43:55.999Z</time></trkpt><trkpt lat="44.85621841040165" lon="7.270142089855637"><ele>861.0</ele><time>2026-04-25T09:43:56.998Z</time></trkpt><trkpt lat="44.856115825555726" lon="7.270104940687639"><ele>861.0</ele><time>2026-04-25T09:43:57.998Z</time></trkpt><trkpt lat="44.8560255912063" lon="7.270080582320973"><ele>860.9999999999999</ele><time>2026-04-25T09:43:58.998Z</time></trkpt><trkpt lat="44.85593439836711" lon="7.270084804627195"><ele>860.9999999999999</ele><time>2026-04-25T09:43:59.998Z</time></trkpt><trkpt lat="44.85583487117342" lon="7.270101314667952"><ele>861.0</ele><time>2026-04-25T09:44:00.998Z</time></trkpt><trkpt lat="44.855707291269844" lon="7.2701304648769804"><ele>861.0</ele><time>2026-04-25T09:44:01.998Z</time></trkpt><trkpt lat="44.8555841998043" lon="7.2701695988798445"><ele>862.5</ele><time>2026-04-25T09:44:02.998Z</time></trkpt><trkpt lat="44.85546648196741" lon="7.270252632444338"><ele>864.0</ele><time>2026-04-25T09:44:03.998Z</time></trkpt><trkpt lat="44.85535205790057" lon="7.2702760231285595"><ele>865.5</ele><time>2026-04-25T09:44:04.998Z</time></trkpt><trkpt lat="44.85524194042953" lon="7.270253522197637"><ele>867.0</ele><time>2026-04-25T09:44:05.998Z</time></trkpt><trkpt lat="44.85514768154539" lon="7.270222126558108"><ele>867.6</ele><time>2026-04-25T09:44:06.998Z</time></trkpt><trkpt lat="44.85504168528192" lon="7.270181509867385"><ele>868.2</ele><time>2026-04-25T09:44:07.998Z</time></trkpt><trkpt lat="44.854947662445106" lon="7.270136901016069"><ele>868.8</ele><time>2026-04-25T09:44:08.998Z</time></trkpt><trkpt lat="44.85486072448597" lon="7.270094244292538"><ele>869.4</ele><time>2026-04-25T09:44:09.998Z</time></trkpt><trkpt lat="44.85478570796235" lon="7.270052844497998"><ele>870.0</ele><time>2026-04-25T09:44:10.998Z</time></trkpt><trkpt lat="44.854721646880925" lon="7.270016282721162"><ele>870.0</ele><time>2026-04-25T09:44:11.998Z</time></trkpt><trkpt lat="44.85465792581436" lon="7.269978143384895"><ele>870.0</ele><time>2026-04-25T09:44:12.998Z</time></trkpt><trkpt lat="44.85458016484113" lon="7.269931600688353"><ele>870.0</ele><time>2026-04-25T09:44:14.998Z</time></trkpt><trkpt lat="44.85448266872517" lon="7.269873245833916"><ele>870.0</ele><time>2026-04-25T09:44:16.998Z</time></trkpt><trkpt lat="44.85441932762717" lon="7.2698196255156775"><ele>870.0</ele><time>2026-04-25T09:44:17.998Z</time></trkpt><trkpt lat="44.85436290951454" lon="7.269722132499412"><ele>870.0</ele><time>2026-04-25T09:44:18.998Z</time></trkpt><trkpt lat="44.85430923701573" lon="7.269606087518035"><ele>869.6</ele><time>2026-04-25T09:44:19.998Z</time></trkpt><trkpt lat="44.85425199333707" lon="7.269477217664454"><ele>869.2</ele><time>2026-04-25T09:44:20.998Z</time></trkpt><trkpt lat="44.854195517803745" lon="7.269344834640615"><ele>868.8</ele><time>2026-04-25T09:44:21.998Z</time></trkpt><trkpt lat="44.85414496957033" lon="7.269200724759957"><ele>868.4</ele><time>2026-04-25T09:44:22.998Z</time></trkpt><trkpt lat="44.85411136087593" lon="7.269056045324692"><ele>868.0</ele><time>2026-04-25T09:44:23.998Z</time></trkpt><trkpt lat="44.8541125555599" lon="7.268925141715016"><ele>870.0</ele><time>2026-04-25T09:44:24.998Z</time></trkpt><trkpt lat="44.85411905546381" lon="7.2687911901946585"><ele>872.0</ele><time>2026-04-25T09:44:25.998Z</time></trkpt><trkpt lat="44.85413163642861" lon="7.2686525856893995"><ele>874.0</ele><time>2026-04-25T09:44:26.998Z</time></trkpt><trkpt lat="44.85416536850542" lon="7.268515506320768"><ele>876.0</ele><time>2026-04-25T09:44:27.998Z</time></trkpt><trkpt lat="44.85417895466649" lon="7.268393230164456"><ele>878.0</ele><time>2026-04-25T09:44:28.998Z</time></trkpt><trkpt lat="44.854179627013934" lon="7.268277827323104"><ele>878.0000000000001</ele><time>2026-04-25T09:44:29.998Z</time></trkpt><trkpt lat="44.854133552959" lon="7.268169010529163"><ele>878.0</ele><time>2026-04-25T09:44:30.998Z</time></trkpt><trkpt lat="44.85408894854002" lon="7.268082105500705"><ele>878.0</ele><time>2026-04-25T09:44:31.998Z</time></trkpt><trkpt lat="44.854024349660975" lon="7.26803258171961"><ele>878.0</ele><time>2026-04-25T09:44:32.998Z</time></trkpt><trkpt lat="44.853945720285424" lon="7.267982149016977"><ele>878.0000000000001</ele><time>2026-04-25T09:44:33.998Z</time></trkpt><trkpt lat="44.853839985866855" lon="7.268005264523117"><ele>878.0</ele><time>2026-04-25T09:44:34.998Z</time></trkpt><trkpt lat="44.85373747801217" lon="7.268056706516997"><ele>878.0000000000001</ele><time>2026-04-25T09:44:35.998Z</time></trkpt><trkpt lat="44.85363944022293" lon="7.268097691041525"><ele>878.0</ele><time>2026-04-25T09:44:36.998Z</time></trkpt><trkpt lat="44.85355182326975" lon="7.268119948126869"><ele>878.0</ele><time>2026-04-25T09:44:37.998Z</time></trkpt><trkpt lat="44.85346781132119" lon="7.26814415556819"><ele>878.0</ele><time>2026-04-25T09:44:38.998Z</time></trkpt><trkpt lat="44.853386722243506" lon="7.268167521055751"><ele>878.0000000000001</ele><time>2026-04-25T09:44:39.998Z</time></trkpt><trkpt lat="44.85331706416259" lon="7.268162676160706"><ele>878.0</ele><time>2026-04-25T09:44:40.998Z</time></trkpt><trkpt lat="44.85323788670505" lon="7.268136431202775"><ele>880.4</ele><time>2026-04-25T09:44:41.998Z</time></trkpt><trkpt lat="44.85317084525651" lon="7.268079533164284"><ele>882.8</ele><time>2026-04-25T09:44:42.997Z</time></trkpt><trkpt lat="44.85313689241168" lon="7.267994507134614"><ele>885.2</ele><time>2026-04-25T09:44:43.997Z</time></trkpt><trkpt lat="44.85306623118308" lon="7.267833879813858"><ele>887.6</ele><time>2026-04-25T09:44:45.997Z</time></trkpt><trkpt lat="44.85303215706311" lon="7.267734524124373"><ele>890.0</ele><time>2026-04-25T09:44:46.997Z</time></trkpt><trkpt lat="44.85299923790659" lon="7.267597714291455"><ele>890.0000000000001</ele><time>2026-04-25T09:44:47.997Z</time></trkpt><trkpt lat="44.85297604131193" lon="7.267456201644394"><ele>890.0</ele><time>2026-04-25T09:44:48.997Z</time></trkpt><trkpt lat="44.85296465864898" lon="7.267310567992141"><ele>890.0</ele><time>2026-04-25T09:44:49.997Z</time></trkpt><trkpt lat="44.85296306364323" lon="7.267200608773122"><ele>890.0</ele><time>2026-04-25T09:44:50.997Z</time></trkpt><trkpt lat="44.85296610268925" lon="7.2670886373134005"><ele>890.0000000000001</ele><time>2026-04-25T09:44:51.997Z</time></trkpt><trkpt lat="44.85297271101421" lon="7.266978959503231"><ele>890.0</ele><time>2026-04-25T09:44:52.997Z</time></trkpt><trkpt lat="44.85298271400885" lon="7.266870954637712"><ele>890.2</ele><time>2026-04-25T09:44:53.997Z</time></trkpt><trkpt lat="44.85299899802845" lon="7.266744933326804"><ele>890.4</ele><time>2026-04-25T09:44:55Z</time></trkpt><trkpt lat="44.853025877970005" lon="7.266613334860847"><ele>890.5999999999999</ele><time>2026-04-25T09:44:56Z</time></trkpt><trkpt lat="44.85305806733439" lon="7.266472852433656"><ele>890.8</ele><time>2026-04-25T09:44:57Z</time></trkpt><trkpt lat="44.853094044179265" lon="7.26631782460586"><ele>891.0</ele><time>2026-04-25T09:44:58Z</time></trkpt><trkpt lat="44.85311968929347" lon="7.266154881449759"><ele>891.0</ele><time>2026-04-25T09:44:59Z</time></trkpt><trkpt lat="44.85313921041498" lon="7.2659884315942405"><ele>891.0</ele><time>2026-04-25T09:45:00Z</time></trkpt><trkpt lat="44.85314120126683" lon="7.265798813087074"><ele>891.0</ele><time>2026-04-25T09:45:01Z</time></trkpt><trkpt lat="44.85311011234612" lon="7.2656149721861985"><ele>891.0</ele><time>2026-04-25T09:45:02Z</time></trkpt><trkpt lat="44.8529907638292" lon="7.265459329361086"><ele>891.8</ele><time>2026-04-25T09:45:03Z</time></trkpt><trkpt lat="44.85291295510673" lon="7.2653097694038555"><ele>892.5999999999999</ele><time>2026-04-25T09:45:04Z</time></trkpt><trkpt lat="44.85287610736475" lon="7.265175621921879"><ele>893.4</ele><time>2026-04-25T09:45:05Z</time></trkpt><trkpt lat="44.85285192381825" lon="7.265037649925017"><ele>894.2</ele><time>2026-04-25T09:45:06Z</time></trkpt><trkpt lat="44.85283431615622" lon="7.264902940200158"><ele>895.0</ele><time>2026-04-25T09:45:07Z</time></trkpt><trkpt lat="44.85281615010409" lon="7.264756036613832"><ele>895.8</ele><time>2026-04-25T09:45:08Z</time></trkpt><trkpt lat="44.852791261096094" lon="7.264583206277959"><ele>896.6</ele><time>2026-04-25T09:45:09Z</time></trkpt><trkpt lat="44.85276859378748" lon="7.264417257171082"><ele>897.4000000000001</ele><time>2026-04-25T09:45:10Z</time></trkpt><trkpt lat="44.85275412196071" lon="7.264275520899625"><ele>898.2</ele><time>2026-04-25T09:45:11Z</time></trkpt><trkpt lat="44.8527480828415" lon="7.264142677760686"><ele>899.0</ele><time>2026-04-25T09:45:12Z</time></trkpt><trkpt lat="44.852746065873866" lon="7.26401942742056"><ele>898.2</ele><time>2026-04-25T09:45:12.999Z</time></trkpt><trkpt lat="44.85275816521187" lon="7.263891541627842"><ele>897.4000000000001</ele><time>2026-04-25T09:45:13.999Z</time></trkpt><trkpt lat="44.85277039739752" lon="7.263753257838539"><ele>896.6</ele><time>2026-04-25T09:45:14.999Z</time></trkpt><trkpt lat="44.85278490972563" lon="7.26359587012989"><ele>895.8</ele><time>2026-04-25T09:45:15.999Z</time></trkpt><trkpt lat="44.85279431034346" lon="7.263453535802845"><ele>895.0</ele><time>2026-04-25T09:45:16.999Z</time></trkpt><trkpt lat="44.852795456488806" lon="7.263299846469122"><ele>895.0</ele><time>2026-04-25T09:45:17.999Z</time></trkpt><trkpt lat="44.85279146936933" lon="7.2631615305292065"><ele>895.0</ele><time>2026-04-25T09:45:18.999Z</time></trkpt><trkpt lat="44.85278249824434" lon="7.263027466020408"><ele>895.0</ele><time>2026-04-25T09:45:19.999Z</time></trkpt><trkpt lat="44.85280438303475" lon="7.2628970256804"><ele>895.0</ele><time>2026-04-25T09:45:20.999Z</time></trkpt><trkpt lat="44.8528638077575" lon="7.262786563395891"><ele>895.0</ele><time>2026-04-25T09:45:21.999Z</time></trkpt><trkpt lat="44.85294665445214" lon="7.26272084799765"><ele>894.4</ele><time>2026-04-25T09:45:22.999Z</time></trkpt><trkpt lat="44.85302079894512" lon="7.262630951734272"><ele>893.8</ele><time>2026-04-25T09:45:23.999Z</time></trkpt><trkpt lat="44.85311927326954" lon="7.2625808882494"><ele>893.2</ele><time>2026-04-25T09:45:24.999Z</time></trkpt><trkpt lat="44.853217403496544" lon="7.262517284703595"><ele>892.6</ele><time>2026-04-25T09:45:25.999Z</time></trkpt><trkpt lat="44.8532998663874" lon="7.262406016905188"><ele>892.0</ele><time>2026-04-25T09:45:26.999Z</time></trkpt><trkpt lat="44.853368818346446" lon="7.262299044359039"><ele>891.6</ele><time>2026-04-25T09:45:27.999Z</time></trkpt><trkpt lat="44.853379800754425" lon="7.26215339839677"><ele>891.2</ele><time>2026-04-25T09:45:28.999Z</time></trkpt><trkpt lat="44.85337472074907" lon="7.262014236307594"><ele>890.8</ele><time>2026-04-25T09:45:29.999Z</time></trkpt><trkpt lat="44.853348865230444" lon="7.261865272386246"><ele>890.4</ele><time>2026-04-25T09:45:30.999Z</time></trkpt><trkpt lat="44.85327033001493" lon="7.261708091123118"><ele>890.0</ele><time>2026-04-25T09:45:31.999Z</time></trkpt><trkpt lat="44.853142803971366" lon="7.261602499074666"><ele>890.0</ele><time>2026-04-25T09:45:32.999Z</time></trkpt><trkpt lat="44.85304133177526" lon="7.2614900831158575"><ele>890.0</ele><time>2026-04-25T09:45:33.999Z</time></trkpt><trkpt lat="44.85293561952405" lon="7.261397952180603"><ele>890.0</ele><time>2026-04-25T09:45:34.999Z</time></trkpt><trkpt lat="44.85283467441421" lon="7.261320785893437"><ele>890.0</ele><time>2026-04-25T09:45:35.999Z</time></trkpt><trkpt lat="44.8527487571845" lon="7.2612500294047"><ele>890.5000000000001</ele><time>2026-04-25T09:45:36.999Z</time></trkpt><trkpt lat="44.85267840235764" lon="7.261189892833628"><ele>891.0</ele><time>2026-04-25T09:45:37.999Z</time></trkpt><trkpt lat="44.85263853274495" lon="7.261098021173571"><ele>891.5</ele><time>2026-04-25T09:45:38.999Z</time></trkpt><trkpt lat="44.85261286667396" lon="7.261006748411726"><ele>892.0</ele><time>2026-04-25T09:45:39.999Z</time></trkpt><trkpt lat="44.85259153642736" lon="7.2608878644414405"><ele>892.5000000000001</ele><time>2026-04-25T09:45:40.999Z</time></trkpt><trkpt lat="44.85256212925265" lon="7.26073605665621"><ele>893.0</ele><time>2026-04-25T09:45:41.999Z</time></trkpt><trkpt lat="44.85251468201588" lon="7.260573917384032"><ele>891.8</ele><time>2026-04-25T09:45:42.999Z</time></trkpt><trkpt lat="44.85249180245265" lon="7.260404310952095"><ele>890.5999999999999</ele><time>2026-04-25T09:45:43.999Z</time></trkpt><trkpt lat="44.85247100419213" lon="7.260264175413606"><ele>889.4000000000001</ele><time>2026-04-25T09:45:44.999Z</time></trkpt><trkpt lat="44.852467572456355" lon="7.2601316313510065"><ele>888.2</ele><time>2026-04-25T09:45:45.999Z</time></trkpt><trkpt lat="44.85245127059668" lon="7.260006583247228"><ele>887.0</ele><time>2026-04-25T09:45:46.999Z</time></trkpt><trkpt lat="44.85243947923692" lon="7.259874407892647"><ele>885.8</ele><time>2026-04-25T09:45:47.999Z</time></trkpt><trkpt lat="44.852436450569755" lon="7.259730773582721"><ele>884.6</ele><time>2026-04-25T09:45:48.999Z</time></trkpt><trkpt lat="44.85244166049362" lon="7.25959630471962"><ele>883.3999999999999</ele><time>2026-04-25T09:45:49.999Z</time></trkpt><trkpt lat="44.85244788133479" lon="7.2594666781885655"><ele>882.1999999999999</ele><time>2026-04-25T09:45:50.999Z</time></trkpt><trkpt lat="44.852455466860675" lon="7.259337373387655"><ele>881.0</ele><time>2026-04-25T09:45:51.999Z</time></trkpt><trkpt lat="44.85246603268785" lon="7.259205640372726"><ele>881.0</ele><time>2026-04-25T09:45:52.999Z</time></trkpt><trkpt lat="44.85248049960388" lon="7.259055926457702"><ele>881.0</ele><time>2026-04-25T09:45:53.999Z</time></trkpt><trkpt lat="44.85249892759826" lon="7.258910669755161"><ele>881.0</ele><time>2026-04-25T09:45:54.999Z</time></trkpt><trkpt lat="44.852524734650764" lon="7.25874411391879"><ele>881.0</ele><time>2026-04-25T09:45:55.999Z</time></trkpt><trkpt lat="44.85255692420561" lon="7.258573788174036"><ele>880.0</ele><time>2026-04-25T09:45:56.999Z</time></trkpt><trkpt lat="44.852591180602644" lon="7.258412363175972"><ele>879.0</ele><time>2026-04-25T09:45:57.999Z</time></trkpt><trkpt lat="44.85262644834165" lon="7.2582561173686395"><ele>878.0</ele><time>2026-04-25T09:45:58.999Z</time></trkpt><trkpt lat="44.852663357511126" lon="7.258104499166424"><ele>877.0</ele><time>2026-04-25T09:45:59.998Z</time></trkpt><trkpt lat="44.85269755811795" lon="7.257964010002786"><ele>877.0</ele><time>2026-04-25T09:46:00.998Z</time></trkpt><trkpt lat="44.85273179363345" lon="7.257841742934051"><ele>877.0</ele><time>2026-04-25T09:46:01.998Z</time></trkpt><trkpt lat="44.8527694037608" lon="7.25772470797737"><ele>877.0</ele><time>2026-04-25T09:46:02.998Z</time></trkpt><trkpt lat="44.852812006143665" lon="7.257615357549148"><ele>877.0</ele><time>2026-04-25T09:46:03.998Z</time></trkpt><trkpt lat="44.852864731237396" lon="7.257508663576996"><ele>877.0</ele><time>2026-04-25T09:46:04.998Z</time></trkpt><trkpt lat="44.85293921233894" lon="7.257388183425672"><ele>873.6</ele><time>2026-04-25T09:46:05.998Z</time></trkpt><trkpt lat="44.85302446880128" lon="7.257276228201854"><ele>870.2</ele><time>2026-04-25T09:46:06.998Z</time></trkpt><trkpt lat="44.85310227987054" lon="7.257175464581499"><ele>866.8</ele><time>2026-04-25T09:46:07.998Z</time></trkpt><trkpt lat="44.85317393933431" lon="7.25707657989535"><ele>863.4</ele><time>2026-04-25T09:46:08.998Z</time></trkpt><trkpt lat="44.85324111072895" lon="7.2569818646321185"><ele>860.0</ele><time>2026-04-25T09:46:09.998Z</time></trkpt><trkpt lat="44.85331044383473" lon="7.256891110395313"><ele>860.0</ele><time>2026-04-25T09:46:10.998Z</time></trkpt><trkpt lat="44.85339259397359" lon="7.256788978355925"><ele>860.0</ele><time>2026-04-25T09:46:11.998Z</time></trkpt><trkpt lat="44.85347574224565" lon="7.25669462689142"><ele>860.0</ele><time>2026-04-25T09:46:12.998Z</time></trkpt><trkpt lat="44.853560522513405" lon="7.256621130767852"><ele>860.0</ele><time>2026-04-25T09:46:13.998Z</time></trkpt><trkpt lat="44.85365019715704" lon="7.25658151448203"><ele>860.0</ele><time>2026-04-25T09:46:14.998Z</time></trkpt><trkpt lat="44.853743609508506" lon="7.256564884176367"><ele>858.3333333333334</ele><time>2026-04-25T09:46:15.998Z</time></trkpt><trkpt lat="44.853830834723986" lon="7.256587490790784"><ele>856.6666666666667</ele><time>2026-04-25T09:46:16.998Z</time></trkpt><trkpt lat="44.8539105314525" lon="7.256631534017427"><ele>855.0</ele><time>2026-04-25T09:46:17.998Z</time></trkpt><trkpt lat="44.85396281804392" lon="7.256714629796835"><ele>853.3333333333333</ele><time>2026-04-25T09:46:18.998Z</time></trkpt><trkpt lat="44.85401035070254" lon="7.256824575553326"><ele>851.6666666666666</ele><time>2026-04-25T09:46:19.998Z</time></trkpt><trkpt lat="44.85405396467365" lon="7.2569124010615464"><ele>850.0</ele><time>2026-04-25T09:46:20.998Z</time></trkpt><trkpt lat="44.85409275267137" lon="7.2569910825854995"><ele>850.0</ele><time>2026-04-25T09:46:21.998Z</time></trkpt><trkpt lat="44.85414926741982" lon="7.25707472595189"><ele>850.0</ele><time>2026-04-25T09:46:23.998Z</time></trkpt><trkpt lat="44.85416418537399" lon="7.256864553703639"><ele>850.0</ele><time>2026-04-25T09:46:27.998Z</time></trkpt><trkpt lat="44.854136176403166" lon="7.256751214424533"><ele>850.0</ele><time>2026-04-25T09:46:28.998Z</time></trkpt><trkpt lat="44.85410335610134" lon="7.256640445820251"><ele>850.0</ele><time>2026-04-25T09:46:29.998Z</time></trkpt><trkpt lat="44.85406485252902" lon="7.25650490719704"><ele>850.8</ele><time>2026-04-25T09:46:30.998Z</time></trkpt><trkpt lat="44.85403417759867" lon="7.256395286877533"><ele>851.6</ele><time>2026-04-25T09:46:31.998Z</time></trkpt><trkpt lat="44.854004900741785" lon="7.256286111715371"><ele>852.4000000000001</ele><time>2026-04-25T09:46:32.998Z</time></trkpt><trkpt lat="44.853969444465164" lon="7.2561485447027145"><ele>853.2</ele><time>2026-04-25T09:46:33.998Z</time></trkpt><trkpt lat="44.85393320794344" lon="7.256001458682993"><ele>854.0</ele><time>2026-04-25T09:46:34.998Z</time></trkpt><trkpt lat="44.85390120152051" lon="7.255855996877748"><ele>854.0000000000001</ele><time>2026-04-25T09:46:35.998Z</time></trkpt><trkpt lat="44.85388107102576" lon="7.255735105938564"><ele>854.0</ele><time>2026-04-25T09:46:36.998Z</time></trkpt><trkpt lat="44.853850104538814" lon="7.255593222834256"><ele>854.0</ele><time>2026-04-25T09:46:37.998Z</time></trkpt><trkpt lat="44.8538455466517" lon="7.255473950985217"><ele>854.0</ele><time>2026-04-25T09:46:38.998Z</time></trkpt><trkpt lat="44.85383887262204" lon="7.255356990773592"><ele>854.0000000000001</ele><time>2026-04-25T09:46:39.998Z</time></trkpt><trkpt lat="44.85385383139405" lon="7.255257361862007"><ele>854.0</ele><time>2026-04-25T09:46:40.998Z</time></trkpt><trkpt lat="44.85385448204998" lon="7.255155208704111"><ele>853.4000000000001</ele><time>2026-04-25T09:46:41.998Z</time></trkpt><trkpt lat="44.853858569803286" lon="7.255057490537291"><ele>852.8000000000001</ele><time>2026-04-25T09:46:42.998Z</time></trkpt><trkpt lat="44.853885162292656" lon="7.2548981639941585"><ele>852.2</ele><time>2026-04-25T09:46:44.998Z</time></trkpt><trkpt lat="44.85392892353962" lon="7.254803703300843"><ele>851.5999999999999</ele><time>2026-04-25T09:46:45.998Z</time></trkpt><trkpt lat="44.85398239712745" lon="7.254659249963589"><ele>851.0</ele><time>2026-04-25T09:46:46.997Z</time></trkpt><trkpt lat="44.85404980222414" lon="7.254483061458477"><ele>851.0</ele><time>2026-04-25T09:46:47.997Z</time></trkpt><trkpt lat="44.85411791901803" lon="7.254264228531742"><ele>851.0</ele><time>2026-04-25T09:46:48.997Z</time></trkpt><trkpt lat="44.85415912433747" lon="7.254053058133628"><ele>851.0</ele><time>2026-04-25T09:46:49.997Z</time></trkpt><trkpt lat="44.854180707258045" lon="7.253852394105138"><ele>851.0</ele><time>2026-04-25T09:46:50.997Z</time></trkpt><trkpt lat="44.85418924516496" lon="7.253664795002256"><ele>851.0</ele><time>2026-04-25T09:46:51.997Z</time></trkpt><trkpt lat="44.85418689660838" lon="7.253512864040713"><ele>851.0</ele><time>2026-04-25T09:46:52.997Z</time></trkpt><trkpt lat="44.85417297992771" lon="7.253309293634912"><ele>851.0</ele><time>2026-04-25T09:46:53.997Z</time></trkpt><trkpt lat="44.854150739361955" lon="7.253116126121966"><ele>852.4</ele><time>2026-04-25T09:46:54.997Z</time></trkpt><trkpt lat="44.854117530141096" lon="7.252953667712628"><ele>853.8</ele><time>2026-04-25T09:46:55.997Z</time></trkpt><trkpt lat="44.85408779681937" lon="7.252824824437199"><ele>855.1999999999999</ele><time>2026-04-25T09:46:56.997Z</time></trkpt><trkpt lat="44.85406268797905" lon="7.2527074440069565"><ele>856.5999999999999</ele><time>2026-04-25T09:46:57.997Z</time></trkpt><trkpt lat="44.854044238566445" lon="7.252591644079354"><ele>858.0</ele><time>2026-04-25T09:46:58.997Z</time></trkpt><trkpt lat="44.854012436314235" lon="7.252472992212128"><ele>858.0</ele><time>2026-04-25T09:47:00Z</time></trkpt><trkpt lat="44.85404390391865" lon="7.2523810132094075"><ele>858.0</ele><time>2026-04-25T09:47:02Z</time></trkpt><trkpt lat="44.854078562038396" lon="7.252262907711353"><ele>858.0</ele><time>2026-04-25T09:47:04Z</time></trkpt><trkpt lat="44.854105029465785" lon="7.252137211142427"><ele>858.0</ele><time>2026-04-25T09:47:06Z</time></trkpt><trkpt lat="44.854102006913536" lon="7.252047944799995"><ele>858.0</ele><time>2026-04-25T09:47:07Z</time></trkpt><trkpt lat="44.85415106280426" lon="7.251917815438603"><ele>858.0</ele><time>2026-04-25T09:47:09Z</time></trkpt><trkpt lat="44.85422767975607" lon="7.251816484571547"><ele>859.6666666666667</ele><time>2026-04-25T09:47:10Z</time></trkpt><trkpt lat="44.85430572002642" lon="7.25171967213997"><ele>861.3333333333334</ele><time>2026-04-25T09:47:11Z</time></trkpt><trkpt lat="44.85438373707851" lon="7.251631659136777"><ele>863.0</ele><time>2026-04-25T09:47:12Z</time></trkpt><trkpt lat="44.85397684672904" lon="7.250800530958757"><ele>860.4</ele><time>2026-04-25T09:47:14Z</time></trkpt><trkpt lat="44.85395632426339" lon="7.250682919371512"><ele>857.8</ele><time>2026-04-25T09:47:15Z</time></trkpt><trkpt lat="44.85389997897077" lon="7.250578953421926"><ele>855.2</ele><time>2026-04-25T09:47:16Z</time></trkpt><trkpt lat="44.85380658596669" lon="7.250475912011749"><ele>852.6</ele><time>2026-04-25T09:47:16.999Z</time></trkpt><trkpt lat="44.85366931648849" lon="7.2504095738463725"><ele>850.0</ele><time>2026-04-25T09:47:17.999Z</time></trkpt><trkpt lat="44.85352880285796" lon="7.250355844511494"><ele>845.2</ele><time>2026-04-25T09:47:18.999Z</time></trkpt><trkpt lat="44.853406830954484" lon="7.250313645723734"><ele>840.4</ele><time>2026-04-25T09:47:19.999Z</time></trkpt><trkpt lat="44.85333332927758" lon="7.2502490142598095"><ele>835.5999999999999</ele><time>2026-04-25T09:47:20.999Z</time></trkpt><trkpt lat="44.85327838113248" lon="7.250160365208751"><ele>830.8</ele><time>2026-04-25T09:47:21.999Z</time></trkpt><trkpt lat="44.853237744497264" lon="7.250051676545557"><ele>826.0</ele><time>2026-04-25T09:47:22.999Z</time></trkpt><trkpt lat="44.85322403801344" lon="7.249923929389844"><ele>829.0</ele><time>2026-04-25T09:47:23.999Z</time></trkpt><trkpt lat="44.853219112780565" lon="7.249784013989269"><ele>832.0</ele><time>2026-04-25T09:47:24.999Z</time></trkpt><trkpt lat="44.85320627593068" lon="7.2496030924878205"><ele>835.0</ele><time>2026-04-25T09:47:25.999Z</time></trkpt><trkpt lat="44.85318484103629" lon="7.249402680906055"><ele>838.0</ele><time>2026-04-25T09:47:26.999Z</time></trkpt><trkpt lat="44.85314065888143" lon="7.249279148679308"><ele>838.0</ele><time>2026-04-25T09:47:27.999Z</time></trkpt><trkpt lat="44.85307671914969" lon="7.249215737727719"><ele>838.0</ele><time>2026-04-25T09:47:28.999Z</time></trkpt><trkpt lat="44.852977048701455" lon="7.249175646599884"><ele>838.0</ele><time>2026-04-25T09:47:29.999Z</time></trkpt><trkpt lat="44.85283803572078" lon="7.24916862678974"><ele>838.0</ele><time>2026-04-25T09:47:30.999Z</time></trkpt><trkpt lat="44.852704982993444" lon="7.249171648677599"><ele>838.0</ele><time>2026-04-25T09:47:31.999Z</time></trkpt><trkpt lat="44.85263049052957" lon="7.249106840916837"><ele>838.0</ele><time>2026-04-25T09:47:32.999Z</time></trkpt><trkpt lat="44.8525671179679" lon="7.249042558435187"><ele>838.0</ele><time>2026-04-25T09:47:33.999Z</time></trkpt><trkpt lat="44.85248072093265" lon="7.249040971246757"><ele>838.0</ele><time>2026-04-25T09:47:34.999Z</time></trkpt><trkpt lat="44.85238681643478" lon="7.24909034976139"><ele>838.0</ele><time>2026-04-25T09:47:35.999Z</time></trkpt><trkpt lat="44.8522809321834" lon="7.249173400878801"><ele>836.0</ele><time>2026-04-25T09:47:36.999Z</time></trkpt><trkpt lat="44.85215871313562" lon="7.249291638331305"><ele>834.0</ele><time>2026-04-25T09:47:37.999Z</time></trkpt><trkpt lat="44.85205200277775" lon="7.24938736708369"><ele>832.0</ele><time>2026-04-25T09:47:38.999Z</time></trkpt><trkpt lat="44.85199027294862" lon="7.249443219590073"><ele>830.0</ele><time>2026-04-25T09:47:39.999Z</time></trkpt><trkpt lat="44.85190634231227" lon="7.249474438373515"><ele>828.0</ele><time>2026-04-25T09:47:40.999Z</time></trkpt><trkpt lat="44.85182003064497" lon="7.249472585751235"><ele>827.6666666666666</ele><time>2026-04-25T09:47:41.999Z</time></trkpt><trkpt lat="44.85175097004792" lon="7.249479568665635"><ele>827.3333333333333</ele><time>2026-04-25T09:47:42.999Z</time></trkpt><trkpt lat="44.85168612465766" lon="7.249489783488557"><ele>827.0</ele><time>2026-04-25T09:47:43.999Z</time></trkpt><trkpt lat="44.851564514124895" lon="7.249514215674868"><ele>826.6666666666666</ele><time>2026-04-25T09:47:45.999Z</time></trkpt><trkpt lat="44.85151402547625" lon="7.249437602991839"><ele>826.3333333333333</ele><time>2026-04-25T09:47:46.999Z</time></trkpt><trkpt lat="44.851465803017824" lon="7.2493596114913"><ele>826.0</ele><time>2026-04-25T09:47:47.999Z</time></trkpt><trkpt lat="44.85141361636874" lon="7.249269801178661"><ele>826.0</ele><time>2026-04-25T09:47:48.999Z</time></trkpt><trkpt lat="44.85137281465095" lon="7.249183871379273"><ele>826.0</ele><time>2026-04-25T09:47:49.999Z</time></trkpt><trkpt lat="44.851343857147306" lon="7.249073356378308"><ele>826.0</ele><time>2026-04-25T09:47:50.999Z</time></trkpt><trkpt lat="44.851325635066495" lon="7.248924269474308"><ele>826.0</ele><time>2026-04-25T09:47:51.999Z</time></trkpt><trkpt lat="44.85131368239927" lon="7.248744440833302"><ele>826.0</ele><time>2026-04-25T09:47:52.999Z</time></trkpt><trkpt lat="44.85131030904287" lon="7.248541651337153"><ele>828.0</ele><time>2026-04-25T09:47:53.999Z</time></trkpt><trkpt lat="44.85129442426805" lon="7.248368693719517"><ele>830.0</ele><time>2026-04-25T09:47:54.999Z</time></trkpt><trkpt lat="44.85126279213567" lon="7.248204941429832"><ele>832.0</ele><time>2026-04-25T09:47:55.999Z</time></trkpt><trkpt lat="44.85121220550516" lon="7.248102544590921"><ele>834.0</ele><time>2026-04-25T09:47:56.999Z</time></trkpt><trkpt lat="44.851155291545155" lon="7.248039657724731"><ele>836.0</ele><time>2026-04-25T09:47:57.999Z</time></trkpt><trkpt lat="44.85106405364381" lon="7.248056751740771"><ele>836.75</ele><time>2026-04-25T09:47:58.999Z</time></trkpt><trkpt lat="44.85094138013933" lon="7.248084724846697"><ele>837.5</ele><time>2026-04-25T09:47:59.999Z</time></trkpt><trkpt lat="44.850816796502734" lon="7.248113793599336"><ele>838.25</ele><time>2026-04-25T09:48:00.999Z</time></trkpt><trkpt lat="44.85067445934396" lon="7.248157956867405"><ele>839.0</ele><time>2026-04-25T09:48:01.999Z</time></trkpt><trkpt lat="44.85054237028183" lon="7.248211032840795"><ele>839.0000000000001</ele><time>2026-04-25T09:48:02.999Z</time></trkpt><trkpt lat="44.85043717007512" lon="7.248224467138625"><ele>839.0</ele><time>2026-04-25T09:48:03.998Z</time></trkpt><trkpt lat="44.850354302212565" lon="7.248222871050016"><ele>839.0</ele><time>2026-04-25T09:48:04.998Z</time></trkpt><trkpt lat="44.85030405243031" lon="7.248162630847602"><ele>839.0</ele><time>2026-04-25T09:48:05.998Z</time></trkpt><trkpt lat="44.850260149771614" lon="7.248080402035317"><ele>839.0000000000001</ele><time>2026-04-25T09:48:06.998Z</time></trkpt><trkpt lat="44.85024878043453" lon="7.247969785426523"><ele>839.0</ele><time>2026-04-25T09:48:07.998Z</time></trkpt><trkpt lat="44.85021847984275" lon="7.247858097565227"><ele>839.0</ele><time>2026-04-25T09:48:08.998Z</time></trkpt><trkpt lat="44.850163339173" lon="7.247738746705448"><ele>839.0</ele><time>2026-04-25T09:48:09.998Z</time></trkpt><trkpt lat="44.850104541876995" lon="7.247580309319729"><ele>839.0</ele><time>2026-04-25T09:48:10.998Z</time></trkpt><trkpt lat="44.850068559423974" lon="7.247483407071424"><ele>839.0</ele><time>2026-04-25T09:48:11.998Z</time></trkpt><trkpt lat="44.85001853344081" lon="7.247332583748112"><ele>839.0</ele><time>2026-04-25T09:48:12.998Z</time></trkpt><trkpt lat="44.849976502442296" lon="7.247234582598969"><ele>836.1666666666667</ele><time>2026-04-25T09:48:13.998Z</time></trkpt><trkpt lat="44.84993549521547" lon="7.247136592410529"><ele>833.3333333333334</ele><time>2026-04-25T09:48:14.998Z</time></trkpt><trkpt lat="44.84989987666666" lon="7.247046174723557"><ele>830.5</ele><time>2026-04-25T09:48:15.998Z</time></trkpt><trkpt lat="44.84984571575785" lon="7.246940964926621"><ele>827.6666666666667</ele><time>2026-04-25T09:48:16.998Z</time></trkpt><trkpt lat="44.84981273934399" lon="7.246836024915105"><ele>824.8333333333334</ele><time>2026-04-25T09:48:17.998Z</time></trkpt><trkpt lat="44.849811710617445" lon="7.246721903498371"><ele>822.0</ele><time>2026-04-25T09:48:18.998Z</time></trkpt><trkpt lat="44.84981901659131" lon="7.246591541656676"><ele>822.0</ele><time>2026-04-25T09:48:19.998Z</time></trkpt><trkpt lat="44.849798434528104" lon="7.246491512880294"><ele>822.0</ele><time>2026-04-25T09:48:21.998Z</time></trkpt><trkpt lat="44.84977696983494" lon="7.246393936953071"><ele>822.0</ele><time>2026-04-25T09:48:46.998Z</time></trkpt><trkpt lat="44.849704366288236" lon="7.246384231265988"><ele>822.0</ele><time>2026-04-25T09:48:48.998Z</time></trkpt><trkpt lat="44.8496430765387" lon="7.246473104239019"><ele>822.0</ele><time>2026-04-25T09:49:19Z</time></trkpt><trkpt lat="44.84954449311612" lon="7.246548317875073"><ele>822.0</ele><time>2026-04-25T09:49:20.999Z</time></trkpt><trkpt lat="44.84949015160514" lon="7.246620408206354"><ele>822.0</ele><time>2026-04-25T09:49:21.999Z</time></trkpt><trkpt lat="44.849436080370864" lon="7.246744225125625"><ele>822.0</ele><time>2026-04-25T09:49:23.999Z</time></trkpt><trkpt lat="44.84923087775681" lon="7.247144807536338"><ele>815.0</ele><time>2026-04-25T09:49:25.999Z</time></trkpt><trkpt lat="44.849061977651864" lon="7.247354813616249"><ele>808.0</ele><time>2026-04-25T09:49:26.999Z</time></trkpt><trkpt lat="44.84891440270206" lon="7.247547394076476"><ele>801.0</ele><time>2026-04-25T09:49:27.999Z</time></trkpt><trkpt lat="44.848786564067" lon="7.247710651264305"><ele>801.0</ele><time>2026-04-25T09:49:28.999Z</time></trkpt><trkpt lat="44.84871390250474" lon="7.247820747768195"><ele>801.0</ele><time>2026-04-25T09:49:29.999Z</time></trkpt><trkpt lat="44.848659604435696" lon="7.247914731181952"><ele>801.0</ele><time>2026-04-25T09:49:30.999Z</time></trkpt><trkpt lat="44.848606573001305" lon="7.2480058518598796"><ele>801.0</ele><time>2026-04-25T09:49:31.999Z</time></trkpt><trkpt lat="44.84855928021365" lon="7.2480650753370695"><ele>801.0</ele><time>2026-04-25T09:49:32.999Z</time></trkpt><trkpt lat="44.848459493630536" lon="7.248101787860851"><ele>801.0</ele><time>2026-04-25T09:49:34.999Z</time></trkpt><trkpt lat="44.84839771439484" lon="7.248053936498615"><ele>802.8333333333334</ele><time>2026-04-25T09:49:35.999Z</time></trkpt><trkpt lat="44.84832307331642" lon="7.247983222682728"><ele>804.6666666666667</ele><time>2026-04-25T09:49:36.999Z</time></trkpt><trkpt lat="44.8482776680138" lon="7.247899075878023"><ele>806.5</ele><time>2026-04-25T09:49:37.999Z</time></trkpt><trkpt lat="44.848237268167075" lon="7.247817927716256"><ele>808.3333333333334</ele><time>2026-04-25T09:49:38.999Z</time></trkpt><trkpt lat="44.84820677209837" lon="7.247723845250911"><ele>810.1666666666667</ele><time>2026-04-25T09:49:39.999Z</time></trkpt><trkpt lat="44.848200286401855" lon="7.2475976762640215"><ele>812.0</ele><time>2026-04-25T09:49:40.999Z</time></trkpt><trkpt lat="44.84817746569868" lon="7.247435378878879"><ele>815.25</ele><time>2026-04-25T09:49:41.999Z</time></trkpt><trkpt lat="44.84816705331594" lon="7.247253798691492"><ele>818.5</ele><time>2026-04-25T09:49:42.999Z</time></trkpt><trkpt lat="44.84811972885626" lon="7.24705692345332"><ele>821.75</ele><time>2026-04-25T09:49:43.999Z</time></trkpt><trkpt lat="44.848065686531314" lon="7.2468753870688785"><ele>825.0</ele><time>2026-04-25T09:49:44.999Z</time></trkpt><trkpt lat="44.8480055116053" lon="7.246678821396168"><ele>825.0</ele><time>2026-04-25T09:49:45.999Z</time></trkpt><trkpt lat="44.847949890795945" lon="7.246495002724327"><ele>825.0</ele><time>2026-04-25T09:49:46.999Z</time></trkpt><trkpt lat="44.84788438550444" lon="7.2463194059488805"><ele>825.0</ele><time>2026-04-25T09:49:47.999Z</time></trkpt><trkpt lat="44.84785181853369" lon="7.246141582267771"><ele>825.0</ele><time>2026-04-25T09:49:48.999Z</time></trkpt><trkpt lat="44.84778739138656" lon="7.246004001094114"><ele>824.4</ele><time>2026-04-25T09:49:49.999Z</time></trkpt><trkpt lat="44.8477389404476" lon="7.245905744507584"><ele>823.8</ele><time>2026-04-25T09:49:50.999Z</time></trkpt><trkpt lat="44.847677175219914" lon="7.245810416723357"><ele>823.2</ele><time>2026-04-25T09:49:51.999Z</time></trkpt><trkpt lat="44.847580145791646" lon="7.24573054555595"><ele>822.6</ele><time>2026-04-25T09:49:52.999Z</time></trkpt><trkpt lat="44.84745661417433" lon="7.2456419089702555"><ele>822.0</ele><time>2026-04-25T09:49:53.999Z</time></trkpt><trkpt lat="44.84734827769835" lon="7.245597274032482"><ele>822.0</ele><time>2026-04-25T09:49:54.999Z</time></trkpt><trkpt lat="44.8472432305133" lon="7.245572145336954"><ele>822.0</ele><time>2026-04-25T09:49:55.999Z</time></trkpt><trkpt lat="44.847149215039614" lon="7.245551025155133"><ele>822.0</ele><time>2026-04-25T09:49:56.999Z</time></trkpt><trkpt lat="44.84705629458077" lon="7.245525272129839"><ele>822.0</ele><time>2026-04-25T09:49:57.999Z</time></trkpt><trkpt lat="44.84699453000616" lon="7.245424793847427"><ele>822.0</ele><time>2026-04-25T09:49:58.999Z</time></trkpt><trkpt lat="44.84693021134992" lon="7.245336291446135"><ele>822.0</ele><time>2026-04-25T09:49:59.999Z</time></trkpt><trkpt lat="44.84685268442238" lon="7.24527545305283"><ele>822.0</ele><time>2026-04-25T09:50:00.999Z</time></trkpt><trkpt lat="44.846758449971006" lon="7.24528407062441"><ele>822.0</ele><time>2026-04-25T09:50:01.999Z</time></trkpt><trkpt lat="44.84664873971458" lon="7.245347422364533"><ele>822.0</ele><time>2026-04-25T09:50:02.999Z</time></trkpt><trkpt lat="44.84654390469398" lon="7.245400028479775"><ele>822.0</ele><time>2026-04-25T09:50:03.999Z</time></trkpt><trkpt lat="44.84645636821247" lon="7.245405888804704"><ele>819.8333333333334</ele><time>2026-04-25T09:50:04.999Z</time></trkpt><trkpt lat="44.84640719118911" lon="7.2454660821469625"><ele>817.6666666666667</ele><time>2026-04-25T09:50:05.998Z</time></trkpt><trkpt lat="44.846402746360674" lon="7.245612545859657"><ele>815.5</ele><time>2026-04-25T09:50:06.998Z</time></trkpt><trkpt lat="44.84646289516694" lon="7.245758829884007"><ele>813.3333333333334</ele><time>2026-04-25T09:50:07.998Z</time></trkpt><trkpt lat="44.84648081363292" lon="7.245870987158592"><ele>811.1666666666667</ele><time>2026-04-25T09:50:08.998Z</time></trkpt><trkpt lat="44.84649706097284" lon="7.2459749885637965"><ele>809.0</ele><time>2026-04-25T09:50:10.998Z</time></trkpt><trkpt lat="44.84643944697906" lon="7.2461695730610485"><ele>807.0</ele><time>2026-04-25T09:50:11.998Z</time></trkpt><trkpt lat="44.84635527576642" lon="7.246252213376538"><ele>805.0</ele><time>2026-04-25T09:50:12.998Z</time></trkpt><trkpt lat="44.84629220673609" lon="7.2462441658731125"><ele>803.0</ele><time>2026-04-25T09:50:13.998Z</time></trkpt><trkpt lat="44.84616905636304" lon="7.246190301745293"><ele>801.0</ele><time>2026-04-25T09:50:14.998Z</time></trkpt><trkpt lat="44.84604194083023" lon="7.246174193131444"><ele>799.0</ele><time>2026-04-25T09:50:15.998Z</time></trkpt><trkpt lat="44.84592297034579" lon="7.246174719548476"><ele>799.0</ele><time>2026-04-25T09:50:16.998Z</time></trkpt><trkpt lat="44.845828654332955" lon="7.246183807760719"><ele>799.0</ele><time>2026-04-25T09:50:17.998Z</time></trkpt><trkpt lat="44.84575886688694" lon="7.246215250888463"><ele>799.0</ele><time>2026-04-25T09:50:18.998Z</time></trkpt><trkpt lat="44.84573604214581" lon="7.246311413597302"><ele>799.0</ele><time>2026-04-25T09:50:20.998Z</time></trkpt><trkpt lat="44.845740184022695" lon="7.2464427614609725"><ele>799.0</ele><time>2026-04-25T09:50:23.998Z</time></trkpt><trkpt lat="44.845722492537774" lon="7.246622478545909"><ele>795.6</ele><time>2026-04-25T09:50:24.998Z</time></trkpt><trkpt lat="44.84570728414966" lon="7.246738842952573"><ele>792.2</ele><time>2026-04-25T09:50:25.998Z</time></trkpt><trkpt lat="44.84568794442814" lon="7.246866196823994"><ele>788.8000000000001</ele><time>2026-04-25T09:50:26.998Z</time></trkpt><trkpt lat="44.84563650829455" lon="7.24699161278772"><ele>785.4000000000001</ele><time>2026-04-25T09:50:27.998Z</time></trkpt><trkpt lat="44.84557935043995" lon="7.247126521946837"><ele>782.0</ele><time>2026-04-25T09:50:28.998Z</time></trkpt><trkpt lat="44.84551873373859" lon="7.247230690189974"><ele>782.0</ele><time>2026-04-25T09:50:29.998Z</time></trkpt><trkpt lat="44.8454621395015" lon="7.247297732225791"><ele>782.0</ele><time>2026-04-25T09:50:30.998Z</time></trkpt><trkpt lat="44.845420263638765" lon="7.24737876922334"><ele>782.0</ele><time>2026-04-25T09:50:31.998Z</time></trkpt><trkpt lat="44.845369334321866" lon="7.247443181345734"><ele>782.0</ele><time>2026-04-25T09:50:32.998Z</time></trkpt><trkpt lat="44.84536275312033" lon="7.247286499653928"><ele>782.0</ele><time>2026-04-25T09:50:33.998Z</time></trkpt><trkpt lat="44.845464687031914" lon="7.2471641014992345"><ele>782.0</ele><time>2026-04-25T09:50:34.998Z</time></trkpt><trkpt lat="44.84539325977829" lon="7.247123630943566"><ele>782.0</ele><time>2026-04-25T09:50:36.998Z</time></trkpt><trkpt lat="44.845298676886756" lon="7.247086757276294"><ele>782.0</ele><time>2026-04-25T09:50:37.998Z</time></trkpt><trkpt lat="44.845173244691075" lon="7.247023517660951"><ele>782.0</ele><time>2026-04-25T09:50:38.998Z</time></trkpt><trkpt lat="44.84505494179217" lon="7.246971735885473"><ele>782.0</ele><time>2026-04-25T09:50:39.998Z</time></trkpt><trkpt lat="44.8448820750154" lon="7.246971203822072"><ele>781.3333333333334</ele><time>2026-04-25T09:50:40.998Z</time></trkpt><trkpt lat="44.84466415091508" lon="7.247185620648429"><ele>780.6666666666667</ele><time>2026-04-25T09:50:41.998Z</time></trkpt><trkpt lat="44.844565402187904" lon="7.247381158547847"><ele>780.0</ele><time>2026-04-25T09:50:42.998Z</time></trkpt><trkpt lat="44.8444976086554" lon="7.247527264496043"><ele>780.0</ele><time>2026-04-25T09:50:43.998Z</time></trkpt><trkpt lat="44.84443731309957" lon="7.247695378692715"><ele>780.0</ele><time>2026-04-25T09:50:44.999Z</time></trkpt><trkpt lat="44.844393494097226" lon="7.247818041640354"><ele>780.0</ele><time>2026-04-25T09:50:45.999Z</time></trkpt><trkpt lat="44.84435860332132" lon="7.247938814696158"><ele>780.0</ele><time>2026-04-25T09:50:46.999Z</time></trkpt><trkpt lat="44.844324273993635" lon="7.2480710109561475"><ele>780.0</ele><time>2026-04-25T09:50:47.999Z</time></trkpt><trkpt lat="44.844767908555305" lon="7.248743023251787"><ele>775.5</ele><time>2026-04-25T09:50:49.999Z</time></trkpt><trkpt lat="44.84474552246367" lon="7.248921719428251"><ele>771.0</ele><time>2026-04-25T09:50:50.999Z</time></trkpt><trkpt lat="44.84473250995316" lon="7.2491152236199"><ele>766.5</ele><time>2026-04-25T09:50:51.999Z</time></trkpt><trkpt lat="44.84472263932486" lon="7.249281608871185"><ele>762.0</ele><time>2026-04-25T09:50:52.998Z</time></trkpt><trkpt lat="44.84471072843533" lon="7.2494172867068185"><ele>759.4000000000001</ele><time>2026-04-25T09:50:53.998Z</time></trkpt><trkpt lat="44.84468331109772" lon="7.249524678788191"><ele>756.8000000000001</ele><time>2026-04-25T09:50:54.998Z</time></trkpt><trkpt lat="44.8446130305352" lon="7.249622049166268"><ele>754.2</ele><time>2026-04-25T09:50:55.998Z</time></trkpt><trkpt lat="44.844538035547046" lon="7.2497079819829136"><ele>751.6</ele><time>2026-04-25T09:50:56.998Z</time></trkpt><trkpt lat="44.84445858213435" lon="7.249803555518214"><ele>749.0</ele><time>2026-04-25T09:50:57.998Z</time></trkpt><trkpt lat="44.844386595072905" lon="7.249903800564242"><ele>749.6</ele><time>2026-04-25T09:50:58.998Z</time></trkpt><trkpt lat="44.844340803857754" lon="7.250005173871559"><ele>750.2</ele><time>2026-04-25T09:50:59.998Z</time></trkpt><trkpt lat="44.84429731330589" lon="7.250099192861822"><ele>750.8000000000001</ele><time>2026-04-25T09:51:00.998Z</time></trkpt><trkpt lat="44.84420862878118" lon="7.250164983257803"><ele>751.4000000000001</ele><time>2026-04-25T09:51:02.998Z</time></trkpt><trkpt lat="44.84415590338784" lon="7.250009785439481"><ele>752.0</ele><time>2026-04-25T09:51:05.998Z</time></trkpt><trkpt lat="44.84411180132534" lon="7.2499282130441"><ele>752.0</ele><time>2026-04-25T09:51:07.998Z</time></trkpt><trkpt lat="44.844074886239774" lon="7.249821558086799"><ele>752.0</ele><time>2026-04-25T09:51:08.998Z</time></trkpt><trkpt lat="44.844049924092396" lon="7.249713911327144"><ele>752.0</ele><time>2026-04-25T09:51:10Z</time></trkpt><trkpt lat="44.8440450858161" lon="7.249597965534795"><ele>752.0</ele><time>2026-04-25T09:51:11Z</time></trkpt><trkpt lat="44.84406332380095" lon="7.24950010958269"><ele>752.0</ele><time>2026-04-25T09:51:12Z</time></trkpt><trkpt lat="44.84405980562809" lon="7.249390821795925"><ele>752.0</ele><time>2026-04-25T09:51:13Z</time></trkpt><trkpt lat="44.84405898557357" lon="7.249278135209763"><ele>754.0</ele><time>2026-04-25T09:51:14Z</time></trkpt><trkpt lat="44.84406324120945" lon="7.249161104089916"><ele>756.0</ele><time>2026-04-25T09:51:15Z</time></trkpt><trkpt lat="44.84404442987932" lon="7.249068814129013"><ele>758.0</ele><time>2026-04-25T09:51:16Z</time></trkpt><trkpt lat="44.84400852995142" lon="7.248976392431765"><ele>760.0</ele><time>2026-04-25T09:51:17Z</time></trkpt><trkpt lat="44.843967776814644" lon="7.2488626471846285"><ele>762.0</ele><time>2026-04-25T09:51:18Z</time></trkpt><trkpt lat="44.84392566821093" lon="7.248733915846915"><ele>764.0</ele><time>2026-04-25T09:51:19Z</time></trkpt><trkpt lat="44.84388183331548" lon="7.248600384982539"><ele>766.5</ele><time>2026-04-25T09:51:20Z</time></trkpt><trkpt lat="44.84383522550402" lon="7.248475569217254"><ele>769.0</ele><time>2026-04-25T09:51:21Z</time></trkpt><trkpt lat="44.843826366558076" lon="7.248350741748942"><ele>771.5</ele><time>2026-04-25T09:51:22Z</time></trkpt><trkpt lat="44.84380115835439" lon="7.248267597192885"><ele>774.0</ele><time>2026-04-25T09:51:23Z</time></trkpt><trkpt lat="44.843775301309755" lon="7.248170689346585"><ele>776.5000000000001</ele><time>2026-04-25T09:51:24Z</time></trkpt><trkpt lat="44.8437525481508" lon="7.248041552440657"><ele>779.0</ele><time>2026-04-25T09:51:25Z</time></trkpt><trkpt lat="44.84372117514902" lon="7.247909277616831"><ele>781.8000000000001</ele><time>2026-04-25T09:51:26Z</time></trkpt><trkpt lat="44.84369141379346" lon="7.2477642653702965"><ele>784.6</ele><time>2026-04-25T09:51:27Z</time></trkpt><trkpt lat="44.843648106227235" lon="7.2476388845558954"><ele>787.4</ele><time>2026-04-25T09:51:28Z</time></trkpt><trkpt lat="44.843590747882836" lon="7.247563890354049"><ele>790.2</ele><time>2026-04-25T09:51:29Z</time></trkpt><trkpt lat="44.843515135553304" lon="7.247525947315877"><ele>793.0</ele><time>2026-04-25T09:51:30Z</time></trkpt><trkpt lat="44.84341715870619" lon="7.247556852818487"><ele>793.0</ele><time>2026-04-25T09:51:31Z</time></trkpt><trkpt lat="44.84330409026994" lon="7.247681879007264"><ele>793.0</ele><time>2026-04-25T09:51:32Z</time></trkpt><trkpt lat="44.843157140454494" lon="7.247855891613324"><ele>793.0</ele><time>2026-04-25T09:51:33Z</time></trkpt><trkpt lat="44.84298386427726" lon="7.248046034404989"><ele>793.0</ele><time>2026-04-25T09:51:34Z</time></trkpt><trkpt lat="44.8428168089365" lon="7.248125407627216"><ele>793.0</ele><time>2026-04-25T09:51:35Z</time></trkpt><trkpt lat="44.842728264541066" lon="7.24814859723721"><ele>793.0</ele><time>2026-04-25T09:51:36Z</time></trkpt><trkpt lat="44.8426349879841" lon="7.248155135797476"><ele>793.0</ele><time>2026-04-25T09:51:37Z</time></trkpt><trkpt lat="44.84251038081765" lon="7.248184706443004"><ele>794.4</ele><time>2026-04-25T09:51:38Z</time></trkpt><trkpt lat="44.842439878497814" lon="7.2481638696104405"><ele>795.8</ele><time>2026-04-25T09:51:39Z</time></trkpt><trkpt lat="44.84234794633334" lon="7.248111689064"><ele>797.2</ele><time>2026-04-25T09:51:40Z</time></trkpt><trkpt lat="44.842246773772246" lon="7.248007338168364"><ele>798.6</ele><time>2026-04-25T09:51:41Z</time></trkpt><trkpt lat="44.84216086890448" lon="7.247924137756753"><ele>800.0</ele><time>2026-04-25T09:51:42Z</time></trkpt><trkpt lat="44.84209624039578" lon="7.247777326898864"><ele>800.0</ele><time>2026-04-25T09:51:43Z</time></trkpt><trkpt lat="44.84203312322374" lon="7.2476575628292865"><ele>800.0</ele><time>2026-04-25T09:51:44Z</time></trkpt><trkpt lat="44.84199231637369" lon="7.247506228854144"><ele>800.0</ele><time>2026-04-25T09:51:45Z</time></trkpt><trkpt lat="44.84193260632273" lon="7.247329287701185"><ele>800.0</ele><time>2026-04-25T09:51:46Z</time></trkpt><trkpt lat="44.84189815660544" lon="7.247114471299021"><ele>801.8</ele><time>2026-04-25T09:51:47Z</time></trkpt><trkpt lat="44.841884976229636" lon="7.2469175904115595"><ele>803.6</ele><time>2026-04-25T09:51:48Z</time></trkpt><trkpt lat="44.841866867383274" lon="7.246791412955353"><ele>805.4000000000001</ele><time>2026-04-25T09:51:49Z</time></trkpt><trkpt lat="44.84182301982187" lon="7.246684654617691"><ele>807.2</ele><time>2026-04-25T09:51:50Z</time></trkpt><trkpt lat="44.84176324800332" lon="7.246620935484816"><ele>809.0</ele><time>2026-04-25T09:51:51Z</time></trkpt><trkpt lat="44.84167671417112" lon="7.24657438552685"><ele>809.0</ele><time>2026-04-25T09:51:52Z</time></trkpt><trkpt lat="44.84159402565855" lon="7.246558494210216"><ele>809.0</ele><time>2026-04-25T09:51:53Z</time></trkpt><trkpt lat="44.84149935423018" lon="7.246575671638127"><ele>809.0</ele><time>2026-04-25T09:51:54Z</time></trkpt><trkpt lat="44.841440649092725" lon="7.246536320997703"><ele>809.0</ele><time>2026-04-25T09:51:57Z</time></trkpt><trkpt lat="44.84122630427996" lon="7.2465456453240495"><ele>809.0000000000001</ele><time>2026-04-25T09:53:33Z</time></trkpt><trkpt lat="44.84115482356991" lon="7.2465274171453125"><ele>809.0</ele><time>2026-04-25T09:53:34Z</time></trkpt><trkpt lat="44.841084181394265" lon="7.246481653925069"><ele>809.0</ele><time>2026-04-25T09:53:35Z</time></trkpt><trkpt lat="44.841023185761266" lon="7.246414715173027"><ele>809.0</ele><time>2026-04-25T09:53:36Z</time></trkpt><trkpt lat="44.84098386630304" lon="7.246326024244649"><ele>809.0000000000001</ele><time>2026-04-25T09:53:37Z</time></trkpt><trkpt lat="44.84094499404366" lon="7.24621037706642"><ele>809.0</ele><time>2026-04-25T09:53:38Z</time></trkpt><trkpt lat="44.84090886532013" lon="7.24609598261041"><ele>811.3333333333334</ele><time>2026-04-25T09:53:39Z</time></trkpt><trkpt lat="44.84087648550479" lon="7.245966163960499"><ele>813.6666666666667</ele><time>2026-04-25T09:53:40Z</time></trkpt><trkpt lat="44.84083257563695" lon="7.245865218333229"><ele>816.0</ele><time>2026-04-25T09:53:41Z</time></trkpt><trkpt lat="44.84078865647827" lon="7.245756380421714"><ele>818.3333333333333</ele><time>2026-04-25T09:53:42Z</time></trkpt><trkpt lat="44.84072445535853" lon="7.245760537306557"><ele>820.6666666666666</ele><time>2026-04-25T09:53:45Z</time></trkpt><trkpt lat="44.840656362049614" lon="7.245821821853608"><ele>823.0</ele><time>2026-04-25T09:53:47Z</time></trkpt><trkpt lat="44.84064671225909" lon="7.24591064531996"><ele>823.0</ele><time>2026-04-25T09:54:04Z</time></trkpt><trkpt lat="44.840462599088134" lon="7.246067968515731"><ele>823.0</ele><time>2026-04-25T09:56:51.999Z</time></trkpt><trkpt lat="44.84039281047783" lon="7.246143205137699"><ele>823.0</ele><time>2026-04-25T09:56:52.999Z</time></trkpt><trkpt lat="44.84031275806001" lon="7.246220974727898"><ele>823.0</ele><time>2026-04-25T09:56:53.999Z</time></trkpt><trkpt lat="44.84026577527278" lon="7.246327145684056"><ele>820.4</ele><time>2026-04-25T09:56:54.999Z</time></trkpt><trkpt lat="44.84023462568274" lon="7.246463718272751"><ele>817.8</ele><time>2026-04-25T09:56:55.999Z</time></trkpt><trkpt lat="44.84016752991989" lon="7.246599709068703"><ele>815.2</ele><time>2026-04-25T09:56:56.999Z</time></trkpt><trkpt lat="44.84012255086175" lon="7.246699260717688"><ele>812.6</ele><time>2026-04-25T09:56:57.999Z</time></trkpt><trkpt lat="44.84007827108467" lon="7.246788410926387"><ele>810.0</ele><time>2026-04-25T09:56:58.999Z</time></trkpt><trkpt lat="44.8400053936193" lon="7.246839300882881"><ele>810.0</ele><time>2026-04-25T09:56:59.999Z</time></trkpt><trkpt lat="44.839884211677244" lon="7.246889298111923"><ele>810.0</ele><time>2026-04-25T09:57:01.999Z</time></trkpt><trkpt lat="44.83981530709042" lon="7.24690409873456"><ele>810.0</ele><time>2026-04-25T09:57:02.998Z</time></trkpt><trkpt lat="44.83975240196925" lon="7.246964494476312"><ele>810.0</ele><time>2026-04-25T09:57:04.998Z</time></trkpt><trkpt lat="44.8397100358298" lon="7.247044830551668"><ele>810.0</ele><time>2026-04-25T09:57:15.998Z</time></trkpt><trkpt lat="44.83968394940554" lon="7.2471262638801175"><ele>810.0</ele><time>2026-04-25T09:57:17.998Z</time></trkpt><trkpt lat="44.83964419893013" lon="7.247243347794032"><ele>810.0</ele><time>2026-04-25T09:57:19.998Z</time></trkpt><trkpt lat="44.83960705000504" lon="7.2473559390407996"><ele>810.0</ele><time>2026-04-25T09:57:21.998Z</time></trkpt><trkpt lat="44.83957884805754" lon="7.247445052285302"><ele>810.0</ele><time>2026-04-25T09:57:31Z</time></trkpt><trkpt lat="44.839669785323785" lon="7.247297123777331"><ele>810.0</ele><time>2026-04-25T09:57:43Z</time></trkpt><trkpt lat="44.83971510162335" lon="7.247211524404716"><ele>810.0</ele><time>2026-04-25T09:57:45Z</time></trkpt><trkpt lat="44.839742599629304" lon="7.247110402588956"><ele>810.0</ele><time>2026-04-25T09:57:48Z</time></trkpt><trkpt lat="44.839776219189154" lon="7.247033284174195"><ele>809.9999999999999</ele><time>2026-04-25T09:57:51Z</time></trkpt><trkpt lat="44.83983322716921" lon="7.246995582894444"><ele>810.0</ele><time>2026-04-25T09:57:53Z</time></trkpt><trkpt lat="44.8397498012269" lon="7.246956729387828"><ele>810.0</ele><time>2026-04-25T09:58:12Z</time></trkpt><trkpt lat="44.839676567871344" lon="7.246909691589905"><ele>810.0</ele><time>2026-04-25T09:58:14Z</time></trkpt><trkpt lat="44.839631238365676" lon="7.246834864244167"><ele>810.0</ele><time>2026-04-25T09:58:17Z</time></trkpt><trkpt lat="44.839680514285725" lon="7.246895543703136"><ele>809.9999999999999</ele><time>2026-04-25T09:59:26.998Z</time></trkpt><trkpt lat="44.83975047316882" lon="7.246909085166376"><ele>810.0</ele><time>2026-04-25T09:59:28.998Z</time></trkpt><trkpt lat="44.83979297857726" lon="7.2469807266833595"><ele>810.0</ele><time>2026-04-25T09:59:36Z</time></trkpt><trkpt lat="44.83974907522847" lon="7.247052690517725"><ele>810.0</ele><time>2026-04-25T09:59:40Z</time></trkpt><trkpt lat="44.83971364618101" lon="7.247139122794731"><ele>810.0</ele><time>2026-04-25T09:59:43Z</time></trkpt><trkpt lat="44.839692770621404" lon="7.247279208271347"><ele>810.0</ele><time>2026-04-25T09:59:45Z</time></trkpt><trkpt lat="44.83966870760434" lon="7.247367026751856"><ele>810.0</ele><time>2026-04-25T09:59:46Z</time></trkpt><trkpt lat="44.839630448577" lon="7.2474650837455865"><ele>810.0</ele><time>2026-04-25T09:59:47Z</time></trkpt><trkpt lat="44.839545982848676" lon="7.247543077771139"><ele>810.25</ele><time>2026-04-25T09:59:48Z</time></trkpt><trkpt lat="44.839499903896424" lon="7.247656642351676"><ele>810.5</ele><time>2026-04-25T09:59:49Z</time></trkpt><trkpt lat="44.839438292960075" lon="7.247769017144471"><ele>810.75</ele><time>2026-04-25T09:59:50Z</time></trkpt><trkpt lat="44.839338288416926" lon="7.247923880632546"><ele>811.0</ele><time>2026-04-25T09:59:51Z</time></trkpt><trkpt lat="44.839247419005" lon="7.248083901664233"><ele>807.5</ele><time>2026-04-25T09:59:52Z</time></trkpt><trkpt lat="44.83917705701165" lon="7.248261409642879"><ele>804.0</ele><time>2026-04-25T09:59:53Z</time></trkpt><trkpt lat="44.83912417426061" lon="7.248457729543997"><ele>800.5</ele><time>2026-04-25T09:59:54Z</time></trkpt><trkpt lat="44.83906342050702" lon="7.248593691029281"><ele>797.0</ele><time>2026-04-25T09:59:55Z</time></trkpt><trkpt lat="44.83901691791931" lon="7.248731780210556"><ele>797.0000000000001</ele><time>2026-04-25T09:59:56Z</time></trkpt><trkpt lat="44.83895335706702" lon="7.2488534328359755"><ele>797.0</ele><time>2026-04-25T09:59:57Z</time></trkpt><trkpt lat="44.83888979090778" lon="7.24893624533949"><ele>797.0</ele><time>2026-04-25T09:59:58Z</time></trkpt><trkpt lat="44.83882588007885" lon="7.249014032986601"><ele>797.0</ele><time>2026-04-25T09:59:59Z</time></trkpt><trkpt lat="44.838761267784385" lon="7.249077825228861"><ele>797.0000000000001</ele><time>2026-04-25T10:00:00Z</time></trkpt><trkpt lat="44.838685695927865" lon="7.249104689873698"><ele>797.0</ele><time>2026-04-25T10:00:01Z</time></trkpt><trkpt lat="44.838583683027835" lon="7.249098648041928"><ele>794.2</ele><time>2026-04-25T10:00:02Z</time></trkpt><trkpt lat="44.83848040121905" lon="7.249080951706308"><ele>791.4000000000001</ele><time>2026-04-25T10:00:03Z</time></trkpt><trkpt lat="44.83837986441997" lon="7.2490656630234"><ele>788.5999999999999</ele><time>2026-04-25T10:00:04Z</time></trkpt><trkpt lat="44.83827941549501" lon="7.249049507978801"><ele>785.8</ele><time>2026-04-25T10:00:05Z</time></trkpt><trkpt lat="44.83817302908211" lon="7.249026733532299"><ele>783.0</ele><time>2026-04-25T10:00:06Z</time></trkpt><trkpt lat="44.83807564888297" lon="7.249000500171639"><ele>783.0</ele><time>2026-04-25T10:00:07Z</time></trkpt><trkpt lat="44.83797905568656" lon="7.2489709690749375"><ele>783.0</ele><time>2026-04-25T10:00:08Z</time></trkpt><trkpt lat="44.83789266587914" lon="7.248940377263122"><ele>783.0</ele><time>2026-04-25T10:00:09Z</time></trkpt><trkpt lat="44.83780123819472" lon="7.248877628646174"><ele>783.0</ele><time>2026-04-25T10:00:10Z</time></trkpt><trkpt lat="44.83771167932627" lon="7.248802029185175"><ele>783.0</ele><time>2026-04-25T10:00:11Z</time></trkpt><trkpt lat="44.837616162691425" lon="7.248744796991731"><ele>784.4</ele><time>2026-04-25T10:00:12Z</time></trkpt><trkpt lat="44.83752851589504" lon="7.248681026253731"><ele>785.8</ele><time>2026-04-25T10:00:13Z</time></trkpt><trkpt lat="44.837436957041" lon="7.24859524524202"><ele>787.2</ele><time>2026-04-25T10:00:14Z</time></trkpt><trkpt lat="44.83734841352129" lon="7.248500792603773"><ele>788.6</ele><time>2026-04-25T10:00:15Z</time></trkpt><trkpt lat="44.83727333604528" lon="7.248432434749772"><ele>790.0</ele><time>2026-04-25T10:00:16Z</time></trkpt><trkpt lat="44.83719903867829" lon="7.24837060343074"><ele>790.0</ele><time>2026-04-25T10:00:17Z</time></trkpt><trkpt lat="44.83712245962577" lon="7.248334803167941"><ele>790.0</ele><time>2026-04-25T10:00:18Z</time></trkpt><trkpt lat="44.837066500288984" lon="7.248386056786975"><ele>790.0</ele><time>2026-04-25T10:00:19Z</time></trkpt><trkpt lat="44.83706249912598" lon="7.248487944000231"><ele>790.0</ele><time>2026-04-25T10:00:20Z</time></trkpt><trkpt lat="44.83705345322171" lon="7.248579528654509"><ele>790.0</ele><time>2026-04-25T10:00:21Z</time></trkpt><trkpt lat="44.83701931430786" lon="7.248660841557165"><ele>790.0</ele><time>2026-04-25T10:00:22Z</time></trkpt><trkpt lat="44.83697023477209" lon="7.248772160761656"><ele>790.0</ele><time>2026-04-25T10:00:23Z</time></trkpt><trkpt lat="44.836920915721315" lon="7.248886767180554"><ele>786.0</ele><time>2026-04-25T10:00:24Z</time></trkpt><trkpt lat="44.836858487398224" lon="7.249031836612403"><ele>782.0</ele><time>2026-04-25T10:00:25Z</time></trkpt><trkpt lat="44.83678943806524" lon="7.249200454423202"><ele>778.0</ele><time>2026-04-25T10:00:25.999Z</time></trkpt><trkpt lat="44.83671998084984" lon="7.249373777285556"><ele>774.0</ele><time>2026-04-25T10:00:26.999Z</time></trkpt><trkpt lat="44.836671903103785" lon="7.249491073683555"><ele>774.0</ele><time>2026-04-25T10:00:27.999Z</time></trkpt><trkpt lat="44.83662206211638" lon="7.2496136052439875"><ele>774.0</ele><time>2026-04-25T10:00:28.999Z</time></trkpt><trkpt lat="44.83657940341882" lon="7.24972185273574"><ele>774.0</ele><time>2026-04-25T10:00:29.999Z</time></trkpt><trkpt lat="44.83653393898627" lon="7.249832296334472"><ele>774.0</ele><time>2026-04-25T10:00:30.999Z</time></trkpt><trkpt lat="44.8364945872363" lon="7.249946981687607"><ele>774.0</ele><time>2026-04-25T10:00:31.999Z</time></trkpt><trkpt lat="44.83641790745208" lon="7.250011442534813"><ele>769.4000000000001</ele><time>2026-04-25T10:00:32.999Z</time></trkpt><trkpt lat="44.83633105909902" lon="7.250073117812436"><ele>764.8</ele><time>2026-04-25T10:00:33.999Z</time></trkpt><trkpt lat="44.83622153540411" lon="7.250062981113023"><ele>760.2</ele><time>2026-04-25T10:00:34.999Z</time></trkpt><trkpt lat="44.836132580335374" lon="7.250123185613885"><ele>755.5999999999999</ele><time>2026-04-25T10:00:35.999Z</time></trkpt><trkpt lat="44.83607017746382" lon="7.2502401351865355"><ele>751.0</ele><time>2026-04-25T10:00:36.999Z</time></trkpt><trkpt lat="44.836042908364284" lon="7.250376189613623"><ele>751.0</ele><time>2026-04-25T10:00:37.999Z</time></trkpt><trkpt lat="44.83605100877484" lon="7.250568091174483"><ele>751.0</ele><time>2026-04-25T10:00:38.999Z</time></trkpt><trkpt lat="44.83610159618792" lon="7.250711904568646"><ele>751.0</ele><time>2026-04-25T10:00:39.999Z</time></trkpt><trkpt lat="44.836117094584985" lon="7.250838160618959"><ele>751.0</ele><time>2026-04-25T10:00:40.999Z</time></trkpt><trkpt lat="44.83615068530829" lon="7.250963485441322"><ele>751.0</ele><time>2026-04-25T10:00:41.999Z</time></trkpt><trkpt lat="44.83619225325779" lon="7.251068347266092"><ele>753.4</ele><time>2026-04-25T10:00:42.999Z</time></trkpt><trkpt lat="44.83622243594169" lon="7.251197559187296"><ele>755.8</ele><time>2026-04-25T10:00:44.999Z</time></trkpt><trkpt lat="44.83610963630161" lon="7.2512200789427474"><ele>758.1999999999999</ele><time>2026-04-25T10:00:46.999Z</time></trkpt><trkpt lat="44.83601259419408" lon="7.251224433520319"><ele>760.5999999999999</ele><time>2026-04-25T10:00:47.999Z</time></trkpt><trkpt lat="44.83590260123919" lon="7.251219512111585"><ele>763.0</ele><time>2026-04-25T10:00:48.999Z</time></trkpt><trkpt lat="44.835788289688175" lon="7.251224779628236"><ele>763.0</ele><time>2026-04-25T10:00:49.999Z</time></trkpt><trkpt lat="44.83570312754645" lon="7.2512530117793075"><ele>763.0</ele><time>2026-04-25T10:00:50.999Z</time></trkpt><trkpt lat="44.835628951476856" lon="7.251299432100723"><ele>763.0</ele><time>2026-04-25T10:00:51.999Z</time></trkpt><trkpt lat="44.835562101833965" lon="7.251364376630269"><ele>763.0</ele><time>2026-04-25T10:00:52.999Z</time></trkpt><trkpt lat="44.835490989566225" lon="7.251495834329832"><ele>763.0</ele><time>2026-04-25T10:00:53.999Z</time></trkpt><trkpt lat="44.8354207843183" lon="7.251642908305633"><ele>757.0</ele><time>2026-04-25T10:00:54.999Z</time></trkpt><trkpt lat="44.83536627791244" lon="7.251786910434421"><ele>751.0</ele><time>2026-04-25T10:00:55.999Z</time></trkpt><trkpt lat="44.835318950036715" lon="7.251948209234888"><ele>745.0</ele><time>2026-04-25T10:00:56.999Z</time></trkpt><trkpt lat="44.83529215324516" lon="7.25207773120925"><ele>739.0</ele><time>2026-04-25T10:00:57.999Z</time></trkpt><trkpt lat="44.83526884189668" lon="7.252236700439647"><ele>734.8000000000001</ele><time>2026-04-25T10:00:58.999Z</time></trkpt><trkpt lat="44.83525892635482" lon="7.252412247493026"><ele>730.6</ele><time>2026-04-25T10:00:59.999Z</time></trkpt><trkpt lat="44.83528925266526" lon="7.25256248242912"><ele>726.4</ele><time>2026-04-25T10:01:00.999Z</time></trkpt><trkpt lat="44.835345844831515" lon="7.252713605326291"><ele>722.2</ele><time>2026-04-25T10:01:01.999Z</time></trkpt><trkpt lat="44.835362759157206" lon="7.252808277270616"><ele>718.0</ele><time>2026-04-25T10:01:02.999Z</time></trkpt><trkpt lat="44.835322905944615" lon="7.252950813576705"><ele>718.0</ele><time>2026-04-25T10:01:04.999Z</time></trkpt><trkpt lat="44.835263904547695" lon="7.252986700580509"><ele>718.0</ele><time>2026-04-25T10:01:06.999Z</time></trkpt><trkpt lat="44.83516345581557" lon="7.253109964819834"><ele>718.0</ele><time>2026-04-25T10:01:08.999Z</time></trkpt><trkpt lat="44.835082536558176" lon="7.2531978826351"><ele>718.0</ele><time>2026-04-25T10:01:09.999Z</time></trkpt><trkpt lat="44.83498680032802" lon="7.253263900862688"><ele>718.0</ele><time>2026-04-25T10:01:10.999Z</time></trkpt><trkpt lat="44.83488676237132" lon="7.253296675080911"><ele>718.8</ele><time>2026-04-25T10:01:11.998Z</time></trkpt><trkpt lat="44.83479566327868" lon="7.253323635628629"><ele>719.5999999999999</ele><time>2026-04-25T10:01:12.998Z</time></trkpt><trkpt lat="44.83469568065335" lon="7.253343112024416"><ele>720.4000000000001</ele><time>2026-04-25T10:01:13.998Z</time></trkpt><trkpt lat="44.83458463651604" lon="7.253362477774363"><ele>721.2</ele><time>2026-04-25T10:01:14.998Z</time></trkpt><trkpt lat="44.83448503116082" lon="7.253362136853931"><ele>722.0</ele><time>2026-04-25T10:01:15.998Z</time></trkpt><trkpt lat="44.834390515163925" lon="7.2533567054783346"><ele>723.6</ele><time>2026-04-25T10:01:16.998Z</time></trkpt><trkpt lat="44.834287802107134" lon="7.253373582266787"><ele>725.2</ele><time>2026-04-25T10:01:17.998Z</time></trkpt><trkpt lat="44.83420723922114" lon="7.2534096128218115"><ele>726.8</ele><time>2026-04-25T10:01:18.998Z</time></trkpt><trkpt lat="44.834180868727834" lon="7.2535222478457655"><ele>728.4</ele><time>2026-04-25T10:01:19.998Z</time></trkpt><trkpt lat="44.83417024206387" lon="7.25364266333452"><ele>730.0</ele><time>2026-04-25T10:01:20.998Z</time></trkpt><trkpt lat="44.83411088397048" lon="7.253769616101309"><ele>730.0</ele><time>2026-04-25T10:01:21.998Z</time></trkpt><trkpt lat="44.83406127574668" lon="7.253898893049174"><ele>730.0</ele><time>2026-04-25T10:01:22.998Z</time></trkpt><trkpt lat="44.834022717716394" lon="7.253982955380016"><ele>730.0</ele><time>2026-04-25T10:01:23.998Z</time></trkpt><trkpt lat="44.83393946560541" lon="7.25406310832727"><ele>730.0</ele><time>2026-04-25T10:01:26.998Z</time></trkpt><trkpt lat="44.83385818689371" lon="7.25417327140448"><ele>730.0</ele><time>2026-04-25T10:01:28.998Z</time></trkpt><trkpt lat="44.83382241690718" lon="7.254058551581068"><ele>730.0</ele><time>2026-04-25T10:01:30.998Z</time></trkpt><trkpt lat="44.833732795731315" lon="7.254015959517085"><ele>730.0</ele><time>2026-04-25T10:01:53Z</time></trkpt><trkpt lat="44.83365566996604" lon="7.2539767350639845"><ele>730.0</ele><time>2026-04-25T10:01:55Z</time></trkpt><trkpt lat="44.8335490675271" lon="7.25390484090957"><ele>730.0</ele><time>2026-04-25T10:01:57Z</time></trkpt><trkpt lat="44.83346285274042" lon="7.253828152910074"><ele>730.0</ele><time>2026-04-25T10:01:58Z</time></trkpt><trkpt lat="44.833369588082064" lon="7.25374459664486"><ele>729.0</ele><time>2026-04-25T10:01:59Z</time></trkpt><trkpt lat="44.83328480562909" lon="7.253723097701411"><ele>728.0</ele><time>2026-04-25T10:02:00Z</time></trkpt><trkpt lat="44.83317344988053" lon="7.253769741424839"><ele>727.0</ele><time>2026-04-25T10:02:01Z</time></trkpt><trkpt lat="44.833064820490016" lon="7.2538004891120975"><ele>726.0</ele><time>2026-04-25T10:02:02Z</time></trkpt><trkpt lat="44.832990044651886" lon="7.253776944337498"><ele>725.0</ele><time>2026-04-25T10:02:03Z</time></trkpt><trkpt lat="44.832925077066854" lon="7.2537197376869695"><ele>725.0</ele><time>2026-04-25T10:02:04Z</time></trkpt><trkpt lat="44.8328786649746" lon="7.253633936212317"><ele>725.0</ele><time>2026-04-25T10:02:05Z</time></trkpt><trkpt lat="44.83285157813061" lon="7.2535357450281275"><ele>725.0</ele><time>2026-04-25T10:02:06Z</time></trkpt><trkpt lat="44.832846628020626" lon="7.253432597200688"><ele>725.0</ele><time>2026-04-25T10:02:07Z</time></trkpt><trkpt lat="44.83285811561263" lon="7.253332351550965"><ele>725.0</ele><time>2026-04-25T10:02:08Z</time></trkpt><trkpt lat="44.83288593747447" lon="7.253224588969104"><ele>725.0</ele><time>2026-04-25T10:02:09Z</time></trkpt><trkpt lat="44.83290810933114" lon="7.253106739932972"><ele>726.8333333333333</ele><time>2026-04-25T10:02:10Z</time></trkpt><trkpt lat="44.832911363394146" lon="7.252984111104511"><ele>728.6666666666666</ele><time>2026-04-25T10:02:11Z</time></trkpt><trkpt lat="44.832901248610355" lon="7.25286432027967"><ele>730.5</ele><time>2026-04-25T10:02:12Z</time></trkpt><trkpt lat="44.83289170366398" lon="7.252753138920496"><ele>732.3333333333334</ele><time>2026-04-25T10:02:13Z</time></trkpt><trkpt lat="44.832894495866704" lon="7.252647924784198"><ele>734.1666666666667</ele><time>2026-04-25T10:02:14Z</time></trkpt><trkpt lat="44.83288666295123" lon="7.252547649914846"><ele>736.0</ele><time>2026-04-25T10:02:15Z</time></trkpt><trkpt lat="44.83284135234959" lon="7.2524556038595955"><ele>736.0</ele><time>2026-04-25T10:02:16Z</time></trkpt><trkpt lat="44.832774637919904" lon="7.2523785081755"><ele>736.0</ele><time>2026-04-25T10:02:17Z</time></trkpt><trkpt lat="44.83274081338228" lon="7.252289042152518"><ele>736.0</ele><time>2026-04-25T10:02:18Z</time></trkpt><trkpt lat="44.832709223944306" lon="7.252207489133949"><ele>736.0</ele><time>2026-04-25T10:02:19Z</time></trkpt><trkpt lat="44.832665189890854" lon="7.252123968654306"><ele>736.0</ele><time>2026-04-25T10:02:20Z</time></trkpt><trkpt lat="44.83263877955371" lon="7.2520243960967505"><ele>736.0</ele><time>2026-04-25T10:02:21Z</time></trkpt><trkpt lat="44.832604805378814" lon="7.2519227920919045"><ele>733.0</ele><time>2026-04-25T10:02:22Z</time></trkpt><trkpt lat="44.8325717332984" lon="7.251823682284744"><ele>730.0</ele><time>2026-04-25T10:02:23Z</time></trkpt><trkpt lat="44.83250804115496" lon="7.251744641289781"><ele>727.0</ele><time>2026-04-25T10:02:24Z</time></trkpt><trkpt lat="44.832420377657975" lon="7.251687893805186"><ele>724.0</ele><time>2026-04-25T10:02:25Z</time></trkpt><trkpt lat="44.832343069194394" lon="7.251602989084796"><ele>721.0</ele><time>2026-04-25T10:02:26Z</time></trkpt><trkpt lat="44.832270743847666" lon="7.251531521755534"><ele>718.0</ele><time>2026-04-25T10:02:27Z</time></trkpt><trkpt lat="44.83220861316288" lon="7.251473914482648"><ele>721.5</ele><time>2026-04-25T10:02:28Z</time></trkpt><trkpt lat="44.83207217733645" lon="7.251444934807735"><ele>725.0</ele><time>2026-04-25T10:02:29.999Z</time></trkpt><trkpt lat="44.832009531655196" lon="7.251405143375099"><ele>728.5</ele><time>2026-04-25T10:02:30.999Z</time></trkpt><trkpt lat="44.83194035051757" lon="7.251389147075639"><ele>732.0</ele><time>2026-04-25T10:02:31.999Z</time></trkpt><trkpt lat="44.83185611389913" lon="7.2513887172097"><ele>735.5</ele><time>2026-04-25T10:02:32.999Z</time></trkpt><trkpt lat="44.831791135355495" lon="7.251366197354827"><ele>739.0</ele><time>2026-04-25T10:02:33.999Z</time></trkpt><trkpt lat="44.831713059686635" lon="7.2513749999838035"><ele>739.0</ele><time>2026-04-25T10:02:34.999Z</time></trkpt><trkpt lat="44.831645983141925" lon="7.251374908481271"><ele>739.0</ele><time>2026-04-25T10:02:35.999Z</time></trkpt><trkpt lat="44.83157413385439" lon="7.251393460514997"><ele>739.0</ele><time>2026-04-25T10:02:40.999Z</time></trkpt><trkpt lat="44.831488722376136" lon="7.2513681649343225"><ele>739.0</ele><time>2026-04-25T10:02:43.999Z</time></trkpt><trkpt lat="44.83137328800014" lon="7.251339835045836"><ele>739.0</ele><time>2026-04-25T10:02:45.999Z</time></trkpt><trkpt lat="44.83129916534292" lon="7.2513203147474625"><ele>739.0</ele><time>2026-04-25T10:02:46.999Z</time></trkpt><trkpt lat="44.831213717942084" lon="7.251301744759498"><ele>739.0</ele><time>2026-04-25T10:02:47.999Z</time></trkpt><trkpt lat="44.83111108434205" lon="7.251288542414408"><ele>739.0</ele><time>2026-04-25T10:02:48.999Z</time></trkpt><trkpt lat="44.83102822738136" lon="7.251283635950575"><ele>739.0</ele><time>2026-04-25T10:02:49.999Z</time></trkpt><trkpt lat="44.83092164182139" lon="7.251279107346147"><ele>739.0</ele><time>2026-04-25T10:02:50.999Z</time></trkpt><trkpt lat="44.830826920408406" lon="7.251279563423876"><ele>739.0</ele><time>2026-04-25T10:02:51.999Z</time></trkpt><trkpt lat="44.830725666577656" lon="7.251283718067379"><ele>737.5</ele><time>2026-04-25T10:02:52.999Z</time></trkpt><trkpt lat="44.83062806788557" lon="7.2512903959223145"><ele>736.0</ele><time>2026-04-25T10:02:53.999Z</time></trkpt><trkpt lat="44.83051999521897" lon="7.251303177268982"><ele>734.5</ele><time>2026-04-25T10:02:54.999Z</time></trkpt><trkpt lat="44.83039033819388" lon="7.25132561379122"><ele>733.0</ele><time>2026-04-25T10:02:55.999Z</time></trkpt><trkpt lat="44.83021827777722" lon="7.251385075864914"><ele>730.0</ele><time>2026-04-25T10:02:56.999Z</time></trkpt><trkpt lat="44.830114723589695" lon="7.251439038683506"><ele>727.0</ele><time>2026-04-25T10:02:57.999Z</time></trkpt><trkpt lat="44.8300235100931" lon="7.251488530931534"><ele>724.0</ele><time>2026-04-25T10:02:58.999Z</time></trkpt><trkpt lat="44.8299450685802" lon="7.251526128443576"><ele>721.0</ele><time>2026-04-25T10:02:59.999Z</time></trkpt><trkpt lat="44.829794078973954" lon="7.251596982358213"><ele>717.75</ele><time>2026-04-25T10:03:01.999Z</time></trkpt><trkpt lat="44.82965168799538" lon="7.25169520649945"><ele>714.5</ele><time>2026-04-25T10:03:02.999Z</time></trkpt><trkpt lat="44.82954748532804" lon="7.2518075878977255"><ele>711.25</ele><time>2026-04-25T10:03:03.999Z</time></trkpt><trkpt lat="44.82949355688939" lon="7.251871686973551"><ele>708.0</ele><time>2026-04-25T10:03:04.999Z</time></trkpt><trkpt lat="44.82936324395183" lon="7.252102476344683"><ele>708.0</ele><time>2026-04-25T10:03:05.999Z</time></trkpt><trkpt lat="44.82932621764677" lon="7.252181820832803"><ele>708.0</ele><time>2026-04-25T10:03:06.999Z</time></trkpt><trkpt lat="44.82933133231215" lon="7.252277221818528"><ele>708.0</ele><time>2026-04-25T10:03:09.999Z</time></trkpt><trkpt lat="44.829361912767354" lon="7.252671992006889"><ele>708.0</ele><time>2026-04-25T10:03:27.998Z</time></trkpt><trkpt lat="44.829345435268436" lon="7.252568895293576"><ele>705.8571428571429</ele><time>2026-04-25T10:03:32.998Z</time></trkpt><trkpt lat="44.829292933674346" lon="7.252486229941134"><ele>703.7142857142857</ele><time>2026-04-25T10:03:40.998Z</time></trkpt><trkpt lat="44.8292613022445" lon="7.2523894538008395"><ele>701.5714285714286</ele><time>2026-04-25T10:03:49Z</time></trkpt><trkpt lat="44.82924374601117" lon="7.252478283840272"><ele>699.4285714285714</ele><time>2026-04-25T10:04:07Z</time></trkpt><trkpt lat="44.829191896661996" lon="7.252561205942329"><ele>697.2857142857142</ele><time>2026-04-25T10:04:15Z</time></trkpt><trkpt lat="44.82914391677083" lon="7.252623502601298"><ele>695.1428571428571</ele><time>2026-04-25T10:04:21Z</time></trkpt><trkpt lat="44.82915611166295" lon="7.252711557477951"><ele>693.0</ele><time>2026-04-25T10:04:32Z</time></trkpt><trkpt lat="44.82915713581748" lon="7.252621191475135"><ele>693.0</ele><time>2026-04-25T10:05:04.999Z</time></trkpt><trkpt lat="44.82920499480015" lon="7.252559332958794"><ele>693.0</ele><time>2026-04-25T10:05:12.999Z</time></trkpt><trkpt lat="44.8292185616369" lon="7.2524665706642155"><ele>693.0</ele><time>2026-04-25T10:05:19.998Z</time></trkpt><trkpt lat="44.829198318419145" lon="7.252378703178667"><ele>693.0</ele><time>2026-04-25T10:05:36.998Z</time></trkpt><trkpt lat="44.829095800032995" lon="7.252281294691431"><ele>693.0</ele><time>2026-04-25T10:05:44.998Z</time></trkpt><trkpt lat="44.829026161218074" lon="7.252194292190585"><ele>693.0</ele><time>2026-04-25T10:05:45.998Z</time></trkpt><trkpt lat="44.828983733645764" lon="7.252099077810331"><ele>695.0</ele><time>2026-04-25T10:05:46.998Z</time></trkpt><trkpt lat="44.82896636932401" lon="7.251972539323279"><ele>697.0</ele><time>2026-04-25T10:05:47.998Z</time></trkpt><trkpt lat="44.82895303891157" lon="7.251824878792609"><ele>699.0</ele><time>2026-04-25T10:05:49Z</time></trkpt><trkpt lat="44.82892732643092" lon="7.251673398370099"><ele>701.0</ele><time>2026-04-25T10:05:50Z</time></trkpt><trkpt lat="44.82889265119893" lon="7.2515349570275065"><ele>703.0</ele><time>2026-04-25T10:05:51Z</time></trkpt><trkpt lat="44.8288401002713" lon="7.251419233931956"><ele>703.0</ele><time>2026-04-25T10:05:52Z</time></trkpt><trkpt lat="44.82879119607489" lon="7.251319916557498"><ele>703.0</ele><time>2026-04-25T10:05:53Z</time></trkpt><trkpt lat="44.82875930228398" lon="7.251214798699648"><ele>703.0</ele><time>2026-04-25T10:05:54Z</time></trkpt><trkpt lat="44.82876215450587" lon="7.251098055108944"><ele>703.0</ele><time>2026-04-25T10:05:55Z</time></trkpt><trkpt lat="44.8287808500579" lon="7.250988502938673"><ele>703.0</ele><time>2026-04-25T10:05:56Z</time></trkpt><trkpt lat="44.82880785061893" lon="7.250880825892997"><ele>703.0</ele><time>2026-04-25T10:05:57Z</time></trkpt><trkpt lat="44.82883209685313" lon="7.2507718921066395"><ele>703.0</ele><time>2026-04-25T10:05:58Z</time></trkpt><trkpt lat="44.82886390261709" lon="7.250657554100626"><ele>703.0</ele><time>2026-04-25T10:05:59Z</time></trkpt><trkpt lat="44.8289149605159" lon="7.2505498855666115"><ele>703.0</ele><time>2026-04-25T10:06:00Z</time></trkpt><trkpt lat="44.82899626859794" lon="7.250469053534431"><ele>703.0</ele><time>2026-04-25T10:06:01Z</time></trkpt><trkpt lat="44.82909666011355" lon="7.250430911323122"><ele>703.0</ele><time>2026-04-25T10:06:02Z</time></trkpt><trkpt lat="44.82918926520872" lon="7.250391390800439"><ele>700.8333333333334</ele><time>2026-04-25T10:06:03Z</time></trkpt><trkpt lat="44.82924671556584" lon="7.250331506411624"><ele>698.6666666666667</ele><time>2026-04-25T10:06:04Z</time></trkpt><trkpt lat="44.82926615471213" lon="7.2502405525681715"><ele>696.5</ele><time>2026-04-25T10:06:05Z</time></trkpt><trkpt lat="44.82925726918964" lon="7.2501480934225"><ele>694.3333333333334</ele><time>2026-04-25T10:06:06Z</time></trkpt><trkpt lat="44.829222699640326" lon="7.250042440517748"><ele>692.1666666666666</ele><time>2026-04-25T10:06:07Z</time></trkpt><trkpt lat="44.82917083938032" lon="7.249926953926463"><ele>690.0</ele><time>2026-04-25T10:06:08Z</time></trkpt><trkpt lat="44.8291214265559" lon="7.249836970903413"><ele>688.0</ele><time>2026-04-25T10:06:09Z</time></trkpt><trkpt lat="44.829068679525925" lon="7.249778978759657"><ele>686.0</ele><time>2026-04-25T10:06:10Z</time></trkpt><trkpt lat="44.82899266722309" lon="7.249736106576092"><ele>684.0</ele><time>2026-04-25T10:06:11Z</time></trkpt><trkpt lat="44.82891272035338" lon="7.24970974798283"><ele>682.0</ele><time>2026-04-25T10:06:12Z</time></trkpt><trkpt lat="44.8288333446466" lon="7.2496722868110774"><ele>680.0</ele><time>2026-04-25T10:06:13Z</time></trkpt><trkpt lat="44.828781043962124" lon="7.249599012909937"><ele>678.0</ele><time>2026-04-25T10:06:14Z</time></trkpt><trkpt lat="44.828745157146464" lon="7.249494047179261"><ele>678.0</ele><time>2026-04-25T10:06:15Z</time></trkpt><trkpt lat="44.828736661976464" lon="7.249356793900163"><ele>678.0</ele><time>2026-04-25T10:06:16Z</time></trkpt><trkpt lat="44.82875022357001" lon="7.249240287318225"><ele>678.0</ele><time>2026-04-25T10:06:17Z</time></trkpt><trkpt lat="44.82879135978932" lon="7.249152223475762"><ele>678.0</ele><time>2026-04-25T10:06:18Z</time></trkpt><trkpt lat="44.82885533941409" lon="7.249084098821886"><ele>678.0</ele><time>2026-04-25T10:06:19Z</time></trkpt><trkpt lat="44.82895787086294" lon="7.249045263488787"><ele>678.0</ele><time>2026-04-25T10:06:20Z</time></trkpt><trkpt lat="44.829049877488956" lon="7.248980651038414"><ele>676.2</ele><time>2026-04-25T10:06:21Z</time></trkpt><trkpt lat="44.82910882895689" lon="7.248872439593731"><ele>674.4</ele><time>2026-04-25T10:06:22Z</time></trkpt><trkpt lat="44.82914067856737" lon="7.248717859435147"><ele>672.6</ele><time>2026-04-25T10:06:23Z</time></trkpt><trkpt lat="44.82917780508436" lon="7.248612593244803"><ele>670.8000000000001</ele><time>2026-04-25T10:06:24Z</time></trkpt><trkpt lat="44.8292450941498" lon="7.24856605643981"><ele>669.0</ele><time>2026-04-25T10:06:25Z</time></trkpt><trkpt lat="44.829325974037666" lon="7.24856054171956"><ele>669.0</ele><time>2026-04-25T10:06:26Z</time></trkpt><trkpt lat="44.82938592066288" lon="7.248513812950356"><ele>669.0</ele><time>2026-04-25T10:06:27Z</time></trkpt><trkpt lat="44.82943636707351" lon="7.248449630964377"><ele>669.0</ele><time>2026-04-25T10:06:28Z</time></trkpt><trkpt lat="44.82943254348825" lon="7.248322763638825"><ele>669.0</ele><time>2026-04-25T10:06:29Z</time></trkpt><trkpt lat="44.8293632138817" lon="7.248227527436583"><ele>669.0</ele><time>2026-04-25T10:06:30Z</time></trkpt><trkpt lat="44.82929841402048" lon="7.248133837432432"><ele>669.0</ele><time>2026-04-25T10:06:31Z</time></trkpt><trkpt lat="44.82922159094445" lon="7.2480276158963735"><ele>668.6666666666666</ele><time>2026-04-25T10:06:32Z</time></trkpt><trkpt lat="44.8291655773647" lon="7.247912619524092"><ele>668.3333333333334</ele><time>2026-04-25T10:06:33Z</time></trkpt><trkpt lat="44.82911208331722" lon="7.247816549887597"><ele>668.0</ele><time>2026-04-25T10:06:34Z</time></trkpt><trkpt lat="44.82907594459625" lon="7.247737547378077"><ele>667.6666666666667</ele><time>2026-04-25T10:06:35Z</time></trkpt><trkpt lat="44.82908360113491" lon="7.2476178383081855"><ele>667.3333333333334</ele><time>2026-04-25T10:06:35.999Z</time></trkpt><trkpt lat="44.82908376342466" lon="7.247486076102393"><ele>667.0</ele><time>2026-04-25T10:06:36.999Z</time></trkpt><trkpt lat="44.82908326071903" lon="7.24730510513326"><ele>665.75</ele><time>2026-04-25T10:06:37.999Z</time></trkpt><trkpt lat="44.829085527534076" lon="7.247117833693052"><ele>664.5</ele><time>2026-04-25T10:06:38.999Z</time></trkpt><trkpt lat="44.82909062054391" lon="7.246936542437512"><ele>663.25</ele><time>2026-04-25T10:06:39.999Z</time></trkpt><trkpt lat="44.82907908955654" lon="7.2467488583019115"><ele>662.0</ele><time>2026-04-25T10:06:40.999Z</time></trkpt><trkpt lat="44.82908550309663" lon="7.2465606284713475"><ele>661.0</ele><time>2026-04-25T10:06:41.999Z</time></trkpt><trkpt lat="44.82909567713137" lon="7.246365994706139"><ele>660.0</ele><time>2026-04-25T10:06:42.999Z</time></trkpt><trkpt lat="44.829099569214" lon="7.246172346504906"><ele>659.0</ele><time>2026-04-25T10:06:43.999Z</time></trkpt><trkpt lat="44.82910321463073" lon="7.245982396622525"><ele>658.0</ele><time>2026-04-25T10:06:44.999Z</time></trkpt><trkpt lat="44.829056677856656" lon="7.245813485225469"><ele>658.0</ele><time>2026-04-25T10:06:45.999Z</time></trkpt><trkpt lat="44.829032787060946" lon="7.245646749723878"><ele>658.0</ele><time>2026-04-25T10:06:46.999Z</time></trkpt><trkpt lat="44.82902361509984" lon="7.245508535104836"><ele>658.0</ele><time>2026-04-25T10:06:47.999Z</time></trkpt><trkpt lat="44.82903911164364" lon="7.24538665230597"><ele>658.0</ele><time>2026-04-25T10:06:48.999Z</time></trkpt><trkpt lat="44.82910398625703" lon="7.245275416695665"><ele>658.0</ele><time>2026-04-25T10:06:49.999Z</time></trkpt><trkpt lat="44.829182384605836" lon="7.245155330199891"><ele>656.0</ele><time>2026-04-25T10:06:50.999Z</time></trkpt><trkpt lat="44.829267673804615" lon="7.245014041853269"><ele>654.0</ele><time>2026-04-25T10:06:51.999Z</time></trkpt><trkpt lat="44.829367212776624" lon="7.244896597148898"><ele>652.0</ele><time>2026-04-25T10:06:52.999Z</time></trkpt><trkpt lat="44.82947824765881" lon="7.244818162923044"><ele>650.0</ele><time>2026-04-25T10:06:53.999Z</time></trkpt><trkpt lat="44.829591265194516" lon="7.24474829594247"><ele>648.0</ele><time>2026-04-25T10:06:54.999Z</time></trkpt><trkpt lat="44.829706014341035" lon="7.244685473965013"><ele>646.0</ele><time>2026-04-25T10:06:55.999Z</time></trkpt><trkpt lat="44.829800688352385" lon="7.2446301744725385"><ele>644.0</ele><time>2026-04-25T10:06:56.999Z</time></trkpt><trkpt lat="44.82989233449692" lon="7.244608813210314"><ele>642.0</ele><time>2026-04-25T10:06:57.999Z</time></trkpt><trkpt lat="44.82998302074183" lon="7.244594964893554"><ele>640.0</ele><time>2026-04-25T10:06:58.999Z</time></trkpt><trkpt lat="44.830074486521255" lon="7.244576390882107"><ele>645.4</ele><time>2026-04-25T10:06:59.999Z</time></trkpt><trkpt lat="44.830152039148864" lon="7.244615990858072"><ele>650.8</ele><time>2026-04-25T10:07:00.999Z</time></trkpt><trkpt lat="44.830239334098124" lon="7.244660697173109"><ele>656.2</ele><time>2026-04-25T10:07:01.999Z</time></trkpt><trkpt lat="44.83029965375963" lon="7.2446327919878355"><ele>661.6</ele><time>2026-04-25T10:07:02.999Z</time></trkpt><trkpt lat="44.83034478296604" lon="7.244530241259295"><ele>667.0</ele><time>2026-04-25T10:07:03.999Z</time></trkpt><trkpt lat="44.83028041466454" lon="7.244354045502735"><ele>667.0</ele><time>2026-04-25T10:07:04.999Z</time></trkpt><trkpt lat="44.830220450956084" lon="7.244246084018067"><ele>667.0</ele><time>2026-04-25T10:07:05.999Z</time></trkpt><trkpt lat="44.83014253559849" lon="7.244119939493361"><ele>667.0</ele><time>2026-04-25T10:07:06.999Z</time></trkpt><trkpt lat="44.83007620691809" lon="7.2439942676353155"><ele>667.0</ele><time>2026-04-25T10:07:07.999Z</time></trkpt><trkpt lat="44.830034894394" lon="7.243871664370916"><ele>667.0</ele><time>2026-04-25T10:07:08.999Z</time></trkpt><trkpt lat="44.829998720476695" lon="7.243750081409578"><ele>661.6666666666667</ele><time>2026-04-25T10:07:09.999Z</time></trkpt><trkpt lat="44.82996721958049" lon="7.243614869708934"><ele>656.3333333333334</ele><time>2026-04-25T10:07:10.999Z</time></trkpt><trkpt lat="44.829943564027" lon="7.243501938245696"><ele>651.0</ele><time>2026-04-25T10:07:11.999Z</time></trkpt><trkpt lat="44.82992557908643" lon="7.243402352031803"><ele>645.6666666666666</ele><time>2026-04-25T10:07:12.999Z</time></trkpt><trkpt lat="44.82991658040548" lon="7.243237578903174"><ele>640.3333333333333</ele><time>2026-04-25T10:07:14.999Z</time></trkpt><trkpt lat="44.829918440679826" lon="7.243137069670891"><ele>635.0</ele><time>2026-04-25T10:07:15.999Z</time></trkpt><trkpt lat="44.82998429485197" lon="7.243067857225912"><ele>634.3333333333333</ele><time>2026-04-25T10:07:16.999Z</time></trkpt><trkpt lat="44.83003675755302" lon="7.243016079271084"><ele>633.6666666666666</ele><time>2026-04-25T10:07:17.999Z</time></trkpt><trkpt lat="44.830118477148396" lon="7.242968545387018"><ele>633.0</ele><time>2026-04-25T10:07:18.999Z</time></trkpt><trkpt lat="44.83019686558375" lon="7.2428845791451115"><ele>632.3333333333334</ele><time>2026-04-25T10:07:19.999Z</time></trkpt><trkpt lat="44.830277875171475" lon="7.24280882667001"><ele>631.6666666666667</ele><time>2026-04-25T10:07:20.999Z</time></trkpt><trkpt lat="44.83034435988986" lon="7.242707899725977"><ele>631.0</ele><time>2026-04-25T10:07:21.998Z</time></trkpt><trkpt lat="44.830392189211146" lon="7.242614176079296"><ele>635.8</ele><time>2026-04-25T10:07:22.998Z</time></trkpt><trkpt lat="44.830444707290255" lon="7.242555731776069"><ele>640.6</ele><time>2026-04-25T10:07:23.998Z</time></trkpt><trkpt lat="44.83044567767234" lon="7.242368798506002"><ele>645.4</ele><time>2026-04-25T10:07:25.998Z</time></trkpt><trkpt lat="44.83035047386117" lon="7.242288051266389"><ele>650.2</ele><time>2026-04-25T10:07:26.998Z</time></trkpt><trkpt lat="44.830258655829766" lon="7.242239802401899"><ele>655.0</ele><time>2026-04-25T10:07:27.998Z</time></trkpt><trkpt lat="44.83015426099144" lon="7.24223678846875"><ele>650.2</ele><time>2026-04-25T10:07:28.998Z</time></trkpt><trkpt lat="44.83004224169531" lon="7.242213201046734"><ele>645.4</ele><time>2026-04-25T10:07:29.998Z</time></trkpt><trkpt lat="44.82994031972891" lon="7.242231656487864"><ele>640.6</ele><time>2026-04-25T10:07:30.998Z</time></trkpt><trkpt lat="44.829842295754176" lon="7.242231932554972"><ele>635.8</ele><time>2026-04-25T10:07:31.998Z</time></trkpt><trkpt lat="44.829747648255534" lon="7.24218117162037"><ele>631.0</ele><time>2026-04-25T10:07:32.998Z</time></trkpt><trkpt lat="44.82965669601386" lon="7.242120570052572"><ele>631.0</ele><time>2026-04-25T10:07:33.998Z</time></trkpt><trkpt lat="44.829589133704204" lon="7.24205529089023"><ele>631.0</ele><time>2026-04-25T10:07:34.998Z</time></trkpt><trkpt lat="44.82955190074467" lon="7.241929090845902"><ele>631.0</ele><time>2026-04-25T10:07:36.998Z</time></trkpt><trkpt lat="44.82958157796968" lon="7.241812366851447"><ele>631.0</ele><time>2026-04-25T10:07:37.998Z</time></trkpt><trkpt lat="44.82959978574219" lon="7.24168839047766"><ele>631.0</ele><time>2026-04-25T10:07:38.998Z</time></trkpt><trkpt lat="44.82960194299201" lon="7.241556428496222"><ele>630.3333333333334</ele><time>2026-04-25T10:07:39.998Z</time></trkpt><trkpt lat="44.82961278144193" lon="7.2414367651237095"><ele>629.6666666666667</ele><time>2026-04-25T10:07:40.998Z</time></trkpt><trkpt lat="44.8296414566911" lon="7.241323548179775"><ele>629.0</ele><time>2026-04-25T10:07:41.998Z</time></trkpt><trkpt lat="44.82968893741214" lon="7.241218833404048"><ele>628.3333333333334</ele><time>2026-04-25T10:07:42.998Z</time></trkpt><trkpt lat="44.829741858028804" lon="7.241121895203677"><ele>627.6666666666666</ele><time>2026-04-25T10:07:43.998Z</time></trkpt><trkpt lat="44.82978581237999" lon="7.241021617382027"><ele>627.0</ele><time>2026-04-25T10:07:44.998Z</time></trkpt><trkpt lat="44.829806920318894" lon="7.240926125977815"><ele>627.0</ele><time>2026-04-25T10:07:45.998Z</time></trkpt><trkpt lat="44.82975627565148" lon="7.240830039470121"><ele>627.0</ele><time>2026-04-25T10:07:46.998Z</time></trkpt><trkpt lat="44.829693652102186" lon="7.240768432436487"><ele>627.0</ele><time>2026-04-25T10:07:47.998Z</time></trkpt><trkpt lat="44.829583537386476" lon="7.2407794191422035"><ele>627.0</ele><time>2026-04-25T10:07:48.998Z</time></trkpt><trkpt lat="44.82949723696783" lon="7.240740384282573"><ele>627.0</ele><time>2026-04-25T10:07:49.998Z</time></trkpt><trkpt lat="44.829415353958616" lon="7.240717289064988"><ele>627.0</ele><time>2026-04-25T10:07:50.998Z</time></trkpt><trkpt lat="44.8293316930492" lon="7.240695145596957"><ele>623.0</ele><time>2026-04-25T10:07:51.998Z</time></trkpt><trkpt lat="44.82924507133263" lon="7.240678781568026"><ele>619.0</ele><time>2026-04-25T10:07:52.998Z</time></trkpt><trkpt lat="44.82914818752308" lon="7.240666354735905"><ele>615.0</ele><time>2026-04-25T10:07:53.998Z</time></trkpt><trkpt lat="44.82903781190224" lon="7.240684667376485"><ele>611.0</ele><time>2026-04-25T10:07:55Z</time></trkpt><trkpt lat="44.8289247609476" lon="7.240683207701936"><ele>607.0</ele><time>2026-04-25T10:07:56Z</time></trkpt><trkpt lat="44.82881538637161" lon="7.2406641169755055"><ele>607.0</ele><time>2026-04-25T10:07:57Z</time></trkpt><trkpt lat="44.82871318228642" lon="7.240665288391493"><ele>607.0</ele><time>2026-04-25T10:07:58Z</time></trkpt><trkpt lat="44.82862839053818" lon="7.240663875195711"><ele>607.0</ele><time>2026-04-25T10:07:59Z</time></trkpt><trkpt lat="44.82855767953495" lon="7.240662696669592"><ele>607.0</ele><time>2026-04-25T10:08:00Z</time></trkpt><trkpt lat="44.8284797577738" lon="7.240661703897852"><ele>607.0</ele><time>2026-04-25T10:08:01Z</time></trkpt><trkpt lat="44.82838940156091" lon="7.240663194141628"><ele>607.0</ele><time>2026-04-25T10:08:02Z</time></trkpt><trkpt lat="44.828298847121275" lon="7.24069770749522"><ele>604.5</ele><time>2026-04-25T10:08:03Z</time></trkpt><trkpt lat="44.82819256594088" lon="7.24070509250192"><ele>602.0</ele><time>2026-04-25T10:08:04Z</time></trkpt><trkpt lat="44.828099621862805" lon="7.240812485251817"><ele>599.5</ele><time>2026-04-25T10:08:05Z</time></trkpt><trkpt lat="44.82800551134503" lon="7.240909284329398"><ele>597.0</ele><time>2026-04-25T10:08:06Z</time></trkpt><trkpt lat="44.82791494923537" lon="7.241020200038708"><ele>597.0</ele><time>2026-04-25T10:08:07Z</time></trkpt><trkpt lat="44.827807663944526" lon="7.24112855704684"><ele>597.0</ele><time>2026-04-25T10:08:08Z</time></trkpt><trkpt lat="44.8276992007547" lon="7.241233375658501"><ele>597.0</ele><time>2026-04-25T10:08:09Z</time></trkpt><trkpt lat="44.82759601739856" lon="7.241333568822716"><ele>597.0</ele><time>2026-04-25T10:08:10Z</time></trkpt><trkpt lat="44.827499035439786" lon="7.241426231192637"><ele>593.2</ele><time>2026-04-25T10:08:11Z</time></trkpt><trkpt lat="44.82738641426368" lon="7.241484971830778"><ele>589.4000000000001</ele><time>2026-04-25T10:08:12Z</time></trkpt><trkpt lat="44.827279052619325" lon="7.241556465912198"><ele>585.5999999999999</ele><time>2026-04-25T10:08:13Z</time></trkpt><trkpt lat="44.827182047074054" lon="7.2416199026652714"><ele>581.8</ele><time>2026-04-25T10:08:14Z</time></trkpt><trkpt lat="44.82708589208457" lon="7.241646607936146"><ele>578.0</ele><time>2026-04-25T10:08:15Z</time></trkpt><trkpt lat="44.82699885318125" lon="7.241664570202377"><ele>578.0</ele><time>2026-04-25T10:08:16Z</time></trkpt><trkpt lat="44.82691801630845" lon="7.2416886535269915"><ele>578.0</ele><time>2026-04-25T10:08:17Z</time></trkpt><trkpt lat="44.82683680722938" lon="7.2416656244038355"><ele>578.0</ele><time>2026-04-25T10:08:18Z</time></trkpt><trkpt lat="44.82674811216567" lon="7.241637341624723"><ele>578.0</ele><time>2026-04-25T10:08:19Z</time></trkpt><trkpt lat="44.82666266318393" lon="7.241608277336708"><ele>578.0</ele><time>2026-04-25T10:08:20Z</time></trkpt><trkpt lat="44.826582096265206" lon="7.241579084449211"><ele>578.0</ele><time>2026-04-25T10:08:21Z</time></trkpt><trkpt lat="44.826515663383844" lon="7.241541136159161"><ele>577.6666666666666</ele><time>2026-04-25T10:08:22Z</time></trkpt><trkpt lat="44.82644249695168" lon="7.241476334518507"><ele>577.3333333333333</ele><time>2026-04-25T10:08:23Z</time></trkpt><trkpt lat="44.826372664259395" lon="7.241399047907739"><ele>577.0</ele><time>2026-04-25T10:08:24Z</time></trkpt><trkpt lat="44.8263265109601" lon="7.241310119686029"><ele>576.6666666666666</ele><time>2026-04-25T10:08:25Z</time></trkpt><trkpt lat="44.82629138441645" lon="7.241206992374233"><ele>576.3333333333334</ele><time>2026-04-25T10:08:26Z</time></trkpt><trkpt lat="44.826263061866484" lon="7.2410844961121255"><ele>576.0</ele><time>2026-04-25T10:08:27Z</time></trkpt><trkpt lat="44.826260549467754" lon="7.240964809335913"><ele>576.0</ele><time>2026-04-25T10:08:28Z</time></trkpt><trkpt lat="44.82625091681609" lon="7.240833092997947"><ele>576.0</ele><time>2026-04-25T10:08:29Z</time></trkpt><trkpt lat="44.82627192704466" lon="7.240684269764996"><ele>576.0</ele><time>2026-04-25T10:08:30Z</time></trkpt><trkpt lat="44.82629116154602" lon="7.240534637434878"><ele>576.0</ele><time>2026-04-25T10:08:31Z</time></trkpt><trkpt lat="44.826310845453946" lon="7.240366812793144"><ele>576.0</ele><time>2026-04-25T10:08:32Z</time></trkpt><trkpt lat="44.82633544077577" lon="7.240215648126244"><ele>575.8</ele><time>2026-04-25T10:08:33Z</time></trkpt><trkpt lat="44.8263740362433" lon="7.240069417638754"><ele>575.6</ele><time>2026-04-25T10:08:34Z</time></trkpt><trkpt lat="44.826417361982934" lon="7.23992068217371"><ele>575.4</ele><time>2026-04-25T10:08:35Z</time></trkpt><trkpt lat="44.826460992371175" lon="7.239786587159946"><ele>575.2</ele><time>2026-04-25T10:08:36Z</time></trkpt><trkpt lat="44.82650780178976" lon="7.2396460901009405"><ele>575.0</ele><time>2026-04-25T10:08:37Z</time></trkpt><trkpt lat="44.82656936581043" lon="7.239487031325327"><ele>575.0</ele><time>2026-04-25T10:08:38Z</time></trkpt><trkpt lat="44.82663154106769" lon="7.239343533646761"><ele>575.0</ele><time>2026-04-25T10:08:39Z</time></trkpt><trkpt lat="44.82668784482134" lon="7.239220281587991"><ele>575.0</ele><time>2026-04-25T10:08:39.999Z</time></trkpt><trkpt lat="44.82673989534343" lon="7.239106042603965"><ele>575.0</ele><time>2026-04-25T10:08:40.999Z</time></trkpt><trkpt lat="44.8267938704424" lon="7.239006706325746"><ele>575.0</ele><time>2026-04-25T10:08:41.999Z</time></trkpt><trkpt lat="44.82686432788744" lon="7.238945186531559"><ele>577.0</ele><time>2026-04-25T10:08:42.999Z</time></trkpt><trkpt lat="44.826947951674335" lon="7.238927504673374"><ele>579.0</ele><time>2026-04-25T10:08:43.999Z</time></trkpt><trkpt lat="44.82703887313451" lon="7.2389843033120576"><ele>581.0</ele><time>2026-04-25T10:08:44.999Z</time></trkpt><trkpt lat="44.827141027518145" lon="7.239015411959052"><ele>583.0</ele><time>2026-04-25T10:08:45.999Z</time></trkpt><trkpt lat="44.82723008039539" lon="7.239050698191859"><ele>585.0</ele><time>2026-04-25T10:08:46.999Z</time></trkpt><trkpt lat="44.827318886919194" lon="7.2390854831249705"><ele>585.2</ele><time>2026-04-25T10:08:47.999Z</time></trkpt><trkpt lat="44.82741297965246" lon="7.239131802942163"><ele>585.4</ele><time>2026-04-25T10:08:48.999Z</time></trkpt><trkpt lat="44.827508397734604" lon="7.239172448128544"><ele>585.6</ele><time>2026-04-25T10:08:49.999Z</time></trkpt><trkpt lat="44.82759716152374" lon="7.239200980563629"><ele>585.8</ele><time>2026-04-25T10:08:50.999Z</time></trkpt><trkpt lat="44.827678234928015" lon="7.239232821618085"><ele>586.0</ele><time>2026-04-25T10:08:51.999Z</time></trkpt><trkpt lat="44.82775686301763" lon="7.2392452209929985"><ele>588.5</ele><time>2026-04-25T10:08:52.999Z</time></trkpt><trkpt lat="44.82783654586938" lon="7.239223127843103"><ele>591.0</ele><time>2026-04-25T10:08:53.999Z</time></trkpt><trkpt lat="44.827902989237344" lon="7.239151448304638"><ele>593.5</ele><time>2026-04-25T10:08:54.999Z</time></trkpt><trkpt lat="44.82795163049886" lon="7.239058712846815"><ele>596.0</ele><time>2026-04-25T10:08:55.999Z</time></trkpt><trkpt lat="44.827974988463616" lon="7.238938512258407"><ele>598.5</ele><time>2026-04-25T10:08:56.999Z</time></trkpt><trkpt lat="44.827928247760646" lon="7.238806319824925"><ele>601.0</ele><time>2026-04-25T10:08:57.999Z</time></trkpt><trkpt lat="44.82784364703024" lon="7.238684670291141"><ele>602.4</ele><time>2026-04-25T10:08:58.999Z</time></trkpt><trkpt lat="44.827753135756815" lon="7.238584332436618"><ele>603.8</ele><time>2026-04-25T10:08:59.999Z</time></trkpt><trkpt lat="44.827671969684616" lon="7.238492399663155"><ele>605.1999999999999</ele><time>2026-04-25T10:09:00.999Z</time></trkpt><trkpt lat="44.82759170335955" lon="7.238384504595174"><ele>606.6</ele><time>2026-04-25T10:09:01.999Z</time></trkpt><trkpt lat="44.82751863673762" lon="7.238284296324855"><ele>608.0</ele><time>2026-04-25T10:09:02.999Z</time></trkpt><trkpt lat="44.827450583307105" lon="7.2381838457378445"><ele>604.8</ele><time>2026-04-25T10:09:03.999Z</time></trkpt><trkpt lat="44.82739541261453" lon="7.238058659453061"><ele>601.5999999999999</ele><time>2026-04-25T10:09:04.999Z</time></trkpt><trkpt lat="44.8273685031708" lon="7.237920472141287"><ele>598.4000000000001</ele><time>2026-04-25T10:09:05.999Z</time></trkpt><trkpt lat="44.82736349649118" lon="7.237764002652143"><ele>595.2</ele><time>2026-04-25T10:09:06.999Z</time></trkpt><trkpt lat="44.82736980289104" lon="7.237617087447102"><ele>592.0</ele><time>2026-04-25T10:09:07.999Z</time></trkpt><trkpt lat="44.827383476902526" lon="7.237472021647759"><ele>592.0</ele><time>2026-04-25T10:09:08.999Z</time></trkpt><trkpt lat="44.82739810626745" lon="7.237303175834143"><ele>592.0</ele><time>2026-04-25T10:09:09.999Z</time></trkpt><trkpt lat="44.8274130705298" lon="7.237119880929337"><ele>592.0</ele><time>2026-04-25T10:09:10.999Z</time></trkpt><trkpt lat="44.82743017307106" lon="7.236950804819391"><ele>592.0</ele><time>2026-04-25T10:09:11.999Z</time></trkpt><trkpt lat="44.82745388867799" lon="7.236800995609936"><ele>592.0</ele><time>2026-04-25T10:09:12.999Z</time></trkpt><trkpt lat="44.82748949401866" lon="7.236645527913202"><ele>592.0</ele><time>2026-04-25T10:09:13.999Z</time></trkpt><trkpt lat="44.82754100569975" lon="7.236481708350525"><ele>592.0</ele><time>2026-04-25T10:09:14.999Z</time></trkpt><trkpt lat="44.827602465876744" lon="7.236346033641291"><ele>592.0</ele><time>2026-04-25T10:09:15.999Z</time></trkpt><trkpt lat="44.827675934728035" lon="7.236225545837798"><ele>593.0</ele><time>2026-04-25T10:09:16.999Z</time></trkpt><trkpt lat="44.82775232620361" lon="7.236103027404355"><ele>594.0</ele><time>2026-04-25T10:09:17.999Z</time></trkpt><trkpt lat="44.8278199406703" lon="7.235988635199042"><ele>595.0</ele><time>2026-04-25T10:09:18.999Z</time></trkpt><trkpt lat="44.82788975847916" lon="7.2358688757103"><ele>596.0</ele><time>2026-04-25T10:09:19.999Z</time></trkpt><trkpt lat="44.82796078926236" lon="7.235742235491495"><ele>597.0</ele><time>2026-04-25T10:09:20.999Z</time></trkpt><trkpt lat="44.828022064995714" lon="7.235623328398789"><ele>597.0</ele><time>2026-04-25T10:09:21.999Z</time></trkpt><trkpt lat="44.828071958858004" lon="7.235485450446941"><ele>597.0</ele><time>2026-04-25T10:09:22.999Z</time></trkpt><trkpt lat="44.828110386476915" lon="7.235345306732738"><ele>597.0</ele><time>2026-04-25T10:09:23.999Z</time></trkpt><trkpt lat="44.8280790738431" lon="7.2351916770280065"><ele>597.0</ele><time>2026-04-25T10:09:24.999Z</time></trkpt><trkpt lat="44.82799152209828" lon="7.235098747959088"><ele>597.0</ele><time>2026-04-25T10:09:25.999Z</time></trkpt><trkpt lat="44.82790792503065" lon="7.23503799194867"><ele>597.0</ele><time>2026-04-25T10:09:26.998Z</time></trkpt><trkpt lat="44.82783294301302" lon="7.234968321334166"><ele>597.0</ele><time>2026-04-25T10:09:27.998Z</time></trkpt><trkpt lat="44.827793278002325" lon="7.234888656887384"><ele>597.0</ele><time>2026-04-25T10:09:28.998Z</time></trkpt><trkpt lat="44.82777238331141" lon="7.234789625190768"><ele>597.0</ele><time>2026-04-25T10:09:29.998Z</time></trkpt><trkpt lat="44.82778376885705" lon="7.234678306828371"><ele>597.0</ele><time>2026-04-25T10:09:30.998Z</time></trkpt><trkpt lat="44.827819615616605" lon="7.234545195890199"><ele>597.0</ele><time>2026-04-25T10:09:31.998Z</time></trkpt><trkpt lat="44.827847237493636" lon="7.234404630496827"><ele>597.6</ele><time>2026-04-25T10:09:32.998Z</time></trkpt><trkpt lat="44.82786474382417" lon="7.234254714780702"><ele>598.2</ele><time>2026-04-25T10:09:33.998Z</time></trkpt><trkpt lat="44.82788106977259" lon="7.2341156142314595"><ele>598.8</ele><time>2026-04-25T10:09:34.998Z</time></trkpt><trkpt lat="44.82789464615576" lon="7.233990347015439"><ele>599.4</ele><time>2026-04-25T10:09:35.998Z</time></trkpt><trkpt lat="44.827902057502584" lon="7.233871963248838"><ele>600.0</ele><time>2026-04-25T10:09:36.998Z</time></trkpt><trkpt lat="44.82789782061997" lon="7.233775777588728"><ele>600.8</ele><time>2026-04-25T10:09:37.998Z</time></trkpt><trkpt lat="44.82787523512589" lon="7.2336460998135355"><ele>601.6</ele><time>2026-04-25T10:09:39.998Z</time></trkpt><trkpt lat="44.82785532299874" lon="7.2335479350724725"><ele>602.4</ele><time>2026-04-25T10:09:43.998Z</time></trkpt><trkpt lat="44.827831660652116" lon="7.233449896925601"><ele>603.2</ele><time>2026-04-25T10:09:51.998Z</time></trkpt><trkpt lat="44.82770237575476" lon="7.23345720921029"><ele>604.0</ele><time>2026-04-25T10:09:52.998Z</time></trkpt><trkpt lat="44.82764204035531" lon="7.233363538900899"><ele>600.0</ele><time>2026-04-25T10:09:53.998Z</time></trkpt><trkpt lat="44.827597939686825" lon="7.233232162619621"><ele>596.0</ele><time>2026-04-25T10:09:54.998Z</time></trkpt><trkpt lat="44.827517833259854" lon="7.233101324845826"><ele>592.0</ele><time>2026-04-25T10:09:55.998Z</time></trkpt><trkpt lat="44.827397639577725" lon="7.232999205390264"><ele>588.0</ele><time>2026-04-25T10:09:56.998Z</time></trkpt><trkpt lat="44.82725192265216" lon="7.232938313281096"><ele>588.0</ele><time>2026-04-25T10:09:57.998Z</time></trkpt><trkpt lat="44.827115828713595" lon="7.232925773425313"><ele>588.0</ele><time>2026-04-25T10:09:58.998Z</time></trkpt><trkpt lat="44.826975020649236" lon="7.232942664671662"><ele>588.0</ele><time>2026-04-25T10:09:59.998Z</time></trkpt><trkpt lat="44.826836170589544" lon="7.2329584705179455"><ele>588.0</ele><time>2026-04-25T10:10:01Z</time></trkpt><trkpt lat="44.826691839321036" lon="7.232976582296337"><ele>585.75</ele><time>2026-04-25T10:10:02Z</time></trkpt><trkpt lat="44.82654571111209" lon="7.2330182260905"><ele>583.5</ele><time>2026-04-25T10:10:03Z</time></trkpt><trkpt lat="44.826406403644135" lon="7.233083153125694"><ele>581.25</ele><time>2026-04-25T10:10:04Z</time></trkpt><trkpt lat="44.826279193566386" lon="7.233174177868317"><ele>579.0</ele><time>2026-04-25T10:10:05Z</time></trkpt><trkpt lat="44.82616206915756" lon="7.233262383933775"><ele>578.0</ele><time>2026-04-25T10:10:06Z</time></trkpt><trkpt lat="44.82606000531908" lon="7.233345924298868"><ele>577.0</ele><time>2026-04-25T10:10:07Z</time></trkpt><trkpt lat="44.82591712491528" lon="7.233299321073087"><ele>576.0</ele><time>2026-04-25T10:10:08Z</time></trkpt><trkpt lat="44.825788246197774" lon="7.233288115094068"><ele>575.0</ele><time>2026-04-25T10:10:09Z</time></trkpt><trkpt lat="44.8256602494458" lon="7.233218211591588"><ele>574.5</ele><time>2026-04-25T10:10:10Z</time></trkpt><trkpt lat="44.82553894247462" lon="7.233109497610127"><ele>574.0</ele><time>2026-04-25T10:10:11Z</time></trkpt><trkpt lat="44.82545103084268" lon="7.232978725438635"><ele>573.5</ele><time>2026-04-25T10:10:12Z</time></trkpt><trkpt lat="44.825384112750015" lon="7.232835793395765"><ele>573.0</ele><time>2026-04-25T10:10:13Z</time></trkpt><trkpt lat="44.82534189023133" lon="7.232701590756233"><ele>573.0</ele><time>2026-04-25T10:10:14Z</time></trkpt><trkpt lat="44.825311705562925" lon="7.232567646237488"><ele>573.0</ele><time>2026-04-25T10:10:15Z</time></trkpt><trkpt lat="44.82530081001562" lon="7.232411987989251"><ele>573.0</ele><time>2026-04-25T10:10:16Z</time></trkpt><trkpt lat="44.82530946125688" lon="7.2322326268425146"><ele>573.0</ele><time>2026-04-25T10:10:17Z</time></trkpt><trkpt lat="44.82533484791426" lon="7.232035866553639"><ele>572.25</ele><time>2026-04-25T10:10:18Z</time></trkpt><trkpt lat="44.82536905589904" lon="7.231855892264608"><ele>571.5</ele><time>2026-04-25T10:10:19Z</time></trkpt><trkpt lat="44.8254151712201" lon="7.231684054463749"><ele>570.75</ele><time>2026-04-25T10:10:20Z</time></trkpt><trkpt lat="44.825462713119386" lon="7.231510220534083"><ele>570.0</ele><time>2026-04-25T10:10:21Z</time></trkpt><trkpt lat="44.82550675255717" lon="7.2313345116193934"><ele>568.25</ele><time>2026-04-25T10:10:22Z</time></trkpt><trkpt lat="44.825546957663356" lon="7.231149752962316"><ele>566.5</ele><time>2026-04-25T10:10:23Z</time></trkpt><trkpt lat="44.82556919052226" lon="7.23095093639375"><ele>564.75</ele><time>2026-04-25T10:10:24Z</time></trkpt><trkpt lat="44.825554279506676" lon="7.230761891484124"><ele>563.0</ele><time>2026-04-25T10:10:25Z</time></trkpt><trkpt lat="44.825508823371244" lon="7.2306045731598845"><ele>561.0</ele><time>2026-04-25T10:10:26Z</time></trkpt><trkpt lat="44.825430039678054" lon="7.230477011161697"><ele>559.0</ele><time>2026-04-25T10:10:27Z</time></trkpt><trkpt lat="44.825308696219814" lon="7.230389473693323"><ele>557.0</ele><time>2026-04-25T10:10:28Z</time></trkpt><trkpt lat="44.82516606809748" lon="7.23033202506655"><ele>555.0</ele><time>2026-04-25T10:10:29Z</time></trkpt><trkpt lat="44.82501480417201" lon="7.230294605142283"><ele>552.0</ele><time>2026-04-25T10:10:30Z</time></trkpt><trkpt lat="44.82487195315571" lon="7.230246560251046"><ele>549.0</ele><time>2026-04-25T10:10:31Z</time></trkpt><trkpt lat="44.82472361612986" lon="7.230201572309302"><ele>546.0</ele><time>2026-04-25T10:10:32Z</time></trkpt><trkpt lat="44.824577225187426" lon="7.230162995865305"><ele>543.0</ele><time>2026-04-25T10:10:33Z</time></trkpt><trkpt lat="44.8244312562582" lon="7.230124894153964"><ele>541.0</ele><time>2026-04-25T10:10:34Z</time></trkpt><trkpt lat="44.82429242041008" lon="7.230082033178869"><ele>539.0</ele><time>2026-04-25T10:10:35Z</time></trkpt><trkpt lat="44.82416666580746" lon="7.230046097031905"><ele>537.0</ele><time>2026-04-25T10:10:36Z</time></trkpt><trkpt lat="44.824066886695" lon="7.230010889214305"><ele>535.0</ele><time>2026-04-25T10:10:37Z</time></trkpt><trkpt lat="44.823979207005976" lon="7.229963629292077"><ele>535.0</ele><time>2026-04-25T10:10:38Z</time></trkpt><trkpt lat="44.82390504075877" lon="7.229880091252353"><ele>535.0</ele><time>2026-04-25T10:10:39Z</time></trkpt><trkpt lat="44.823868140757284" lon="7.229741072071252"><ele>535.0</ele><time>2026-04-25T10:10:40Z</time></trkpt><trkpt lat="44.82387941379981" lon="7.229578616152424"><ele>535.0</ele><time>2026-04-25T10:10:41Z</time></trkpt><trkpt lat="44.8238532353255" lon="7.229427608713453"><ele>535.0</ele><time>2026-04-25T10:10:42Z</time></trkpt><trkpt lat="44.82383872806498" lon="7.229270269603986"><ele>534.4</ele><time>2026-04-25T10:10:43Z</time></trkpt><trkpt lat="44.823818149093285" lon="7.22911815826214"><ele>533.8</ele><time>2026-04-25T10:10:43.999Z</time></trkpt><trkpt lat="44.82380446479978" lon="7.228958539382669"><ele>533.2</ele><time>2026-04-25T10:10:44.999Z</time></trkpt><trkpt lat="44.82378522431185" lon="7.228807379294811"><ele>532.6</ele><time>2026-04-25T10:10:45.999Z</time></trkpt><trkpt lat="44.823767380899355" lon="7.228670184265547"><ele>532.0</ele><time>2026-04-25T10:10:46.999Z</time></trkpt><trkpt lat="44.82375861106599" lon="7.228530990287382"><ele>531.8000000000001</ele><time>2026-04-25T10:10:47.999Z</time></trkpt><trkpt lat="44.823746970542004" lon="7.2283896008037924"><ele>531.6</ele><time>2026-04-25T10:10:48.999Z</time></trkpt><trkpt lat="44.82373035941211" lon="7.228233060370714"><ele>531.4000000000001</ele><time>2026-04-25T10:10:49.999Z</time></trkpt><trkpt lat="44.82370153776214" lon="7.228075919741727"><ele>531.2</ele><time>2026-04-25T10:10:50.999Z</time></trkpt><trkpt lat="44.82365692017309" lon="7.227931549173222"><ele>531.0</ele><time>2026-04-25T10:10:51.999Z</time></trkpt><trkpt lat="44.823565474458995" lon="7.227826219985993"><ele>530.0</ele><time>2026-04-25T10:10:52.999Z</time></trkpt><trkpt lat="44.823440970392106" lon="7.227769622042332"><ele>529.0</ele><time>2026-04-25T10:10:53.999Z</time></trkpt><trkpt lat="44.823301275442404" lon="7.227753162983284"><ele>528.0</ele><time>2026-04-25T10:10:54.999Z</time></trkpt><trkpt lat="44.82316988799706" lon="7.227741424716747"><ele>527.0</ele><time>2026-04-25T10:10:55.999Z</time></trkpt><trkpt lat="44.82305563334935" lon="7.227720446183381"><ele>527.0</ele><time>2026-04-25T10:10:56.999Z</time></trkpt><trkpt lat="44.82294511209788" lon="7.227697906733647"><ele>527.0</ele><time>2026-04-25T10:10:57.999Z</time></trkpt><trkpt lat="44.82282389359661" lon="7.227674710948933"><ele>527.0</ele><time>2026-04-25T10:10:58.999Z</time></trkpt><trkpt lat="44.82269088233118" lon="7.2276502369420035"><ele>527.0</ele><time>2026-04-25T10:10:59.999Z</time></trkpt><trkpt lat="44.82256149159778" lon="7.227631459979375"><ele>525.75</ele><time>2026-04-25T10:11:00.999Z</time></trkpt><trkpt lat="44.82243756972235" lon="7.2276221989494385"><ele>524.5</ele><time>2026-04-25T10:11:01.999Z</time></trkpt><trkpt lat="44.822316992135185" lon="7.227629580864802"><ele>523.25</ele><time>2026-04-25T10:11:02.999Z</time></trkpt><trkpt lat="44.8221964981802" lon="7.227656771789308"><ele>522.0</ele><time>2026-04-25T10:11:03.999Z</time></trkpt><trkpt lat="44.82207025320158" lon="7.227696041733487"><ele>522.0</ele><time>2026-04-25T10:11:04.999Z</time></trkpt><trkpt lat="44.82195733989675" lon="7.227736871668452"><ele>522.0</ele><time>2026-04-25T10:11:05.999Z</time></trkpt><trkpt lat="44.82186139189663" lon="7.227769661651195"><ele>522.0</ele><time>2026-04-25T10:11:06.999Z</time></trkpt><trkpt lat="44.82177378578765" lon="7.227799311075467"><ele>522.0</ele><time>2026-04-25T10:11:07.999Z</time></trkpt><trkpt lat="44.82168818427004" lon="7.227829276849825"><ele>522.0</ele><time>2026-04-25T10:11:08.999Z</time></trkpt><trkpt lat="44.82159858172862" lon="7.227862024787075"><ele>521.5</ele><time>2026-04-25T10:11:09.999Z</time></trkpt><trkpt lat="44.821509878829566" lon="7.22789785308478"><ele>521.0</ele><time>2026-04-25T10:11:10.999Z</time></trkpt><trkpt lat="44.82142627244591" lon="7.227922617834223"><ele>520.5</ele><time>2026-04-25T10:11:11.999Z</time></trkpt><trkpt lat="44.82135186338789" lon="7.227949292592512"><ele>520.0</ele><time>2026-04-25T10:11:12.999Z</time></trkpt><trkpt lat="44.82128424457479" lon="7.227973898602411"><ele>519.5</ele><time>2026-04-25T10:11:13.999Z</time></trkpt><trkpt lat="44.821218244642765" lon="7.22799756113705"><ele>519.0</ele><time>2026-04-25T10:11:14.999Z</time></trkpt><trkpt lat="44.82109725773346" lon="7.228038738139409"><ele>519.0</ele><time>2026-04-25T10:11:16.999Z</time></trkpt><trkpt lat="44.82102309770614" lon="7.228045429410376"><ele>519.0</ele><time>2026-04-25T10:11:25.999Z</time></trkpt><trkpt lat="44.820954543553974" lon="7.228062144481201"><ele>519.0</ele><time>2026-04-25T10:11:26.999Z</time></trkpt><trkpt lat="44.82087639825913" lon="7.2280710550312035"><ele>519.0</ele><time>2026-04-25T10:11:27.999Z</time></trkpt><trkpt lat="44.82079442017497" lon="7.228048770373677"><ele>519.0</ele><time>2026-04-25T10:11:29.998Z</time></trkpt><trkpt lat="44.82078855125407" lon="7.227945270523524"><ele>519.0</ele><time>2026-04-25T10:11:31.998Z</time></trkpt><trkpt lat="44.82081780593973" lon="7.227848775677665"><ele>518.8</ele><time>2026-04-25T10:11:32.998Z</time></trkpt><trkpt lat="44.820846312736634" lon="7.227689729759525"><ele>518.5999999999999</ele><time>2026-04-25T10:11:34.998Z</time></trkpt><trkpt lat="44.82087415957239" lon="7.227524256604735"><ele>518.4</ele><time>2026-04-25T10:11:36.998Z</time></trkpt><trkpt lat="44.82089021814854" lon="7.227428442281486"><ele>518.1999999999999</ele><time>2026-04-25T10:11:37.998Z</time></trkpt><trkpt lat="44.82090445208817" lon="7.227337309351406"><ele>518.0</ele><time>2026-04-25T10:11:38.998Z</time></trkpt><trkpt lat="44.82092142047076" lon="7.227158106944714"><ele>518.5</ele><time>2026-04-25T10:11:40.998Z</time></trkpt><trkpt lat="44.82091788050216" lon="7.227059462762691"><ele>519.0</ele><time>2026-04-25T10:11:41.998Z</time></trkpt><trkpt lat="44.82089143027013" lon="7.226977839166128"><ele>519.5</ele><time>2026-04-25T10:11:42.998Z</time></trkpt><trkpt lat="44.820826986799744" lon="7.226826944762413"><ele>520.0</ele><time>2026-04-25T10:11:44.998Z</time></trkpt><trkpt lat="44.8207937985329" lon="7.226749295673043"><ele>520.5</ele><time>2026-04-25T10:11:45.998Z</time></trkpt><trkpt lat="44.820746106997746" lon="7.226629532418449"><ele>521.0</ele><time>2026-04-25T10:11:47.998Z</time></trkpt><trkpt lat="44.820667892054466" lon="7.22646553964"><ele>521.2</ele><time>2026-04-25T10:11:49.998Z</time></trkpt><trkpt lat="44.82061520973011" lon="7.22634087563271"><ele>521.4000000000001</ele><time>2026-04-25T10:11:50.998Z</time></trkpt><trkpt lat="44.820564342061" lon="7.226211557773845"><ele>521.6</ele><time>2026-04-25T10:11:51.998Z</time></trkpt><trkpt lat="44.82051596499661" lon="7.226089129823049"><ele>521.8000000000001</ele><time>2026-04-25T10:11:52.998Z</time></trkpt><trkpt lat="44.82046647468325" lon="7.225978500688263"><ele>522.0</ele><time>2026-04-25T10:11:53.998Z</time></trkpt><trkpt lat="44.82042750277686" lon="7.22585952690867"><ele>522.0</ele><time>2026-04-25T10:11:54.998Z</time></trkpt><trkpt lat="44.82037107661277" lon="7.225741778458227"><ele>522.0</ele><time>2026-04-25T10:11:55.998Z</time></trkpt><trkpt lat="44.820318107164184" lon="7.225617709437452"><ele>522.0</ele><time>2026-04-25T10:11:56.998Z</time></trkpt><trkpt lat="44.82025825847104" lon="7.225478893290217"><ele>522.0</ele><time>2026-04-25T10:11:57.998Z</time></trkpt><trkpt lat="44.82019081142022" lon="7.225327334255491"><ele>522.0</ele><time>2026-04-25T10:11:58.998Z</time></trkpt><trkpt lat="44.82012880800007" lon="7.225185865005521"><ele>522.0</ele><time>2026-04-25T10:11:59.998Z</time></trkpt><trkpt lat="44.82006685813897" lon="7.225051234157487"><ele>522.0</ele><time>2026-04-25T10:12:00.998Z</time></trkpt><trkpt lat="44.82000142565295" lon="7.22491346443244"><ele>522.0</ele><time>2026-04-25T10:12:01.998Z</time></trkpt><trkpt lat="44.81994710888064" lon="7.2247825828183245"><ele>522.0</ele><time>2026-04-25T10:12:02.998Z</time></trkpt><trkpt lat="44.81989420749502" lon="7.2246600886999595"><ele>522.0</ele><time>2026-04-25T10:12:03.998Z</time></trkpt><trkpt lat="44.81984685858945" lon="7.224543213611703"><ele>522.0</ele><time>2026-04-25T10:12:04.998Z</time></trkpt><trkpt lat="44.819813521670405" lon="7.22443032248188"><ele>522.0</ele><time>2026-04-25T10:12:05.998Z</time></trkpt><trkpt lat="44.81979836782757" lon="7.224337106938492"><ele>522.0</ele><time>2026-04-25T10:12:07Z</time></trkpt><trkpt lat="44.819799604207255" lon="7.224219854666381"><ele>522.0</ele><time>2026-04-25T10:12:09Z</time></trkpt><trkpt lat="44.81979223328725" lon="7.224127731984673"><ele>522.0</ele><time>2026-04-25T10:12:12Z</time></trkpt><trkpt lat="44.81978396648266" lon="7.224004744438469"><ele>522.0</ele><time>2026-04-25T10:12:14Z</time></trkpt><trkpt lat="44.81977441866389" lon="7.223907726442834"><ele>522.3333333333334</ele><time>2026-04-25T10:12:16Z</time></trkpt><trkpt lat="44.819767690262054" lon="7.223737056853732"><ele>522.6666666666666</ele><time>2026-04-25T10:12:18Z</time></trkpt><trkpt lat="44.81976513913776" lon="7.223638613978135"><ele>523.0</ele><time>2026-04-25T10:12:19Z</time></trkpt><trkpt lat="44.81975746902725" lon="7.223544605473574"><ele>523.3333333333333</ele><time>2026-04-25T10:12:20Z</time></trkpt><trkpt lat="44.819751665494586" lon="7.223434301619249"><ele>523.6666666666666</ele><time>2026-04-25T10:12:21Z</time></trkpt><trkpt lat="44.81974284286169" lon="7.223327131849999"><ele>524.0</ele><time>2026-04-25T10:12:22Z</time></trkpt><trkpt lat="44.819740383939866" lon="7.223237642306818"><ele>524.4</ele><time>2026-04-25T10:12:23Z</time></trkpt><trkpt lat="44.81973372805113" lon="7.223048424503249"><ele>524.8</ele><time>2026-04-25T10:12:25Z</time></trkpt><trkpt lat="44.81972800593087" lon="7.222933052268531"><ele>525.2</ele><time>2026-04-25T10:12:26Z</time></trkpt><trkpt lat="44.81972338188997" lon="7.22283150475518"><ele>525.6</ele><time>2026-04-25T10:12:27Z</time></trkpt><trkpt lat="44.81971827475869" lon="7.222677458569996"><ele>526.0</ele><time>2026-04-25T10:12:29Z</time></trkpt><trkpt lat="44.819714479505095" lon="7.222551936992064"><ele>526.0</ele><time>2026-04-25T10:12:31Z</time></trkpt><trkpt lat="44.819715006036425" lon="7.222444872192404"><ele>526.0</ele><time>2026-04-25T10:12:33Z</time></trkpt><trkpt lat="44.81971085785577" lon="7.222354088156171"><ele>526.0</ele><time>2026-04-25T10:12:35Z</time></trkpt><trkpt lat="44.819706613047" lon="7.222231381535528"><ele>526.0</ele><time>2026-04-25T10:12:37Z</time></trkpt><trkpt lat="44.81969535304533" lon="7.222089722988983"><ele>526.0</ele><time>2026-04-25T10:12:39Z</time></trkpt><trkpt lat="44.81969046690566" lon="7.221959886681275"><ele>526.0</ele><time>2026-04-25T10:12:41Z</time></trkpt><trkpt lat="44.819683795317445" lon="7.221783241287538"><ele>526.0</ele><time>2026-04-25T10:12:43Z</time></trkpt><trkpt lat="44.81967711864019" lon="7.221686539212586"><ele>526.0</ele><time>2026-04-25T10:12:44Z</time></trkpt><trkpt lat="44.819671350782876" lon="7.22159475617252"><ele>526.0</ele><time>2026-04-25T10:12:45Z</time></trkpt><trkpt lat="44.81966500896553" lon="7.2214124867680525"><ele>526.0</ele><time>2026-04-25T10:12:47Z</time></trkpt><trkpt lat="44.81965812012787" lon="7.221309196118142"><ele>526.0</ele><time>2026-04-25T10:12:47.999Z</time></trkpt><trkpt lat="44.819653211713344" lon="7.221211035796406"><ele>526.0</ele><time>2026-04-25T10:12:48.999Z</time></trkpt><trkpt lat="44.8196470736802" lon="7.221107171273081"><ele>526.0</ele><time>2026-04-25T10:12:49.999Z</time></trkpt><trkpt lat="44.819641550914675" lon="7.22099776135088"><ele>526.0</ele><time>2026-04-25T10:12:50.999Z</time></trkpt><trkpt lat="44.81963367203904" lon="7.220893462362345"><ele>526.0</ele><time>2026-04-25T10:12:51.999Z</time></trkpt><trkpt lat="44.81963012279691" lon="7.220791377570566"><ele>526.0</ele><time>2026-04-25T10:12:52.999Z</time></trkpt><trkpt lat="44.819624095482936" lon="7.2206794653244"><ele>526.0</ele><time>2026-04-25T10:12:53.999Z</time></trkpt><trkpt lat="44.8196162236933" lon="7.220551791118765"><ele>526.0</ele><time>2026-04-25T10:12:54.999Z</time></trkpt><trkpt lat="44.81960249395064" lon="7.220424203874487"><ele>526.6</ele><time>2026-04-25T10:12:55.999Z</time></trkpt><trkpt lat="44.819589442370564" lon="7.220287774555162"><ele>527.2</ele><time>2026-04-25T10:12:56.999Z</time></trkpt><trkpt lat="44.819587639761416" lon="7.220141488779579"><ele>527.8</ele><time>2026-04-25T10:12:57.999Z</time></trkpt><trkpt lat="44.819584324512846" lon="7.219995734685612"><ele>528.4</ele><time>2026-04-25T10:12:58.999Z</time></trkpt><trkpt lat="44.81958205635717" lon="7.219866068037273"><ele>529.0</ele><time>2026-04-25T10:12:59.999Z</time></trkpt><trkpt lat="44.8195782468027" lon="7.219736570918163"><ele>529.0</ele><time>2026-04-25T10:13:00.999Z</time></trkpt><trkpt lat="44.81957059774695" lon="7.219601033478804"><ele>529.0</ele><time>2026-04-25T10:13:01.999Z</time></trkpt><trkpt lat="44.819565216121646" lon="7.219465951948221"><ele>529.0</ele><time>2026-04-25T10:13:02.999Z</time></trkpt><trkpt lat="44.819558983749864" lon="7.219337148484774"><ele>529.0</ele><time>2026-04-25T10:13:03.999Z</time></trkpt><trkpt lat="44.81955354752121" lon="7.219206547719221"><ele>529.0</ele><time>2026-04-25T10:13:04.999Z</time></trkpt><trkpt lat="44.819549888066135" lon="7.219076010686305"><ele>529.4</ele><time>2026-04-25T10:13:05.999Z</time></trkpt><trkpt lat="44.819544605942795" lon="7.218943290638067"><ele>529.8</ele><time>2026-04-25T10:13:06.999Z</time></trkpt><trkpt lat="44.81953476397711" lon="7.2188015706980515"><ele>530.2</ele><time>2026-04-25T10:13:07.999Z</time></trkpt><trkpt lat="44.81952653837645" lon="7.218647052417328"><ele>530.6</ele><time>2026-04-25T10:13:08.999Z</time></trkpt><trkpt lat="44.81951948854284" lon="7.21850635007775"><ele>531.0</ele><time>2026-04-25T10:13:09.999Z</time></trkpt><trkpt lat="44.81951119953121" lon="7.218367242329655"><ele>531.0</ele><time>2026-04-25T10:13:10.999Z</time></trkpt><trkpt lat="44.81950661990788" lon="7.2182280781652715"><ele>531.0</ele><time>2026-04-25T10:13:11.999Z</time></trkpt><trkpt lat="44.81950199313274" lon="7.218104402155044"><ele>531.0</ele><time>2026-04-25T10:13:12.999Z</time></trkpt><trkpt lat="44.81949689517569" lon="7.217991756487543"><ele>531.0</ele><time>2026-04-25T10:13:13.999Z</time></trkpt><trkpt lat="44.819490498288566" lon="7.217865778605489"><ele>531.0</ele><time>2026-04-25T10:13:14.999Z</time></trkpt><trkpt lat="44.81948502495365" lon="7.2177260370446366"><ele>531.6</ele><time>2026-04-25T10:13:15.999Z</time></trkpt><trkpt lat="44.8194750208124" lon="7.217583886039811"><ele>532.2</ele><time>2026-04-25T10:13:16.999Z</time></trkpt><trkpt lat="44.81946388437476" lon="7.217454347111528"><ele>532.8</ele><time>2026-04-25T10:13:17.999Z</time></trkpt><trkpt lat="44.81945299529953" lon="7.217314645733029"><ele>533.4</ele><time>2026-04-25T10:13:18.999Z</time></trkpt><trkpt lat="44.819443658826444" lon="7.217152332414679"><ele>534.0</ele><time>2026-04-25T10:13:19.999Z</time></trkpt><trkpt lat="44.819432967791876" lon="7.216967645984374"><ele>534.5</ele><time>2026-04-25T10:13:20.999Z</time></trkpt><trkpt lat="44.81941963451439" lon="7.216759780773403"><ele>535.0</ele><time>2026-04-25T10:13:21.999Z</time></trkpt><trkpt lat="44.81941033465473" lon="7.216562872672738"><ele>535.5</ele><time>2026-04-25T10:13:22.999Z</time></trkpt><trkpt lat="44.81939940469529" lon="7.216382866822368"><ele>536.0</ele><time>2026-04-25T10:13:23.999Z</time></trkpt><trkpt lat="44.819387759159234" lon="7.216193791905027"><ele>536.0</ele><time>2026-04-25T10:13:24.999Z</time></trkpt><trkpt lat="44.81937705242719" lon="7.216003931971084"><ele>536.0</ele><time>2026-04-25T10:13:25.999Z</time></trkpt><trkpt lat="44.819370351481936" lon="7.215808397974995"><ele>536.0</ele><time>2026-04-25T10:13:26.999Z</time></trkpt><trkpt lat="44.819363043150176" lon="7.215624762193272"><ele>536.0</ele><time>2026-04-25T10:13:27.999Z</time></trkpt><trkpt lat="44.81935540252396" lon="7.215443248325513"><ele>536.25</ele><time>2026-04-25T10:13:28.999Z</time></trkpt><trkpt lat="44.81934937499637" lon="7.215250338768796"><ele>536.5</ele><time>2026-04-25T10:13:29.999Z</time></trkpt><trkpt lat="44.819348337505005" lon="7.215037502192937"><ele>536.75</ele><time>2026-04-25T10:13:30.999Z</time></trkpt><trkpt lat="44.81935248368681" lon="7.214841197293553"><ele>537.0</ele><time>2026-04-25T10:13:31.999Z</time></trkpt><trkpt lat="44.819361896599474" lon="7.214657383572886"><ele>537.5</ele><time>2026-04-25T10:13:32.999Z</time></trkpt><trkpt lat="44.81937495321174" lon="7.214476631072428"><ele>538.0</ele><time>2026-04-25T10:13:33.999Z</time></trkpt><trkpt lat="44.819391882578834" lon="7.214287621818718"><ele>538.5</ele><time>2026-04-25T10:13:34.998Z</time></trkpt><trkpt lat="44.81941026284582" lon="7.214113055005748"><ele>539.0</ele><time>2026-04-25T10:13:35.998Z</time></trkpt><trkpt lat="44.81942951670024" lon="7.213948887996172"><ele>539.6</ele><time>2026-04-25T10:13:36.998Z</time></trkpt><trkpt lat="44.81944777490669" lon="7.213797934099038"><ele>540.2</ele><time>2026-04-25T10:13:37.998Z</time></trkpt><trkpt lat="44.81946098453901" lon="7.213656208762417"><ele>540.8000000000001</ele><time>2026-04-25T10:13:38.998Z</time></trkpt><trkpt lat="44.8194734053207" lon="7.213514147447231"><ele>541.4</ele><time>2026-04-25T10:13:39.998Z</time></trkpt><trkpt lat="44.81948827829549" lon="7.213360245122778"><ele>542.0</ele><time>2026-04-25T10:13:40.998Z</time></trkpt><trkpt lat="44.81950709662302" lon="7.21319730959726"><ele>542.5</ele><time>2026-04-25T10:13:41.998Z</time></trkpt><trkpt lat="44.819522121942015" lon="7.213034399207244"><ele>543.0</ele><time>2026-04-25T10:13:42.998Z</time></trkpt><trkpt lat="44.81953559746025" lon="7.212866613443079"><ele>543.5</ele><time>2026-04-25T10:13:43.998Z</time></trkpt><trkpt lat="44.81955058590656" lon="7.212693727397949"><ele>544.0</ele><time>2026-04-25T10:13:44.998Z</time></trkpt><trkpt lat="44.8195687840983" lon="7.212510651090796"><ele>544.25</ele><time>2026-04-25T10:13:45.998Z</time></trkpt><trkpt lat="44.819589943206196" lon="7.212311719001759"><ele>544.5</ele><time>2026-04-25T10:13:46.998Z</time></trkpt><trkpt lat="44.819611160816194" lon="7.212109900479878"><ele>544.75</ele><time>2026-04-25T10:13:47.998Z</time></trkpt><trkpt lat="44.81962861619514" lon="7.211927268963008"><ele>545.0</ele><time>2026-04-25T10:13:48.998Z</time></trkpt><trkpt lat="44.81964412997662" lon="7.211753131219828"><ele>545.0</ele><time>2026-04-25T10:13:49.998Z</time></trkpt><trkpt lat="44.81965445570075" lon="7.211586068555491"><ele>545.0</ele><time>2026-04-25T10:13:50.998Z</time></trkpt><trkpt lat="44.819658613961245" lon="7.211434853109658"><ele>545.0</ele><time>2026-04-25T10:13:51.998Z</time></trkpt><trkpt lat="44.81966404344601" lon="7.21128524882795"><ele>545.0</ele><time>2026-04-25T10:13:52.998Z</time></trkpt><trkpt lat="44.81967263474056" lon="7.211129059298836"><ele>545.0</ele><time>2026-04-25T10:13:53.998Z</time></trkpt><trkpt lat="44.819691209309845" lon="7.210984930947607"><ele>544.8</ele><time>2026-04-25T10:13:54.998Z</time></trkpt><trkpt lat="44.81970056099979" lon="7.2108662425642525"><ele>544.6</ele><time>2026-04-25T10:13:55.998Z</time></trkpt><trkpt lat="44.819854352599144" lon="7.21075307373278"><ele>544.4</ele><time>2026-04-25T10:13:57.998Z</time></trkpt><trkpt lat="44.819919957366736" lon="7.210739429795856"><ele>544.2</ele><time>2026-04-25T10:13:58.998Z</time></trkpt><trkpt lat="44.820014862369" lon="7.2107233529664665"><ele>544.0</ele><time>2026-04-25T10:14:00.998Z</time></trkpt><trkpt lat="44.82003009393987" lon="7.210524657021905"><ele>544.8</ele><time>2026-04-25T10:14:03.998Z</time></trkpt><trkpt lat="44.819971024475066" lon="7.210420189660464"><ele>545.5999999999999</ele><time>2026-04-25T10:14:04.998Z</time></trkpt><trkpt lat="44.81992533275465" lon="7.210288031834522"><ele>546.4</ele><time>2026-04-25T10:14:05.998Z</time></trkpt><trkpt lat="44.81988371376575" lon="7.210146533437315"><ele>547.1999999999999</ele><time>2026-04-25T10:14:06.998Z</time></trkpt><trkpt lat="44.81983815162177" lon="7.209999619735422"><ele>548.0</ele><time>2026-04-25T10:14:07.998Z</time></trkpt><trkpt lat="44.819785737756526" lon="7.209868420704926"><ele>549.25</ele><time>2026-04-25T10:14:08.998Z</time></trkpt><trkpt lat="44.81973956788131" lon="7.209733994997922"><ele>550.5</ele><time>2026-04-25T10:14:09.998Z</time></trkpt><trkpt lat="44.81968505304839" lon="7.209591301049915"><ele>551.75</ele><time>2026-04-25T10:14:10.998Z</time></trkpt><trkpt lat="44.81963197298259" lon="7.209443576915959"><ele>553.0</ele><time>2026-04-25T10:14:11.998Z</time></trkpt><trkpt lat="44.819570100659256" lon="7.209301568889291"><ele>553.0</ele><time>2026-04-25T10:14:13Z</time></trkpt><trkpt lat="44.819473762457" lon="7.209168566051583"><ele>553.0</ele><time>2026-04-25T10:14:14Z</time></trkpt><trkpt lat="44.81936280383127" lon="7.2090267127233885"><ele>553.0</ele><time>2026-04-25T10:14:15Z</time></trkpt><trkpt lat="44.81929088151122" lon="7.208835358422358"><ele>553.0</ele><time>2026-04-25T10:14:16Z</time></trkpt><trkpt lat="44.81919057827912" lon="7.208677127109524"><ele>552.0</ele><time>2026-04-25T10:14:17Z</time></trkpt><trkpt lat="44.81909853747166" lon="7.208543430740005"><ele>551.0</ele><time>2026-04-25T10:14:18Z</time></trkpt><trkpt lat="44.81898640122161" lon="7.208415995853881"><ele>550.0</ele><time>2026-04-25T10:14:19Z</time></trkpt><trkpt lat="44.818874203787296" lon="7.208290638324287"><ele>549.0</ele><time>2026-04-25T10:14:20Z</time></trkpt><trkpt lat="44.818769329808894" lon="7.208171381447231"><ele>546.75</ele><time>2026-04-25T10:14:21Z</time></trkpt><trkpt lat="44.81867337632365" lon="7.208051612319567"><ele>544.5</ele><time>2026-04-25T10:14:22Z</time></trkpt><trkpt lat="44.81858388020976" lon="7.207931914798728"><ele>542.25</ele><time>2026-04-25T10:14:23Z</time></trkpt><trkpt lat="44.81849602248859" lon="7.20781529087202"><ele>540.0</ele><time>2026-04-25T10:14:24Z</time></trkpt><trkpt lat="44.81842378904648" lon="7.207702454282647"><ele>540.0</ele><time>2026-04-25T10:14:25Z</time></trkpt><trkpt lat="44.81837819740427" lon="7.207576412817679"><ele>540.0</ele><time>2026-04-25T10:14:26Z</time></trkpt><trkpt lat="44.818369958775904" lon="7.207422777745192"><ele>540.0</ele><time>2026-04-25T10:14:27Z</time></trkpt><trkpt lat="44.818365730980894" lon="7.20723878085388"><ele>540.0</ele><time>2026-04-25T10:14:28Z</time></trkpt><trkpt lat="44.818346174126134" lon="7.207026950688158"><ele>541.0</ele><time>2026-04-25T10:14:29Z</time></trkpt><trkpt lat="44.81832144588353" lon="7.206814371036699"><ele>542.0</ele><time>2026-04-25T10:14:30Z</time></trkpt><trkpt lat="44.81829386549157" lon="7.206623255595267"><ele>543.0</ele><time>2026-04-25T10:14:31Z</time></trkpt><trkpt lat="44.818255360903386" lon="7.206456402706759"><ele>544.0</ele><time>2026-04-25T10:14:32Z</time></trkpt><trkpt lat="44.818183413495845" lon="7.206322987445126"><ele>545.5</ele><time>2026-04-25T10:14:33Z</time></trkpt><trkpt lat="44.81808933047239" lon="7.206220305593119"><ele>547.0</ele><time>2026-04-25T10:14:34Z</time></trkpt><trkpt lat="44.81797174466446" lon="7.206174372110522"><ele>548.5</ele><time>2026-04-25T10:14:35Z</time></trkpt><trkpt lat="44.81783998590531" lon="7.206166222323984"><ele>550.0</ele><time>2026-04-25T10:14:36Z</time></trkpt><trkpt lat="44.81769706658217" lon="7.206177316153852"><ele>545.3333333333334</ele><time>2026-04-25T10:14:37Z</time></trkpt><trkpt lat="44.81753857872" lon="7.206216231351818"><ele>540.6666666666666</ele><time>2026-04-25T10:14:38Z</time></trkpt><trkpt lat="44.81736661761308" lon="7.2062526529448725"><ele>536.0</ele><time>2026-04-25T10:14:39Z</time></trkpt><trkpt lat="44.81716421604595" lon="7.206293700088848"><ele>536.0</ele><time>2026-04-25T10:14:40Z</time></trkpt><trkpt lat="44.8169602370981" lon="7.20633815927882"><ele>536.0</ele><time>2026-04-25T10:14:41Z</time></trkpt><trkpt lat="44.816794461956576" lon="7.2063729180029865"><ele>536.0</ele><time>2026-04-25T10:14:42Z</time></trkpt><trkpt lat="44.81665522591575" lon="7.206406816538177"><ele>536.0</ele><time>2026-04-25T10:14:43Z</time></trkpt><trkpt lat="44.816522902170796" lon="7.206436677938911"><ele>536.0</ele><time>2026-04-25T10:14:44Z</time></trkpt><trkpt lat="44.81639149538397" lon="7.2064642141869175"><ele>536.0</ele><time>2026-04-25T10:14:45Z</time></trkpt><trkpt lat="44.81626328997189" lon="7.206494569787407"><ele>536.0</ele><time>2026-04-25T10:14:46Z</time></trkpt><trkpt lat="44.81613754392027" lon="7.206517460348736"><ele>535.75</ele><time>2026-04-25T10:14:47Z</time></trkpt><trkpt lat="44.816014635554076" lon="7.206523001308779"><ele>535.5</ele><time>2026-04-25T10:14:48Z</time></trkpt><trkpt lat="44.81589880404575" lon="7.206495264828456"><ele>535.25</ele><time>2026-04-25T10:14:49Z</time></trkpt><trkpt lat="44.815794910517596" lon="7.206439889658517"><ele>535.0</ele><time>2026-04-25T10:14:50Z</time></trkpt><trkpt lat="44.815694542237246" lon="7.206342216147266"><ele>536.25</ele><time>2026-04-25T10:14:51Z</time></trkpt><trkpt lat="44.815589424099166" lon="7.2062309505970354"><ele>537.5</ele><time>2026-04-25T10:14:51.999Z</time></trkpt><trkpt lat="44.815484231094295" lon="7.206119762742258"><ele>538.75</ele><time>2026-04-25T10:14:52.999Z</time></trkpt><trkpt lat="44.81538187303505" lon="7.206017155599459"><ele>540.0</ele><time>2026-04-25T10:14:53.999Z</time></trkpt><trkpt lat="44.81528975597907" lon="7.205898642048616"><ele>540.0</ele><time>2026-04-25T10:14:54.999Z</time></trkpt><trkpt lat="44.81520467109518" lon="7.205750553897006"><ele>540.0</ele><time>2026-04-25T10:14:55.999Z</time></trkpt><trkpt lat="44.81512872419386" lon="7.20557495385241"><ele>540.0</ele><time>2026-04-25T10:14:56.999Z</time></trkpt><trkpt lat="44.8150607180333" lon="7.205362941139589"><ele>540.0</ele><time>2026-04-25T10:14:57.999Z</time></trkpt><trkpt lat="44.814985669731314" lon="7.20513729562968"><ele>542.0</ele><time>2026-04-25T10:14:58.999Z</time></trkpt><trkpt lat="44.81489736974439" lon="7.204899483006771"><ele>544.0</ele><time>2026-04-25T10:14:59.999Z</time></trkpt><trkpt lat="44.81481804240784" lon="7.204677025267357"><ele>546.0</ele><time>2026-04-25T10:15:00.999Z</time></trkpt><trkpt lat="44.81475973072106" lon="7.204450948696184"><ele>546.0</ele><time>2026-04-25T10:15:01.999Z</time></trkpt><trkpt lat="44.814682259190775" lon="7.204231594123854"><ele>546.0</ele><time>2026-04-25T10:15:02.999Z</time></trkpt><trkpt lat="44.814598847537134" lon="7.203988987915067"><ele>546.0</ele><time>2026-04-25T10:15:03.999Z</time></trkpt><trkpt lat="44.814505449949046" lon="7.203716697278537"><ele>545.0</ele><time>2026-04-25T10:15:04.999Z</time></trkpt><trkpt lat="44.81440073537355" lon="7.203411413358402"><ele>544.0</ele><time>2026-04-25T10:15:05.999Z</time></trkpt><trkpt lat="44.814291376795865" lon="7.203103686862469"><ele>546.3333333333334</ele><time>2026-04-25T10:15:06.999Z</time></trkpt><trkpt lat="44.81419660074119" lon="7.202838524962973"><ele>548.6666666666666</ele><time>2026-04-25T10:15:07.999Z</time></trkpt><trkpt lat="44.814119274190276" lon="7.202605231142841"><ele>551.0</ele><time>2026-04-25T10:15:08.999Z</time></trkpt><trkpt lat="44.81407613746119" lon="7.202384490659019"><ele>551.3333333333333</ele><time>2026-04-25T10:15:09.999Z</time></trkpt><trkpt lat="44.81406011832925" lon="7.202162940663681"><ele>551.6666666666666</ele><time>2026-04-25T10:15:10.999Z</time></trkpt><trkpt lat="44.814058197114434" lon="7.201924284545717"><ele>552.0</ele><time>2026-04-25T10:15:11.999Z</time></trkpt><trkpt lat="44.81406393230452" lon="7.201648998630784"><ele>553.0</ele><time>2026-04-25T10:15:12.999Z</time></trkpt><trkpt lat="44.8140614680152" lon="7.201364599822741"><ele>554.0</ele><time>2026-04-25T10:15:13.999Z</time></trkpt><trkpt lat="44.81406875902551" lon="7.201117625364072"><ele>555.0</ele><time>2026-04-25T10:15:14.999Z</time></trkpt><trkpt lat="44.8140716267187" lon="7.200892812364008"><ele>555.0</ele><time>2026-04-25T10:15:15.999Z</time></trkpt><trkpt lat="44.81406188978696" lon="7.200680494550519"><ele>555.0</ele><time>2026-04-25T10:15:16.999Z</time></trkpt><trkpt lat="44.814021911131135" lon="7.200461002261899"><ele>555.0</ele><time>2026-04-25T10:15:17.999Z</time></trkpt><trkpt lat="44.81394587556507" lon="7.2002379392662705"><ele>555.3333333333334</ele><time>2026-04-25T10:15:18.999Z</time></trkpt><trkpt lat="44.81385250909692" lon="7.20001808442715"><ele>555.6666666666667</ele><time>2026-04-25T10:15:19.999Z</time></trkpt><trkpt lat="44.81375584609622" lon="7.19978064709875"><ele>556.0</ele><time>2026-04-25T10:15:20.999Z</time></trkpt><trkpt lat="44.813667613632" lon="7.199557448375973"><ele>556.3333333333334</ele><time>2026-04-25T10:15:21.999Z</time></trkpt><trkpt lat="44.81357905601144" lon="7.199342027853908"><ele>556.6666666666666</ele><time>2026-04-25T10:15:22.999Z</time></trkpt><trkpt lat="44.81348966525741" lon="7.1991276736092"><ele>557.0</ele><time>2026-04-25T10:15:23.999Z</time></trkpt><trkpt lat="44.813387848369324" lon="7.198881546841341"><ele>557.6666666666666</ele><time>2026-04-25T10:15:24.999Z</time></trkpt><trkpt lat="44.8132742626788" lon="7.198605503711806"><ele>558.3333333333334</ele><time>2026-04-25T10:15:25.999Z</time></trkpt><trkpt lat="44.8131701068562" lon="7.19835671635218"><ele>559.0</ele><time>2026-04-25T10:15:26.999Z</time></trkpt><trkpt lat="44.81307735043572" lon="7.198127210504623"><ele>560.0</ele><time>2026-04-25T10:15:27.999Z</time></trkpt><trkpt lat="44.81298221541728" lon="7.197880923710689"><ele>561.0</ele><time>2026-04-25T10:15:28.999Z</time></trkpt><trkpt lat="44.81287352112553" lon="7.197578489140532"><ele>562.0</ele><time>2026-04-25T10:15:29.999Z</time></trkpt><trkpt lat="44.81276135585269" lon="7.197237977341762"><ele>563.5</ele><time>2026-04-25T10:15:30.999Z</time></trkpt><trkpt lat="44.81264706334906" lon="7.196864612420214"><ele>565.0</ele><time>2026-04-25T10:15:31.999Z</time></trkpt><trkpt lat="44.81253693525475" lon="7.196508653637779"><ele>566.0</ele><time>2026-04-25T10:15:32.999Z</time></trkpt><trkpt lat="44.81243729367168" lon="7.196199564997553"><ele>567.0</ele><time>2026-04-25T10:15:33.999Z</time></trkpt><trkpt lat="44.81234324650856" lon="7.195908440795543"><ele>568.0</ele><time>2026-04-25T10:15:34.999Z</time></trkpt><trkpt lat="44.81225320988297" lon="7.195638785497243"><ele>569.0</ele><time>2026-04-25T10:15:35.999Z</time></trkpt><trkpt lat="44.81217059239134" lon="7.195384757412325"><ele>570.0</ele><time>2026-04-25T10:15:36.999Z</time></trkpt><trkpt lat="44.81208785095736" lon="7.19512011237088"><ele>570.0</ele><time>2026-04-25T10:15:37.999Z</time></trkpt><trkpt lat="44.81200335276029" lon="7.194853056381998"><ele>570.0</ele><time>2026-04-25T10:15:38.998Z</time></trkpt><trkpt lat="44.81192651450944" lon="7.1946152292832135"><ele>570.0</ele><time>2026-04-25T10:15:39.998Z</time></trkpt><trkpt lat="44.811855197639474" lon="7.194395132426652"><ele>570.3333333333334</ele><time>2026-04-25T10:15:40.998Z</time></trkpt><trkpt lat="44.811784890643246" lon="7.194172455646536"><ele>570.6666666666667</ele><time>2026-04-25T10:15:41.998Z</time></trkpt><trkpt lat="44.811711609516294" lon="7.1939367010415465"><ele>571.0</ele><time>2026-04-25T10:15:42.998Z</time></trkpt><trkpt lat="44.81164622842389" lon="7.193726086920344"><ele>571.25</ele><time>2026-04-25T10:15:43.998Z</time></trkpt><trkpt lat="44.81158131855756" lon="7.19352678783073"><ele>571.5</ele><time>2026-04-25T10:15:44.998Z</time></trkpt><trkpt lat="44.81150914049896" lon="7.193349097120383"><ele>571.75</ele><time>2026-04-25T10:15:45.998Z</time></trkpt><trkpt lat="44.8114268446182" lon="7.193188882800317"><ele>572.0</ele><time>2026-04-25T10:15:46.998Z</time></trkpt><trkpt lat="44.81134624364114" lon="7.193042865284345"><ele>572.5</ele><time>2026-04-25T10:15:47.998Z</time></trkpt><trkpt lat="44.811261378337406" lon="7.192915118338929"><ele>573.0</ele><time>2026-04-25T10:15:48.998Z</time></trkpt><trkpt lat="44.81117020291813" lon="7.192806502335028"><ele>573.5</ele><time>2026-04-25T10:15:49.998Z</time></trkpt><trkpt lat="44.81106682141619" lon="7.192716265811574"><ele>574.0</ele><time>2026-04-25T10:15:50.998Z</time></trkpt><trkpt lat="44.81094911206216" lon="7.192647531016495"><ele>574.0</ele><time>2026-04-25T10:15:51.998Z</time></trkpt><trkpt lat="44.810814150468836" lon="7.192580237551256"><ele>574.0</ele><time>2026-04-25T10:15:52.998Z</time></trkpt><trkpt lat="44.810671339437846" lon="7.192504468619814"><ele>574.0</ele><time>2026-04-25T10:15:53.998Z</time></trkpt><trkpt lat="44.81053508972212" lon="7.192429015474873"><ele>574.0</ele><time>2026-04-25T10:15:54.998Z</time></trkpt><trkpt lat="44.81040153239148" lon="7.192354390858861"><ele>574.6666666666667</ele><time>2026-04-25T10:15:55.998Z</time></trkpt><trkpt lat="44.810257700648876" lon="7.192275693832784"><ele>575.3333333333334</ele><time>2026-04-25T10:15:56.998Z</time></trkpt><trkpt lat="44.8101035892197" lon="7.192191278089129"><ele>576.0</ele><time>2026-04-25T10:15:57.998Z</time></trkpt><trkpt lat="44.80994895408225" lon="7.192096673660567"><ele>576.75</ele><time>2026-04-25T10:15:58.998Z</time></trkpt><trkpt lat="44.80982163019246" lon="7.19199450644247"><ele>577.5</ele><time>2026-04-25T10:15:59.998Z</time></trkpt><trkpt lat="44.80970775220575" lon="7.1918642434475295"><ele>578.25</ele><time>2026-04-25T10:16:00.998Z</time></trkpt><trkpt lat="44.809620806271866" lon="7.191706665676491"><ele>579.0</ele><time>2026-04-25T10:16:01.998Z</time></trkpt><trkpt lat="44.809542931426314" lon="7.191522741362874"><ele>579.3333333333334</ele><time>2026-04-25T10:16:02.998Z</time></trkpt><trkpt lat="44.809476834121185" lon="7.191311448052477"><ele>579.6666666666667</ele><time>2026-04-25T10:16:03.998Z</time></trkpt><trkpt lat="44.80941936655037" lon="7.19108062920503"><ele>580.0</ele><time>2026-04-25T10:16:04.998Z</time></trkpt><trkpt lat="44.809365970167356" lon="7.190852363594406"><ele>586.3333333333334</ele><time>2026-04-25T10:16:05.998Z</time></trkpt><trkpt lat="44.80930784888293" lon="7.19064309388355"><ele>592.6666666666666</ele><time>2026-04-25T10:16:06.998Z</time></trkpt><trkpt lat="44.809254947157385" lon="7.190436335144792"><ele>599.0</ele><time>2026-04-25T10:16:07.998Z</time></trkpt><trkpt lat="44.8092076085399" lon="7.190237193676125"><ele>599.0</ele><time>2026-04-25T10:16:08.998Z</time></trkpt><trkpt lat="44.8091565075939" lon="7.1900252168650125"><ele>599.0</ele><time>2026-04-25T10:16:09.998Z</time></trkpt><trkpt lat="44.809109762052344" lon="7.189802910187604"><ele>599.0</ele><time>2026-04-25T10:16:10.998Z</time></trkpt><trkpt lat="44.80907471703038" lon="7.189594263829586"><ele>598.0</ele><time>2026-04-25T10:16:11.998Z</time></trkpt><trkpt lat="44.809039748289095" lon="7.189373597128215"><ele>597.0</ele><time>2026-04-25T10:16:12.998Z</time></trkpt><trkpt lat="44.809004760507314" lon="7.1891523626537595"><ele>596.0</ele><time>2026-04-25T10:16:13.998Z</time></trkpt><trkpt lat="44.80897070997341" lon="7.188950467756882"><ele>595.25</ele><time>2026-04-25T10:16:14.998Z</time></trkpt><trkpt lat="44.80893484946162" lon="7.188739145156364"><ele>594.5</ele><time>2026-04-25T10:16:15.998Z</time></trkpt><trkpt lat="44.80890014886479" lon="7.1885295804769385"><ele>593.75</ele><time>2026-04-25T10:16:16.998Z</time></trkpt><trkpt lat="44.808872804641084" lon="7.188348411800884"><ele>593.0</ele><time>2026-04-25T10:16:17.998Z</time></trkpt><trkpt lat="44.808842426814124" lon="7.188191105185431"><ele>592.1999999999999</ele><time>2026-04-25T10:16:19Z</time></trkpt><trkpt lat="44.808799503223185" lon="7.188081479465755"><ele>591.4</ele><time>2026-04-25T10:16:20Z</time></trkpt><trkpt lat="44.80872819188647" lon="7.188018905437412"><ele>590.5999999999999</ele><time>2026-04-25T10:16:21Z</time></trkpt><trkpt lat="44.80863013904105" lon="7.188014119731411"><ele>589.8</ele><time>2026-04-25T10:16:22Z</time></trkpt><trkpt lat="44.80853245954179" lon="7.187991680447235"><ele>589.0</ele><time>2026-04-25T10:16:23Z</time></trkpt><trkpt lat="44.808513773732365" lon="7.187853267231578"><ele>593.0</ele><time>2026-04-25T10:16:24Z</time></trkpt><trkpt lat="44.80847700635192" lon="7.187710972540509"><ele>597.0</ele><time>2026-04-25T10:16:25Z</time></trkpt><trkpt lat="44.80843479883062" lon="7.187548293239768"><ele>601.0</ele><time>2026-04-25T10:16:26Z</time></trkpt><trkpt lat="44.80839368662146" lon="7.187390383971008"><ele>605.0</ele><time>2026-04-25T10:16:27Z</time></trkpt><trkpt lat="44.808368632829115" lon="7.187262288186642"><ele>609.0</ele><time>2026-04-25T10:16:28Z</time></trkpt><trkpt lat="44.80833425924381" lon="7.187149772329424"><ele>609.0</ele><time>2026-04-25T10:16:29Z</time></trkpt><trkpt lat="44.80830710054037" lon="7.1870558623441365"><ele>609.0</ele><time>2026-04-25T10:16:30Z</time></trkpt><trkpt lat="44.80824163316044" lon="7.186930592002046"><ele>609.0</ele><time>2026-04-25T10:16:32Z</time></trkpt><trkpt lat="44.80816355314698" lon="7.186934713953542"><ele>609.0</ele><time>2026-04-25T10:16:33Z</time></trkpt><trkpt lat="44.808014546228065" lon="7.186917318019988"><ele>609.0</ele><time>2026-04-25T10:16:35Z</time></trkpt><trkpt lat="44.80791235184555" lon="7.186924299692753"><ele>609.0</ele><time>2026-04-25T10:16:36Z</time></trkpt><trkpt lat="44.807803265454716" lon="7.186935445225375"><ele>609.0</ele><time>2026-04-25T10:16:37Z</time></trkpt><trkpt lat="44.80768401338584" lon="7.1869397668079325"><ele>609.0</ele><time>2026-04-25T10:16:38Z</time></trkpt><trkpt lat="44.80756557181557" lon="7.1869413575537235"><ele>609.0</ele><time>2026-04-25T10:16:39Z</time></trkpt><trkpt lat="44.80743680160785" lon="7.186947778536391"><ele>610.2</ele><time>2026-04-25T10:16:40Z</time></trkpt><trkpt lat="44.8073015613776" lon="7.186951135186695"><ele>611.4</ele><time>2026-04-25T10:16:41Z</time></trkpt><trkpt lat="44.807185775368374" lon="7.186954093876715"><ele>612.6</ele><time>2026-04-25T10:16:42Z</time></trkpt><trkpt lat="44.80709175797225" lon="7.186983645686049"><ele>613.8</ele><time>2026-04-25T10:16:43Z</time></trkpt><trkpt lat="44.80701209934642" lon="7.187053916510925"><ele>615.0</ele><time>2026-04-25T10:16:44Z</time></trkpt><trkpt lat="44.80694865593021" lon="7.1871482034871885"><ele>615.0</ele><time>2026-04-25T10:16:45Z</time></trkpt><trkpt lat="44.80692349844681" lon="7.187300085727971"><ele>615.0</ele><time>2026-04-25T10:16:46Z</time></trkpt><trkpt lat="44.806949815292725" lon="7.187464825303324"><ele>615.0</ele><time>2026-04-25T10:16:47Z</time></trkpt><trkpt lat="44.80697050130649" lon="7.1876387882643025"><ele>615.0</ele><time>2026-04-25T10:16:48Z</time></trkpt><trkpt lat="44.80699512915808" lon="7.187820420739557"><ele>615.0</ele><time>2026-04-25T10:16:49Z</time></trkpt><trkpt lat="44.80700300566547" lon="7.188005271365852"><ele>615.0</ele><time>2026-04-25T10:16:50Z</time></trkpt><trkpt lat="44.807026102839004" lon="7.1881933613278735"><ele>615.0</ele><time>2026-04-25T10:16:51Z</time></trkpt><trkpt lat="44.80706447857702" lon="7.188351734702683"><ele>615.0</ele><time>2026-04-25T10:16:52Z</time></trkpt><trkpt lat="44.8070675707228" lon="7.188498207079565"><ele>615.5</ele><time>2026-04-25T10:16:53Z</time></trkpt><trkpt lat="44.807070176777415" lon="7.18861381537868"><ele>616.0</ele><time>2026-04-25T10:16:54Z</time></trkpt><trkpt lat="44.807054200802206" lon="7.188700252824238"><ele>616.5</ele><time>2026-04-25T10:16:55Z</time></trkpt><trkpt lat="44.80694895743221" lon="7.188748844528823"><ele>617.0</ele><time>2026-04-25T10:16:56.999Z</time></trkpt><trkpt lat="44.80689167172938" lon="7.1886715743826395"><ele>617.5</ele><time>2026-04-25T10:16:57.999Z</time></trkpt><trkpt lat="44.80687499902353" lon="7.188559095334967"><ele>618.0</ele><time>2026-04-25T10:16:58.999Z</time></trkpt><trkpt lat="44.80686632277374" lon="7.188432511409294"><ele>621.1999999999999</ele><time>2026-04-25T10:16:59.999Z</time></trkpt><trkpt lat="44.80682559460334" lon="7.188319825185244"><ele>624.4</ele><time>2026-04-25T10:17:00.999Z</time></trkpt><trkpt lat="44.806750807804924" lon="7.188234176947599"><ele>627.5999999999999</ele><time>2026-04-25T10:17:01.999Z</time></trkpt><trkpt lat="44.80665448728755" lon="7.188214581797388"><ele>630.8</ele><time>2026-04-25T10:17:02.999Z</time></trkpt><trkpt lat="44.806553767317915" lon="7.188256258208001"><ele>634.0</ele><time>2026-04-25T10:17:03.999Z</time></trkpt><trkpt lat="44.806445946643784" lon="7.1882969117275435"><ele>634.0</ele><time>2026-04-25T10:17:04.999Z</time></trkpt><trkpt lat="44.80633195607858" lon="7.188317305875641"><ele>634.0</ele><time>2026-04-25T10:17:05.999Z</time></trkpt><trkpt lat="44.80623654277866" lon="7.188334323563902"><ele>634.0</ele><time>2026-04-25T10:17:06.999Z</time></trkpt><trkpt lat="44.80616599526584" lon="7.188237776537039"><ele>634.0</ele><time>2026-04-25T10:17:07.999Z</time></trkpt><trkpt lat="44.80608441445939" lon="7.188159826890179"><ele>634.0</ele><time>2026-04-25T10:17:08.999Z</time></trkpt><trkpt lat="44.80600158284133" lon="7.188071157812774"><ele>637.4</ele><time>2026-04-25T10:17:09.999Z</time></trkpt><trkpt lat="44.80592212395745" lon="7.187974275644094"><ele>640.8</ele><time>2026-04-25T10:17:10.999Z</time></trkpt><trkpt lat="44.80585651331642" lon="7.187878839222358"><ele>644.1999999999999</ele><time>2026-04-25T10:17:11.999Z</time></trkpt><trkpt lat="44.8058026753808" lon="7.187768400614349"><ele>647.5999999999999</ele><time>2026-04-25T10:17:12.999Z</time></trkpt><trkpt lat="44.805766000787884" lon="7.187634896385099"><ele>651.0</ele><time>2026-04-25T10:17:13.999Z</time></trkpt><trkpt lat="44.805745268566326" lon="7.18748873216587"><ele>651.0</ele><time>2026-04-25T10:17:14.999Z</time></trkpt><trkpt lat="44.805731008223205" lon="7.187356303961442"><ele>651.0</ele><time>2026-04-25T10:17:15.999Z</time></trkpt><trkpt lat="44.80571831658038" lon="7.18723310448059"><ele>651.0</ele><time>2026-04-25T10:17:16.999Z</time></trkpt><trkpt lat="44.80571634578182" lon="7.18708710138488"><ele>651.0</ele><time>2026-04-25T10:17:17.999Z</time></trkpt><trkpt lat="44.805713118299145" lon="7.1869188542987805"><ele>651.0</ele><time>2026-04-25T10:17:18.999Z</time></trkpt><trkpt lat="44.80569173602412" lon="7.186765505107261"><ele>649.25</ele><time>2026-04-25T10:17:19.999Z</time></trkpt><trkpt lat="44.80563095838416" lon="7.186650442534583"><ele>647.5</ele><time>2026-04-25T10:17:20.999Z</time></trkpt><trkpt lat="44.80555843692981" lon="7.186535162546481"><ele>645.75</ele><time>2026-04-25T10:17:21.999Z</time></trkpt><trkpt lat="44.805465770763334" lon="7.186418569625748"><ele>644.0</ele><time>2026-04-25T10:17:22.999Z</time></trkpt><trkpt lat="44.80540177129113" lon="7.186281158999262"><ele>643.2</ele><time>2026-04-25T10:17:23.999Z</time></trkpt><trkpt lat="44.805337650357465" lon="7.186170131340274"><ele>642.4000000000001</ele><time>2026-04-25T10:17:24.999Z</time></trkpt><trkpt lat="44.80530156670903" lon="7.186046980120875"><ele>641.6</ele><time>2026-04-25T10:17:25.999Z</time></trkpt><trkpt lat="44.80528365893043" lon="7.185912533632756"><ele>640.8</ele><time>2026-04-25T10:17:26.999Z</time></trkpt><trkpt lat="44.80524724287933" lon="7.185751057217799"><ele>640.0</ele><time>2026-04-25T10:17:27.999Z</time></trkpt><trkpt lat="44.80524552780417" lon="7.185607876099809"><ele>640.0</ele><time>2026-04-25T10:17:28.999Z</time></trkpt><trkpt lat="44.805236529671745" lon="7.185466326305308"><ele>640.0</ele><time>2026-04-25T10:17:29.999Z</time></trkpt><trkpt lat="44.805233006783546" lon="7.1853154158565635"><ele>640.0</ele><time>2026-04-25T10:17:30.999Z</time></trkpt><trkpt lat="44.80523169614242" lon="7.185145698182616"><ele>640.0</ele><time>2026-04-25T10:17:31.999Z</time></trkpt><trkpt lat="44.80521622422199" lon="7.184987752528939"><ele>640.0</ele><time>2026-04-25T10:17:32.999Z</time></trkpt><trkpt lat="44.805219549815405" lon="7.184845501679463"><ele>641.0</ele><time>2026-04-25T10:17:33.999Z</time></trkpt><trkpt lat="44.80520992956718" lon="7.184684254566866"><ele>642.0</ele><time>2026-04-25T10:17:34.999Z</time></trkpt><trkpt lat="44.8051912154612" lon="7.184509114036392"><ele>643.0</ele><time>2026-04-25T10:17:35.999Z</time></trkpt><trkpt lat="44.80518487198181" lon="7.184358767941246"><ele>644.0</ele><time>2026-04-25T10:17:36.999Z</time></trkpt><trkpt lat="44.80518252524399" lon="7.184236170645227"><ele>645.0</ele><time>2026-04-25T10:17:37.999Z</time></trkpt><trkpt lat="44.80518429270862" lon="7.1841130988448025"><ele>646.6</ele><time>2026-04-25T10:17:38.999Z</time></trkpt><trkpt lat="44.80518533717061" lon="7.183980342073306"><ele>648.2</ele><time>2026-04-25T10:17:39.999Z</time></trkpt><trkpt lat="44.80517564758046" lon="7.183844692629747"><ele>649.8</ele><time>2026-04-25T10:17:40.999Z</time></trkpt><trkpt lat="44.80516199807726" lon="7.183708212764365"><ele>651.4</ele><time>2026-04-25T10:17:41.998Z</time></trkpt><trkpt lat="44.8051492170549" lon="7.183562261517105"><ele>653.0</ele><time>2026-04-25T10:17:42.998Z</time></trkpt><trkpt lat="44.80513606889443" lon="7.183405421417195"><ele>659.2</ele><time>2026-04-25T10:17:43.998Z</time></trkpt><trkpt lat="44.805129707472325" lon="7.183254136220873"><ele>665.4</ele><time>2026-04-25T10:17:44.998Z</time></trkpt><trkpt lat="44.80511986743016" lon="7.183096383426379"><ele>671.6</ele><time>2026-04-25T10:17:45.998Z</time></trkpt><trkpt lat="44.80511394722798" lon="7.182939386732331"><ele>677.8000000000001</ele><time>2026-04-25T10:17:46.998Z</time></trkpt><trkpt lat="44.80513053134919" lon="7.182792458368061"><ele>684.0</ele><time>2026-04-25T10:17:47.998Z</time></trkpt><trkpt lat="44.805136249995805" lon="7.18265184010943"><ele>684.0</ele><time>2026-04-25T10:17:48.998Z</time></trkpt><trkpt lat="44.8051418420688" lon="7.182519975613659"><ele>684.0</ele><time>2026-04-25T10:17:49.998Z</time></trkpt><trkpt lat="44.80514639142667" lon="7.182412698545167"><ele>684.0</ele><time>2026-04-25T10:17:50.998Z</time></trkpt><trkpt lat="44.80515720514128" lon="7.182277751378296"><ele>684.0</ele><time>2026-04-25T10:17:52.998Z</time></trkpt><trkpt lat="44.80516717621152" lon="7.182175172514427"><ele>684.0</ele><time>2026-04-25T10:17:54.998Z</time></trkpt><trkpt lat="44.80517614164005" lon="7.182010365792458"><ele>684.1666666666666</ele><time>2026-04-25T10:17:56.998Z</time></trkpt><trkpt lat="44.8051635934287" lon="7.181923047658852"><ele>684.3333333333334</ele><time>2026-04-25T10:17:57.998Z</time></trkpt><trkpt lat="44.805149308529735" lon="7.181796088267235"><ele>684.5</ele><time>2026-04-25T10:17:59.998Z</time></trkpt><trkpt lat="44.80513042372521" lon="7.181684730664623"><ele>684.6666666666667</ele><time>2026-04-25T10:18:01.998Z</time></trkpt><trkpt lat="44.80511531008718" lon="7.181592953816322"><ele>684.8333333333334</ele><time>2026-04-25T10:18:02.998Z</time></trkpt><trkpt lat="44.805081361913636" lon="7.181467230839652"><ele>685.0</ele><time>2026-04-25T10:18:03.998Z</time></trkpt><trkpt lat="44.80503457388033" lon="7.181338606011327"><ele>684.0</ele><time>2026-04-25T10:18:04.998Z</time></trkpt><trkpt lat="44.80496229485078" lon="7.181198125296407"><ele>683.0</ele><time>2026-04-25T10:18:05.998Z</time></trkpt><trkpt lat="44.8048800628445" lon="7.181089825812783"><ele>682.0</ele><time>2026-04-25T10:18:06.998Z</time></trkpt><trkpt lat="44.80479367946906" lon="7.180951310557906"><ele>681.0</ele><time>2026-04-25T10:18:07.998Z</time></trkpt><trkpt lat="44.80468987292919" lon="7.1808284014932555"><ele>681.0</ele><time>2026-04-25T10:18:08.998Z</time></trkpt><trkpt lat="44.80461411642485" lon="7.180728824127787"><ele>681.0</ele><time>2026-04-25T10:18:09.998Z</time></trkpt><trkpt lat="44.80453831782386" lon="7.180633400216366"><ele>681.0</ele><time>2026-04-25T10:18:10.998Z</time></trkpt><trkpt lat="44.804486448266566" lon="7.180524109144171"><ele>681.0</ele><time>2026-04-25T10:18:11.998Z</time></trkpt><trkpt lat="44.80445868175168" lon="7.180418957043081"><ele>681.0</ele><time>2026-04-25T10:18:12.998Z</time></trkpt><trkpt lat="44.804444956425186" lon="7.180315735055568"><ele>679.0</ele><time>2026-04-25T10:18:13.998Z</time></trkpt><trkpt lat="44.804423430660556" lon="7.180178255271729"><ele>677.0</ele><time>2026-04-25T10:18:14.998Z</time></trkpt><trkpt lat="44.80440664437735" lon="7.1800312551357095"><ele>675.0</ele><time>2026-04-25T10:18:15.998Z</time></trkpt><trkpt lat="44.8043981948268" lon="7.179817569351386"><ele>673.0</ele><time>2026-04-25T10:18:16.998Z</time></trkpt><trkpt lat="44.804391265201616" lon="7.179640406477165"><ele>671.5</ele><time>2026-04-25T10:18:17.998Z</time></trkpt><trkpt lat="44.804386851147264" lon="7.179466214296098"><ele>670.0</ele><time>2026-04-25T10:18:18.998Z</time></trkpt><trkpt lat="44.804384045641406" lon="7.179289743900567"><ele>668.5</ele><time>2026-04-25T10:18:19.998Z</time></trkpt><trkpt lat="44.804385000217195" lon="7.1790974243954055"><ele>667.0</ele><time>2026-04-25T10:18:20.998Z</time></trkpt><trkpt lat="44.804379510451696" lon="7.178845765891796"><ele>665.75</ele><time>2026-04-25T10:18:21.998Z</time></trkpt><trkpt lat="44.80441098313858" lon="7.178651772520081"><ele>664.5</ele><time>2026-04-25T10:18:22.998Z</time></trkpt><trkpt lat="44.80441527187775" lon="7.178439002877096"><ele>663.25</ele><time>2026-04-25T10:18:23.998Z</time></trkpt><trkpt lat="44.80443566648899" lon="7.178254861951512"><ele>662.0</ele><time>2026-04-25T10:18:25Z</time></trkpt><trkpt lat="44.804435912920965" lon="7.178139231108874"><ele>661.4000000000001</ele><time>2026-04-25T10:18:26Z</time></trkpt><trkpt lat="44.80441223220613" lon="7.178027311969342"><ele>660.8000000000001</ele><time>2026-04-25T10:18:27Z</time></trkpt><trkpt lat="44.80437859340049" lon="7.177905674696706"><ele>660.2</ele><time>2026-04-25T10:18:28Z</time></trkpt><trkpt lat="44.80431955266661" lon="7.177780877120734"><ele>659.6</ele><time>2026-04-25T10:18:29Z</time></trkpt><trkpt lat="44.8042612651577" lon="7.177673608442247"><ele>659.0</ele><time>2026-04-25T10:18:30Z</time></trkpt><trkpt lat="44.80422037579161" lon="7.1775613926601665"><ele>668.75</ele><time>2026-04-25T10:18:31Z</time></trkpt><trkpt lat="44.804180987137165" lon="7.177401931182191"><ele>678.5</ele><time>2026-04-25T10:18:32Z</time></trkpt><trkpt lat="44.80412166566385" lon="7.177194985537608"><ele>688.25</ele><time>2026-04-25T10:18:33Z</time></trkpt><trkpt lat="44.80405358845076" lon="7.177016835947881"><ele>698.0</ele><time>2026-04-25T10:18:34Z</time></trkpt><trkpt lat="44.80397431000467" lon="7.17684393580694"><ele>698.0</ele><time>2026-04-25T10:18:35Z</time></trkpt><trkpt lat="44.8038806387654" lon="7.1767146358821226"><ele>698.0</ele><time>2026-04-25T10:18:36Z</time></trkpt><trkpt lat="44.80381333697546" lon="7.176553139347821"><ele>698.0</ele><time>2026-04-25T10:18:37Z</time></trkpt><trkpt lat="44.80374937204434" lon="7.176383419289238"><ele>698.0</ele><time>2026-04-25T10:18:38Z</time></trkpt><trkpt lat="44.803696905395135" lon="7.176230444357135"><ele>699.1666666666666</ele><time>2026-04-25T10:18:39Z</time></trkpt><trkpt lat="44.803666447107275" lon="7.176086458828185"><ele>700.3333333333333</ele><time>2026-04-25T10:18:40Z</time></trkpt><trkpt lat="44.8036363159934" lon="7.1759677865737395"><ele>701.5</ele><time>2026-04-25T10:18:41Z</time></trkpt><trkpt lat="44.803610275202445" lon="7.1758599247807595"><ele>702.6666666666666</ele><time>2026-04-25T10:18:42Z</time></trkpt><trkpt lat="44.80355569942918" lon="7.1757684875189005"><ele>703.8333333333334</ele><time>2026-04-25T10:18:43Z</time></trkpt><trkpt lat="44.80351791604815" lon="7.175677841119119"><ele>705.0</ele><time>2026-04-25T10:18:44Z</time></trkpt><trkpt lat="44.803453109192525" lon="7.175648896762958"><ele>709.0</ele><time>2026-04-25T10:18:46Z</time></trkpt><trkpt lat="44.80333848264884" lon="7.175701238007471"><ele>713.0</ele><time>2026-04-25T10:18:48Z</time></trkpt><trkpt lat="44.803311695933296" lon="7.17578984597354"><ele>717.0</ele><time>2026-04-25T10:18:49Z</time></trkpt><trkpt lat="44.80334458303288" lon="7.175890499721155"><ele>721.0</ele><time>2026-04-25T10:18:50Z</time></trkpt><trkpt lat="44.80342961674252" lon="7.1760242721033745"><ele>725.0</ele><time>2026-04-25T10:18:52Z</time></trkpt><trkpt lat="44.803496846823606" lon="7.176115008400188"><ele>719.6</ele><time>2026-04-25T10:18:53Z</time></trkpt><trkpt lat="44.80355170201434" lon="7.17620096728896"><ele>714.2</ele><time>2026-04-25T10:18:54Z</time></trkpt><trkpt lat="44.803589602007634" lon="7.176313501414518"><ele>708.8</ele><time>2026-04-25T10:18:55Z</time></trkpt><trkpt lat="44.80364307792843" lon="7.176452678424762"><ele>703.4</ele><time>2026-04-25T10:18:56Z</time></trkpt><trkpt lat="44.80365789981362" lon="7.176625982953662"><ele>698.0</ele><time>2026-04-25T10:18:57Z</time></trkpt><trkpt lat="44.8036885150254" lon="7.176794961378492"><ele>698.0</ele><time>2026-04-25T10:18:58Z</time></trkpt><trkpt lat="44.803717368557216" lon="7.176962461925905"><ele>698.0</ele><time>2026-04-25T10:18:59Z</time></trkpt><trkpt lat="44.80374868558283" lon="7.177163169086336"><ele>698.0</ele><time>2026-04-25T10:19:00Z</time></trkpt><trkpt lat="44.803780401286" lon="7.17736925879595"><ele>698.0</ele><time>2026-04-25T10:19:00.999Z</time></trkpt><trkpt lat="44.80381378996729" lon="7.177596465578288"><ele>703.6666666666666</ele><time>2026-04-25T10:19:01.999Z</time></trkpt><trkpt lat="44.80384357862009" lon="7.177814242433395"><ele>709.3333333333334</ele><time>2026-04-25T10:19:02.999Z</time></trkpt><trkpt lat="44.80386635367919" lon="7.178030115638577"><ele>715.0</ele><time>2026-04-25T10:19:03.999Z</time></trkpt><trkpt lat="44.80388085206178" lon="7.178234718134678"><ele>717.0</ele><time>2026-04-25T10:19:04.999Z</time></trkpt><trkpt lat="44.803885124773615" lon="7.178412030019926"><ele>719.0</ele><time>2026-04-25T10:19:05.999Z</time></trkpt><trkpt lat="44.80388006583136" lon="7.178585660426447"><ele>721.0</ele><time>2026-04-25T10:19:06.999Z</time></trkpt><trkpt lat="44.8038672070774" lon="7.178754402937474"><ele>723.0</ele><time>2026-04-25T10:19:07.999Z</time></trkpt><trkpt lat="44.80385269604304" lon="7.178934144442356"><ele>722.5</ele><time>2026-04-25T10:19:08.999Z</time></trkpt><trkpt lat="44.803786146891824" lon="7.179135291486398"><ele>722.0</ele><time>2026-04-25T10:19:09.999Z</time></trkpt><trkpt lat="44.80377193582612" lon="7.179318420970272"><ele>721.5</ele><time>2026-04-25T10:19:10.999Z</time></trkpt><trkpt lat="44.80374880018314" lon="7.179480204648625"><ele>721.0</ele><time>2026-04-25T10:19:11.999Z</time></trkpt><trkpt lat="44.803716207318125" lon="7.179632921168571"><ele>721.0</ele><time>2026-04-25T10:19:12.999Z</time></trkpt><trkpt lat="44.80370806310257" lon="7.179826827489769"><ele>721.0</ele><time>2026-04-25T10:19:13.999Z</time></trkpt><trkpt lat="44.803682579274316" lon="7.18001604849077"><ele>721.0</ele><time>2026-04-25T10:19:14.999Z</time></trkpt><trkpt lat="44.80365231024067" lon="7.180202788389255"><ele>721.0</ele><time>2026-04-25T10:19:15.999Z</time></trkpt><trkpt lat="44.80362581466108" lon="7.18035027802217"><ele>720.4</ele><time>2026-04-25T10:19:16.999Z</time></trkpt><trkpt lat="44.8035986679588" lon="7.180467853979147"><ele>719.8</ele><time>2026-04-25T10:19:17.999Z</time></trkpt><trkpt lat="44.80355575322559" lon="7.180583113169302"><ele>719.1999999999999</ele><time>2026-04-25T10:19:18.999Z</time></trkpt><trkpt lat="44.80349331871988" lon="7.180698655855906"><ele>718.5999999999999</ele><time>2026-04-25T10:19:19.999Z</time></trkpt><trkpt lat="44.80343301500421" lon="7.180780695653782"><ele>718.0</ele><time>2026-04-25T10:19:20.999Z</time></trkpt><trkpt lat="44.80335661692906" lon="7.180874589454579"><ele>726.2</ele><time>2026-04-25T10:19:21.999Z</time></trkpt><trkpt lat="44.80329163436759" lon="7.180929051057676"><ele>734.4</ele><time>2026-04-25T10:19:22.999Z</time></trkpt><trkpt lat="44.80322901872007" lon="7.180955175249776"><ele>742.6</ele><time>2026-04-25T10:19:23.999Z</time></trkpt><trkpt lat="44.80312816544756" lon="7.180983002924561"><ele>750.8000000000001</ele><time>2026-04-25T10:19:24.999Z</time></trkpt><trkpt lat="44.80301253993976" lon="7.1809673035551675"><ele>759.0</ele><time>2026-04-25T10:19:25.999Z</time></trkpt><trkpt lat="44.80291945187086" lon="7.18097534983029"><ele>759.0</ele><time>2026-04-25T10:19:26.999Z</time></trkpt><trkpt lat="44.80285322594074" lon="7.181039830475381"><ele>759.0</ele><time>2026-04-25T10:19:27.999Z</time></trkpt><trkpt lat="44.80275803694544" lon="7.181138498784392"><ele>759.0</ele><time>2026-04-25T10:19:28.999Z</time></trkpt><trkpt lat="44.80271245798714" lon="7.1812884840428755"><ele>759.0</ele><time>2026-04-25T10:19:29.999Z</time></trkpt><trkpt lat="44.80267874451325" lon="7.181443541468071"><ele>759.0</ele><time>2026-04-25T10:19:30.999Z</time></trkpt><trkpt lat="44.80265067562874" lon="7.181613137025217"><ele>766.25</ele><time>2026-04-25T10:19:31.999Z</time></trkpt><trkpt lat="44.80263135004211" lon="7.1818165768319915"><ele>773.5</ele><time>2026-04-25T10:19:32.999Z</time></trkpt><trkpt lat="44.80263293555034" lon="7.182004133392589"><ele>780.75</ele><time>2026-04-25T10:19:33.999Z</time></trkpt><trkpt lat="44.80265812970257" lon="7.182172917471156"><ele>788.0</ele><time>2026-04-25T10:19:34.999Z</time></trkpt><trkpt lat="44.80266383335751" lon="7.182337274050666"><ele>781.75</ele><time>2026-04-25T10:19:35.999Z</time></trkpt><trkpt lat="44.80266457521803" lon="7.182488023571251"><ele>775.5</ele><time>2026-04-25T10:19:36.999Z</time></trkpt><trkpt lat="44.802677399485646" lon="7.182653012034925"><ele>769.25</ele><time>2026-04-25T10:19:37.999Z</time></trkpt><trkpt lat="44.802696050950956" lon="7.182819072845963"><ele>763.0</ele><time>2026-04-25T10:19:38.999Z</time></trkpt><trkpt lat="44.80272416755022" lon="7.182981160885701"><ele>763.0</ele><time>2026-04-25T10:19:39.999Z</time></trkpt><trkpt lat="44.802756714450595" lon="7.183100216878256"><ele>763.0</ele><time>2026-04-25T10:19:40.999Z</time></trkpt><trkpt lat="44.8027983656695" lon="7.183217477227201"><ele>763.0</ele><time>2026-04-25T10:19:41.999Z</time></trkpt><trkpt lat="44.802848350480765" lon="7.183299374986908"><ele>763.0</ele><time>2026-04-25T10:19:42.999Z</time></trkpt><trkpt lat="44.8029195515495" lon="7.183350277885719"><ele>763.0</ele><time>2026-04-25T10:19:43.999Z</time></trkpt><trkpt lat="44.80304817668293" lon="7.18333185587457"><ele>763.0</ele><time>2026-04-25T10:19:45.999Z</time></trkpt><trkpt lat="44.803101228827465" lon="7.183243915295698"><ele>763.0</ele><time>2026-04-25T10:19:46.999Z</time></trkpt><trkpt lat="44.80325223140813" lon="7.183129029806216"><ele>763.0</ele><time>2026-04-25T10:19:48.998Z</time></trkpt><trkpt lat="44.80331560141335" lon="7.183091906746539"><ele>763.0</ele><time>2026-04-25T10:19:49.998Z</time></trkpt><trkpt lat="44.80345143890465" lon="7.183145183980303"><ele>760.0</ele><time>2026-04-25T10:19:51.998Z</time></trkpt><trkpt lat="44.803544181551" lon="7.183222597481777"><ele>757.0</ele><time>2026-04-25T10:19:52.998Z</time></trkpt><trkpt lat="44.80359869782158" lon="7.183287222627254"><ele>754.0</ele><time>2026-04-25T10:19:53.998Z</time></trkpt><trkpt lat="44.803642460705525" lon="7.1833561971255"><ele>751.0</ele><time>2026-04-25T10:19:54.998Z</time></trkpt><trkpt lat="44.80353853664413" lon="7.183455995720458"><ele>748.0</ele><time>2026-04-25T10:19:58.998Z</time></trkpt><trkpt lat="44.80342317680999" lon="7.183472393255278"><ele>755.75</ele><time>2026-04-25T10:19:59.998Z</time></trkpt><trkpt lat="44.80330664850458" lon="7.183509373100677"><ele>763.5</ele><time>2026-04-25T10:20:00.998Z</time></trkpt><trkpt lat="44.8031843536965" lon="7.183527068383498"><ele>771.25</ele><time>2026-04-25T10:20:01.998Z</time></trkpt><trkpt lat="44.80304925599193" lon="7.183597620114152"><ele>779.0</ele><time>2026-04-25T10:20:02.998Z</time></trkpt><trkpt lat="44.80288266335007" lon="7.183618330253458"><ele>779.0</ele><time>2026-04-25T10:20:03.998Z</time></trkpt><trkpt lat="44.8027566088813" lon="7.183614278372029"><ele>779.0</ele><time>2026-04-25T10:20:04.998Z</time></trkpt><trkpt lat="44.8026557005781" lon="7.183562806158907"><ele>779.0</ele><time>2026-04-25T10:20:05.998Z</time></trkpt><trkpt lat="44.80264034958384" lon="7.183434294177449"><ele>779.0</ele><time>2026-04-25T10:20:07.998Z</time></trkpt><trkpt lat="44.80258509973534" lon="7.183323585330072"><ele>779.0</ele><time>2026-04-25T10:20:08.998Z</time></trkpt><trkpt lat="44.802548326488285" lon="7.183219589242094"><ele>781.2</ele><time>2026-04-25T10:20:09.998Z</time></trkpt><trkpt lat="44.802524958408476" lon="7.183096212504467"><ele>783.4000000000001</ele><time>2026-04-25T10:20:10.998Z</time></trkpt><trkpt lat="44.80249204852621" lon="7.182928354725523"><ele>785.6</ele><time>2026-04-25T10:20:12.998Z</time></trkpt><trkpt lat="44.802473368609455" lon="7.182795392377372"><ele>787.8</ele><time>2026-04-25T10:20:13.998Z</time></trkpt><trkpt lat="44.80244565461873" lon="7.182689495283881"><ele>790.0</ele><time>2026-04-25T10:20:14.998Z</time></trkpt><trkpt lat="44.802410173092376" lon="7.182605988364212"><ele>790.0</ele><time>2026-04-25T10:20:16.998Z</time></trkpt><trkpt lat="44.80230644725207" lon="7.182703198895554"><ele>790.0</ele><time>2026-04-25T10:20:18.998Z</time></trkpt><trkpt lat="44.80229859653195" lon="7.182816846362777"><ele>790.0</ele><time>2026-04-25T10:20:20.998Z</time></trkpt><trkpt lat="44.80224954195858" lon="7.183152605087635"><ele>790.0</ele><time>2026-04-25T10:20:25.998Z</time></trkpt><trkpt lat="44.80221436735818" lon="7.18329081087635"><ele>792.25</ele><time>2026-04-25T10:20:27.998Z</time></trkpt><trkpt lat="44.80216356021458" lon="7.183481310050621"><ele>794.5</ele><time>2026-04-25T10:20:28.998Z</time></trkpt><trkpt lat="44.80211617456538" lon="7.183550867395778"><ele>796.75</ele><time>2026-04-25T10:20:29.998Z</time></trkpt><trkpt lat="44.80205176193438" lon="7.183735331625315"><ele>799.0</ele><time>2026-04-25T10:20:32Z</time></trkpt><trkpt lat="44.802052716112804" lon="7.183897262356378"><ele>802.5</ele><time>2026-04-25T10:20:33Z</time></trkpt><trkpt lat="44.802176969208865" lon="7.1840878021804"><ele>806.0</ele><time>2026-04-25T10:20:34Z</time></trkpt><trkpt lat="44.80224885115729" lon="7.184166836222813"><ele>809.5</ele><time>2026-04-25T10:20:35Z</time></trkpt><trkpt lat="44.80230953174457" lon="7.184275976492147"><ele>813.0</ele><time>2026-04-25T10:20:36Z</time></trkpt><trkpt lat="44.80235992176346" lon="7.184394490118326"><ele>813.0</ele><time>2026-04-25T10:20:37Z</time></trkpt><trkpt lat="44.802409331355555" lon="7.184528594646232"><ele>813.0</ele><time>2026-04-25T10:20:38Z</time></trkpt><trkpt lat="44.80246043036819" lon="7.184694365443809"><ele>813.0</ele><time>2026-04-25T10:20:39Z</time></trkpt><trkpt lat="44.80250755043884" lon="7.184863167077174"><ele>813.0</ele><time>2026-04-25T10:20:40Z</time></trkpt><trkpt lat="44.80255907418907" lon="7.185074824263532"><ele>811.0</ele><time>2026-04-25T10:20:41Z</time></trkpt><trkpt lat="44.80261873537431" lon="7.1852767326957965"><ele>809.0</ele><time>2026-04-25T10:20:42Z</time></trkpt><trkpt lat="44.80267196293059" lon="7.185450272413156"><ele>807.0</ele><time>2026-04-25T10:20:43Z</time></trkpt><trkpt lat="44.802717944580216" lon="7.185588007197219"><ele>805.0</ele><time>2026-04-25T10:20:44Z</time></trkpt><trkpt lat="44.802772875088216" lon="7.185738913039477"><ele>805.0</ele><time>2026-04-25T10:20:45Z</time></trkpt><trkpt lat="44.802810608065066" lon="7.185829233981057"><ele>805.0</ele><time>2026-04-25T10:20:46Z</time></trkpt><trkpt lat="44.80286460523442" lon="7.1859579217402985"><ele>805.0</ele><time>2026-04-25T10:20:47Z</time></trkpt><trkpt lat="44.80291520429139" lon="7.1860756408966315"><ele>805.0</ele><time>2026-04-25T10:20:48Z</time></trkpt><trkpt lat="44.80295180184989" lon="7.186175335364363"><ele>805.0</ele><time>2026-04-25T10:20:49Z</time></trkpt><trkpt lat="44.80298863091654" lon="7.186316688541316"><ele>805.0</ele><time>2026-04-25T10:20:51Z</time></trkpt><trkpt lat="44.80294037471569" lon="7.186438636851798"><ele>805.0</ele><time>2026-04-25T10:20:54Z</time></trkpt><trkpt lat="44.802847380290665" lon="7.186576733932298"><ele>805.0</ele><time>2026-04-25T10:20:55Z</time></trkpt><trkpt lat="44.802733375713025" lon="7.186673768092398"><ele>805.0</ele><time>2026-04-25T10:20:56Z</time></trkpt><trkpt lat="44.80266527250475" lon="7.186848100627521"><ele>816.6</ele><time>2026-04-25T10:20:57Z</time></trkpt><trkpt lat="44.80262769072015" lon="7.187007523000947"><ele>828.2</ele><time>2026-04-25T10:20:58Z</time></trkpt><trkpt lat="44.80258561059572" lon="7.187150931704675"><ele>839.8</ele><time>2026-04-25T10:20:59Z</time></trkpt><trkpt lat="44.80256474451334" lon="7.187312117448127"><ele>851.4</ele><time>2026-04-25T10:21:00Z</time></trkpt><trkpt lat="44.802543446282925" lon="7.187425466036594"><ele>863.0</ele><time>2026-04-25T10:21:01Z</time></trkpt><trkpt lat="44.802587076513944" lon="7.1876511641972005"><ele>863.8</ele><time>2026-04-25T10:21:03Z</time></trkpt><trkpt lat="44.80263294847527" lon="7.18785419268702"><ele>864.5999999999999</ele><time>2026-04-25T10:21:03.999Z</time></trkpt><trkpt lat="44.80267359800141" lon="7.188006972913314"><ele>865.4000000000001</ele><time>2026-04-25T10:21:04.999Z</time></trkpt><trkpt lat="44.802716177278306" lon="7.188137459109968"><ele>866.2</ele><time>2026-04-25T10:21:05.999Z</time></trkpt><trkpt lat="44.802739942961196" lon="7.188243075568815"><ele>867.0</ele><time>2026-04-25T10:21:06.999Z</time></trkpt><trkpt lat="44.802777470339166" lon="7.188334900906126"><ele>858.0</ele><time>2026-04-25T10:21:07.999Z</time></trkpt><trkpt lat="44.80284194194744" lon="7.188444969581457"><ele>849.0</ele><time>2026-04-25T10:21:08.999Z</time></trkpt><trkpt lat="44.802914372548685" lon="7.188580557144184"><ele>840.0</ele><time>2026-04-25T10:21:09.999Z</time></trkpt><trkpt lat="44.80294995634039" lon="7.1886858372690785"><ele>831.0</ele><time>2026-04-25T10:21:10.999Z</time></trkpt><trkpt lat="44.802919387721936" lon="7.188806175112127"><ele>822.0</ele><time>2026-04-25T10:21:12.999Z</time></trkpt><trkpt lat="44.802843792421925" lon="7.18885026739727"><ele>822.0</ele><time>2026-04-25T10:21:13.999Z</time></trkpt><trkpt lat="44.802752317999705" lon="7.188888342144345"><ele>822.0</ele><time>2026-04-25T10:21:14.999Z</time></trkpt><trkpt lat="44.802658641290336" lon="7.188919777604681"><ele>822.0</ele><time>2026-04-25T10:21:15.999Z</time></trkpt><trkpt lat="44.802552713068216" lon="7.188946130610285"><ele>822.0</ele><time>2026-04-25T10:21:16.999Z</time></trkpt><trkpt lat="44.80247554914904" lon="7.188982643434429"><ele>822.0</ele><time>2026-04-25T10:21:17.999Z</time></trkpt><trkpt lat="44.80242370119183" lon="7.189065879393045"><ele>830.8</ele><time>2026-04-25T10:21:18.999Z</time></trkpt><trkpt lat="44.80242746971279" lon="7.189157778521875"><ele>839.6</ele><time>2026-04-25T10:21:19.999Z</time></trkpt><trkpt lat="44.80250507797727" lon="7.1893235465967"><ele>848.3999999999999</ele><time>2026-04-25T10:21:21.999Z</time></trkpt><trkpt lat="44.802565255367334" lon="7.189444592840368"><ele>857.1999999999999</ele><time>2026-04-25T10:21:22.999Z</time></trkpt><trkpt lat="44.80261431820347" lon="7.189606520909417"><ele>866.0</ele><time>2026-04-25T10:21:23.999Z</time></trkpt><trkpt lat="44.80263403831494" lon="7.189795573966356"><ele>857.5</ele><time>2026-04-25T10:21:24.999Z</time></trkpt><trkpt lat="44.80266733082016" lon="7.190027128098376"><ele>849.0</ele><time>2026-04-25T10:21:25.999Z</time></trkpt><trkpt lat="44.802683607180946" lon="7.190223540461823"><ele>840.5</ele><time>2026-04-25T10:21:26.999Z</time></trkpt><trkpt lat="44.8026960711113" lon="7.190412694805963"><ele>832.0</ele><time>2026-04-25T10:21:27.999Z</time></trkpt><trkpt lat="44.802712659869634" lon="7.190582217090167"><ele>834.0</ele><time>2026-04-25T10:21:28.999Z</time></trkpt><trkpt lat="44.80271372927112" lon="7.190788817711434"><ele>836.0</ele><time>2026-04-25T10:21:29.999Z</time></trkpt><trkpt lat="44.802693772071365" lon="7.191037942598948"><ele>838.0</ele><time>2026-04-25T10:21:30.999Z</time></trkpt><trkpt lat="44.80270311590018" lon="7.191234880340248"><ele>838.0</ele><time>2026-04-25T10:21:31.999Z</time></trkpt><trkpt lat="44.802715110120474" lon="7.191394213101414"><ele>838.0</ele><time>2026-04-25T10:21:32.999Z</time></trkpt><trkpt lat="44.8027197773555" lon="7.191554369595873"><ele>838.0</ele><time>2026-04-25T10:21:33.999Z</time></trkpt><trkpt lat="44.802753764686095" lon="7.191709643491029"><ele>838.0</ele><time>2026-04-25T10:21:34.999Z</time></trkpt><trkpt lat="44.80276831259541" lon="7.191856643577315"><ele>838.0</ele><time>2026-04-25T10:21:35.999Z</time></trkpt><trkpt lat="44.80277164875079" lon="7.1920041424051036"><ele>839.5999999999999</ele><time>2026-04-25T10:21:36.999Z</time></trkpt><trkpt lat="44.802748746693304" lon="7.19213383892843"><ele>841.1999999999999</ele><time>2026-04-25T10:21:37.999Z</time></trkpt><trkpt lat="44.80276975755412" lon="7.192255165922705"><ele>842.8</ele><time>2026-04-25T10:21:38.999Z</time></trkpt><trkpt lat="44.80280675081416" lon="7.192366713896439"><ele>844.4</ele><time>2026-04-25T10:21:39.999Z</time></trkpt><trkpt lat="44.80285336024034" lon="7.192512092726097"><ele>846.0</ele><time>2026-04-25T10:21:40.999Z</time></trkpt><trkpt lat="44.802901940089846" lon="7.192634902931039"><ele>849.4</ele><time>2026-04-25T10:21:41.999Z</time></trkpt><trkpt lat="44.802932595481316" lon="7.192775757674817"><ele>852.8</ele><time>2026-04-25T10:21:42.999Z</time></trkpt><trkpt lat="44.802976893716746" lon="7.1929075738868535"><ele>856.1999999999999</ele><time>2026-04-25T10:21:43.999Z</time></trkpt><trkpt lat="44.803005658497895" lon="7.193036373695482"><ele>859.5999999999999</ele><time>2026-04-25T10:21:44.999Z</time></trkpt><trkpt lat="44.80301456237571" lon="7.193174506052261"><ele>863.0</ele><time>2026-04-25T10:21:45.999Z</time></trkpt><trkpt lat="44.80299907756197" lon="7.193336140889489"><ele>866.8</ele><time>2026-04-25T10:21:46.999Z</time></trkpt><trkpt lat="44.80299984261042" lon="7.193513216016549"><ele>870.5999999999999</ele><time>2026-04-25T10:21:47.999Z</time></trkpt><trkpt lat="44.80303012556444" lon="7.193668290325396"><ele>874.4000000000001</ele><time>2026-04-25T10:21:48.999Z</time></trkpt><trkpt lat="44.803060858989085" lon="7.193819073994385"><ele>878.2</ele><time>2026-04-25T10:21:49.998Z</time></trkpt><trkpt lat="44.80310943046065" lon="7.193932631232064"><ele>882.0</ele><time>2026-04-25T10:21:50.998Z</time></trkpt><trkpt lat="44.80318425676267" lon="7.194037167491438"><ele>885.0</ele><time>2026-04-25T10:21:51.998Z</time></trkpt><trkpt lat="44.803245436274075" lon="7.19418522900592"><ele>888.0</ele><time>2026-04-25T10:21:52.998Z</time></trkpt><trkpt lat="44.80330473427229" lon="7.194332542080537"><ele>891.0</ele><time>2026-04-25T10:21:53.998Z</time></trkpt><trkpt lat="44.8033651558339" lon="7.194469253429551"><ele>894.0</ele><time>2026-04-25T10:21:54.998Z</time></trkpt><trkpt lat="44.80342178956437" lon="7.194593649325574"><ele>894.0</ele><time>2026-04-25T10:21:55.998Z</time></trkpt><trkpt lat="44.80348534072141" lon="7.194716034763155"><ele>894.0000000000001</ele><time>2026-04-25T10:21:56.998Z</time></trkpt><trkpt lat="44.80353753145415" lon="7.19483897594653"><ele>894.0000000000001</ele><time>2026-04-25T10:21:57.998Z</time></trkpt><trkpt lat="44.80359116553397" lon="7.194968035603098"><ele>894.0</ele><time>2026-04-25T10:21:58.998Z</time></trkpt><trkpt lat="44.8036226857921" lon="7.195105591764268"><ele>894.0</ele><time>2026-04-25T10:21:59.998Z</time></trkpt><trkpt lat="44.80364905340187" lon="7.19523766173126"><ele>892.5</ele><time>2026-04-25T10:22:00.998Z</time></trkpt><trkpt lat="44.803680572246215" lon="7.195359430372587"><ele>891.0</ele><time>2026-04-25T10:22:01.998Z</time></trkpt><trkpt lat="44.80371484314069" lon="7.1954877379093505"><ele>889.5</ele><time>2026-04-25T10:22:02.998Z</time></trkpt><trkpt lat="44.80372290332889" lon="7.195618354220554"><ele>888.0</ele><time>2026-04-25T10:22:04.998Z</time></trkpt><trkpt lat="44.80365516663456" lon="7.195642078577688"><ele>886.5</ele><time>2026-04-25T10:22:05.998Z</time></trkpt><trkpt lat="44.803588178093634" lon="7.195634545425535"><ele>885.0</ele><time>2026-04-25T10:22:06.998Z</time></trkpt><trkpt lat="44.803518783914804" lon="7.195579750784482"><ele>890.0</ele><time>2026-04-25T10:22:07.998Z</time></trkpt><trkpt lat="44.80345503988302" lon="7.19549428668191"><ele>895.0</ele><time>2026-04-25T10:22:08.998Z</time></trkpt><trkpt lat="44.80339977379384" lon="7.195375017449539"><ele>900.0</ele><time>2026-04-25T10:22:09.998Z</time></trkpt><trkpt lat="44.80333188388781" lon="7.195226014199446"><ele>905.0</ele><time>2026-04-25T10:22:10.998Z</time></trkpt><trkpt lat="44.80327093804964" lon="7.195113223607471"><ele>910.0</ele><time>2026-04-25T10:22:11.998Z</time></trkpt><trkpt lat="44.80319217993598" lon="7.195023278729947"><ele>910.0</ele><time>2026-04-25T10:22:13.998Z</time></trkpt><trkpt lat="44.80311988772254" lon="7.194916548459804"><ele>910.0</ele><time>2026-04-25T10:22:15.998Z</time></trkpt><trkpt lat="44.80299423752155" lon="7.194818269702782"><ele>910.0</ele><time>2026-04-25T10:22:17.998Z</time></trkpt><trkpt lat="44.802904121938255" lon="7.194736961772943"><ele>910.0</ele><time>2026-04-25T10:22:18.998Z</time></trkpt><trkpt lat="44.80278706465662" lon="7.194686772678478"><ele>906.0</ele><time>2026-04-25T10:22:19.998Z</time></trkpt><trkpt lat="44.802730385350685" lon="7.194549816227964"><ele>902.0</ele><time>2026-04-25T10:22:20.998Z</time></trkpt><trkpt lat="44.80269263244522" lon="7.194377869367595"><ele>898.0</ele><time>2026-04-25T10:22:21.998Z</time></trkpt><trkpt lat="44.80264749559966" lon="7.194251079145492"><ele>894.0</ele><time>2026-04-25T10:22:22.998Z</time></trkpt><trkpt lat="44.80253084848472" lon="7.19408783945903"><ele>898.0</ele><time>2026-04-25T10:22:24.998Z</time></trkpt><trkpt lat="44.80246239768975" lon="7.193952532398963"><ele>902.0000000000001</ele><time>2026-04-25T10:22:25.998Z</time></trkpt><trkpt lat="44.802396741240074" lon="7.193816885087951"><ele>906.0000000000001</ele><time>2026-04-25T10:22:26.998Z</time></trkpt><trkpt lat="44.80233999197617" lon="7.193712825995071"><ele>910.0</ele><time>2026-04-25T10:22:27.998Z</time></trkpt><trkpt lat="44.802292319239704" lon="7.193597809010869"><ele>914.0</ele><time>2026-04-25T10:22:28.998Z</time></trkpt><trkpt lat="44.802239190131694" lon="7.19350414740753"><ele>914.0</ele><time>2026-04-25T10:22:29.998Z</time></trkpt><trkpt lat="44.80216176852455" lon="7.193420892039963"><ele>914.0000000000001</ele><time>2026-04-25T10:22:30.998Z</time></trkpt><trkpt lat="44.80208787829874" lon="7.193364198541809"><ele>914.0000000000001</ele><time>2026-04-25T10:22:31.998Z</time></trkpt><trkpt lat="44.80204407335404" lon="7.193248819925128"><ele>914.0</ele><time>2026-04-25T10:22:32.998Z</time></trkpt><trkpt lat="44.80198201085893" lon="7.193158186824229"><ele>914.0</ele><time>2026-04-25T10:22:33.998Z</time></trkpt><trkpt lat="44.80190504986356" lon="7.193095584822915"><ele>920.4000000000001</ele><time>2026-04-25T10:22:34.998Z</time></trkpt><trkpt lat="44.80180519375946" lon="7.192993024838892"><ele>926.8000000000001</ele><time>2026-04-25T10:22:37Z</time></trkpt><trkpt lat="44.80175510508563" lon="7.192876048750884"><ele>933.1999999999999</ele><time>2026-04-25T10:22:38Z</time></trkpt><trkpt lat="44.80172828981857" lon="7.192764504872631"><ele>939.5999999999999</ele><time>2026-04-25T10:22:39Z</time></trkpt><trkpt lat="44.80171454288621" lon="7.1926382017255275"><ele>946.0</ele><time>2026-04-25T10:22:40Z</time></trkpt><trkpt lat="44.80170708218445" lon="7.192480656797025"><ele>946.0</ele><time>2026-04-25T10:22:41Z</time></trkpt><trkpt lat="44.80169234236859" lon="7.192317649373175"><ele>946.0</ele><time>2026-04-25T10:22:42Z</time></trkpt><trkpt lat="44.80167462394266" lon="7.192156150574881"><ele>946.0</ele><time>2026-04-25T10:22:43Z</time></trkpt><trkpt lat="44.801645031309825" lon="7.19192189640749"><ele>946.0</ele><time>2026-04-25T10:22:44Z</time></trkpt><trkpt lat="44.801625124385104" lon="7.191756341897491"><ele>946.0</ele><time>2026-04-25T10:22:45Z</time></trkpt><trkpt lat="44.80162775366782" lon="7.191633617834734"><ele>945.9999999999999</ele><time>2026-04-25T10:22:46Z</time></trkpt><trkpt lat="44.80162460821238" lon="7.1915214056554495"><ele>945.9999999999999</ele><time>2026-04-25T10:22:47Z</time></trkpt><trkpt lat="44.80162125591012" lon="7.191389914289224"><ele>946.0</ele><time>2026-04-25T10:22:48Z</time></trkpt><trkpt lat="44.80158414781017" lon="7.191289838626839"><ele>946.0</ele><time>2026-04-25T10:22:49Z</time></trkpt><trkpt lat="44.80152244410991" lon="7.191160184014502"><ele>943.5</ele><time>2026-04-25T10:22:50Z</time></trkpt><trkpt lat="44.80144701353249" lon="7.190987992062332"><ele>941.0</ele><time>2026-04-25T10:22:51Z</time></trkpt><trkpt lat="44.801362003436296" lon="7.190817988674696"><ele>938.5</ele><time>2026-04-25T10:22:52Z</time></trkpt><trkpt lat="44.801301150170424" lon="7.190695694338012"><ele>936.0</ele><time>2026-04-25T10:22:53Z</time></trkpt><trkpt lat="44.801230278510054" lon="7.190603054898179"><ele>931.0</ele><time>2026-04-25T10:22:54Z</time></trkpt><trkpt lat="44.80111727785139" lon="7.1905329576267105"><ele>926.0</ele><time>2026-04-25T10:22:55Z</time></trkpt><trkpt lat="44.801005442070725" lon="7.190460260372578"><ele>921.0</ele><time>2026-04-25T10:22:56Z</time></trkpt><trkpt lat="44.80090339547231" lon="7.190399461654679"><ele>916.0</ele><time>2026-04-25T10:22:57Z</time></trkpt><trkpt lat="44.80078633305719" lon="7.190313407272317"><ele>924.0</ele><time>2026-04-25T10:22:58Z</time></trkpt><trkpt lat="44.80072078084869" lon="7.190242709009994"><ele>931.9999999999999</ele><time>2026-04-25T10:22:59Z</time></trkpt><trkpt lat="44.800630018404846" lon="7.19017270001996"><ele>939.9999999999999</ele><time>2026-04-25T10:23:00Z</time></trkpt><trkpt lat="44.800562912246896" lon="7.190087556585759"><ele>948.0</ele><time>2026-04-25T10:23:01Z</time></trkpt><trkpt lat="44.800499120318456" lon="7.1899959408648835"><ele>956.0</ele><time>2026-04-25T10:23:02Z</time></trkpt><trkpt lat="44.800426714409525" lon="7.189872286944801"><ele>956.0000000000001</ele><time>2026-04-25T10:23:03Z</time></trkpt><trkpt lat="44.800374277491514" lon="7.189782596252552"><ele>956.0</ele><time>2026-04-25T10:23:04Z</time></trkpt><trkpt lat="44.80033601221395" lon="7.189696408723745"><ele>956.0</ele><time>2026-04-25T10:23:05Z</time></trkpt><trkpt lat="44.800308129815434" lon="7.189600916581982"><ele>956.0</ele><time>2026-04-25T10:23:06Z</time></trkpt><trkpt lat="44.80028223274893" lon="7.189506000277509"><ele>956.0000000000001</ele><time>2026-04-25T10:23:07Z</time></trkpt><trkpt lat="44.800285647131844" lon="7.189408265674035"><ele>956.0</ele><time>2026-04-25T10:23:07.999Z</time></trkpt><trkpt lat="44.800331547840244" lon="7.189305874787586"><ele>956.0</ele><time>2026-04-25T10:23:08.999Z</time></trkpt><trkpt lat="44.80039575167919" lon="7.18917587937132"><ele>955.9999999999999</ele><time>2026-04-25T10:23:09.999Z</time></trkpt><trkpt lat="44.8004498952962" lon="7.189074654165512"><ele>955.9999999999999</ele><time>2026-04-25T10:23:10.999Z</time></trkpt><trkpt lat="44.80050184432176" lon="7.188956964634255"><ele>956.0</ele><time>2026-04-25T10:23:11.999Z</time></trkpt><trkpt lat="44.80052544892815" lon="7.188857860947066"><ele>956.0</ele><time>2026-04-25T10:23:12.999Z</time></trkpt><trkpt lat="44.80056776389737" lon="7.188726048778041"><ele>958.25</ele><time>2026-04-25T10:23:14.999Z</time></trkpt><trkpt lat="44.800595318434766" lon="7.1885978385812"><ele>960.5</ele><time>2026-04-25T10:23:15.999Z</time></trkpt><trkpt lat="44.80053009279431" lon="7.188435463638528"><ele>962.75</ele><time>2026-04-25T10:23:17.999Z</time></trkpt><trkpt lat="44.80043494018931" lon="7.188317735369263"><ele>965.0</ele><time>2026-04-25T10:23:18.999Z</time></trkpt><trkpt lat="44.800345563115336" lon="7.188199444998626"><ele>962.5</ele><time>2026-04-25T10:23:19.999Z</time></trkpt><trkpt lat="44.800260038579204" lon="7.188066724794852"><ele>960.0</ele><time>2026-04-25T10:23:20.999Z</time></trkpt><trkpt lat="44.80017017252534" lon="7.187925927051383"><ele>957.5</ele><time>2026-04-25T10:23:21.999Z</time></trkpt><trkpt lat="44.80008296370955" lon="7.187778907731094"><ele>955.0</ele><time>2026-04-25T10:23:22.999Z</time></trkpt><trkpt lat="44.80001617811693" lon="7.187647818486829"><ele>956.25</ele><time>2026-04-25T10:23:23.999Z</time></trkpt><trkpt lat="44.799943013320494" lon="7.1875373991124"><ele>957.5</ele><time>2026-04-25T10:23:24.999Z</time></trkpt><trkpt lat="44.79984420782579" lon="7.187441865894688"><ele>958.75</ele><time>2026-04-25T10:23:25.999Z</time></trkpt><trkpt lat="44.79973161501672" lon="7.187350021299943"><ele>960.0</ele><time>2026-04-25T10:23:26.999Z</time></trkpt><trkpt lat="44.79964581399212" lon="7.187269841175533"><ele>960.0</ele><time>2026-04-25T10:23:27.999Z</time></trkpt><trkpt lat="44.79954997684612" lon="7.187207397505112"><ele>960.0</ele><time>2026-04-25T10:23:28.999Z</time></trkpt><trkpt lat="44.79946971445968" lon="7.18716665711398"><ele>960.0</ele><time>2026-04-25T10:23:29.999Z</time></trkpt><trkpt lat="44.79938916090196" lon="7.187119110896048"><ele>960.0</ele><time>2026-04-25T10:23:30.999Z</time></trkpt><trkpt lat="44.79933107491393" lon="7.187082336663635"><ele>960.0</ele><time>2026-04-25T10:23:31.999Z</time></trkpt><trkpt lat="44.79926468996812" lon="7.1870966815571045"><ele>960.0</ele><time>2026-04-25T10:23:33.999Z</time></trkpt><trkpt lat="44.79927291042926" lon="7.187233109037824"><ele>960.0</ele><time>2026-04-25T10:23:35.999Z</time></trkpt><trkpt lat="44.79942806851288" lon="7.187234875342596"><ele>960.0</ele><time>2026-04-25T10:23:37.999Z</time></trkpt><trkpt lat="44.799508559845464" lon="7.187242515425131"><ele>960.0</ele><time>2026-04-25T10:23:38.999Z</time></trkpt><trkpt lat="44.799599335845905" lon="7.187344878938649"><ele>960.0</ele><time>2026-04-25T10:23:39.999Z</time></trkpt><trkpt lat="44.799669082594235" lon="7.18750469305698"><ele>964.6</ele><time>2026-04-25T10:23:40.999Z</time></trkpt><trkpt lat="44.79970841809746" lon="7.187677939068559"><ele>969.2</ele><time>2026-04-25T10:23:41.999Z</time></trkpt><trkpt lat="44.79972969512472" lon="7.1878469532239135"><ele>973.8</ele><time>2026-04-25T10:23:42.999Z</time></trkpt><trkpt lat="44.79975686529607" lon="7.1880049368365775"><ele>978.4</ele><time>2026-04-25T10:23:43.999Z</time></trkpt><trkpt lat="44.79981241785918" lon="7.188091567957355"><ele>983.0</ele><time>2026-04-25T10:23:44.999Z</time></trkpt><trkpt lat="44.799853994332175" lon="7.18822398673256"><ele>986.4</ele><time>2026-04-25T10:23:45.999Z</time></trkpt><trkpt lat="44.79988922345639" lon="7.188357516315485"><ele>989.8</ele><time>2026-04-25T10:23:46.999Z</time></trkpt><trkpt lat="44.7998835332156" lon="7.188466924506314"><ele>993.2</ele><time>2026-04-25T10:23:47.999Z</time></trkpt><trkpt lat="44.79987042299635" lon="7.188582279974941"><ele>996.6</ele><time>2026-04-25T10:23:48.999Z</time></trkpt><trkpt lat="44.79982680482999" lon="7.188725906735782"><ele>1000.0</ele><time>2026-04-25T10:23:49.999Z</time></trkpt><trkpt lat="44.7997870495997" lon="7.188879899712032"><ele>1000.0</ele><time>2026-04-25T10:23:50.999Z</time></trkpt><trkpt lat="44.79973257365797" lon="7.189008552684701"><ele>1000.0</ele><time>2026-04-25T10:23:51.999Z</time></trkpt><trkpt lat="44.79965935722887" lon="7.189146465130917"><ele>1000.0</ele><time>2026-04-25T10:23:52.999Z</time></trkpt><trkpt lat="44.799594560670236" lon="7.189266035368284"><ele>1000.0</ele><time>2026-04-25T10:23:53.999Z</time></trkpt><trkpt lat="44.79954803498782" lon="7.18936688506847"><ele>1000.0</ele><time>2026-04-25T10:23:54.998Z</time></trkpt><trkpt lat="44.79951052393872" lon="7.189463336721265"><ele>999.9999999999999</ele><time>2026-04-25T10:23:55.998Z</time></trkpt><trkpt lat="44.79949827441441" lon="7.189568141600363"><ele>1000.0</ele><time>2026-04-25T10:23:56.998Z</time></trkpt><trkpt lat="44.7995009210413" lon="7.189675002508901"><ele>1000.0</ele><time>2026-04-25T10:23:57.998Z</time></trkpt><trkpt lat="44.79950724944276" lon="7.189783263994538"><ele>1000.0</ele><time>2026-04-25T10:23:58.998Z</time></trkpt><trkpt lat="44.79954916795298" lon="7.189872043518647"><ele>999.9999999999999</ele><time>2026-04-25T10:23:59.998Z</time></trkpt><trkpt lat="44.799616513177156" lon="7.189997525793967"><ele>1000.0</ele><time>2026-04-25T10:24:00.998Z</time></trkpt><trkpt lat="44.79966268334798" lon="7.1901211038097035"><ele>1000.0</ele><time>2026-04-25T10:24:01.998Z</time></trkpt><trkpt lat="44.79968672416344" lon="7.190225222077045"><ele>1000.0</ele><time>2026-04-25T10:24:02.998Z</time></trkpt><trkpt lat="44.7996997427258" lon="7.190347905924097"><ele>1000.0</ele><time>2026-04-25T10:24:03.998Z</time></trkpt><trkpt lat="44.79972807805465" lon="7.1904723204461645"><ele>1000.0</ele><time>2026-04-25T10:24:04.998Z</time></trkpt><trkpt lat="44.7997733947364" lon="7.190617721040429"><ele>1000.0</ele><time>2026-04-25T10:24:05.998Z</time></trkpt><trkpt lat="44.79981449742966" lon="7.190769958241304"><ele>1003.0</ele><time>2026-04-25T10:24:06.998Z</time></trkpt><trkpt lat="44.7998446826206" lon="7.190930419601069"><ele>1006.0</ele><time>2026-04-25T10:24:07.998Z</time></trkpt><trkpt lat="44.799868273515116" lon="7.1910602102332755"><ele>1009.0</ele><time>2026-04-25T10:24:08.998Z</time></trkpt><trkpt lat="44.799898672289196" lon="7.191178373927866"><ele>1012.0</ele><time>2026-04-25T10:24:09.998Z</time></trkpt><trkpt lat="44.79993646847885" lon="7.191301367631855"><ele>1015.0</ele><time>2026-04-25T10:24:10.998Z</time></trkpt><trkpt lat="44.79999144474476" lon="7.191394135168395"><ele>1014.9999999999999</ele><time>2026-04-25T10:24:11.998Z</time></trkpt><trkpt lat="44.80003604767736" lon="7.191483028280716"><ele>1015.0</ele><time>2026-04-25T10:24:12.998Z</time></trkpt><trkpt lat="44.80007875862521" lon="7.1915858752632245"><ele>1015.0</ele><time>2026-04-25T10:24:13.998Z</time></trkpt><trkpt lat="44.80013297251481" lon="7.191691238358182"><ele>1015.0</ele><time>2026-04-25T10:24:14.998Z</time></trkpt><trkpt lat="44.800184046599895" lon="7.19179543799538"><ele>1014.9999999999999</ele><time>2026-04-25T10:24:15.998Z</time></trkpt><trkpt lat="44.80022906026757" lon="7.19190846497042"><ele>1015.0</ele><time>2026-04-25T10:24:16.998Z</time></trkpt><trkpt lat="44.80025884905683" lon="7.192017674654419"><ele>1013.2</ele><time>2026-04-25T10:24:17.998Z</time></trkpt><trkpt lat="44.800283900112845" lon="7.192150696761785"><ele>1011.4</ele><time>2026-04-25T10:24:18.998Z</time></trkpt><trkpt lat="44.800310417870506" lon="7.192303012268967"><ele>1009.5999999999999</ele><time>2026-04-25T10:24:19.998Z</time></trkpt><trkpt lat="44.800328770851905" lon="7.192440412435554"><ele>1007.8</ele><time>2026-04-25T10:24:20.998Z</time></trkpt><trkpt lat="44.8003500578944" lon="7.192599906848109"><ele>1006.0</ele><time>2026-04-25T10:24:21.998Z</time></trkpt><trkpt lat="44.80034576725004" lon="7.1927227585897535"><ele>1006.0</ele><time>2026-04-25T10:24:22.998Z</time></trkpt><trkpt lat="44.80031310193842" lon="7.192837316837841"><ele>1005.9999999999999</ele><time>2026-04-25T10:24:23.998Z</time></trkpt><trkpt lat="44.80026174202557" lon="7.192948875433748"><ele>1005.9999999999999</ele><time>2026-04-25T10:24:24.998Z</time></trkpt><trkpt lat="44.80020602002623" lon="7.193072063492782"><ele>1006.0</ele><time>2026-04-25T10:24:25.998Z</time></trkpt><trkpt lat="44.80020371449469" lon="7.1931963677847035"><ele>1006.0</ele><time>2026-04-25T10:24:26.998Z</time></trkpt><trkpt lat="44.8001753855094" lon="7.193315423641348"><ele>1008.5999999999999</ele><time>2026-04-25T10:24:27.998Z</time></trkpt><trkpt lat="44.80015863334959" lon="7.193458308873475"><ele>1011.1999999999999</ele><time>2026-04-25T10:24:28.998Z</time></trkpt><trkpt lat="44.800144485927966" lon="7.193607967651392"><ele>1013.8000000000001</ele><time>2026-04-25T10:24:29.998Z</time></trkpt><trkpt lat="44.80013706508905" lon="7.193753908238038"><ele>1016.4000000000001</ele><time>2026-04-25T10:24:30.998Z</time></trkpt><trkpt lat="44.80013773162577" lon="7.1939180429048255"><ele>1019.0</ele><time>2026-04-25T10:24:31.998Z</time></trkpt><trkpt lat="44.80017487989316" lon="7.194072763235218"><ele>1019.0</ele><time>2026-04-25T10:24:32.998Z</time></trkpt><trkpt lat="44.80018500174325" lon="7.194201607908586"><ele>1019.0</ele><time>2026-04-25T10:24:33.998Z</time></trkpt><trkpt lat="44.800198192904844" lon="7.194350522970079"><ele>1019.0</ele><time>2026-04-25T10:24:34.998Z</time></trkpt><trkpt lat="44.80019934834253" lon="7.194536411140561"><ele>1019.0</ele><time>2026-04-25T10:24:35.998Z</time></trkpt><trkpt lat="44.80020566360118" lon="7.194721888421"><ele>1021.0</ele><time>2026-04-25T10:24:36.998Z</time></trkpt><trkpt lat="44.800212675011316" lon="7.194903266163824"><ele>1023.0000000000001</ele><time>2026-04-25T10:24:37.998Z</time></trkpt><trkpt lat="44.80023229175051" lon="7.195047403375591"><ele>1025.0</ele><time>2026-04-25T10:24:38.998Z</time></trkpt><trkpt lat="44.80024464692081" lon="7.195165486840164"><ele>1027.0</ele><time>2026-04-25T10:24:39.998Z</time></trkpt><trkpt lat="44.80023688638195" lon="7.19528296245357"><ele>1029.0</ele><time>2026-04-25T10:24:40.998Z</time></trkpt><trkpt lat="44.80022854784499" lon="7.195382445776207"><ele>1029.0</ele><time>2026-04-25T10:24:41.997Z</time></trkpt><trkpt lat="44.80020574975533" lon="7.195499118322953"><ele>1029.0</ele><time>2026-04-25T10:24:43Z</time></trkpt><trkpt lat="44.80019405064675" lon="7.1956528961879345"><ele>1029.0</ele><time>2026-04-25T10:24:44Z</time></trkpt><trkpt lat="44.80018369469638" lon="7.195801088528238"><ele>1029.0</ele><time>2026-04-25T10:24:45Z</time></trkpt><trkpt lat="44.80016406769688" lon="7.195957293975023"><ele>1029.0</ele><time>2026-04-25T10:24:46Z</time></trkpt><trkpt lat="44.80016405073526" lon="7.196093516342051"><ele>1029.6666666666667</ele><time>2026-04-25T10:24:47Z</time></trkpt><trkpt lat="44.80019412424268" lon="7.196198922867147"><ele>1030.3333333333333</ele><time>2026-04-25T10:24:48Z</time></trkpt><trkpt lat="44.80021122548182" lon="7.196303805158352"><ele>1031.0</ele><time>2026-04-25T10:24:49Z</time></trkpt><trkpt lat="44.80023485568673" lon="7.19644214289864"><ele>1031.6666666666665</ele><time>2026-04-25T10:24:50Z</time></trkpt><trkpt lat="44.80025031626857" lon="7.196578726620103"><ele>1032.3333333333333</ele><time>2026-04-25T10:24:51Z</time></trkpt><trkpt lat="44.800283049502276" lon="7.196697231803354"><ele>1033.0</ele><time>2026-04-25T10:24:52Z</time></trkpt><trkpt lat="44.80032434150249" lon="7.1968237882916855"><ele>1034.4</ele><time>2026-04-25T10:24:53Z</time></trkpt><trkpt lat="44.80036215888451" lon="7.196948861639273"><ele>1035.8</ele><time>2026-04-25T10:24:54Z</time></trkpt><trkpt lat="44.80039552104622" lon="7.19706874703528"><ele>1037.2</ele><time>2026-04-25T10:24:55Z</time></trkpt><trkpt lat="44.800413993044614" lon="7.197204542882246"><ele>1038.6</ele><time>2026-04-25T10:24:56Z</time></trkpt><trkpt lat="44.800415593454254" lon="7.19735441708791"><ele>1040.0</ele><time>2026-04-25T10:24:57Z</time></trkpt><trkpt lat="44.80042430974529" lon="7.197498892167543"><ele>1041.8</ele><time>2026-04-25T10:24:58Z</time></trkpt><trkpt lat="44.800441001431174" lon="7.197663032112123"><ele>1043.6</ele><time>2026-04-25T10:24:59Z</time></trkpt><trkpt lat="44.800465882356065" lon="7.197801999966366"><ele>1045.4</ele><time>2026-04-25T10:25:00Z</time></trkpt><trkpt lat="44.80047331207103" lon="7.197944141650041"><ele>1047.2</ele><time>2026-04-25T10:25:01Z</time></trkpt><trkpt lat="44.800466227574034" lon="7.198101190432645"><ele>1049.0</ele><time>2026-04-25T10:25:02Z</time></trkpt><trkpt lat="44.80046683620565" lon="7.198237706340511"><ele>1051.6666666666667</ele><time>2026-04-25T10:25:03Z</time></trkpt><trkpt lat="44.80045765279471" lon="7.198375585900397"><ele>1054.3333333333335</ele><time>2026-04-25T10:25:04Z</time></trkpt><trkpt lat="44.80047067360721" lon="7.198489207266863"><ele>1057.0</ele><time>2026-04-25T10:25:05Z</time></trkpt><trkpt lat="44.80050864628543" lon="7.198573105494607"><ele>1059.6666666666667</ele><time>2026-04-25T10:25:06Z</time></trkpt><trkpt lat="44.80055766875899" lon="7.198652532391648"><ele>1062.3333333333333</ele><time>2026-04-25T10:25:07Z</time></trkpt><trkpt lat="44.80059503077431" lon="7.198753723590318"><ele>1065.0</ele><time>2026-04-25T10:25:08Z</time></trkpt><trkpt lat="44.80063532779366" lon="7.198858876442974"><ele>1065.0</ele><time>2026-04-25T10:25:09Z</time></trkpt><trkpt lat="44.80068159315322" lon="7.198971196717184"><ele>1065.0</ele><time>2026-04-25T10:25:10Z</time></trkpt><trkpt lat="44.80072058398499" lon="7.199075054049313"><ele>1065.0</ele><time>2026-04-25T10:25:11Z</time></trkpt><trkpt lat="44.80073118273351" lon="7.199202891194732"><ele>1065.0</ele><time>2026-04-25T10:25:11.999Z</time></trkpt><trkpt lat="44.80070722502076" lon="7.199316080491866"><ele>1065.0</ele><time>2026-04-25T10:25:12.999Z</time></trkpt><trkpt lat="44.800706293232956" lon="7.199437262705899"><ele>1065.0</ele><time>2026-04-25T10:25:13.999Z</time></trkpt><trkpt lat="44.8007451277691" lon="7.199575741350529"><ele>1064.25</ele><time>2026-04-25T10:25:14.999Z</time></trkpt><trkpt lat="44.80082331160923" lon="7.199719132216387"><ele>1063.5</ele><time>2026-04-25T10:25:15.999Z</time></trkpt><trkpt lat="44.80090992194133" lon="7.199855238658979"><ele>1062.75</ele><time>2026-04-25T10:25:16.999Z</time></trkpt><trkpt lat="44.8009693278881" lon="7.199983357766573"><ele>1062.0</ele><time>2026-04-25T10:25:17.999Z</time></trkpt><trkpt lat="44.80102472136703" lon="7.200098611464365"><ele>1062.0</ele><time>2026-04-25T10:25:18.999Z</time></trkpt><trkpt lat="44.80107283166012" lon="7.200237352457114"><ele>1062.0</ele><time>2026-04-25T10:25:19.999Z</time></trkpt><trkpt lat="44.80110951156022" lon="7.200379266880087"><ele>1062.0</ele><time>2026-04-25T10:25:20.999Z</time></trkpt><trkpt lat="44.801158413161566" lon="7.200505353162941"><ele>1062.0</ele><time>2026-04-25T10:25:21.999Z</time></trkpt><trkpt lat="44.80121157048362" lon="7.200629653376779"><ele>1062.0</ele><time>2026-04-25T10:25:22.999Z</time></trkpt><trkpt lat="44.801269318512944" lon="7.200743699297832"><ele>1066.25</ele><time>2026-04-25T10:25:23.999Z</time></trkpt><trkpt lat="44.80134208800093" lon="7.20088013405529"><ele>1070.5</ele><time>2026-04-25T10:25:24.999Z</time></trkpt><trkpt lat="44.80142970021506" lon="7.201019584018934"><ele>1074.75</ele><time>2026-04-25T10:25:25.999Z</time></trkpt><trkpt lat="44.801487742882635" lon="7.201160608991157"><ele>1079.0</ele><time>2026-04-25T10:25:26.999Z</time></trkpt><trkpt lat="44.80151584035129" lon="7.201301509493645"><ele>1079.0</ele><time>2026-04-25T10:25:27.999Z</time></trkpt><trkpt lat="44.801565454643914" lon="7.201423270211304"><ele>1079.0</ele><time>2026-04-25T10:25:28.999Z</time></trkpt><trkpt lat="44.80162825030941" lon="7.2015759912102455"><ele>1079.0</ele><time>2026-04-25T10:25:29.999Z</time></trkpt><trkpt lat="44.801695516985475" lon="7.2017232631701935"><ele>1079.0</ele><time>2026-04-25T10:25:30.999Z</time></trkpt><trkpt lat="44.80175503902906" lon="7.201849656927736"><ele>1078.0</ele><time>2026-04-25T10:25:31.999Z</time></trkpt><trkpt lat="44.801802647662264" lon="7.201971036151502"><ele>1077.0</ele><time>2026-04-25T10:25:32.999Z</time></trkpt><trkpt lat="44.80183410460086" lon="7.2021007696732315"><ele>1076.0</ele><time>2026-04-25T10:25:33.999Z</time></trkpt><trkpt lat="44.80186392688316" lon="7.202243284385204"><ele>1075.0</ele><time>2026-04-25T10:25:34.999Z</time></trkpt><trkpt lat="44.80190073149924" lon="7.2023604100249745"><ele>1074.0</ele><time>2026-04-25T10:25:35.999Z</time></trkpt><trkpt lat="44.801947471822544" lon="7.202451639153475"><ele>1077.8</ele><time>2026-04-25T10:25:36.999Z</time></trkpt><trkpt lat="44.80199267460898" lon="7.202585113470459"><ele>1081.6000000000001</ele><time>2026-04-25T10:25:38.999Z</time></trkpt><trkpt lat="44.801923614324096" lon="7.202658188212681"><ele>1085.4</ele><time>2026-04-25T10:25:40.999Z</time></trkpt><trkpt lat="44.80186114299803" lon="7.202627132098843"><ele>1089.2</ele><time>2026-04-25T10:25:41.999Z</time></trkpt><trkpt lat="44.801799888402634" lon="7.202537220070782"><ele>1093.0</ele><time>2026-04-25T10:25:42.999Z</time></trkpt><trkpt lat="44.80173039347544" lon="7.202413499513832"><ele>1094.6</ele><time>2026-04-25T10:25:43.999Z</time></trkpt><trkpt lat="44.80167152818107" lon="7.202302483544636"><ele>1096.1999999999998</ele><time>2026-04-25T10:25:44.999Z</time></trkpt><trkpt lat="44.80159985580856" lon="7.2022014011484865"><ele>1097.8</ele><time>2026-04-25T10:25:45.999Z</time></trkpt><trkpt lat="44.80151436101426" lon="7.20215192499275"><ele>1099.3999999999999</ele><time>2026-04-25T10:25:47.999Z</time></trkpt><trkpt lat="44.80148308405642" lon="7.202056163481053"><ele>1101.0</ele><time>2026-04-25T10:25:48.999Z</time></trkpt><trkpt lat="44.801400588315104" lon="7.2019274504391815"><ele>1101.0</ele><time>2026-04-25T10:25:50.999Z</time></trkpt><trkpt lat="44.80133576000317" lon="7.2017812594927415"><ele>1101.0</ele><time>2026-04-25T10:25:52.999Z</time></trkpt><trkpt lat="44.801271251642945" lon="7.201708188661089"><ele>1101.0</ele><time>2026-04-25T10:25:53.999Z</time></trkpt><trkpt lat="44.801215141461284" lon="7.201625704731606"><ele>1101.0</ele><time>2026-04-25T10:25:54.999Z</time></trkpt><trkpt lat="44.80115826650459" lon="7.201547215612322"><ele>1101.0</ele><time>2026-04-25T10:25:55.999Z</time></trkpt><trkpt lat="44.8010851761371" lon="7.201483014355376"><ele>1103.3999999999999</ele><time>2026-04-25T10:25:56.999Z</time></trkpt><trkpt lat="44.80100754655747" lon="7.201364905496353"><ele>1105.8</ele><time>2026-04-25T10:25:57.999Z</time></trkpt><trkpt lat="44.80090031432933" lon="7.201304279772678"><ele>1108.1999999999998</ele><time>2026-04-25T10:25:58.998Z</time></trkpt><trkpt lat="44.80079602405541" lon="7.201254970689387"><ele>1110.6</ele><time>2026-04-25T10:25:59.998Z</time></trkpt><trkpt lat="44.800697716613946" lon="7.201217274385047"><ele>1113.0</ele><time>2026-04-25T10:26:00.998Z</time></trkpt><trkpt lat="44.80062311286388" lon="7.201197390396554"><ele>1113.0</ele><time>2026-04-25T10:26:01.998Z</time></trkpt><trkpt lat="44.80055545898144" lon="7.201119721743737"><ele>1113.0</ele><time>2026-04-25T10:26:02.998Z</time></trkpt><trkpt lat="44.80054593441259" lon="7.200965291292913"><ele>1113.0</ele><time>2026-04-25T10:26:03.998Z</time></trkpt><trkpt lat="44.800495188002074" lon="7.200802552231324"><ele>1113.0</ele><time>2026-04-25T10:26:04.998Z</time></trkpt><trkpt lat="44.80046353025531" lon="7.2006520394146944"><ele>1113.0</ele><time>2026-04-25T10:26:05.998Z</time></trkpt><trkpt lat="44.80040629061532" lon="7.200519501868616"><ele>1109.4</ele><time>2026-04-25T10:26:06.998Z</time></trkpt><trkpt lat="44.800337846555905" lon="7.200402126295963"><ele>1105.8</ele><time>2026-04-25T10:26:07.998Z</time></trkpt><trkpt lat="44.800269094381285" lon="7.200299678830108"><ele>1102.2</ele><time>2026-04-25T10:26:08.998Z</time></trkpt><trkpt lat="44.80020303779402" lon="7.200224211969534"><ele>1098.6</ele><time>2026-04-25T10:26:09.998Z</time></trkpt><trkpt lat="44.800143073688666" lon="7.2001790920680735"><ele>1095.0</ele><time>2026-04-25T10:26:10.998Z</time></trkpt><trkpt lat="44.80002017839455" lon="7.200140033595445"><ele>1102.2</ele><time>2026-04-25T10:26:12.998Z</time></trkpt><trkpt lat="44.799932583666205" lon="7.2001247590534305"><ele>1109.4</ele><time>2026-04-25T10:26:13.998Z</time></trkpt><trkpt lat="44.79983287543479" lon="7.2001125088119435"><ele>1116.6</ele><time>2026-04-25T10:26:14.998Z</time></trkpt><trkpt lat="44.799729726131744" lon="7.200104880026708"><ele>1123.8</ele><time>2026-04-25T10:26:15.998Z</time></trkpt><trkpt lat="44.79959862765306" lon="7.2001054476726996"><ele>1131.0</ele><time>2026-04-25T10:26:16.998Z</time></trkpt><trkpt lat="44.79949059587729" lon="7.200093586021921"><ele>1131.0</ele><time>2026-04-25T10:26:17.998Z</time></trkpt><trkpt lat="44.799426084721986" lon="7.200103285974516"><ele>1131.0</ele><time>2026-04-25T10:26:18.998Z</time></trkpt><trkpt lat="44.79936413689943" lon="7.200054045400784"><ele>1131.0</ele><time>2026-04-25T10:26:19.998Z</time></trkpt><trkpt lat="44.79931415830039" lon="7.199966289243945"><ele>1131.0</ele><time>2026-04-25T10:26:20.998Z</time></trkpt><trkpt lat="44.799252153690155" lon="7.199880425731496"><ele>1131.0</ele><time>2026-04-25T10:26:21.998Z</time></trkpt><trkpt lat="44.79919331226237" lon="7.199783998763354"><ele>1131.0</ele><time>2026-04-25T10:26:22.998Z</time></trkpt><trkpt lat="44.79914115696859" lon="7.1996958125577555"><ele>1135.25</ele><time>2026-04-25T10:26:23.998Z</time></trkpt><trkpt lat="44.799097322725636" lon="7.199576749155202"><ele>1139.5</ele><time>2026-04-25T10:26:24.998Z</time></trkpt><trkpt lat="44.79905497584901" lon="7.199439467825754"><ele>1143.75</ele><time>2026-04-25T10:26:25.998Z</time></trkpt><trkpt lat="44.7989917914672" lon="7.199303696725944"><ele>1148.0</ele><time>2026-04-25T10:26:26.998Z</time></trkpt><trkpt lat="44.79890575379671" lon="7.199116287359084"><ele>1146.6</ele><time>2026-04-25T10:26:27.998Z</time></trkpt><trkpt lat="44.79885447886946" lon="7.198963685998906"><ele>1145.1999999999998</ele><time>2026-04-25T10:26:28.998Z</time></trkpt><trkpt lat="44.798808234686554" lon="7.198813550653718"><ele>1143.8</ele><time>2026-04-25T10:26:29.998Z</time></trkpt><trkpt lat="44.79878937165209" lon="7.198687185548287"><ele>1142.3999999999999</ele><time>2026-04-25T10:26:30.998Z</time></trkpt><trkpt lat="44.79875183129929" lon="7.19855847856331"><ele>1141.0</ele><time>2026-04-25T10:26:31.998Z</time></trkpt><trkpt lat="44.79872006355103" lon="7.198413512478936"><ele>1141.0</ele><time>2026-04-25T10:26:32.998Z</time></trkpt><trkpt lat="44.798694658607765" lon="7.198311108054637"><ele>1141.0</ele><time>2026-04-25T10:26:33.998Z</time></trkpt><trkpt lat="44.798675614915474" lon="7.198226536978976"><ele>1141.0</ele><time>2026-04-25T10:26:34.998Z</time></trkpt><trkpt lat="44.79866384665942" lon="7.198118510942971"><ele>1141.0</ele><time>2026-04-25T10:26:36.998Z</time></trkpt><trkpt lat="44.79860273768234" lon="7.198020699605743"><ele>1141.0</ele><time>2026-04-25T10:26:40.998Z</time></trkpt><trkpt lat="44.798509300840735" lon="7.1979366090807595"><ele>1141.0</ele><time>2026-04-25T10:26:42.998Z</time></trkpt><trkpt lat="44.79845282544289" lon="7.197884705029047"><ele>1143.0</ele><time>2026-04-25T10:26:43.998Z</time></trkpt><trkpt lat="44.79838164526855" lon="7.197832147260483"><ele>1145.0</ele><time>2026-04-25T10:26:44.997Z</time></trkpt><trkpt lat="44.798302736852456" lon="7.197805769927671"><ele>1147.0</ele><time>2026-04-25T10:26:45.997Z</time></trkpt><trkpt lat="44.79821859900169" lon="7.197787409559156"><ele>1149.0</ele><time>2026-04-25T10:26:46.997Z</time></trkpt><trkpt lat="44.79813510498192" lon="7.197773907133396"><ele>1151.0</ele><time>2026-04-25T10:26:47.997Z</time></trkpt><trkpt lat="44.79806082485037" lon="7.197782160136952"><ele>1153.0</ele><time>2026-04-25T10:26:49Z</time></trkpt><trkpt lat="44.798000403556216" lon="7.197831881870088"><ele>1153.0</ele><time>2026-04-25T10:26:50Z</time></trkpt><trkpt lat="44.79795552420692" lon="7.197918287496293"><ele>1153.0</ele><time>2026-04-25T10:26:51Z</time></trkpt><trkpt lat="44.79791019169918" lon="7.198019309029456"><ele>1153.0</ele><time>2026-04-25T10:26:52Z</time></trkpt><trkpt lat="44.79784877304699" lon="7.198112231272563"><ele>1153.0</ele><time>2026-04-25T10:26:53Z</time></trkpt><trkpt lat="44.797780670028665" lon="7.198199082253103"><ele>1153.0</ele><time>2026-04-25T10:26:54Z</time></trkpt><trkpt lat="44.79770741085844" lon="7.198273458952452"><ele>1153.0</ele><time>2026-04-25T10:26:55Z</time></trkpt><trkpt lat="44.79762716969137" lon="7.198339239922571"><ele>1151.8</ele><time>2026-04-25T10:26:56Z</time></trkpt><trkpt lat="44.79753672893643" lon="7.198396750815785"><ele>1150.6</ele><time>2026-04-25T10:26:57Z</time></trkpt><trkpt lat="44.797438655673055" lon="7.198434980353528"><ele>1149.4</ele><time>2026-04-25T10:26:58Z</time></trkpt><trkpt lat="44.797341098357656" lon="7.198469826886459"><ele>1148.2</ele><time>2026-04-25T10:26:59Z</time></trkpt><trkpt lat="44.79725456472252" lon="7.198471531999885"><ele>1147.0</ele><time>2026-04-25T10:27:00Z</time></trkpt><trkpt lat="44.79718358301124" lon="7.198450500580508"><ele>1147.0</ele><time>2026-04-25T10:27:01Z</time></trkpt><trkpt lat="44.79711802984088" lon="7.198374044235737"><ele>1147.0</ele><time>2026-04-25T10:27:02Z</time></trkpt><trkpt lat="44.797060126502345" lon="7.198259123860909"><ele>1147.0</ele><time>2026-04-25T10:27:03Z</time></trkpt><trkpt lat="44.79700468221341" lon="7.198148312410971"><ele>1147.0</ele><time>2026-04-25T10:27:04Z</time></trkpt><trkpt lat="44.796947216872574" lon="7.198054668635174"><ele>1147.0</ele><time>2026-04-25T10:27:05Z</time></trkpt><trkpt lat="44.79688952573769" lon="7.197959193254312"><ele>1143.6666666666665</ele><time>2026-04-25T10:27:06Z</time></trkpt><trkpt lat="44.79683422947103" lon="7.197875384175485"><ele>1140.3333333333333</ele><time>2026-04-25T10:27:07Z</time></trkpt><trkpt lat="44.79678745396395" lon="7.197792951790076"><ele>1137.0</ele><time>2026-04-25T10:27:08Z</time></trkpt><trkpt lat="44.79674435743478" lon="7.197709049448987"><ele>1133.6666666666667</ele><time>2026-04-25T10:27:09Z</time></trkpt><trkpt lat="44.79670353440191" lon="7.197610992254728"><ele>1130.3333333333335</ele><time>2026-04-25T10:27:10Z</time></trkpt><trkpt lat="44.796673072206275" lon="7.1974914707064"><ele>1127.0</ele><time>2026-04-25T10:27:11Z</time></trkpt><trkpt lat="44.79666644322449" lon="7.197359376483237"><ele>1128.6</ele><time>2026-04-25T10:27:12Z</time></trkpt><trkpt lat="44.79667031745599" lon="7.197220173439795"><ele>1130.2</ele><time>2026-04-25T10:27:13Z</time></trkpt><trkpt lat="44.79667135206608" lon="7.197070114416744"><ele>1131.8</ele><time>2026-04-25T10:27:14Z</time></trkpt><trkpt lat="44.79666222093062" lon="7.19692541975118"><ele>1133.4</ele><time>2026-04-25T10:27:15Z</time></trkpt><trkpt lat="44.79664312522286" lon="7.196789987148922"><ele>1135.0</ele><time>2026-04-25T10:27:16Z</time></trkpt><trkpt lat="44.79660206775511" lon="7.196665137620997"><ele>1135.0</ele><time>2026-04-25T10:27:16.999Z</time></trkpt><trkpt lat="44.79653846266627" lon="7.1965449612442445"><ele>1135.0</ele><time>2026-04-25T10:27:17.999Z</time></trkpt><trkpt lat="44.796474563811685" lon="7.196429747592321"><ele>1135.0</ele><time>2026-04-25T10:27:18.999Z</time></trkpt><trkpt lat="44.796417717316935" lon="7.196314339990005"><ele>1135.0</ele><time>2026-04-25T10:27:19.999Z</time></trkpt><trkpt lat="44.7963670287087" lon="7.19620434674139"><ele>1135.0</ele><time>2026-04-25T10:27:20.999Z</time></trkpt><trkpt lat="44.79632008701724" lon="7.1961028102208555"><ele>1137.2</ele><time>2026-04-25T10:27:21.999Z</time></trkpt><trkpt lat="44.79626885621598" lon="7.196001453438271"><ele>1139.4</ele><time>2026-04-25T10:27:22.999Z</time></trkpt><trkpt lat="44.79621172982833" lon="7.195893885961551"><ele>1141.6</ele><time>2026-04-25T10:27:23.999Z</time></trkpt><trkpt lat="44.79614786063875" lon="7.195767860788636"><ele>1143.8</ele><time>2026-04-25T10:27:24.999Z</time></trkpt><trkpt lat="44.796084145787106" lon="7.195614474625527"><ele>1146.0</ele><time>2026-04-25T10:27:25.999Z</time></trkpt><trkpt lat="44.796022434616155" lon="7.195452810882894"><ele>1143.2</ele><time>2026-04-25T10:27:26.999Z</time></trkpt><trkpt lat="44.795967606491025" lon="7.195312129928528"><ele>1140.3999999999999</ele><time>2026-04-25T10:27:27.999Z</time></trkpt><trkpt lat="44.79592586756579" lon="7.1951880858858255"><ele>1137.6</ele><time>2026-04-25T10:27:28.999Z</time></trkpt><trkpt lat="44.79589019100624" lon="7.195078017313765"><ele>1134.8</ele><time>2026-04-25T10:27:29.999Z</time></trkpt><trkpt lat="44.795858276760875" lon="7.194974217287724"><ele>1132.0</ele><time>2026-04-25T10:27:30.999Z</time></trkpt><trkpt lat="44.795829352384835" lon="7.194867036088589"><ele>1136.6</ele><time>2026-04-25T10:27:31.999Z</time></trkpt><trkpt lat="44.79579683831576" lon="7.194751391963763"><ele>1141.2</ele><time>2026-04-25T10:27:32.999Z</time></trkpt><trkpt lat="44.79574850267294" lon="7.1946379868197585"><ele>1145.8</ele><time>2026-04-25T10:27:33.999Z</time></trkpt><trkpt lat="44.79568340926128" lon="7.194522624081762"><ele>1150.4</ele><time>2026-04-25T10:27:34.999Z</time></trkpt><trkpt lat="44.79561872294902" lon="7.194404659926346"><ele>1155.0</ele><time>2026-04-25T10:27:35.999Z</time></trkpt><trkpt lat="44.79556758997297" lon="7.194275521016091"><ele>1155.0</ele><time>2026-04-25T10:27:36.999Z</time></trkpt><trkpt lat="44.79550949896175" lon="7.194168727317978"><ele>1155.0</ele><time>2026-04-25T10:27:37.999Z</time></trkpt><trkpt lat="44.79544712273401" lon="7.194069043172446"><ele>1155.0</ele><time>2026-04-25T10:27:38.999Z</time></trkpt><trkpt lat="44.79537854609205" lon="7.193967837803982"><ele>1155.0</ele><time>2026-04-25T10:27:39.999Z</time></trkpt><trkpt lat="44.79531050027467" lon="7.193867415836616"><ele>1155.0</ele><time>2026-04-25T10:27:40.999Z</time></trkpt><trkpt lat="44.79524694756463" lon="7.193773624928493"><ele>1155.4</ele><time>2026-04-25T10:27:41.999Z</time></trkpt><trkpt lat="44.79517745555694" lon="7.193684642466539"><ele>1155.8</ele><time>2026-04-25T10:27:42.999Z</time></trkpt><trkpt lat="44.79509311211824" lon="7.193602528754682"><ele>1156.2</ele><time>2026-04-25T10:27:43.999Z</time></trkpt><trkpt lat="44.79500967952602" lon="7.193515530722114"><ele>1156.6</ele><time>2026-04-25T10:27:44.999Z</time></trkpt><trkpt lat="44.79493578041773" lon="7.193432727391686"><ele>1157.0</ele><time>2026-04-25T10:27:45.999Z</time></trkpt><trkpt lat="44.79487717996351" lon="7.193342915588875"><ele>1157.0</ele><time>2026-04-25T10:27:46.999Z</time></trkpt><trkpt lat="44.79481343784861" lon="7.1932290657102005"><ele>1157.0</ele><time>2026-04-25T10:27:47.999Z</time></trkpt><trkpt lat="44.79476111597628" lon="7.193127238952945"><ele>1157.0</ele><time>2026-04-25T10:27:48.999Z</time></trkpt><trkpt lat="44.794711484619675" lon="7.193022743641555"><ele>1157.0</ele><time>2026-04-25T10:27:49.999Z</time></trkpt><trkpt lat="44.79466937610795" lon="7.192908215053112"><ele>1157.0</ele><time>2026-04-25T10:27:50.999Z</time></trkpt><trkpt lat="44.794632067241174" lon="7.1927708635959835"><ele>1164.25</ele><time>2026-04-25T10:27:51.999Z</time></trkpt><trkpt lat="44.79459319106649" lon="7.192628903584744"><ele>1171.5</ele><time>2026-04-25T10:27:52.999Z</time></trkpt><trkpt lat="44.79454544830988" lon="7.192482793002151"><ele>1178.75</ele><time>2026-04-25T10:27:53.999Z</time></trkpt><trkpt lat="44.79449934234894" lon="7.192326982392387"><ele>1186.0</ele><time>2026-04-25T10:27:54.999Z</time></trkpt><trkpt lat="44.79446186007624" lon="7.192167921473373"><ele>1186.8</ele><time>2026-04-25T10:27:55.999Z</time></trkpt><trkpt lat="44.794432970458786" lon="7.192032908517441"><ele>1187.6</ele><time>2026-04-25T10:27:56.999Z</time></trkpt><trkpt lat="44.79440215448372" lon="7.191886138603378"><ele>1188.4</ele><time>2026-04-25T10:27:57.999Z</time></trkpt><trkpt lat="44.79437001841276" lon="7.191730764422845"><ele>1189.2</ele><time>2026-04-25T10:27:58.999Z</time></trkpt><trkpt lat="44.7943401854381" lon="7.191582200053028"><ele>1190.0</ele><time>2026-04-25T10:27:59.999Z</time></trkpt><trkpt lat="44.79431045045107" lon="7.191445496221664"><ele>1190.0</ele><time>2026-04-25T10:28:00.999Z</time></trkpt><trkpt lat="44.794279760356886" lon="7.191314700397845"><ele>1190.0</ele><time>2026-04-25T10:28:01.999Z</time></trkpt><trkpt lat="44.79423844041597" lon="7.191212240712602"><ele>1190.0</ele><time>2026-04-25T10:28:02.999Z</time></trkpt><trkpt lat="44.79420741550477" lon="7.191107512292425"><ele>1190.0</ele><time>2026-04-25T10:28:03.998Z</time></trkpt><trkpt lat="44.79417069358108" lon="7.191010534384048"><ele>1190.0</ele><time>2026-04-25T10:28:04.998Z</time></trkpt><trkpt lat="44.79409977160791" lon="7.190928512473904"><ele>1190.0</ele><time>2026-04-25T10:28:05.998Z</time></trkpt><trkpt lat="44.7940383085598" lon="7.190893628253581"><ele>1190.0</ele><time>2026-04-25T10:28:06.998Z</time></trkpt><trkpt lat="44.79396026768352" lon="7.190848333340184"><ele>1190.0</ele><time>2026-04-25T10:28:07.998Z</time></trkpt><trkpt lat="44.79388569584924" lon="7.190805582706345"><ele>1190.0</ele><time>2026-04-25T10:28:08.998Z</time></trkpt><trkpt lat="44.793809288267866" lon="7.190767966933425"><ele>1190.0</ele><time>2026-04-25T10:28:09.998Z</time></trkpt><trkpt lat="44.79374033999112" lon="7.190727532643055"><ele>1190.0</ele><time>2026-04-25T10:28:10.998Z</time></trkpt><trkpt lat="44.793677958709594" lon="7.190669663432615"><ele>1190.0</ele><time>2026-04-25T10:28:11.998Z</time></trkpt><trkpt lat="44.793614556939886" lon="7.190595899211874"><ele>1194.2</ele><time>2026-04-25T10:28:12.998Z</time></trkpt><trkpt lat="44.793536135732616" lon="7.190539247696589"><ele>1198.4</ele><time>2026-04-25T10:28:13.998Z</time></trkpt><trkpt lat="44.79342451522579" lon="7.190515156677043"><ele>1202.6</ele><time>2026-04-25T10:28:14.998Z</time></trkpt><trkpt lat="44.793318819377276" lon="7.1904919556460065"><ele>1206.8</ele><time>2026-04-25T10:28:15.998Z</time></trkpt><trkpt lat="44.79320938275508" lon="7.1904764686103775"><ele>1211.0</ele><time>2026-04-25T10:28:16.998Z</time></trkpt><trkpt lat="44.79309911508658" lon="7.190465690026837"><ele>1211.0</ele><time>2026-04-25T10:28:17.998Z</time></trkpt><trkpt lat="44.79298018909366" lon="7.190477372697159"><ele>1211.0</ele><time>2026-04-25T10:28:18.998Z</time></trkpt><trkpt lat="44.792862816436255" lon="7.1904485134438225"><ele>1211.0</ele><time>2026-04-25T10:28:19.998Z</time></trkpt><trkpt lat="44.79274313128729" lon="7.19042877145561"><ele>1211.0</ele><time>2026-04-25T10:28:20.998Z</time></trkpt><trkpt lat="44.79262309043246" lon="7.1904048798313305"><ele>1208.8333333333335</ele><time>2026-04-25T10:28:21.998Z</time></trkpt><trkpt lat="44.79251802470097" lon="7.190375274274483"><ele>1206.6666666666667</ele><time>2026-04-25T10:28:22.998Z</time></trkpt><trkpt lat="44.79243446944502" lon="7.190342977072118"><ele>1204.5</ele><time>2026-04-25T10:28:23.998Z</time></trkpt><trkpt lat="44.79235849989183" lon="7.190303861484463"><ele>1202.3333333333333</ele><time>2026-04-25T10:28:24.998Z</time></trkpt><trkpt lat="44.79228296423362" lon="7.190265199530767"><ele>1200.1666666666665</ele><time>2026-04-25T10:28:25.998Z</time></trkpt><trkpt lat="44.79220666811152" lon="7.190215907851613"><ele>1198.0</ele><time>2026-04-25T10:28:26.998Z</time></trkpt><trkpt lat="44.79213649706711" lon="7.1901654975304226"><ele>1198.0</ele><time>2026-04-25T10:28:27.998Z</time></trkpt><trkpt lat="44.792069363411045" lon="7.190105592403728"><ele>1198.0</ele><time>2026-04-25T10:28:28.998Z</time></trkpt><trkpt lat="44.79199993986825" lon="7.190034852895552"><ele>1198.0</ele><time>2026-04-25T10:28:29.998Z</time></trkpt><trkpt lat="44.79191991710201" lon="7.189947116967028"><ele>1198.0</ele><time>2026-04-25T10:28:30.998Z</time></trkpt><trkpt lat="44.79183801904952" lon="7.189854600787565"><ele>1198.0</ele><time>2026-04-25T10:28:31.998Z</time></trkpt><trkpt lat="44.79178065668004" lon="7.189769447807979"><ele>1196.4</ele><time>2026-04-25T10:28:32.998Z</time></trkpt><trkpt lat="44.79175105072243" lon="7.189679660591739"><ele>1194.8</ele><time>2026-04-25T10:28:33.998Z</time></trkpt><trkpt lat="44.7917466503044" lon="7.189575157167695"><ele>1193.2</ele><time>2026-04-25T10:28:34.998Z</time></trkpt><trkpt lat="44.79177529144761" lon="7.189444891363768"><ele>1191.6</ele><time>2026-04-25T10:28:35.998Z</time></trkpt><trkpt lat="44.791795170337046" lon="7.189299379832023"><ele>1190.0</ele><time>2026-04-25T10:28:36.998Z</time></trkpt><trkpt lat="44.791816338354224" lon="7.189156977436123"><ele>1188.75</ele><time>2026-04-25T10:28:37.998Z</time></trkpt><trkpt lat="44.79183926024655" lon="7.189007736057145"><ele>1187.5</ele><time>2026-04-25T10:28:38.998Z</time></trkpt><trkpt lat="44.79186692148684" lon="7.188836180396631"><ele>1186.25</ele><time>2026-04-25T10:28:39.998Z</time></trkpt><trkpt lat="44.79189694933663" lon="7.188653478769818"><ele>1185.0</ele><time>2026-04-25T10:28:40.998Z</time></trkpt><trkpt lat="44.79192454791822" lon="7.188487726126151"><ele>1194.75</ele><time>2026-04-25T10:28:41.998Z</time></trkpt><trkpt lat="44.79194334578816" lon="7.18830693716237"><ele>1204.5</ele><time>2026-04-25T10:28:42.998Z</time></trkpt><trkpt lat="44.79197824107559" lon="7.188137307972569"><ele>1214.25</ele><time>2026-04-25T10:28:43.998Z</time></trkpt><trkpt lat="44.7920238319021" lon="7.187973632658723"><ele>1224.0</ele><time>2026-04-25T10:28:44.998Z</time></trkpt><trkpt lat="44.792055951152115" lon="7.187805501878049"><ele>1225.0</ele><time>2026-04-25T10:28:45.998Z</time></trkpt><trkpt lat="44.79208273630354" lon="7.1876419215905125"><ele>1226.0</ele><time>2026-04-25T10:28:46.998Z</time></trkpt><trkpt lat="44.79210483817413" lon="7.1874830776463785"><ele>1227.0</ele><time>2026-04-25T10:28:47.998Z</time></trkpt><trkpt lat="44.79212167819244" lon="7.187328169598272"><ele>1228.0</ele><time>2026-04-25T10:28:48.998Z</time></trkpt><trkpt lat="44.792137895911566" lon="7.187166884148516"><ele>1228.0</ele><time>2026-04-25T10:28:49.997Z</time></trkpt><trkpt lat="44.79215349140373" lon="7.187010342206159"><ele>1228.0</ele><time>2026-04-25T10:28:50.997Z</time></trkpt><trkpt lat="44.792169054664576" lon="7.186881776790835"><ele>1228.0</ele><time>2026-04-25T10:28:51.997Z</time></trkpt><trkpt lat="44.792185389435296" lon="7.1867696184100875"><ele>1228.0</ele><time>2026-04-25T10:28:52.997Z</time></trkpt><trkpt lat="44.79220606992366" lon="7.1866698011661425"><ele>1228.0</ele><time>2026-04-25T10:28:53.997Z</time></trkpt><trkpt lat="44.792231880863554" lon="7.186564789078284"><ele>1228.0</ele><time>2026-04-25T10:28:55Z</time></trkpt><trkpt lat="44.792241816365575" lon="7.18644075413323"><ele>1229.3333333333333</ele><time>2026-04-25T10:28:56Z</time></trkpt><trkpt lat="44.79226538242092" lon="7.186321426911306"><ele>1230.6666666666665</ele><time>2026-04-25T10:28:57Z</time></trkpt><trkpt lat="44.79228964061592" lon="7.186213047554125"><ele>1232.0</ele><time>2026-04-25T10:28:58Z</time></trkpt><trkpt lat="44.79229867559231" lon="7.1861053351169835"><ele>1233.3333333333333</ele><time>2026-04-25T10:28:59Z</time></trkpt><trkpt lat="44.792295264988255" lon="7.185981583242409"><ele>1234.6666666666667</ele><time>2026-04-25T10:29:00Z</time></trkpt><trkpt lat="44.79228343401017" lon="7.185845300477718"><ele>1236.0</ele><time>2026-04-25T10:29:01Z</time></trkpt><trkpt lat="44.79226492220498" lon="7.185693034640165"><ele>1238.2</ele><time>2026-04-25T10:29:02Z</time></trkpt><trkpt lat="44.792249944333264" lon="7.185550728979255"><ele>1240.3999999999999</ele><time>2026-04-25T10:29:03Z</time></trkpt><trkpt lat="44.79223543594235" lon="7.1854005460503725"><ele>1242.6</ele><time>2026-04-25T10:29:04Z</time></trkpt><trkpt lat="44.79222011612696" lon="7.185231093336811"><ele>1244.8</ele><time>2026-04-25T10:29:05Z</time></trkpt><trkpt lat="44.792210695583115" lon="7.185067162722504"><ele>1247.0</ele><time>2026-04-25T10:29:06Z</time></trkpt><trkpt lat="44.79220520828466" lon="7.184927653107653"><ele>1245.6666666666667</ele><time>2026-04-25T10:29:07Z</time></trkpt><trkpt lat="44.792208723726446" lon="7.1848029597222585"><ele>1244.3333333333335</ele><time>2026-04-25T10:29:08Z</time></trkpt><trkpt lat="44.79222593833231" lon="7.184676596318553"><ele>1243.0</ele><time>2026-04-25T10:29:09Z</time></trkpt><trkpt lat="44.79225059321713" lon="7.1845695222690225"><ele>1241.6666666666667</ele><time>2026-04-25T10:29:10Z</time></trkpt><trkpt lat="44.79228575265545" lon="7.1844668344139615"><ele>1240.3333333333333</ele><time>2026-04-25T10:29:11Z</time></trkpt><trkpt lat="44.79233752566215" lon="7.184385927094769"><ele>1239.0</ele><time>2026-04-25T10:29:12Z</time></trkpt><trkpt lat="44.792400727088975" lon="7.184304882830954"><ele>1239.0</ele><time>2026-04-25T10:29:13Z</time></trkpt><trkpt lat="44.79248042840992" lon="7.184214783002661"><ele>1239.0</ele><time>2026-04-25T10:29:14Z</time></trkpt><trkpt lat="44.792578665123564" lon="7.18412663763485"><ele>1239.0</ele><time>2026-04-25T10:29:15Z</time></trkpt><trkpt lat="44.79267134166433" lon="7.18404094411014"><ele>1239.0</ele><time>2026-04-25T10:29:16Z</time></trkpt><trkpt lat="44.792740079058746" lon="7.184001296964439"><ele>1239.0</ele><time>2026-04-25T10:29:17Z</time></trkpt><trkpt lat="44.79276184848139" lon="7.184158530432714"><ele>1239.0</ele><time>2026-04-25T10:29:20.999Z</time></trkpt><trkpt lat="44.792733927302805" lon="7.184248303610862"><ele>1239.0</ele><time>2026-04-25T10:29:21.999Z</time></trkpt><trkpt lat="44.792705086282865" lon="7.184330115923652"><ele>1239.0</ele><time>2026-04-25T10:29:22.999Z</time></trkpt><trkpt lat="44.79268480256131" lon="7.1844359504715545"><ele>1239.0</ele><time>2026-04-25T10:29:23.999Z</time></trkpt><trkpt lat="44.792672640328625" lon="7.184560456708677"><ele>1239.0</ele><time>2026-04-25T10:29:24.999Z</time></trkpt><trkpt lat="44.792677744281356" lon="7.184702737215426"><ele>1239.0</ele><time>2026-04-25T10:29:25.999Z</time></trkpt><trkpt lat="44.79269294161348" lon="7.184831781569258"><ele>1245.0</ele><time>2026-04-25T10:29:26.999Z</time></trkpt><trkpt lat="44.79270694310184" lon="7.184928833923995"><ele>1251.0</ele><time>2026-04-25T10:29:27.999Z</time></trkpt><trkpt lat="44.79274738466574" lon="7.185021797822052"><ele>1257.0</ele><time>2026-04-25T10:29:28.999Z</time></trkpt><trkpt lat="44.792822487013666" lon="7.185039001069289"><ele>1263.0</ele><time>2026-04-25T10:29:29.999Z</time></trkpt><trkpt lat="44.79288900290103" lon="7.18490648113718"><ele>1269.0</ele><time>2026-04-25T10:29:30.999Z</time></trkpt><trkpt lat="44.79291922520298" lon="7.184788263834265"><ele>1275.0</ele><time>2026-04-25T10:29:31.999Z</time></trkpt><trkpt lat="44.79296287534672" lon="7.184689165375183"><ele>1275.0</ele><time>2026-04-25T10:29:32.999Z</time></trkpt><trkpt lat="44.79300626711834" lon="7.184613304547127"><ele>1275.0</ele><time>2026-04-25T10:29:33.999Z</time></trkpt><trkpt lat="44.793026784333875" lon="7.184497568870832"><ele>1275.0</ele><time>2026-04-25T10:29:36.999Z</time></trkpt><trkpt lat="44.79304061706125" lon="7.1843752307290805"><ele>1275.0</ele><time>2026-04-25T10:33:32.999Z</time></trkpt><trkpt lat="44.79303899357867" lon="7.184277502957923"><ele>1275.0</ele><time>2026-04-25T10:33:33.999Z</time></trkpt><trkpt lat="44.79306015608387" lon="7.184146571107365"><ele>1275.0</ele><time>2026-04-25T10:33:34.999Z</time></trkpt><trkpt lat="44.79310060024723" lon="7.1840116814311035"><ele>1274.1666666666667</ele><time>2026-04-25T10:33:35.999Z</time></trkpt><trkpt lat="44.79315534337469" lon="7.183917170279425"><ele>1273.3333333333333</ele><time>2026-04-25T10:33:36.999Z</time></trkpt><trkpt lat="44.79322648769128" lon="7.183856596272179"><ele>1272.5</ele><time>2026-04-25T10:33:37.999Z</time></trkpt><trkpt lat="44.793323150912094" lon="7.183801389743343"><ele>1271.6666666666665</ele><time>2026-04-25T10:33:38.999Z</time></trkpt><trkpt lat="44.793394647468546" lon="7.183735490456489"><ele>1270.8333333333333</ele><time>2026-04-25T10:33:39.999Z</time></trkpt><trkpt lat="44.79342972786035" lon="7.183631309543564"><ele>1270.0</ele><time>2026-04-25T10:33:40.999Z</time></trkpt><trkpt lat="44.793409392642964" lon="7.183491179161746"><ele>1270.0</ele><time>2026-04-25T10:33:41.999Z</time></trkpt><trkpt lat="44.793380384733645" lon="7.183332482642062"><ele>1270.0</ele><time>2026-04-25T10:33:42.999Z</time></trkpt><trkpt lat="44.793359756986064" lon="7.183150210726757"><ele>1270.0</ele><time>2026-04-25T10:33:43.999Z</time></trkpt><trkpt lat="44.793353573613324" lon="7.182976709114837"><ele>1270.0</ele><time>2026-04-25T10:33:44.999Z</time></trkpt><trkpt lat="44.793327690669784" lon="7.18283378995918"><ele>1271.4</ele><time>2026-04-25T10:33:45.999Z</time></trkpt><trkpt lat="44.79326321704582" lon="7.182699993842749"><ele>1272.8</ele><time>2026-04-25T10:33:46.999Z</time></trkpt><trkpt lat="44.79323222889299" lon="7.182550444569137"><ele>1274.2</ele><time>2026-04-25T10:33:47.999Z</time></trkpt><trkpt lat="44.79319234915931" lon="7.182414222329152"><ele>1275.6</ele><time>2026-04-25T10:33:48.999Z</time></trkpt><trkpt lat="44.793158584470895" lon="7.182292951725721"><ele>1277.0</ele><time>2026-04-25T10:33:49.999Z</time></trkpt><trkpt lat="44.79311187190751" lon="7.182161833622791"><ele>1281.25</ele><time>2026-04-25T10:33:50.999Z</time></trkpt><trkpt lat="44.793074569380295" lon="7.182006830493382"><ele>1285.5</ele><time>2026-04-25T10:33:51.999Z</time></trkpt><trkpt lat="44.79304836918676" lon="7.181859845187615"><ele>1289.75</ele><time>2026-04-25T10:33:52.999Z</time></trkpt><trkpt lat="44.79304485901292" lon="7.1816948183578715"><ele>1294.0</ele><time>2026-04-25T10:33:53.999Z</time></trkpt><trkpt lat="44.7930220009068" lon="7.181523117738651"><ele>1296.25</ele><time>2026-04-25T10:33:54.999Z</time></trkpt><trkpt lat="44.793003031218646" lon="7.181358382730418"><ele>1298.5</ele><time>2026-04-25T10:33:55.999Z</time></trkpt><trkpt lat="44.79299333811986" lon="7.181183121741983"><ele>1300.75</ele><time>2026-04-25T10:33:56.999Z</time></trkpt><trkpt lat="44.79297144043455" lon="7.1810259998581225"><ele>1303.0</ele><time>2026-04-25T10:33:57.999Z</time></trkpt><trkpt lat="44.7929420113156" lon="7.18088613831726"><ele>1303.0</ele><time>2026-04-25T10:33:58.999Z</time></trkpt><trkpt lat="44.79290632720348" lon="7.180750084384724"><ele>1303.0</ele><time>2026-04-25T10:33:59.999Z</time></trkpt><trkpt lat="44.792865219692246" lon="7.180615706061141"><ele>1303.0</ele><time>2026-04-25T10:34:00.999Z</time></trkpt><trkpt lat="44.792812201555954" lon="7.180480118179704"><ele>1303.0</ele><time>2026-04-25T10:34:01.999Z</time></trkpt><trkpt lat="44.7927465721059" lon="7.180364105976143"><ele>1303.0</ele><time>2026-04-25T10:34:02.999Z</time></trkpt><trkpt lat="44.7926614171723" lon="7.180300379365497"><ele>1301.8000000000002</ele><time>2026-04-25T10:34:03.999Z</time></trkpt><trkpt lat="44.79258201450392" lon="7.180233477414132"><ele>1300.6</ele><time>2026-04-25T10:34:04.999Z</time></trkpt><trkpt lat="44.792473111323964" lon="7.18017320863951"><ele>1299.4</ele><time>2026-04-25T10:34:05.999Z</time></trkpt><trkpt lat="44.792365099446855" lon="7.180116103378145"><ele>1298.1999999999998</ele><time>2026-04-25T10:34:06.999Z</time></trkpt><trkpt lat="44.7922655805424" lon="7.180066552906943"><ele>1297.0</ele><time>2026-04-25T10:34:07.999Z</time></trkpt><trkpt lat="44.792180229415735" lon="7.1800141203141425"><ele>1297.0</ele><time>2026-04-25T10:34:08.999Z</time></trkpt><trkpt lat="44.7921009005158" lon="7.179954398685927"><ele>1297.0</ele><time>2026-04-25T10:34:09.999Z</time></trkpt><trkpt lat="44.79202078425677" lon="7.179881524420353"><ele>1297.0</ele><time>2026-04-25T10:34:10.999Z</time></trkpt><trkpt lat="44.79192040567252" lon="7.179796235095856"><ele>1297.0</ele><time>2026-04-25T10:34:11.999Z</time></trkpt><trkpt lat="44.79180290986443" lon="7.179700304501877"><ele>1297.0</ele><time>2026-04-25T10:34:12.999Z</time></trkpt><trkpt lat="44.79168797282838" lon="7.179621371594138"><ele>1300.6</ele><time>2026-04-25T10:34:13.999Z</time></trkpt><trkpt lat="44.791580006790575" lon="7.17955608194721"><ele>1304.1999999999998</ele><time>2026-04-25T10:34:14.999Z</time></trkpt><trkpt lat="44.79147465200517" lon="7.179517794652262"><ele>1307.8</ele><time>2026-04-25T10:34:15.998Z</time></trkpt><trkpt lat="44.79139107265298" lon="7.179462449070734"><ele>1311.4</ele><time>2026-04-25T10:34:16.998Z</time></trkpt><trkpt lat="44.7913038824724" lon="7.1793954572801955"><ele>1315.0</ele><time>2026-04-25T10:34:17.998Z</time></trkpt><trkpt lat="44.79121029782809" lon="7.179346338595446"><ele>1315.0</ele><time>2026-04-25T10:34:18.998Z</time></trkpt><trkpt lat="44.79110802993835" lon="7.179321938607856"><ele>1315.0</ele><time>2026-04-25T10:34:19.998Z</time></trkpt><trkpt lat="44.79099784924439" lon="7.179296921284018"><ele>1315.0</ele><time>2026-04-25T10:34:20.998Z</time></trkpt><trkpt lat="44.79090927928719" lon="7.179287861417837"><ele>1315.0</ele><time>2026-04-25T10:34:21.998Z</time></trkpt><trkpt lat="44.79082751083144" lon="7.179315858033322"><ele>1315.0</ele><time>2026-04-25T10:34:22.998Z</time></trkpt><trkpt lat="44.79076303185572" lon="7.179279462123155"><ele>1313.8333333333333</ele><time>2026-04-25T10:34:23.998Z</time></trkpt><trkpt lat="44.79069513282404" lon="7.179253877745006"><ele>1312.6666666666665</ele><time>2026-04-25T10:34:24.998Z</time></trkpt><trkpt lat="44.79063047424968" lon="7.179210436493965"><ele>1311.5</ele><time>2026-04-25T10:34:25.998Z</time></trkpt><trkpt lat="44.7905708641183" lon="7.1791510686079505"><ele>1310.3333333333333</ele><time>2026-04-25T10:34:26.998Z</time></trkpt><trkpt lat="44.79049669644213" lon="7.179072121693367"><ele>1309.1666666666667</ele><time>2026-04-25T10:34:27.998Z</time></trkpt><trkpt lat="44.79041420412472" lon="7.178980115402065"><ele>1308.0</ele><time>2026-04-25T10:34:28.998Z</time></trkpt><trkpt lat="44.790326216813966" lon="7.17888198048343"><ele>1311.6000000000001</ele><time>2026-04-25T10:34:29.998Z</time></trkpt><trkpt lat="44.790243728221185" lon="7.178787275151961"><ele>1315.2</ele><time>2026-04-25T10:34:30.998Z</time></trkpt><trkpt lat="44.79017753509229" lon="7.17870529710826"><ele>1318.8</ele><time>2026-04-25T10:34:31.998Z</time></trkpt><trkpt lat="44.790094471115545" lon="7.178626888434348"><ele>1322.4</ele><time>2026-04-25T10:34:32.998Z</time></trkpt><trkpt lat="44.79004091358213" lon="7.17849688135778"><ele>1326.0</ele><time>2026-04-25T10:34:33.998Z</time></trkpt><trkpt lat="44.79000022690169" lon="7.178389469019537"><ele>1326.0</ele><time>2026-04-25T10:34:34.998Z</time></trkpt><trkpt lat="44.78995637683861" lon="7.178279202068893"><ele>1326.0</ele><time>2026-04-25T10:34:35.998Z</time></trkpt><trkpt lat="44.78990173242863" lon="7.178161647891441"><ele>1326.0</ele><time>2026-04-25T10:34:36.998Z</time></trkpt><trkpt lat="44.78982390734725" lon="7.178059338775931"><ele>1326.0</ele><time>2026-04-25T10:34:37.998Z</time></trkpt><trkpt lat="44.789749293824585" lon="7.177972475020281"><ele>1326.0</ele><time>2026-04-25T10:34:38.998Z</time></trkpt><trkpt lat="44.78967976237432" lon="7.177864418944332"><ele>1328.5</ele><time>2026-04-25T10:34:39.998Z</time></trkpt><trkpt lat="44.78960334138085" lon="7.177794741188289"><ele>1331.0</ele><time>2026-04-25T10:34:40.998Z</time></trkpt><trkpt lat="44.78954364049098" lon="7.17771053369918"><ele>1333.5</ele><time>2026-04-25T10:34:41.998Z</time></trkpt><trkpt lat="44.789496345079364" lon="7.177619510479515"><ele>1336.0</ele><time>2026-04-25T10:34:42.998Z</time></trkpt><trkpt lat="44.78942159107765" lon="7.177538051250622"><ele>1338.5</ele><time>2026-04-25T10:34:43.998Z</time></trkpt><trkpt lat="44.789345771124" lon="7.177448055137793"><ele>1341.0</ele><time>2026-04-25T10:34:44.998Z</time></trkpt><trkpt lat="44.78927112585774" lon="7.177392307234537"><ele>1341.0</ele><time>2026-04-25T10:34:45.998Z</time></trkpt><trkpt lat="44.7891638424276" lon="7.177384594358615"><ele>1341.0</ele><time>2026-04-25T10:34:46.998Z</time></trkpt><trkpt lat="44.78902945415912" lon="7.177360324055047"><ele>1341.0</ele><time>2026-04-25T10:34:47.998Z</time></trkpt><trkpt lat="44.788905157009786" lon="7.177362231777168"><ele>1341.0</ele><time>2026-04-25T10:34:48.998Z</time></trkpt><trkpt lat="44.788808805441825" lon="7.177321273459334"><ele>1348.4</ele><time>2026-04-25T10:34:49.998Z</time></trkpt><trkpt lat="44.788708734587175" lon="7.177299510905933"><ele>1355.8</ele><time>2026-04-25T10:34:50.998Z</time></trkpt><trkpt lat="44.78861530443658" lon="7.177279192518353"><ele>1363.2</ele><time>2026-04-25T10:34:51.998Z</time></trkpt><trkpt lat="44.788516935158164" lon="7.177259616348445"><ele>1370.6000000000001</ele><time>2026-04-25T10:34:52.998Z</time></trkpt><trkpt lat="44.788428002324544" lon="7.17724540158913"><ele>1378.0</ele><time>2026-04-25T10:34:53.998Z</time></trkpt><trkpt lat="44.78832842244509" lon="7.177230438979174"><ele>1379.6000000000001</ele><time>2026-04-25T10:34:54.998Z</time></trkpt><trkpt lat="44.78822126345081" lon="7.177220884194236"><ele>1381.2</ele><time>2026-04-25T10:34:55.998Z</time></trkpt><trkpt lat="44.7881304245005" lon="7.177203521550669"><ele>1382.8</ele><time>2026-04-25T10:34:56.998Z</time></trkpt><trkpt lat="44.78804166936599" lon="7.17719939846659"><ele>1384.4</ele><time>2026-04-25T10:34:57.998Z</time></trkpt><trkpt lat="44.78796057196362" lon="7.177212130612621"><ele>1386.0</ele><time>2026-04-25T10:34:58.998Z</time></trkpt><trkpt lat="44.787882070820814" lon="7.177185654557707"><ele>1386.0</ele><time>2026-04-25T10:34:59.998Z</time></trkpt><trkpt lat="44.78777817108912" lon="7.177185944244212"><ele>1386.0</ele><time>2026-04-25T10:35:00.998Z</time></trkpt><trkpt lat="44.78767668348351" lon="7.177215340190238"><ele>1386.0</ele><time>2026-04-25T10:35:01.998Z</time></trkpt><trkpt lat="44.78759389959262" lon="7.177284840570458"><ele>1386.0</ele><time>2026-04-25T10:35:02.997Z</time></trkpt><trkpt lat="44.78752297071454" lon="7.177371933075783"><ele>1386.0</ele><time>2026-04-25T10:35:03.997Z</time></trkpt><trkpt lat="44.7874450408899" lon="7.177473119405516"><ele>1383.8</ele><time>2026-04-25T10:35:04.997Z</time></trkpt><trkpt lat="44.78736695723986" lon="7.177575183260539"><ele>1381.6</ele><time>2026-04-25T10:35:05.997Z</time></trkpt><trkpt lat="44.787291492172486" lon="7.177685542588357"><ele>1379.4</ele><time>2026-04-25T10:35:06.997Z</time></trkpt><trkpt lat="44.787230648252" lon="7.177779094549554"><ele>1377.2</ele><time>2026-04-25T10:35:07.997Z</time></trkpt><trkpt lat="44.787172760402946" lon="7.177865570246101"><ele>1375.0</ele><time>2026-04-25T10:35:08.997Z</time></trkpt><trkpt lat="44.78712455099231" lon="7.177929593259376"><ele>1375.0</ele><time>2026-04-25T10:35:09.997Z</time></trkpt><trkpt lat="44.78704692930438" lon="7.17800540062113"><ele>1375.0</ele><time>2026-04-25T10:35:11.997Z</time></trkpt><trkpt lat="44.786938650103416" lon="7.178029354379422"><ele>1375.0</ele><time>2026-04-25T10:35:14Z</time></trkpt><trkpt lat="44.786816951512144" lon="7.177981840111758"><ele>1375.0</ele><time>2026-04-25T10:35:16Z</time></trkpt><trkpt lat="44.78675779557751" lon="7.177926994741082"><ele>1375.0</ele><time>2026-04-25T10:35:17Z</time></trkpt><trkpt lat="44.78669795205869" lon="7.177865660226826"><ele>1378.4</ele><time>2026-04-25T10:35:18Z</time></trkpt><trkpt lat="44.7866297183093" lon="7.177790468305389"><ele>1381.8</ele><time>2026-04-25T10:35:19Z</time></trkpt><trkpt lat="44.786565627155824" lon="7.177717351342801"><ele>1385.1999999999998</ele><time>2026-04-25T10:35:20Z</time></trkpt><trkpt lat="44.78650846475941" lon="7.17760131937893"><ele>1388.6</ele><time>2026-04-25T10:35:21Z</time></trkpt><trkpt lat="44.78644676330233" lon="7.177478306327993"><ele>1392.0</ele><time>2026-04-25T10:35:22Z</time></trkpt><trkpt lat="44.78636088580866" lon="7.1773517108787095"><ele>1396.25</ele><time>2026-04-25T10:35:23Z</time></trkpt><trkpt lat="44.78625273414655" lon="7.177233961738019"><ele>1400.5</ele><time>2026-04-25T10:35:24Z</time></trkpt><trkpt lat="44.78612415700381" lon="7.1770968843652705"><ele>1404.75</ele><time>2026-04-25T10:35:25Z</time></trkpt><trkpt lat="44.786017521166436" lon="7.176954779379246"><ele>1409.0</ele><time>2026-04-25T10:35:26Z</time></trkpt><trkpt lat="44.78595122035712" lon="7.176858117805119"><ele>1409.0</ele><time>2026-04-25T10:35:27Z</time></trkpt><trkpt lat="44.785913832659524" lon="7.176785174305937"><ele>1409.0</ele><time>2026-04-25T10:35:30Z</time></trkpt><trkpt lat="44.78599713485402" lon="7.1769314573761145"><ele>1409.0</ele><time>2026-04-25T10:35:32Z</time></trkpt><trkpt lat="44.78615037038951" lon="7.176906738702925"><ele>1409.0</ele><time>2026-04-25T10:35:33Z</time></trkpt><trkpt lat="44.78624967119721" lon="7.176962786899105"><ele>1410.6</ele><time>2026-04-25T10:35:33.999Z</time></trkpt><trkpt lat="44.78636048032001" lon="7.177035173228548"><ele>1412.2</ele><time>2026-04-25T10:35:34.999Z</time></trkpt><trkpt lat="44.7864514477167" lon="7.1770607177092405"><ele>1413.8</ele><time>2026-04-25T10:35:35.999Z</time></trkpt><trkpt lat="44.78652375177084" lon="7.177023200659794"><ele>1415.3999999999999</ele><time>2026-04-25T10:35:37.999Z</time></trkpt><trkpt lat="44.78654891434016" lon="7.176922275544434"><ele>1417.0</ele><time>2026-04-25T10:35:40.999Z</time></trkpt><trkpt lat="44.78660257784366" lon="7.17683365778617"><ele>1417.0</ele><time>2026-04-25T10:35:41.999Z</time></trkpt><trkpt lat="44.78666294477185" lon="7.176786702889902"><ele>1417.0</ele><time>2026-04-25T10:35:42.999Z</time></trkpt><trkpt lat="44.78671541530874" lon="7.176720945145941"><ele>1417.0</ele><time>2026-04-25T10:35:43.999Z</time></trkpt><trkpt lat="44.78677560451789" lon="7.176609246681952"><ele>1417.0</ele><time>2026-04-25T10:35:44.999Z</time></trkpt><trkpt lat="44.78678413388523" lon="7.176490447865595"><ele>1417.0</ele><time>2026-04-25T10:35:46.999Z</time></trkpt><trkpt lat="44.78670365960322" lon="7.176453073425872"><ele>1417.0</ele><time>2026-04-25T10:35:51.999Z</time></trkpt><trkpt lat="44.786635843979475" lon="7.176363432767285"><ele>1422.1999999999998</ele><time>2026-04-25T10:35:52.999Z</time></trkpt><trkpt lat="44.78653191128333" lon="7.176391717525527"><ele>1427.4</ele><time>2026-04-25T10:35:53.999Z</time></trkpt><trkpt lat="44.7864263263583" lon="7.176405664508316"><ele>1432.6</ele><time>2026-04-25T10:35:54.999Z</time></trkpt><trkpt lat="44.786340508314616" lon="7.1764005159538655"><ele>1437.8000000000002</ele><time>2026-04-25T10:35:55.999Z</time></trkpt><trkpt lat="44.78625678597065" lon="7.1763701096818115"><ele>1443.0</ele><time>2026-04-25T10:35:56.999Z</time></trkpt><trkpt lat="44.7861382758824" lon="7.176280464384915"><ele>1443.6666666666667</ele><time>2026-04-25T10:35:57.999Z</time></trkpt><trkpt lat="44.78600286841548" lon="7.176178001113383"><ele>1444.3333333333335</ele><time>2026-04-25T10:35:58.999Z</time></trkpt><trkpt lat="44.78585850034906" lon="7.1760674716645445"><ele>1445.0</ele><time>2026-04-25T10:35:59.999Z</time></trkpt><trkpt lat="44.78569936876532" lon="7.175939967601095"><ele>1445.0</ele><time>2026-04-25T10:36:00.999Z</time></trkpt><trkpt lat="44.78560071348933" lon="7.1758463254604345"><ele>1445.0</ele><time>2026-04-25T10:36:01.999Z</time></trkpt><trkpt lat="44.78548337056413" lon="7.175739437223028"><ele>1445.0</ele><time>2026-04-25T10:36:02.999Z</time></trkpt><trkpt lat="44.785376723459436" lon="7.17566529757764"><ele>1445.0</ele><time>2026-04-25T10:36:03.999Z</time></trkpt><trkpt lat="44.78528773675115" lon="7.175633403200846"><ele>1450.2</ele><time>2026-04-25T10:36:04.999Z</time></trkpt><trkpt lat="44.78518526197767" lon="7.175628416420652"><ele>1455.4</ele><time>2026-04-25T10:36:05.999Z</time></trkpt><trkpt lat="44.78508110600152" lon="7.175648722947431"><ele>1460.6</ele><time>2026-04-25T10:36:06.999Z</time></trkpt><trkpt lat="44.78495817086745" lon="7.175681009096731"><ele>1465.8</ele><time>2026-04-25T10:36:07.999Z</time></trkpt><trkpt lat="44.78488362307683" lon="7.175659213058475"><ele>1471.0</ele><time>2026-04-25T10:36:08.999Z</time></trkpt><trkpt lat="44.78479774522214" lon="7.175581488714607"><ele>1471.0</ele><time>2026-04-25T10:36:10.999Z</time></trkpt><trkpt lat="44.784714166062095" lon="7.175450702862398"><ele>1471.0</ele><time>2026-04-25T10:36:11.999Z</time></trkpt><trkpt lat="44.784620053713454" lon="7.175325352650107"><ele>1471.0</ele><time>2026-04-25T10:36:12.999Z</time></trkpt><trkpt lat="44.784481314064536" lon="7.175164465728968"><ele>1471.0</ele><time>2026-04-25T10:36:13.999Z</time></trkpt><trkpt lat="44.784354870100536" lon="7.17501707961174"><ele>1469.5</ele><time>2026-04-25T10:36:14.999Z</time></trkpt><trkpt lat="44.78430056484071" lon="7.174955651576349"><ele>1468.0</ele><time>2026-04-25T10:36:15.999Z</time></trkpt><trkpt lat="44.7842237808996" lon="7.174871636458456"><ele>1466.5</ele><time>2026-04-25T10:36:16.999Z</time></trkpt><trkpt lat="44.784144120555375" lon="7.174811171666344"><ele>1465.0</ele><time>2026-04-25T10:36:17.999Z</time></trkpt><trkpt lat="44.784060125760895" lon="7.174809552644182"><ele>1463.5</ele><time>2026-04-25T10:36:18.999Z</time></trkpt><trkpt lat="44.78397519498221" lon="7.174822286342017"><ele>1462.0</ele><time>2026-04-25T10:36:19.999Z</time></trkpt><trkpt lat="44.783881133281284" lon="7.17482808930118"><ele>1464.0</ele><time>2026-04-25T10:36:20.998Z</time></trkpt><trkpt lat="44.78374210379733" lon="7.174832173899811"><ele>1466.0</ele><time>2026-04-25T10:36:21.998Z</time></trkpt><trkpt lat="44.78360760563857" lon="7.174839492910345"><ele>1468.0</ele><time>2026-04-25T10:36:22.998Z</time></trkpt><trkpt lat="44.78347361631365" lon="7.174876713252501"><ele>1470.0</ele><time>2026-04-25T10:36:23.998Z</time></trkpt><trkpt lat="44.78333110927406" lon="7.174919687173694"><ele>1470.0</ele><time>2026-04-25T10:36:24.998Z</time></trkpt><trkpt lat="44.78320881501441" lon="7.174993370567507"><ele>1470.0</ele><time>2026-04-25T10:36:25.998Z</time></trkpt><trkpt lat="44.78312862741408" lon="7.1750616615630785"><ele>1470.0</ele><time>2026-04-25T10:36:26.998Z</time></trkpt><trkpt lat="44.78304486537933" lon="7.1751080243234995"><ele>1470.0</ele><time>2026-04-25T10:36:28.998Z</time></trkpt><trkpt lat="44.78292507961227" lon="7.175138983538125"><ele>1470.0</ele><time>2026-04-25T10:36:30.998Z</time></trkpt><trkpt lat="44.78283325228624" lon="7.175033862432123"><ele>1470.0</ele><time>2026-04-25T10:36:31.998Z</time></trkpt><trkpt lat="44.78273100487209" lon="7.1750156208258655"><ele>1470.0</ele><time>2026-04-25T10:36:32.998Z</time></trkpt><trkpt lat="44.78262890014372" lon="7.174982829341845"><ele>1470.0</ele><time>2026-04-25T10:36:33.998Z</time></trkpt><trkpt lat="44.78256356307375" lon="7.174928813539371"><ele>1470.0</ele><time>2026-04-25T10:36:34.998Z</time></trkpt><trkpt lat="44.78249902193868" lon="7.174856230193735"><ele>1470.0</ele><time>2026-04-25T10:36:35.998Z</time></trkpt><trkpt lat="44.78241026664548" lon="7.174745260493249"><ele>1476.8</ele><time>2026-04-25T10:36:36.998Z</time></trkpt><trkpt lat="44.782333639319766" lon="7.174595942912902"><ele>1483.6</ele><time>2026-04-25T10:36:37.998Z</time></trkpt><trkpt lat="44.78226862722808" lon="7.174462157741748"><ele>1490.4</ele><time>2026-04-25T10:36:38.998Z</time></trkpt><trkpt lat="44.782191449228684" lon="7.174372431684332"><ele>1497.2</ele><time>2026-04-25T10:36:39.998Z</time></trkpt><trkpt lat="44.78210151841612" lon="7.174305012111314"><ele>1504.0</ele><time>2026-04-25T10:36:40.998Z</time></trkpt><trkpt lat="44.78201492783654" lon="7.174245724010407"><ele>1504.0</ele><time>2026-04-25T10:36:41.998Z</time></trkpt><trkpt lat="44.781930061910764" lon="7.174193195332235"><ele>1504.0</ele><time>2026-04-25T10:36:42.998Z</time></trkpt><trkpt lat="44.781831889020665" lon="7.174136431860669"><ele>1504.0</ele><time>2026-04-25T10:36:43.998Z</time></trkpt><trkpt lat="44.78173979658452" lon="7.174080653576903"><ele>1504.0</ele><time>2026-04-25T10:36:44.998Z</time></trkpt><trkpt lat="44.781660079608855" lon="7.174023217496433"><ele>1504.0</ele><time>2026-04-25T10:36:45.998Z</time></trkpt><trkpt lat="44.78158635647284" lon="7.173962963027029"><ele>1506.0</ele><time>2026-04-25T10:36:46.998Z</time></trkpt><trkpt lat="44.781509516566786" lon="7.17389756437202"><ele>1508.0</ele><time>2026-04-25T10:36:47.998Z</time></trkpt><trkpt lat="44.78143191114159" lon="7.173833842241593"><ele>1510.0</ele><time>2026-04-25T10:36:48.998Z</time></trkpt><trkpt lat="44.78135858175147" lon="7.173762986756041"><ele>1512.0</ele><time>2026-04-25T10:36:49.998Z</time></trkpt><trkpt lat="44.78128080563675" lon="7.173660192691893"><ele>1514.0</ele><time>2026-04-25T10:36:50.998Z</time></trkpt><trkpt lat="44.781193097527975" lon="7.173535961472609"><ele>1514.0</ele><time>2026-04-25T10:36:51.998Z</time></trkpt><trkpt lat="44.7810942374453" lon="7.173420607478039"><ele>1514.0</ele><time>2026-04-25T10:36:52.998Z</time></trkpt><trkpt lat="44.78098630943749" lon="7.1733168617085905"><ele>1514.0</ele><time>2026-04-25T10:36:53.998Z</time></trkpt><trkpt lat="44.78087958662137" lon="7.173204780742748"><ele>1514.0</ele><time>2026-04-25T10:36:54.998Z</time></trkpt><trkpt lat="44.780773993611334" lon="7.173101824879492"><ele>1517.2</ele><time>2026-04-25T10:36:55.998Z</time></trkpt><trkpt lat="44.780683238391745" lon="7.173029668642832"><ele>1520.4</ele><time>2026-04-25T10:36:56.998Z</time></trkpt><trkpt lat="44.78057474569524" lon="7.1729649022945825"><ele>1523.6</ele><time>2026-04-25T10:36:57.998Z</time></trkpt><trkpt lat="44.78046632101984" lon="7.172955527854105"><ele>1526.8</ele><time>2026-04-25T10:36:58.998Z</time></trkpt><trkpt lat="44.7804665482794" lon="7.172857866386285"><ele>1530.0</ele><time>2026-04-25T10:37:02.998Z</time></trkpt><trkpt lat="44.780532263341186" lon="7.172844771579254"><ele>1530.0</ele><time>2026-04-25T10:37:04.998Z</time></trkpt><trkpt lat="44.780619940846684" lon="7.172830703812243"><ele>1530.0</ele><time>2026-04-25T10:37:12.997Z</time></trkpt><trkpt lat="44.78068589807021" lon="7.1728118576282425"><ele>1530.0</ele><time>2026-04-25T10:37:13.997Z</time></trkpt><trkpt lat="44.780751187390536" lon="7.172789591670413"><ele>1530.0</ele><time>2026-04-25T10:37:14.997Z</time></trkpt><trkpt lat="44.78084255786625" lon="7.17275982330688"><ele>1530.0</ele><time>2026-04-25T10:37:15.997Z</time></trkpt><trkpt lat="44.78094961482651" lon="7.172738053825945"><ele>1530.0</ele><time>2026-04-25T10:37:16.997Z</time></trkpt><trkpt lat="44.78106264397315" lon="7.172715009477538"><ele>1533.0</ele><time>2026-04-25T10:37:18Z</time></trkpt><trkpt lat="44.78118256918572" lon="7.172705578213379"><ele>1536.0</ele><time>2026-04-25T10:37:19Z</time></trkpt><trkpt lat="44.781323110284156" lon="7.172716292439938"><ele>1539.0</ele><time>2026-04-25T10:37:20Z</time></trkpt><trkpt lat="44.78146095646913" lon="7.172733358310362"><ele>1542.0</ele><time>2026-04-25T10:37:21Z</time></trkpt><trkpt lat="44.7815846822692" lon="7.172754554501453"><ele>1542.0</ele><time>2026-04-25T10:37:22Z</time></trkpt><trkpt lat="44.781704427559006" lon="7.172805634153383"><ele>1542.0</ele><time>2026-04-25T10:37:23Z</time></trkpt><trkpt lat="44.78183526968389" lon="7.172841142525927"><ele>1542.0</ele><time>2026-04-25T10:37:24Z</time></trkpt><trkpt lat="44.78195438334571" lon="7.1728940962631045"><ele>1542.0</ele><time>2026-04-25T10:37:25Z</time></trkpt><trkpt lat="44.78208262015887" lon="7.172969009941601"><ele>1548.0</ele><time>2026-04-25T10:37:26Z</time></trkpt><trkpt lat="44.78221261392674" lon="7.173042767418432"><ele>1554.0</ele><time>2026-04-25T10:37:27Z</time></trkpt><trkpt lat="44.78236538075102" lon="7.173103068769785"><ele>1560.0</ele><time>2026-04-25T10:37:28Z</time></trkpt><trkpt lat="44.782530926387956" lon="7.173168138408169"><ele>1556.25</ele><time>2026-04-25T10:37:29Z</time></trkpt><trkpt lat="44.782691396911424" lon="7.173238027404389"><ele>1552.5</ele><time>2026-04-25T10:37:30Z</time></trkpt><trkpt lat="44.782808133007876" lon="7.173287085131256"><ele>1548.75</ele><time>2026-04-25T10:37:31Z</time></trkpt><trkpt lat="44.7829076969471" lon="7.1733041059305815"><ele>1545.0</ele><time>2026-04-25T10:37:32Z</time></trkpt><trkpt lat="44.782888808660005" lon="7.173144167173769"><ele>1548.0</ele><time>2026-04-25T10:37:35.999Z</time></trkpt><trkpt lat="44.78281110843104" lon="7.173057452697926"><ele>1551.0</ele><time>2026-04-25T10:37:36.999Z</time></trkpt><trkpt lat="44.78271850514465" lon="7.172949498384649"><ele>1554.0</ele><time>2026-04-25T10:37:37.999Z</time></trkpt><trkpt lat="44.78262887592444" lon="7.17278408636734"><ele>1557.0</ele><time>2026-04-25T10:37:38.999Z</time></trkpt><trkpt lat="44.78260074851103" lon="7.172686751286572"><ele>1560.0</ele><time>2026-04-25T10:37:39.999Z</time></trkpt><trkpt lat="44.782739048184816" lon="7.1727030279787645"><ele>1563.0</ele><time>2026-04-25T10:37:42.999Z</time></trkpt><trkpt lat="44.78280078150955" lon="7.17278474899255"><ele>1566.0</ele><time>2026-04-25T10:37:43.999Z</time></trkpt><trkpt lat="44.782906307439276" lon="7.172822250541373"><ele>1569.0</ele><time>2026-04-25T10:37:44.999Z</time></trkpt><trkpt lat="44.78303016467931" lon="7.172870129505003"><ele>1572.0</ele><time>2026-04-25T10:37:45.999Z</time></trkpt><trkpt lat="44.78312504642466" lon="7.172885508682762"><ele>1575.0</ele><time>2026-04-25T10:37:46.999Z</time></trkpt><trkpt lat="44.78318867241246" lon="7.172850798530267"><ele>1575.0</ele><time>2026-04-25T10:37:47.999Z</time></trkpt><trkpt lat="44.7832218362187" lon="7.172743823676906"><ele>1575.0</ele><time>2026-04-25T10:37:49.999Z</time></trkpt><trkpt lat="44.783189063054955" lon="7.172658365211815"><ele>1575.0</ele><time>2026-04-25T10:37:52.999Z</time></trkpt><trkpt lat="44.7830923491657" lon="7.1725663080905315"><ele>1575.0</ele><time>2026-04-25T10:37:54.999Z</time></trkpt><trkpt lat="44.78307068893224" lon="7.172453286907291"><ele>1575.0</ele><time>2026-04-25T10:37:55.999Z</time></trkpt><trkpt lat="44.78316815542113" lon="7.172427173266057"><ele>1575.0</ele><time>2026-04-25T10:37:57.999Z</time></trkpt><trkpt lat="44.783278317130126" lon="7.172436038976885"><ele>1575.0</ele><time>2026-04-25T10:37:58.999Z</time></trkpt><trkpt lat="44.78342302699678" lon="7.172445789608102"><ele>1575.0</ele><time>2026-04-25T10:37:59.999Z</time></trkpt><trkpt lat="44.78354390704997" lon="7.172456030486971"><ele>1575.0</ele><time>2026-04-25T10:38:00.999Z</time></trkpt><trkpt lat="44.783666769073655" lon="7.172469177401648"><ele>1576.2</ele><time>2026-04-25T10:38:01.999Z</time></trkpt><trkpt lat="44.78375790650943" lon="7.172468814986119"><ele>1577.4</ele><time>2026-04-25T10:38:02.999Z</time></trkpt><trkpt lat="44.78381800420442" lon="7.172404851318867"><ele>1578.6</ele><time>2026-04-25T10:38:04.999Z</time></trkpt><trkpt lat="44.78369951008013" lon="7.172312971428829"><ele>1579.8</ele><time>2026-04-25T10:56:27Z</time></trkpt><trkpt lat="44.783635676527624" lon="7.172288204213861"><ele>1581.0</ele><time>2026-04-25T10:56:28Z</time></trkpt><trkpt lat="44.78352090170454" lon="7.172168553453967"><ele>1586.0</ele><time>2026-04-25T10:56:30Z</time></trkpt><trkpt lat="44.783450825951675" lon="7.1720765676963465"><ele>1591.0</ele><time>2026-04-25T10:56:31Z</time></trkpt><trkpt lat="44.783388611968434" lon="7.171988749632691"><ele>1596.0</ele><time>2026-04-25T10:56:32Z</time></trkpt><trkpt lat="44.783571573016665" lon="7.171952800856565"><ele>1601.0</ele><time>2026-04-25T10:56:37Z</time></trkpt><trkpt lat="44.78366860073772" lon="7.171983784487498"><ele>1603.0</ele><time>2026-04-25T10:56:38Z</time></trkpt><trkpt lat="44.78377857988602" lon="7.171977477607329"><ele>1605.0</ele><time>2026-04-25T10:56:39Z</time></trkpt><trkpt lat="44.7838960115302" lon="7.171989833479237"><ele>1607.0</ele><time>2026-04-25T10:56:40Z</time></trkpt><trkpt lat="44.78401932520385" lon="7.171966503820992"><ele>1609.0</ele><time>2026-04-25T10:56:41Z</time></trkpt><trkpt lat="44.78414389183216" lon="7.171961009011705"><ele>1609.0</ele><time>2026-04-25T10:56:42Z</time></trkpt><trkpt lat="44.78426693780175" lon="7.171953620734816"><ele>1609.0</ele><time>2026-04-25T10:56:43Z</time></trkpt><trkpt lat="44.78438318657155" lon="7.171949656777706"><ele>1609.0</ele><time>2026-04-25T10:56:44Z</time></trkpt><trkpt lat="44.78451004106625" lon="7.171950281019447"><ele>1609.0</ele><time>2026-04-25T10:56:45Z</time></trkpt><trkpt lat="44.78460709797536" lon="7.171952731351528"><ele>1608.0</ele><time>2026-04-25T10:56:46Z</time></trkpt><trkpt lat="44.78468279697137" lon="7.171920268154411"><ele>1607.0</ele><time>2026-04-25T10:56:47Z</time></trkpt><trkpt lat="44.78476907228606" lon="7.1718268003171675"><ele>1606.0</ele><time>2026-04-25T10:56:48Z</time></trkpt><trkpt lat="44.7848583425004" lon="7.171726016672079"><ele>1605.0</ele><time>2026-04-25T10:56:49Z</time></trkpt><trkpt lat="44.784945644189655" lon="7.171615139149853"><ele>1604.0</ele><time>2026-04-25T10:56:50Z</time></trkpt><trkpt lat="44.78502627365102" lon="7.171522731548286"><ele>1602.4</ele><time>2026-04-25T10:56:51Z</time></trkpt><trkpt lat="44.78508015037135" lon="7.171411830022492"><ele>1600.8000000000002</ele><time>2026-04-25T10:56:53Z</time></trkpt><trkpt lat="44.78493570837005" lon="7.171305643389336"><ele>1599.1999999999998</ele><time>2026-04-25T10:56:56Z</time></trkpt><trkpt lat="44.78484700281339" lon="7.1713226816097855"><ele>1597.6</ele><time>2026-04-25T10:56:57Z</time></trkpt><trkpt lat="44.78478465249951" lon="7.171365613725292"><ele>1596.0</ele><time>2026-04-25T10:56:58Z</time></trkpt><trkpt lat="44.784678224143924" lon="7.171362954919801"><ele>1596.0</ele><time>2026-04-25T10:56:59.999Z</time></trkpt><trkpt lat="44.78460488727915" lon="7.171357761506713"><ele>1596.0</ele><time>2026-04-25T10:57:00.999Z</time></trkpt><trkpt lat="44.78452178830381" lon="7.171345978987563"><ele>1596.0</ele><time>2026-04-25T10:57:01.999Z</time></trkpt><trkpt lat="44.784419901792646" lon="7.171318084708073"><ele>1596.0</ele><time>2026-04-25T10:57:02.999Z</time></trkpt><trkpt lat="44.78429140963594" lon="7.171312307163771"><ele>1596.0</ele><time>2026-04-25T10:57:03.999Z</time></trkpt><trkpt lat="44.784161552146664" lon="7.17134588653623"><ele>1598.4</ele><time>2026-04-25T10:57:04.999Z</time></trkpt><trkpt lat="44.784046960946355" lon="7.171352411362165"><ele>1600.8</ele><time>2026-04-25T10:57:05.999Z</time></trkpt><trkpt lat="44.78395203771913" lon="7.171320753448809"><ele>1603.2</ele><time>2026-04-25T10:57:06.999Z</time></trkpt><trkpt lat="44.78386886221265" lon="7.171293462554258"><ele>1605.6000000000001</ele><time>2026-04-25T10:57:07.999Z</time></trkpt><trkpt lat="44.7837745081118" lon="7.171233261677445"><ele>1608.0</ele><time>2026-04-25T10:57:08.999Z</time></trkpt><trkpt lat="44.78368048098009" lon="7.171149611887474"><ele>1608.0</ele><time>2026-04-25T10:57:09.999Z</time></trkpt><trkpt lat="44.783577486350914" lon="7.171073451197962"><ele>1608.0</ele><time>2026-04-25T10:57:10.999Z</time></trkpt><trkpt lat="44.78348723240291" lon="7.171054468490757"><ele>1608.0</ele><time>2026-04-25T10:57:11.999Z</time></trkpt><trkpt lat="44.78340365265316" lon="7.17107030965226"><ele>1608.0</ele><time>2026-04-25T10:57:12.999Z</time></trkpt><trkpt lat="44.78330787880628" lon="7.17111125697637"><ele>1608.0</ele><time>2026-04-25T10:57:13.999Z</time></trkpt><trkpt lat="44.78321215163131" lon="7.171161700276829"><ele>1610.0</ele><time>2026-04-25T10:57:14.999Z</time></trkpt><trkpt lat="44.78313684133901" lon="7.171161877719564"><ele>1612.0</ele><time>2026-04-25T10:57:15.999Z</time></trkpt><trkpt lat="44.783028257368365" lon="7.171069553916765"><ele>1614.0</ele><time>2026-04-25T10:57:17.999Z</time></trkpt><trkpt lat="44.78295686022974" lon="7.170983239386801"><ele>1616.0</ele><time>2026-04-25T10:57:18.999Z</time></trkpt><trkpt lat="44.7828991954603" lon="7.170849788890473"><ele>1618.0</ele><time>2026-04-25T10:57:19.999Z</time></trkpt><trkpt lat="44.78282530241802" lon="7.170714731687461"><ele>1616.3333333333335</ele><time>2026-04-25T10:57:20.999Z</time></trkpt><trkpt lat="44.78276061665069" lon="7.170585614345253"><ele>1614.6666666666667</ele><time>2026-04-25T10:57:21.999Z</time></trkpt><trkpt lat="44.78271512977757" lon="7.170474148251288"><ele>1613.0</ele><time>2026-04-25T10:57:22.999Z</time></trkpt><trkpt lat="44.78266497687316" lon="7.170388054560241"><ele>1611.3333333333335</ele><time>2026-04-25T10:57:23.999Z</time></trkpt><trkpt lat="44.78260883572866" lon="7.1703252665805675"><ele>1609.6666666666667</ele><time>2026-04-25T10:57:24.999Z</time></trkpt><trkpt lat="44.782552153272434" lon="7.1702804455798885"><ele>1608.0</ele><time>2026-04-25T10:57:25.999Z</time></trkpt><trkpt lat="44.782470538564816" lon="7.170224647737099"><ele>1612.4</ele><time>2026-04-25T10:57:27.999Z</time></trkpt><trkpt lat="44.782392569768476" lon="7.170147764287333"><ele>1616.8000000000002</ele><time>2026-04-25T10:57:29.999Z</time></trkpt><trkpt lat="44.78230084975358" lon="7.170077116965128"><ele>1621.2</ele><time>2026-04-25T10:57:31.999Z</time></trkpt><trkpt lat="44.78221176458025" lon="7.170001746334407"><ele>1625.6</ele><time>2026-04-25T10:57:34.999Z</time></trkpt><trkpt lat="44.78210907832585" lon="7.1699535905309215"><ele>1630.0</ele><time>2026-04-25T10:57:36.999Z</time></trkpt><trkpt lat="44.78193077876698" lon="7.16986591470106"><ele>1631.5000000000002</ele><time>2026-04-25T10:57:38.999Z</time></trkpt><trkpt lat="44.78183423441372" lon="7.169811663274213"><ele>1633.0</ele><time>2026-04-25T10:57:39.999Z</time></trkpt><trkpt lat="44.78175170132168" lon="7.169791746250593"><ele>1634.5</ele><time>2026-04-25T10:57:40.999Z</time></trkpt><trkpt lat="44.78168779806993" lon="7.169808899769782"><ele>1636.0</ele><time>2026-04-25T10:57:41.999Z</time></trkpt><trkpt lat="44.781621925413496" lon="7.169812990530393"><ele>1637.5000000000002</ele><time>2026-04-25T10:57:42.999Z</time></trkpt><trkpt lat="44.78153549708776" lon="7.169814530221425"><ele>1639.0</ele><time>2026-04-25T10:57:43.999Z</time></trkpt><trkpt lat="44.781449351496946" lon="7.169845683817153"><ele>1639.0000000000002</ele><time>2026-04-25T10:57:44.998Z</time></trkpt><trkpt lat="44.78137770707375" lon="7.169813965638447"><ele>1639.0</ele><time>2026-04-25T10:57:45.998Z</time></trkpt><trkpt lat="44.78131484548163" lon="7.169787810745511"><ele>1639.0</ele><time>2026-04-25T10:57:46.998Z</time></trkpt><trkpt lat="44.781196460647" lon="7.169713455427122"><ele>1639.0</ele><time>2026-04-25T10:57:48.998Z</time></trkpt><trkpt lat="44.7811468095927" lon="7.169656503848879"><ele>1639.0000000000002</ele><time>2026-04-25T10:57:49.998Z</time></trkpt><trkpt lat="44.78109722126645" lon="7.169589313398142"><ele>1639.0</ele><time>2026-04-25T10:57:50.998Z</time></trkpt><trkpt lat="44.78104212146158" lon="7.169514305484939"><ele>1641.8333333333335</ele><time>2026-04-25T10:57:51.998Z</time></trkpt><trkpt lat="44.780988988071364" lon="7.169442488976976"><ele>1644.6666666666667</ele><time>2026-04-25T10:57:52.998Z</time></trkpt><trkpt lat="44.78093735516694" lon="7.1693780846325605"><ele>1647.5</ele><time>2026-04-25T10:57:53.998Z</time></trkpt><trkpt lat="44.7808838167992" lon="7.169312928375268"><ele>1650.3333333333335</ele><time>2026-04-25T10:57:54.998Z</time></trkpt><trkpt lat="44.780794329834414" lon="7.169244084189947"><ele>1653.1666666666667</ele><time>2026-04-25T10:57:56.998Z</time></trkpt><trkpt lat="44.780728617052404" lon="7.1692550791714496"><ele>1656.0</ele><time>2026-04-25T10:57:58.998Z</time></trkpt><trkpt lat="44.78065737217461" lon="7.169291108916372"><ele>1656.0</ele><time>2026-04-25T10:58:01.998Z</time></trkpt><trkpt lat="44.78055838168714" lon="7.1693219097816305"><ele>1656.0</ele><time>2026-04-25T10:58:03.998Z</time></trkpt><trkpt lat="44.78049306234015" lon="7.169332866861883"><ele>1656.0</ele><time>2026-04-25T10:58:04.998Z</time></trkpt><trkpt lat="44.78040366707409" lon="7.169338173203297"><ele>1656.0</ele><time>2026-04-25T10:58:05.998Z</time></trkpt><trkpt lat="44.780315489749626" lon="7.169354121453316"><ele>1656.0</ele><time>2026-04-25T10:58:06.998Z</time></trkpt><trkpt lat="44.780247471688966" lon="7.169369943626356"><ele>1656.0</ele><time>2026-04-25T10:58:07.998Z</time></trkpt><trkpt lat="44.780170257321124" lon="7.16937881579034"><ele>1660.0000000000002</ele><time>2026-04-25T10:58:08.998Z</time></trkpt><trkpt lat="44.78008762351486" lon="7.169375724627292"><ele>1664.0</ele><time>2026-04-25T10:58:09.998Z</time></trkpt><trkpt lat="44.78001161911948" lon="7.16936670575853"><ele>1668.0</ele><time>2026-04-25T10:58:10.998Z</time></trkpt><trkpt lat="44.779938056405356" lon="7.169361315786976"><ele>1672.0</ele><time>2026-04-25T10:58:11.998Z</time></trkpt><trkpt lat="44.779870908935685" lon="7.169355360964905"><ele>1676.0</ele><time>2026-04-25T10:58:12.998Z</time></trkpt><trkpt lat="44.779796558611025" lon="7.169347617399158"><ele>1680.0000000000002</ele><time>2026-04-25T10:58:13.998Z</time></trkpt><trkpt lat="44.77972539497672" lon="7.16933433979842"><ele>1684.0</ele><time>2026-04-25T10:58:14.998Z</time></trkpt><trkpt lat="44.779615876101424" lon="7.169307790238997"><ele>1684.0000000000002</ele><time>2026-04-25T10:58:17Z</time></trkpt><trkpt lat="44.77950626653282" lon="7.169277092116009"><ele>1684.0</ele><time>2026-04-25T10:58:19Z</time></trkpt><trkpt lat="44.77942670003064" lon="7.169244278003072"><ele>1684.0</ele><time>2026-04-25T10:58:21Z</time></trkpt><trkpt lat="44.77933987684741" lon="7.169232987788898"><ele>1684.0</ele><time>2026-04-25T10:58:23Z</time></trkpt><trkpt lat="44.77926334732075" lon="7.169224746149844"><ele>1684.0000000000002</ele><time>2026-04-25T10:58:28Z</time></trkpt><trkpt lat="44.779189823803215" lon="7.169217288178663"><ele>1684.0</ele><time>2026-04-25T10:58:29Z</time></trkpt><trkpt lat="44.77911908750977" lon="7.169217679191706"><ele>1686.4</ele><time>2026-04-25T10:58:30Z</time></trkpt><trkpt lat="44.77902875173812" lon="7.169218337142678"><ele>1688.8000000000002</ele><time>2026-04-25T10:58:31Z</time></trkpt><trkpt lat="44.778934324043774" lon="7.169210653433029"><ele>1691.1999999999998</ele><time>2026-04-25T10:58:32Z</time></trkpt><trkpt lat="44.778849121916494" lon="7.169180482274675"><ele>1693.6</ele><time>2026-04-25T10:58:33Z</time></trkpt><trkpt lat="44.7787639089695" lon="7.169145827245688"><ele>1696.0</ele><time>2026-04-25T10:58:34Z</time></trkpt><trkpt lat="44.778675291316866" lon="7.169115823939898"><ele>1696.0000000000002</ele><time>2026-04-25T10:58:35Z</time></trkpt><trkpt lat="44.77856897630752" lon="7.169090050206295"><ele>1696.0</ele><time>2026-04-25T10:58:37Z</time></trkpt><trkpt lat="44.77847209583004" lon="7.169060506294822"><ele>1696.0</ele><time>2026-04-25T10:58:39Z</time></trkpt><trkpt lat="44.77840094419541" lon="7.1690325959450325"><ele>1696.0</ele><time>2026-04-25T10:58:40Z</time></trkpt><trkpt lat="44.77831523809204" lon="7.1690095591828085"><ele>1696.0000000000002</ele><time>2026-04-25T10:58:41Z</time></trkpt><trkpt lat="44.778241843272156" lon="7.168997681249586"><ele>1696.0</ele><time>2026-04-25T10:58:42Z</time></trkpt><trkpt lat="44.778158222196154" lon="7.168989175779697"><ele>1702.6</ele><time>2026-04-25T10:58:43Z</time></trkpt><trkpt lat="44.77808798360903" lon="7.168976567638898"><ele>1709.1999999999998</ele><time>2026-04-25T10:58:44Z</time></trkpt><trkpt lat="44.7779530625507" lon="7.168954757104905"><ele>1715.8000000000002</ele><time>2026-04-25T10:58:46Z</time></trkpt><trkpt lat="44.777864283057276" lon="7.1689643045410065"><ele>1722.4</ele><time>2026-04-25T10:58:47Z</time></trkpt><trkpt lat="44.77775630259032" lon="7.1689743882371495"><ele>1729.0</ele><time>2026-04-25T10:58:48Z</time></trkpt><trkpt lat="44.77761342288381" lon="7.169002415255436"><ele>1727.5000000000002</ele><time>2026-04-25T10:58:49Z</time></trkpt><trkpt lat="44.777556545019806" lon="7.169049993454882"><ele>1726.0</ele><time>2026-04-25T10:58:50Z</time></trkpt><trkpt lat="44.77750122356272" lon="7.169115225991823"><ele>1724.5</ele><time>2026-04-25T10:58:51Z</time></trkpt><trkpt lat="44.777429452842355" lon="7.169190263826401"><ele>1723.0</ele><time>2026-04-25T10:58:52Z</time></trkpt><trkpt lat="44.77735930769977" lon="7.169237436158472"><ele>1721.5000000000002</ele><time>2026-04-25T10:58:53Z</time></trkpt><trkpt lat="44.777294875765826" lon="7.169295233956209"><ele>1720.0</ele><time>2026-04-25T10:58:54Z</time></trkpt><trkpt lat="44.77721331036805" lon="7.169399321392992"><ele>1720.0000000000002</ele><time>2026-04-25T10:58:56Z</time></trkpt><trkpt lat="44.77713628511014" lon="7.169482398146285"><ele>1720.0</ele><time>2026-04-25T10:58:58Z</time></trkpt><trkpt lat="44.777069718897295" lon="7.16953306376091"><ele>1720.0</ele><time>2026-04-25T10:59:00Z</time></trkpt><trkpt lat="44.77701182712559" lon="7.169613766979099"><ele>1720.0</ele><time>2026-04-25T10:59:02.999Z</time></trkpt><trkpt lat="44.77697929370758" lon="7.169709339694496"><ele>1720.0000000000002</ele><time>2026-04-25T10:59:11.999Z</time></trkpt><trkpt lat="44.77691859379101" lon="7.16978393003941"><ele>1720.0</ele><time>2026-04-25T11:01:17.999Z</time></trkpt><trkpt lat="44.776877949977056" lon="7.169855836891478"><ele>1721.8333333333335</ele><time>2026-04-25T11:01:37.999Z</time></trkpt><trkpt lat="44.776832932813114" lon="7.169934954171899"><ele>1723.6666666666667</ele><time>2026-04-25T11:01:45.999Z</time></trkpt><trkpt lat="44.77678204774051" lon="7.1699994594822165"><ele>1725.5</ele><time>2026-04-25T11:02:40Z</time></trkpt><trkpt lat="44.77667050616179" lon="7.170163292963151"><ele>1727.3333333333335</ele><time>2026-04-25T11:03:27.999Z</time></trkpt><trkpt lat="44.7766207031952" lon="7.170225785951606"><ele>1729.1666666666667</ele><time>2026-04-25T11:03:41.999Z</time></trkpt><trkpt lat="44.77657757715737" lon="7.170293078454332"><ele>1731.0</ele><time>2026-04-25T11:03:47.999Z</time></trkpt><trkpt lat="44.776528071930066" lon="7.170361130670632"><ele>1731.0</ele><time>2026-04-25T11:03:53.999Z</time></trkpt><trkpt lat="44.7764734002329" lon="7.170415554065582"><ele>1731.0</ele><time>2026-04-25T11:03:59.998Z</time></trkpt><trkpt lat="44.77641579165384" lon="7.170462334458012"><ele>1731.0</ele><time>2026-04-25T11:04:06.998Z</time></trkpt><trkpt lat="44.77646965589426" lon="7.170393128801937"><ele>1731.0</ele><time>2026-04-25T11:04:54Z</time></trkpt><trkpt lat="44.776517152262066" lon="7.170334168726594"><ele>1731.0</ele><time>2026-04-25T11:04:59Z</time></trkpt><trkpt lat="44.776566032430196" lon="7.170277666768068"><ele>1731.0</ele><time>2026-04-25T11:05:05Z</time></trkpt><trkpt lat="44.7766145535205" lon="7.1702193661310965"><ele>1731.0</ele><time>2026-04-25T11:05:15.999Z</time></trkpt><trkpt lat="44.77671157843817" lon="7.170106682361076"><ele>1731.0</ele><time>2026-04-25T11:06:12.998Z</time></trkpt><trkpt lat="44.77675572511509" lon="7.170026446443501"><ele>1731.0</ele><time>2026-04-25T11:06:24.998Z</time></trkpt><trkpt lat="44.77680026775898" lon="7.169957989022002"><ele>1731.0</ele><time>2026-04-25T11:06:33.998Z</time></trkpt><trkpt lat="44.776856184594045" lon="7.169892869323075"><ele>1731.0</ele><time>2026-04-25T11:06:46Z</time></trkpt><trkpt lat="44.776897202363905" lon="7.169813190136863"><ele>1731.0</ele><time>2026-04-25T11:06:55Z</time></trkpt><trkpt lat="44.776941692699666" lon="7.169733801178251"><ele>1731.0</ele><time>2026-04-25T11:07:55.999Z</time></trkpt><trkpt lat="44.77698662748254" lon="7.169651098185382"><ele>1731.0</ele><time>2026-04-25T11:08:00.999Z</time></trkpt><trkpt lat="44.777054444488336" lon="7.1695659683151005"><ele>1729.1666666666667</ele><time>2026-04-25T11:13:25Z</time></trkpt><trkpt lat="44.77711237208055" lon="7.169498420106687"><ele>1727.3333333333335</ele><time>2026-04-25T11:13:27Z</time></trkpt><trkpt lat="44.77718573156834" lon="7.1694305258630235"><ele>1725.5</ele><time>2026-04-25T11:13:30Z</time></trkpt><trkpt lat="44.77726687830025" lon="7.169356700402327"><ele>1723.6666666666667</ele><time>2026-04-25T11:13:31.999Z</time></trkpt><trkpt lat="44.77733771994939" lon="7.169285365985442"><ele>1721.8333333333335</ele><time>2026-04-25T11:13:33.999Z</time></trkpt><trkpt lat="44.7774170569636" lon="7.169198667333624"><ele>1720.0</ele><time>2026-04-25T11:13:35.999Z</time></trkpt><trkpt lat="44.777490205485144" lon="7.169138794738416"><ele>1720.0000000000002</ele><time>2026-04-25T11:13:37.999Z</time></trkpt><trkpt lat="44.77755800093569" lon="7.16908802153454"><ele>1720.0</ele><time>2026-04-25T11:13:39.999Z</time></trkpt><trkpt lat="44.777653346966716" lon="7.169020629784422"><ele>1720.0</ele><time>2026-04-25T11:13:41.999Z</time></trkpt><trkpt lat="44.77773685024778" lon="7.168987587003041"><ele>1720.0</ele><time>2026-04-25T11:13:42.999Z</time></trkpt><trkpt lat="44.777824948764106" lon="7.168979089809809"><ele>1720.0000000000002</ele><time>2026-04-25T11:13:43.999Z</time></trkpt><trkpt lat="44.77790468975697" lon="7.168978130926775"><ele>1720.0</ele><time>2026-04-25T11:13:44.999Z</time></trkpt><trkpt lat="44.7779848256867" lon="7.168976895916255"><ele>1721.5000000000002</ele><time>2026-04-25T11:13:45.999Z</time></trkpt><trkpt lat="44.77806274976242" lon="7.168973673922969"><ele>1723.0</ele><time>2026-04-25T11:13:46.999Z</time></trkpt><trkpt lat="44.778130655914296" lon="7.168973119148064"><ele>1724.5</ele><time>2026-04-25T11:13:47.999Z</time></trkpt><trkpt lat="44.77821790434119" lon="7.169000452978701"><ele>1726.0</ele><time>2026-04-25T11:13:49.999Z</time></trkpt><trkpt lat="44.77828204951315" lon="7.169008967281644"><ele>1727.5000000000002</ele><time>2026-04-25T11:13:50.999Z</time></trkpt><trkpt lat="44.778400384501026" lon="7.16903237636632"><ele>1729.0</ele><time>2026-04-25T11:13:52.999Z</time></trkpt><trkpt lat="44.77847857051825" lon="7.169063046010607"><ele>1723.5000000000002</ele><time>2026-04-25T11:13:53.999Z</time></trkpt><trkpt lat="44.778548018854806" lon="7.169085867616086"><ele>1718.0</ele><time>2026-04-25T11:13:54.999Z</time></trkpt><trkpt lat="44.778637618636196" lon="7.169105453015456"><ele>1712.5</ele><time>2026-04-25T11:13:56.999Z</time></trkpt><trkpt lat="44.77872919363784" lon="7.169129133925028"><ele>1707.0</ele><time>2026-04-25T11:13:58.999Z</time></trkpt><trkpt lat="44.778790403168976" lon="7.169156602113902"><ele>1701.5000000000002</ele><time>2026-04-25T11:13:59.999Z</time></trkpt><trkpt lat="44.77885810172297" lon="7.169184134233902"><ele>1696.0</ele><time>2026-04-25T11:14:01.999Z</time></trkpt><trkpt lat="44.77892386490791" lon="7.169194320954157"><ele>1696.0000000000002</ele><time>2026-04-25T11:14:16.999Z</time></trkpt><trkpt lat="44.77899257728512" lon="7.16922436392412"><ele>1696.0</ele><time>2026-04-25T11:14:18.998Z</time></trkpt><trkpt lat="44.779082007714855" lon="7.169225954493085"><ele>1696.0</ele><time>2026-04-25T11:14:20.998Z</time></trkpt><trkpt lat="44.77917529702609" lon="7.169223807399936"><ele>1696.0</ele><time>2026-04-25T11:14:22.998Z</time></trkpt><trkpt lat="44.77926330531845" lon="7.169227658187913"><ele>1696.0000000000002</ele><time>2026-04-25T11:14:24.998Z</time></trkpt><trkpt lat="44.77936111338222" lon="7.1692354668902984"><ele>1696.0</ele><time>2026-04-25T11:14:26.998Z</time></trkpt><trkpt lat="44.77945764397548" lon="7.169264206965987"><ele>1694.0000000000002</ele><time>2026-04-25T11:14:28.998Z</time></trkpt><trkpt lat="44.7795781647167" lon="7.169297228481081"><ele>1692.0</ele><time>2026-04-25T11:14:30.998Z</time></trkpt><trkpt lat="44.779642989944165" lon="7.1693153839654045"><ele>1690.0</ele><time>2026-04-25T11:14:31.998Z</time></trkpt><trkpt lat="44.779720666755686" lon="7.1693357364562456"><ele>1688.0</ele><time>2026-04-25T11:14:32.998Z</time></trkpt><trkpt lat="44.77980411300156" lon="7.169352711582387"><ele>1686.0000000000002</ele><time>2026-04-25T11:14:33.998Z</time></trkpt><trkpt lat="44.779877667860205" lon="7.169361315786536"><ele>1684.0</ele><time>2026-04-25T11:14:34.998Z</time></trkpt><trkpt lat="44.779947092534314" lon="7.169361315787692"><ele>1684.0000000000002</ele><time>2026-04-25T11:14:35.998Z</time></trkpt><trkpt lat="44.780017060720695" lon="7.1693673418868205"><ele>1684.0</ele><time>2026-04-25T11:14:36.998Z</time></trkpt><trkpt lat="44.780087674338404" lon="7.169375596861248"><ele>1684.0</ele><time>2026-04-25T11:14:37.998Z</time></trkpt><trkpt lat="44.78015583208151" lon="7.1693788157901945"><ele>1684.0</ele><time>2026-04-25T11:14:38.998Z</time></trkpt><trkpt lat="44.78022207050227" lon="7.169374807375059"><ele>1684.0</ele><time>2026-04-25T11:14:39.998Z</time></trkpt><trkpt lat="44.780286064462466" lon="7.169361157235569"><ele>1684.0000000000002</ele><time>2026-04-25T11:14:40.998Z</time></trkpt><trkpt lat="44.78038517956232" lon="7.169339863201255"><ele>1684.0</ele><time>2026-04-25T11:14:42.998Z</time></trkpt><trkpt lat="44.78047060715517" lon="7.169334228391638"><ele>1679.3333333333335</ele><time>2026-04-25T11:14:44.998Z</time></trkpt><trkpt lat="44.780543517260575" lon="7.169312840422767"><ele>1674.6666666666667</ele><time>2026-04-25T11:14:47.998Z</time></trkpt><trkpt lat="44.780614983699635" lon="7.169307567923142"><ele>1670.0</ele><time>2026-04-25T11:14:49.998Z</time></trkpt><trkpt lat="44.78071588321042" lon="7.16927208958181"><ele>1665.3333333333335</ele><time>2026-04-25T11:14:54.998Z</time></trkpt><trkpt lat="44.78078426533257" lon="7.169257905177665"><ele>1660.6666666666667</ele><time>2026-04-25T11:14:57.998Z</time></trkpt><trkpt lat="44.780868928345576" lon="7.169284806871998"><ele>1656.0</ele><time>2026-04-25T11:15:00.998Z</time></trkpt><trkpt lat="44.780927289093775" lon="7.169353271933513"><ele>1656.0</ele><time>2026-04-25T11:15:38.999Z</time></trkpt><trkpt lat="44.78098459176995" lon="7.169428650024334"><ele>1656.0</ele><time>2026-04-25T11:15:40.999Z</time></trkpt><trkpt lat="44.781062872815504" lon="7.169519829704146"><ele>1656.0</ele><time>2026-04-25T11:15:42.999Z</time></trkpt><trkpt lat="44.78115336970619" lon="7.169628355162848"><ele>1656.0</ele><time>2026-04-25T11:15:44.999Z</time></trkpt><trkpt lat="44.781225052080984" lon="7.1697160101886555"><ele>1656.0</ele><time>2026-04-25T11:15:46.999Z</time></trkpt><trkpt lat="44.78132410097556" lon="7.16978583400497"><ele>1653.1666666666667</ele><time>2026-04-25T11:15:48.999Z</time></trkpt><trkpt lat="44.7814385977483" lon="7.169829636750092"><ele>1650.3333333333335</ele><time>2026-04-25T11:15:50.999Z</time></trkpt><trkpt lat="44.78150743869305" lon="7.169842220269347"><ele>1647.5</ele><time>2026-04-25T11:15:51.999Z</time></trkpt><trkpt lat="44.781570805769874" lon="7.1698442158176885"><ele>1644.6666666666667</ele><time>2026-04-25T11:15:52.999Z</time></trkpt><trkpt lat="44.78169611634435" lon="7.169838097825582"><ele>1641.8333333333335</ele><time>2026-04-25T11:15:54.999Z</time></trkpt><trkpt lat="44.781765808012906" lon="7.169833769904042"><ele>1639.0</ele><time>2026-04-25T11:15:55.999Z</time></trkpt><trkpt lat="44.78184178389275" lon="7.169846484824678"><ele>1637.5000000000002</ele><time>2026-04-25T11:15:56.999Z</time></trkpt><trkpt lat="44.781942468267125" lon="7.169905772266856"><ele>1636.0</ele><time>2026-04-25T11:15:58.999Z</time></trkpt><trkpt lat="44.78200510977348" lon="7.169943816353429"><ele>1634.5</ele><time>2026-04-25T11:15:59.999Z</time></trkpt><trkpt lat="44.782070787702615" lon="7.169970590463281"><ele>1633.0</ele><time>2026-04-25T11:16:00.999Z</time></trkpt><trkpt lat="44.78213258868305" lon="7.169992579261986"><ele>1631.5000000000002</ele><time>2026-04-25T11:16:01.999Z</time></trkpt><trkpt lat="44.78219519511837" lon="7.170024885763626"><ele>1630.0</ele><time>2026-04-25T11:16:02.999Z</time></trkpt><trkpt lat="44.78229030468199" lon="7.170102853331876"><ele>1630.0000000000002</ele><time>2026-04-25T11:16:04.999Z</time></trkpt><trkpt lat="44.78237843142866" lon="7.170170793551467"><ele>1630.0</ele><time>2026-04-25T11:16:06.999Z</time></trkpt><trkpt lat="44.78244421371597" lon="7.17022047752676"><ele>1630.0</ele><time>2026-04-25T11:16:07.999Z</time></trkpt><trkpt lat="44.78251272271806" lon="7.1702722220389745"><ele>1630.0</ele><time>2026-04-25T11:16:08.999Z</time></trkpt><trkpt lat="44.78257149031572" lon="7.170324700565139"><ele>1630.0000000000002</ele><time>2026-04-25T11:16:09.999Z</time></trkpt><trkpt lat="44.782650837395785" lon="7.170410621403274"><ele>1630.0</ele><time>2026-04-25T11:16:11.999Z</time></trkpt><trkpt lat="44.7827162320411" lon="7.170495682872802"><ele>1627.0</ele><time>2026-04-25T11:16:13.999Z</time></trkpt><trkpt lat="44.78276559516401" lon="7.170595062828665"><ele>1624.0</ele><time>2026-04-25T11:16:16.999Z</time></trkpt><trkpt lat="44.78283398778051" lon="7.170755808640702"><ele>1621.0</ele><time>2026-04-25T11:16:17.999Z</time></trkpt><trkpt lat="44.782914582084054" lon="7.17091113844956"><ele>1618.0</ele><time>2026-04-25T11:16:18.999Z</time></trkpt><trkpt lat="44.78298613074821" lon="7.171038422726739"><ele>1618.0000000000002</ele><time>2026-04-25T11:16:19.999Z</time></trkpt><trkpt lat="44.783049236276085" lon="7.171133961184026"><ele>1618.0</ele><time>2026-04-25T11:16:20.999Z</time></trkpt><trkpt lat="44.783112368491416" lon="7.171196042606887"><ele>1618.0</ele><time>2026-04-25T11:16:21.998Z</time></trkpt><trkpt lat="44.783213163699656" lon="7.171229609980473"><ele>1618.0</ele><time>2026-04-25T11:16:23.998Z</time></trkpt><trkpt lat="44.78326459847585" lon="7.171169022817121"><ele>1618.0000000000002</ele><time>2026-04-25T11:16:24.998Z</time></trkpt><trkpt lat="44.78332823178651" lon="7.171143492491174"><ele>1618.0</ele><time>2026-04-25T11:16:25.998Z</time></trkpt><trkpt lat="44.783415213681536" lon="7.171091509531592"><ele>1618.0000000000002</ele><time>2026-04-25T11:16:26.998Z</time></trkpt><trkpt lat="44.78349642471565" lon="7.1710961159439215"><ele>1618.0</ele><time>2026-04-25T11:16:27.998Z</time></trkpt><trkpt lat="44.7835672718291" lon="7.171105284675656"><ele>1618.0</ele><time>2026-04-25T11:16:28.998Z</time></trkpt><trkpt lat="44.783627250186846" lon="7.171146702838734"><ele>1618.0</ele><time>2026-04-25T11:16:29.998Z</time></trkpt><trkpt lat="44.783712964451425" lon="7.171232498932092"><ele>1618.0000000000002</ele><time>2026-04-25T11:16:31.998Z</time></trkpt><trkpt lat="44.783774155673505" lon="7.171285940178698"><ele>1618.0</ele><time>2026-04-25T11:16:33.998Z</time></trkpt><trkpt lat="44.78388474581516" lon="7.171348418324499"><ele>1616.0</ele><time>2026-04-25T11:16:35.998Z</time></trkpt><trkpt lat="44.78394927041545" lon="7.171380140362446"><ele>1614.0</ele><time>2026-04-25T11:16:36.998Z</time></trkpt><trkpt lat="44.78403985961674" lon="7.171388637053728"><ele>1612.0</ele><time>2026-04-25T11:16:37.998Z</time></trkpt><trkpt lat="44.78414719494499" lon="7.171391405092731"><ele>1610.0</ele><time>2026-04-25T11:16:38.998Z</time></trkpt><trkpt lat="44.78424943465449" lon="7.171381479073506"><ele>1608.0</ele><time>2026-04-25T11:16:39.998Z</time></trkpt><trkpt lat="44.78433363573957" lon="7.171361289819878"><ele>1605.6000000000001</ele><time>2026-04-25T11:16:40.998Z</time></trkpt><trkpt lat="44.78443274197028" lon="7.171348619766254"><ele>1603.2</ele><time>2026-04-25T11:16:41.998Z</time></trkpt><trkpt lat="44.78453752307354" lon="7.171373913201781"><ele>1600.8</ele><time>2026-04-25T11:16:42.998Z</time></trkpt><trkpt lat="44.78462651922139" lon="7.171393554437254"><ele>1598.4</ele><time>2026-04-25T11:16:43.998Z</time></trkpt><trkpt lat="44.7847153376005" lon="7.171401818998372"><ele>1596.0</ele><time>2026-04-25T11:16:44.998Z</time></trkpt><trkpt lat="44.78479734780267" lon="7.1713826270059755"><ele>1596.0</ele><time>2026-04-25T11:16:45.998Z</time></trkpt><trkpt lat="44.78485803454194" lon="7.171357598165573"><ele>1596.0</ele><time>2026-04-25T11:16:46.998Z</time></trkpt><trkpt lat="44.78496053442507" lon="7.171343268073253"><ele>1596.0</ele><time>2026-04-25T11:16:48.998Z</time></trkpt><trkpt lat="44.78502796792198" lon="7.171384703581138"><ele>1596.0</ele><time>2026-04-25T11:16:50.998Z</time></trkpt><trkpt lat="44.78503530029586" lon="7.17149163818538"><ele>1596.0</ele><time>2026-04-25T11:16:52.998Z</time></trkpt><trkpt lat="44.78498874490524" lon="7.171569802330863"><ele>1596.0</ele><time>2026-04-25T11:16:54.998Z</time></trkpt><trkpt lat="44.78494085235121" lon="7.171627890694902"><ele>1597.6</ele><time>2026-04-25T11:16:55.998Z</time></trkpt><trkpt lat="44.78484787162149" lon="7.171730729104579"><ele>1599.1999999999998</ele><time>2026-04-25T11:16:57.998Z</time></trkpt><trkpt lat="44.784795232131444" lon="7.171779900278104"><ele>1600.8000000000002</ele><time>2026-04-25T11:16:58.998Z</time></trkpt><trkpt lat="44.784715674256816" lon="7.1718480143022445"><ele>1602.4</ele><time>2026-04-25T11:16:59.998Z</time></trkpt><trkpt lat="44.78462622927456" lon="7.171909573663851"><ele>1604.0</ele><time>2026-04-25T11:17:00.998Z</time></trkpt><trkpt lat="44.78453719512897" lon="7.171947457394663"><ele>1604.0</ele><time>2026-04-25T11:17:01.998Z</time></trkpt><trkpt lat="44.7844554948418" lon="7.1719565067026405"><ele>1604.0</ele><time>2026-04-25T11:17:02.998Z</time></trkpt><trkpt lat="44.78436239658982" lon="7.171955745828991"><ele>1604.0</ele><time>2026-04-25T11:17:03.998Z</time></trkpt><trkpt lat="44.78426096745421" lon="7.171955315862445"><ele>1604.0</ele><time>2026-04-25T11:17:04.998Z</time></trkpt><trkpt lat="44.784159580651384" lon="7.171957999164647"><ele>1604.0</ele><time>2026-04-25T11:17:05.998Z</time></trkpt><trkpt lat="44.78406172854858" lon="7.171961890021797"><ele>1605.0</ele><time>2026-04-25T11:17:06.998Z</time></trkpt><trkpt lat="44.78392736733815" lon="7.171972221124462"><ele>1606.0</ele><time>2026-04-25T11:17:08Z</time></trkpt><trkpt lat="44.783824649469324" lon="7.171971225547568"><ele>1607.0</ele><time>2026-04-25T11:17:09Z</time></trkpt><trkpt lat="44.78371982623057" lon="7.171968844549125"><ele>1608.0</ele><time>2026-04-25T11:17:10Z</time></trkpt><trkpt lat="44.783627496401934" lon="7.171954885580742"><ele>1609.0</ele><time>2026-04-25T11:17:11Z</time></trkpt><trkpt lat="44.78354485689499" lon="7.171949564984401"><ele>1609.0</ele><time>2026-04-25T11:17:12Z</time></trkpt><trkpt lat="44.783458444261306" lon="7.171927561108802"><ele>1609.0</ele><time>2026-04-25T11:17:13Z</time></trkpt><trkpt lat="44.78339404256678" lon="7.171911174774435"><ele>1609.0</ele><time>2026-04-25T11:17:14Z</time></trkpt><trkpt lat="44.78341288969892" lon="7.172040294114005"><ele>1609.0</ele><time>2026-04-25T11:17:18Z</time></trkpt><trkpt lat="44.7834820727081" lon="7.172100728587827"><ele>1609.0</ele><time>2026-04-25T11:17:19Z</time></trkpt><trkpt lat="44.78360063929215" lon="7.1722420054680365"><ele>1609.0000000000002</ele><time>2026-04-25T11:17:21Z</time></trkpt><trkpt lat="44.783666641271964" lon="7.172282197104834"><ele>1609.0</ele><time>2026-04-25T11:17:22Z</time></trkpt><trkpt lat="44.783730315524764" lon="7.172317111585699"><ele>1609.0</ele><time>2026-04-25T11:17:23Z</time></trkpt><trkpt lat="44.78377733546284" lon="7.172386228013903"><ele>1609.0</ele><time>2026-04-25T11:17:25Z</time></trkpt><trkpt lat="44.78372878940728" lon="7.172456497597893"><ele>1609.0000000000002</ele><time>2026-04-25T11:17:27Z</time></trkpt><trkpt lat="44.78363294561535" lon="7.172478336173786"><ele>1609.0</ele><time>2026-04-25T11:17:29Z</time></trkpt><trkpt lat="44.78355716354496" lon="7.172476924349221"><ele>1602.2</ele><time>2026-04-25T11:17:30Z</time></trkpt><trkpt lat="44.783462166609446" lon="7.17247148444681"><ele>1595.4</ele><time>2026-04-25T11:17:31Z</time></trkpt><trkpt lat="44.78336198083036" lon="7.172445718767792"><ele>1588.6</ele><time>2026-04-25T11:17:32Z</time></trkpt><trkpt lat="44.78326651615005" lon="7.172428629607907"><ele>1581.8</ele><time>2026-04-25T11:17:33Z</time></trkpt><trkpt lat="44.78316827465601" lon="7.172426115887054"><ele>1575.0</ele><time>2026-04-25T11:17:34Z</time></trkpt><trkpt lat="44.78306851854038" lon="7.1724245934312965"><ele>1575.0</ele><time>2026-04-25T11:17:35Z</time></trkpt><trkpt lat="44.78300998508" lon="7.172489588867296"><ele>1575.0</ele><time>2026-04-25T11:17:37Z</time></trkpt><trkpt lat="44.783081490354135" lon="7.1726031877794725"><ele>1575.0</ele><time>2026-04-25T11:17:38.999Z</time></trkpt><trkpt lat="44.783199372474094" lon="7.172711238939593"><ele>1575.0</ele><time>2026-04-25T11:17:39.999Z</time></trkpt><trkpt lat="44.78326057390294" lon="7.172789505086679"><ele>1575.0</ele><time>2026-04-25T11:17:40.999Z</time></trkpt><trkpt lat="44.78317252929019" lon="7.172841317221508"><ele>1575.0</ele><time>2026-04-25T11:17:44.999Z</time></trkpt><trkpt lat="44.78304915258296" lon="7.172842826857787"><ele>1575.0</ele><time>2026-04-25T11:17:46.999Z</time></trkpt><trkpt lat="44.782881463505156" lon="7.172799026726178"><ele>1575.0</ele><time>2026-04-25T11:17:48.999Z</time></trkpt><trkpt lat="44.782817533753324" lon="7.172763000932711"><ele>1575.0</ele><time>2026-04-25T11:17:49.999Z</time></trkpt><trkpt lat="44.78275195449869" lon="7.1727070778957795"><ele>1575.0</ele><time>2026-04-25T11:17:50.999Z</time></trkpt><trkpt lat="44.782689381714476" lon="7.172649625264076"><ele>1575.0</ele><time>2026-04-25T11:17:51.999Z</time></trkpt><trkpt lat="44.78261914068354" lon="7.172676709503249"><ele>1575.0</ele><time>2026-04-25T11:17:54.999Z</time></trkpt><trkpt lat="44.7826298073797" lon="7.172782529668476"><ele>1575.0</ele><time>2026-04-25T11:17:56.999Z</time></trkpt><trkpt lat="44.7826807262224" lon="7.172899927612264"><ele>1575.0</ele><time>2026-04-25T11:17:57.999Z</time></trkpt><trkpt lat="44.78274090837537" lon="7.173002429600097"><ele>1575.0</ele><time>2026-04-25T11:17:58.999Z</time></trkpt><trkpt lat="44.78280649592318" lon="7.1730924219015195"><ele>1575.0</ele><time>2026-04-25T11:17:59.999Z</time></trkpt><trkpt lat="44.78287868766187" lon="7.173165362462434"><ele>1570.0</ele><time>2026-04-25T11:18:00.999Z</time></trkpt><trkpt lat="44.78294042674652" lon="7.173259914551589"><ele>1565.0</ele><time>2026-04-25T11:18:01.999Z</time></trkpt><trkpt lat="44.782974606774296" lon="7.1733374408310215"><ele>1560.0</ele><time>2026-04-25T11:18:02.999Z</time></trkpt><trkpt lat="44.78290315336296" lon="7.173352312181926"><ele>1555.0</ele><time>2026-04-25T11:18:04.999Z</time></trkpt><trkpt lat="44.78281231130644" lon="7.17330068484239"><ele>1550.0</ele><time>2026-04-25T11:18:07.999Z</time></trkpt><trkpt lat="44.7827496991313" lon="7.1732763719907435"><ele>1545.0</ele><time>2026-04-25T11:18:08.999Z</time></trkpt><trkpt lat="44.782674131896115" lon="7.173243733644018"><ele>1543.2</ele><time>2026-04-25T11:18:09.999Z</time></trkpt><trkpt lat="44.782598778240605" lon="7.17321091517113"><ele>1541.4</ele><time>2026-04-25T11:18:10.999Z</time></trkpt><trkpt lat="44.78250307838662" lon="7.173169351779166"><ele>1539.6</ele><time>2026-04-25T11:18:11.999Z</time></trkpt><trkpt lat="44.782403570797655" lon="7.173130919702982"><ele>1537.8</ele><time>2026-04-25T11:18:12.999Z</time></trkpt><trkpt lat="44.782310432480756" lon="7.173094338655093"><ele>1536.0</ele><time>2026-04-25T11:18:13.999Z</time></trkpt><trkpt lat="44.78221513046425" lon="7.173050885028557"><ele>1537.5</ele><time>2026-04-25T11:18:14.999Z</time></trkpt><trkpt lat="44.782123629078306" lon="7.173004592931136"><ele>1539.0</ele><time>2026-04-25T11:18:15.999Z</time></trkpt><trkpt lat="44.78203319697907" lon="7.1729558047741335"><ele>1540.5</ele><time>2026-04-25T11:18:16.999Z</time></trkpt><trkpt lat="44.78186541591671" lon="7.172845407466948"><ele>1542.0</ele><time>2026-04-25T11:18:17.999Z</time></trkpt><trkpt lat="44.7817799392624" lon="7.17282096292105"><ele>1542.0</ele><time>2026-04-25T11:18:18.999Z</time></trkpt><trkpt lat="44.781687597680445" lon="7.172801118124463"><ele>1542.0</ele><time>2026-04-25T11:18:19.999Z</time></trkpt><trkpt lat="44.78159862758702" lon="7.172776267390103"><ele>1542.0</ele><time>2026-04-25T11:18:20.999Z</time></trkpt><trkpt lat="44.781503701839966" lon="7.17273833942054"><ele>1542.0</ele><time>2026-04-25T11:18:21.999Z</time></trkpt><trkpt lat="44.7814143457673" lon="7.172717717844836"><ele>1542.0</ele><time>2026-04-25T11:18:22.999Z</time></trkpt><trkpt lat="44.7813323248786" lon="7.172713763288372"><ele>1542.0</ele><time>2026-04-25T11:18:23.999Z</time></trkpt><trkpt lat="44.781238453035904" lon="7.172707598418846"><ele>1542.0</ele><time>2026-04-25T11:18:24.998Z</time></trkpt><trkpt lat="44.781137652109045" lon="7.17270174410808"><ele>1542.0</ele><time>2026-04-25T11:18:25.998Z</time></trkpt><trkpt lat="44.781042989051954" lon="7.172707636639382"><ele>1542.0</ele><time>2026-04-25T11:18:26.998Z</time></trkpt><trkpt lat="44.78094431109613" lon="7.172727026690221"><ele>1542.0</ele><time>2026-04-25T11:18:27.998Z</time></trkpt><trkpt lat="44.780848192078906" lon="7.172750993313647"><ele>1540.0</ele><time>2026-04-25T11:18:28.998Z</time></trkpt><trkpt lat="44.78076451815027" lon="7.17277792139281"><ele>1538.0</ele><time>2026-04-25T11:18:29.998Z</time></trkpt><trkpt lat="44.7806757552433" lon="7.172804693198923"><ele>1536.0</ele><time>2026-04-25T11:18:30.998Z</time></trkpt><trkpt lat="44.7805782525816" lon="7.172834016458297"><ele>1534.0</ele><time>2026-04-25T11:18:31.998Z</time></trkpt><trkpt lat="44.78049342809747" lon="7.172848186230698"><ele>1532.0</ele><time>2026-04-25T11:18:32.998Z</time></trkpt><trkpt lat="44.78043262338999" lon="7.172871520368477"><ele>1530.0</ele><time>2026-04-25T11:18:33.998Z</time></trkpt><trkpt lat="44.780492704316" lon="7.17298327013792"><ele>1530.0</ele><time>2026-04-25T11:18:37.998Z</time></trkpt><trkpt lat="44.780588536970335" lon="7.1729846352834095"><ele>1530.0</ele><time>2026-04-25T11:18:39.998Z</time></trkpt><trkpt lat="44.78069565278666" lon="7.173048086903042"><ele>1530.0</ele><time>2026-04-25T11:18:41.998Z</time></trkpt><trkpt lat="44.78080275414655" lon="7.173144313223871"><ele>1530.0</ele><time>2026-04-25T11:18:43.998Z</time></trkpt><trkpt lat="44.78086310516044" lon="7.173202843534681"><ele>1530.0</ele><time>2026-04-25T11:18:44.998Z</time></trkpt><trkpt lat="44.780920480968625" lon="7.173263296131282"><ele>1527.3333333333333</ele><time>2026-04-25T11:18:45.998Z</time></trkpt><trkpt lat="44.780989890917496" lon="7.1733364279486"><ele>1524.6666666666667</ele><time>2026-04-25T11:18:46.998Z</time></trkpt><trkpt lat="44.781071465939796" lon="7.173414053324289"><ele>1522.0</ele><time>2026-04-25T11:18:47.998Z</time></trkpt><trkpt lat="44.7811356416495" lon="7.173477323253406"><ele>1519.3333333333335</ele><time>2026-04-25T11:18:48.998Z</time></trkpt><trkpt lat="44.78120100396006" lon="7.173549929136195"><ele>1516.6666666666667</ele><time>2026-04-25T11:18:49.998Z</time></trkpt><trkpt lat="44.78126417213251" lon="7.173636459024972"><ele>1514.0</ele><time>2026-04-25T11:18:50.998Z</time></trkpt><trkpt lat="44.78132112041317" lon="7.173716599520798"><ele>1514.0</ele><time>2026-04-25T11:18:51.998Z</time></trkpt><trkpt lat="44.781375451725644" lon="7.173781887243711"><ele>1514.0</ele><time>2026-04-25T11:18:52.998Z</time></trkpt><trkpt lat="44.78143475194734" lon="7.173836134987145"><ele>1514.0</ele><time>2026-04-25T11:18:53.998Z</time></trkpt><trkpt lat="44.781502269139985" lon="7.173891396103918"><ele>1514.0</ele><time>2026-04-25T11:18:54.998Z</time></trkpt><trkpt lat="44.781572642043145" lon="7.173951290203051"><ele>1514.0</ele><time>2026-04-25T11:18:55.998Z</time></trkpt><trkpt lat="44.78164191641979" lon="7.174008811788171"><ele>1514.0</ele><time>2026-04-25T11:18:56.998Z</time></trkpt><trkpt lat="44.781710135469595" lon="7.174060086949179"><ele>1512.3333333333335</ele><time>2026-04-25T11:18:57.998Z</time></trkpt><trkpt lat="44.78177352550059" lon="7.174101768910731"><ele>1510.6666666666667</ele><time>2026-04-25T11:18:58.998Z</time></trkpt><trkpt lat="44.78183832980163" lon="7.1741401304045604"><ele>1509.0</ele><time>2026-04-25T11:18:59.998Z</time></trkpt><trkpt lat="44.78190665523228" lon="7.174179370651751"><ele>1507.3333333333333</ele><time>2026-04-25T11:19:00.998Z</time></trkpt><trkpt lat="44.781976393305534" lon="7.174221469511648"><ele>1505.6666666666665</ele><time>2026-04-25T11:19:01.998Z</time></trkpt><trkpt lat="44.782047002452344" lon="7.174267684829916"><ele>1504.0</ele><time>2026-04-25T11:19:02.998Z</time></trkpt><trkpt lat="44.78212605179601" lon="7.174322788460969"><ele>1504.0</ele><time>2026-04-25T11:19:03.998Z</time></trkpt><trkpt lat="44.782197860509385" lon="7.1743774955136965"><ele>1504.0</ele><time>2026-04-25T11:19:04.998Z</time></trkpt><trkpt lat="44.78226629941868" lon="7.174457445970637"><ele>1504.0</ele><time>2026-04-25T11:19:05.998Z</time></trkpt><trkpt lat="44.78230376402649" lon="7.174533272018073"><ele>1504.0</ele><time>2026-04-25T11:19:06.998Z</time></trkpt><trkpt lat="44.78236430457965" lon="7.174662403604346"><ele>1504.0</ele><time>2026-04-25T11:19:08.998Z</time></trkpt><trkpt lat="44.782441533198735" lon="7.174768829113727"><ele>1498.0</ele><time>2026-04-25T11:19:10.998Z</time></trkpt><trkpt lat="44.78252970880341" lon="7.174876380813179"><ele>1492.0</ele><time>2026-04-25T11:19:12.997Z</time></trkpt><trkpt lat="44.782632324473795" lon="7.174984607083122"><ele>1486.0</ele><time>2026-04-25T11:19:15Z</time></trkpt><trkpt lat="44.78269842986767" lon="7.17500922576674"><ele>1480.0</ele><time>2026-04-25T11:19:16Z</time></trkpt><trkpt lat="44.782774931169925" lon="7.175023457029228"><ele>1474.0</ele><time>2026-04-25T11:19:17Z</time></trkpt><trkpt lat="44.78286153511608" lon="7.175038907744933"><ele>1473.2</ele><time>2026-04-25T11:19:18Z</time></trkpt><trkpt lat="44.78296200604932" lon="7.175069200814181"><ele>1472.4</ele><time>2026-04-25T11:19:19Z</time></trkpt><trkpt lat="44.78305336311369" lon="7.175087640635332"><ele>1471.6</ele><time>2026-04-25T11:19:20Z</time></trkpt><trkpt lat="44.78315121656314" lon="7.175044202402774"><ele>1470.8</ele><time>2026-04-25T11:19:22Z</time></trkpt><trkpt lat="44.78322216152122" lon="7.174979978687859"><ele>1470.0</ele><time>2026-04-25T11:19:23Z</time></trkpt><trkpt lat="44.78332103667229" lon="7.174917290019722"><ele>1470.0</ele><time>2026-04-25T11:19:24Z</time></trkpt><trkpt lat="44.78345200015094" lon="7.174870841859912"><ele>1470.0</ele><time>2026-04-25T11:19:25Z</time></trkpt><trkpt lat="44.78358665947583" lon="7.174830555842294"><ele>1470.0</ele><time>2026-04-25T11:19:26Z</time></trkpt><trkpt lat="44.78370501273935" lon="7.174821589745835"><ele>1470.0</ele><time>2026-04-25T11:19:27Z</time></trkpt><trkpt lat="44.78380762776375" lon="7.1748302483009905"><ele>1468.6666666666667</ele><time>2026-04-25T11:19:28Z</time></trkpt><trkpt lat="44.783898850528814" lon="7.1748275682316764"><ele>1467.3333333333333</ele><time>2026-04-25T11:19:29Z</time></trkpt><trkpt lat="44.78400131449951" lon="7.174831117283777"><ele>1466.0</ele><time>2026-04-25T11:19:30Z</time></trkpt><trkpt lat="44.78408926728274" lon="7.174819878191364"><ele>1464.6666666666665</ele><time>2026-04-25T11:19:31Z</time></trkpt><trkpt lat="44.78416869348689" lon="7.174823816169095"><ele>1463.3333333333333</ele><time>2026-04-25T11:19:32Z</time></trkpt><trkpt lat="44.78424820140163" lon="7.174856067772847"><ele>1462.0</ele><time>2026-04-25T11:19:33Z</time></trkpt><trkpt lat="44.78429667889872" lon="7.174973246249348"><ele>1463.8</ele><time>2026-04-25T11:19:34Z</time></trkpt><trkpt lat="44.78438482141642" lon="7.175075075009523"><ele>1465.6</ele><time>2026-04-25T11:19:35Z</time></trkpt><trkpt lat="44.78446797957475" lon="7.175171144953069"><ele>1467.3999999999999</ele><time>2026-04-25T11:19:36Z</time></trkpt><trkpt lat="44.784566132626416" lon="7.175255130906683"><ele>1469.1999999999998</ele><time>2026-04-25T11:19:37Z</time></trkpt><trkpt lat="44.78464802151943" lon="7.175356032854453"><ele>1471.0</ele><time>2026-04-25T11:19:38Z</time></trkpt><trkpt lat="44.78470870029623" lon="7.175465979191064"><ele>1471.0</ele><time>2026-04-25T11:19:39Z</time></trkpt><trkpt lat="44.784770244460496" lon="7.17556697992434"><ele>1471.0</ele><time>2026-04-25T11:19:40Z</time></trkpt><trkpt lat="44.784838314024896" lon="7.175633024838725"><ele>1471.0</ele><time>2026-04-25T11:19:41Z</time></trkpt><trkpt lat="44.78492104974444" lon="7.175713085276679"><ele>1471.0</ele><time>2026-04-25T11:19:42.999Z</time></trkpt><trkpt lat="44.78501513296836" lon="7.175677944274135"><ele>1471.0</ele><time>2026-04-25T11:19:44.999Z</time></trkpt><trkpt lat="44.7851233852981" lon="7.175639270883641"><ele>1472.3333333333333</ele><time>2026-04-25T11:19:46.999Z</time></trkpt><trkpt lat="44.785237319748965" lon="7.175633385098752"><ele>1473.6666666666665</ele><time>2026-04-25T11:19:48.999Z</time></trkpt><trkpt lat="44.785332919086756" lon="7.175684865859897"><ele>1475.0</ele><time>2026-04-25T11:19:50.999Z</time></trkpt><trkpt lat="44.785397630129346" lon="7.175710752739413"><ele>1476.3333333333333</ele><time>2026-04-25T11:19:51.999Z</time></trkpt><trkpt lat="44.78545741697909" lon="7.175759452842843"><ele>1477.6666666666667</ele><time>2026-04-25T11:19:52.999Z</time></trkpt><trkpt lat="44.785515877031266" lon="7.175803974279577"><ele>1479.0</ele><time>2026-04-25T11:19:53.999Z</time></trkpt><trkpt lat="44.78557008968843" lon="7.175855485650058"><ele>1473.3333333333333</ele><time>2026-04-25T11:19:54.999Z</time></trkpt><trkpt lat="44.78563271809714" lon="7.175890622433084"><ele>1467.6666666666667</ele><time>2026-04-25T11:19:55.999Z</time></trkpt><trkpt lat="44.78569287683178" lon="7.175929131953578"><ele>1462.0</ele><time>2026-04-25T11:19:56.999Z</time></trkpt><trkpt lat="44.78575465050455" lon="7.175980390241367"><ele>1456.3333333333335</ele><time>2026-04-25T11:19:57.999Z</time></trkpt><trkpt lat="44.78582994165647" lon="7.176042787577331"><ele>1450.6666666666667</ele><time>2026-04-25T11:19:58.999Z</time></trkpt><trkpt lat="44.78590933415739" lon="7.176127098688379"><ele>1445.0</ele><time>2026-04-25T11:19:59.999Z</time></trkpt><trkpt lat="44.78598840408316" lon="7.1761935243852015"><ele>1444.6666666666667</ele><time>2026-04-25T11:20:00.999Z</time></trkpt><trkpt lat="44.786063058708656" lon="7.176254472676436"><ele>1444.3333333333335</ele><time>2026-04-25T11:20:01.999Z</time></trkpt><trkpt lat="44.78613704203375" lon="7.176303212104261"><ele>1444.0</ele><time>2026-04-25T11:20:02.999Z</time></trkpt><trkpt lat="44.78620643884525" lon="7.1763543654098"><ele>1443.6666666666667</ele><time>2026-04-25T11:20:03.999Z</time></trkpt><trkpt lat="44.786268155607225" lon="7.176400620965789"><ele>1443.3333333333333</ele><time>2026-04-25T11:20:04.999Z</time></trkpt><trkpt lat="44.78633737967451" lon="7.17639705454772"><ele>1443.0</ele><time>2026-04-25T11:20:05.999Z</time></trkpt><trkpt lat="44.786406798414106" lon="7.17639912259568"><ele>1443.0</ele><time>2026-04-25T11:20:06.999Z</time></trkpt><trkpt lat="44.78648768392196" lon="7.1764001001966"><ele>1443.0</ele><time>2026-04-25T11:20:07.999Z</time></trkpt><trkpt lat="44.78656214524426" lon="7.176384109332037"><ele>1443.0</ele><time>2026-04-25T11:20:08.999Z</time></trkpt><trkpt lat="44.78662786204937" lon="7.176358124525041"><ele>1443.0</ele><time>2026-04-25T11:20:09.999Z</time></trkpt><trkpt lat="44.7867043953801" lon="7.176289616662607"><ele>1443.0</ele><time>2026-04-25T11:20:10.999Z</time></trkpt><trkpt lat="44.786780270069805" lon="7.17623064943203"><ele>1443.0</ele><time>2026-04-25T11:20:11.999Z</time></trkpt><trkpt lat="44.7867013307735" lon="7.176300029470461"><ele>1443.0</ele><time>2026-04-25T11:20:15.999Z</time></trkpt><trkpt lat="44.786624604253795" lon="7.176349901931221"><ele>1443.0</ele><time>2026-04-25T11:20:16.999Z</time></trkpt><trkpt lat="44.78665782672934" lon="7.176661711134511"><ele>1443.0</ele><time>2026-04-25T11:20:17.999Z</time></trkpt><trkpt lat="44.786597117427014" lon="7.17681110517246"><ele>1443.0</ele><time>2026-04-25T11:20:18.999Z</time></trkpt><trkpt lat="44.786544697583835" lon="7.176926854662061"><ele>1438.6666666666667</ele><time>2026-04-25T11:20:19.999Z</time></trkpt><trkpt lat="44.786487034396345" lon="7.17697977426836"><ele>1434.3333333333333</ele><time>2026-04-25T11:20:20.999Z</time></trkpt><trkpt lat="44.78639735601902" lon="7.177002390631462"><ele>1430.0</ele><time>2026-04-25T11:20:22.999Z</time></trkpt><trkpt lat="44.786334685549804" lon="7.176956398849459"><ele>1425.6666666666665</ele><time>2026-04-25T11:20:23.999Z</time></trkpt><trkpt lat="44.78622897154377" lon="7.176911042968258"><ele>1421.3333333333333</ele><time>2026-04-25T11:20:24.999Z</time></trkpt><trkpt lat="44.78613817747212" lon="7.176870778599168"><ele>1417.0</ele><time>2026-04-25T11:20:25.999Z</time></trkpt><trkpt lat="44.78608174922672" lon="7.176811112097801"><ele>1416.9999999999998</ele><time>2026-04-25T11:20:26.999Z</time></trkpt><trkpt lat="44.78601759314116" lon="7.176769882841694"><ele>1417.0</ele><time>2026-04-25T11:20:27.999Z</time></trkpt><trkpt lat="44.78595224583667" lon="7.176729342915051"><ele>1417.0</ele><time>2026-04-25T11:20:28.999Z</time></trkpt><trkpt lat="44.78587735802594" lon="7.1767121224500405"><ele>1417.0</ele><time>2026-04-25T11:20:30.998Z</time></trkpt><trkpt lat="44.78589710105016" lon="7.176807680524334"><ele>1417.0</ele><time>2026-04-25T11:20:31.998Z</time></trkpt><trkpt lat="44.7859394116282" lon="7.1768904868456005"><ele>1416.9999999999998</ele><time>2026-04-25T11:20:32.998Z</time></trkpt><trkpt lat="44.7859856005692" lon="7.176976774948875"><ele>1417.0</ele><time>2026-04-25T11:20:33.998Z</time></trkpt><trkpt lat="44.786045255857076" lon="7.177059004696293"><ele>1417.0</ele><time>2026-04-25T11:20:34.998Z</time></trkpt><trkpt lat="44.78610079642741" lon="7.1771217211490095"><ele>1417.0</ele><time>2026-04-25T11:20:35.998Z</time></trkpt><trkpt lat="44.78616356195118" lon="7.1771924549462005"><ele>1417.0</ele><time>2026-04-25T11:20:36.998Z</time></trkpt><trkpt lat="44.78624122099109" lon="7.177278556841229"><ele>1417.0</ele><time>2026-04-25T11:20:37.998Z</time></trkpt><trkpt lat="44.78631453189754" lon="7.177339138862184"><ele>1417.0</ele><time>2026-04-25T11:20:38.998Z</time></trkpt><trkpt lat="44.78637939730732" lon="7.177430894436986"><ele>1417.0</ele><time>2026-04-25T11:20:39.998Z</time></trkpt><trkpt lat="44.7864503100576" lon="7.177533943653306"><ele>1412.8333333333333</ele><time>2026-04-25T11:20:40.998Z</time></trkpt><trkpt lat="44.78650181394882" lon="7.1776263832129725"><ele>1408.6666666666665</ele><time>2026-04-25T11:20:41.998Z</time></trkpt><trkpt lat="44.78656063157392" lon="7.177737630466847"><ele>1404.5</ele><time>2026-04-25T11:20:42.998Z</time></trkpt><trkpt lat="44.7866230589958" lon="7.1778323185570585"><ele>1400.3333333333333</ele><time>2026-04-25T11:20:43.998Z</time></trkpt><trkpt lat="44.78667663402455" lon="7.17790597662738"><ele>1396.1666666666667</ele><time>2026-04-25T11:20:44.998Z</time></trkpt><trkpt lat="44.786728976122944" lon="7.1779684762194575"><ele>1392.0</ele><time>2026-04-25T11:20:54.998Z</time></trkpt><trkpt lat="44.786831975623926" lon="7.178054359295247"><ele>1392.0</ele><time>2026-04-25T11:20:56.998Z</time></trkpt><trkpt lat="44.78691001748939" lon="7.178087672016453"><ele>1392.0</ele><time>2026-04-25T11:20:59.998Z</time></trkpt><trkpt lat="44.78685588002399" lon="7.178003612651728"><ele>1392.0</ele><time>2026-04-25T11:21:31Z</time></trkpt><trkpt lat="44.78678403201729" lon="7.177951377094253"><ele>1392.0</ele><time>2026-04-25T11:24:22.999Z</time></trkpt><trkpt lat="44.78673949423772" lon="7.17788745080603"><ele>1392.0</ele><time>2026-04-25T11:24:24.999Z</time></trkpt><trkpt lat="44.78664967128971" lon="7.177797566880185"><ele>1392.0</ele><time>2026-04-25T11:24:26.999Z</time></trkpt><trkpt lat="44.78658096589071" lon="7.177757933080096"><ele>1392.0</ele><time>2026-04-25T11:24:27.999Z</time></trkpt><trkpt lat="44.78651008555695" lon="7.177732106728972"><ele>1392.0</ele><time>2026-04-25T11:24:28.999Z</time></trkpt><trkpt lat="44.78643369457374" lon="7.177704644607473"><ele>1392.0</ele><time>2026-04-25T11:24:29.999Z</time></trkpt><trkpt lat="44.786347530371515" lon="7.177683539596716"><ele>1392.0</ele><time>2026-04-25T11:24:30.999Z</time></trkpt><trkpt lat="44.786249667816925" lon="7.177655927008343"><ele>1392.0</ele><time>2026-04-25T11:24:31.999Z</time></trkpt><trkpt lat="44.78616916015576" lon="7.177601581321832"><ele>1392.0</ele><time>2026-04-25T11:24:32.999Z</time></trkpt><trkpt lat="44.78612664994649" lon="7.177514628397357"><ele>1392.0</ele><time>2026-04-25T11:24:33.999Z</time></trkpt><trkpt lat="44.78602671114194" lon="7.177472911559003"><ele>1392.0</ele><time>2026-04-25T11:24:35.998Z</time></trkpt><trkpt lat="44.78595193270531" lon="7.17744603772933"><ele>1392.0</ele><time>2026-04-25T11:24:36.998Z</time></trkpt><trkpt lat="44.78587683234326" lon="7.177389812830029"><ele>1392.0</ele><time>2026-04-25T11:24:37.998Z</time></trkpt><trkpt lat="44.78578794699691" lon="7.177335210945827"><ele>1392.0</ele><time>2026-04-25T11:24:38.998Z</time></trkpt><trkpt lat="44.785699335029435" lon="7.177321959621586"><ele>1394.8333333333333</ele><time>2026-04-25T11:24:39.998Z</time></trkpt><trkpt lat="44.785621212462694" lon="7.17728932128858"><ele>1397.6666666666667</ele><time>2026-04-25T11:24:40.998Z</time></trkpt><trkpt lat="44.785552670041234" lon="7.177266721313539"><ele>1400.5</ele><time>2026-04-25T11:24:41.998Z</time></trkpt><trkpt lat="44.78547054962145" lon="7.1772634697701365"><ele>1403.3333333333335</ele><time>2026-04-25T11:24:42.998Z</time></trkpt><trkpt lat="44.78539768711781" lon="7.177274999036762"><ele>1406.1666666666667</ele><time>2026-04-25T11:24:43.998Z</time></trkpt><trkpt lat="44.78528611319872" lon="7.177387798864533"><ele>1409.0</ele><time>2026-04-25T11:24:45.998Z</time></trkpt><trkpt lat="44.78522520706353" lon="7.177445659289692"><ele>1406.3333333333335</ele><time>2026-04-25T11:24:46.998Z</time></trkpt><trkpt lat="44.785144379807065" lon="7.17748465310089"><ele>1403.6666666666667</ele><time>2026-04-25T11:24:47.998Z</time></trkpt><trkpt lat="44.785054066676125" lon="7.1774830457098"><ele>1401.0</ele><time>2026-04-25T11:24:48.998Z</time></trkpt><trkpt lat="44.78497756941992" lon="7.177456186944747"><ele>1398.3333333333333</ele><time>2026-04-25T11:24:49.998Z</time></trkpt><trkpt lat="44.784915432431085" lon="7.1774410603901435"><ele>1395.6666666666665</ele><time>2026-04-25T11:24:50.998Z</time></trkpt><trkpt lat="44.784835906637866" lon="7.177395157460484"><ele>1393.0</ele><time>2026-04-25T11:24:51.998Z</time></trkpt><trkpt lat="44.78475244718735" lon="7.177319988308129"><ele>1393.0</ele><time>2026-04-25T11:24:52.998Z</time></trkpt><trkpt lat="44.78468680096403" lon="7.17725198810337"><ele>1393.0</ele><time>2026-04-25T11:24:53.998Z</time></trkpt><trkpt lat="44.784614121035204" lon="7.177227231648409"><ele>1393.0</ele><time>2026-04-25T11:24:54.998Z</time></trkpt><trkpt lat="44.784550833275084" lon="7.17721227672348"><ele>1393.0</ele><time>2026-04-25T11:24:55.998Z</time></trkpt><trkpt lat="44.78446194996843" lon="7.177187529081872"><ele>1393.0</ele><time>2026-04-25T11:24:57.998Z</time></trkpt><trkpt lat="44.78447178701203" lon="7.177280120835303"><ele>1393.0</ele><time>2026-04-25T11:25:01.998Z</time></trkpt><trkpt lat="44.78452993209478" lon="7.177316145688244"><ele>1393.0</ele><time>2026-04-25T11:25:02.998Z</time></trkpt><trkpt lat="44.78461740104398" lon="7.177406478650638"><ele>1385.6000000000001</ele><time>2026-04-25T11:25:04.998Z</time></trkpt><trkpt lat="44.784698815944125" lon="7.1775479594846106"><ele>1378.2</ele><time>2026-04-25T11:25:06.998Z</time></trkpt><trkpt lat="44.78473599476471" lon="7.177631687960501"><ele>1370.8</ele><time>2026-04-25T11:25:07.998Z</time></trkpt><trkpt lat="44.78480598788562" lon="7.177752421026646"><ele>1363.4</ele><time>2026-04-25T11:25:09.998Z</time></trkpt><trkpt lat="44.784683265311976" lon="7.177709308156026"><ele>1356.0</ele><time>2026-04-25T11:25:14.998Z</time></trkpt><trkpt lat="44.7846369546378" lon="7.177646203484505"><ele>1356.0</ele><time>2026-04-25T11:25:15.998Z</time></trkpt><trkpt lat="44.78453368363429" lon="7.177586150768338"><ele>1356.0</ele><time>2026-04-25T11:25:17.998Z</time></trkpt><trkpt lat="44.784464939944975" lon="7.177537344865043"><ele>1356.0</ele><time>2026-04-25T11:25:18.998Z</time></trkpt><trkpt lat="44.78438048040514" lon="7.177503194657099"><ele>1356.0</ele><time>2026-04-25T11:25:19.998Z</time></trkpt><trkpt lat="44.78430250094686" lon="7.1774654217759775"><ele>1356.0</ele><time>2026-04-25T11:25:20.998Z</time></trkpt><trkpt lat="44.784227011652895" lon="7.177432168585381"><ele>1356.0</ele><time>2026-04-25T11:25:21.998Z</time></trkpt><trkpt lat="44.78414686464135" lon="7.1773765389904325"><ele>1353.3333333333333</ele><time>2026-04-25T11:25:22.998Z</time></trkpt><trkpt lat="44.784075875227316" lon="7.177359824308079"><ele>1350.6666666666667</ele><time>2026-04-25T11:25:23.997Z</time></trkpt><trkpt lat="44.783984712846525" lon="7.177373932904846"><ele>1348.0</ele><time>2026-04-25T11:25:24.997Z</time></trkpt><trkpt lat="44.78391393593703" lon="7.177383894208605"><ele>1345.3333333333335</ele><time>2026-04-25T11:25:25.997Z</time></trkpt><trkpt lat="44.78384585936874" lon="7.177368743775036"><ele>1342.6666666666667</ele><time>2026-04-25T11:25:26.997Z</time></trkpt><trkpt lat="44.78377211576644" lon="7.177365322458379"><ele>1340.0</ele><time>2026-04-25T11:25:27.997Z</time></trkpt><trkpt lat="44.78367370555949" lon="7.177361888122964"><ele>1340.0</ele><time>2026-04-25T11:25:28.997Z</time></trkpt><trkpt lat="44.7835779610208" lon="7.177391067645534"><ele>1340.0</ele><time>2026-04-25T11:25:29.997Z</time></trkpt><trkpt lat="44.78347088895036" lon="7.177425027032644"><ele>1340.0</ele><time>2026-04-25T11:25:31Z</time></trkpt><trkpt lat="44.78337961343372" lon="7.1774572509320125"><ele>1340.0</ele><time>2026-04-25T11:25:32Z</time></trkpt><trkpt lat="44.78329961561685" lon="7.177496687487362"><ele>1340.0</ele><time>2026-04-25T11:25:33Z</time></trkpt><trkpt lat="44.78322474870783" lon="7.177537516887134"><ele>1339.5</ele><time>2026-04-25T11:25:34Z</time></trkpt><trkpt lat="44.7831608946007" lon="7.177584132843455"><ele>1339.0</ele><time>2026-04-25T11:25:35Z</time></trkpt><trkpt lat="44.783097296598825" lon="7.177644310453775"><ele>1338.5</ele><time>2026-04-25T11:25:36Z</time></trkpt><trkpt lat="44.78304511478016" lon="7.177728845216256"><ele>1338.0</ele><time>2026-04-25T11:25:37Z</time></trkpt><trkpt lat="44.783011648267355" lon="7.177829816665383"><ele>1337.5</ele><time>2026-04-25T11:25:38Z</time></trkpt><trkpt lat="44.78299478337583" lon="7.17795276396707"><ele>1337.0</ele><time>2026-04-25T11:25:39Z</time></trkpt><trkpt lat="44.782970880576045" lon="7.178063952259672"><ele>1337.0</ele><time>2026-04-25T11:25:40Z</time></trkpt><trkpt lat="44.78293909392958" lon="7.17817319648982"><ele>1337.0</ele><time>2026-04-25T11:25:41Z</time></trkpt><trkpt lat="44.78290092652996" lon="7.178264029302797"><ele>1337.0</ele><time>2026-04-25T11:25:42Z</time></trkpt><trkpt lat="44.78285909044028" lon="7.178350729276318"><ele>1337.0</ele><time>2026-04-25T11:25:43Z</time></trkpt><trkpt lat="44.782833261340784" lon="7.178454153265253"><ele>1337.0</ele><time>2026-04-25T11:25:44Z</time></trkpt><trkpt lat="44.78279616959433" lon="7.178550173898352"><ele>1337.0</ele><time>2026-04-25T11:25:45Z</time></trkpt><trkpt lat="44.782749729659415" lon="7.178638378927928"><ele>1338.5</ele><time>2026-04-25T11:25:46Z</time></trkpt><trkpt lat="44.78270751162563" lon="7.17873129421477"><ele>1340.0</ele><time>2026-04-25T11:25:47Z</time></trkpt><trkpt lat="44.78264800545623" lon="7.178805795788701"><ele>1341.5</ele><time>2026-04-25T11:25:48Z</time></trkpt><trkpt lat="44.78258512660259" lon="7.178868948701424"><ele>1343.0</ele><time>2026-04-25T11:25:49Z</time></trkpt><trkpt lat="44.78251451332187" lon="7.178929862018587"><ele>1344.5</ele><time>2026-04-25T11:25:50Z</time></trkpt><trkpt lat="44.782426928243765" lon="7.178997323494096"><ele>1346.0</ele><time>2026-04-25T11:25:51Z</time></trkpt><trkpt lat="44.78233307009823" lon="7.179077621603105"><ele>1338.4</ele><time>2026-04-25T11:25:52Z</time></trkpt><trkpt lat="44.78224770141895" lon="7.179156258626906"><ele>1330.8</ele><time>2026-04-25T11:25:53Z</time></trkpt><trkpt lat="44.782172025334894" lon="7.179228190238233"><ele>1323.2</ele><time>2026-04-25T11:25:53.999Z</time></trkpt><trkpt lat="44.78209828129547" lon="7.179302460574843"><ele>1315.6000000000001</ele><time>2026-04-25T11:25:54.999Z</time></trkpt><trkpt lat="44.782024047061284" lon="7.179380571775422"><ele>1308.0</ele><time>2026-04-25T11:25:55.999Z</time></trkpt><trkpt lat="44.78195141951619" lon="7.179453515584429"><ele>1308.0</ele><time>2026-04-25T11:25:56.999Z</time></trkpt><trkpt lat="44.78187207147904" lon="7.17952751655459"><ele>1308.0</ele><time>2026-04-25T11:25:57.999Z</time></trkpt><trkpt lat="44.781791724400186" lon="7.179603123639297"><ele>1308.0</ele><time>2026-04-25T11:25:58.999Z</time></trkpt><trkpt lat="44.78171615390312" lon="7.179681291494635"><ele>1308.0</ele><time>2026-04-25T11:25:59.999Z</time></trkpt><trkpt lat="44.781646726833245" lon="7.179754922245688"><ele>1308.0</ele><time>2026-04-25T11:26:00.999Z</time></trkpt><trkpt lat="44.781575481690965" lon="7.179792138112878"><ele>1308.0</ele><time>2026-04-25T11:26:01.999Z</time></trkpt><trkpt lat="44.78149701494214" lon="7.179772689074333"><ele>1311.4</ele><time>2026-04-25T11:26:02.999Z</time></trkpt><trkpt lat="44.7814209177897" lon="7.179762436974002"><ele>1314.8000000000002</ele><time>2026-04-25T11:26:03.999Z</time></trkpt><trkpt lat="44.78150125883118" lon="7.1798628297002525"><ele>1318.2</ele><time>2026-04-25T11:26:07.999Z</time></trkpt><trkpt lat="44.78158302024187" lon="7.179911636065772"><ele>1321.6</ele><time>2026-04-25T11:26:08.999Z</time></trkpt><trkpt lat="44.781677639330645" lon="7.17994071828346"><ele>1325.0</ele><time>2026-04-25T11:26:09.999Z</time></trkpt><trkpt lat="44.781782081431196" lon="7.179909227171439"><ele>1322.1666666666667</ele><time>2026-04-25T11:26:11.999Z</time></trkpt><trkpt lat="44.781849227798794" lon="7.179874337643714"><ele>1319.3333333333335</ele><time>2026-04-25T11:26:12.999Z</time></trkpt><trkpt lat="44.78191869435903" lon="7.179839720625194"><ele>1316.5</ele><time>2026-04-25T11:26:13.999Z</time></trkpt><trkpt lat="44.782000451729324" lon="7.1798169725811265"><ele>1313.6666666666667</ele><time>2026-04-25T11:26:14.999Z</time></trkpt><trkpt lat="44.78207826543654" lon="7.179785830668571"><ele>1310.8333333333333</ele><time>2026-04-25T11:26:15.999Z</time></trkpt><trkpt lat="44.782151620451664" lon="7.179751440455838"><ele>1308.0</ele><time>2026-04-25T11:26:16.999Z</time></trkpt><trkpt lat="44.78222030108997" lon="7.179713872206927"><ele>1308.0</ele><time>2026-04-25T11:26:17.999Z</time></trkpt><trkpt lat="44.78228545956797" lon="7.179688019462923"><ele>1308.0</ele><time>2026-04-25T11:26:18.999Z</time></trkpt><trkpt lat="44.782225996717045" lon="7.179812937504833"><ele>1308.0</ele><time>2026-04-25T11:26:32.999Z</time></trkpt><trkpt lat="44.78216754313268" lon="7.179881888266143"><ele>1308.0</ele><time>2026-04-25T11:26:33.999Z</time></trkpt><trkpt lat="44.78211068052769" lon="7.179956736467539"><ele>1308.0</ele><time>2026-04-25T11:26:34.999Z</time></trkpt><trkpt lat="44.78205288746966" lon="7.180051421299202"><ele>1308.0</ele><time>2026-04-25T11:26:35.999Z</time></trkpt><trkpt lat="44.78199058303249" lon="7.180152902447058"><ele>1305.1666666666667</ele><time>2026-04-25T11:26:36.999Z</time></trkpt><trkpt lat="44.78191479568942" lon="7.180253756707116"><ele>1302.3333333333333</ele><time>2026-04-25T11:26:37.999Z</time></trkpt><trkpt lat="44.78185084919889" lon="7.18033914821679"><ele>1299.5</ele><time>2026-04-25T11:26:38.999Z</time></trkpt><trkpt lat="44.78178752327855" lon="7.180418638023549"><ele>1296.6666666666665</ele><time>2026-04-25T11:26:39.999Z</time></trkpt><trkpt lat="44.781726149638665" lon="7.180497643321301"><ele>1293.8333333333333</ele><time>2026-04-25T11:26:40.998Z</time></trkpt><trkpt lat="44.78166223830855" lon="7.1805703405790995"><ele>1291.0</ele><time>2026-04-25T11:26:41.998Z</time></trkpt><trkpt lat="44.781609486286435" lon="7.180628177324561"><ele>1291.0</ele><time>2026-04-25T11:26:42.998Z</time></trkpt><trkpt lat="44.78154087238486" lon="7.180680627043432"><ele>1291.0</ele><time>2026-04-25T11:26:43.998Z</time></trkpt><trkpt lat="44.781457135793346" lon="7.180703902011004"><ele>1291.0</ele><time>2026-04-25T11:26:44.998Z</time></trkpt><trkpt lat="44.781370551618146" lon="7.180678272560257"><ele>1291.0</ele><time>2026-04-25T11:26:45.998Z</time></trkpt><trkpt lat="44.781281959593805" lon="7.180679578613649"><ele>1291.0</ele><time>2026-04-25T11:26:46.998Z</time></trkpt><trkpt lat="44.781182868147084" lon="7.18069341658845"><ele>1291.0</ele><time>2026-04-25T11:26:47.998Z</time></trkpt><trkpt lat="44.781078922053624" lon="7.1807068070271045"><ele>1283.6</ele><time>2026-04-25T11:26:48.998Z</time></trkpt><trkpt lat="44.78097660948343" lon="7.180743894472858"><ele>1276.1999999999998</ele><time>2026-04-25T11:26:49.998Z</time></trkpt><trkpt lat="44.780866436096" lon="7.180748701268077"><ele>1268.8000000000002</ele><time>2026-04-25T11:26:50.998Z</time></trkpt><trkpt lat="44.7807786085804" lon="7.1807121998574885"><ele>1261.4</ele><time>2026-04-25T11:26:51.998Z</time></trkpt><trkpt lat="44.78084948033906" lon="7.180857728556185"><ele>1254.0</ele><time>2026-04-25T11:26:57.998Z</time></trkpt><trkpt lat="44.780914862431445" lon="7.180907867327223"><ele>1254.0</ele><time>2026-04-25T11:26:58.998Z</time></trkpt><trkpt lat="44.780986703304805" lon="7.180993775266449"><ele>1254.0</ele><time>2026-04-25T11:26:59.998Z</time></trkpt><trkpt lat="44.7810570336478" lon="7.1810737133595754"><ele>1254.0</ele><time>2026-04-25T11:27:00.998Z</time></trkpt><trkpt lat="44.78113258889559" lon="7.181131144393835"><ele>1254.0</ele><time>2026-04-25T11:27:01.998Z</time></trkpt><trkpt lat="44.78119447891083" lon="7.18121217757682"><ele>1254.0</ele><time>2026-04-25T11:27:02.998Z</time></trkpt><trkpt lat="44.78124451326853" lon="7.181305243393763"><ele>1254.0</ele><time>2026-04-25T11:27:03.998Z</time></trkpt><trkpt lat="44.78129871472599" lon="7.181399198214845"><ele>1256.0</ele><time>2026-04-25T11:27:04.998Z</time></trkpt><trkpt lat="44.78137045812222" lon="7.181449406607294"><ele>1258.0</ele><time>2026-04-25T11:27:05.998Z</time></trkpt><trkpt lat="44.78144508075981" lon="7.181444167831617"><ele>1260.0</ele><time>2026-04-25T11:27:06.998Z</time></trkpt><trkpt lat="44.7813270158975" lon="7.181502904633921"><ele>1262.0</ele><time>2026-04-25T11:27:13.998Z</time></trkpt><trkpt lat="44.7812398237276" lon="7.181508502559026"><ele>1264.0</ele><time>2026-04-25T11:27:14.998Z</time></trkpt><trkpt lat="44.78114292023586" lon="7.181512660469366"><ele>1264.0</ele><time>2026-04-25T11:27:15.998Z</time></trkpt><trkpt lat="44.78103433327839" lon="7.1814902577299256"><ele>1264.0</ele><time>2026-04-25T11:27:16.998Z</time></trkpt><trkpt lat="44.78088813518373" lon="7.181434861160123"><ele>1264.0</ele><time>2026-04-25T11:27:17.998Z</time></trkpt><trkpt lat="44.780764300258824" lon="7.181427594778172"><ele>1264.0</ele><time>2026-04-25T11:27:18.998Z</time></trkpt><trkpt lat="44.78064558271405" lon="7.181458654531725"><ele>1262.0</ele><time>2026-04-25T11:27:19.998Z</time></trkpt><trkpt lat="44.780534484342304" lon="7.181518893257914"><ele>1260.0</ele><time>2026-04-25T11:27:20.998Z</time></trkpt><trkpt lat="44.780437497853086" lon="7.181557665039095"><ele>1258.0</ele><time>2026-04-25T11:27:21.998Z</time></trkpt><trkpt lat="44.7803523795614" lon="7.181578866262171"><ele>1256.0</ele><time>2026-04-25T11:27:22.998Z</time></trkpt><trkpt lat="44.78026798317861" lon="7.1815698424797025"><ele>1254.0</ele><time>2026-04-25T11:27:23.998Z</time></trkpt><trkpt lat="44.78018385800362" lon="7.181501295778695"><ele>1253.0</ele><time>2026-04-25T11:27:24.998Z</time></trkpt><trkpt lat="44.78013721194646" lon="7.1814066810739385"><ele>1252.0</ele><time>2026-04-25T11:27:25.998Z</time></trkpt><trkpt lat="44.78006588176405" lon="7.181366256034085"><ele>1251.0</ele><time>2026-04-25T11:27:28.997Z</time></trkpt><trkpt lat="44.780024978367614" lon="7.181474113407081"><ele>1250.0</ele><time>2026-04-25T11:27:30.997Z</time></trkpt><trkpt lat="44.78002259580956" lon="7.181621363433459"><ele>1249.0</ele><time>2026-04-25T11:27:32.997Z</time></trkpt><trkpt lat="44.780037970612526" lon="7.181726062103925"><ele>1248.0</ele><time>2026-04-25T11:27:33.997Z</time></trkpt><trkpt lat="44.78007998246281" lon="7.181851056791199"><ele>1244.8</ele><time>2026-04-25T11:27:34.997Z</time></trkpt><trkpt lat="44.78009643480194" lon="7.18198633559521"><ele>1241.6</ele><time>2026-04-25T11:27:35.997Z</time></trkpt><trkpt lat="44.78013969624169" lon="7.182109030675041"><ele>1238.4</ele><time>2026-04-25T11:27:37Z</time></trkpt><trkpt lat="44.78018508726131" lon="7.182225386022515"><ele>1235.2</ele><time>2026-04-25T11:27:38Z</time></trkpt><trkpt lat="44.780237532341204" lon="7.18234444427381"><ele>1232.0</ele><time>2026-04-25T11:27:39Z</time></trkpt><trkpt lat="44.78030480235415" lon="7.18246875406152"><ele>1228.0</ele><time>2026-04-25T11:27:40Z</time></trkpt><trkpt lat="44.78036378019781" lon="7.1826247497815645"><ele>1224.0</ele><time>2026-04-25T11:27:41Z</time></trkpt><trkpt lat="44.78042179326547" lon="7.182759481223103"><ele>1220.0</ele><time>2026-04-25T11:27:42Z</time></trkpt><trkpt lat="44.780496898239484" lon="7.182807856031793"><ele>1216.0</ele><time>2026-04-25T11:27:43Z</time></trkpt><trkpt lat="44.78056573263354" lon="7.182851794639186"><ele>1212.0</ele><time>2026-04-25T11:27:44Z</time></trkpt><trkpt lat="44.780597946960825" lon="7.183038177312715"><ele>1212.0</ele><time>2026-04-25T11:27:46Z</time></trkpt><trkpt lat="44.78060505724965" lon="7.183176644356383"><ele>1212.0</ele><time>2026-04-25T11:27:47Z</time></trkpt><trkpt lat="44.780616349211066" lon="7.183302508524672"><ele>1212.0</ele><time>2026-04-25T11:27:48Z</time></trkpt><trkpt lat="44.780632739469986" lon="7.18342909607248"><ele>1212.0</ele><time>2026-04-25T11:27:49Z</time></trkpt><trkpt lat="44.780634403744166" lon="7.1835375669627854"><ele>1212.0</ele><time>2026-04-25T11:27:50Z</time></trkpt><trkpt lat="44.78064401229257" lon="7.183633818815634"><ele>1212.0</ele><time>2026-04-25T11:27:51Z</time></trkpt><trkpt lat="44.780655152155624" lon="7.18373445775053"><ele>1214.1666666666667</ele><time>2026-04-25T11:27:52Z</time></trkpt><trkpt lat="44.78072121457312" lon="7.1838640629950055"><ele>1216.3333333333333</ele><time>2026-04-25T11:27:54Z</time></trkpt><trkpt lat="44.78076383095781" lon="7.1839324520149015"><ele>1218.5</ele><time>2026-04-25T11:27:55Z</time></trkpt><trkpt lat="44.78081399354428" lon="7.184010053726741"><ele>1220.6666666666665</ele><time>2026-04-25T11:27:56Z</time></trkpt><trkpt lat="44.78086348828374" lon="7.184101338740283"><ele>1222.8333333333333</ele><time>2026-04-25T11:27:56.999Z</time></trkpt><trkpt lat="44.78088527476036" lon="7.184217667326659"><ele>1225.0</ele><time>2026-04-25T11:27:57.999Z</time></trkpt><trkpt lat="44.78088553590399" lon="7.184334678982799"><ele>1225.0</ele><time>2026-04-25T11:27:58.999Z</time></trkpt><trkpt lat="44.78086161491254" lon="7.184434397298991"><ele>1225.0</ele><time>2026-04-25T11:27:59.999Z</time></trkpt><trkpt lat="44.78083121662511" lon="7.184525533955697"><ele>1225.0</ele><time>2026-04-25T11:28:00.999Z</time></trkpt><trkpt lat="44.78081846438793" lon="7.184626919581238"><ele>1225.0</ele><time>2026-04-25T11:28:01.999Z</time></trkpt><trkpt lat="44.7807769635054" lon="7.184735916630991"><ele>1225.0</ele><time>2026-04-25T11:28:02.999Z</time></trkpt><trkpt lat="44.78073816929853" lon="7.184850809712069"><ele>1225.0</ele><time>2026-04-25T11:28:03.999Z</time></trkpt><trkpt lat="44.78069656421521" lon="7.184962876473727"><ele>1225.0</ele><time>2026-04-25T11:28:04.999Z</time></trkpt><trkpt lat="44.78066093646155" lon="7.185068264490212"><ele>1225.0</ele><time>2026-04-25T11:28:05.999Z</time></trkpt><trkpt lat="44.78061707359038" lon="7.1851765296174746"><ele>1225.0</ele><time>2026-04-25T11:28:06.999Z</time></trkpt><trkpt lat="44.780588123675386" lon="7.185300462645966"><ele>1225.0</ele><time>2026-04-25T11:28:07.999Z</time></trkpt><trkpt lat="44.780582501396324" lon="7.185414034134749"><ele>1225.0</ele><time>2026-04-25T11:28:08.999Z</time></trkpt><trkpt lat="44.78056795650771" lon="7.185534267489327"><ele>1225.0</ele><time>2026-04-25T11:28:09.999Z</time></trkpt><trkpt lat="44.780518484042005" lon="7.185644498651786"><ele>1223.2</ele><time>2026-04-25T11:28:10.999Z</time></trkpt><trkpt lat="44.780492005077555" lon="7.1857577451645644"><ele>1221.4</ele><time>2026-04-25T11:28:11.999Z</time></trkpt><trkpt lat="44.78047757201352" lon="7.185869728033767"><ele>1219.6</ele><time>2026-04-25T11:28:12.999Z</time></trkpt><trkpt lat="44.7804818672958" lon="7.185972359040002"><ele>1217.8</ele><time>2026-04-25T11:28:13.999Z</time></trkpt><trkpt lat="44.780398485958095" lon="7.186139134127194"><ele>1216.0</ele><time>2026-04-25T11:28:15.999Z</time></trkpt><trkpt lat="44.780362768648175" lon="7.18627353426775"><ele>1216.0</ele><time>2026-04-25T11:28:16.999Z</time></trkpt><trkpt lat="44.78033548059079" lon="7.186419756671093"><ele>1216.0</ele><time>2026-04-25T11:28:17.999Z</time></trkpt><trkpt lat="44.780317093570304" lon="7.18655102385965"><ele>1216.0</ele><time>2026-04-25T11:28:18.999Z</time></trkpt><trkpt lat="44.78029213633612" lon="7.186678608258588"><ele>1216.0</ele><time>2026-04-25T11:28:19.999Z</time></trkpt><trkpt lat="44.78027083134183" lon="7.186795791414559"><ele>1216.0</ele><time>2026-04-25T11:28:20.999Z</time></trkpt><trkpt lat="44.78027593414207" lon="7.186928860548609"><ele>1216.8333333333333</ele><time>2026-04-25T11:28:21.999Z</time></trkpt><trkpt lat="44.780277411932765" lon="7.187056875062519"><ele>1217.6666666666665</ele><time>2026-04-25T11:28:22.999Z</time></trkpt><trkpt lat="44.78025253626516" lon="7.187197326250515"><ele>1218.5</ele><time>2026-04-25T11:28:23.999Z</time></trkpt><trkpt lat="44.780240732411166" lon="7.187305884414147"><ele>1219.3333333333333</ele><time>2026-04-25T11:28:24.999Z</time></trkpt><trkpt lat="44.78018651570126" lon="7.187388266295495"><ele>1220.1666666666667</ele><time>2026-04-25T11:28:25.999Z</time></trkpt><trkpt lat="44.78012224609338" lon="7.187447678034411"><ele>1221.0</ele><time>2026-04-25T11:28:26.999Z</time></trkpt><trkpt lat="44.780061935098765" lon="7.187507437285108"><ele>1221.0</ele><time>2026-04-25T11:28:27.999Z</time></trkpt><trkpt lat="44.779985256385146" lon="7.187588743102263"><ele>1221.0</ele><time>2026-04-25T11:28:28.999Z</time></trkpt><trkpt lat="44.77989738076437" lon="7.187702572379721"><ele>1221.0</ele><time>2026-04-25T11:28:29.999Z</time></trkpt><trkpt lat="44.77979966556807" lon="7.187864550077845"><ele>1221.0</ele><time>2026-04-25T11:28:30.999Z</time></trkpt><trkpt lat="44.77971562716665" lon="7.188016186386636"><ele>1221.0</ele><time>2026-04-25T11:28:31.999Z</time></trkpt><trkpt lat="44.77965285864" lon="7.188127168623615"><ele>1221.0</ele><time>2026-04-25T11:28:32.999Z</time></trkpt><trkpt lat="44.77959638417674" lon="7.188240660947623"><ele>1221.0</ele><time>2026-04-25T11:28:33.999Z</time></trkpt><trkpt lat="44.779542284498206" lon="7.188360637964562"><ele>1221.0</ele><time>2026-04-25T11:28:34.999Z</time></trkpt><trkpt lat="44.77950820842694" lon="7.188475848986692"><ele>1221.0</ele><time>2026-04-25T11:28:35.999Z</time></trkpt><trkpt lat="44.779490684583735" lon="7.188597298189753"><ele>1217.3999999999999</ele><time>2026-04-25T11:28:36.999Z</time></trkpt><trkpt lat="44.77946388721175" lon="7.1887257009281385"><ele>1213.8</ele><time>2026-04-25T11:28:37.999Z</time></trkpt><trkpt lat="44.779453949188245" lon="7.188858880456428"><ele>1210.1999999999998</ele><time>2026-04-25T11:28:38.999Z</time></trkpt><trkpt lat="44.77946211539084" lon="7.188984030815484"><ele>1206.6</ele><time>2026-04-25T11:28:39.999Z</time></trkpt><trkpt lat="44.77950529031082" lon="7.189110713336528"><ele>1203.0</ele><time>2026-04-25T11:28:40.999Z</time></trkpt><trkpt lat="44.779543860241084" lon="7.189229286702859"><ele>1201.8</ele><time>2026-04-25T11:28:41.999Z</time></trkpt><trkpt lat="44.7795864674412" lon="7.189349406199083"><ele>1200.6</ele><time>2026-04-25T11:28:42.998Z</time></trkpt><trkpt lat="44.77964374947552" lon="7.189471862607032"><ele>1199.4</ele><time>2026-04-25T11:28:43.998Z</time></trkpt><trkpt lat="44.77970060349479" lon="7.189568056633766"><ele>1198.2</ele><time>2026-04-25T11:28:44.998Z</time></trkpt><trkpt lat="44.77972269119189" lon="7.1896911556825085"><ele>1197.0</ele><time>2026-04-25T11:28:45.998Z</time></trkpt><trkpt lat="44.77972870304098" lon="7.189825827339527"><ele>1195.6</ele><time>2026-04-25T11:28:46.998Z</time></trkpt><trkpt lat="44.7797204731822" lon="7.189935932799971"><ele>1194.2</ele><time>2026-04-25T11:28:47.998Z</time></trkpt><trkpt lat="44.77970746228293" lon="7.190038132116404"><ele>1192.8</ele><time>2026-04-25T11:28:49.998Z</time></trkpt><trkpt lat="44.77968246654903" lon="7.1901388587177575"><ele>1191.4</ele><time>2026-04-25T11:28:51.998Z</time></trkpt><trkpt lat="44.7796581226612" lon="7.190308950423621"><ele>1190.0</ele><time>2026-04-25T11:28:53.998Z</time></trkpt><trkpt lat="44.77966101254654" lon="7.190483129151453"><ele>1190.0</ele><time>2026-04-25T11:28:55.998Z</time></trkpt><trkpt lat="44.779676559448625" lon="7.190662287072153"><ele>1190.0</ele><time>2026-04-25T11:28:57.998Z</time></trkpt><trkpt lat="44.779675912166425" lon="7.190844075139164"><ele>1190.0</ele><time>2026-04-25T11:28:59.998Z</time></trkpt><trkpt lat="44.77966533012812" lon="7.1910086413467225"><ele>1190.0</ele><time>2026-04-25T11:29:01.998Z</time></trkpt><trkpt lat="44.77969540955967" lon="7.191152333106138"><ele>1189.1666666666667</ele><time>2026-04-25T11:29:03.998Z</time></trkpt><trkpt lat="44.77974096275502" lon="7.191264097989714"><ele>1188.3333333333335</ele><time>2026-04-25T11:29:04.998Z</time></trkpt><trkpt lat="44.77977971333731" lon="7.191336080936874"><ele>1187.5</ele><time>2026-04-25T11:29:05.998Z</time></trkpt><trkpt lat="44.77984825440429" lon="7.191460059885581"><ele>1186.6666666666667</ele><time>2026-04-25T11:29:07.998Z</time></trkpt><trkpt lat="44.77992980226491" lon="7.191579700990611"><ele>1185.8333333333333</ele><time>2026-04-25T11:29:09.998Z</time></trkpt><trkpt lat="44.77996300209544" lon="7.191657108308094"><ele>1185.0</ele><time>2026-04-25T11:29:10.998Z</time></trkpt><trkpt lat="44.78002112868457" lon="7.191814832294241"><ele>1185.0</ele><time>2026-04-25T11:29:12.998Z</time></trkpt><trkpt lat="44.78002574827097" lon="7.191903390071054"><ele>1185.0</ele><time>2026-04-25T11:29:13.998Z</time></trkpt><trkpt lat="44.7800095839468" lon="7.1919948289029705"><ele>1185.0</ele><time>2026-04-25T11:29:14.998Z</time></trkpt><trkpt lat="44.77999405444789" lon="7.192111576702387"><ele>1185.0</ele><time>2026-04-25T11:29:15.998Z</time></trkpt><trkpt lat="44.78000385551574" lon="7.1922655477195025"><ele>1185.0</ele><time>2026-04-25T11:29:16.998Z</time></trkpt><trkpt lat="44.78007184438269" lon="7.192457293124481"><ele>1186.6</ele><time>2026-04-25T11:29:17.998Z</time></trkpt><trkpt lat="44.780131870756335" lon="7.192592833648404"><ele>1188.2</ele><time>2026-04-25T11:29:18.998Z</time></trkpt><trkpt lat="44.7801842183696" lon="7.192748705223084"><ele>1189.8</ele><time>2026-04-25T11:29:19.998Z</time></trkpt><trkpt lat="44.7802548212953" lon="7.192853705146467"><ele>1191.4</ele><time>2026-04-25T11:29:20.998Z</time></trkpt><trkpt lat="44.780328114269" lon="7.192958115893668"><ele>1193.0</ele><time>2026-04-25T11:29:21.998Z</time></trkpt><trkpt lat="44.78038455571599" lon="7.193093283956037"><ele>1188.0</ele><time>2026-04-25T11:29:22.998Z</time></trkpt><trkpt lat="44.78042927529545" lon="7.193242388377184"><ele>1183.0</ele><time>2026-04-25T11:29:23.998Z</time></trkpt><trkpt lat="44.780465460754954" lon="7.193390328417734"><ele>1178.0</ele><time>2026-04-25T11:29:24.998Z</time></trkpt><trkpt lat="44.78050951808862" lon="7.193523025852899"><ele>1173.0</ele><time>2026-04-25T11:29:25.998Z</time></trkpt><trkpt lat="44.78056792464842" lon="7.1936402462552556"><ele>1168.0</ele><time>2026-04-25T11:29:26.998Z</time></trkpt><trkpt lat="44.780640276509715" lon="7.193739432297717"><ele>1168.0</ele><time>2026-04-25T11:29:27.998Z</time></trkpt><trkpt lat="44.78069289615766" lon="7.193825824632999"><ele>1168.0</ele><time>2026-04-25T11:29:28.998Z</time></trkpt><trkpt lat="44.78074670194946" lon="7.193924001829661"><ele>1168.0</ele><time>2026-04-25T11:29:29.997Z</time></trkpt><trkpt lat="44.780792075973984" lon="7.194037027672812"><ele>1168.0</ele><time>2026-04-25T11:29:30.997Z</time></trkpt><trkpt lat="44.7808482280335" lon="7.194157205854176"><ele>1168.0</ele><time>2026-04-25T11:29:31.997Z</time></trkpt><trkpt lat="44.780890023391215" lon="7.19428044422418"><ele>1169.6</ele><time>2026-04-25T11:29:32.997Z</time></trkpt><trkpt lat="44.7809347267206" lon="7.194408011542686"><ele>1171.1999999999998</ele><time>2026-04-25T11:29:33.997Z</time></trkpt><trkpt lat="44.780972389154186" lon="7.194539779877507"><ele>1172.8</ele><time>2026-04-25T11:29:34.997Z</time></trkpt><trkpt lat="44.78099235450639" lon="7.194663586144073"><ele>1174.3999999999999</ele><time>2026-04-25T11:29:35.997Z</time></trkpt><trkpt lat="44.78099742175775" lon="7.194808888962739"><ele>1176.0</ele><time>2026-04-25T11:29:36.997Z</time></trkpt><trkpt lat="44.781001251117694" lon="7.194946845079637"><ele>1176.0</ele><time>2026-04-25T11:29:37.997Z</time></trkpt><trkpt lat="44.781010708718995" lon="7.195065898055683"><ele>1176.0</ele><time>2026-04-25T11:29:38.997Z</time></trkpt><trkpt lat="44.78101358180522" lon="7.195186523122574"><ele>1176.0</ele><time>2026-04-25T11:29:39.997Z</time></trkpt><trkpt lat="44.78100669004373" lon="7.1952884506237025"><ele>1176.0</ele><time>2026-04-25T11:29:40.997Z</time></trkpt><trkpt lat="44.78101431430265" lon="7.195388451118016"><ele>1176.0</ele><time>2026-04-25T11:29:41.997Z</time></trkpt><trkpt lat="44.78101073099099" lon="7.195543619579968"><ele>1176.0</ele><time>2026-04-25T11:29:44Z</time></trkpt><trkpt lat="44.78100812234765" lon="7.195666124237218"><ele>1171.3333333333333</ele><time>2026-04-25T11:29:46Z</time></trkpt><trkpt lat="44.78104507029199" lon="7.195743080267763"><ele>1166.6666666666667</ele><time>2026-04-25T11:29:49Z</time></trkpt><trkpt lat="44.78114251108081" lon="7.195720497526413"><ele>1162.0</ele><time>2026-04-25T11:29:52Z</time></trkpt><trkpt lat="44.78121052778524" lon="7.195759730772379"><ele>1157.3333333333335</ele><time>2026-04-25T11:29:53.999Z</time></trkpt><trkpt lat="44.78131790330696" lon="7.195751278825878"><ele>1152.6666666666667</ele><time>2026-04-25T11:29:56Z</time></trkpt><trkpt lat="44.7814170751291" lon="7.195733819731293"><ele>1148.0</ele><time>2026-04-25T11:29:58.999Z</time></trkpt><trkpt lat="44.78147874337782" lon="7.195711137346553"><ele>1148.1666666666667</ele><time>2026-04-25T11:30:01.999Z</time></trkpt><trkpt lat="44.78152745514338" lon="7.19563731951743"><ele>1148.3333333333335</ele><time>2026-04-25T11:30:10.999Z</time></trkpt><trkpt lat="44.781564574892656" lon="7.195558826882441"><ele>1148.5</ele><time>2026-04-25T11:30:13.999Z</time></trkpt><trkpt lat="44.7816165562854" lon="7.195644177384625"><ele>1148.6666666666667</ele><time>2026-04-25T11:30:31.999Z</time></trkpt><trkpt lat="44.78169056477391" lon="7.195561868856283"><ele>1148.8333333333333</ele><time>2026-04-25T11:30:34.999Z</time></trkpt><trkpt lat="44.781722316585856" lon="7.195481117767526"><ele>1149.0</ele><time>2026-04-25T11:30:37.999Z</time></trkpt><trkpt lat="44.78179160900563" lon="7.195387261906759"><ele>1144.2</ele><time>2026-04-25T11:31:10.998Z</time></trkpt><trkpt lat="44.78185342089485" lon="7.195307992569038"><ele>1139.4</ele><time>2026-04-25T11:31:12.998Z</time></trkpt><trkpt lat="44.78195058003441" lon="7.195258282106237"><ele>1134.6</ele><time>2026-04-25T11:31:14.998Z</time></trkpt><trkpt lat="44.782020462764244" lon="7.1951688051802005"><ele>1129.8</ele><time>2026-04-25T11:31:16.998Z</time></trkpt><trkpt lat="44.78197652869298" lon="7.195013937153154"><ele>1125.0</ele><time>2026-04-25T11:31:18.998Z</time></trkpt><trkpt lat="44.7818928375407" lon="7.194890816916044"><ele>1127.6666666666667</ele><time>2026-04-25T11:31:20.998Z</time></trkpt><trkpt lat="44.78183911139004" lon="7.194732761510944"><ele>1130.3333333333333</ele><time>2026-04-25T11:31:22.998Z</time></trkpt><trkpt lat="44.78181069397926" lon="7.194643441258285"><ele>1133.0</ele><time>2026-04-25T11:31:23.998Z</time></trkpt><trkpt lat="44.78178756152168" lon="7.1945533658913625"><ele>1135.6666666666665</ele><time>2026-04-25T11:31:24.998Z</time></trkpt><trkpt lat="44.781770009751234" lon="7.194450650035962"><ele>1138.3333333333333</ele><time>2026-04-25T11:31:25.998Z</time></trkpt><trkpt lat="44.78175981234761" lon="7.194343390804089"><ele>1141.0</ele><time>2026-04-25T11:31:26.998Z</time></trkpt><trkpt lat="44.78176572729166" lon="7.194230199147569"><ele>1141.0</ele><time>2026-04-25T11:31:27.998Z</time></trkpt><trkpt lat="44.7817705278065" lon="7.194109301211578"><ele>1141.0</ele><time>2026-04-25T11:31:28.998Z</time></trkpt><trkpt lat="44.781772586511856" lon="7.19398702788828"><ele>1141.0</ele><time>2026-04-25T11:31:29.998Z</time></trkpt><trkpt lat="44.781774769453904" lon="7.193862976891212"><ele>1141.0</ele><time>2026-04-25T11:31:30.998Z</time></trkpt><trkpt lat="44.78177550422669" lon="7.19372832842465"><ele>1141.0</ele><time>2026-04-25T11:31:31.998Z</time></trkpt><trkpt lat="44.78177257064509" lon="7.193593238562791"><ele>1139.3999999999999</ele><time>2026-04-25T11:31:32.998Z</time></trkpt><trkpt lat="44.78177789813076" lon="7.193457819058275"><ele>1137.8</ele><time>2026-04-25T11:31:33.998Z</time></trkpt><trkpt lat="44.78179817265925" lon="7.193316955845883"><ele>1136.1999999999998</ele><time>2026-04-25T11:31:34.997Z</time></trkpt><trkpt lat="44.78183188357314" lon="7.193186780133549"><ele>1134.6</ele><time>2026-04-25T11:31:35.997Z</time></trkpt><trkpt lat="44.78187241596933" lon="7.193061733346201"><ele>1133.0</ele><time>2026-04-25T11:31:36.997Z</time></trkpt><trkpt lat="44.78189857390793" lon="7.192938459509737"><ele>1132.0</ele><time>2026-04-25T11:31:37.997Z</time></trkpt><trkpt lat="44.781884088842666" lon="7.192807355584802"><ele>1131.0</ele><time>2026-04-25T11:31:38.997Z</time></trkpt><trkpt lat="44.78181743298154" lon="7.192688115831917"><ele>1130.0</ele><time>2026-04-25T11:31:39.997Z</time></trkpt><trkpt lat="44.7817327327889" lon="7.192609606417425"><ele>1129.0</ele><time>2026-04-25T11:31:40.997Z</time></trkpt><trkpt lat="44.78167063960613" lon="7.192546792472488"><ele>1128.0</ele><time>2026-04-25T11:31:41.997Z</time></trkpt><trkpt lat="44.78168350495124" lon="7.192402842149828"><ele>1128.0</ele><time>2026-04-25T11:31:43.997Z</time></trkpt><trkpt lat="44.781792898483424" lon="7.192380133971508"><ele>1128.0</ele><time>2026-04-25T11:31:45.997Z</time></trkpt><trkpt lat="44.78187803212301" lon="7.192423475270641"><ele>1128.0</ele><time>2026-04-25T11:31:48Z</time></trkpt><trkpt lat="44.78196394394484" lon="7.192461313879553"><ele>1128.0</ele><time>2026-04-25T11:31:50Z</time></trkpt><trkpt lat="44.782056086046715" lon="7.1925249278167085"><ele>1128.0</ele><time>2026-04-25T11:31:52Z</time></trkpt><trkpt lat="44.78215212333078" lon="7.19259896222312"><ele>1125.0</ele><time>2026-04-25T11:31:54Z</time></trkpt><trkpt lat="44.7822489529044" lon="7.192696551238924"><ele>1122.0</ele><time>2026-04-25T11:31:56Z</time></trkpt><trkpt lat="44.78229818065379" lon="7.192755293008141"><ele>1119.0</ele><time>2026-04-25T11:31:57Z</time></trkpt><trkpt lat="44.782351220622665" lon="7.192834841584097"><ele>1116.0</ele><time>2026-04-25T11:31:58Z</time></trkpt><trkpt lat="44.78239221553708" lon="7.192919798832647"><ele>1113.0</ele><time>2026-04-25T11:31:59Z</time></trkpt><trkpt lat="44.78242998222771" lon="7.192996868519545"><ele>1110.0</ele><time>2026-04-25T11:32:00Z</time></trkpt><trkpt lat="44.78250007949876" lon="7.193036766545915"><ele>1110.0</ele><time>2026-04-25T11:32:01Z</time></trkpt><trkpt lat="44.78259445690859" lon="7.192923390021251"><ele>1110.0</ele><time>2026-04-25T11:32:02Z</time></trkpt><trkpt lat="44.782591964989365" lon="7.192782852308624"><ele>1110.0</ele><time>2026-04-25T11:32:03Z</time></trkpt><trkpt lat="44.78256804728729" lon="7.192648700453597"><ele>1110.0</ele><time>2026-04-25T11:32:03.999Z</time></trkpt><trkpt lat="44.78257566798311" lon="7.1925274039342595"><ele>1110.0</ele><time>2026-04-25T11:32:04.999Z</time></trkpt><trkpt lat="44.78262335064853" lon="7.192405772131195"><ele>1109.0</ele><time>2026-04-25T11:32:05.999Z</time></trkpt><trkpt lat="44.782654528141876" lon="7.192277123380836"><ele>1108.0</ele><time>2026-04-25T11:32:06.999Z</time></trkpt><trkpt lat="44.78266423327641" lon="7.1921402460065895"><ele>1107.0</ele><time>2026-04-25T11:32:07.999Z</time></trkpt><trkpt lat="44.78265407772955" lon="7.191995279969694"><ele>1106.0</ele><time>2026-04-25T11:32:08.999Z</time></trkpt><trkpt lat="44.78262065389835" lon="7.191855079629239"><ele>1105.0</ele><time>2026-04-25T11:32:09.999Z</time></trkpt><trkpt lat="44.78257574643362" lon="7.1917170417953855"><ele>1105.0</ele><time>2026-04-25T11:32:10.999Z</time></trkpt><trkpt lat="44.78254265591917" lon="7.191580922572895"><ele>1105.0</ele><time>2026-04-25T11:32:11.999Z</time></trkpt><trkpt lat="44.78253736540234" lon="7.191426182456344"><ele>1105.0</ele><time>2026-04-25T11:32:12.999Z</time></trkpt><trkpt lat="44.78256013817124" lon="7.191271542015285"><ele>1105.0</ele><time>2026-04-25T11:32:13.999Z</time></trkpt><trkpt lat="44.78261740549192" lon="7.1911355796318075"><ele>1105.0</ele><time>2026-04-25T11:32:14.999Z</time></trkpt><trkpt lat="44.782674553467714" lon="7.191019132179292"><ele>1100.0</ele><time>2026-04-25T11:32:15.999Z</time></trkpt><trkpt lat="44.782727457366484" lon="7.190933613995395"><ele>1095.0</ele><time>2026-04-25T11:32:16.999Z</time></trkpt><trkpt lat="44.782773009878575" lon="7.1908702988363595"><ele>1090.0</ele><time>2026-04-25T11:32:17.999Z</time></trkpt><trkpt lat="44.78287287721722" lon="7.190869624087674"><ele>1085.0</ele><time>2026-04-25T11:32:19.999Z</time></trkpt><trkpt lat="44.782889351579456" lon="7.191002550097215"><ele>1080.0</ele><time>2026-04-25T11:32:20.999Z</time></trkpt><trkpt lat="44.78285986495308" lon="7.191110972747953"><ele>1075.0</ele><time>2026-04-25T11:32:21.999Z</time></trkpt><trkpt lat="44.78283567472908" lon="7.191210458595348"><ele>1075.0</ele><time>2026-04-25T11:32:22.999Z</time></trkpt><trkpt lat="44.7828282917401" lon="7.191317218025818"><ele>1075.0</ele><time>2026-04-25T11:32:23.999Z</time></trkpt><trkpt lat="44.78284484259025" lon="7.191440747597086"><ele>1075.0</ele><time>2026-04-25T11:32:24.999Z</time></trkpt><trkpt lat="44.782944808476984" lon="7.191547503614844"><ele>1075.0</ele><time>2026-04-25T11:32:25.999Z</time></trkpt><trkpt lat="44.78302276412998" lon="7.191632707413878"><ele>1075.0</ele><time>2026-04-25T11:32:26.999Z</time></trkpt><trkpt lat="44.7830771586793" lon="7.191702032292772"><ele>1075.0</ele><time>2026-04-25T11:32:27.999Z</time></trkpt><trkpt lat="44.78316512593588" lon="7.191724110807866"><ele>1075.0</ele><time>2026-04-25T11:32:29.999Z</time></trkpt><trkpt lat="44.783258503393306" lon="7.191559471767769"><ele>1075.0</ele><time>2026-04-25T11:32:31.999Z</time></trkpt><trkpt lat="44.783286751145795" lon="7.191476918606373"><ele>1075.0</ele><time>2026-04-25T11:32:32.999Z</time></trkpt><trkpt lat="44.78334915945694" lon="7.191453585005126"><ele>1075.0</ele><time>2026-04-25T11:32:33.999Z</time></trkpt><trkpt lat="44.783409275042565" lon="7.191299217551265"><ele>1075.0</ele><time>2026-04-25T11:32:35.999Z</time></trkpt><trkpt lat="44.78345427679619" lon="7.191204112981797"><ele>1075.0</ele><time>2026-04-25T11:32:36.999Z</time></trkpt><trkpt lat="44.78349655674248" lon="7.191093552845815"><ele>1075.0</ele><time>2026-04-25T11:32:37.999Z</time></trkpt><trkpt lat="44.78350669232033" lon="7.190941030338736"><ele>1075.0</ele><time>2026-04-25T11:32:38.999Z</time></trkpt><trkpt lat="44.78350122421501" lon="7.190808422924817"><ele>1075.0</ele><time>2026-04-25T11:32:39.999Z</time></trkpt><trkpt lat="44.78348424674756" lon="7.1906999548072985"><ele>1074.5</ele><time>2026-04-25T11:32:40.999Z</time></trkpt><trkpt lat="44.78345007792646" lon="7.190585735417562"><ele>1074.0</ele><time>2026-04-25T11:32:42.999Z</time></trkpt><trkpt lat="44.78353968426125" lon="7.190502993977753"><ele>1073.5</ele><time>2026-04-25T11:32:43.999Z</time></trkpt><trkpt lat="44.78361219818079" lon="7.190617215233558"><ele>1073.0</ele><time>2026-04-25T11:32:44.999Z</time></trkpt><trkpt lat="44.78364850343432" lon="7.190696474345763"><ele>1072.5</ele><time>2026-04-25T11:32:45.999Z</time></trkpt><trkpt lat="44.78369586367514" lon="7.190756385520164"><ele>1072.0</ele><time>2026-04-25T11:32:46.999Z</time></trkpt><trkpt lat="44.78373705104468" lon="7.190834150035033"><ele>1067.4</ele><time>2026-04-25T11:32:47.999Z</time></trkpt><trkpt lat="44.78377091819621" lon="7.190922549481256"><ele>1062.8000000000002</ele><time>2026-04-25T11:32:48.999Z</time></trkpt><trkpt lat="44.783859722084024" lon="7.1910109978364"><ele>1058.2</ele><time>2026-04-25T11:32:50.998Z</time></trkpt><trkpt lat="44.78389753964804" lon="7.190914743495579"><ele>1053.6000000000001</ele><time>2026-04-25T11:32:51.998Z</time></trkpt><trkpt lat="44.783909995347734" lon="7.190742900515561"><ele>1049.0</ele><time>2026-04-25T11:32:53.998Z</time></trkpt><trkpt lat="44.78394678985816" lon="7.190559444238844"><ele>1049.0</ele><time>2026-04-25T11:32:55.998Z</time></trkpt><trkpt lat="44.78397110075953" lon="7.1904442070284995"><ele>1049.0</ele><time>2026-04-25T11:32:56.998Z</time></trkpt><trkpt lat="44.7840214610471" lon="7.190371173218806"><ele>1049.0</ele><time>2026-04-25T11:32:57.998Z</time></trkpt><trkpt lat="44.784070609458716" lon="7.190301092486277"><ele>1049.0</ele><time>2026-04-25T11:32:58.998Z</time></trkpt><trkpt lat="44.7841216752651" lon="7.19023227666507"><ele>1049.0</ele><time>2026-04-25T11:32:59.998Z</time></trkpt><trkpt lat="44.784166870581096" lon="7.190140660248692"><ele>1049.0</ele><time>2026-04-25T11:33:00.998Z</time></trkpt><trkpt lat="44.784207984218895" lon="7.190034634320669"><ele>1049.0</ele><time>2026-04-25T11:33:01.998Z</time></trkpt><trkpt lat="44.78423943485215" lon="7.189923836129777"><ele>1049.0</ele><time>2026-04-25T11:33:02.998Z</time></trkpt><trkpt lat="44.784273208033866" lon="7.189813150205837"><ele>1049.0</ele><time>2026-04-25T11:33:03.998Z</time></trkpt><trkpt lat="44.784274219168516" lon="7.189678386266535"><ele>1049.0</ele><time>2026-04-25T11:33:04.998Z</time></trkpt><trkpt lat="44.78427375251514" lon="7.1895450601270605"><ele>1049.0</ele><time>2026-04-25T11:33:05.998Z</time></trkpt><trkpt lat="44.784269517418274" lon="7.18940796030492"><ele>1048.4</ele><time>2026-04-25T11:33:06.998Z</time></trkpt><trkpt lat="44.78426513805988" lon="7.189269151761799"><ele>1047.8000000000002</ele><time>2026-04-25T11:33:07.998Z</time></trkpt><trkpt lat="44.78426476205078" lon="7.189128371492485"><ele>1047.1999999999998</ele><time>2026-04-25T11:33:08.998Z</time></trkpt><trkpt lat="44.78427975493701" lon="7.188991145364004"><ele>1046.6</ele><time>2026-04-25T11:33:09.998Z</time></trkpt><trkpt lat="44.78432452221452" lon="7.188862495611704"><ele>1046.0</ele><time>2026-04-25T11:33:10.998Z</time></trkpt><trkpt lat="44.784387344921385" lon="7.188762209956555"><ele>1043.0</ele><time>2026-04-25T11:33:11.998Z</time></trkpt><trkpt lat="44.78445495711001" lon="7.188677067666164"><ele>1040.0</ele><time>2026-04-25T11:33:12.998Z</time></trkpt><trkpt lat="44.78451719457216" lon="7.1885856774867225"><ele>1037.0</ele><time>2026-04-25T11:33:13.998Z</time></trkpt><trkpt lat="44.784561363286194" lon="7.188489135710781"><ele>1034.0</ele><time>2026-04-25T11:33:14.998Z</time></trkpt><trkpt lat="44.78458910463065" lon="7.188387314075249"><ele>1031.0</ele><time>2026-04-25T11:33:15.998Z</time></trkpt><trkpt lat="44.78461057173879" lon="7.188291431501745"><ele>1028.0</ele><time>2026-04-25T11:33:16.998Z</time></trkpt><trkpt lat="44.78464776974759" lon="7.1882122894631895"><ele>1027.6</ele><time>2026-04-25T11:33:17.998Z</time></trkpt><trkpt lat="44.784681505128525" lon="7.188049913917552"><ele>1027.1999999999998</ele><time>2026-04-25T11:33:19.998Z</time></trkpt><trkpt lat="44.78469311787016" lon="7.187920645189238"><ele>1026.8</ele><time>2026-04-25T11:33:21.998Z</time></trkpt><trkpt lat="44.78471871338925" lon="7.187756865031085"><ele>1026.3999999999999</ele><time>2026-04-25T11:33:23.998Z</time></trkpt><trkpt lat="44.78472349646253" lon="7.187633808163017"><ele>1026.0</ele><time>2026-04-25T11:33:24.998Z</time></trkpt><trkpt lat="44.78472768945445" lon="7.187512474250736"><ele>1026.0</ele><time>2026-04-25T11:33:25.998Z</time></trkpt><trkpt lat="44.784721477852926" lon="7.187350198784046"><ele>1026.0</ele><time>2026-04-25T11:33:26.998Z</time></trkpt><trkpt lat="44.784714636326434" lon="7.1871891009067195"><ele>1026.0</ele><time>2026-04-25T11:33:27.998Z</time></trkpt><trkpt lat="44.784720732928214" lon="7.187050996733312"><ele>1026.0</ele><time>2026-04-25T11:33:28.998Z</time></trkpt><trkpt lat="44.78472795324303" lon="7.186917317220663"><ele>1026.0</ele><time>2026-04-25T11:33:29.998Z</time></trkpt><trkpt lat="44.78471498809026" lon="7.186802054194104"><ele>1026.3333333333333</ele><time>2026-04-25T11:33:30.998Z</time></trkpt><trkpt lat="44.784671511821955" lon="7.186691066094799"><ele>1026.6666666666667</ele><time>2026-04-25T11:33:31.998Z</time></trkpt><trkpt lat="44.78459785446408" lon="7.186613526920539"><ele>1027.0</ele><time>2026-04-25T11:33:32.998Z</time></trkpt><trkpt lat="44.784536006616605" lon="7.1865200217861425"><ele>1027.3333333333335</ele><time>2026-04-25T11:33:33.998Z</time></trkpt><trkpt lat="44.78448083134338" lon="7.186433051982251"><ele>1027.6666666666667</ele><time>2026-04-25T11:33:34.998Z</time></trkpt><trkpt lat="44.78444961689829" lon="7.186340773991143"><ele>1028.0</ele><time>2026-04-25T11:33:35.998Z</time></trkpt><trkpt lat="44.784427689519546" lon="7.186251122737253"><ele>1031.8333333333335</ele><time>2026-04-25T11:33:36.998Z</time></trkpt><trkpt lat="44.78445569216829" lon="7.18616839322165"><ele>1035.6666666666667</ele><time>2026-04-25T11:33:37.998Z</time></trkpt><trkpt lat="44.78450911467941" lon="7.1861110600254765"><ele>1039.5</ele><time>2026-04-25T11:33:38.997Z</time></trkpt><trkpt lat="44.78457576094136" lon="7.186080102920225"><ele>1043.3333333333333</ele><time>2026-04-25T11:33:39.997Z</time></trkpt><trkpt lat="44.78465011144268" lon="7.186056440309905"><ele>1047.1666666666665</ele><time>2026-04-25T11:33:40.997Z</time></trkpt><trkpt lat="44.78473676122919" lon="7.186084242115032"><ele>1051.0</ele><time>2026-04-25T11:33:41.997Z</time></trkpt><trkpt lat="44.78482875018256" lon="7.18613276048563"><ele>1051.0</ele><time>2026-04-25T11:33:42.997Z</time></trkpt><trkpt lat="44.784928708831245" lon="7.186179617337865"><ele>1051.0</ele><time>2026-04-25T11:33:43.997Z</time></trkpt><trkpt lat="44.78502276648716" lon="7.1862197134496455"><ele>1051.0</ele><time>2026-04-25T11:33:44.997Z</time></trkpt><trkpt lat="44.785118434519404" lon="7.186248463592049"><ele>1051.0</ele><time>2026-04-25T11:33:45.997Z</time></trkpt><trkpt lat="44.785206972260156" lon="7.186267371843743"><ele>1051.0</ele><time>2026-04-25T11:33:46.997Z</time></trkpt><trkpt lat="44.78529300004661" lon="7.186284064830137"><ele>1051.8</ele><time>2026-04-25T11:33:47.997Z</time></trkpt><trkpt lat="44.78537633900541" lon="7.186299820149578"><ele>1052.6</ele><time>2026-04-25T11:33:48.997Z</time></trkpt><trkpt lat="44.7854500784671" lon="7.186394181868528"><ele>1053.4</ele><time>2026-04-25T11:33:49.997Z</time></trkpt><trkpt lat="44.78554118268216" lon="7.186497207104034"><ele>1054.2</ele><time>2026-04-25T11:33:50.997Z</time></trkpt><trkpt lat="44.7856160149077" lon="7.186624570087258"><ele>1055.0</ele><time>2026-04-25T11:33:51.997Z</time></trkpt><trkpt lat="44.78569297669828" lon="7.18673119592588"><ele>1054.2</ele><time>2026-04-25T11:33:53Z</time></trkpt><trkpt lat="44.78577597021684" lon="7.186824067224743"><ele>1053.4</ele><time>2026-04-25T11:33:54Z</time></trkpt><trkpt lat="44.785872906834626" lon="7.186890968352606"><ele>1052.6</ele><time>2026-04-25T11:33:54.999Z</time></trkpt><trkpt lat="44.785981307632774" lon="7.186925654346055"><ele>1051.8</ele><time>2026-04-25T11:33:56Z</time></trkpt><trkpt lat="44.78610376126426" lon="7.186943912349287"><ele>1051.0</ele><time>2026-04-25T11:33:57Z</time></trkpt><trkpt lat="44.78623417799363" lon="7.186960837577706"><ele>1051.0</ele><time>2026-04-25T11:33:57.999Z</time></trkpt><trkpt lat="44.786366253003834" lon="7.1870015053538605"><ele>1051.0</ele><time>2026-04-25T11:33:59Z</time></trkpt><trkpt lat="44.78649895855077" lon="7.187051001043573"><ele>1051.0</ele><time>2026-04-25T11:34:00Z</time></trkpt><trkpt lat="44.78661677480586" lon="7.187104214050593"><ele>1051.0</ele><time>2026-04-25T11:34:00.999Z</time></trkpt><trkpt lat="44.786724840047704" lon="7.187159134338694"><ele>1051.0</ele><time>2026-04-25T11:34:02Z</time></trkpt><trkpt lat="44.78682427503841" lon="7.187214590847439"><ele>1051.0</ele><time>2026-04-25T11:34:03Z</time></trkpt><trkpt lat="44.78692358329316" lon="7.187264881424996"><ele>1051.0</ele><time>2026-04-25T11:34:03.999Z</time></trkpt><trkpt lat="44.78702220072404" lon="7.187302812305036"><ele>1051.0</ele><time>2026-04-25T11:34:05Z</time></trkpt><trkpt lat="44.787117200219335" lon="7.1873533201175945"><ele>1051.0</ele><time>2026-04-25T11:34:06Z</time></trkpt><trkpt lat="44.78718183754419" lon="7.187453729062907"><ele>1048.3333333333333</ele><time>2026-04-25T11:34:06.999Z</time></trkpt><trkpt lat="44.78723951283745" lon="7.187548032655988"><ele>1045.6666666666665</ele><time>2026-04-25T11:34:07.999Z</time></trkpt><trkpt lat="44.78729313071289" lon="7.187657144966752"><ele>1043.0</ele><time>2026-04-25T11:34:08.999Z</time></trkpt><trkpt lat="44.787327215480175" lon="7.187763350763362"><ele>1040.3333333333333</ele><time>2026-04-25T11:34:09.999Z</time></trkpt><trkpt lat="44.78735072577121" lon="7.187864121525719"><ele>1037.6666666666667</ele><time>2026-04-25T11:34:10.999Z</time></trkpt><trkpt lat="44.78736329224202" lon="7.1879680102881105"><ele>1035.0</ele><time>2026-04-25T11:34:11.999Z</time></trkpt><trkpt lat="44.787383678569675" lon="7.188076394423424"><ele>1035.0</ele><time>2026-04-25T11:34:12.999Z</time></trkpt><trkpt lat="44.787441237975344" lon="7.188175522035179"><ele>1035.0</ele><time>2026-04-25T11:34:13.999Z</time></trkpt><trkpt lat="44.78752296177266" lon="7.188254291167677"><ele>1035.0</ele><time>2026-04-25T11:34:14.999Z</time></trkpt><trkpt lat="44.787613299889365" lon="7.18832148173244"><ele>1035.0</ele><time>2026-04-25T11:34:15.999Z</time></trkpt><trkpt lat="44.787686330912656" lon="7.188388376846213"><ele>1035.0</ele><time>2026-04-25T11:34:16.999Z</time></trkpt><trkpt lat="44.78775145514177" lon="7.188448988281362"><ele>1033.2</ele><time>2026-04-25T11:34:17.999Z</time></trkpt><trkpt lat="44.787822727929054" lon="7.1884811853944655"><ele>1031.4</ele><time>2026-04-25T11:34:18.999Z</time></trkpt><trkpt lat="44.787918122630956" lon="7.188465635972627"><ele>1029.6</ele><time>2026-04-25T11:34:19.999Z</time></trkpt><trkpt lat="44.78802070637147" lon="7.18841928105149"><ele>1027.8</ele><time>2026-04-25T11:34:20.999Z</time></trkpt><trkpt lat="44.78811654952823" lon="7.188397980488414"><ele>1026.0</ele><time>2026-04-25T11:34:21.999Z</time></trkpt><trkpt lat="44.78820529352979" lon="7.188380493077238"><ele>1026.0</ele><time>2026-04-25T11:34:22.999Z</time></trkpt><trkpt lat="44.78829111216491" lon="7.188333559221864"><ele>1026.0</ele><time>2026-04-25T11:34:23.999Z</time></trkpt><trkpt lat="44.78837492498298" lon="7.188251831352495"><ele>1026.0</ele><time>2026-04-25T11:34:24.999Z</time></trkpt><trkpt lat="44.788455281933885" lon="7.188168778274221"><ele>1026.0</ele><time>2026-04-25T11:34:25.999Z</time></trkpt><trkpt lat="44.788532351940624" lon="7.188084741735126"><ele>1026.0</ele><time>2026-04-25T11:34:26.999Z</time></trkpt><trkpt lat="44.78861267605048" lon="7.188004598315304"><ele>1030.0</ele><time>2026-04-25T11:34:27.999Z</time></trkpt><trkpt lat="44.788704546128045" lon="7.187997911211397"><ele>1034.0</ele><time>2026-04-25T11:34:28.999Z</time></trkpt><trkpt lat="44.78877576885272" lon="7.188034548156783"><ele>1038.0</ele><time>2026-04-25T11:34:29.999Z</time></trkpt><trkpt lat="44.788809299185196" lon="7.188124031205641"><ele>1042.0</ele><time>2026-04-25T11:34:30.999Z</time></trkpt><trkpt lat="44.788784425472635" lon="7.188259197303829"><ele>1046.0</ele><time>2026-04-25T11:34:31.999Z</time></trkpt><trkpt lat="44.78872304394203" lon="7.188394460150616"><ele>1046.0</ele><time>2026-04-25T11:34:32.999Z</time></trkpt><trkpt lat="44.78864570607186" lon="7.188499397577853"><ele>1046.0</ele><time>2026-04-25T11:34:33.999Z</time></trkpt><trkpt lat="44.78857907622263" lon="7.188678702642819"><ele>1046.0</ele><time>2026-04-25T11:34:34.999Z</time></trkpt><trkpt lat="44.78851489711674" lon="7.188846668041158"><ele>1046.0</ele><time>2026-04-25T11:34:35.999Z</time></trkpt><trkpt lat="44.78844694550375" lon="7.189045611311069"><ele>1037.25</ele><time>2026-04-25T11:34:36.999Z</time></trkpt><trkpt lat="44.788382445423004" lon="7.189224107972033"><ele>1028.5</ele><time>2026-04-25T11:34:37.999Z</time></trkpt><trkpt lat="44.788322302765415" lon="7.189391291231973"><ele>1019.75</ele><time>2026-04-25T11:34:38.999Z</time></trkpt><trkpt lat="44.788263929514855" lon="7.189557969575666"><ele>1011.0</ele><time>2026-04-25T11:34:39.999Z</time></trkpt><trkpt lat="44.788210818522444" lon="7.189726019887683"><ele>1013.5</ele><time>2026-04-25T11:34:40.999Z</time></trkpt><trkpt lat="44.78815014736387" lon="7.1898767436348345"><ele>1016.0</ele><time>2026-04-25T11:34:41.999Z</time></trkpt><trkpt lat="44.78807678377532" lon="7.190014169757034"><ele>1018.5</ele><time>2026-04-25T11:34:42.999Z</time></trkpt><trkpt lat="44.787985411761795" lon="7.190142536033947"><ele>1021.0</ele><time>2026-04-25T11:34:43.999Z</time></trkpt><trkpt lat="44.78789092252032" lon="7.190256054535434"><ele>1021.0</ele><time>2026-04-25T11:34:44.999Z</time></trkpt><trkpt lat="44.787801517828" lon="7.190360216086952"><ele>1020.9999999999999</ele><time>2026-04-25T11:34:45.999Z</time></trkpt><trkpt lat="44.78772914285003" lon="7.190477350113308"><ele>1020.9999999999999</ele><time>2026-04-25T11:34:46.999Z</time></trkpt><trkpt lat="44.78769431808432" lon="7.190614878231376"><ele>1021.0</ele><time>2026-04-25T11:34:47.999Z</time></trkpt><trkpt lat="44.78771806802203" lon="7.190756738788321"><ele>1021.0</ele><time>2026-04-25T11:34:48.999Z</time></trkpt><trkpt lat="44.787784679870775" lon="7.1908704886950625"><ele>1023.25</ele><time>2026-04-25T11:34:49.999Z</time></trkpt><trkpt lat="44.78786902149305" lon="7.190988544891764"><ele>1025.5</ele><time>2026-04-25T11:34:50.999Z</time></trkpt><trkpt lat="44.78788798976135" lon="7.191163127022158"><ele>1027.75</ele><time>2026-04-25T11:34:51.999Z</time></trkpt><trkpt lat="44.78790947118548" lon="7.191369658687693"><ele>1030.0</ele><time>2026-04-25T11:34:52.999Z</time></trkpt><trkpt lat="44.78790587131597" lon="7.191565958212642"><ele>1030.5</ele><time>2026-04-25T11:34:53.999Z</time></trkpt><trkpt lat="44.787859105799924" lon="7.191735664938721"><ele>1031.0</ele><time>2026-04-25T11:34:54.999Z</time></trkpt><trkpt lat="44.78781637607619" lon="7.191913514766049"><ele>1031.5</ele><time>2026-04-25T11:34:55.999Z</time></trkpt><trkpt lat="44.78777179965321" lon="7.192073544711867"><ele>1032.0</ele><time>2026-04-25T11:34:56.999Z</time></trkpt><trkpt lat="44.787759095824306" lon="7.192231551181636"><ele>1028.8</ele><time>2026-04-25T11:34:57.999Z</time></trkpt><trkpt lat="44.78779824274267" lon="7.192369851906263"><ele>1025.6</ele><time>2026-04-25T11:34:58.999Z</time></trkpt><trkpt lat="44.78787385787547" lon="7.192486098970977"><ele>1022.3999999999999</ele><time>2026-04-25T11:34:59.999Z</time></trkpt><trkpt lat="44.78794800377563" lon="7.192596126687823"><ele>1019.1999999999999</ele><time>2026-04-25T11:35:00.999Z</time></trkpt><trkpt lat="44.7880238394901" lon="7.192707896735667"><ele>1016.0</ele><time>2026-04-25T11:35:01.999Z</time></trkpt><trkpt lat="44.788103378508026" lon="7.192826085425438"><ele>1016.0</ele><time>2026-04-25T11:35:02.999Z</time></trkpt><trkpt lat="44.7881943811906" lon="7.192939838629873"><ele>1016.0</ele><time>2026-04-25T11:35:03.999Z</time></trkpt><trkpt lat="44.788285336520126" lon="7.193045920402066"><ele>1016.0</ele><time>2026-04-25T11:35:04.999Z</time></trkpt><trkpt lat="44.7883587218656" lon="7.193175023589269"><ele>1016.0</ele><time>2026-04-25T11:35:05.999Z</time></trkpt><trkpt lat="44.78842489952055" lon="7.193324407954706"><ele>1015.0</ele><time>2026-04-25T11:35:06.999Z</time></trkpt><trkpt lat="44.7884944104625" lon="7.193480325239311"><ele>1014.0</ele><time>2026-04-25T11:35:07.999Z</time></trkpt><trkpt lat="44.78857590249211" lon="7.193617826367362"><ele>1013.0</ele><time>2026-04-25T11:35:08.999Z</time></trkpt><trkpt lat="44.78865934370141" lon="7.193746233363886"><ele>1012.0</ele><time>2026-04-25T11:35:09.999Z</time></trkpt><trkpt lat="44.78875691474449" lon="7.193853649147715"><ele>1012.0</ele><time>2026-04-25T11:35:10.999Z</time></trkpt><trkpt lat="44.788864972196265" lon="7.19392890727265"><ele>1012.0</ele><time>2026-04-25T11:35:11.999Z</time></trkpt><trkpt lat="44.788977930907194" lon="7.193972231113146"><ele>1012.0</ele><time>2026-04-25T11:35:12.999Z</time></trkpt><trkpt lat="44.78910183903881" lon="7.193977798268515"><ele>1012.0</ele><time>2026-04-25T11:35:13.999Z</time></trkpt><trkpt lat="44.789242017562884" lon="7.193988422687731"><ele>1001.6666666666666</ele><time>2026-04-25T11:35:14.999Z</time></trkpt><trkpt lat="44.78938679489165" lon="7.194045132208997"><ele>991.3333333333333</ele><time>2026-04-25T11:35:15.999Z</time></trkpt><trkpt lat="44.789549967394805" lon="7.194127132414204"><ele>981.0</ele><time>2026-04-25T11:35:16.999Z</time></trkpt><trkpt lat="44.78970610203846" lon="7.194216240784972"><ele>981.0</ele><time>2026-04-25T11:35:17.999Z</time></trkpt><trkpt lat="44.789850327995104" lon="7.194307887866251"><ele>981.0</ele><time>2026-04-25T11:35:18.999Z</time></trkpt><trkpt lat="44.789980638357335" lon="7.194403164091992"><ele>981.0</ele><time>2026-04-25T11:35:19.999Z</time></trkpt><trkpt lat="44.790090532659256" lon="7.194476791512022"><ele>981.0</ele><time>2026-04-25T11:35:20.999Z</time></trkpt><trkpt lat="44.790180931257495" lon="7.194541200246995"><ele>982.5</ele><time>2026-04-25T11:35:21.999Z</time></trkpt><trkpt lat="44.79025609860096" lon="7.194598967817142"><ele>984.0</ele><time>2026-04-25T11:35:22.999Z</time></trkpt><trkpt lat="44.79032332923929" lon="7.194654023251589"><ele>985.5</ele><time>2026-04-25T11:35:23.999Z</time></trkpt><trkpt lat="44.790400678067286" lon="7.194702122486342"><ele>987.0</ele><time>2026-04-25T11:35:24.999Z</time></trkpt><trkpt lat="44.79049905801938" lon="7.194744488012516"><ele>988.5</ele><time>2026-04-25T11:35:25.999Z</time></trkpt><trkpt lat="44.79059504925608" lon="7.194773431947711"><ele>990.0</ele><time>2026-04-25T11:35:26.999Z</time></trkpt><trkpt lat="44.790699270471144" lon="7.194807444627335"><ele>985.5</ele><time>2026-04-25T11:35:27.999Z</time></trkpt><trkpt lat="44.7908044782407" lon="7.194847607141333"><ele>981.0</ele><time>2026-04-25T11:35:28.999Z</time></trkpt><trkpt lat="44.7909200848367" lon="7.19489559989038"><ele>976.5</ele><time>2026-04-25T11:35:29.999Z</time></trkpt><trkpt lat="44.791036931601674" lon="7.194944422048419"><ele>972.0</ele><time>2026-04-25T11:35:30.999Z</time></trkpt><trkpt lat="44.79115948099876" lon="7.194996494609077"><ele>972.0</ele><time>2026-04-25T11:35:31.999Z</time></trkpt><trkpt lat="44.79128535181591" lon="7.19504612931704"><ele>972.0</ele><time>2026-04-25T11:35:32.999Z</time></trkpt><trkpt lat="44.791404265278544" lon="7.195096024953448"><ele>972.0</ele><time>2026-04-25T11:35:33.999Z</time></trkpt><trkpt lat="44.79151472322867" lon="7.195152350232686"><ele>972.0</ele><time>2026-04-25T11:35:34.999Z</time></trkpt><trkpt lat="44.791601714246596" lon="7.1952466803062265"><ele>972.0</ele><time>2026-04-25T11:35:35.999Z</time></trkpt><trkpt lat="44.79163732597093" lon="7.195394267217191"><ele>972.0</ele><time>2026-04-25T11:35:36.999Z</time></trkpt><trkpt lat="44.79169958472095" lon="7.195524818372097"><ele>972.0</ele><time>2026-04-25T11:35:37.999Z</time></trkpt><trkpt lat="44.791755274563705" lon="7.195671589336606"><ele>972.0</ele><time>2026-04-25T11:35:38.999Z</time></trkpt><trkpt lat="44.79184803089863" lon="7.19579840283074"><ele>972.4000000000001</ele><time>2026-04-25T11:35:39.999Z</time></trkpt><trkpt lat="44.791940800318066" lon="7.195904805524542"><ele>972.8000000000001</ele><time>2026-04-25T11:35:40.999Z</time></trkpt><trkpt lat="44.792011840288225" lon="7.196025085902608"><ele>973.2</ele><time>2026-04-25T11:35:41.998Z</time></trkpt><trkpt lat="44.79208071492941" lon="7.196137279414635"><ele>973.6</ele><time>2026-04-25T11:35:42.998Z</time></trkpt><trkpt lat="44.792145069746205" lon="7.196247677519339"><ele>974.0</ele><time>2026-04-25T11:35:43.998Z</time></trkpt><trkpt lat="44.792196004318015" lon="7.196361881438628"><ele>974.0000000000001</ele><time>2026-04-25T11:35:44.998Z</time></trkpt><trkpt lat="44.79223925701389" lon="7.196464775832933"><ele>974.0</ele><time>2026-04-25T11:35:45.998Z</time></trkpt><trkpt lat="44.792269407957306" lon="7.19657009040581"><ele>974.0</ele><time>2026-04-25T11:35:46.998Z</time></trkpt><trkpt lat="44.792291438068844" lon="7.1966734232108225"><ele>974.0</ele><time>2026-04-25T11:35:47.998Z</time></trkpt><trkpt lat="44.79232403299379" lon="7.196762948180311"><ele>974.0000000000001</ele><time>2026-04-25T11:35:48.998Z</time></trkpt><trkpt lat="44.79236448078954" lon="7.1968486082452845"><ele>974.0</ele><time>2026-04-25T11:35:49.998Z</time></trkpt><trkpt lat="44.792403258541704" lon="7.196942079585764"><ele>971.5000000000001</ele><time>2026-04-25T11:35:50.998Z</time></trkpt><trkpt lat="44.79244114851931" lon="7.197052142786863"><ele>969.0</ele><time>2026-04-25T11:35:51.998Z</time></trkpt><trkpt lat="44.79246405937485" lon="7.197159741938305"><ele>966.5</ele><time>2026-04-25T11:35:52.998Z</time></trkpt><trkpt lat="44.79249013428439" lon="7.197269244283735"><ele>964.0</ele><time>2026-04-25T11:35:53.998Z</time></trkpt><trkpt lat="44.792487054127655" lon="7.1973758987119485"><ele>961.5000000000001</ele><time>2026-04-25T11:35:54.998Z</time></trkpt><trkpt lat="44.792497438604585" lon="7.197476211433661"><ele>959.0</ele><time>2026-04-25T11:35:55.998Z</time></trkpt><trkpt lat="44.79249197769789" lon="7.197572103148838"><ele>957.8333333333334</ele><time>2026-04-25T11:35:56.998Z</time></trkpt><trkpt lat="44.792476808019195" lon="7.197672360181691"><ele>956.6666666666667</ele><time>2026-04-25T11:35:57.998Z</time></trkpt><trkpt lat="44.79247050036225" lon="7.197795930528415"><ele>955.5</ele><time>2026-04-25T11:35:59Z</time></trkpt><trkpt lat="44.79244659277705" lon="7.197885562050213"><ele>954.3333333333333</ele><time>2026-04-25T11:36:00Z</time></trkpt><trkpt lat="44.79242502569562" lon="7.197990179338567"><ele>953.1666666666666</ele><time>2026-04-25T11:36:01Z</time></trkpt><trkpt lat="44.7924191838937" lon="7.19810204272959"><ele>952.0</ele><time>2026-04-25T11:36:02Z</time></trkpt><trkpt lat="44.79240910216175" lon="7.1982147915666825"><ele>951.9999999999999</ele><time>2026-04-25T11:36:03Z</time></trkpt><trkpt lat="44.79237783398848" lon="7.198318136510967"><ele>952.0</ele><time>2026-04-25T11:36:04Z</time></trkpt><trkpt lat="44.79236276576063" lon="7.198420464522277"><ele>952.0</ele><time>2026-04-25T11:36:05Z</time></trkpt><trkpt lat="44.79233864197117" lon="7.198576656540081"><ele>952.0</ele><time>2026-04-25T11:36:07Z</time></trkpt><trkpt lat="44.79229577342783" lon="7.1987144544906805"><ele>951.9999999999999</ele><time>2026-04-25T11:36:09Z</time></trkpt><trkpt lat="44.79223930915176" lon="7.198756952062563"><ele>952.0</ele><time>2026-04-25T11:36:10Z</time></trkpt><trkpt lat="44.79219746228754" lon="7.1988279902043075"><ele>951.9999999999999</ele><time>2026-04-25T11:36:11Z</time></trkpt><trkpt lat="44.792164162742196" lon="7.198915366928655"><ele>952.0</ele><time>2026-04-25T11:36:12Z</time></trkpt><trkpt lat="44.79213191065076" lon="7.199006552180745"><ele>952.0</ele><time>2026-04-25T11:36:13Z</time></trkpt><trkpt lat="44.79208388932357" lon="7.199093595028759"><ele>952.0</ele><time>2026-04-25T11:36:14Z</time></trkpt><trkpt lat="44.792051627450846" lon="7.199201936474708"><ele>951.9999999999999</ele><time>2026-04-25T11:36:15Z</time></trkpt><trkpt lat="44.79202297802776" lon="7.199306962096211"><ele>952.0</ele><time>2026-04-25T11:36:16Z</time></trkpt><trkpt lat="44.791989955447875" lon="7.199410648050484"><ele>952.3333333333333</ele><time>2026-04-25T11:36:17Z</time></trkpt><trkpt lat="44.79196829955845" lon="7.199519313871465"><ele>952.6666666666666</ele><time>2026-04-25T11:36:18Z</time></trkpt><trkpt lat="44.79192626865243" lon="7.199620863062128"><ele>953.0</ele><time>2026-04-25T11:36:19Z</time></trkpt><trkpt lat="44.79188485965731" lon="7.199711652484321"><ele>953.3333333333333</ele><time>2026-04-25T11:36:20Z</time></trkpt><trkpt lat="44.79184771790429" lon="7.199800125360273"><ele>953.6666666666666</ele><time>2026-04-25T11:36:21Z</time></trkpt><trkpt lat="44.79180769960109" lon="7.199890871776969"><ele>954.0</ele><time>2026-04-25T11:36:22Z</time></trkpt><trkpt lat="44.79176798718832" lon="7.199992050821163"><ele>949.5</ele><time>2026-04-25T11:36:23Z</time></trkpt><trkpt lat="44.791729990735405" lon="7.200094580751111"><ele>945.0</ele><time>2026-04-25T11:36:24Z</time></trkpt><trkpt lat="44.791690824492704" lon="7.200196606322033"><ele>940.5</ele><time>2026-04-25T11:36:25Z</time></trkpt><trkpt lat="44.79164976353742" lon="7.200298967555377"><ele>936.0</ele><time>2026-04-25T11:36:26Z</time></trkpt><trkpt lat="44.791615436355826" lon="7.2004135202995"><ele>931.5</ele><time>2026-04-25T11:36:27Z</time></trkpt><trkpt lat="44.79156493695466" lon="7.2005210057701055"><ele>927.0</ele><time>2026-04-25T11:36:28Z</time></trkpt><trkpt lat="44.79153201262489" lon="7.200643072944286"><ele>927.3333333333334</ele><time>2026-04-25T11:36:29Z</time></trkpt><trkpt lat="44.7914966349669" lon="7.2007634387527535"><ele>927.6666666666667</ele><time>2026-04-25T11:36:30Z</time></trkpt><trkpt lat="44.791458369534844" lon="7.20087028975037"><ele>928.0</ele><time>2026-04-25T11:36:31Z</time></trkpt><trkpt lat="44.79136329307018" lon="7.20092830211822"><ele>928.3333333333334</ele><time>2026-04-25T11:36:33Z</time></trkpt><trkpt lat="44.79133672740392" lon="7.200840561912921"><ele>928.6666666666667</ele><time>2026-04-25T11:36:34Z</time></trkpt><trkpt lat="44.791363658342874" lon="7.2007440303573675"><ele>929.0</ele><time>2026-04-25T11:36:35Z</time></trkpt><trkpt lat="44.79140435699176" lon="7.200674428349287"><ele>928.6</ele><time>2026-04-25T11:36:36Z</time></trkpt><trkpt lat="44.791439433779026" lon="7.200504504612594"><ele>928.2</ele><time>2026-04-25T11:36:38Z</time></trkpt><trkpt lat="44.79144619334126" lon="7.200390493890274"><ele>927.8000000000001</ele><time>2026-04-25T11:36:39Z</time></trkpt><trkpt lat="44.7914468511593" lon="7.2002580123739115"><ele>927.4000000000001</ele><time>2026-04-25T11:36:40Z</time></trkpt><trkpt lat="44.79144458932985" lon="7.200109302957231"><ele>927.0</ele><time>2026-04-25T11:36:41Z</time></trkpt><trkpt lat="44.791440725086154" lon="7.199929028177893"><ele>926.75</ele><time>2026-04-25T11:36:42Z</time></trkpt><trkpt lat="44.79144151286619" lon="7.199735775307371"><ele>926.5</ele><time>2026-04-25T11:36:43Z</time></trkpt><trkpt lat="44.79144289881115" lon="7.199536832793037"><ele>926.25</ele><time>2026-04-25T11:36:44Z</time></trkpt><trkpt lat="44.791440833608604" lon="7.199354399832642"><ele>926.0</ele><time>2026-04-25T11:36:45Z</time></trkpt><trkpt lat="44.79143268560418" lon="7.199209859316519"><ele>926.0</ele><time>2026-04-25T11:36:46Z</time></trkpt><trkpt lat="44.791418760386186" lon="7.199109323675473"><ele>925.9999999999999</ele><time>2026-04-25T11:36:47Z</time></trkpt><trkpt lat="44.791298546147836" lon="7.1990749419271785"><ele>925.9999999999999</ele><time>2026-04-25T11:36:49Z</time></trkpt><trkpt lat="44.79125517767468" lon="7.199176263060271"><ele>926.0</ele><time>2026-04-25T11:36:50Z</time></trkpt><trkpt lat="44.791290961658575" lon="7.199312562033095"><ele>926.0</ele><time>2026-04-25T11:36:51Z</time></trkpt><trkpt lat="44.79130082477496" lon="7.199453090792935"><ele>926.0</ele><time>2026-04-25T11:36:52Z</time></trkpt><trkpt lat="44.791289347227604" lon="7.199617124794699"><ele>926.0</ele><time>2026-04-25T11:36:53Z</time></trkpt><trkpt lat="44.79123017141773" lon="7.199747346861425"><ele>926.0</ele><time>2026-04-25T11:36:54Z</time></trkpt><trkpt lat="44.79118577662316" lon="7.199915323955086"><ele>926.0</ele><time>2026-04-25T11:36:55Z</time></trkpt><trkpt lat="44.79112487551203" lon="7.200066883551143"><ele>926.25</ele><time>2026-04-25T11:36:56Z</time></trkpt><trkpt lat="44.79106844891299" lon="7.200204978288912"><ele>926.5</ele><time>2026-04-25T11:36:57Z</time></trkpt><trkpt lat="44.79102143869499" lon="7.200359936262598"><ele>926.75</ele><time>2026-04-25T11:36:57.999Z</time></trkpt><trkpt lat="44.790976941118096" lon="7.200510008213129"><ele>927.0</ele><time>2026-04-25T11:36:58.999Z</time></trkpt><trkpt lat="44.790936283764225" lon="7.2006548851346714"><ele>922.3333333333334</ele><time>2026-04-25T11:36:59.999Z</time></trkpt><trkpt lat="44.79089497009711" lon="7.200796015394424"><ele>917.6666666666667</ele><time>2026-04-25T11:37:00.999Z</time></trkpt><trkpt lat="44.790886723492136" lon="7.200928908241449"><ele>913.0</ele><time>2026-04-25T11:37:01.999Z</time></trkpt><trkpt lat="44.79088597222419" lon="7.201032897876317"><ele>908.3333333333334</ele><time>2026-04-25T11:37:02.999Z</time></trkpt><trkpt lat="44.790831898919" lon="7.201089893907518"><ele>903.6666666666667</ele><time>2026-04-25T11:37:03.999Z</time></trkpt><trkpt lat="44.79076331916924" lon="7.201070973549369"><ele>899.0</ele><time>2026-04-25T11:37:04.999Z</time></trkpt><trkpt lat="44.79071822574544" lon="7.200968402732958"><ele>899.0</ele><time>2026-04-25T11:37:05.999Z</time></trkpt><trkpt lat="44.790752390334475" lon="7.200817622203411"><ele>899.0</ele><time>2026-04-25T11:37:06.999Z</time></trkpt><trkpt lat="44.79076257852876" lon="7.20064116503474"><ele>899.0</ele><time>2026-04-25T11:37:07.999Z</time></trkpt><trkpt lat="44.79078832514098" lon="7.200474963424776"><ele>899.0</ele><time>2026-04-25T11:37:08.999Z</time></trkpt><trkpt lat="44.79079999375965" lon="7.200315583519562"><ele>897.8000000000001</ele><time>2026-04-25T11:37:09.999Z</time></trkpt><trkpt lat="44.79080899067571" lon="7.200160945496839"><ele>896.6000000000001</ele><time>2026-04-25T11:37:10.999Z</time></trkpt><trkpt lat="44.79081936325803" lon="7.200005658066865"><ele>895.4</ele><time>2026-04-25T11:37:11.999Z</time></trkpt><trkpt lat="44.79083557322314" lon="7.1998568842560005"><ele>894.2</ele><time>2026-04-25T11:37:12.999Z</time></trkpt><trkpt lat="44.7908538449065" lon="7.199731273226424"><ele>893.0</ele><time>2026-04-25T11:37:13.999Z</time></trkpt><trkpt lat="44.79083602924483" lon="7.199635323217984"><ele>893.0</ele><time>2026-04-25T11:37:14.999Z</time></trkpt><trkpt lat="44.79078410472783" lon="7.199574874678322"><ele>893.0</ele><time>2026-04-25T11:37:15.999Z</time></trkpt><trkpt lat="44.79069338734402" lon="7.19959685988801"><ele>893.0</ele><time>2026-04-25T11:37:16.999Z</time></trkpt><trkpt lat="44.79064308550227" lon="7.199742565936049"><ele>893.0</ele><time>2026-04-25T11:37:17.999Z</time></trkpt><trkpt lat="44.790644665297876" lon="7.1999148869851215"><ele>893.0</ele><time>2026-04-25T11:37:18.999Z</time></trkpt><trkpt lat="44.79060465993449" lon="7.200080690985088"><ele>893.0</ele><time>2026-04-25T11:37:19.999Z</time></trkpt><trkpt lat="44.79056847978433" lon="7.200260727058172"><ele>893.0</ele><time>2026-04-25T11:37:20.999Z</time></trkpt><trkpt lat="44.790516241322216" lon="7.2004186201123925"><ele>893.0</ele><time>2026-04-25T11:37:21.999Z</time></trkpt><trkpt lat="44.79046945314778" lon="7.200571105674901"><ele>893.0</ele><time>2026-04-25T11:37:22.999Z</time></trkpt><trkpt lat="44.79041926144763" lon="7.200716585945106"><ele>894.0000000000001</ele><time>2026-04-25T11:37:23.999Z</time></trkpt><trkpt lat="44.790376924575064" lon="7.200858823596179"><ele>895.0</ele><time>2026-04-25T11:37:24.999Z</time></trkpt><trkpt lat="44.79034858574263" lon="7.200994238308434"><ele>896.0</ele><time>2026-04-25T11:37:25.999Z</time></trkpt><trkpt lat="44.79035108340413" lon="7.201118328838598"><ele>897.0</ele><time>2026-04-25T11:37:26.999Z</time></trkpt><trkpt lat="44.790367323279796" lon="7.201213456987628"><ele>898.0000000000001</ele><time>2026-04-25T11:37:27.999Z</time></trkpt><trkpt lat="44.790316500938495" lon="7.201294206819774"><ele>899.0</ele><time>2026-04-25T11:37:29.999Z</time></trkpt><trkpt lat="44.79022606949494" lon="7.201169135497746"><ele>899.0</ele><time>2026-04-25T11:37:30.999Z</time></trkpt><trkpt lat="44.79022660311211" lon="7.201009325281749"><ele>899.0</ele><time>2026-04-25T11:37:31.999Z</time></trkpt><trkpt lat="44.79026277142944" lon="7.200825926609808"><ele>899.0</ele><time>2026-04-25T11:37:32.999Z</time></trkpt><trkpt lat="44.7902959167903" lon="7.200640914571256"><ele>899.0</ele><time>2026-04-25T11:37:33.999Z</time></trkpt><trkpt lat="44.79031589073346" lon="7.200450686133554"><ele>897.5</ele><time>2026-04-25T11:37:34.999Z</time></trkpt><trkpt lat="44.79032201764494" lon="7.2002662696821496"><ele>896.0</ele><time>2026-04-25T11:37:35.999Z</time></trkpt><trkpt lat="44.790323031957406" lon="7.200092974956187"><ele>894.5</ele><time>2026-04-25T11:37:36.999Z</time></trkpt><trkpt lat="44.790322096341505" lon="7.199919949713059"><ele>893.0</ele><time>2026-04-25T11:37:37.999Z</time></trkpt><trkpt lat="44.79033710234148" lon="7.199748769881879"><ele>892.75</ele><time>2026-04-25T11:37:38.999Z</time></trkpt><trkpt lat="44.7903347038267" lon="7.199575482681291"><ele>892.5</ele><time>2026-04-25T11:37:39.999Z</time></trkpt><trkpt lat="44.79031464956963" lon="7.199414536235516"><ele>892.25</ele><time>2026-04-25T11:37:40.999Z</time></trkpt><trkpt lat="44.79030947554374" lon="7.199249504903769"><ele>892.0</ele><time>2026-04-25T11:37:41.999Z</time></trkpt><trkpt lat="44.79030639466099" lon="7.1990847798809545"><ele>893.0</ele><time>2026-04-25T11:37:42.999Z</time></trkpt><trkpt lat="44.79031188068831" lon="7.198924786803542"><ele>894.0</ele><time>2026-04-25T11:37:43.999Z</time></trkpt><trkpt lat="44.79033908529444" lon="7.198770497337542"><ele>895.0</ele><time>2026-04-25T11:37:44.998Z</time></trkpt><trkpt lat="44.79037558212787" lon="7.198635351790116"><ele>896.0</ele><time>2026-04-25T11:37:45.998Z</time></trkpt><trkpt lat="44.79039589239755" lon="7.198517698773873"><ele>897.0</ele><time>2026-04-25T11:37:46.998Z</time></trkpt><trkpt lat="44.79037517089139" lon="7.198411524365446"><ele>897.0</ele><time>2026-04-25T11:37:47.998Z</time></trkpt><trkpt lat="44.79031704048239" lon="7.198335842758511"><ele>897.0</ele><time>2026-04-25T11:37:48.998Z</time></trkpt><trkpt lat="44.79022132583414" lon="7.198331685764527"><ele>897.0</ele><time>2026-04-25T11:37:49.998Z</time></trkpt><trkpt lat="44.79013345344453" lon="7.198466993442294"><ele>897.0</ele><time>2026-04-25T11:37:50.998Z</time></trkpt><trkpt lat="44.79005607992513" lon="7.198557294853199"><ele>897.0</ele><time>2026-04-25T11:37:51.998Z</time></trkpt><trkpt lat="44.78995438636405" lon="7.198598440916377"><ele>892.0</ele><time>2026-04-25T11:37:52.998Z</time></trkpt><trkpt lat="44.789837354595456" lon="7.198657657319333"><ele>887.0</ele><time>2026-04-25T11:37:53.998Z</time></trkpt><trkpt lat="44.78969777865661" lon="7.198678278564749"><ele>882.0</ele><time>2026-04-25T11:37:54.998Z</time></trkpt><trkpt lat="44.78955706171541" lon="7.198670877572358"><ele>877.0</ele><time>2026-04-25T11:37:55.998Z</time></trkpt><trkpt lat="44.78941926055104" lon="7.198682431776002"><ele>875.75</ele><time>2026-04-25T11:37:56.998Z</time></trkpt><trkpt lat="44.78928624862002" lon="7.198684112882321"><ele>874.5</ele><time>2026-04-25T11:37:57.998Z</time></trkpt><trkpt lat="44.789156832810505" lon="7.198675523178684"><ele>873.25</ele><time>2026-04-25T11:37:58.998Z</time></trkpt><trkpt lat="44.78902751879483" lon="7.198651077636133"><ele>872.0</ele><time>2026-04-25T11:37:59.998Z</time></trkpt><trkpt lat="44.788895718700005" lon="7.198602206344775"><ele>872.0</ele><time>2026-04-25T11:38:00.998Z</time></trkpt><trkpt lat="44.78876004981612" lon="7.198529027599647"><ele>872.0</ele><time>2026-04-25T11:38:01.998Z</time></trkpt><trkpt lat="44.78862691949653" lon="7.198475854922055"><ele>872.0</ele><time>2026-04-25T11:38:02.998Z</time></trkpt><trkpt lat="44.78849496164796" lon="7.198462037291858"><ele>872.0</ele><time>2026-04-25T11:38:03.998Z</time></trkpt><trkpt lat="44.78836239093107" lon="7.198467177928644"><ele>871.25</ele><time>2026-04-25T11:38:05Z</time></trkpt><trkpt lat="44.78822714253851" lon="7.198483239341121"><ele>870.5</ele><time>2026-04-25T11:38:06Z</time></trkpt><trkpt lat="44.7880899553025" lon="7.1985076341196"><ele>869.75</ele><time>2026-04-25T11:38:07Z</time></trkpt><trkpt lat="44.78795415643607" lon="7.198516995735856"><ele>869.0</ele><time>2026-04-25T11:38:08Z</time></trkpt><trkpt lat="44.78782504872623" lon="7.198490807732533"><ele>869.0</ele><time>2026-04-25T11:38:09Z</time></trkpt><trkpt lat="44.787703355841806" lon="7.198430602199407"><ele>869.0</ele><time>2026-04-25T11:38:10Z</time></trkpt><trkpt lat="44.78759199287779" lon="7.198345096946305"><ele>869.0</ele><time>2026-04-25T11:38:11Z</time></trkpt><trkpt lat="44.787485669530575" lon="7.198253932751367"><ele>869.0</ele><time>2026-04-25T11:38:12Z</time></trkpt><trkpt lat="44.78738871267973" lon="7.198162234794332"><ele>864.0</ele><time>2026-04-25T11:38:13Z</time></trkpt><trkpt lat="44.78730890708244" lon="7.19804467906854"><ele>859.0000000000001</ele><time>2026-04-25T11:38:14Z</time></trkpt><trkpt lat="44.78726634732568" lon="7.197914201793248"><ele>854.0</ele><time>2026-04-25T11:38:15Z</time></trkpt><trkpt lat="44.78723377362141" lon="7.197833535318724"><ele>849.0</ele><time>2026-04-25T11:38:16Z</time></trkpt><trkpt lat="44.78716595739776" lon="7.1977930170960365"><ele>844.0</ele><time>2026-04-25T11:38:17Z</time></trkpt><trkpt lat="44.787050646739736" lon="7.19787798419711"><ele>844.0</ele><time>2026-04-25T11:38:19Z</time></trkpt><trkpt lat="44.78705806207668" lon="7.1980324843995325"><ele>844.0</ele><time>2026-04-25T11:38:20Z</time></trkpt><trkpt lat="44.787150127714334" lon="7.198150646969084"><ele>844.0</ele><time>2026-04-25T11:38:21Z</time></trkpt><trkpt lat="44.787239581914235" lon="7.198265035523626"><ele>844.0</ele><time>2026-04-25T11:38:22Z</time></trkpt><trkpt lat="44.78735352229778" lon="7.198381923755851"><ele>843.3333333333333</ele><time>2026-04-25T11:38:23Z</time></trkpt><trkpt lat="44.78746753073467" lon="7.19849641914896"><ele>842.6666666666667</ele><time>2026-04-25T11:38:24Z</time></trkpt><trkpt lat="44.78760296931622" lon="7.198619415048067"><ele>842.0</ele><time>2026-04-25T11:38:25Z</time></trkpt><trkpt lat="44.78776180621531" lon="7.19874078566699"><ele>839.0</ele><time>2026-04-25T11:38:26Z</time></trkpt><trkpt lat="44.787926795662464" lon="7.198828255134034"><ele>836.0</ele><time>2026-04-25T11:38:27Z</time></trkpt><trkpt lat="44.78807204086466" lon="7.198927008460796"><ele>833.0</ele><time>2026-04-25T11:38:28Z</time></trkpt><trkpt lat="44.788203664320015" lon="7.199040125494527"><ele>833.0</ele><time>2026-04-25T11:38:29Z</time></trkpt><trkpt lat="44.78834221538171" lon="7.199136876187298"><ele>833.0</ele><time>2026-04-25T11:38:30Z</time></trkpt><trkpt lat="44.7884755172128" lon="7.199223690837813"><ele>833.0</ele><time>2026-04-25T11:38:31Z</time></trkpt><trkpt lat="44.788612729579036" lon="7.199290179344239"><ele>833.0</ele><time>2026-04-25T11:38:32Z</time></trkpt><trkpt lat="44.78874344640091" lon="7.199382418110941"><ele>832.4</ele><time>2026-04-25T11:38:33Z</time></trkpt><trkpt lat="44.788857919456916" lon="7.199465466719842"><ele>831.8</ele><time>2026-04-25T11:38:34Z</time></trkpt><trkpt lat="44.78894988702783" lon="7.199537364507438"><ele>831.2</ele><time>2026-04-25T11:38:35Z</time></trkpt><trkpt lat="44.78901515057975" lon="7.199615663667276"><ele>830.6</ele><time>2026-04-25T11:38:36Z</time></trkpt><trkpt lat="44.789039092142616" lon="7.199735191213096"><ele>830.0</ele><time>2026-04-25T11:38:37Z</time></trkpt><trkpt lat="44.78897603320782" lon="7.199863792535551"><ele>830.0</ele><time>2026-04-25T11:38:38Z</time></trkpt><trkpt lat="44.78889552643574" lon="7.1999640706215775"><ele>830.0</ele><time>2026-04-25T11:38:39Z</time></trkpt><trkpt lat="44.788817388948495" lon="7.200119783776391"><ele>830.0</ele><time>2026-04-25T11:38:40Z</time></trkpt><trkpt lat="44.78875509283562" lon="7.200304562130362"><ele>830.0</ele><time>2026-04-25T11:38:41Z</time></trkpt><trkpt lat="44.7887106309076" lon="7.200515977998162"><ele>831.0</ele><time>2026-04-25T11:38:42Z</time></trkpt><trkpt lat="44.78865940127714" lon="7.200716306083235"><ele>832.0</ele><time>2026-04-25T11:38:43Z</time></trkpt><trkpt lat="44.78862009014055" lon="7.2009058725196455"><ele>833.0</ele><time>2026-04-25T11:38:44Z</time></trkpt><trkpt lat="44.78855592480345" lon="7.201077293719083"><ele>834.0</ele><time>2026-04-25T11:38:45Z</time></trkpt><trkpt lat="44.7884833644299" lon="7.201219490120445"><ele>828.8333333333334</ele><time>2026-04-25T11:38:46Z</time></trkpt><trkpt lat="44.78842279680868" lon="7.201327928060912"><ele>823.6666666666667</ele><time>2026-04-25T11:38:47Z</time></trkpt><trkpt lat="44.78837455203226" lon="7.201405885364942"><ele>818.5</ele><time>2026-04-25T11:38:48Z</time></trkpt><trkpt lat="44.78829959147603" lon="7.201505626693467"><ele>813.3333333333334</ele><time>2026-04-25T11:38:50Z</time></trkpt><trkpt lat="44.788263036077886" lon="7.201420648452276"><ele>808.1666666666667</ele><time>2026-04-25T11:38:51Z</time></trkpt><trkpt lat="44.78824662175158" lon="7.201327704331124"><ele>803.0</ele><time>2026-04-25T11:38:52Z</time></trkpt><trkpt lat="44.78832835127709" lon="7.201236872575148"><ele>803.0</ele><time>2026-04-25T11:38:53Z</time></trkpt><trkpt lat="44.788381215850116" lon="7.201178775220267"><ele>803.0</ele><time>2026-04-25T11:38:54Z</time></trkpt><trkpt lat="44.78840185722726" lon="7.20103141580592"><ele>803.0</ele><time>2026-04-25T11:38:56Z</time></trkpt><trkpt lat="44.78835569072785" lon="7.200880245904271"><ele>803.0</ele><time>2026-04-25T11:38:58Z</time></trkpt><trkpt lat="44.788260206558874" lon="7.200775289879873"><ele>803.0</ele><time>2026-04-25T11:39:00Z</time></trkpt><trkpt lat="44.78814723990217" lon="7.2006958211772405"><ele>803.5000000000001</ele><time>2026-04-25T11:39:01.999Z</time></trkpt><trkpt lat="44.7880900134812" lon="7.200656646953733"><ele>804.0</ele><time>2026-04-25T11:39:02.999Z</time></trkpt><trkpt lat="44.78803327967339" lon="7.200595084923997"><ele>804.5</ele><time>2026-04-25T11:39:03.999Z</time></trkpt><trkpt lat="44.788002946430396" lon="7.200510684014837"><ele>805.0</ele><time>2026-04-25T11:39:04.999Z</time></trkpt><trkpt lat="44.787984728295385" lon="7.200393166879702"><ele>805.5000000000001</ele><time>2026-04-25T11:39:05.999Z</time></trkpt><trkpt lat="44.78801814669611" lon="7.200270858631567"><ele>806.0</ele><time>2026-04-25T11:39:06.999Z</time></trkpt><trkpt lat="44.78805305131888" lon="7.200165740091161"><ele>806.0000000000001</ele><time>2026-04-25T11:39:07.999Z</time></trkpt><trkpt lat="44.78807047047387" lon="7.200045341650393"><ele>806.0</ele><time>2026-04-25T11:39:08.999Z</time></trkpt><trkpt lat="44.78808065165591" lon="7.199922368271908"><ele>806.0</ele><time>2026-04-25T11:39:09.999Z</time></trkpt><trkpt lat="44.78806825033495" lon="7.199795172561078"><ele>806.0</ele><time>2026-04-25T11:39:10.999Z</time></trkpt><trkpt lat="44.78804317902426" lon="7.199680441446147"><ele>806.0000000000001</ele><time>2026-04-25T11:39:11.999Z</time></trkpt><trkpt lat="44.78799379783739" lon="7.199576691637896"><ele>806.0</ele><time>2026-04-25T11:39:12.999Z</time></trkpt><trkpt lat="44.78788947285336" lon="7.199548809585953"><ele>806.5000000000001</ele><time>2026-04-25T11:39:13.999Z</time></trkpt><trkpt lat="44.78779835110631" lon="7.1995242471505785"><ele>807.0</ele><time>2026-04-25T11:39:14.999Z</time></trkpt><trkpt lat="44.787708743808615" lon="7.199518298247532"><ele>807.5</ele><time>2026-04-25T11:39:15.999Z</time></trkpt><trkpt lat="44.7876220350379" lon="7.199514028691706"><ele>808.0</ele><time>2026-04-25T11:39:16.999Z</time></trkpt><trkpt lat="44.787539191321265" lon="7.199492241254586"><ele>808.5000000000001</ele><time>2026-04-25T11:39:17.999Z</time></trkpt><trkpt lat="44.787451409126255" lon="7.199453302148273"><ele>809.0</ele><time>2026-04-25T11:39:18.999Z</time></trkpt><trkpt lat="44.787363677411385" lon="7.199394664210139"><ele>809.0</ele><time>2026-04-25T11:39:19.999Z</time></trkpt><trkpt lat="44.78728995126848" lon="7.199317114090222"><ele>809.0</ele><time>2026-04-25T11:39:20.999Z</time></trkpt><trkpt lat="44.787210509184575" lon="7.199234536863514"><ele>809.0</ele><time>2026-04-25T11:39:21.999Z</time></trkpt><trkpt lat="44.787123790845605" lon="7.19916143492618"><ele>809.0</ele><time>2026-04-25T11:39:22.999Z</time></trkpt><trkpt lat="44.78703730794281" lon="7.199092599054424"><ele>809.0</ele><time>2026-04-25T11:39:23.999Z</time></trkpt><trkpt lat="44.78695377389544" lon="7.199010162089318"><ele>808.8333333333334</ele><time>2026-04-25T11:39:24.999Z</time></trkpt><trkpt lat="44.78688085881494" lon="7.198925017102638"><ele>808.6666666666667</ele><time>2026-04-25T11:39:25.999Z</time></trkpt><trkpt lat="44.786816790329205" lon="7.198874169446015"><ele>808.5</ele><time>2026-04-25T11:39:26.999Z</time></trkpt><trkpt lat="44.786755221871175" lon="7.198894647418333"><ele>808.3333333333333</ele><time>2026-04-25T11:39:27.999Z</time></trkpt><trkpt lat="44.786709320891795" lon="7.199003640176778"><ele>808.1666666666666</ele><time>2026-04-25T11:39:28.999Z</time></trkpt><trkpt lat="44.78673867334146" lon="7.199145388149442"><ele>808.0</ele><time>2026-04-25T11:39:29.999Z</time></trkpt><trkpt lat="44.78684135555558" lon="7.19920167125669"><ele>808.1666666666666</ele><time>2026-04-25T11:39:30.999Z</time></trkpt><trkpt lat="44.786911482794686" lon="7.199250879347204"><ele>808.3333333333333</ele><time>2026-04-25T11:39:31.999Z</time></trkpt><trkpt lat="44.78697504863821" lon="7.199310189914447"><ele>808.5</ele><time>2026-04-25T11:39:32.999Z</time></trkpt><trkpt lat="44.78703622108663" lon="7.199385227670559"><ele>808.6666666666667</ele><time>2026-04-25T11:39:33.999Z</time></trkpt><trkpt lat="44.78709748594104" lon="7.199457496718101"><ele>808.8333333333334</ele><time>2026-04-25T11:39:34.999Z</time></trkpt><trkpt lat="44.78716243466191" lon="7.19952825480211"><ele>809.0</ele><time>2026-04-25T11:39:35.999Z</time></trkpt><trkpt lat="44.78722745711739" lon="7.199607217165874"><ele>809.0000000000001</ele><time>2026-04-25T11:39:36.999Z</time></trkpt><trkpt lat="44.78729473713974" lon="7.199684926353444"><ele>809.0</ele><time>2026-04-25T11:39:37.999Z</time></trkpt><trkpt lat="44.787353384689794" lon="7.19977218614684"><ele>809.0</ele><time>2026-04-25T11:39:38.999Z</time></trkpt><trkpt lat="44.78739580112993" lon="7.199872674007596"><ele>809.0</ele><time>2026-04-25T11:39:39.999Z</time></trkpt><trkpt lat="44.787418193027" lon="7.199992516331956"><ele>809.0000000000001</ele><time>2026-04-25T11:39:40.999Z</time></trkpt><trkpt lat="44.78738888154063" lon="7.200125266046094"><ele>809.0</ele><time>2026-04-25T11:39:41.999Z</time></trkpt><trkpt lat="44.787409484429915" lon="7.200253984506144"><ele>803.2</ele><time>2026-04-25T11:39:42.999Z</time></trkpt><trkpt lat="44.787425200876115" lon="7.200379907148183"><ele>797.4000000000001</ele><time>2026-04-25T11:39:43.999Z</time></trkpt><trkpt lat="44.787459141534754" lon="7.2005061668896815"><ele>791.6</ele><time>2026-04-25T11:39:44.999Z</time></trkpt><trkpt lat="44.78749685299623" lon="7.200631516763602"><ele>785.8</ele><time>2026-04-25T11:39:45.999Z</time></trkpt><trkpt lat="44.787529815031654" lon="7.200761599299289"><ele>780.0</ele><time>2026-04-25T11:39:46.999Z</time></trkpt><trkpt lat="44.78756706657901" lon="7.200891908078393"><ele>778.6</ele><time>2026-04-25T11:39:47.999Z</time></trkpt><trkpt lat="44.78760467279328" lon="7.20102104907965"><ele>777.2</ele><time>2026-04-25T11:39:48.999Z</time></trkpt><trkpt lat="44.78764189251805" lon="7.201154278085052"><ele>775.8</ele><time>2026-04-25T11:39:49.998Z</time></trkpt><trkpt lat="44.787681696941206" lon="7.201289775899098"><ele>774.4</ele><time>2026-04-25T11:39:50.998Z</time></trkpt><trkpt lat="44.78772138081295" lon="7.201430982133037"><ele>773.0</ele><time>2026-04-25T11:39:51.998Z</time></trkpt><trkpt lat="44.7877540890536" lon="7.201570949733655"><ele>777.5999999999999</ele><time>2026-04-25T11:39:52.998Z</time></trkpt><trkpt lat="44.78779019969514" lon="7.201707224707528"><ele>782.1999999999999</ele><time>2026-04-25T11:39:53.998Z</time></trkpt><trkpt lat="44.78782323222594" lon="7.201843459932546"><ele>786.8</ele><time>2026-04-25T11:39:54.998Z</time></trkpt><trkpt lat="44.787862478275976" lon="7.201974246119512"><ele>791.4</ele><time>2026-04-25T11:39:55.998Z</time></trkpt><trkpt lat="44.78791423817696" lon="7.202094248287182"><ele>796.0</ele><time>2026-04-25T11:39:56.998Z</time></trkpt><trkpt lat="44.78797584737977" lon="7.202203889584271"><ele>796.0</ele><time>2026-04-25T11:39:57.998Z</time></trkpt><trkpt lat="44.788048262367624" lon="7.202303221336961"><ele>796.0</ele><time>2026-04-25T11:39:58.998Z</time></trkpt><trkpt lat="44.78811364111717" lon="7.20241010049378"><ele>796.0</ele><time>2026-04-25T11:39:59.998Z</time></trkpt><trkpt lat="44.7881781743646" lon="7.202511938150789"><ele>796.0</ele><time>2026-04-25T11:40:00.998Z</time></trkpt><trkpt lat="44.78824167819586" lon="7.202621085014281"><ele>796.0</ele><time>2026-04-25T11:40:01.998Z</time></trkpt><trkpt lat="44.78831698038087" lon="7.202714771542575"><ele>795.8</ele><time>2026-04-25T11:40:02.998Z</time></trkpt><trkpt lat="44.78840335345983" lon="7.202774375471433"><ele>795.5999999999999</ele><time>2026-04-25T11:40:03.998Z</time></trkpt><trkpt lat="44.78848871711724" lon="7.202837599510572"><ele>795.4</ele><time>2026-04-25T11:40:04.998Z</time></trkpt><trkpt lat="44.78855097907817" lon="7.202945652620077"><ele>795.2</ele><time>2026-04-25T11:40:05.998Z</time></trkpt><trkpt lat="44.788586460601394" lon="7.2030749053248595"><ele>795.0</ele><time>2026-04-25T11:40:06.998Z</time></trkpt><trkpt lat="44.78861103981613" lon="7.203204294826326"><ele>793.0</ele><time>2026-04-25T11:40:07.998Z</time></trkpt><trkpt lat="44.7886260103195" lon="7.2033318737687"><ele>791.0</ele><time>2026-04-25T11:40:08.998Z</time></trkpt><trkpt lat="44.78863734272369" lon="7.203461860938481"><ele>789.0</ele><time>2026-04-25T11:40:10Z</time></trkpt><trkpt lat="44.788656214053866" lon="7.2035875503358495"><ele>787.0</ele><time>2026-04-25T11:40:11Z</time></trkpt><trkpt lat="44.788690837579466" lon="7.203716191527414"><ele>785.0</ele><time>2026-04-25T11:40:12Z</time></trkpt><trkpt lat="44.78872170261281" lon="7.20384580844637"><ele>785.0</ele><time>2026-04-25T11:40:13Z</time></trkpt><trkpt lat="44.78875114082151" lon="7.203976843279122"><ele>785.0</ele><time>2026-04-25T11:40:14Z</time></trkpt><trkpt lat="44.788781046737334" lon="7.204106970821618"><ele>785.0</ele><time>2026-04-25T11:40:15Z</time></trkpt><trkpt lat="44.78880454004953" lon="7.204241193852634"><ele>785.0</ele><time>2026-04-25T11:40:16Z</time></trkpt><trkpt lat="44.78880973148333" lon="7.204380043138815"><ele>785.0</ele><time>2026-04-25T11:40:17Z</time></trkpt><trkpt lat="44.788796728393976" lon="7.204521482968989"><ele>783.6</ele><time>2026-04-25T11:40:18Z</time></trkpt><trkpt lat="44.78876626675439" lon="7.204656879676713"><ele>782.2</ele><time>2026-04-25T11:40:19Z</time></trkpt><trkpt lat="44.788695301084296" lon="7.204760941406324"><ele>780.8</ele><time>2026-04-25T11:40:20Z</time></trkpt><trkpt lat="44.78863222130913" lon="7.2048753605596545"><ele>779.4</ele><time>2026-04-25T11:40:21Z</time></trkpt><trkpt lat="44.78857802993373" lon="7.20499958872528"><ele>778.0</ele><time>2026-04-25T11:40:22Z</time></trkpt><trkpt lat="44.78852058549222" lon="7.205113710741401"><ele>769.2</ele><time>2026-04-25T11:40:23Z</time></trkpt><trkpt lat="44.78847372168352" lon="7.205235231857849"><ele>760.4</ele><time>2026-04-25T11:40:24Z</time></trkpt><trkpt lat="44.788428305028084" lon="7.205356685280859"><ele>751.6</ele><time>2026-04-25T11:40:25Z</time></trkpt><trkpt lat="44.78839520214226" lon="7.2054827546635165"><ele>742.8000000000001</ele><time>2026-04-25T11:40:26Z</time></trkpt><trkpt lat="44.7883714049339" lon="7.205613828931331"><ele>734.0</ele><time>2026-04-25T11:40:27Z</time></trkpt><trkpt lat="44.78835018267004" lon="7.205750306132159"><ele>734.0</ele><time>2026-04-25T11:40:28Z</time></trkpt><trkpt lat="44.788325419790375" lon="7.2058822569391605"><ele>734.0</ele><time>2026-04-25T11:40:29Z</time></trkpt><trkpt lat="44.78831476029612" lon="7.2060194051407755"><ele>734.0</ele><time>2026-04-25T11:40:30Z</time></trkpt><trkpt lat="44.788325352997916" lon="7.206155823848838"><ele>734.0</ele><time>2026-04-25T11:40:31Z</time></trkpt><trkpt lat="44.788365870515335" lon="7.2062787931552075"><ele>734.0</ele><time>2026-04-25T11:40:32Z</time></trkpt><trkpt lat="44.78842802524122" lon="7.206380337638683"><ele>734.0</ele><time>2026-04-25T11:40:33Z</time></trkpt><trkpt lat="44.78850399309038" lon="7.206460283923896"><ele>734.0</ele><time>2026-04-25T11:40:34Z</time></trkpt><trkpt lat="44.788591785594754" lon="7.206515448826919"><ele>734.0</ele><time>2026-04-25T11:40:35Z</time></trkpt><trkpt lat="44.7886865330211" lon="7.206548558383304"><ele>734.0</ele><time>2026-04-25T11:40:36Z</time></trkpt><trkpt lat="44.78877902458826" lon="7.206578344295427"><ele>734.0</ele><time>2026-04-25T11:40:37Z</time></trkpt><trkpt lat="44.788869080354296" lon="7.206628990684657"><ele>738.6</ele><time>2026-04-25T11:40:38Z</time></trkpt><trkpt lat="44.78893706833535" lon="7.206728633679433"><ele>743.2</ele><time>2026-04-25T11:40:39Z</time></trkpt><trkpt lat="44.78896108019766" lon="7.206864532621098"><ele>747.8000000000001</ele><time>2026-04-25T11:40:40Z</time></trkpt><trkpt lat="44.78901527462646" lon="7.206978796040272"><ele>752.4000000000001</ele><time>2026-04-25T11:40:41Z</time></trkpt><trkpt lat="44.789070173193444" lon="7.2070949267196545"><ele>757.0</ele><time>2026-04-25T11:40:42Z</time></trkpt><trkpt lat="44.78912803465843" lon="7.2072057639371545"><ele>756.8</ele><time>2026-04-25T11:40:43Z</time></trkpt><trkpt lat="44.78916989171623" lon="7.20733117622676"><ele>756.6</ele><time>2026-04-25T11:40:44Z</time></trkpt><trkpt lat="44.78922139783811" lon="7.207443725825102"><ele>756.4</ele><time>2026-04-25T11:40:45Z</time></trkpt><trkpt lat="44.78929845121043" lon="7.207534593358033"><ele>756.1999999999999</ele><time>2026-04-25T11:40:46Z</time></trkpt><trkpt lat="44.789352471050144" lon="7.20764682792945"><ele>756.0</ele><time>2026-04-25T11:40:47Z</time></trkpt><trkpt lat="44.78940834780505" lon="7.207754584786721"><ele>756.0</ele><time>2026-04-25T11:40:48Z</time></trkpt><trkpt lat="44.7894696803745" lon="7.2078546315269065"><ele>756.0</ele><time>2026-04-25T11:40:49Z</time></trkpt><trkpt lat="44.78953846645198" lon="7.207945293913141"><ele>756.0</ele><time>2026-04-25T11:40:50Z</time></trkpt><trkpt lat="44.78961237067016" lon="7.208021248714811"><ele>756.0</ele><time>2026-04-25T11:40:51Z</time></trkpt><trkpt lat="44.78968654400068" lon="7.208099492334615"><ele>756.0</ele><time>2026-04-25T11:40:52Z</time></trkpt><trkpt lat="44.78976029770915" lon="7.208178173912951"><ele>748.1999999999999</ele><time>2026-04-25T11:40:53Z</time></trkpt><trkpt lat="44.78983150541872" lon="7.208262407583755"><ele>740.4</ele><time>2026-04-25T11:40:54Z</time></trkpt><trkpt lat="44.78989691932685" lon="7.208353076742021"><ele>732.6</ele><time>2026-04-25T11:40:55Z</time></trkpt><trkpt lat="44.78996253775394" lon="7.208447419687627"><ele>724.8</ele><time>2026-04-25T11:40:56Z</time></trkpt><trkpt lat="44.79003468402947" lon="7.208530141674651"><ele>717.0</ele><time>2026-04-25T11:40:57Z</time></trkpt><trkpt lat="44.79012023949789" lon="7.2085925008514575"><ele>717.6666666666666</ele><time>2026-04-25T11:40:58Z</time></trkpt><trkpt lat="44.79021450506981" lon="7.208619828664586"><ele>718.3333333333334</ele><time>2026-04-25T11:40:59Z</time></trkpt><trkpt lat="44.790311894885605" lon="7.208629838839344"><ele>719.0</ele><time>2026-04-25T11:41:00Z</time></trkpt><trkpt lat="44.79038345127108" lon="7.208696126883495"><ele>719.6666666666667</ele><time>2026-04-25T11:41:01Z</time></trkpt><trkpt lat="44.79042079816262" lon="7.20879853740525"><ele>720.3333333333334</ele><time>2026-04-25T11:41:02Z</time></trkpt><trkpt lat="44.79042513878634" lon="7.208913554780493"><ele>721.0</ele><time>2026-04-25T11:41:03Z</time></trkpt><trkpt lat="44.790418388281395" lon="7.209035528190596"><ele>721.0</ele><time>2026-04-25T11:41:04Z</time></trkpt><trkpt lat="44.790421722779726" lon="7.209155068854767"><ele>721.0</ele><time>2026-04-25T11:41:05Z</time></trkpt><trkpt lat="44.79042390808443" lon="7.2092732667570765"><ele>721.0</ele><time>2026-04-25T11:41:05.999Z</time></trkpt><trkpt lat="44.790418938489154" lon="7.209394472083579"><ele>721.0</ele><time>2026-04-25T11:41:06.999Z</time></trkpt><trkpt lat="44.79040446861281" lon="7.2095153920704185"><ele>721.0</ele><time>2026-04-25T11:41:07.999Z</time></trkpt><trkpt lat="44.79038684559871" lon="7.209635937550322"><ele>721.0</ele><time>2026-04-25T11:41:08.999Z</time></trkpt><trkpt lat="44.79036752061196" lon="7.209753893966033"><ele>718.3333333333334</ele><time>2026-04-25T11:41:09.999Z</time></trkpt><trkpt lat="44.79034161544989" lon="7.209869742052409"><ele>715.6666666666667</ele><time>2026-04-25T11:41:10.999Z</time></trkpt><trkpt lat="44.790316446837586" lon="7.209983286505623"><ele>713.0</ele><time>2026-04-25T11:41:11.999Z</time></trkpt><trkpt lat="44.79029316423545" lon="7.210092444720525"><ele>710.3333333333334</ele><time>2026-04-25T11:41:12.999Z</time></trkpt><trkpt lat="44.7902636220644" lon="7.210192557418636"><ele>707.6666666666666</ele><time>2026-04-25T11:41:13.999Z</time></trkpt><trkpt lat="44.79016671519596" lon="7.210273265935071"><ele>705.0</ele><time>2026-04-25T11:41:15.999Z</time></trkpt><trkpt lat="44.790090858464424" lon="7.210149175445458"><ele>708.2</ele><time>2026-04-25T11:41:17.999Z</time></trkpt><trkpt lat="44.79009519246043" lon="7.210050521716238"><ele>711.4</ele><time>2026-04-25T11:41:18.999Z</time></trkpt><trkpt lat="44.790148737670535" lon="7.209880626914717"><ele>714.5999999999999</ele><time>2026-04-25T11:41:20.999Z</time></trkpt><trkpt lat="44.790202750779464" lon="7.2097641071799465"><ele>717.8</ele><time>2026-04-25T11:41:21.999Z</time></trkpt><trkpt lat="44.790254188609616" lon="7.209623436819157"><ele>721.0</ele><time>2026-04-25T11:41:22.999Z</time></trkpt><trkpt lat="44.79028912245294" lon="7.209457952318817"><ele>721.0</ele><time>2026-04-25T11:41:23.999Z</time></trkpt><trkpt lat="44.79030546285482" lon="7.209289688955949"><ele>721.0</ele><time>2026-04-25T11:41:24.999Z</time></trkpt><trkpt lat="44.79030671681496" lon="7.209141886664736"><ele>721.0</ele><time>2026-04-25T11:41:25.999Z</time></trkpt><trkpt lat="44.79026541858874" lon="7.209008081580157"><ele>721.0</ele><time>2026-04-25T11:41:26.999Z</time></trkpt><trkpt lat="44.79016785232062" lon="7.208894774511736"><ele>719.6666666666667</ele><time>2026-04-25T11:41:27.999Z</time></trkpt><trkpt lat="44.79001823660473" lon="7.208803092893406"><ele>718.3333333333334</ele><time>2026-04-25T11:41:28.999Z</time></trkpt><trkpt lat="44.78984768464514" lon="7.208737857403244"><ele>717.0</ele><time>2026-04-25T11:41:29.999Z</time></trkpt><trkpt lat="44.789708867292745" lon="7.208632850759989"><ele>717.0</ele><time>2026-04-25T11:41:30.999Z</time></trkpt><trkpt lat="44.78961665731843" lon="7.208505888311846"><ele>717.0</ele><time>2026-04-25T11:41:31.999Z</time></trkpt><trkpt lat="44.789544905067395" lon="7.2083888001287795"><ele>717.0</ele><time>2026-04-25T11:41:32.999Z</time></trkpt><trkpt lat="44.78946175376011" lon="7.20833667641301"><ele>717.0</ele><time>2026-04-25T11:41:33.999Z</time></trkpt><trkpt lat="44.78939089063666" lon="7.208349482238788"><ele>717.0</ele><time>2026-04-25T11:41:34.999Z</time></trkpt><trkpt lat="44.78934692277539" lon="7.208443373788679"><ele>717.0</ele><time>2026-04-25T11:41:35.999Z</time></trkpt><trkpt lat="44.78935990753153" lon="7.208555616833636"><ele>717.0</ele><time>2026-04-25T11:41:36.999Z</time></trkpt><trkpt lat="44.789424632173066" lon="7.2086595883846485"><ele>717.0</ele><time>2026-04-25T11:41:37.999Z</time></trkpt><trkpt lat="44.7895135546589" lon="7.208721551571044"><ele>717.0</ele><time>2026-04-25T11:41:38.999Z</time></trkpt><trkpt lat="44.78960646789875" lon="7.2087486540297485"><ele>717.0</ele><time>2026-04-25T11:41:39.999Z</time></trkpt><trkpt lat="44.78968628955495" lon="7.208795612571616"><ele>717.0</ele><time>2026-04-25T11:41:40.999Z</time></trkpt><trkpt lat="44.78973269101819" lon="7.208903281427786"><ele>717.0</ele><time>2026-04-25T11:41:41.999Z</time></trkpt><trkpt lat="44.789730702483155" lon="7.209031410388037"><ele>717.0</ele><time>2026-04-25T11:41:42.999Z</time></trkpt><trkpt lat="44.78965872105272" lon="7.209128204066909"><ele>717.0</ele><time>2026-04-25T11:41:43.999Z</time></trkpt><trkpt lat="44.78957468100531" lon="7.209231423061447"><ele>717.0</ele><time>2026-04-25T11:41:44.999Z</time></trkpt><trkpt lat="44.78950549766679" lon="7.209372494859818"><ele>708.75</ele><time>2026-04-25T11:41:45.999Z</time></trkpt><trkpt lat="44.78947143360429" lon="7.209556222753606"><ele>700.5</ele><time>2026-04-25T11:41:46.999Z</time></trkpt><trkpt lat="44.78945627228248" lon="7.209751698815325"><ele>692.25</ele><time>2026-04-25T11:41:47.999Z</time></trkpt><trkpt lat="44.789441476602086" lon="7.2099353094345915"><ele>684.0</ele><time>2026-04-25T11:41:48.999Z</time></trkpt><trkpt lat="44.789410911423886" lon="7.210101999461416"><ele>684.0</ele><time>2026-04-25T11:41:49.999Z</time></trkpt><trkpt lat="44.78939341192859" lon="7.210269756263841"><ele>684.0</ele><time>2026-04-25T11:41:50.999Z</time></trkpt><trkpt lat="44.78939756376295" lon="7.210441533204257"><ele>684.0</ele><time>2026-04-25T11:41:51.999Z</time></trkpt><trkpt lat="44.78942223617392" lon="7.210617132304491"><ele>684.0</ele><time>2026-04-25T11:41:52.998Z</time></trkpt><trkpt lat="44.78947000484958" lon="7.21077252781696"><ele>680.75</ele><time>2026-04-25T11:41:53.998Z</time></trkpt><trkpt lat="44.789545139040484" lon="7.210924934396408"><ele>677.5</ele><time>2026-04-25T11:41:54.998Z</time></trkpt><trkpt lat="44.78966011403965" lon="7.211067232061392"><ele>674.25</ele><time>2026-04-25T11:41:55.998Z</time></trkpt><trkpt lat="44.78977478888222" lon="7.211187725484627"><ele>671.0</ele><time>2026-04-25T11:41:56.998Z</time></trkpt><trkpt lat="44.78989305016143" lon="7.211276195999503"><ele>671.0</ele><time>2026-04-25T11:41:57.998Z</time></trkpt><trkpt lat="44.78999930981281" lon="7.211348328232995"><ele>671.0</ele><time>2026-04-25T11:41:58.998Z</time></trkpt><trkpt lat="44.79008879049919" lon="7.211390362257961"><ele>671.0</ele><time>2026-04-25T11:41:59.998Z</time></trkpt><trkpt lat="44.79018875092154" lon="7.211357639531802"><ele>671.0</ele><time>2026-04-25T11:42:00.998Z</time></trkpt><trkpt lat="44.790293620032365" lon="7.211274538086248"><ele>671.0</ele><time>2026-04-25T11:42:01.998Z</time></trkpt><trkpt lat="44.790383432301034" lon="7.21125592435892"><ele>673.25</ele><time>2026-04-25T11:42:02.998Z</time></trkpt><trkpt lat="44.79046605260179" lon="7.211359262766073"><ele>675.5</ele><time>2026-04-25T11:42:03.998Z</time></trkpt><trkpt lat="44.790581527132154" lon="7.211521095775167"><ele>677.75</ele><time>2026-04-25T11:42:04.998Z</time></trkpt><trkpt lat="44.79070188483129" lon="7.211652353913224"><ele>680.0</ele><time>2026-04-25T11:42:05.998Z</time></trkpt><trkpt lat="44.79083222061638" lon="7.2117441240346265"><ele>678.0</ele><time>2026-04-25T11:42:06.998Z</time></trkpt><trkpt lat="44.79096344862793" lon="7.2117925198326605"><ele>676.0</ele><time>2026-04-25T11:42:07.998Z</time></trkpt><trkpt lat="44.79109055284769" lon="7.211805714695731"><ele>674.0</ele><time>2026-04-25T11:42:08.998Z</time></trkpt><trkpt lat="44.79122646001194" lon="7.211831113639661"><ele>672.0</ele><time>2026-04-25T11:42:09.998Z</time></trkpt><trkpt lat="44.79135303367369" lon="7.211864471441867"><ele>672.0</ele><time>2026-04-25T11:42:10.998Z</time></trkpt><trkpt lat="44.79147266297762" lon="7.2119251117943"><ele>672.0</ele><time>2026-04-25T11:42:11.998Z</time></trkpt><trkpt lat="44.79159571880468" lon="7.211982038278565"><ele>672.0</ele><time>2026-04-25T11:42:12.998Z</time></trkpt><trkpt lat="44.79170197044146" lon="7.212079578661614"><ele>672.0</ele><time>2026-04-25T11:42:13.998Z</time></trkpt><trkpt lat="44.79180093930289" lon="7.212187210447446"><ele>674.0</ele><time>2026-04-25T11:42:15Z</time></trkpt><trkpt lat="44.79189026884228" lon="7.212309246122134"><ele>676.0</ele><time>2026-04-25T11:42:16Z</time></trkpt><trkpt lat="44.791978278837256" lon="7.212431405008878"><ele>678.0</ele><time>2026-04-25T11:42:17Z</time></trkpt><trkpt lat="44.792066540208346" lon="7.212566893743421"><ele>680.0</ele><time>2026-04-25T11:42:18Z</time></trkpt><trkpt lat="44.79214094443756" lon="7.2127286774458845"><ele>680.0</ele><time>2026-04-25T11:42:19Z</time></trkpt><trkpt lat="44.7922133911872" lon="7.212878566236183"><ele>680.0</ele><time>2026-04-25T11:42:20Z</time></trkpt><trkpt lat="44.792287612720564" lon="7.213031797221549"><ele>680.0</ele><time>2026-04-25T11:42:21Z</time></trkpt><trkpt lat="44.79235621070334" lon="7.2131780681720405"><ele>680.0</ele><time>2026-04-25T11:42:22Z</time></trkpt><trkpt lat="44.79237489866" lon="7.2133490878860025"><ele>669.25</ele><time>2026-04-25T11:42:23Z</time></trkpt><trkpt lat="44.79239065358622" lon="7.213517719581842"><ele>658.5</ele><time>2026-04-25T11:42:24Z</time></trkpt><trkpt lat="44.79243403599951" lon="7.2136962702131076"><ele>647.75</ele><time>2026-04-25T11:42:25Z</time></trkpt><trkpt lat="44.792487703148005" lon="7.213872171735701"><ele>637.0</ele><time>2026-04-25T11:42:26Z</time></trkpt><trkpt lat="44.79255230777515" lon="7.214028591102786"><ele>633.5</ele><time>2026-04-25T11:42:27Z</time></trkpt><trkpt lat="44.79262805799409" lon="7.214161300733023"><ele>630.0</ele><time>2026-04-25T11:42:28Z</time></trkpt><trkpt lat="44.79273100519753" lon="7.214257358429126"><ele>626.5</ele><time>2026-04-25T11:42:29Z</time></trkpt><trkpt lat="44.79282738735448" lon="7.214354799985199"><ele>623.0</ele><time>2026-04-25T11:42:30Z</time></trkpt><trkpt lat="44.79289333502927" lon="7.214497934201341"><ele>624.5</ele><time>2026-04-25T11:42:31Z</time></trkpt><trkpt lat="44.79293015367161" lon="7.21466484928107"><ele>626.0</ele><time>2026-04-25T11:42:32Z</time></trkpt><trkpt lat="44.792973332968344" lon="7.214842690326442"><ele>627.5</ele><time>2026-04-25T11:42:33Z</time></trkpt><trkpt lat="44.79302764869865" lon="7.215021626241917"><ele>629.0</ele><time>2026-04-25T11:42:34Z</time></trkpt><trkpt lat="44.79310140979166" lon="7.215181093544277"><ele>629.0</ele><time>2026-04-25T11:42:35Z</time></trkpt><trkpt lat="44.79318275353963" lon="7.215332912394359"><ele>629.0</ele><time>2026-04-25T11:42:36Z</time></trkpt><trkpt lat="44.793275589743835" lon="7.215483049350842"><ele>629.0</ele><time>2026-04-25T11:42:37Z</time></trkpt><trkpt lat="44.79337363874172" lon="7.215614784529467"><ele>629.0</ele><time>2026-04-25T11:42:38Z</time></trkpt><trkpt lat="44.793473244662785" lon="7.215741772162345"><ele>634.0</ele><time>2026-04-25T11:42:39Z</time></trkpt><trkpt lat="44.79357532631816" lon="7.215860459959355"><ele>639.0</ele><time>2026-04-25T11:42:40Z</time></trkpt><trkpt lat="44.79367790998982" lon="7.215990062137931"><ele>644.0</ele><time>2026-04-25T11:42:41Z</time></trkpt><trkpt lat="44.79377900689477" lon="7.216134075499739"><ele>649.0</ele><time>2026-04-25T11:42:42Z</time></trkpt><trkpt lat="44.79386359644635" lon="7.216280711223821"><ele>649.0</ele><time>2026-04-25T11:42:43Z</time></trkpt><trkpt lat="44.7939336270123" lon="7.21643718436562"><ele>649.0</ele><time>2026-04-25T11:42:44Z</time></trkpt><trkpt lat="44.79397166211469" lon="7.216617462665013"><ele>649.0</ele><time>2026-04-25T11:42:45Z</time></trkpt><trkpt lat="44.79398839954769" lon="7.216815738569978"><ele>649.0</ele><time>2026-04-25T11:42:46Z</time></trkpt><trkpt lat="44.79403593260981" lon="7.216999580555841"><ele>646.0</ele><time>2026-04-25T11:42:47Z</time></trkpt><trkpt lat="44.7941163895075" lon="7.217156847355507"><ele>643.0</ele><time>2026-04-25T11:42:48Z</time></trkpt><trkpt lat="44.794195818895574" lon="7.217306926180958"><ele>640.0</ele><time>2026-04-25T11:42:49Z</time></trkpt><trkpt lat="44.794285458042" lon="7.21747039610029"><ele>637.0</ele><time>2026-04-25T11:42:50Z</time></trkpt><trkpt lat="44.79437330887865" lon="7.217634651253762"><ele>637.0</ele><time>2026-04-25T11:42:51Z</time></trkpt><trkpt lat="44.794452386794255" lon="7.2177898418623645"><ele>637.0</ele><time>2026-04-25T11:42:52Z</time></trkpt><trkpt lat="44.7945348378664" lon="7.217942133413011"><ele>637.0</ele><time>2026-04-25T11:42:53Z</time></trkpt><trkpt lat="44.7946197683048" lon="7.2181066105514144"><ele>637.0</ele><time>2026-04-25T11:42:54Z</time></trkpt><trkpt lat="44.794712184124485" lon="7.218257521736979"><ele>630.25</ele><time>2026-04-25T11:42:55Z</time></trkpt><trkpt lat="44.79482334449754" lon="7.21839840130437"><ele>623.5</ele><time>2026-04-25T11:42:56Z</time></trkpt><trkpt lat="44.79493213589009" lon="7.218530533109459"><ele>616.75</ele><time>2026-04-25T11:42:57Z</time></trkpt><trkpt lat="44.79503397637879" lon="7.21866155614588"><ele>610.0</ele><time>2026-04-25T11:42:58Z</time></trkpt><trkpt lat="44.795134685786635" lon="7.218817225160637"><ele>614.25</ele><time>2026-04-25T11:42:59Z</time></trkpt><trkpt lat="44.79523460961094" lon="7.218979135270101"><ele>618.5</ele><time>2026-04-25T11:43:00Z</time></trkpt><trkpt lat="44.795328088358296" lon="7.219134473526713"><ele>622.75</ele><time>2026-04-25T11:43:01Z</time></trkpt><trkpt lat="44.79541997733343" lon="7.219300332752043"><ele>627.0</ele><time>2026-04-25T11:43:02Z</time></trkpt><trkpt lat="44.79550280114898" lon="7.2194574877069995"><ele>627.0</ele><time>2026-04-25T11:43:03Z</time></trkpt><trkpt lat="44.795583518632625" lon="7.21962002667987"><ele>627.0</ele><time>2026-04-25T11:43:04Z</time></trkpt><trkpt lat="44.79565725062597" lon="7.2197946126373225"><ele>627.0</ele><time>2026-04-25T11:43:05Z</time></trkpt><trkpt lat="44.79572945548829" lon="7.219981868956145"><ele>627.0</ele><time>2026-04-25T11:43:06Z</time></trkpt><trkpt lat="44.795800044967145" lon="7.220165146365254"><ele>624.6666666666666</ele><time>2026-04-25T11:43:07Z</time></trkpt><trkpt lat="44.79586945818658" lon="7.220349693762"><ele>622.3333333333333</ele><time>2026-04-25T11:43:08Z</time></trkpt><trkpt lat="44.79594345442298" lon="7.2205333225212955"><ele>620.0</ele><time>2026-04-25T11:43:09Z</time></trkpt><trkpt lat="44.79603098230518" lon="7.220728036548253"><ele>620.0</ele><time>2026-04-25T11:43:09.999Z</time></trkpt><trkpt lat="44.79614328753097" lon="7.220940825681157"><ele>620.0</ele><time>2026-04-25T11:43:10.999Z</time></trkpt><trkpt lat="44.79628364698399" lon="7.221174378726685"><ele>620.0</ele><time>2026-04-25T11:43:11.999Z</time></trkpt><trkpt lat="44.79643406454399" lon="7.221432879083402"><ele>610.0</ele><time>2026-04-25T11:43:12.999Z</time></trkpt><trkpt lat="44.79656457404955" lon="7.221660581854158"><ele>600.0</ele><time>2026-04-25T11:43:13.999Z</time></trkpt><trkpt lat="44.796688760354996" lon="7.221870146482815"><ele>590.0</ele><time>2026-04-25T11:43:14.999Z</time></trkpt><trkpt lat="44.796807406524536" lon="7.222070196418168"><ele>593.3333333333333</ele><time>2026-04-25T11:43:15.999Z</time></trkpt><trkpt lat="44.79692226960356" lon="7.222268111878706"><ele>596.6666666666666</ele><time>2026-04-25T11:43:16.999Z</time></trkpt><trkpt lat="44.79703397401999" lon="7.222452248260373"><ele>600.0</ele><time>2026-04-25T11:43:17.999Z</time></trkpt><trkpt lat="44.79713567933056" lon="7.222620517754276"><ele>600.0</ele><time>2026-04-25T11:43:18.999Z</time></trkpt><trkpt lat="44.79724548251463" lon="7.222769898021708"><ele>600.0</ele><time>2026-04-25T11:43:19.999Z</time></trkpt><trkpt lat="44.79736918048811" lon="7.222902792246396"><ele>600.0</ele><time>2026-04-25T11:43:20.999Z</time></trkpt><trkpt lat="44.79748396856677" lon="7.223025995589894"><ele>600.0</ele><time>2026-04-25T11:43:21.999Z</time></trkpt><trkpt lat="44.797595865098415" lon="7.223139228031077"><ele>600.0</ele><time>2026-04-25T11:43:22.999Z</time></trkpt><trkpt lat="44.79771335569495" lon="7.223230737353812"><ele>600.0</ele><time>2026-04-25T11:43:23.999Z</time></trkpt><trkpt lat="44.797839857786116" lon="7.22328383474001"><ele>600.0</ele><time>2026-04-25T11:43:24.999Z</time></trkpt><trkpt lat="44.79797709361215" lon="7.223314561364019"><ele>600.5</ele><time>2026-04-25T11:43:25.999Z</time></trkpt><trkpt lat="44.798120626055756" lon="7.2233189949764585"><ele>601.0</ele><time>2026-04-25T11:43:26.999Z</time></trkpt><trkpt lat="44.798259749557815" lon="7.223328559381058"><ele>601.5</ele><time>2026-04-25T11:43:27.999Z</time></trkpt><trkpt lat="44.7983944103553" lon="7.223380302228539"><ele>602.0</ele><time>2026-04-25T11:43:28.999Z</time></trkpt><trkpt lat="44.79852580017597" lon="7.223471183247171"><ele>602.0</ele><time>2026-04-25T11:43:29.999Z</time></trkpt><trkpt lat="44.798643868354375" lon="7.223594240417743"><ele>602.0</ele><time>2026-04-25T11:43:30.999Z</time></trkpt><trkpt lat="44.798764663610186" lon="7.223712497840518"><ele>602.0</ele><time>2026-04-25T11:43:31.999Z</time></trkpt><trkpt lat="44.79887640959835" lon="7.223836230159749"><ele>602.0</ele><time>2026-04-25T11:43:32.999Z</time></trkpt><trkpt lat="44.79899015947462" lon="7.223956821677431"><ele>597.0</ele><time>2026-04-25T11:43:33.999Z</time></trkpt><trkpt lat="44.799105487460004" lon="7.224073506975704"><ele>592.0</ele><time>2026-04-25T11:43:34.999Z</time></trkpt><trkpt lat="44.79922696571798" lon="7.224188580550369"><ele>587.0</ele><time>2026-04-25T11:43:35.999Z</time></trkpt><trkpt lat="44.79936029618777" lon="7.224314773651611"><ele>582.0</ele><time>2026-04-25T11:43:36.999Z</time></trkpt><trkpt lat="44.799490859185624" lon="7.224437906619419"><ele>582.0</ele><time>2026-04-25T11:43:37.999Z</time></trkpt><trkpt lat="44.79961938219989" lon="7.224560486284064"><ele>582.0</ele><time>2026-04-25T11:43:38.999Z</time></trkpt><trkpt lat="44.799748898120825" lon="7.224688809729261"><ele>582.0</ele><time>2026-04-25T11:43:39.999Z</time></trkpt><trkpt lat="44.799871419528" lon="7.224815869905619"><ele>582.0</ele><time>2026-04-25T11:43:40.999Z</time></trkpt><trkpt lat="44.79998747090387" lon="7.224945337604139"><ele>582.0</ele><time>2026-04-25T11:43:41.999Z</time></trkpt><trkpt lat="44.80010189635357" lon="7.225087198064985"><ele>582.0</ele><time>2026-04-25T11:43:42.999Z</time></trkpt><trkpt lat="44.800202966570815" lon="7.22523466306788"><ele>582.0</ele><time>2026-04-25T11:43:43.999Z</time></trkpt><trkpt lat="44.80028643766337" lon="7.225397861657156"><ele>582.0</ele><time>2026-04-25T11:43:44.999Z</time></trkpt><trkpt lat="44.8003655984265" lon="7.225566816563945"><ele>582.0</ele><time>2026-04-25T11:43:45.999Z</time></trkpt><trkpt lat="44.80044640228394" lon="7.225745087979137"><ele>582.0</ele><time>2026-04-25T11:43:46.999Z</time></trkpt><trkpt lat="44.80052125852749" lon="7.225924284385523"><ele>582.0</ele><time>2026-04-25T11:43:47.999Z</time></trkpt><trkpt lat="44.80059409745194" lon="7.226106210665884"><ele>577.75</ele><time>2026-04-25T11:43:48.999Z</time></trkpt><trkpt lat="44.8006640643857" lon="7.226284283075532"><ele>573.5</ele><time>2026-04-25T11:43:49.999Z</time></trkpt><trkpt lat="44.80073942684687" lon="7.226461674963051"><ele>569.25</ele><time>2026-04-25T11:43:50.999Z</time></trkpt><trkpt lat="44.8008152697374" lon="7.226628695128603"><ele>565.0</ele><time>2026-04-25T11:43:51.999Z</time></trkpt><trkpt lat="44.800895667322195" lon="7.226802480962753"><ele>564.75</ele><time>2026-04-25T11:43:52.999Z</time></trkpt><trkpt lat="44.80094991397503" lon="7.226978666041453"><ele>564.5</ele><time>2026-04-25T11:43:53.999Z</time></trkpt><trkpt lat="44.800975383789385" lon="7.227176048641669"><ele>564.25</ele><time>2026-04-25T11:43:54.999Z</time></trkpt><trkpt lat="44.80099062290955" lon="7.22739669128867"><ele>564.0</ele><time>2026-04-25T11:43:55.999Z</time></trkpt><trkpt lat="44.80101262049227" lon="7.227600895951489"><ele>564.0</ele><time>2026-04-25T11:43:56.998Z</time></trkpt><trkpt lat="44.801057309010396" lon="7.227784622214753"><ele>564.0</ele><time>2026-04-25T11:43:57.998Z</time></trkpt><trkpt lat="44.80114065736217" lon="7.227953576380723"><ele>564.0</ele><time>2026-04-25T11:43:58.998Z</time></trkpt><trkpt lat="44.80125555460736" lon="7.228107216584366"><ele>564.0</ele><time>2026-04-25T11:43:59.998Z</time></trkpt><trkpt lat="44.80136502660249" lon="7.228243048116549"><ele>564.0</ele><time>2026-04-25T11:44:00.998Z</time></trkpt><trkpt lat="44.801458483481554" lon="7.228409952124465"><ele>564.0</ele><time>2026-04-25T11:44:01.998Z</time></trkpt><trkpt lat="44.80152623699511" lon="7.228615305380769"><ele>564.0</ele><time>2026-04-25T11:44:02.998Z</time></trkpt><trkpt lat="44.801559326988325" lon="7.228830224023864"><ele>562.3333333333334</ele><time>2026-04-25T11:44:03.998Z</time></trkpt><trkpt lat="44.80159230188343" lon="7.2290574728107835"><ele>560.6666666666667</ele><time>2026-04-25T11:44:04.998Z</time></trkpt><trkpt lat="44.801636976203454" lon="7.229270077982446"><ele>559.0</ele><time>2026-04-25T11:44:05.998Z</time></trkpt><trkpt lat="44.80168712046911" lon="7.229466502206985"><ele>559.0</ele><time>2026-04-25T11:44:06.998Z</time></trkpt><trkpt lat="44.80175152658677" lon="7.229666942520247"><ele>559.0</ele><time>2026-04-25T11:44:07.998Z</time></trkpt><trkpt lat="44.80181904929526" lon="7.229845867229615"><ele>559.0</ele><time>2026-04-25T11:44:08.998Z</time></trkpt><trkpt lat="44.80189345317969" lon="7.230011285577233"><ele>559.0</ele><time>2026-04-25T11:44:09.998Z</time></trkpt><trkpt lat="44.80197743019686" lon="7.230180474437268"><ele>555.75</ele><time>2026-04-25T11:44:10.998Z</time></trkpt><trkpt lat="44.80206574703006" lon="7.230335805833416"><ele>552.5</ele><time>2026-04-25T11:44:11.998Z</time></trkpt><trkpt lat="44.802165614763545" lon="7.230470751949724"><ele>549.25</ele><time>2026-04-25T11:44:12.998Z</time></trkpt><trkpt lat="44.80227529139031" lon="7.230596111159998"><ele>546.0</ele><time>2026-04-25T11:44:13.998Z</time></trkpt><trkpt lat="44.80237622065805" lon="7.230735663058069"><ele>546.0</ele><time>2026-04-25T11:44:14.998Z</time></trkpt><trkpt lat="44.80246132575267" lon="7.230896088159855"><ele>546.0</ele><time>2026-04-25T11:44:15.998Z</time></trkpt><trkpt lat="44.8025408697009" lon="7.231070934294489"><ele>546.0</ele><time>2026-04-25T11:44:16.998Z</time></trkpt><trkpt lat="44.80261761583306" lon="7.231252382824895"><ele>546.0</ele><time>2026-04-25T11:44:17.998Z</time></trkpt><trkpt lat="44.802698117963025" lon="7.231440618735402"><ele>545.5</ele><time>2026-04-25T11:44:18.998Z</time></trkpt><trkpt lat="44.802774613480054" lon="7.2316150706415945"><ele>545.0</ele><time>2026-04-25T11:44:20Z</time></trkpt><trkpt lat="44.802851308463694" lon="7.23179322237771"><ele>544.5</ele><time>2026-04-25T11:44:21Z</time></trkpt><trkpt lat="44.8029317479598" lon="7.231978085782047"><ele>544.0</ele><time>2026-04-25T11:44:22Z</time></trkpt><trkpt lat="44.803013806144854" lon="7.232164191946055"><ele>542.6666666666667</ele><time>2026-04-25T11:44:23Z</time></trkpt><trkpt lat="44.80309825453579" lon="7.23234575583768"><ele>541.3333333333334</ele><time>2026-04-25T11:44:24Z</time></trkpt><trkpt lat="44.803182241554914" lon="7.232523753686285"><ele>540.0</ele><time>2026-04-25T11:44:25Z</time></trkpt><trkpt lat="44.80327149743607" lon="7.23270713254457"><ele>540.0</ele><time>2026-04-25T11:44:26Z</time></trkpt><trkpt lat="44.80334965903404" lon="7.232892479364119"><ele>540.0</ele><time>2026-04-25T11:44:27Z</time></trkpt><trkpt lat="44.80341544606966" lon="7.2331026733525725"><ele>540.0</ele><time>2026-04-25T11:44:28Z</time></trkpt><trkpt lat="44.803471183498736" lon="7.2333232595876815"><ele>547.0</ele><time>2026-04-25T11:44:29Z</time></trkpt><trkpt lat="44.80352618452089" lon="7.233545676095806"><ele>554.0</ele><time>2026-04-25T11:44:30Z</time></trkpt><trkpt lat="44.80356926721506" lon="7.233763929575275"><ele>561.0</ele><time>2026-04-25T11:44:31Z</time></trkpt><trkpt lat="44.80360639048736" lon="7.233987714951097"><ele>561.0</ele><time>2026-04-25T11:44:32Z</time></trkpt><trkpt lat="44.803638608385576" lon="7.234209514779226"><ele>561.0</ele><time>2026-04-25T11:44:33Z</time></trkpt><trkpt lat="44.80367069771637" lon="7.234440803025261"><ele>561.0</ele><time>2026-04-25T11:44:34Z</time></trkpt><trkpt lat="44.80369779718879" lon="7.234648975982758"><ele>557.6666666666666</ele><time>2026-04-25T11:44:35Z</time></trkpt><trkpt lat="44.80372215664656" lon="7.23486508909379"><ele>554.3333333333333</ele><time>2026-04-25T11:44:36Z</time></trkpt><trkpt lat="44.803726637640025" lon="7.235082945817334"><ele>551.0</ele><time>2026-04-25T11:44:37Z</time></trkpt><trkpt lat="44.80372978881534" lon="7.2353205466479995"><ele>551.0</ele><time>2026-04-25T11:44:38Z</time></trkpt><trkpt lat="44.80372914212161" lon="7.235550724707873"><ele>551.0</ele><time>2026-04-25T11:44:39Z</time></trkpt><trkpt lat="44.803731851575584" lon="7.235773005551052"><ele>551.0</ele><time>2026-04-25T11:44:40Z</time></trkpt><trkpt lat="44.80373203650703" lon="7.236000307261359"><ele>547.0</ele><time>2026-04-25T11:44:41Z</time></trkpt><trkpt lat="44.80373304836408" lon="7.236235354478947"><ele>543.0</ele><time>2026-04-25T11:44:42Z</time></trkpt><trkpt lat="44.803733164589076" lon="7.236449609016498"><ele>539.0</ele><time>2026-04-25T11:44:43Z</time></trkpt><trkpt lat="44.80372730415443" lon="7.2366627368956635"><ele>535.6666666666666</ele><time>2026-04-25T11:44:44Z</time></trkpt><trkpt lat="44.80370567589428" lon="7.236878608986413"><ele>532.3333333333334</ele><time>2026-04-25T11:44:45Z</time></trkpt><trkpt lat="44.80367717753514" lon="7.237090366868251"><ele>529.0</ele><time>2026-04-25T11:44:46Z</time></trkpt><trkpt lat="44.803646719822304" lon="7.237314218959968"><ele>529.0</ele><time>2026-04-25T11:44:47Z</time></trkpt><trkpt lat="44.803627258880844" lon="7.237548459527886"><ele>529.0</ele><time>2026-04-25T11:44:48Z</time></trkpt><trkpt lat="44.80360978531968" lon="7.237769601184757"><ele>529.0</ele><time>2026-04-25T11:44:49Z</time></trkpt><trkpt lat="44.803592758825225" lon="7.238006014364522"><ele>528.3333333333334</ele><time>2026-04-25T11:44:50Z</time></trkpt><trkpt lat="44.80357791050625" lon="7.238219566849794"><ele>527.6666666666666</ele><time>2026-04-25T11:44:51Z</time></trkpt><trkpt lat="44.80356654029336" lon="7.238443146148394"><ele>527.0</ele><time>2026-04-25T11:44:52Z</time></trkpt><trkpt lat="44.8035687348153" lon="7.238664484178213"><ele>527.0</ele><time>2026-04-25T11:44:53Z</time></trkpt><trkpt lat="44.80359262379605" lon="7.238869994159463"><ele>527.0</ele><time>2026-04-25T11:44:54Z</time></trkpt><trkpt lat="44.80364269816722" lon="7.239079559110095"><ele>527.0</ele><time>2026-04-25T11:44:55Z</time></trkpt><trkpt lat="44.803712231736135" lon="7.239281379666713"><ele>525.3333333333333</ele><time>2026-04-25T11:44:56Z</time></trkpt><trkpt lat="44.803794280901826" lon="7.239467045091229"><ele>523.6666666666666</ele><time>2026-04-25T11:44:57Z</time></trkpt><trkpt lat="44.80389049600217" lon="7.23964922293136"><ele>522.0</ele><time>2026-04-25T11:44:58Z</time></trkpt><trkpt lat="44.803996166398875" lon="7.2398164004221535"><ele>519.3333333333334</ele><time>2026-04-25T11:44:59Z</time></trkpt><trkpt lat="44.80411373343465" lon="7.239982347080353"><ele>516.6666666666667</ele><time>2026-04-25T11:45:00Z</time></trkpt><trkpt lat="44.8042302345596" lon="7.240144518182964"><ele>514.0</ele><time>2026-04-25T11:45:01Z</time></trkpt><trkpt lat="44.80432907326898" lon="7.240312472790273"><ele>523.6666666666667</ele><time>2026-04-25T11:45:02Z</time></trkpt><trkpt lat="44.80440783177291" lon="7.2405160119820575"><ele>533.3333333333334</ele><time>2026-04-25T11:45:03Z</time></trkpt><trkpt lat="44.804459027435676" lon="7.2407185058969254"><ele>543.0</ele><time>2026-04-25T11:45:04Z</time></trkpt><trkpt lat="44.80450732594982" lon="7.240932222151628"><ele>543.0</ele><time>2026-04-25T11:45:05Z</time></trkpt><trkpt lat="44.80457699977689" lon="7.241126902045032"><ele>543.0</ele><time>2026-04-25T11:45:06Z</time></trkpt><trkpt lat="44.80466352354851" lon="7.241305425506466"><ele>543.0</ele><time>2026-04-25T11:45:07Z</time></trkpt><trkpt lat="44.804760969996366" lon="7.241486582872243"><ele>538.75</ele><time>2026-04-25T11:45:08Z</time></trkpt><trkpt lat="44.80484051213075" lon="7.241665567418936"><ele>534.5</ele><time>2026-04-25T11:45:09Z</time></trkpt><trkpt lat="44.80490725114871" lon="7.241861612968056"><ele>530.25</ele><time>2026-04-25T11:45:10Z</time></trkpt><trkpt lat="44.80495948668803" lon="7.242042557639788"><ele>526.0</ele><time>2026-04-25T11:45:11Z</time></trkpt><trkpt lat="44.80500240798972" lon="7.242224541522844"><ele>523.0</ele><time>2026-04-25T11:45:11.999Z</time></trkpt><trkpt lat="44.80504196899016" lon="7.242377353625598"><ele>520.0</ele><time>2026-04-25T11:45:12.999Z</time></trkpt><trkpt lat="44.80507065857012" lon="7.2424900469458615"><ele>517.0</ele><time>2026-04-25T11:45:13.999Z</time></trkpt><trkpt lat="44.80508164098312" lon="7.242597718156933"><ele>514.0</ele><time>2026-04-25T11:45:14.999Z</time></trkpt><trkpt lat="44.80507004057593" lon="7.242701314357925"><ele>511.00000000000006</ele><time>2026-04-25T11:45:15.999Z</time></trkpt><trkpt lat="44.80503790158982" lon="7.242784070804837"><ele>508.0</ele><time>2026-04-25T11:45:16.999Z</time></trkpt><trkpt lat="44.80502669409449" lon="7.2429021768468065"><ele>508.0</ele><time>2026-04-25T11:45:18.999Z</time></trkpt><trkpt lat="44.805118554346315" lon="7.242965273670286"><ele>507.99999999999994</ele><time>2026-04-25T11:45:20.999Z</time></trkpt><trkpt lat="44.8051975043073" lon="7.242893170593655"><ele>507.99999999999994</ele><time>2026-04-25T11:45:22.999Z</time></trkpt><trkpt lat="44.80526852711171" lon="7.242854740394828"><ele>508.0</ele><time>2026-04-25T11:45:24.999Z</time></trkpt><trkpt lat="44.80535953786109" lon="7.242950166731014"><ele>508.0</ele><time>2026-04-25T11:45:26.999Z</time></trkpt><trkpt lat="44.80542360761987" lon="7.243010467511868"><ele>507.79999999999995</ele><time>2026-04-25T11:45:27.999Z</time></trkpt><trkpt lat="44.8055023153304" lon="7.2430622046099"><ele>507.59999999999997</ele><time>2026-04-25T11:45:28.999Z</time></trkpt><trkpt lat="44.805602184358015" lon="7.243107488249664"><ele>507.40000000000003</ele><time>2026-04-25T11:45:29.999Z</time></trkpt><trkpt lat="44.805701047071366" lon="7.243132555487997"><ele>507.20000000000005</ele><time>2026-04-25T11:45:30.999Z</time></trkpt><trkpt lat="44.805810189770966" lon="7.243146500685392"><ele>507.0</ele><time>2026-04-25T11:45:31.999Z</time></trkpt><trkpt lat="44.80591111317251" lon="7.24315859885159"><ele>507.0</ele><time>2026-04-25T11:45:32.999Z</time></trkpt><trkpt lat="44.80600737774703" lon="7.243175543075322"><ele>507.00000000000006</ele><time>2026-04-25T11:45:33.999Z</time></trkpt><trkpt lat="44.80610036752502" lon="7.243179928365864"><ele>507.00000000000006</ele><time>2026-04-25T11:45:34.999Z</time></trkpt><trkpt lat="44.80620337416211" lon="7.243152258330827"><ele>507.0</ele><time>2026-04-25T11:45:35.999Z</time></trkpt><trkpt lat="44.80630639028212" lon="7.24310028760286"><ele>507.0</ele><time>2026-04-25T11:45:36.999Z</time></trkpt><trkpt lat="44.80640208367128" lon="7.243035757709941"><ele>507.0</ele><time>2026-04-25T11:45:37.999Z</time></trkpt><trkpt lat="44.806508783298185" lon="7.242962228960998"><ele>507.00000000000006</ele><time>2026-04-25T11:45:38.999Z</time></trkpt><trkpt lat="44.80660785854665" lon="7.242898326400398"><ele>507.00000000000006</ele><time>2026-04-25T11:45:39.999Z</time></trkpt><trkpt lat="44.80670261491373" lon="7.242836008455874"><ele>507.0</ele><time>2026-04-25T11:45:40.999Z</time></trkpt><trkpt lat="44.80680197471361" lon="7.242789426778316"><ele>507.0</ele><time>2026-04-25T11:45:41.999Z</time></trkpt><trkpt lat="44.806908641434475" lon="7.242768958002814"><ele>505.5</ele><time>2026-04-25T11:45:42.999Z</time></trkpt><trkpt lat="44.80703512716194" lon="7.242773861220169"><ele>504.0</ele><time>2026-04-25T11:45:43.999Z</time></trkpt><trkpt lat="44.80717228139905" lon="7.242784233617826"><ele>502.5</ele><time>2026-04-25T11:45:44.999Z</time></trkpt><trkpt lat="44.807298967906675" lon="7.242793272614682"><ele>501.0</ele><time>2026-04-25T11:45:45.999Z</time></trkpt><trkpt lat="44.807421732791575" lon="7.242801509554425"><ele>501.0</ele><time>2026-04-25T11:45:46.999Z</time></trkpt><trkpt lat="44.80755223279462" lon="7.242810178158553"><ele>501.0</ele><time>2026-04-25T11:45:47.999Z</time></trkpt><trkpt lat="44.80768487103653" lon="7.242813394975405"><ele>501.0</ele><time>2026-04-25T11:45:48.999Z</time></trkpt><trkpt lat="44.807818794925" lon="7.24281841822399"><ele>501.0</ele><time>2026-04-25T11:45:49.999Z</time></trkpt><trkpt lat="44.80794647483494" lon="7.242820718820137"><ele>500.0</ele><time>2026-04-25T11:45:50.999Z</time></trkpt><trkpt lat="44.80806886895012" lon="7.242826808097"><ele>499.0</ele><time>2026-04-25T11:45:51.999Z</time></trkpt><trkpt lat="44.80818456721168" lon="7.242838928552911"><ele>498.0</ele><time>2026-04-25T11:45:52.999Z</time></trkpt><trkpt lat="44.80829236003871" lon="7.242857442774332"><ele>497.0</ele><time>2026-04-25T11:45:53.999Z</time></trkpt><trkpt lat="44.808397483838036" lon="7.242893415524275"><ele>496.16666666666663</ele><time>2026-04-25T11:45:54.999Z</time></trkpt><trkpt lat="44.808494433082096" lon="7.24294947155686"><ele>495.3333333333333</ele><time>2026-04-25T11:45:55.999Z</time></trkpt><trkpt lat="44.80856907796669" lon="7.243029722565823"><ele>494.5</ele><time>2026-04-25T11:45:56.999Z</time></trkpt><trkpt lat="44.80860810994239" lon="7.243140797803539"><ele>493.66666666666663</ele><time>2026-04-25T11:45:57.999Z</time></trkpt><trkpt lat="44.808641161295355" lon="7.243238521901248"><ele>492.8333333333333</ele><time>2026-04-25T11:45:58.999Z</time></trkpt><trkpt lat="44.80870973446299" lon="7.2432714878999995"><ele>492.0</ele><time>2026-04-25T11:45:59.998Z</time></trkpt><trkpt lat="44.80877827132821" lon="7.243265106673105"><ele>492.0</ele><time>2026-04-25T11:46:00.998Z</time></trkpt><trkpt lat="44.80888421960187" lon="7.243284541566527"><ele>492.00000000000006</ele><time>2026-04-25T11:46:02.998Z</time></trkpt><trkpt lat="44.80898652350181" lon="7.243329212675244"><ele>492.00000000000006</ele><time>2026-04-25T11:46:04.998Z</time></trkpt><trkpt lat="44.80908129543719" lon="7.243349638591947"><ele>492.0</ele><time>2026-04-25T11:46:06.998Z</time></trkpt><trkpt lat="44.80914978300076" lon="7.243348284033973"><ele>492.0</ele><time>2026-04-25T11:46:09.998Z</time></trkpt><trkpt lat="44.80926014990955" lon="7.243336040601025"><ele>489.8</ele><time>2026-04-25T11:46:19.998Z</time></trkpt><trkpt lat="44.80937649576141" lon="7.243329064017035"><ele>487.6</ele><time>2026-04-25T11:46:20.998Z</time></trkpt><trkpt lat="44.80948681649382" lon="7.2433309693411125"><ele>485.40000000000003</ele><time>2026-04-25T11:46:21.998Z</time></trkpt><trkpt lat="44.809577401364606" lon="7.243226565771246"><ele>483.20000000000005</ele><time>2026-04-25T11:46:23.998Z</time></trkpt><trkpt lat="44.80961502817058" lon="7.24310187811839"><ele>481.0</ele><time>2026-04-25T11:46:24.998Z</time></trkpt><trkpt lat="44.809660035553584" lon="7.242956392031053"><ele>480.8</ele><time>2026-04-25T11:46:26Z</time></trkpt><trkpt lat="44.80969743485348" lon="7.242806170473078"><ele>480.6</ele><time>2026-04-25T11:46:27Z</time></trkpt><trkpt lat="44.80972590368819" lon="7.242652297484723"><ele>480.4</ele><time>2026-04-25T11:46:28Z</time></trkpt><trkpt lat="44.80975526494917" lon="7.2425106700351085"><ele>480.2</ele><time>2026-04-25T11:46:29Z</time></trkpt><trkpt lat="44.80980603765226" lon="7.242374714660013"><ele>480.0</ele><time>2026-04-25T11:46:30Z</time></trkpt><trkpt lat="44.809842981109206" lon="7.242227946073145"><ele>480.8</ele><time>2026-04-25T11:46:31Z</time></trkpt><trkpt lat="44.80987910136063" lon="7.242083004259874"><ele>481.6</ele><time>2026-04-25T11:46:32Z</time></trkpt><trkpt lat="44.809913737444305" lon="7.241942859661101"><ele>482.4</ele><time>2026-04-25T11:46:33Z</time></trkpt><trkpt lat="44.80993558397006" lon="7.241802961590114"><ele>483.2</ele><time>2026-04-25T11:46:34Z</time></trkpt><trkpt lat="44.80999085040963" lon="7.241705747563054"><ele>484.0</ele><time>2026-04-25T11:46:35Z</time></trkpt><trkpt lat="44.81005832520839" lon="7.241673543859141"><ele>484.0</ele><time>2026-04-25T11:46:36Z</time></trkpt><trkpt lat="44.8101317252324" lon="7.241694031661324"><ele>484.0</ele><time>2026-04-25T11:46:37Z</time></trkpt><trkpt lat="44.81021151457795" lon="7.241789790364235"><ele>484.0</ele><time>2026-04-25T11:46:38Z</time></trkpt><trkpt lat="44.810201263652154" lon="7.2419677677340495"><ele>484.0</ele><time>2026-04-25T11:46:39Z</time></trkpt><trkpt lat="44.81021859990081" lon="7.242127657472355"><ele>484.0</ele><time>2026-04-25T11:46:40Z</time></trkpt><trkpt lat="44.810228747774836" lon="7.242320132130418"><ele>480.25</ele><time>2026-04-25T11:46:41Z</time></trkpt><trkpt lat="44.81024683483427" lon="7.242507390410514"><ele>476.5</ele><time>2026-04-25T11:46:42Z</time></trkpt><trkpt lat="44.81027124369729" lon="7.242706836703391"><ele>472.75</ele><time>2026-04-25T11:46:43Z</time></trkpt><trkpt lat="44.81028911867978" lon="7.242904304497619"><ele>469.0</ele><time>2026-04-25T11:46:44Z</time></trkpt><trkpt lat="44.81029383928207" lon="7.243096386174185"><ele>469.0</ele><time>2026-04-25T11:46:45Z</time></trkpt><trkpt lat="44.81029899722137" lon="7.243275274931516"><ele>469.0</ele><time>2026-04-25T11:46:46Z</time></trkpt><trkpt lat="44.81031816418212" lon="7.243446072524792"><ele>469.0</ele><time>2026-04-25T11:46:47Z</time></trkpt><trkpt lat="44.81037623360025" lon="7.243605167398973"><ele>469.0</ele><time>2026-04-25T11:46:48Z</time></trkpt><trkpt lat="44.81047626797557" lon="7.24373099397794"><ele>469.0</ele><time>2026-04-25T11:46:49Z</time></trkpt><trkpt lat="44.81061310047866" lon="7.243820157059927"><ele>469.0</ele><time>2026-04-25T11:46:50Z</time></trkpt><trkpt lat="44.810771275769234" lon="7.2438871296091305"><ele>469.0</ele><time>2026-04-25T11:46:51Z</time></trkpt><trkpt lat="44.81094335129911" lon="7.243944064334326"><ele>469.0</ele><time>2026-04-25T11:46:52Z</time></trkpt><trkpt lat="44.81109751464844" lon="7.244003507246161"><ele>469.0</ele><time>2026-04-25T11:46:53Z</time></trkpt><trkpt lat="44.81123770304342" lon="7.24406149135688"><ele>469.0</ele><time>2026-04-25T11:46:54Z</time></trkpt><trkpt lat="44.81138397526821" lon="7.244120643644529"><ele>469.0</ele><time>2026-04-25T11:46:55Z</time></trkpt><trkpt lat="44.81155604032543" lon="7.244190599967711"><ele>469.0</ele><time>2026-04-25T11:46:56Z</time></trkpt><trkpt lat="44.81171350762675" lon="7.244258413462509"><ele>469.0</ele><time>2026-04-25T11:46:57Z</time></trkpt><trkpt lat="44.81184514001721" lon="7.24431557419007"><ele>469.4</ele><time>2026-04-25T11:46:58Z</time></trkpt><trkpt lat="44.811960177303234" lon="7.244361110795859"><ele>469.79999999999995</ele><time>2026-04-25T11:46:59Z</time></trkpt><trkpt lat="44.81206922515781" lon="7.24440991762522"><ele>470.20000000000005</ele><time>2026-04-25T11:47:00Z</time></trkpt><trkpt lat="44.812167006509576" lon="7.244453921703312"><ele>470.6</ele><time>2026-04-25T11:47:01Z</time></trkpt><trkpt lat="44.81225417045973" lon="7.244494018112208"><ele>471.0</ele><time>2026-04-25T11:47:02Z</time></trkpt><trkpt lat="44.81233985298077" lon="7.244527571943298"><ele>471.0</ele><time>2026-04-25T11:47:03Z</time></trkpt><trkpt lat="44.812418723467864" lon="7.244566407867759"><ele>471.0</ele><time>2026-04-25T11:47:04Z</time></trkpt><trkpt lat="44.81250349953661" lon="7.244608044075931"><ele>471.0</ele><time>2026-04-25T11:47:05Z</time></trkpt><trkpt lat="44.812598924154415" lon="7.244647772432964"><ele>471.0</ele><time>2026-04-25T11:47:06Z</time></trkpt><trkpt lat="44.81269725836591" lon="7.244691965076983"><ele>471.0</ele><time>2026-04-25T11:47:07Z</time></trkpt><trkpt lat="44.81278785603086" lon="7.244738473512281"><ele>471.6</ele><time>2026-04-25T11:47:08Z</time></trkpt><trkpt lat="44.81288562922808" lon="7.244786532842809"><ele>472.20000000000005</ele><time>2026-04-25T11:47:09Z</time></trkpt><trkpt lat="44.812984458151995" lon="7.24483116851478"><ele>472.79999999999995</ele><time>2026-04-25T11:47:10Z</time></trkpt><trkpt lat="44.81308974134188" lon="7.244874260422722"><ele>473.4</ele><time>2026-04-25T11:47:11Z</time></trkpt><trkpt lat="44.81318869953413" lon="7.244915071320094"><ele>474.0</ele><time>2026-04-25T11:47:12Z</time></trkpt><trkpt lat="44.81328667129707" lon="7.2449536627060676"><ele>474.2</ele><time>2026-04-25T11:47:13Z</time></trkpt><trkpt lat="44.81338341586332" lon="7.24499649079964"><ele>474.4</ele><time>2026-04-25T11:47:14Z</time></trkpt><trkpt lat="44.81347903783394" lon="7.245039143576214"><ele>474.6</ele><time>2026-04-25T11:47:15Z</time></trkpt><trkpt lat="44.813563053515615" lon="7.245083789863004"><ele>474.8</ele><time>2026-04-25T11:47:15.999Z</time></trkpt><trkpt lat="44.81362823662253" lon="7.245144924319613"><ele>475.0</ele><time>2026-04-25T11:47:16.999Z</time></trkpt><trkpt lat="44.81367717237316" lon="7.245235135849587"><ele>475.5</ele><time>2026-04-25T11:47:17.999Z</time></trkpt><trkpt lat="44.8137059650493" lon="7.245368167546951"><ele>476.0</ele><time>2026-04-25T11:47:18.999Z</time></trkpt><trkpt lat="44.81371883031347" lon="7.245524268708557"><ele>476.5</ele><time>2026-04-25T11:47:19.999Z</time></trkpt><trkpt lat="44.81370050398529" lon="7.245702701280228"><ele>477.0</ele><time>2026-04-25T11:47:20.999Z</time></trkpt><trkpt lat="44.813677888087156" lon="7.245884175713911"><ele>477.0</ele><time>2026-04-25T11:47:21.999Z</time></trkpt><trkpt lat="44.81365807347331" lon="7.2460722551803505"><ele>477.0</ele><time>2026-04-25T11:47:22.999Z</time></trkpt><trkpt lat="44.81363967964401" lon="7.246262978699517"><ele>477.0</ele><time>2026-04-25T11:47:23.999Z</time></trkpt><trkpt lat="44.813622139702495" lon="7.246438324932138"><ele>477.0</ele><time>2026-04-25T11:47:24.999Z</time></trkpt><trkpt lat="44.813602892994155" lon="7.246603614694885"><ele>477.0</ele><time>2026-04-25T11:47:25.999Z</time></trkpt><trkpt lat="44.813588602906975" lon="7.246767612835954"><ele>477.0</ele><time>2026-04-25T11:47:26.999Z</time></trkpt><trkpt lat="44.813571824882104" lon="7.246935198341545"><ele>477.0</ele><time>2026-04-25T11:47:27.999Z</time></trkpt><trkpt lat="44.81355152920562" lon="7.247117007249676"><ele>477.0</ele><time>2026-04-25T11:47:28.999Z</time></trkpt><trkpt lat="44.81353245828561" lon="7.247307406349364"><ele>476.75</ele><time>2026-04-25T11:47:29.999Z</time></trkpt><trkpt lat="44.8135164187602" lon="7.247483160229571"><ele>476.5</ele><time>2026-04-25T11:47:30.999Z</time></trkpt><trkpt lat="44.813500786524074" lon="7.247646885016765"><ele>476.25</ele><time>2026-04-25T11:47:31.999Z</time></trkpt><trkpt lat="44.81348627878893" lon="7.247805171660264"><ele>476.0</ele><time>2026-04-25T11:47:32.999Z</time></trkpt><trkpt lat="44.81347284304856" lon="7.247957801571918"><ele>475.5</ele><time>2026-04-25T11:47:33.999Z</time></trkpt><trkpt lat="44.81346141700686" lon="7.248102806888925"><ele>475.0</ele><time>2026-04-25T11:47:34.999Z</time></trkpt><trkpt lat="44.8134439185158" lon="7.2482528620110065"><ele>474.5</ele><time>2026-04-25T11:47:35.999Z</time></trkpt><trkpt lat="44.81342660929797" lon="7.248420070007394"><ele>474.0</ele><time>2026-04-25T11:47:36.999Z</time></trkpt><trkpt lat="44.813409322878655" lon="7.2485949379088686"><ele>473.25</ele><time>2026-04-25T11:47:37.999Z</time></trkpt><trkpt lat="44.81338819435958" lon="7.2487872980791765"><ele>472.5</ele><time>2026-04-25T11:47:38.999Z</time></trkpt><trkpt lat="44.81336520927205" lon="7.248990962977565"><ele>471.75</ele><time>2026-04-25T11:47:39.999Z</time></trkpt><trkpt lat="44.813342435761925" lon="7.249188089610022"><ele>471.0</ele><time>2026-04-25T11:47:40.999Z</time></trkpt><trkpt lat="44.81332537390824" lon="7.249378454370061"><ele>470.75</ele><time>2026-04-25T11:47:41.999Z</time></trkpt><trkpt lat="44.813305945285464" lon="7.249567002109452"><ele>470.5</ele><time>2026-04-25T11:47:42.999Z</time></trkpt><trkpt lat="44.813286533236294" lon="7.2497613480440695"><ele>470.25</ele><time>2026-04-25T11:47:43.999Z</time></trkpt><trkpt lat="44.81326724612397" lon="7.249950415303063"><ele>470.0</ele><time>2026-04-25T11:47:44.999Z</time></trkpt><trkpt lat="44.8132496962427" lon="7.250135919097618"><ele>469.75</ele><time>2026-04-25T11:47:45.999Z</time></trkpt><trkpt lat="44.81322958185305" lon="7.250326167145497"><ele>469.5</ele><time>2026-04-25T11:47:46.999Z</time></trkpt><trkpt lat="44.813207804637784" lon="7.250519402892731"><ele>469.25</ele><time>2026-04-25T11:47:47.999Z</time></trkpt><trkpt lat="44.8131876880861" lon="7.250714635082914"><ele>469.0</ele><time>2026-04-25T11:47:48.999Z</time></trkpt><trkpt lat="44.81316957515352" lon="7.250910021011832"><ele>468.5</ele><time>2026-04-25T11:47:49.999Z</time></trkpt><trkpt lat="44.81314976124754" lon="7.251100982846812"><ele>468.0</ele><time>2026-04-25T11:47:50.999Z</time></trkpt><trkpt lat="44.8131293891573" lon="7.251291288059057"><ele>467.5</ele><time>2026-04-25T11:47:51.999Z</time></trkpt><trkpt lat="44.813108834735445" lon="7.251491255966183"><ele>467.0</ele><time>2026-04-25T11:47:52.999Z</time></trkpt><trkpt lat="44.81308986345215" lon="7.2516911712268355"><ele>467.0</ele><time>2026-04-25T11:47:53.999Z</time></trkpt><trkpt lat="44.81306993271622" lon="7.251888852450497"><ele>467.0</ele><time>2026-04-25T11:47:54.999Z</time></trkpt><trkpt lat="44.813050052243845" lon="7.252075651907361"><ele>467.0</ele><time>2026-04-25T11:47:55.999Z</time></trkpt><trkpt lat="44.81303160653021" lon="7.2522694680486"><ele>467.0</ele><time>2026-04-25T11:47:56.999Z</time></trkpt><trkpt lat="44.81300944006566" lon="7.252458549978483"><ele>467.0</ele><time>2026-04-25T11:47:57.999Z</time></trkpt><trkpt lat="44.81298725628373" lon="7.252653641444147"><ele>467.0</ele><time>2026-04-25T11:47:58.999Z</time></trkpt><trkpt lat="44.81296498761952" lon="7.252855156382977"><ele>467.0</ele><time>2026-04-25T11:47:59.999Z</time></trkpt><trkpt lat="44.81294269136223" lon="7.253055188720572"><ele>467.0</ele><time>2026-04-25T11:48:00.999Z</time></trkpt><trkpt lat="44.81292303149368" lon="7.253253258102115"><ele>466.5</ele><time>2026-04-25T11:48:01.999Z</time></trkpt><trkpt lat="44.81290640308913" lon="7.253456150496083"><ele>466.0</ele><time>2026-04-25T11:48:02.998Z</time></trkpt><trkpt lat="44.81288952058698" lon="7.2536595335603415"><ele>465.5</ele><time>2026-04-25T11:48:03.998Z</time></trkpt><trkpt lat="44.81287123172651" lon="7.25385867172413"><ele>465.0</ele><time>2026-04-25T11:48:04.998Z</time></trkpt><trkpt lat="44.812851398875125" lon="7.254063472890634"><ele>464.75</ele><time>2026-04-25T11:48:05.998Z</time></trkpt><trkpt lat="44.81283442955358" lon="7.254261535912841"><ele>464.5</ele><time>2026-04-25T11:48:06.998Z</time></trkpt><trkpt lat="44.812816315532444" lon="7.254461210460548"><ele>464.25</ele><time>2026-04-25T11:48:07.998Z</time></trkpt><trkpt lat="44.812798959477405" lon="7.254655417411904"><ele>464.0</ele><time>2026-04-25T11:48:08.998Z</time></trkpt><trkpt lat="44.81278186550829" lon="7.254851978795223"><ele>463.25</ele><time>2026-04-25T11:48:09.998Z</time></trkpt><trkpt lat="44.812763460086586" lon="7.255048008089456"><ele>462.5</ele><time>2026-04-25T11:48:10.998Z</time></trkpt><trkpt lat="44.8127495113505" lon="7.255242903438198"><ele>461.75</ele><time>2026-04-25T11:48:11.998Z</time></trkpt><trkpt lat="44.81272543876312" lon="7.255447582368733"><ele>461.0</ele><time>2026-04-25T11:48:12.998Z</time></trkpt><trkpt lat="44.812706649177144" lon="7.255644091788699"><ele>460.75</ele><time>2026-04-25T11:48:13.998Z</time></trkpt><trkpt lat="44.81268936704941" lon="7.25584650836645"><ele>460.5</ele><time>2026-04-25T11:48:14.998Z</time></trkpt><trkpt lat="44.81266796695119" lon="7.25604693563964"><ele>460.25</ele><time>2026-04-25T11:48:15.998Z</time></trkpt><trkpt lat="44.81265151872903" lon="7.256247880433718"><ele>460.0</ele><time>2026-04-25T11:48:16.998Z</time></trkpt><trkpt lat="44.8126297086899" lon="7.2564393236047104"><ele>458.75</ele><time>2026-04-25T11:48:17.998Z</time></trkpt><trkpt lat="44.8126105064574" lon="7.256644257980827"><ele>457.5</ele><time>2026-04-25T11:48:18.998Z</time></trkpt><trkpt lat="44.81258963004262" lon="7.25685052126117"><ele>456.25</ele><time>2026-04-25T11:48:19.998Z</time></trkpt><trkpt lat="44.81256664967982" lon="7.2570622495026305"><ele>455.0</ele><time>2026-04-25T11:48:20.998Z</time></trkpt><trkpt lat="44.81254406047563" lon="7.2572653102458755"><ele>454.75</ele><time>2026-04-25T11:48:21.998Z</time></trkpt><trkpt lat="44.812519991409324" lon="7.2574738666312895"><ele>454.5</ele><time>2026-04-25T11:48:22.998Z</time></trkpt><trkpt lat="44.812499178125606" lon="7.257674699464839"><ele>454.25</ele><time>2026-04-25T11:48:23.998Z</time></trkpt><trkpt lat="44.8124770180005" lon="7.25788056315079"><ele>454.0</ele><time>2026-04-25T11:48:24.998Z</time></trkpt><trkpt lat="44.81245449264177" lon="7.258086085086312"><ele>454.0</ele><time>2026-04-25T11:48:25.998Z</time></trkpt><trkpt lat="44.81243153650179" lon="7.258295768316939"><ele>454.0</ele><time>2026-04-25T11:48:26.998Z</time></trkpt><trkpt lat="44.81240728562378" lon="7.2585043083055245"><ele>454.0</ele><time>2026-04-25T11:48:27.998Z</time></trkpt><trkpt lat="44.81238420912075" lon="7.258712284970466"><ele>454.0</ele><time>2026-04-25T11:48:28.998Z</time></trkpt><trkpt lat="44.81236506381801" lon="7.258916975968578"><ele>454.0</ele><time>2026-04-25T11:48:29.998Z</time></trkpt><trkpt lat="44.81234543633824" lon="7.259117020238129"><ele>454.0</ele><time>2026-04-25T11:48:30.998Z</time></trkpt><trkpt lat="44.812322982245" lon="7.25932256125466"><ele>454.0</ele><time>2026-04-25T11:48:32Z</time></trkpt><trkpt lat="44.81230183649303" lon="7.259527855303536"><ele>453.5</ele><time>2026-04-25T11:48:33Z</time></trkpt><trkpt lat="44.81228230083658" lon="7.259737290353144"><ele>453.0</ele><time>2026-04-25T11:48:34Z</time></trkpt><trkpt lat="44.81226131432592" lon="7.259945963573348"><ele>452.5</ele><time>2026-04-25T11:48:35Z</time></trkpt><trkpt lat="44.812239647120755" lon="7.260152646633544"><ele>452.0</ele><time>2026-04-25T11:48:36Z</time></trkpt><trkpt lat="44.812218016435864" lon="7.260359080406299"><ele>451.5</ele><time>2026-04-25T11:48:37Z</time></trkpt><trkpt lat="44.812199909406466" lon="7.260567467736254"><ele>451.0</ele><time>2026-04-25T11:48:38Z</time></trkpt><trkpt lat="44.812179964114584" lon="7.260775839735366"><ele>450.5</ele><time>2026-04-25T11:48:39Z</time></trkpt><trkpt lat="44.81216022376093" lon="7.260982831245257"><ele>450.0</ele><time>2026-04-25T11:48:40Z</time></trkpt><trkpt lat="44.81214076504936" lon="7.2611919708846155"><ele>449.66666666666663</ele><time>2026-04-25T11:48:41Z</time></trkpt><trkpt lat="44.81212144394985" lon="7.261402159345614"><ele>449.3333333333333</ele><time>2026-04-25T11:48:42Z</time></trkpt><trkpt lat="44.81210362660012" lon="7.2616087352814915"><ele>449.0</ele><time>2026-04-25T11:48:43Z</time></trkpt><trkpt lat="44.8120837164406" lon="7.2618205724556075"><ele>449.0</ele><time>2026-04-25T11:48:44Z</time></trkpt><trkpt lat="44.81206336012027" lon="7.262034236056335"><ele>449.0</ele><time>2026-04-25T11:48:45Z</time></trkpt><trkpt lat="44.81204590855902" lon="7.262239604519248"><ele>449.0</ele><time>2026-04-25T11:48:46Z</time></trkpt><trkpt lat="44.812026935968625" lon="7.2624499256077195"><ele>448.66666666666663</ele><time>2026-04-25T11:48:47Z</time></trkpt><trkpt lat="44.81200624277896" lon="7.262661533954744"><ele>448.33333333333337</ele><time>2026-04-25T11:48:48Z</time></trkpt><trkpt lat="44.81198284816691" lon="7.262869781128924"><ele>448.0</ele><time>2026-04-25T11:48:49Z</time></trkpt><trkpt lat="44.811957904124604" lon="7.263081196423069"><ele>447.33333333333337</ele><time>2026-04-25T11:48:50Z</time></trkpt><trkpt lat="44.811938204900216" lon="7.263290917963164"><ele>446.66666666666663</ele><time>2026-04-25T11:48:51Z</time></trkpt><trkpt lat="44.81191935257595" lon="7.263503228219257"><ele>446.0</ele><time>2026-04-25T11:48:52Z</time></trkpt><trkpt lat="44.81189736906412" lon="7.263745557680522"><ele>445.3333333333333</ele><time>2026-04-25T11:48:53Z</time></trkpt><trkpt lat="44.81187356914081" lon="7.263997924882444"><ele>444.66666666666663</ele><time>2026-04-25T11:48:54Z</time></trkpt><trkpt lat="44.81185013165036" lon="7.264225895553056"><ele>444.0</ele><time>2026-04-25T11:48:55Z</time></trkpt><trkpt lat="44.811832782057536" lon="7.2644355635397195"><ele>443.75</ele><time>2026-04-25T11:48:56Z</time></trkpt><trkpt lat="44.81180862192061" lon="7.264643015203941"><ele>443.5</ele><time>2026-04-25T11:48:57Z</time></trkpt><trkpt lat="44.81179245384805" lon="7.264834983681084"><ele>443.25</ele><time>2026-04-25T11:48:58Z</time></trkpt><trkpt lat="44.81177098491434" lon="7.265022118585588"><ele>443.0</ele><time>2026-04-25T11:48:59Z</time></trkpt><trkpt lat="44.81175274345276" lon="7.265206402553635"><ele>442.59999999999997</ele><time>2026-04-25T11:49:00Z</time></trkpt><trkpt lat="44.81173643681382" lon="7.265383580255027"><ele>442.19999999999993</ele><time>2026-04-25T11:49:01Z</time></trkpt><trkpt lat="44.811718096403666" lon="7.2655488154769525"><ele>441.8</ele><time>2026-04-25T11:49:02Z</time></trkpt><trkpt lat="44.81169671222577" lon="7.265702870410285"><ele>441.4</ele><time>2026-04-25T11:49:03Z</time></trkpt><trkpt lat="44.811681455353956" lon="7.265827480663793"><ele>441.0</ele><time>2026-04-25T11:49:04Z</time></trkpt><trkpt lat="44.81166696973456" lon="7.2659228120389265"><ele>440.8</ele><time>2026-04-25T11:49:05Z</time></trkpt><trkpt lat="44.811602138375086" lon="7.266022282460821"><ele>440.6</ele><time>2026-04-25T11:49:07Z</time></trkpt><trkpt lat="44.81149858192852" lon="7.2660633095322735"><ele>440.4</ele><time>2026-04-25T11:49:09Z</time></trkpt><trkpt lat="44.811436762243886" lon="7.266136983997361"><ele>440.2</ele><time>2026-04-25T11:49:11Z</time></trkpt><trkpt lat="44.81128533984676" lon="7.266133079919308"><ele>440.0</ele><time>2026-04-25T11:49:13Z</time></trkpt><trkpt lat="44.811479613308634" lon="7.2661844322068205"><ele>439.99999999999994</ele><time>2026-04-25T11:49:15Z</time></trkpt><trkpt lat="44.81150818613769" lon="7.2662680912091515"><ele>440.0</ele><time>2026-04-25T11:49:19Z</time></trkpt><trkpt lat="44.811480146990895" lon="7.266361905415409"><ele>440.0</ele><time>2026-04-25T11:59:13Z</time></trkpt><trkpt lat="44.81140689248121" lon="7.266369476712707"><ele>440.0</ele><time>2026-04-25T12:00:09.999Z</time></trkpt><trkpt lat="44.811344392671884" lon="7.266351405847018"><ele>440.0</ele><time>2026-04-25T12:11:49Z</time></trkpt><trkpt lat="44.81141288361796" lon="7.26637569833555"><ele>439.99999999999994</ele><time>2026-04-25T12:14:07Z</time></trkpt><trkpt lat="44.81147864978092" lon="7.266417753052272"><ele>440.0</ele><time>2026-04-25T12:16:21.999Z</time></trkpt><trkpt lat="44.81155879927466" lon="7.266503246518767"><ele>439.99999999999994</ele><time>2026-04-25T12:16:24.999Z</time></trkpt><trkpt lat="44.8116255915361" lon="7.266516177332207"><ele>440.0</ele><time>2026-04-25T12:16:26.999Z</time></trkpt><trkpt lat="44.81170719652959" lon="7.266439204080278"><ele>440.0</ele><time>2026-04-25T12:16:29.999Z</time></trkpt><trkpt lat="44.81174155176522" lon="7.26634878299525"><ele>440.0</ele><time>2026-04-25T12:16:30.999Z</time></trkpt><trkpt lat="44.8117505692069" lon="7.2662252559550025"><ele>439.99999999999994</ele><time>2026-04-25T12:16:31.999Z</time></trkpt><trkpt lat="44.81175140503412" lon="7.266077891520673"><ele>440.0</ele><time>2026-04-25T12:16:32.999Z</time></trkpt><trkpt lat="44.81176055368116" lon="7.265916933811652"><ele>440.0</ele><time>2026-04-25T12:16:33.999Z</time></trkpt><trkpt lat="44.81177198957423" lon="7.2657589128649915"><ele>440.0</ele><time>2026-04-25T12:16:34.999Z</time></trkpt><trkpt lat="44.81178521225402" lon="7.265618789831629"><ele>440.0</ele><time>2026-04-25T12:16:35.999Z</time></trkpt><trkpt lat="44.811798174457635" lon="7.2654788652124465"><ele>440.0</ele><time>2026-04-25T12:16:36.999Z</time></trkpt><trkpt lat="44.81180851402421" lon="7.265324957988777"><ele>440.0</ele><time>2026-04-25T12:16:37.999Z</time></trkpt><trkpt lat="44.81182788510096" lon="7.265148890398011"><ele>440.75</ele><time>2026-04-25T12:16:38.999Z</time></trkpt><trkpt lat="44.81184903873013" lon="7.264965404977446"><ele>441.5</ele><time>2026-04-25T12:16:39.999Z</time></trkpt><trkpt lat="44.811870150682054" lon="7.264774385269071"><ele>442.25</ele><time>2026-04-25T12:16:40.999Z</time></trkpt><trkpt lat="44.81189066417314" lon="7.264584989374741"><ele>443.0</ele><time>2026-04-25T12:16:41.999Z</time></trkpt><trkpt lat="44.81190545830555" lon="7.264419028353339"><ele>443.25</ele><time>2026-04-25T12:16:42.999Z</time></trkpt><trkpt lat="44.81191762302847" lon="7.2642621699984415"><ele>443.5</ele><time>2026-04-25T12:16:43.999Z</time></trkpt><trkpt lat="44.81193275511763" lon="7.264098168418389"><ele>443.75</ele><time>2026-04-25T12:16:44.999Z</time></trkpt><trkpt lat="44.81194849288587" lon="7.263922279134777"><ele>444.0</ele><time>2026-04-25T12:16:45.999Z</time></trkpt><trkpt lat="44.8119676817214" lon="7.263732855176667"><ele>444.5</ele><time>2026-04-25T12:16:46.999Z</time></trkpt><trkpt lat="44.811986840584304" lon="7.263552204276798"><ele>445.0</ele><time>2026-04-25T12:16:47.999Z</time></trkpt><trkpt lat="44.81200081310729" lon="7.263380528246805"><ele>445.5</ele><time>2026-04-25T12:16:48.999Z</time></trkpt><trkpt lat="44.81201559604488" lon="7.263214935079262"><ele>446.0</ele><time>2026-04-25T12:16:49.999Z</time></trkpt><trkpt lat="44.81203259655504" lon="7.263041927886289"><ele>446.5</ele><time>2026-04-25T12:16:50.999Z</time></trkpt><trkpt lat="44.812049767866476" lon="7.262863242766101"><ele>447.0</ele><time>2026-04-25T12:16:51.999Z</time></trkpt><trkpt lat="44.812064653033" lon="7.262694714969925"><ele>447.5</ele><time>2026-04-25T12:16:52.999Z</time></trkpt><trkpt lat="44.81208132429819" lon="7.262521199283936"><ele>448.0</ele><time>2026-04-25T12:16:53.999Z</time></trkpt><trkpt lat="44.81209916356987" lon="7.262337093190099"><ele>448.25</ele><time>2026-04-25T12:16:54.999Z</time></trkpt><trkpt lat="44.81211685451371" lon="7.262134481113581"><ele>448.5</ele><time>2026-04-25T12:16:55.999Z</time></trkpt><trkpt lat="44.81213443211115" lon="7.261943525694142"><ele>448.75</ele><time>2026-04-25T12:16:56.999Z</time></trkpt><trkpt lat="44.812153072471574" lon="7.261753357853322"><ele>449.0</ele><time>2026-04-25T12:16:57.999Z</time></trkpt><trkpt lat="44.81217134507085" lon="7.261569019888467"><ele>449.0</ele><time>2026-04-25T12:16:58.998Z</time></trkpt><trkpt lat="44.812191692460274" lon="7.261372178455453"><ele>449.0</ele><time>2026-04-25T12:16:59.998Z</time></trkpt><trkpt lat="44.812216080308886" lon="7.261139730985066"><ele>449.0</ele><time>2026-04-25T12:17:00.998Z</time></trkpt><trkpt lat="44.81224294635619" lon="7.260863786627341"><ele>449.3333333333333</ele><time>2026-04-25T12:17:01.998Z</time></trkpt><trkpt lat="44.81227009036086" lon="7.26057274115258"><ele>449.66666666666663</ele><time>2026-04-25T12:17:02.998Z</time></trkpt><trkpt lat="44.812296125534964" lon="7.2603198925814265"><ele>450.0</ele><time>2026-04-25T12:17:03.998Z</time></trkpt><trkpt lat="44.81231895505962" lon="7.260088225924382"><ele>450.0</ele><time>2026-04-25T12:17:04.998Z</time></trkpt><trkpt lat="44.81233996057805" lon="7.259872337601863"><ele>450.0</ele><time>2026-04-25T12:17:05.998Z</time></trkpt><trkpt lat="44.81236002021052" lon="7.259664638129297"><ele>450.0</ele><time>2026-04-25T12:17:06.998Z</time></trkpt><trkpt lat="44.81237994803847" lon="7.2594642467776165"><ele>450.0</ele><time>2026-04-25T12:17:07.998Z</time></trkpt><trkpt lat="44.812400007849114" lon="7.259261376804902"><ele>450.66666666666663</ele><time>2026-04-25T12:17:08.998Z</time></trkpt><trkpt lat="44.81241701744365" lon="7.259047235705706"><ele>451.3333333333333</ele><time>2026-04-25T12:17:09.998Z</time></trkpt><trkpt lat="44.81243937973941" lon="7.258818778639664"><ele>452.0</ele><time>2026-04-25T12:17:10.998Z</time></trkpt><trkpt lat="44.81246064998301" lon="7.258599525324161"><ele>452.5</ele><time>2026-04-25T12:17:11.998Z</time></trkpt><trkpt lat="44.812480244674106" lon="7.2583934841773265"><ele>453.0</ele><time>2026-04-25T12:17:12.998Z</time></trkpt><trkpt lat="44.81249896337874" lon="7.258188652615334"><ele>453.5</ele><time>2026-04-25T12:17:13.998Z</time></trkpt><trkpt lat="44.812521205126174" lon="7.25797914060787"><ele>454.0</ele><time>2026-04-25T12:17:14.998Z</time></trkpt><trkpt lat="44.81254704374894" lon="7.257755881160232"><ele>454.0</ele><time>2026-04-25T12:17:15.998Z</time></trkpt><trkpt lat="44.81257103138627" lon="7.257535379551298"><ele>454.0</ele><time>2026-04-25T12:17:16.998Z</time></trkpt><trkpt lat="44.81259027940019" lon="7.257324650515808"><ele>454.0</ele><time>2026-04-25T12:17:17.998Z</time></trkpt><trkpt lat="44.812610041137205" lon="7.2571163913088705"><ele>454.33333333333337</ele><time>2026-04-25T12:17:18.998Z</time></trkpt><trkpt lat="44.81263007258387" lon="7.256913119688366"><ele>454.66666666666663</ele><time>2026-04-25T12:17:19.998Z</time></trkpt><trkpt lat="44.812652291634976" lon="7.256707631402035"><ele>455.0</ele><time>2026-04-25T12:17:20.998Z</time></trkpt><trkpt lat="44.812673631434905" lon="7.256487881580483"><ele>456.25</ele><time>2026-04-25T12:17:21.998Z</time></trkpt><trkpt lat="44.81269283894699" lon="7.256279160295521"><ele>457.5</ele><time>2026-04-25T12:17:22.998Z</time></trkpt><trkpt lat="44.81270941336521" lon="7.2560932804244365"><ele>458.75</ele><time>2026-04-25T12:17:23.998Z</time></trkpt><trkpt lat="44.81272388102054" lon="7.255913064674571"><ele>460.0</ele><time>2026-04-25T12:17:24.998Z</time></trkpt><trkpt lat="44.812745090227274" lon="7.255726846476402"><ele>460.25</ele><time>2026-04-25T12:17:25.998Z</time></trkpt><trkpt lat="44.81276277630637" lon="7.255531200246376"><ele>460.5</ele><time>2026-04-25T12:17:26.998Z</time></trkpt><trkpt lat="44.81278546210221" lon="7.255330709179267"><ele>460.75</ele><time>2026-04-25T12:17:27.998Z</time></trkpt><trkpt lat="44.812803868366025" lon="7.255115719913133"><ele>461.0</ele><time>2026-04-25T12:17:28.998Z</time></trkpt><trkpt lat="44.81282224171357" lon="7.254916459972189"><ele>461.75</ele><time>2026-04-25T12:17:29.998Z</time></trkpt><trkpt lat="44.81284089288857" lon="7.254718992595753"><ele>462.5</ele><time>2026-04-25T12:17:30.998Z</time></trkpt><trkpt lat="44.812858751559" lon="7.254501112768021"><ele>463.25</ele><time>2026-04-25T12:17:31.998Z</time></trkpt><trkpt lat="44.81288552773801" lon="7.254297529592637"><ele>464.0</ele><time>2026-04-25T12:17:32.998Z</time></trkpt><trkpt lat="44.812907041908694" lon="7.2541056634985"><ele>464.25</ele><time>2026-04-25T12:17:33.998Z</time></trkpt><trkpt lat="44.81292299732299" lon="7.253914634215854"><ele>464.5</ele><time>2026-04-25T12:17:34.998Z</time></trkpt><trkpt lat="44.812940228791135" lon="7.253716494346504"><ele>464.75</ele><time>2026-04-25T12:17:35.998Z</time></trkpt><trkpt lat="44.81295642493077" lon="7.253531349993458"><ele>465.0</ele><time>2026-04-25T12:17:36.998Z</time></trkpt><trkpt lat="44.81297437064133" lon="7.253347394464614"><ele>465.0</ele><time>2026-04-25T12:17:37.998Z</time></trkpt><trkpt lat="44.812991385846956" lon="7.253153200316712"><ele>465.0</ele><time>2026-04-25T12:17:38.998Z</time></trkpt><trkpt lat="44.81300802912699" lon="7.252963707706208"><ele>465.0</ele><time>2026-04-25T12:17:39.998Z</time></trkpt><trkpt lat="44.813026506713186" lon="7.252759336628961"><ele>465.0</ele><time>2026-04-25T12:17:40.998Z</time></trkpt><trkpt lat="44.81304621006421" lon="7.252557942784632"><ele>465.5</ele><time>2026-04-25T12:17:41.998Z</time></trkpt><trkpt lat="44.81306730238829" lon="7.252347193027617"><ele>466.0</ele><time>2026-04-25T12:17:42.998Z</time></trkpt><trkpt lat="44.81309200831911" lon="7.252132933347208"><ele>466.5</ele><time>2026-04-25T12:17:43.998Z</time></trkpt><trkpt lat="44.81311256274949" lon="7.2519352503868495"><ele>467.0</ele><time>2026-04-25T12:17:44.998Z</time></trkpt><trkpt lat="44.813128357406114" lon="7.2517653518035115"><ele>466.99999999999994</ele><time>2026-04-25T12:17:45.997Z</time></trkpt><trkpt lat="44.813141450085546" lon="7.25163036195394"><ele>467.0</ele><time>2026-04-25T12:17:46.997Z</time></trkpt><trkpt lat="44.813158545963326" lon="7.251508639303932"><ele>467.0</ele><time>2026-04-25T12:17:47.997Z</time></trkpt><trkpt lat="44.813170186090055" lon="7.251407682793435"><ele>467.0</ele><time>2026-04-25T12:17:48.997Z</time></trkpt><trkpt lat="44.813180757875074" lon="7.251277221306208"><ele>466.99999999999994</ele><time>2026-04-25T12:17:50.997Z</time></trkpt><trkpt lat="44.813194482186816" lon="7.2511466442085375"><ele>467.0</ele><time>2026-04-25T12:17:54.997Z</time></trkpt><trkpt lat="44.81320080050561" lon="7.251029888704274"><ele>467.0</ele><time>2026-04-25T12:17:57Z</time></trkpt><trkpt lat="44.813216828407256" lon="7.250854728859644"><ele>467.00000000000006</ele><time>2026-04-25T12:17:59Z</time></trkpt><trkpt lat="44.81322859369403" lon="7.250734589282166"><ele>467.00000000000006</ele><time>2026-04-25T12:18:00Z</time></trkpt><trkpt lat="44.8132409466239" lon="7.25058819925987"><ele>467.0</ele><time>2026-04-25T12:18:01Z</time></trkpt><trkpt lat="44.81325282246873" lon="7.25044697361538"><ele>467.0</ele><time>2026-04-25T12:18:02Z</time></trkpt><trkpt lat="44.81326486451306" lon="7.250319301199744"><ele>467.40000000000003</ele><time>2026-04-25T12:18:03Z</time></trkpt><trkpt lat="44.81327879723909" lon="7.250192001831392"><ele>467.80000000000007</ele><time>2026-04-25T12:18:04Z</time></trkpt><trkpt lat="44.8132938009004" lon="7.250033624438937"><ele>468.2</ele><time>2026-04-25T12:18:05Z</time></trkpt><trkpt lat="44.81331215771706" lon="7.249859352605393"><ele>468.6</ele><time>2026-04-25T12:18:06Z</time></trkpt><trkpt lat="44.813330079103345" lon="7.249708617424797"><ele>469.0</ele><time>2026-04-25T12:18:07Z</time></trkpt><trkpt lat="44.81334502749193" lon="7.249554559860189"><ele>469.2</ele><time>2026-04-25T12:18:08Z</time></trkpt><trkpt lat="44.81336031150191" lon="7.249402894536601"><ele>469.4</ele><time>2026-04-25T12:18:09Z</time></trkpt><trkpt lat="44.81337495087181" lon="7.249259208118559"><ele>469.6</ele><time>2026-04-25T12:18:10Z</time></trkpt><trkpt lat="44.81339016985405" lon="7.2491121982000495"><ele>469.8</ele><time>2026-04-25T12:18:11Z</time></trkpt><trkpt lat="44.813402911519496" lon="7.24895930090846"><ele>470.0</ele><time>2026-04-25T12:18:12Z</time></trkpt><trkpt lat="44.81341862269912" lon="7.2487925911535465"><ele>470.25</ele><time>2026-04-25T12:18:13Z</time></trkpt><trkpt lat="44.813433807661305" lon="7.248618832475813"><ele>470.5</ele><time>2026-04-25T12:18:14Z</time></trkpt><trkpt lat="44.81345358278214" lon="7.248454727718962"><ele>470.75</ele><time>2026-04-25T12:18:15Z</time></trkpt><trkpt lat="44.81347048520102" lon="7.248299105458698"><ele>471.0</ele><time>2026-04-25T12:18:16Z</time></trkpt><trkpt lat="44.8134844177449" lon="7.248148912208854"><ele>472.0</ele><time>2026-04-25T12:18:16.999Z</time></trkpt><trkpt lat="44.81351171573904" lon="7.248011923798047"><ele>473.0</ele><time>2026-04-25T12:18:17.999Z</time></trkpt><trkpt lat="44.813526897133464" lon="7.24786034912795"><ele>474.0</ele><time>2026-04-25T12:18:18.999Z</time></trkpt><trkpt lat="44.81354295637371" lon="7.24769594628371"><ele>475.0</ele><time>2026-04-25T12:18:19.999Z</time></trkpt><trkpt lat="44.81354167976959" lon="7.247544303440701"><ele>476.0</ele><time>2026-04-25T12:18:20.999Z</time></trkpt><trkpt lat="44.813556706948205" lon="7.247414325821727"><ele>476.20000000000005</ele><time>2026-04-25T12:18:21.999Z</time></trkpt><trkpt lat="44.81357103867677" lon="7.247292532624455"><ele>476.40000000000003</ele><time>2026-04-25T12:18:22.999Z</time></trkpt><trkpt lat="44.81358365552842" lon="7.247152875773066"><ele>476.6</ele><time>2026-04-25T12:18:23.999Z</time></trkpt><trkpt lat="44.813597016830116" lon="7.247002235478983"><ele>476.8</ele><time>2026-04-25T12:18:24.999Z</time></trkpt><trkpt lat="44.813622640267624" lon="7.2468668218770596"><ele>477.0</ele><time>2026-04-25T12:18:25.999Z</time></trkpt><trkpt lat="44.813636684197945" lon="7.246726990659097"><ele>477.0</ele><time>2026-04-25T12:18:26.999Z</time></trkpt><trkpt lat="44.81363666134378" lon="7.246578986957011"><ele>477.00000000000006</ele><time>2026-04-25T12:18:27.999Z</time></trkpt><trkpt lat="44.81364854368455" lon="7.246445186724248"><ele>477.00000000000006</ele><time>2026-04-25T12:18:28.999Z</time></trkpt><trkpt lat="44.81366330835804" lon="7.246320191021792"><ele>477.0</ele><time>2026-04-25T12:18:29.999Z</time></trkpt><trkpt lat="44.813675499351035" lon="7.246197936822827"><ele>477.0</ele><time>2026-04-25T12:18:30.999Z</time></trkpt><trkpt lat="44.81369294502897" lon="7.24606021498207"><ele>477.0</ele><time>2026-04-25T12:18:31.999Z</time></trkpt><trkpt lat="44.81370908663293" lon="7.245925270076958"><ele>477.0</ele><time>2026-04-25T12:18:32.999Z</time></trkpt><trkpt lat="44.81372498443611" lon="7.2458073012768"><ele>477.0</ele><time>2026-04-25T12:18:33.999Z</time></trkpt><trkpt lat="44.81374098688366" lon="7.2456994001200945"><ele>477.0</ele><time>2026-04-25T12:18:34.999Z</time></trkpt><trkpt lat="44.813755788616355" lon="7.245598244482051"><ele>477.0</ele><time>2026-04-25T12:18:35.999Z</time></trkpt><trkpt lat="44.8137742204548" lon="7.245504181551232"><ele>477.0</ele><time>2026-04-25T12:18:36.999Z</time></trkpt><trkpt lat="44.81381344667269" lon="7.2453551792383415"><ele>477.20000000000005</ele><time>2026-04-25T12:18:38.999Z</time></trkpt><trkpt lat="44.8138714717416" lon="7.245225080814668"><ele>477.40000000000003</ele><time>2026-04-25T12:18:40.999Z</time></trkpt><trkpt lat="44.81388584036694" lon="7.245129844992133"><ele>477.59999999999997</ele><time>2026-04-25T12:18:41.999Z</time></trkpt><trkpt lat="44.813781400033584" lon="7.2449886768492675"><ele>477.79999999999995</ele><time>2026-04-25T12:18:43.999Z</time></trkpt><trkpt lat="44.81368791182258" lon="7.245028905988514"><ele>478.0</ele><time>2026-04-25T12:18:44.999Z</time></trkpt><trkpt lat="44.81360776116431" lon="7.245026377618031"><ele>478.0</ele><time>2026-04-25T12:18:45.999Z</time></trkpt><trkpt lat="44.81352219294668" lon="7.2450004865628905"><ele>477.99999999999994</ele><time>2026-04-25T12:18:46.999Z</time></trkpt><trkpt lat="44.81343207486887" lon="7.244960707650838"><ele>477.99999999999994</ele><time>2026-04-25T12:18:47.999Z</time></trkpt><trkpt lat="44.81333387206318" lon="7.244926704809776"><ele>478.0</ele><time>2026-04-25T12:18:48.999Z</time></trkpt><trkpt lat="44.813233632187305" lon="7.244880248905589"><ele>478.0</ele><time>2026-04-25T12:18:49.999Z</time></trkpt><trkpt lat="44.8131268669057" lon="7.244839719007992"><ele>477.4</ele><time>2026-04-25T12:18:50.999Z</time></trkpt><trkpt lat="44.813026553796675" lon="7.244796569560651"><ele>476.79999999999995</ele><time>2026-04-25T12:18:51.999Z</time></trkpt><trkpt lat="44.812919898674004" lon="7.24474878504881"><ele>476.2</ele><time>2026-04-25T12:18:52.999Z</time></trkpt><trkpt lat="44.812816287295874" lon="7.24469852704342"><ele>475.6</ele><time>2026-04-25T12:18:53.999Z</time></trkpt><trkpt lat="44.812699209620426" lon="7.24464699886983"><ele>475.0</ele><time>2026-04-25T12:18:54.999Z</time></trkpt><trkpt lat="44.81257490058242" lon="7.244591700783746"><ele>474.0</ele><time>2026-04-25T12:18:55.999Z</time></trkpt><trkpt lat="44.812465660201184" lon="7.244543968850582"><ele>473.0</ele><time>2026-04-25T12:18:56.999Z</time></trkpt><trkpt lat="44.81235658328483" lon="7.244494243797936"><ele>472.0</ele><time>2026-04-25T12:18:57.999Z</time></trkpt><trkpt lat="44.8122383775767" lon="7.244444276612677"><ele>471.0</ele><time>2026-04-25T12:18:58.999Z</time></trkpt><trkpt lat="44.81212424734198" lon="7.244400403974719"><ele>471.0</ele><time>2026-04-25T12:18:59.999Z</time></trkpt><trkpt lat="44.81200957147356" lon="7.244346493764678"><ele>471.0</ele><time>2026-04-25T12:19:00.999Z</time></trkpt><trkpt lat="44.811894546852926" lon="7.244298705958503"><ele>471.0</ele><time>2026-04-25T12:19:01.999Z</time></trkpt><trkpt lat="44.81179195910966" lon="7.244254447040953"><ele>471.0</ele><time>2026-04-25T12:19:02.999Z</time></trkpt><trkpt lat="44.81169184527083" lon="7.244210058779032"><ele>470.5</ele><time>2026-04-25T12:19:03.998Z</time></trkpt><trkpt lat="44.8115900554579" lon="7.2441659321813345"><ele>470.0</ele><time>2026-04-25T12:19:04.998Z</time></trkpt><trkpt lat="44.81148320585033" lon="7.244119833534988"><ele>469.5</ele><time>2026-04-25T12:19:05.998Z</time></trkpt><trkpt lat="44.81136843854257" lon="7.244074304997345"><ele>469.0</ele><time>2026-04-25T12:19:06.998Z</time></trkpt><trkpt lat="44.81125734697492" lon="7.244024939166498"><ele>469.0</ele><time>2026-04-25T12:19:07.998Z</time></trkpt><trkpt lat="44.81114034805854" lon="7.243978559060468"><ele>469.0</ele><time>2026-04-25T12:19:08.998Z</time></trkpt><trkpt lat="44.81103138581142" lon="7.243931967927343"><ele>469.0</ele><time>2026-04-25T12:19:09.998Z</time></trkpt><trkpt lat="44.81093445812226" lon="7.243887650822863"><ele>469.0</ele><time>2026-04-25T12:19:10.998Z</time></trkpt><trkpt lat="44.81084087244034" lon="7.243846138382413"><ele>469.0</ele><time>2026-04-25T12:19:11.998Z</time></trkpt><trkpt lat="44.81074541714186" lon="7.243804761148294"><ele>469.0</ele><time>2026-04-25T12:19:12.998Z</time></trkpt><trkpt lat="44.81064353534234" lon="7.243761614613082"><ele>469.0</ele><time>2026-04-25T12:19:13.998Z</time></trkpt><trkpt lat="44.81054575936375" lon="7.243709532859503"><ele>469.0</ele><time>2026-04-25T12:19:14.998Z</time></trkpt><trkpt lat="44.81046771785047" lon="7.2436378856152075"><ele>469.0</ele><time>2026-04-25T12:19:15.998Z</time></trkpt><trkpt lat="44.81040384548415" lon="7.243534731623057"><ele>469.0</ele><time>2026-04-25T12:19:16.998Z</time></trkpt><trkpt lat="44.810361015409995" lon="7.24340204751737"><ele>469.0</ele><time>2026-04-25T12:19:17.998Z</time></trkpt><trkpt lat="44.810337537262825" lon="7.243247582801955"><ele>469.0</ele><time>2026-04-25T12:19:18.998Z</time></trkpt><trkpt lat="44.81033201887846" lon="7.2430996469971785"><ele>469.0</ele><time>2026-04-25T12:19:19.998Z</time></trkpt><trkpt lat="44.8103239306692" lon="7.242959658664617"><ele>469.0</ele><time>2026-04-25T12:19:20.998Z</time></trkpt><trkpt lat="44.8103117037354" lon="7.242822291748872"><ele>469.0</ele><time>2026-04-25T12:19:21.998Z</time></trkpt><trkpt lat="44.81029834076714" lon="7.242687403367305"><ele>469.0</ele><time>2026-04-25T12:19:22.998Z</time></trkpt><trkpt lat="44.810284256911885" lon="7.242551223217963"><ele>469.0</ele><time>2026-04-25T12:19:23.998Z</time></trkpt><trkpt lat="44.81027200387105" lon="7.242416303463837"><ele>469.0</ele><time>2026-04-25T12:19:24.998Z</time></trkpt><trkpt lat="44.810263194711176" lon="7.242290712582518"><ele>469.0</ele><time>2026-04-25T12:19:25.998Z</time></trkpt><trkpt lat="44.81025209142111" lon="7.242171537190213"><ele>469.0</ele><time>2026-04-25T12:19:26.998Z</time></trkpt><trkpt lat="44.81024153227895" lon="7.242050854102782"><ele>469.33333333333337</ele><time>2026-04-25T12:19:27.998Z</time></trkpt><trkpt lat="44.81022683267506" lon="7.2419300202871355"><ele>469.6666666666667</ele><time>2026-04-25T12:19:28.998Z</time></trkpt><trkpt lat="44.81021391145274" lon="7.241823155268281"><ele>470.0</ele><time>2026-04-25T12:19:29.998Z</time></trkpt><trkpt lat="44.810199050410894" lon="7.241729163161305"><ele>470.33333333333337</ele><time>2026-04-25T12:19:30.998Z</time></trkpt><trkpt lat="44.81016525617116" lon="7.2416417414352745"><ele>470.6666666666667</ele><time>2026-04-25T12:19:31.998Z</time></trkpt><trkpt lat="44.810096629530335" lon="7.24158687406026"><ele>471.0</ele><time>2026-04-25T12:19:32.998Z</time></trkpt><trkpt lat="44.81001590381411" lon="7.241587236065993"><ele>473.1666666666667</ele><time>2026-04-25T12:19:33.998Z</time></trkpt><trkpt lat="44.809948573036536" lon="7.241636800596078"><ele>475.33333333333337</ele><time>2026-04-25T12:19:34.998Z</time></trkpt><trkpt lat="44.80990473980004" lon="7.241713864090478"><ele>477.5</ele><time>2026-04-25T12:19:35.998Z</time></trkpt><trkpt lat="44.80987384363473" lon="7.241799982575487"><ele>479.6666666666667</ele><time>2026-04-25T12:19:36.998Z</time></trkpt><trkpt lat="44.80986387929198" lon="7.241898089333448"><ele>481.83333333333337</ele><time>2026-04-25T12:19:37.998Z</time></trkpt><trkpt lat="44.80985274683731" lon="7.242000314751437"><ele>484.0</ele><time>2026-04-25T12:19:38.998Z</time></trkpt><trkpt lat="44.80983497182059" lon="7.242147359245823"><ele>483.2</ele><time>2026-04-25T12:19:39.998Z</time></trkpt><trkpt lat="44.809787719250814" lon="7.242307201379563"><ele>482.4</ele><time>2026-04-25T12:19:40.998Z</time></trkpt><trkpt lat="44.80976128531155" lon="7.242452088260936"><ele>481.6</ele><time>2026-04-25T12:19:41.998Z</time></trkpt><trkpt lat="44.809722561747925" lon="7.24256757545077"><ele>480.8</ele><time>2026-04-25T12:19:42.998Z</time></trkpt><trkpt lat="44.80968844295054" lon="7.242691099054808"><ele>480.0</ele><time>2026-04-25T12:19:43.998Z</time></trkpt><trkpt lat="44.809657701432656" lon="7.242809024687761"><ele>480.0</ele><time>2026-04-25T12:19:44.998Z</time></trkpt><trkpt lat="44.80962582675995" lon="7.242936247069197"><ele>480.0</ele><time>2026-04-25T12:19:45.998Z</time></trkpt><trkpt lat="44.80960289053134" lon="7.243034245081447"><ele>480.0</ele><time>2026-04-25T12:19:46.998Z</time></trkpt><trkpt lat="44.80958065195016" lon="7.243117821447628"><ele>480.0</ele><time>2026-04-25T12:19:47.998Z</time></trkpt><trkpt lat="44.80952991480877" lon="7.2432425610560776"><ele>480.0</ele><time>2026-04-25T12:19:49.998Z</time></trkpt><trkpt lat="44.80944557334084" lon="7.243296277101094"><ele>480.0</ele><time>2026-04-25T12:19:51.997Z</time></trkpt><trkpt lat="44.80934983209212" lon="7.243294334307725"><ele>482.4</ele><time>2026-04-25T12:19:53.997Z</time></trkpt><trkpt lat="44.809249877390705" lon="7.243295278021569"><ele>484.8</ele><time>2026-04-25T12:19:55.997Z</time></trkpt><trkpt lat="44.80914973477797" lon="7.243297214726424"><ele>487.20000000000005</ele><time>2026-04-25T12:19:57.997Z</time></trkpt><trkpt lat="44.809036675160236" lon="7.2432836691495135"><ele>489.6</ele><time>2026-04-25T12:19:59.997Z</time></trkpt><trkpt lat="44.80891924214429" lon="7.243265946600758"><ele>492.0</ele><time>2026-04-25T12:20:02Z</time></trkpt><trkpt lat="44.80880362298324" lon="7.243182316469598"><ele>492.0</ele><time>2026-04-25T12:20:04Z</time></trkpt><trkpt lat="44.80874732778494" lon="7.243115753759623"><ele>492.0</ele><time>2026-04-25T12:20:05Z</time></trkpt><trkpt lat="44.808685299701764" lon="7.243046389322294"><ele>492.0</ele><time>2026-04-25T12:20:06Z</time></trkpt><trkpt lat="44.80860703915424" lon="7.242980926002676"><ele>492.0</ele><time>2026-04-25T12:20:07Z</time></trkpt><trkpt lat="44.808522748236726" lon="7.242920227307071"><ele>492.0</ele><time>2026-04-25T12:20:08Z</time></trkpt><trkpt lat="44.80843276085865" lon="7.242858935665189"><ele>492.0</ele><time>2026-04-25T12:20:09Z</time></trkpt><trkpt lat="44.80833822886193" lon="7.242812995401161"><ele>493.0</ele><time>2026-04-25T12:20:10Z</time></trkpt><trkpt lat="44.808237933043124" lon="7.242789562626762"><ele>494.00000000000006</ele><time>2026-04-25T12:20:11Z</time></trkpt><trkpt lat="44.808145494229656" lon="7.242781551656983"><ele>495.00000000000006</ele><time>2026-04-25T12:20:12Z</time></trkpt><trkpt lat="44.80805248158296" lon="7.242780185858771"><ele>496.0</ele><time>2026-04-25T12:20:13Z</time></trkpt><trkpt lat="44.807945222388206" lon="7.242787699352345"><ele>497.0</ele><time>2026-04-25T12:20:14Z</time></trkpt><trkpt lat="44.80783375610943" lon="7.242787763515813"><ele>497.0</ele><time>2026-04-25T12:20:15Z</time></trkpt><trkpt lat="44.807723562415354" lon="7.242783458892574"><ele>497.00000000000006</ele><time>2026-04-25T12:20:16Z</time></trkpt><trkpt lat="44.80761640901562" lon="7.2427726859865516"><ele>497.00000000000006</ele><time>2026-04-25T12:20:17Z</time></trkpt><trkpt lat="44.807507118611596" lon="7.242765903165729"><ele>497.0</ele><time>2026-04-25T12:20:18Z</time></trkpt><trkpt lat="44.807399187875966" lon="7.242763330083374"><ele>497.0</ele><time>2026-04-25T12:20:19Z</time></trkpt><trkpt lat="44.807290381130905" lon="7.242747385997753"><ele>497.8</ele><time>2026-04-25T12:20:20Z</time></trkpt><trkpt lat="44.80718482245402" lon="7.242736227443296"><ele>498.6</ele><time>2026-04-25T12:20:20.999Z</time></trkpt><trkpt lat="44.807088724325844" lon="7.242725016400523"><ele>499.40000000000003</ele><time>2026-04-25T12:20:21.999Z</time></trkpt><trkpt lat="44.806987799675284" lon="7.242719146649308"><ele>500.20000000000005</ele><time>2026-04-25T12:20:22.999Z</time></trkpt><trkpt lat="44.806881701708505" lon="7.2427201054572645"><ele>501.0</ele><time>2026-04-25T12:20:23.999Z</time></trkpt><trkpt lat="44.80678630990612" lon="7.242740658916123"><ele>502.0</ele><time>2026-04-25T12:20:24.999Z</time></trkpt><trkpt lat="44.80669232731633" lon="7.242787498902858"><ele>503.0</ele><time>2026-04-25T12:20:25.999Z</time></trkpt><trkpt lat="44.806604049588906" lon="7.242847733656496"><ele>504.0</ele><time>2026-04-25T12:20:26.999Z</time></trkpt><trkpt lat="44.80652558954826" lon="7.24290716161864"><ele>505.0</ele><time>2026-04-25T12:20:27.999Z</time></trkpt><trkpt lat="44.80645034415636" lon="7.242957954681982"><ele>506.0</ele><time>2026-04-25T12:20:28.999Z</time></trkpt><trkpt lat="44.80638004116596" lon="7.242997147201421"><ele>507.0</ele><time>2026-04-25T12:20:29.999Z</time></trkpt><trkpt lat="44.8063111125056" lon="7.243033117637918"><ele>507.0</ele><time>2026-04-25T12:20:30.999Z</time></trkpt><trkpt lat="44.80623499852871" lon="7.243070265200669"><ele>507.00000000000006</ele><time>2026-04-25T12:20:31.999Z</time></trkpt><trkpt lat="44.806147649114486" lon="7.243109448676372"><ele>507.00000000000006</ele><time>2026-04-25T12:20:32.999Z</time></trkpt><trkpt lat="44.80605326594946" lon="7.2431379230307185"><ele>507.0</ele><time>2026-04-25T12:20:33.999Z</time></trkpt><trkpt lat="44.80595765071344" lon="7.243109016378416"><ele>507.0</ele><time>2026-04-25T12:20:34.999Z</time></trkpt><trkpt lat="44.80586485065859" lon="7.243113511188622"><ele>509.57142857142856</ele><time>2026-04-25T12:20:35.999Z</time></trkpt><trkpt lat="44.80577821588968" lon="7.243093933777044"><ele>512.1428571428571</ele><time>2026-04-25T12:20:36.999Z</time></trkpt><trkpt lat="44.805703191849986" lon="7.243070167541546"><ele>514.7142857142858</ele><time>2026-04-25T12:20:37.999Z</time></trkpt><trkpt lat="44.805634249353766" lon="7.243061967959374"><ele>517.2857142857142</ele><time>2026-04-25T12:20:38.999Z</time></trkpt><trkpt lat="44.805566730090966" lon="7.24304097695191"><ele>519.8571428571429</ele><time>2026-04-25T12:20:39.999Z</time></trkpt><trkpt lat="44.80550165963087" lon="7.243013330732307"><ele>522.4285714285714</ele><time>2026-04-25T12:20:40.999Z</time></trkpt><trkpt lat="44.80544021710084" lon="7.242976987329945"><ele>525.0</ele><time>2026-04-25T12:20:41.999Z</time></trkpt><trkpt lat="44.80535563334704" lon="7.242901576007923"><ele>525.0</ele><time>2026-04-25T12:20:43.999Z</time></trkpt><trkpt lat="44.805292584407724" lon="7.242842803703992"><ele>525.0</ele><time>2026-04-25T12:20:45.999Z</time></trkpt><trkpt lat="44.805230528572714" lon="7.242780503514886"><ele>525.0</ele><time>2026-04-25T12:20:47.999Z</time></trkpt><trkpt lat="44.80512424423792" lon="7.2426793296275305"><ele>525.0</ele><time>2026-04-25T12:20:49.999Z</time></trkpt><trkpt lat="44.805054987211335" lon="7.242674801414116"><ele>525.0</ele><time>2026-04-25T12:20:50.999Z</time></trkpt><trkpt lat="44.80498497515966" lon="7.242633920978973"><ele>525.0</ele><time>2026-04-25T12:20:51.999Z</time></trkpt><trkpt lat="44.80492537641813" lon="7.242559137216954"><ele>525.2</ele><time>2026-04-25T12:20:52.999Z</time></trkpt><trkpt lat="44.80489363051712" lon="7.242437587612444"><ele>525.4</ele><time>2026-04-25T12:20:53.999Z</time></trkpt><trkpt lat="44.804886421202596" lon="7.242299543954157"><ele>525.6</ele><time>2026-04-25T12:20:54.999Z</time></trkpt><trkpt lat="44.8048818442099" lon="7.242157328986292"><ele>525.8</ele><time>2026-04-25T12:20:55.999Z</time></trkpt><trkpt lat="44.804863765785335" lon="7.242014302590133"><ele>526.0</ele><time>2026-04-25T12:20:56.999Z</time></trkpt><trkpt lat="44.80482302353576" lon="7.2418923340967325"><ele>526.0</ele><time>2026-04-25T12:20:57.999Z</time></trkpt><trkpt lat="44.80475867263156" lon="7.2417960053137485"><ele>526.0</ele><time>2026-04-25T12:20:58.999Z</time></trkpt><trkpt lat="44.804701928873925" lon="7.241706536642254"><ele>526.0</ele><time>2026-04-25T12:20:59.999Z</time></trkpt><trkpt lat="44.804584620727034" lon="7.241727411604827"><ele>526.0</ele><time>2026-04-25T12:21:00.999Z</time></trkpt><trkpt lat="44.80449559980465" lon="7.241770558248883"><ele>526.0</ele><time>2026-04-25T12:21:01.999Z</time></trkpt><trkpt lat="44.80442000665779" lon="7.241847699960861"><ele>526.0</ele><time>2026-04-25T12:21:02.999Z</time></trkpt><trkpt lat="44.80435063109454" lon="7.241944414901384"><ele>526.0</ele><time>2026-04-25T12:21:03.999Z</time></trkpt><trkpt lat="44.804281507855265" lon="7.242041922782632"><ele>526.0</ele><time>2026-04-25T12:21:04.999Z</time></trkpt><trkpt lat="44.80420854258146" lon="7.242134567052506"><ele>526.0</ele><time>2026-04-25T12:21:05.999Z</time></trkpt><trkpt lat="44.80413536450208" lon="7.242225723593098"><ele>526.0</ele><time>2026-04-25T12:21:06.999Z</time></trkpt><trkpt lat="44.804056236953144" lon="7.242327006137518"><ele>520.8</ele><time>2026-04-25T12:21:07.998Z</time></trkpt><trkpt lat="44.803979765909084" lon="7.242433245516666"><ele>515.6</ele><time>2026-04-25T12:21:08.998Z</time></trkpt><trkpt lat="44.80391889124186" lon="7.24255501646673"><ele>510.4</ele><time>2026-04-25T12:21:09.998Z</time></trkpt><trkpt lat="44.803879523166664" lon="7.2426911772864475"><ele>505.2</ele><time>2026-04-25T12:21:10.998Z</time></trkpt><trkpt lat="44.80384669875709" lon="7.242836158813362"><ele>500.0</ele><time>2026-04-25T12:21:11.998Z</time></trkpt><trkpt lat="44.80381488732457" lon="7.242986365116816"><ele>500.25</ele><time>2026-04-25T12:21:12.998Z</time></trkpt><trkpt lat="44.803787852637" lon="7.243131520579383"><ele>500.5</ele><time>2026-04-25T12:21:13.998Z</time></trkpt><trkpt lat="44.80375809145199" lon="7.243278537465402"><ele>500.75</ele><time>2026-04-25T12:21:14.998Z</time></trkpt><trkpt lat="44.803727130153234" lon="7.243451752835921"><ele>501.0</ele><time>2026-04-25T12:21:15.998Z</time></trkpt><trkpt lat="44.80368721588977" lon="7.243620954697237"><ele>501.0</ele><time>2026-04-25T12:21:16.998Z</time></trkpt><trkpt lat="44.80365230835939" lon="7.243777120676368"><ele>501.0</ele><time>2026-04-25T12:21:17.998Z</time></trkpt><trkpt lat="44.80361680564737" lon="7.243932498051718"><ele>501.0</ele><time>2026-04-25T12:21:18.998Z</time></trkpt><trkpt lat="44.803585089557245" lon="7.24409274700948"><ele>501.0</ele><time>2026-04-25T12:21:19.998Z</time></trkpt><trkpt lat="44.80355299739021" lon="7.2442623788319205"><ele>500.0</ele><time>2026-04-25T12:21:20.998Z</time></trkpt><trkpt lat="44.80351667328961" lon="7.244425440533548"><ele>499.0</ele><time>2026-04-25T12:21:21.998Z</time></trkpt><trkpt lat="44.803478839795595" lon="7.244585852795202"><ele>498.0</ele><time>2026-04-25T12:21:22.998Z</time></trkpt><trkpt lat="44.8034387923806" lon="7.2447741485828825"><ele>497.0</ele><time>2026-04-25T12:21:23.998Z</time></trkpt><trkpt lat="44.803402730567065" lon="7.244949297209608"><ele>499.5</ele><time>2026-04-25T12:21:24.998Z</time></trkpt><trkpt lat="44.803365472523424" lon="7.245101655781878"><ele>502.0</ele><time>2026-04-25T12:21:25.998Z</time></trkpt><trkpt lat="44.80332052887192" lon="7.245255151290772"><ele>504.5</ele><time>2026-04-25T12:21:26.998Z</time></trkpt><trkpt lat="44.80325407615042" lon="7.245418089272265"><ele>507.0</ele><time>2026-04-25T12:21:27.998Z</time></trkpt><trkpt lat="44.80317582020526" lon="7.2455587823117815"><ele>506.5</ele><time>2026-04-25T12:21:28.998Z</time></trkpt><trkpt lat="44.803103183883394" lon="7.245696973930696"><ele>506.0</ele><time>2026-04-25T12:21:29.998Z</time></trkpt><trkpt lat="44.80303254154551" lon="7.245846073971902"><ele>505.5</ele><time>2026-04-25T12:21:30.998Z</time></trkpt><trkpt lat="44.80296964562718" lon="7.246017560846666"><ele>505.0</ele><time>2026-04-25T12:21:31.998Z</time></trkpt><trkpt lat="44.802919530472565" lon="7.246189944457211"><ele>505.0</ele><time>2026-04-25T12:21:32.998Z</time></trkpt><trkpt lat="44.80287299358057" lon="7.24635215657743"><ele>505.0</ele><time>2026-04-25T12:21:33.998Z</time></trkpt><trkpt lat="44.8028264480627" lon="7.246516066566683"><ele>505.0</ele><time>2026-04-25T12:21:34.998Z</time></trkpt><trkpt lat="44.80277851462295" lon="7.246699575248532"><ele>505.0</ele><time>2026-04-25T12:21:35.998Z</time></trkpt><trkpt lat="44.80272940930554" lon="7.246870260156454"><ele>504.25</ele><time>2026-04-25T12:21:36.998Z</time></trkpt><trkpt lat="44.802684754805775" lon="7.24702769698602"><ele>503.5</ele><time>2026-04-25T12:21:37.998Z</time></trkpt><trkpt lat="44.80263590460083" lon="7.247186652418278"><ele>502.75</ele><time>2026-04-25T12:21:38.998Z</time></trkpt><trkpt lat="44.80260560303599" lon="7.2473585582436595"><ele>502.0</ele><time>2026-04-25T12:21:39.998Z</time></trkpt><trkpt lat="44.80260323240329" lon="7.247539286780339"><ele>501.5</ele><time>2026-04-25T12:21:40.998Z</time></trkpt><trkpt lat="44.80263696679855" lon="7.247726200692098"><ele>501.0</ele><time>2026-04-25T12:21:41.998Z</time></trkpt><trkpt lat="44.80267929255663" lon="7.247914089142875"><ele>500.5</ele><time>2026-04-25T12:21:42.998Z</time></trkpt><trkpt lat="44.80271662054479" lon="7.248110386271943"><ele>500.0</ele><time>2026-04-25T12:21:43.998Z</time></trkpt><trkpt lat="44.802745906328425" lon="7.248319900385918"><ele>499.8</ele><time>2026-04-25T12:21:44.998Z</time></trkpt><trkpt lat="44.80277789253291" lon="7.24847559254658"><ele>499.6</ele><time>2026-04-25T12:21:45.998Z</time></trkpt><trkpt lat="44.802807103637015" lon="7.248620120804668"><ele>499.4</ele><time>2026-04-25T12:21:46.998Z</time></trkpt><trkpt lat="44.80284309864568" lon="7.248752790061146"><ele>499.2</ele><time>2026-04-25T12:21:47.998Z</time></trkpt><trkpt lat="44.80288476293999" lon="7.24888541969074"><ele>499.0</ele><time>2026-04-25T12:21:48.998Z</time></trkpt><trkpt lat="44.80293494625584" lon="7.2490185009913946"><ele>498.79999999999995</ele><time>2026-04-25T12:21:49.998Z</time></trkpt><trkpt lat="44.80298382096267" lon="7.249151877512464"><ele>498.59999999999997</ele><time>2026-04-25T12:21:50.998Z</time></trkpt><trkpt lat="44.80302577862725" lon="7.2492844964513665"><ele>498.4</ele><time>2026-04-25T12:21:51.998Z</time></trkpt><trkpt lat="44.80306331040823" lon="7.249411824664754"><ele>498.2</ele><time>2026-04-25T12:21:52.998Z</time></trkpt><trkpt lat="44.80309586950432" lon="7.249533596520882"><ele>498.0</ele><time>2026-04-25T12:21:53.997Z</time></trkpt><trkpt lat="44.80311405563599" lon="7.249638690742878"><ele>498.0</ele><time>2026-04-25T12:21:54.997Z</time></trkpt><trkpt lat="44.8031309064218" lon="7.249742333709397"><ele>497.99999999999994</ele><time>2026-04-25T12:21:56.997Z</time></trkpt><trkpt lat="44.802960152624124" lon="7.249780146727264"><ele>497.99999999999994</ele><time>2026-04-25T12:21:57.997Z</time></trkpt><trkpt lat="44.8028868055325" lon="7.24983043386589"><ele>498.0</ele><time>2026-04-25T12:21:58.997Z</time></trkpt><trkpt lat="44.80280026834486" lon="7.249847346833804"><ele>498.0</ele><time>2026-04-25T12:21:59.997Z</time></trkpt><trkpt lat="44.80270586839101" lon="7.249889535455754"><ele>500.0</ele><time>2026-04-25T12:22:00.997Z</time></trkpt><trkpt lat="44.802602885325136" lon="7.249926651378595"><ele>502.0</ele><time>2026-04-25T12:22:01.997Z</time></trkpt><trkpt lat="44.80252459604181" lon="7.249987021932041"><ele>504.0</ele><time>2026-04-25T12:22:02.997Z</time></trkpt><trkpt lat="44.80244353598285" lon="7.2500079629872545"><ele>506.0</ele><time>2026-04-25T12:22:03.997Z</time></trkpt><trkpt lat="44.80236486129922" lon="7.250008300621014"><ele>508.0</ele><time>2026-04-25T12:22:04.997Z</time></trkpt><trkpt lat="44.80228895896391" lon="7.25000137293815"><ele>510.0</ele><time>2026-04-25T12:22:05.997Z</time></trkpt><trkpt lat="44.80220842839871" lon="7.249991475158326"><ele>510.0</ele><time>2026-04-25T12:22:06.997Z</time></trkpt><trkpt lat="44.802135633836386" lon="7.250015818243321"><ele>510.0</ele><time>2026-04-25T12:22:08Z</time></trkpt><trkpt lat="44.80207575936562" lon="7.250082151060835"><ele>510.0</ele><time>2026-04-25T12:22:09Z</time></trkpt><trkpt lat="44.80201143330675" lon="7.250174649230648"><ele>510.0</ele><time>2026-04-25T12:22:10Z</time></trkpt><trkpt lat="44.80193954148582" lon="7.250265867805581"><ele>510.0</ele><time>2026-04-25T12:22:11Z</time></trkpt><trkpt lat="44.80186529988098" lon="7.250353842566041"><ele>510.0</ele><time>2026-04-25T12:22:12Z</time></trkpt><trkpt lat="44.80180988775088" lon="7.25043756107408"><ele>510.0</ele><time>2026-04-25T12:22:13Z</time></trkpt><trkpt lat="44.801756201863235" lon="7.250511765853565"><ele>510.0</ele><time>2026-04-25T12:22:14Z</time></trkpt><trkpt lat="44.80169995881308" lon="7.250575421669012"><ele>510.0</ele><time>2026-04-25T12:22:15Z</time></trkpt><trkpt lat="44.80158404058827" lon="7.250658393692141"><ele>510.0</ele><time>2026-04-25T12:22:17Z</time></trkpt><trkpt lat="44.801521515887856" lon="7.2507090994181285"><ele>510.0</ele><time>2026-04-25T12:22:18Z</time></trkpt><trkpt lat="44.80143272699478" lon="7.250736946930754"><ele>510.0</ele><time>2026-04-25T12:22:19Z</time></trkpt><trkpt lat="44.801342637377815" lon="7.250768958641309"><ele>510.0</ele><time>2026-04-25T12:22:20Z</time></trkpt><trkpt lat="44.80125999317072" lon="7.250784741747026"><ele>510.0</ele><time>2026-04-25T12:22:21Z</time></trkpt><trkpt lat="44.80118453909421" lon="7.250754891518341"><ele>510.0</ele><time>2026-04-25T12:22:22Z</time></trkpt><trkpt lat="44.80108077190032" lon="7.250715066421289"><ele>510.0</ele><time>2026-04-25T12:22:24Z</time></trkpt><trkpt lat="44.801039044263895" lon="7.250601930012318"><ele>510.0</ele><time>2026-04-25T12:22:25.999Z</time></trkpt><trkpt lat="44.8009952460621" lon="7.250528818075064"><ele>510.0</ele><time>2026-04-25T12:22:26.999Z</time></trkpt><trkpt lat="44.8009407402397" lon="7.250437831083779"><ele>511.6</ele><time>2026-04-25T12:22:27.999Z</time></trkpt><trkpt lat="44.800880692352514" lon="7.25033759342942"><ele>513.2</ele><time>2026-04-25T12:22:28.999Z</time></trkpt><trkpt lat="44.80080962857691" lon="7.2502230233240885"><ele>514.8</ele><time>2026-04-25T12:22:29.999Z</time></trkpt><trkpt lat="44.80073407717768" lon="7.25011091394632"><ele>516.4</ele><time>2026-04-25T12:22:30.999Z</time></trkpt><trkpt lat="44.80064017570474" lon="7.250006517451582"><ele>518.0</ele><time>2026-04-25T12:22:31.999Z</time></trkpt><trkpt lat="44.80054932406567" lon="7.249920349960783"><ele>518.0</ele><time>2026-04-25T12:22:32.999Z</time></trkpt><trkpt lat="44.80046754946243" lon="7.24984019602473"><ele>518.0</ele><time>2026-04-25T12:22:33.999Z</time></trkpt><trkpt lat="44.80039111843502" lon="7.249756653357379"><ele>518.0</ele><time>2026-04-25T12:22:34.999Z</time></trkpt><trkpt lat="44.800318185788534" lon="7.249663267666214"><ele>518.0</ele><time>2026-04-25T12:22:35.999Z</time></trkpt><trkpt lat="44.800254135153374" lon="7.249558998292447"><ele>518.0</ele><time>2026-04-25T12:22:36.999Z</time></trkpt><trkpt lat="44.80019773088354" lon="7.2494483305575566"><ele>519.25</ele><time>2026-04-25T12:22:37.999Z</time></trkpt><trkpt lat="44.800151988687794" lon="7.249331472725036"><ele>520.5</ele><time>2026-04-25T12:22:38.999Z</time></trkpt><trkpt lat="44.80010754408213" lon="7.2491805287054225"><ele>521.75</ele><time>2026-04-25T12:22:39.999Z</time></trkpt><trkpt lat="44.800061274898816" lon="7.249018591253476"><ele>523.0</ele><time>2026-04-25T12:22:40.999Z</time></trkpt><trkpt lat="44.799990997853925" lon="7.248870682415399"><ele>524.75</ele><time>2026-04-25T12:22:41.999Z</time></trkpt><trkpt lat="44.79990989259438" lon="7.248736302899273"><ele>526.5</ele><time>2026-04-25T12:22:42.999Z</time></trkpt><trkpt lat="44.79983841945014" lon="7.248603278890863"><ele>528.25</ele><time>2026-04-25T12:22:43.999Z</time></trkpt><trkpt lat="44.79975667472647" lon="7.248476911855331"><ele>530.0</ele><time>2026-04-25T12:22:44.999Z</time></trkpt><trkpt lat="44.79966486113106" lon="7.248347775664549"><ele>530.0</ele><time>2026-04-25T12:22:45.999Z</time></trkpt><trkpt lat="44.799571263742465" lon="7.2482338806161595"><ele>530.0</ele><time>2026-04-25T12:22:46.999Z</time></trkpt><trkpt lat="44.79946579057761" lon="7.2481597386498855"><ele>530.0</ele><time>2026-04-25T12:22:47.999Z</time></trkpt><trkpt lat="44.799380386381195" lon="7.248058375280991"><ele>530.0</ele><time>2026-04-25T12:22:48.999Z</time></trkpt><trkpt lat="44.799296074050886" lon="7.2480003373099295"><ele>530.0</ele><time>2026-04-25T12:22:49.999Z</time></trkpt><trkpt lat="44.799214347861714" lon="7.247980325372411"><ele>531.6666666666666</ele><time>2026-04-25T12:22:50.999Z</time></trkpt><trkpt lat="44.79914889576274" lon="7.247944231871927"><ele>533.3333333333333</ele><time>2026-04-25T12:22:51.999Z</time></trkpt><trkpt lat="44.79906418502061" lon="7.24786928288138"><ele>535.0</ele><time>2026-04-25T12:22:53.999Z</time></trkpt><trkpt lat="44.79899210733508" lon="7.247806900618706"><ele>536.6666666666666</ele><time>2026-04-25T12:22:56.999Z</time></trkpt><trkpt lat="44.79891242386197" lon="7.2477047417911304"><ele>538.3333333333334</ele><time>2026-04-25T12:22:58.999Z</time></trkpt><trkpt lat="44.79889615939716" lon="7.247603020699001"><ele>540.0</ele><time>2026-04-25T12:22:59.999Z</time></trkpt><trkpt lat="44.798817670242464" lon="7.24754388743541"><ele>540.0</ele><time>2026-04-25T12:23:00.999Z</time></trkpt><trkpt lat="44.79877018807091" lon="7.247416677984252"><ele>540.0</ele><time>2026-04-25T12:23:01.999Z</time></trkpt><trkpt lat="44.79872016203219" lon="7.247275569179234"><ele>540.0</ele><time>2026-04-25T12:23:02.999Z</time></trkpt><trkpt lat="44.79866876311672" lon="7.247151413683571"><ele>540.0</ele><time>2026-04-25T12:23:03.999Z</time></trkpt><trkpt lat="44.798602193654716" lon="7.247015103729287"><ele>540.0</ele><time>2026-04-25T12:23:04.999Z</time></trkpt><trkpt lat="44.798489792032285" lon="7.246925608331471"><ele>542.5</ele><time>2026-04-25T12:23:05.999Z</time></trkpt><trkpt lat="44.79838089017426" lon="7.246854183699149"><ele>545.0</ele><time>2026-04-25T12:23:06.999Z</time></trkpt><trkpt lat="44.79827893240823" lon="7.246795715704949"><ele>547.5</ele><time>2026-04-25T12:23:07.999Z</time></trkpt><trkpt lat="44.79817047566189" lon="7.246738655004541"><ele>550.0</ele><time>2026-04-25T12:23:08.999Z</time></trkpt><trkpt lat="44.79805820484713" lon="7.246685554334635"><ele>550.0</ele><time>2026-04-25T12:23:09.999Z</time></trkpt><trkpt lat="44.79794354314362" lon="7.246640967388354"><ele>550.0</ele><time>2026-04-25T12:23:10.999Z</time></trkpt><trkpt lat="44.79783108179908" lon="7.246588040136634"><ele>550.0</ele><time>2026-04-25T12:23:11.999Z</time></trkpt><trkpt lat="44.79772873896411" lon="7.246532606797219"><ele>550.0</ele><time>2026-04-25T12:23:12.998Z</time></trkpt><trkpt lat="44.79763554998553" lon="7.246477497589777"><ele>550.0</ele><time>2026-04-25T12:23:13.998Z</time></trkpt><trkpt lat="44.79754495842339" lon="7.2464179693522155"><ele>553.4</ele><time>2026-04-25T12:23:14.998Z</time></trkpt><trkpt lat="44.79745569343563" lon="7.246357985909839"><ele>556.8</ele><time>2026-04-25T12:23:15.998Z</time></trkpt><trkpt lat="44.79736440771102" lon="7.2462913023428115"><ele>560.2</ele><time>2026-04-25T12:23:16.998Z</time></trkpt><trkpt lat="44.79725501057987" lon="7.24626800421461"><ele>563.6</ele><time>2026-04-25T12:23:17.998Z</time></trkpt><trkpt lat="44.797147560912876" lon="7.246325889059303"><ele>567.0</ele><time>2026-04-25T12:23:18.998Z</time></trkpt><trkpt lat="44.79705150354434" lon="7.2463232636492085"><ele>567.0</ele><time>2026-04-25T12:23:19.998Z</time></trkpt><trkpt lat="44.79697557155036" lon="7.246321841368661"><ele>567.0</ele><time>2026-04-25T12:23:20.998Z</time></trkpt><trkpt lat="44.796907506980524" lon="7.246304703173432"><ele>567.0</ele><time>2026-04-25T12:23:21.998Z</time></trkpt><trkpt lat="44.79685809162583" lon="7.246158211216129"><ele>567.0</ele><time>2026-04-25T12:23:23.998Z</time></trkpt><trkpt lat="44.79685964544769" lon="7.246064497769659"><ele>567.0</ele><time>2026-04-25T12:23:25.998Z</time></trkpt><trkpt lat="44.79686312048692" lon="7.245926229856811"><ele>567.0</ele><time>2026-04-25T12:23:42.998Z</time></trkpt><trkpt lat="44.79667358077304" lon="7.245883067032265"><ele>568.4</ele><time>2026-04-25T12:23:45.998Z</time></trkpt><trkpt lat="44.796600749974246" lon="7.2458738968151435"><ele>569.8000000000001</ele><time>2026-04-25T12:23:46.998Z</time></trkpt><trkpt lat="44.79651282495661" lon="7.245872766876079"><ele>571.2</ele><time>2026-04-25T12:23:47.998Z</time></trkpt><trkpt lat="44.796426922246354" lon="7.2458818119041855"><ele>572.6</ele><time>2026-04-25T12:23:48.998Z</time></trkpt><trkpt lat="44.79633641518778" lon="7.2459035900729285"><ele>574.0</ele><time>2026-04-25T12:23:49.998Z</time></trkpt><trkpt lat="44.79622639621345" lon="7.245932480233053"><ele>574.0</ele><time>2026-04-25T12:23:50.998Z</time></trkpt><trkpt lat="44.796127291280065" lon="7.245946564818396"><ele>574.0</ele><time>2026-04-25T12:23:51.998Z</time></trkpt><trkpt lat="44.79603513474168" lon="7.2459521551503006"><ele>574.0</ele><time>2026-04-25T12:23:52.998Z</time></trkpt><trkpt lat="44.79594499987607" lon="7.245956649937371"><ele>574.0</ele><time>2026-04-25T12:23:53.998Z</time></trkpt><trkpt lat="44.79584745433723" lon="7.24594342709217"><ele>574.0</ele><time>2026-04-25T12:23:54.998Z</time></trkpt><trkpt lat="44.79574315410651" lon="7.245912098739934"><ele>574.5</ele><time>2026-04-25T12:23:55.998Z</time></trkpt><trkpt lat="44.79564761913113" lon="7.245879451337042"><ele>575.0</ele><time>2026-04-25T12:23:56.998Z</time></trkpt><trkpt lat="44.795538236676954" lon="7.24585703189056"><ele>575.5</ele><time>2026-04-25T12:23:57.998Z</time></trkpt><trkpt lat="44.79541840687087" lon="7.245878223986759"><ele>576.0</ele><time>2026-04-25T12:23:58.998Z</time></trkpt><trkpt lat="44.795301390598944" lon="7.245928497606815"><ele>576.0</ele><time>2026-04-25T12:23:59.997Z</time></trkpt><trkpt lat="44.795202239758666" lon="7.245962994747844"><ele>576.0</ele><time>2026-04-25T12:24:00.997Z</time></trkpt><trkpt lat="44.79510100396464" lon="7.245993143713487"><ele>576.0</ele><time>2026-04-25T12:24:01.997Z</time></trkpt><trkpt lat="44.79501272851329" lon="7.246017740912812"><ele>576.0</ele><time>2026-04-25T12:24:02.997Z</time></trkpt><trkpt lat="44.79493509396547" lon="7.246038188363187"><ele>576.0</ele><time>2026-04-25T12:24:03.997Z</time></trkpt><trkpt lat="44.794857913558026" lon="7.246034179797968"><ele>577.2</ele><time>2026-04-25T12:24:04.997Z</time></trkpt><trkpt lat="44.79478500841185" lon="7.246032028544345"><ele>578.4000000000001</ele><time>2026-04-25T12:24:06.997Z</time></trkpt><trkpt lat="44.79468559797047" lon="7.246023023680768"><ele>579.6</ele><time>2026-04-25T12:24:28Z</time></trkpt><trkpt lat="44.794589634658294" lon="7.245990905792898"><ele>580.8000000000001</ele><time>2026-04-25T12:24:32.999Z</time></trkpt><trkpt lat="44.79451380390561" lon="7.24595268841621"><ele>582.0</ele><time>2026-04-25T12:24:34.999Z</time></trkpt><trkpt lat="44.794391576820246" lon="7.245860488862363"><ele>583.5</ele><time>2026-04-25T12:24:36.999Z</time></trkpt><trkpt lat="44.79431137422632" lon="7.2457390274609"><ele>585.0</ele><time>2026-04-25T12:24:38.999Z</time></trkpt><trkpt lat="44.79426411408417" lon="7.2456694036517035"><ele>586.5</ele><time>2026-04-25T12:24:39.999Z</time></trkpt><trkpt lat="44.794223596400194" lon="7.245579811887088"><ele>588.0</ele><time>2026-04-25T12:24:40.999Z</time></trkpt><trkpt lat="44.79418388345141" lon="7.245489057394579"><ele>589.5</ele><time>2026-04-25T12:24:41.999Z</time></trkpt><trkpt lat="44.794120048930125" lon="7.2454218188898905"><ele>591.0</ele><time>2026-04-25T12:24:42.999Z</time></trkpt><trkpt lat="44.794032234803645" lon="7.245387091525974"><ele>594.0</ele><time>2026-04-25T12:24:43.999Z</time></trkpt><trkpt lat="44.79395148735058" lon="7.2453594858725765"><ele>597.0</ele><time>2026-04-25T12:24:44.999Z</time></trkpt><trkpt lat="44.79386841878056" lon="7.2453431399281065"><ele>600.0</ele><time>2026-04-25T12:24:45.999Z</time></trkpt><trkpt lat="44.79377396573749" lon="7.245351190217777"><ele>603.0</ele><time>2026-04-25T12:24:47.999Z</time></trkpt><trkpt lat="44.793636020684595" lon="7.245398349828987"><ele>606.0</ele><time>2026-04-25T12:24:49.999Z</time></trkpt><trkpt lat="44.79353664938366" lon="7.245390104964179"><ele>606.2</ele><time>2026-04-25T12:24:50.999Z</time></trkpt><trkpt lat="44.79343410428685" lon="7.245409044519877"><ele>606.4000000000001</ele><time>2026-04-25T12:24:51.999Z</time></trkpt><trkpt lat="44.79333833054235" lon="7.245424404288919"><ele>606.6</ele><time>2026-04-25T12:24:52.999Z</time></trkpt><trkpt lat="44.79325678326555" lon="7.245394774885215"><ele>606.8000000000001</ele><time>2026-04-25T12:24:53.999Z</time></trkpt><trkpt lat="44.79318272671937" lon="7.245332664667252"><ele>607.0</ele><time>2026-04-25T12:24:54.999Z</time></trkpt><trkpt lat="44.793100568918184" lon="7.245290499620159"><ele>607.0</ele><time>2026-04-25T12:24:55.999Z</time></trkpt><trkpt lat="44.793014658752135" lon="7.245289425986334"><ele>607.0</ele><time>2026-04-25T12:24:56.999Z</time></trkpt><trkpt lat="44.79291253490989" lon="7.2453009286506855"><ele>607.0</ele><time>2026-04-25T12:24:57.999Z</time></trkpt><trkpt lat="44.79280535668092" lon="7.245300601522422"><ele>607.0</ele><time>2026-04-25T12:24:58.999Z</time></trkpt><trkpt lat="44.79270819226484" lon="7.245298699570837"><ele>607.0</ele><time>2026-04-25T12:24:59.999Z</time></trkpt><trkpt lat="44.79259775945091" lon="7.245302989553867"><ele>609.0</ele><time>2026-04-25T12:25:00.999Z</time></trkpt><trkpt lat="44.792495066637706" lon="7.245315730615694"><ele>611.0</ele><time>2026-04-25T12:25:01.999Z</time></trkpt><trkpt lat="44.79240499145117" lon="7.245310738467199"><ele>613.0</ele><time>2026-04-25T12:25:02.999Z</time></trkpt><trkpt lat="44.7923187786602" lon="7.24530538044124"><ele>615.0</ele><time>2026-04-25T12:25:03.999Z</time></trkpt><trkpt lat="44.79222314897592" lon="7.245312977732518"><ele>617.0</ele><time>2026-04-25T12:25:04.999Z</time></trkpt><trkpt lat="44.79211450804495" lon="7.245355993325703"><ele>617.0</ele><time>2026-04-25T12:25:05.999Z</time></trkpt><trkpt lat="44.792032469905884" lon="7.245407439154925"><ele>617.0</ele><time>2026-04-25T12:25:06.999Z</time></trkpt><trkpt lat="44.791924617402316" lon="7.245454386689471"><ele>617.0</ele><time>2026-04-25T12:25:07.999Z</time></trkpt><trkpt lat="44.79182306361589" lon="7.24546803930967"><ele>617.0</ele><time>2026-04-25T12:25:08.999Z</time></trkpt><trkpt lat="44.791733328181095" lon="7.245482190877338"><ele>617.0</ele><time>2026-04-25T12:25:09.999Z</time></trkpt><trkpt lat="44.79164511799104" lon="7.245496670126025"><ele>620.6</ele><time>2026-04-25T12:25:10.999Z</time></trkpt><trkpt lat="44.791561317348474" lon="7.245493963382325"><ele>624.2</ele><time>2026-04-25T12:25:11.999Z</time></trkpt><trkpt lat="44.7914751190581" lon="7.2454926545081"><ele>627.8</ele><time>2026-04-25T12:25:12.999Z</time></trkpt><trkpt lat="44.79138444823294" lon="7.245471353831604"><ele>631.4</ele><time>2026-04-25T12:25:13.999Z</time></trkpt><trkpt lat="44.79127703562545" lon="7.24544061136344"><ele>635.0</ele><time>2026-04-25T12:25:14.999Z</time></trkpt><trkpt lat="44.791182228186514" lon="7.245401462223391"><ele>635.0</ele><time>2026-04-25T12:25:15.999Z</time></trkpt><trkpt lat="44.791108564685565" lon="7.245366973198135"><ele>635.0</ele><time>2026-04-25T12:25:16.998Z</time></trkpt><trkpt lat="44.79101571864289" lon="7.2453533572217275"><ele>635.0</ele><time>2026-04-25T12:25:17.998Z</time></trkpt><trkpt lat="44.79091515974701" lon="7.245329187306697"><ele>635.0</ele><time>2026-04-25T12:25:18.998Z</time></trkpt><trkpt lat="44.79083364064843" lon="7.245313985234344"><ele>635.0</ele><time>2026-04-25T12:25:19.998Z</time></trkpt><trkpt lat="44.790747860677854" lon="7.2453025455630184"><ele>635.0</ele><time>2026-04-25T12:25:20.998Z</time></trkpt><trkpt lat="44.790654089700894" lon="7.245268513703476"><ele>637.6</ele><time>2026-04-25T12:25:21.998Z</time></trkpt><trkpt lat="44.790560458322425" lon="7.245226477783635"><ele>640.2</ele><time>2026-04-25T12:25:22.998Z</time></trkpt><trkpt lat="44.79045923973025" lon="7.245224481371179"><ele>642.8</ele><time>2026-04-25T12:25:23.998Z</time></trkpt><trkpt lat="44.790384328084244" lon="7.24521911517232"><ele>645.4</ele><time>2026-04-25T12:25:24.998Z</time></trkpt><trkpt lat="44.79026016922786" lon="7.2452846318271105"><ele>648.0</ele><time>2026-04-25T12:25:26.998Z</time></trkpt><trkpt lat="44.790158444115754" lon="7.245312161359942"><ele>649.2</ele><time>2026-04-25T12:25:27.998Z</time></trkpt><trkpt lat="44.7900479478474" lon="7.24530317139854"><ele>650.4</ele><time>2026-04-25T12:25:28.998Z</time></trkpt><trkpt lat="44.78995106404203" lon="7.2453104230239"><ele>651.6</ele><time>2026-04-25T12:25:29.998Z</time></trkpt><trkpt lat="44.789876018451444" lon="7.2453492178055425"><ele>652.8000000000001</ele><time>2026-04-25T12:25:30.998Z</time></trkpt><trkpt lat="44.78974599798223" lon="7.245402262238553"><ele>654.0</ele><time>2026-04-25T12:25:32.998Z</time></trkpt><trkpt lat="44.78967236429261" lon="7.245398622593895"><ele>654.0</ele><time>2026-04-25T12:25:33.998Z</time></trkpt><trkpt lat="44.78960479243062" lon="7.245407827854547"><ele>654.0</ele><time>2026-04-25T12:25:34.998Z</time></trkpt><trkpt lat="44.78952923895675" lon="7.245439701809727"><ele>654.0</ele><time>2026-04-25T12:25:35.998Z</time></trkpt><trkpt lat="44.789463601371544" lon="7.245476440517497"><ele>654.0</ele><time>2026-04-25T12:25:36.998Z</time></trkpt><trkpt lat="44.789395956047294" lon="7.245594778102431"><ele>654.0</ele><time>2026-04-25T12:25:38.998Z</time></trkpt><trkpt lat="44.789297336953474" lon="7.245665409517343"><ele>654.0</ele><time>2026-04-25T12:25:40.998Z</time></trkpt><trkpt lat="44.78921762347023" lon="7.245636486980217"><ele>656.0</ele><time>2026-04-25T12:25:41.998Z</time></trkpt><trkpt lat="44.78913644147527" lon="7.2456108841353934"><ele>658.0</ele><time>2026-04-25T12:25:42.998Z</time></trkpt><trkpt lat="44.789012517601655" lon="7.245627777432829"><ele>660.0</ele><time>2026-04-25T12:25:43.998Z</time></trkpt><trkpt lat="44.788900789364924" lon="7.245659694116609"><ele>662.0</ele><time>2026-04-25T12:25:44.998Z</time></trkpt><trkpt lat="44.78882351995011" lon="7.245692703717076"><ele>664.0</ele><time>2026-04-25T12:25:45.998Z</time></trkpt><trkpt lat="44.788732705485394" lon="7.245781198046022"><ele>664.0</ele><time>2026-04-25T12:25:47.998Z</time></trkpt><trkpt lat="44.78867398520134" lon="7.245817345394131"><ele>664.0</ele><time>2026-04-25T12:25:48.998Z</time></trkpt><trkpt lat="44.788572016550766" lon="7.245806355626687"><ele>664.0</ele><time>2026-04-25T12:25:50.998Z</time></trkpt><trkpt lat="44.78850838848744" lon="7.245762077476318"><ele>664.0</ele><time>2026-04-25T12:25:52.998Z</time></trkpt><trkpt lat="44.78844042238072" lon="7.245844576124082"><ele>664.0</ele><time>2026-04-25T12:25:55.998Z</time></trkpt><trkpt lat="44.78840101402995" lon="7.245919051757596"><ele>664.0</ele><time>2026-04-25T12:25:57.998Z</time></trkpt><trkpt lat="44.788308870822455" lon="7.246004493155"><ele>666.0</ele><time>2026-04-25T12:26:00.998Z</time></trkpt><trkpt lat="44.78822305242342" lon="7.246046972670545"><ele>668.0</ele><time>2026-04-25T12:26:02.998Z</time></trkpt><trkpt lat="44.788158599676116" lon="7.246073037428139"><ele>670.0</ele><time>2026-04-25T12:26:04.997Z</time></trkpt><trkpt lat="44.7877666711644" lon="7.246141333137618"><ele>674.2</ele><time>2026-04-25T12:26:06.997Z</time></trkpt><trkpt lat="44.78765161566894" lon="7.246132205003361"><ele>678.4</ele><time>2026-04-25T12:26:08.997Z</time></trkpt><trkpt lat="44.787534006351926" lon="7.246124727692845"><ele>682.5999999999999</ele><time>2026-04-25T12:26:10.997Z</time></trkpt><trkpt lat="44.78745576163372" lon="7.2461208763944756"><ele>686.8</ele><time>2026-04-25T12:26:11.997Z</time></trkpt><trkpt lat="44.78738218565604" lon="7.246123704423534"><ele>691.0</ele><time>2026-04-25T12:26:12.997Z</time></trkpt><trkpt lat="44.78731596492591" lon="7.246131488868205"><ele>691.0</ele><time>2026-04-25T12:26:13.997Z</time></trkpt><trkpt lat="44.787246355733835" lon="7.246137268717633"><ele>691.0</ele><time>2026-04-25T12:26:14.997Z</time></trkpt><trkpt lat="44.78717443434594" lon="7.246131394480146"><ele>691.0</ele><time>2026-04-25T12:26:15.997Z</time></trkpt><trkpt lat="44.787105182494905" lon="7.246122224755696"><ele>691.0</ele><time>2026-04-25T12:26:16.997Z</time></trkpt><trkpt lat="44.786991862691764" lon="7.246141431218843"><ele>691.0</ele><time>2026-04-25T12:26:18.997Z</time></trkpt><trkpt lat="44.78692674267682" lon="7.246155150262519"><ele>691.0</ele><time>2026-04-25T12:26:20Z</time></trkpt><trkpt lat="44.78684020166895" lon="7.24617161268978"><ele>692.5</ele><time>2026-04-25T12:26:21Z</time></trkpt><trkpt lat="44.78676405749553" lon="7.246180754270901"><ele>694.0</ele><time>2026-04-25T12:26:21.999Z</time></trkpt><trkpt lat="44.786688325722345" lon="7.246178483365675"><ele>695.5</ele><time>2026-04-25T12:26:23Z</time></trkpt><trkpt lat="44.78661548067405" lon="7.246172986581477"><ele>697.0</ele><time>2026-04-25T12:26:24Z</time></trkpt><trkpt lat="44.786534478526015" lon="7.246172201163598"><ele>698.5</ele><time>2026-04-25T12:26:24.999Z</time></trkpt><trkpt lat="44.786459543367" lon="7.246166716674183"><ele>700.0</ele><time>2026-04-25T12:26:26Z</time></trkpt><trkpt lat="44.786333993056545" lon="7.246146555334815"><ele>700.0</ele><time>2026-04-25T12:26:27.999Z</time></trkpt><trkpt lat="44.78626864106102" lon="7.2462498498795345"><ele>700.0</ele><time>2026-04-25T12:26:30Z</time></trkpt><trkpt lat="44.78618608782049" lon="7.246296670552743"><ele>700.0</ele><time>2026-04-25T12:26:30.999Z</time></trkpt><trkpt lat="44.78609324577577" lon="7.246338890242488"><ele>700.0</ele><time>2026-04-25T12:26:31.999Z</time></trkpt><trkpt lat="44.786017728234114" lon="7.246363233270238"><ele>700.0</ele><time>2026-04-25T12:26:33Z</time></trkpt><trkpt lat="44.7859131908403" lon="7.24635952997173"><ele>701.0</ele><time>2026-04-25T12:26:34.999Z</time></trkpt><trkpt lat="44.78583691687326" lon="7.246371282149154"><ele>702.0</ele><time>2026-04-25T12:26:35.999Z</time></trkpt><trkpt lat="44.78576706640228" lon="7.246427009575053"><ele>703.0</ele><time>2026-04-25T12:26:37.999Z</time></trkpt><trkpt lat="44.7857151690983" lon="7.246483967791279"><ele>704.0</ele><time>2026-04-25T12:26:38.999Z</time></trkpt><trkpt lat="44.78563324012261" lon="7.246540160743854"><ele>705.0</ele><time>2026-04-25T12:26:40.999Z</time></trkpt><trkpt lat="44.785568952041295" lon="7.246492503489077"><ele>706.0</ele><time>2026-04-25T12:26:43.999Z</time></trkpt><trkpt lat="44.78553714942912" lon="7.2464046345250805"><ele>706.0</ele><time>2026-04-25T12:26:45.999Z</time></trkpt><trkpt lat="44.78546791158646" lon="7.246366387654285"><ele>706.0</ele><time>2026-04-25T12:26:47.999Z</time></trkpt><trkpt lat="44.785412782679316" lon="7.246472107625771"><ele>706.0</ele><time>2026-04-25T12:26:49.999Z</time></trkpt><trkpt lat="44.78543213557003" lon="7.246568609482772"><ele>706.0</ele><time>2026-04-25T12:26:50.999Z</time></trkpt><trkpt lat="44.785294622171385" lon="7.246550762051752"><ele>706.0</ele><time>2026-04-25T12:26:53.999Z</time></trkpt><trkpt lat="44.785236516669904" lon="7.246509689044988"><ele>706.0</ele><time>2026-04-25T12:26:54.999Z</time></trkpt><trkpt lat="44.78516608520495" lon="7.246458014909731"><ele>709.2857142857142</ele><time>2026-04-25T12:26:57.999Z</time></trkpt><trkpt lat="44.78509437898934" lon="7.246539874916139"><ele>712.5714285714287</ele><time>2026-04-25T12:27:00.999Z</time></trkpt><trkpt lat="44.785033678641376" lon="7.246569588409622"><ele>715.8571428571429</ele><time>2026-04-25T12:27:04.999Z</time></trkpt><trkpt lat="44.78496472247959" lon="7.246581045270182"><ele>719.1428571428571</ele><time>2026-04-25T12:27:09Z</time></trkpt><trkpt lat="44.78490521689487" lon="7.246546670293699"><ele>722.4285714285713</ele><time>2026-04-25T12:27:17Z</time></trkpt><trkpt lat="44.78485507230579" lon="7.246471529879718"><ele>725.7142857142858</ele><time>2026-04-25T12:27:20Z</time></trkpt><trkpt lat="44.78481975208794" lon="7.246368614596124"><ele>729.0</ele><time>2026-04-25T12:27:21.999Z</time></trkpt><trkpt lat="44.78476549611425" lon="7.2464573040522975"><ele>729.0</ele><time>2026-04-25T12:27:27.999Z</time></trkpt><trkpt lat="44.784693256982735" lon="7.246461689948224"><ele>729.0</ele><time>2026-04-25T12:28:39Z</time></trkpt><trkpt lat="44.78465541617963" lon="7.246360953054662"><ele>729.0</ele><time>2026-04-25T12:33:21Z</time></trkpt><trkpt lat="44.78465354324143" lon="7.246253631563276"><ele>729.0</ele><time>2026-04-25T12:33:23Z</time></trkpt><trkpt lat="44.78462685219763" lon="7.2460983293562435"><ele>729.0</ele><time>2026-04-25T12:33:25Z</time></trkpt><trkpt lat="44.78456293510691" lon="7.24607183254924"><ele>729.0</ele><time>2026-04-25T12:33:28Z</time></trkpt><trkpt lat="44.784486833453144" lon="7.2461243521638945"><ele>733.6</ele><time>2026-04-25T12:33:34.999Z</time></trkpt><trkpt lat="44.78439127175272" lon="7.246158084468718"><ele>738.2</ele><time>2026-04-25T12:33:37.999Z</time></trkpt><trkpt lat="44.78432266869055" lon="7.246084643546216"><ele>742.8000000000001</ele><time>2026-04-25T12:33:39.999Z</time></trkpt><trkpt lat="44.78437944402189" lon="7.245924969457225"><ele>747.4000000000001</ele><time>2026-04-25T12:33:41.999Z</time></trkpt><trkpt lat="44.784439140365464" lon="7.245830004088246"><ele>752.0</ele><time>2026-04-25T12:33:42.999Z</time></trkpt><trkpt lat="44.78445400116762" lon="7.245721748773631"><ele>752.0</ele><time>2026-04-25T12:33:44.999Z</time></trkpt><trkpt lat="44.784353020342174" lon="7.2457591836126785"><ele>752.0</ele><time>2026-04-25T12:33:47.999Z</time></trkpt><trkpt lat="44.78429616909045" lon="7.245812213997723"><ele>752.0</ele><time>2026-04-25T12:33:48.999Z</time></trkpt><trkpt lat="44.78422481635079" lon="7.245801413409703"><ele>752.0</ele><time>2026-04-25T12:33:50.999Z</time></trkpt><trkpt lat="44.784199686727575" lon="7.245892272099541"><ele>752.0</ele><time>2026-04-25T12:33:54.999Z</time></trkpt><trkpt lat="44.78412651606818" lon="7.245985347471254"><ele>752.0</ele><time>2026-04-25T12:34:13.999Z</time></trkpt><trkpt lat="44.78409072108603" lon="7.246086912665814"><ele>755.8</ele><time>2026-04-25T12:34:16.999Z</time></trkpt><trkpt lat="44.78404751301176" lon="7.246194596940102"><ele>759.6</ele><time>2026-04-25T12:34:18.999Z</time></trkpt><trkpt lat="44.78398779424573" lon="7.246281914981935"><ele>763.4</ele><time>2026-04-25T12:34:20.998Z</time></trkpt><trkpt lat="44.78398890137155" lon="7.246374170500009"><ele>767.1999999999999</ele><time>2026-04-25T12:34:22.998Z</time></trkpt><trkpt lat="44.78399521071345" lon="7.246524080478301"><ele>771.0</ele><time>2026-04-25T12:34:24.998Z</time></trkpt><trkpt lat="44.7839436631436" lon="7.246652258476774"><ele>771.0</ele><time>2026-04-25T12:34:26.998Z</time></trkpt><trkpt lat="44.783876732637125" lon="7.246581299335621"><ele>771.0</ele><time>2026-04-25T12:34:28.998Z</time></trkpt><trkpt lat="44.78382856529602" lon="7.246462728829843"><ele>771.0</ele><time>2026-04-25T12:34:30.998Z</time></trkpt><trkpt lat="44.78376800566315" lon="7.246405035297597"><ele>771.0</ele><time>2026-04-25T12:34:32.998Z</time></trkpt><trkpt lat="44.78371634819981" lon="7.2462169982331455"><ele>771.0</ele><time>2026-04-25T12:34:34.998Z</time></trkpt><trkpt lat="44.78368698185428" lon="7.246117262423038"><ele>772.3333333333334</ele><time>2026-04-25T12:34:35.998Z</time></trkpt><trkpt lat="44.78367779114688" lon="7.245997292944346"><ele>773.6666666666667</ele><time>2026-04-25T12:34:38.998Z</time></trkpt><trkpt lat="44.783654643151834" lon="7.24583215383437"><ele>775.0</ele><time>2026-04-25T12:34:42.998Z</time></trkpt><trkpt lat="44.78365250339612" lon="7.245737847776473"><ele>776.3333333333334</ele><time>2026-04-25T12:34:48Z</time></trkpt><trkpt lat="44.78364657837745" lon="7.245649461992202"><ele>777.6666666666667</ele><time>2026-04-25T12:35:10Z</time></trkpt><trkpt lat="44.78362711549089" lon="7.245543566767261"><ele>779.0</ele><time>2026-04-25T12:35:13Z</time></trkpt><trkpt lat="44.78359443148718" lon="7.245457682860976"><ele>779.0000000000001</ele><time>2026-04-25T12:35:17Z</time></trkpt><trkpt lat="44.78357472381604" lon="7.245569739730715"><ele>779.0</ele><time>2026-04-25T12:35:20Z</time></trkpt><trkpt lat="44.78354826703192" lon="7.245705831054579"><ele>779.0</ele><time>2026-04-25T12:35:23Z</time></trkpt><trkpt lat="44.783487017632076" lon="7.245802383285145"><ele>779.0</ele><time>2026-04-25T12:35:26Z</time></trkpt><trkpt lat="44.783437359355304" lon="7.245886365417972"><ele>779.0000000000001</ele><time>2026-04-25T12:35:29Z</time></trkpt><trkpt lat="44.78337537136958" lon="7.245964464796102"><ele>779.0</ele><time>2026-04-25T12:35:38.999Z</time></trkpt><trkpt lat="44.78335969524917" lon="7.246075676713359"><ele>786.2</ele><time>2026-04-25T12:35:43.999Z</time></trkpt><trkpt lat="44.78334366839142" lon="7.246184475523494"><ele>793.4000000000001</ele><time>2026-04-25T12:35:45.999Z</time></trkpt><trkpt lat="44.78327348175784" lon="7.2462860818290995"><ele>800.6</ele><time>2026-04-25T12:35:48.999Z</time></trkpt><trkpt lat="44.78321230623156" lon="7.246386017222235"><ele>807.8</ele><time>2026-04-25T12:35:50.999Z</time></trkpt><trkpt lat="44.783148981089234" lon="7.246473148752407"><ele>815.0</ele><time>2026-04-25T12:35:53.999Z</time></trkpt><trkpt lat="44.783068602582105" lon="7.2464190206414445"><ele>817.6</ele><time>2026-04-25T12:35:55.999Z</time></trkpt><trkpt lat="44.78300573943348" lon="7.246354239785035"><ele>820.2</ele><time>2026-04-25T12:35:57.999Z</time></trkpt><trkpt lat="44.782963099756564" lon="7.246232432449912"><ele>822.8</ele><time>2026-04-25T12:36:00.999Z</time></trkpt><trkpt lat="44.78292197274627" lon="7.246115889885909"><ele>825.4</ele><time>2026-04-25T12:36:02.999Z</time></trkpt><trkpt lat="44.782868425472145" lon="7.246011305800068"><ele>828.0</ele><time>2026-04-25T12:36:04.999Z</time></trkpt><trkpt lat="44.78286527142203" lon="7.245872813256605"><ele>828.0</ele><time>2026-04-25T12:36:07.999Z</time></trkpt><trkpt lat="44.78284333367211" lon="7.245778292123789"><ele>828.0</ele><time>2026-04-25T12:36:09.999Z</time></trkpt><trkpt lat="44.78281977855967" lon="7.245692182126415"><ele>828.0</ele><time>2026-04-25T12:36:12.999Z</time></trkpt><trkpt lat="44.7827871573091" lon="7.245602162688819"><ele>828.0</ele><time>2026-04-25T12:36:14.999Z</time></trkpt><trkpt lat="44.78277239201324" lon="7.245441285644224"><ele>828.0</ele><time>2026-04-25T12:36:47.998Z</time></trkpt><trkpt lat="44.78277936580837" lon="7.2453309838589295"><ele>828.0</ele><time>2026-04-25T12:36:52Z</time></trkpt><trkpt lat="44.78275035382542" lon="7.245205061058872"><ele>830.3333333333334</ele><time>2026-04-25T12:36:54Z</time></trkpt><trkpt lat="44.782742844519966" lon="7.2451128878760676"><ele>832.6666666666667</ele><time>2026-04-25T12:36:56Z</time></trkpt><trkpt lat="44.78268069593063" lon="7.2450898869306455"><ele>835.0</ele><time>2026-04-25T12:37:02Z</time></trkpt><trkpt lat="44.78262140958263" lon="7.245169257963197"><ele>837.3333333333334</ele><time>2026-04-25T12:37:05Z</time></trkpt><trkpt lat="44.78252445142382" lon="7.245237747708171"><ele>839.6666666666667</ele><time>2026-04-25T12:37:07Z</time></trkpt><trkpt lat="44.78242785448249" lon="7.24520678746821"><ele>842.0</ele><time>2026-04-25T12:37:09Z</time></trkpt><trkpt lat="44.782376673829354" lon="7.245141606180721"><ele>847.1428571428572</ele><time>2026-04-25T12:37:12Z</time></trkpt><trkpt lat="44.782312664736104" lon="7.245124930992035"><ele>852.2857142857143</ele><time>2026-04-25T12:39:53.999Z</time></trkpt><trkpt lat="44.782310619112515" lon="7.245021001762156"><ele>857.4285714285714</ele><time>2026-04-25T13:02:02Z</time></trkpt><trkpt lat="44.78236970516173" lon="7.245078243352475"><ele>862.5714285714287</ele><time>2026-04-25T13:02:26.999Z</time></trkpt><trkpt lat="44.7823431723516" lon="7.244985103479048"><ele>867.7142857142857</ele><time>2026-04-25T13:02:32.999Z</time></trkpt><trkpt lat="44.78232558101598" lon="7.244889520306088"><ele>872.8571428571429</ele><time>2026-04-25T13:02:35.999Z</time></trkpt><trkpt lat="44.782311127323744" lon="7.244793116527703"><ele>878.0</ele><time>2026-04-25T13:02:38.999Z</time></trkpt><trkpt lat="44.782345440133746" lon="7.244711665661825"><ele>881.8333333333334</ele><time>2026-04-25T13:02:41.999Z</time></trkpt><trkpt lat="44.78235549003621" lon="7.244606175857932"><ele>885.6666666666667</ele><time>2026-04-25T13:02:44.999Z</time></trkpt><trkpt lat="44.7823067149273" lon="7.244514354098327"><ele>889.5</ele><time>2026-04-25T13:02:47.999Z</time></trkpt><trkpt lat="44.782259804891325" lon="7.244441756599957"><ele>893.3333333333333</ele><time>2026-04-25T13:02:49.999Z</time></trkpt><trkpt lat="44.78222574955565" lon="7.244342735621432"><ele>897.1666666666666</ele><time>2026-04-25T13:02:52.999Z</time></trkpt><trkpt lat="44.782180687906056" lon="7.244261119102672"><ele>901.0</ele><time>2026-04-25T13:02:55.999Z</time></trkpt><trkpt lat="44.78214735715204" lon="7.244069422738773"><ele>900.9999999999999</ele><time>2026-04-25T13:02:58.999Z</time></trkpt><trkpt lat="44.78208930760893" lon="7.244004703443623"><ele>901.0</ele><time>2026-04-25T13:03:01.999Z</time></trkpt><trkpt lat="44.782032193120465" lon="7.243902500136771"><ele>901.0</ele><time>2026-04-25T13:03:03.999Z</time></trkpt><trkpt lat="44.7819921190103" lon="7.24382906820914"><ele>901.0</ele><time>2026-04-25T13:03:05.999Z</time></trkpt><trkpt lat="44.78201935534027" lon="7.243701581519121"><ele>900.9999999999999</ele><time>2026-04-25T13:03:09.999Z</time></trkpt><trkpt lat="44.78195567069198" lon="7.243698347050045"><ele>901.0</ele><time>2026-04-25T13:04:07Z</time></trkpt><trkpt lat="44.78202474353026" lon="7.243644529665135"><ele>905.1666666666666</ele><time>2026-04-25T13:04:29.999Z</time></trkpt><trkpt lat="44.7821078454663" lon="7.243597694107652"><ele>909.3333333333333</ele><time>2026-04-25T13:04:32.999Z</time></trkpt><trkpt lat="44.782146752545614" lon="7.243492097558652"><ele>913.5</ele><time>2026-04-25T13:04:36.999Z</time></trkpt><trkpt lat="44.78219660853966" lon="7.243423255208814"><ele>917.6666666666667</ele><time>2026-04-25T13:04:40.999Z</time></trkpt><trkpt lat="44.78225553003574" lon="7.243351011847283"><ele>921.8333333333334</ele><time>2026-04-25T13:04:43.999Z</time></trkpt><trkpt lat="44.78230331818536" lon="7.243285834278157"><ele>926.0</ele><time>2026-04-25T13:04:45.999Z</time></trkpt><trkpt lat="44.78232113996073" lon="7.243182798816534"><ele>928.1428571428571</ele><time>2026-04-25T13:04:48.999Z</time></trkpt><trkpt lat="44.78233328557584" lon="7.243090712663415"><ele>930.2857142857142</ele><time>2026-04-25T13:04:51.999Z</time></trkpt><trkpt lat="44.78234340351626" lon="7.242976426889732"><ele>932.4285714285713</ele><time>2026-04-25T13:04:54.999Z</time></trkpt><trkpt lat="44.78233314040994" lon="7.242875702824521"><ele>934.5714285714284</ele><time>2026-04-25T13:04:57.999Z</time></trkpt><trkpt lat="44.78234537774555" lon="7.242785455304121"><ele>936.7142857142857</ele><time>2026-04-25T13:05:01.999Z</time></trkpt><trkpt lat="44.78236137690727" lon="7.242686647883742"><ele>938.8571428571427</ele><time>2026-04-25T13:05:20.998Z</time></trkpt><trkpt lat="44.78229485201636" lon="7.2426625295399925"><ele>940.9999999999999</ele><time>2026-04-25T13:05:26.998Z</time></trkpt><trkpt lat="44.78222516306167" lon="7.242644987193934"><ele>941.0000000000001</ele><time>2026-04-25T13:05:34.998Z</time></trkpt><trkpt lat="44.7821602439788" lon="7.242653797408592"><ele>941.0</ele><time>2026-04-25T13:05:39.998Z</time></trkpt><trkpt lat="44.78209264916799" lon="7.242664963783196"><ele>941.0</ele><time>2026-04-25T13:05:51.998Z</time></trkpt><trkpt lat="44.78203377612057" lon="7.242617067258243"><ele>941.0</ele><time>2026-04-25T13:05:54.998Z</time></trkpt><trkpt lat="44.781978307665625" lon="7.2425242517901305"><ele>941.0000000000001</ele><time>2026-04-25T13:05:58.998Z</time></trkpt><trkpt lat="44.781944157083295" lon="7.24243180347226"><ele>941.0</ele><time>2026-04-25T13:06:02.998Z</time></trkpt><trkpt lat="44.78188275611281" lon="7.242329955891823"><ele>942.8</ele><time>2026-04-25T13:06:05.998Z</time></trkpt><trkpt lat="44.781851797684524" lon="7.2422254504446"><ele>944.5999999999999</ele><time>2026-04-25T13:06:09Z</time></trkpt><trkpt lat="44.78178173885891" lon="7.242162640736393"><ele>946.4</ele><time>2026-04-25T13:06:11Z</time></trkpt><trkpt lat="44.78172868890946" lon="7.2420781779425765"><ele>948.2</ele><time>2026-04-25T13:06:14Z</time></trkpt><trkpt lat="44.78165595741295" lon="7.241976240303485"><ele>950.0</ele><time>2026-04-25T13:06:17Z</time></trkpt><trkpt lat="44.78159832853986" lon="7.24184250471903"><ele>955.8333333333334</ele><time>2026-04-25T13:06:19Z</time></trkpt><trkpt lat="44.781545036707726" lon="7.241701847708974"><ele>961.6666666666667</ele><time>2026-04-25T13:06:21Z</time></trkpt><trkpt lat="44.78153840146174" lon="7.241571373044106"><ele>967.5</ele><time>2026-04-25T13:06:24Z</time></trkpt><trkpt lat="44.78157280171305" lon="7.24148332697994"><ele>973.3333333333333</ele><time>2026-04-25T13:06:25Z</time></trkpt><trkpt lat="44.78164622539041" lon="7.2414290090628946"><ele>979.1666666666666</ele><time>2026-04-25T13:06:27Z</time></trkpt><trkpt lat="44.7816309931853" lon="7.241341596774582"><ele>985.0</ele><time>2026-04-25T13:06:28Z</time></trkpt><trkpt lat="44.78159531726091" lon="7.2412618554880055"><ele>984.9999999999999</ele><time>2026-04-25T13:06:29Z</time></trkpt><trkpt lat="44.781526351946155" lon="7.241229015289271"><ele>985.0</ele><time>2026-04-25T13:06:41.999Z</time></trkpt><trkpt lat="44.78157077748776" lon="7.241334645337079"><ele>985.0</ele><time>2026-04-25T13:08:18Z</time></trkpt><trkpt lat="44.78155737260568" lon="7.241430683320456"><ele>985.0</ele><time>2026-04-25T13:08:20Z</time></trkpt><trkpt lat="44.781478334728604" lon="7.241460908424663"><ele>984.9999999999999</ele><time>2026-04-25T13:08:22Z</time></trkpt><trkpt lat="44.7814418126927" lon="7.241572899174057"><ele>985.0</ele><time>2026-04-25T13:08:24Z</time></trkpt><trkpt lat="44.78149546607862" lon="7.241695222184206"><ele>984.9999999999999</ele><time>2026-04-25T13:08:26Z</time></trkpt><trkpt lat="44.78154556349692" lon="7.241794075027859"><ele>985.0</ele><time>2026-04-25T13:08:28Z</time></trkpt><trkpt lat="44.78159551263651" lon="7.241884531026861"><ele>985.0</ele><time>2026-04-25T13:08:30Z</time></trkpt><trkpt lat="44.78164878199937" lon="7.241981637597306"><ele>985.0</ele><time>2026-04-25T13:08:32Z</time></trkpt><trkpt lat="44.78172350988117" lon="7.242034865676137"><ele>984.9999999999999</ele><time>2026-04-25T13:08:34Z</time></trkpt><trkpt lat="44.7817569626176" lon="7.242130602094243"><ele>985.0</ele><time>2026-04-25T13:08:36Z</time></trkpt><trkpt lat="44.781821253968246" lon="7.242204233094963"><ele>984.9999999999999</ele><time>2026-04-25T13:08:37.999Z</time></trkpt><trkpt lat="44.78183137393327" lon="7.242295578406325"><ele>985.0</ele><time>2026-04-25T13:08:39.999Z</time></trkpt><trkpt lat="44.78188566158602" lon="7.242375764869064"><ele>985.0</ele><time>2026-04-25T13:08:41.999Z</time></trkpt><trkpt lat="44.78196172145149" lon="7.242454151838164"><ele>985.0</ele><time>2026-04-25T13:08:44.999Z</time></trkpt><trkpt lat="44.78197899912474" lon="7.2425484900035455"><ele>984.9999999999999</ele><time>2026-04-25T13:08:46.999Z</time></trkpt><trkpt lat="44.78203223221806" lon="7.242651233370605"><ele>985.0</ele><time>2026-04-25T13:08:48.999Z</time></trkpt><trkpt lat="44.78213815026299" lon="7.242693276399804"><ele>978.7142857142858</ele><time>2026-04-25T13:13:02.999Z</time></trkpt><trkpt lat="44.7822169598305" lon="7.242708239045437"><ele>972.4285714285716</ele><time>2026-04-25T13:13:22.999Z</time></trkpt><trkpt lat="44.7822749820604" lon="7.2426691029220525"><ele>966.1428571428571</ele><time>2026-04-25T13:13:43.998Z</time></trkpt><trkpt lat="44.782337344119846" lon="7.242652779425933"><ele>959.8571428571429</ele><time>2026-04-25T13:13:57.998Z</time></trkpt><trkpt lat="44.782349374061376" lon="7.242754815593188"><ele>953.5714285714286</ele><time>2026-04-25T13:15:01.999Z</time></trkpt><trkpt lat="44.78234072614224" lon="7.24284885435501"><ele>947.2857142857142</ele><time>2026-04-25T13:15:04.999Z</time></trkpt><trkpt lat="44.78237646644382" lon="7.2429268828236735"><ele>940.9999999999999</ele><time>2026-04-25T13:15:56.998Z</time></trkpt><trkpt lat="44.78235376772615" lon="7.243010459664611"><ele>940.9999999999999</ele><time>2026-04-25T13:16:46Z</time></trkpt><trkpt lat="44.78235643009257" lon="7.243100399098528"><ele>941.0</ele><time>2026-04-25T13:16:58.999Z</time></trkpt><trkpt lat="44.78233051465893" lon="7.243183256456139"><ele>940.9999999999999</ele><time>2026-04-25T13:17:00.999Z</time></trkpt><trkpt lat="44.78227527790392" lon="7.243240721258742"><ele>940.9999999999999</ele><time>2026-04-25T13:17:02.999Z</time></trkpt><trkpt lat="44.78222303613581" lon="7.243316375709735"><ele>941.0</ele><time>2026-04-25T13:17:05.999Z</time></trkpt><trkpt lat="44.78218040817361" lon="7.243384112483514"><ele>940.9999999999999</ele><time>2026-04-25T13:17:08.999Z</time></trkpt><trkpt lat="44.78214455336912" lon="7.243466249394588"><ele>940.9999999999999</ele><time>2026-04-25T13:17:11.999Z</time></trkpt><trkpt lat="44.782103584852834" lon="7.243556099834216"><ele>941.0000000000001</ele><time>2026-04-25T13:17:24.999Z</time></trkpt><trkpt lat="44.78216863391379" lon="7.2435295409151985"><ele>941.0</ele><time>2026-04-25T13:17:46.998Z</time></trkpt><trkpt lat="44.782212018498804" lon="7.243434083351639"><ele>941.0</ele><time>2026-04-25T13:17:50.998Z</time></trkpt><trkpt lat="44.782280855203425" lon="7.243353592242196"><ele>941.0</ele><time>2026-04-25T13:17:55.998Z</time></trkpt><trkpt lat="44.782332801787845" lon="7.2432846463406335"><ele>941.0000000000001</ele><time>2026-04-25T13:17:57.998Z</time></trkpt><trkpt lat="44.78235012220745" lon="7.243191124414435"><ele>941.0</ele><time>2026-04-25T13:18:00.998Z</time></trkpt><trkpt lat="44.78238118220418" lon="7.243095498822841"><ele>941.0000000000001</ele><time>2026-04-25T13:18:15.998Z</time></trkpt><trkpt lat="44.78238108475977" lon="7.242965151722178"><ele>941.0</ele><time>2026-04-25T13:18:50Z</time></trkpt><trkpt lat="44.782390181771035" lon="7.242857520399225"><ele>941.0</ele><time>2026-04-25T13:18:54Z</time></trkpt><trkpt lat="44.78237961750346" lon="7.242743249764164"><ele>941.0</ele><time>2026-04-25T13:19:01Z</time></trkpt><trkpt lat="44.782330434224036" lon="7.242674736116477"><ele>941.0000000000001</ele><time>2026-04-25T13:19:09Z</time></trkpt><trkpt lat="44.78226827529859" lon="7.242655358049507"><ele>941.0</ele><time>2026-04-25T13:19:12Z</time></trkpt><trkpt lat="44.78220076294908" lon="7.242645457166561"><ele>941.0000000000001</ele><time>2026-04-25T13:19:19Z</time></trkpt><trkpt lat="44.782133730232964" lon="7.242648910703682"><ele>941.0</ele><time>2026-04-25T13:20:36.998Z</time></trkpt><trkpt lat="44.78206265958854" lon="7.242655134756495"><ele>941.0</ele><time>2026-04-25T13:25:40Z</time></trkpt><trkpt lat="44.78200890140019" lon="7.242584154328097"><ele>941.0</ele><time>2026-04-25T13:25:43Z</time></trkpt><trkpt lat="44.78197334665624" lon="7.242494782422467"><ele>941.0000000000001</ele><time>2026-04-25T13:25:46Z</time></trkpt><trkpt lat="44.78191229407898" lon="7.2424012561926485"><ele>941.0</ele><time>2026-04-25T13:25:49Z</time></trkpt><trkpt lat="44.78185135743355" lon="7.2423022559969406"><ele>948.3333333333334</ele><time>2026-04-25T13:25:51Z</time></trkpt><trkpt lat="44.78180984170865" lon="7.24220938943174"><ele>955.6666666666667</ele><time>2026-04-25T13:25:54Z</time></trkpt><trkpt lat="44.781757344308964" lon="7.242124580018116"><ele>963.0</ele><time>2026-04-25T13:25:56.999Z</time></trkpt><trkpt lat="44.78170675284617" lon="7.242039410872338"><ele>970.3333333333333</ele><time>2026-04-25T13:25:59.999Z</time></trkpt><trkpt lat="44.781659279246924" lon="7.241957300264534"><ele>977.6666666666666</ele><time>2026-04-25T13:26:01.999Z</time></trkpt><trkpt lat="44.78161163066938" lon="7.241845257406872"><ele>985.0</ele><time>2026-04-25T13:26:04.999Z</time></trkpt><trkpt lat="44.781579147912794" lon="7.241742941505154"><ele>985.0</ele><time>2026-04-25T13:26:06.999Z</time></trkpt><trkpt lat="44.78159159058345" lon="7.241625331894359"><ele>985.0</ele><time>2026-04-25T13:26:09.999Z</time></trkpt><trkpt lat="44.781630475833886" lon="7.241531341795522"><ele>985.0</ele><time>2026-04-25T13:26:12.999Z</time></trkpt><trkpt lat="44.78160535172049" lon="7.241443586067368"><ele>985.0</ele><time>2026-04-25T13:26:14.999Z</time></trkpt><trkpt lat="44.78156065794135" lon="7.241313720227329"><ele>985.0</ele><time>2026-04-25T13:26:17.999Z</time></trkpt><trkpt lat="44.781505350730875" lon="7.2411650823571785"><ele>988.2857142857143</ele><time>2026-04-25T13:27:37Z</time></trkpt><trkpt lat="44.78150977838834" lon="7.241039423057431"><ele>991.5714285714287</ele><time>2026-04-25T13:27:46Z</time></trkpt><trkpt lat="44.78148854295274" lon="7.241122944288633"><ele>994.8571428571429</ele><time>2026-04-25T13:28:13.999Z</time></trkpt><trkpt lat="44.7815605190223" lon="7.241156941767281"><ele>998.1428571428571</ele><time>2026-04-25T13:28:22.999Z</time></trkpt><trkpt lat="44.78147974685889" lon="7.241125707915043"><ele>1001.4285714285714</ele><time>2026-04-25T13:28:33.999Z</time></trkpt><trkpt lat="44.78149969108392" lon="7.241218517976768"><ele>1004.7142857142858</ele><time>2026-04-25T13:28:41.999Z</time></trkpt><trkpt lat="44.78153789413469" lon="7.241146089955321"><ele>1008.0</ele><time>2026-04-25T13:29:30Z</time></trkpt><trkpt lat="44.781502795880726" lon="7.241028172945225"><ele>1008.0</ele><time>2026-04-25T13:29:32Z</time></trkpt><trkpt lat="44.78143889070848" lon="7.240987464211796"><ele>1008.0</ele><time>2026-04-25T13:30:08.999Z</time></trkpt><trkpt lat="44.78139089981358" lon="7.240912105792328"><ele>1008.0</ele><time>2026-04-25T13:30:11.999Z</time></trkpt><trkpt lat="44.78131765572686" lon="7.240818412530533"><ele>1008.0</ele><time>2026-04-25T13:30:14.999Z</time></trkpt><trkpt lat="44.78126813088675" lon="7.240719618805428"><ele>1008.0</ele><time>2026-04-25T13:30:16.999Z</time></trkpt><trkpt lat="44.78121478468331" lon="7.240617644662246"><ele>1008.0</ele><time>2026-04-25T13:30:19.999Z</time></trkpt><trkpt lat="44.781176155491444" lon="7.240542881688402"><ele>1008.0</ele><time>2026-04-25T13:31:55Z</time></trkpt><trkpt lat="44.78117504505964" lon="7.240453680648842"><ele>1008.0</ele><time>2026-04-25T13:32:02Z</time></trkpt><trkpt lat="44.78112530508199" lon="7.2403647835825655"><ele>1008.0</ele><time>2026-04-25T13:32:20.999Z</time></trkpt><trkpt lat="44.78106036018366" lon="7.24033560704465"><ele>1008.0</ele><time>2026-04-25T13:32:51.998Z</time></trkpt><trkpt lat="44.781096218694366" lon="7.240415517098771"><ele>1008.0</ele><time>2026-04-25T13:32:55.998Z</time></trkpt><trkpt lat="44.781092279210405" lon="7.240513701216217"><ele>1008.0</ele><time>2026-04-25T13:34:04Z</time></trkpt><trkpt lat="44.78111756368407" lon="7.240601235398844"><ele>1008.0</ele><time>2026-04-25T13:34:08.999Z</time></trkpt><trkpt lat="44.781166796840814" lon="7.240673050970127"><ele>1008.0</ele><time>2026-04-25T13:34:19.999Z</time></trkpt><trkpt lat="44.78120546617553" lon="7.2407534872756445"><ele>1008.0</ele><time>2026-04-25T13:34:21.999Z</time></trkpt><trkpt lat="44.781285578278" lon="7.240878087422055"><ele>1008.0</ele><time>2026-04-25T13:34:23.999Z</time></trkpt><trkpt lat="44.78136683789544" lon="7.240969153015807"><ele>1008.0</ele><time>2026-04-25T13:34:25.999Z</time></trkpt><trkpt lat="44.78145588217015" lon="7.24108195547795"><ele>1008.0</ele><time>2026-04-25T13:34:27.999Z</time></trkpt><trkpt lat="44.78153221306682" lon="7.241169036824648"><ele>1008.0</ele><time>2026-04-25T13:34:29.999Z</time></trkpt><trkpt lat="44.781588476484096" lon="7.241119446300535"><ele>1008.0</ele><time>2026-04-25T13:34:34.999Z</time></trkpt><trkpt lat="44.78167637690442" lon="7.240985160878403"><ele>1008.0</ele><time>2026-04-25T13:34:51.999Z</time></trkpt><trkpt lat="44.78175617633088" lon="7.240786404793792"><ele>1008.0</ele><time>2026-04-25T13:34:53.999Z</time></trkpt><trkpt lat="44.78189348203225" lon="7.240629264450338"><ele>1004.0</ele><time>2026-04-25T13:34:54.998Z</time></trkpt><trkpt lat="44.782024819805244" lon="7.24047642918172"><ele>1000.0</ele><time>2026-04-25T13:34:55.998Z</time></trkpt><trkpt lat="44.78212464041071" lon="7.24030700378005"><ele>996.0</ele><time>2026-04-25T13:34:56.998Z</time></trkpt><trkpt lat="44.78220393873858" lon="7.240130244556814"><ele>996.0</ele><time>2026-04-25T13:34:57.998Z</time></trkpt><trkpt lat="44.782298935729834" lon="7.2399526097506275"><ele>996.0</ele><time>2026-04-25T13:34:58.998Z</time></trkpt><trkpt lat="44.78239102831442" lon="7.239800579008809"><ele>996.0</ele><time>2026-04-25T13:34:59.998Z</time></trkpt><trkpt lat="44.78250721290409" lon="7.239663714962292"><ele>997.0</ele><time>2026-04-25T13:35:00.998Z</time></trkpt><trkpt lat="44.78263048330345" lon="7.2395155498185675"><ele>998.0</ele><time>2026-04-25T13:35:01.998Z</time></trkpt><trkpt lat="44.782734968714266" lon="7.239367741873105"><ele>999.0</ele><time>2026-04-25T13:35:02.998Z</time></trkpt><trkpt lat="44.7828238342786" lon="7.239243366586813"><ele>1000.0</ele><time>2026-04-25T13:35:03.998Z</time></trkpt><trkpt lat="44.78290202336321" lon="7.239089203580902"><ele>1000.6</ele><time>2026-04-25T13:35:04.998Z</time></trkpt><trkpt lat="44.78296513535812" lon="7.238913673740572"><ele>1001.2</ele><time>2026-04-25T13:35:05.998Z</time></trkpt><trkpt lat="44.782994936921625" lon="7.23878528036882"><ele>1001.8</ele><time>2026-04-25T13:35:06.998Z</time></trkpt><trkpt lat="44.78295108522228" lon="7.238687828771751"><ele>1002.4</ele><time>2026-04-25T13:35:09.998Z</time></trkpt><trkpt lat="44.78285265265634" lon="7.238759883810196"><ele>1003.0</ele><time>2026-04-25T13:35:21.998Z</time></trkpt><trkpt lat="44.782741423019" lon="7.238827086890841"><ele>1003.2</ele><time>2026-04-25T13:35:23.998Z</time></trkpt><trkpt lat="44.7826708426632" lon="7.238878657568038"><ele>1003.4</ele><time>2026-04-25T13:35:24.998Z</time></trkpt><trkpt lat="44.78257998860298" lon="7.2389382176780455"><ele>1003.6000000000001</ele><time>2026-04-25T13:35:25.998Z</time></trkpt><trkpt lat="44.782499897619886" lon="7.2390025786482814"><ele>1003.8000000000001</ele><time>2026-04-25T13:35:27Z</time></trkpt><trkpt lat="44.78242043795975" lon="7.239045645838883"><ele>1004.0</ele><time>2026-04-25T13:35:28Z</time></trkpt><trkpt lat="44.78230928102312" lon="7.239015061142793"><ele>1004.0</ele><time>2026-04-25T13:35:29Z</time></trkpt><trkpt lat="44.78215474985225" lon="7.238947550564463"><ele>1004.0</ele><time>2026-04-25T13:35:30Z</time></trkpt><trkpt lat="44.781995268845435" lon="7.238931020282488"><ele>1004.0</ele><time>2026-04-25T13:35:31Z</time></trkpt><trkpt lat="44.78184893832197" lon="7.2388984012226345"><ele>1006.75</ele><time>2026-04-25T13:35:32Z</time></trkpt><trkpt lat="44.78169611299744" lon="7.238859215229745"><ele>1009.5</ele><time>2026-04-25T13:35:33Z</time></trkpt><trkpt lat="44.78154051538265" lon="7.2388153363770575"><ele>1012.25</ele><time>2026-04-25T13:35:34Z</time></trkpt><trkpt lat="44.78140834605203" lon="7.238779081337756"><ele>1015.0</ele><time>2026-04-25T13:35:35Z</time></trkpt><trkpt lat="44.781302393396814" lon="7.238761364734557"><ele>1015.0</ele><time>2026-04-25T13:35:36Z</time></trkpt><trkpt lat="44.78120559689045" lon="7.238744460438399"><ele>1015.0</ele><time>2026-04-25T13:35:37Z</time></trkpt><trkpt lat="44.78112298275089" lon="7.238706092030504"><ele>1015.0</ele><time>2026-04-25T13:35:38Z</time></trkpt><trkpt lat="44.78103277381531" lon="7.23865963720852"><ele>1015.0</ele><time>2026-04-25T13:35:39Z</time></trkpt><trkpt lat="44.78093131803513" lon="7.23863604011176"><ele>1015.0</ele><time>2026-04-25T13:35:40Z</time></trkpt><trkpt lat="44.7808373125979" lon="7.238603243147379"><ele>1018.6666666666666</ele><time>2026-04-25T13:35:41Z</time></trkpt><trkpt lat="44.78077002133867" lon="7.238549693219882"><ele>1022.3333333333333</ele><time>2026-04-25T13:35:42Z</time></trkpt><trkpt lat="44.78071234581871" lon="7.23848963282307"><ele>1026.0</ele><time>2026-04-25T13:35:43Z</time></trkpt><trkpt lat="44.780646342865" lon="7.238449215641543"><ele>1029.6666666666667</ele><time>2026-04-25T13:35:44Z</time></trkpt><trkpt lat="44.780519577724036" lon="7.2385216834419275"><ele>1033.3333333333335</ele><time>2026-04-25T13:35:46Z</time></trkpt><trkpt lat="44.780460001976245" lon="7.238601636583617"><ele>1037.0</ele><time>2026-04-25T13:35:47Z</time></trkpt><trkpt lat="44.78040323526639" lon="7.238657305591873"><ele>1037.0</ele><time>2026-04-25T13:35:48Z</time></trkpt><trkpt lat="44.78034028066784" lon="7.238589680264641"><ele>1037.0</ele><time>2026-04-25T13:35:50Z</time></trkpt><trkpt lat="44.78025896764442" lon="7.2384917653754375"><ele>1037.0</ele><time>2026-04-25T13:35:51Z</time></trkpt><trkpt lat="44.780158604906916" lon="7.238469231588616"><ele>1037.0</ele><time>2026-04-25T13:35:52Z</time></trkpt><trkpt lat="44.78010158586589" lon="7.238523257056185"><ele>1037.0</ele><time>2026-04-25T13:35:53Z</time></trkpt><trkpt lat="44.780032833265935" lon="7.238508954181018"><ele>1037.0</ele><time>2026-04-25T13:35:54Z</time></trkpt><trkpt lat="44.77995142230472" lon="7.238403051021112"><ele>1040.0</ele><time>2026-04-25T13:35:55Z</time></trkpt><trkpt lat="44.7798478856145" lon="7.238274368950893"><ele>1043.0</ele><time>2026-04-25T13:35:56Z</time></trkpt><trkpt lat="44.77973071104542" lon="7.23816601779258"><ele>1046.0</ele><time>2026-04-25T13:35:57Z</time></trkpt><trkpt lat="44.77966370666309" lon="7.23803991613274"><ele>1049.0</ele><time>2026-04-25T13:35:58Z</time></trkpt><trkpt lat="44.77959456480408" lon="7.237937715417411"><ele>1049.0</ele><time>2026-04-25T13:35:59Z</time></trkpt><trkpt lat="44.77953018174387" lon="7.237899217210015"><ele>1049.0</ele><time>2026-04-25T13:36:00Z</time></trkpt><trkpt lat="44.779452638850415" lon="7.237870577500965"><ele>1049.0</ele><time>2026-04-25T13:36:01Z</time></trkpt><trkpt lat="44.779384869664995" lon="7.237849020299804"><ele>1049.0</ele><time>2026-04-25T13:36:02Z</time></trkpt><trkpt lat="44.77931657159986" lon="7.237798098956971"><ele>1049.0</ele><time>2026-04-25T13:36:03Z</time></trkpt><trkpt lat="44.77926138016759" lon="7.237640493763319"><ele>1049.0</ele><time>2026-04-25T13:36:05Z</time></trkpt><trkpt lat="44.77921063596424" lon="7.237561211536236"><ele>1051.8333333333335</ele><time>2026-04-25T13:36:06Z</time></trkpt><trkpt lat="44.77915535480504" lon="7.237504420697094"><ele>1054.6666666666667</ele><time>2026-04-25T13:36:07Z</time></trkpt><trkpt lat="44.779056147476076" lon="7.237465313243839"><ele>1057.5</ele><time>2026-04-25T13:36:08.999Z</time></trkpt><trkpt lat="44.77904195373916" lon="7.237344442649673"><ele>1060.3333333333333</ele><time>2026-04-25T13:36:10.999Z</time></trkpt><trkpt lat="44.77895544516122" lon="7.237300659471153"><ele>1063.1666666666665</ele><time>2026-04-25T13:36:12.999Z</time></trkpt><trkpt lat="44.77889087745043" lon="7.237249450621941"><ele>1066.0</ele><time>2026-04-25T13:36:14.999Z</time></trkpt><trkpt lat="44.7786752687282" lon="7.237140453205646"><ele>1066.0</ele><time>2026-04-25T13:36:16.999Z</time></trkpt><trkpt lat="44.77862427610207" lon="7.23707732502615"><ele>1066.0</ele><time>2026-04-25T13:36:17.999Z</time></trkpt><trkpt lat="44.778579647202626" lon="7.2369898164088164"><ele>1066.0</ele><time>2026-04-25T13:36:18.999Z</time></trkpt><trkpt lat="44.77855077142936" lon="7.236879399390754"><ele>1066.0</ele><time>2026-04-25T13:36:19.999Z</time></trkpt><trkpt lat="44.77852431370811" lon="7.236795406761943"><ele>1066.0</ele><time>2026-04-25T13:36:20.999Z</time></trkpt><trkpt lat="44.77849097831725" lon="7.2367190649358"><ele>1066.0</ele><time>2026-04-25T13:36:21.999Z</time></trkpt><trkpt lat="44.778386922553125" lon="7.236660961325056"><ele>1072.0</ele><time>2026-04-25T13:36:23.999Z</time></trkpt><trkpt lat="44.77828089675459" lon="7.236614341661071"><ele>1078.0</ele><time>2026-04-25T13:36:25.999Z</time></trkpt><trkpt lat="44.77818131790428" lon="7.236630926083811"><ele>1084.0</ele><time>2026-04-25T13:36:27.999Z</time></trkpt><trkpt lat="44.7780484794794" lon="7.2366995518630635"><ele>1090.0</ele><time>2026-04-25T13:36:29.999Z</time></trkpt><trkpt lat="44.77792416490892" lon="7.236745293936756"><ele>1090.0</ele><time>2026-04-25T13:36:30.999Z</time></trkpt><trkpt lat="44.77780772137256" lon="7.236786418866296"><ele>1090.0</ele><time>2026-04-25T13:36:31.999Z</time></trkpt><trkpt lat="44.777702968622954" lon="7.236826266356492"><ele>1090.0</ele><time>2026-04-25T13:36:32.999Z</time></trkpt><trkpt lat="44.777612502991445" lon="7.236849578928423"><ele>1090.0</ele><time>2026-04-25T13:36:33.999Z</time></trkpt><trkpt lat="44.77749003260693" lon="7.236887548729121"><ele>1090.0</ele><time>2026-04-25T13:36:35.999Z</time></trkpt><trkpt lat="44.77736435470882" lon="7.236920959735239"><ele>1091.0</ele><time>2026-04-25T13:36:37.999Z</time></trkpt><trkpt lat="44.77729067421353" lon="7.2369691252604875"><ele>1092.0</ele><time>2026-04-25T13:36:38.999Z</time></trkpt><trkpt lat="44.77722378381175" lon="7.237029906628804"><ele>1093.0</ele><time>2026-04-25T13:36:39.999Z</time></trkpt><trkpt lat="44.77713806654131" lon="7.237063969557799"><ele>1094.0</ele><time>2026-04-25T13:36:40.999Z</time></trkpt><trkpt lat="44.77706196322132" lon="7.237076836813828"><ele>1095.0</ele><time>2026-04-25T13:36:41.999Z</time></trkpt><trkpt lat="44.77690956962392" lon="7.237066607968426"><ele>1097.8</ele><time>2026-04-25T13:36:43.999Z</time></trkpt><trkpt lat="44.77679914219895" lon="7.237071590100336"><ele>1100.6</ele><time>2026-04-25T13:36:44.999Z</time></trkpt><trkpt lat="44.77671809007711" lon="7.23708599668947"><ele>1103.4</ele><time>2026-04-25T13:36:45.999Z</time></trkpt><trkpt lat="44.776604973490535" lon="7.237160268867552"><ele>1106.2</ele><time>2026-04-25T13:36:47.999Z</time></trkpt><trkpt lat="44.77650604686287" lon="7.237227935527362"><ele>1109.0</ele><time>2026-04-25T13:36:49.999Z</time></trkpt><trkpt lat="44.776431084748225" lon="7.237305673018433"><ele>1109.0</ele><time>2026-04-25T13:36:51.999Z</time></trkpt><trkpt lat="44.776386108716174" lon="7.237237273442613"><ele>1109.0</ele><time>2026-04-25T13:36:53.999Z</time></trkpt><trkpt lat="44.77634243545481" lon="7.2371668618868235"><ele>1109.0</ele><time>2026-04-25T13:36:55.999Z</time></trkpt><trkpt lat="44.77630867416197" lon="7.23705981331223"><ele>1109.0</ele><time>2026-04-25T13:36:58.998Z</time></trkpt><trkpt lat="44.77623460662505" lon="7.237009767494085"><ele>1109.0</ele><time>2026-04-25T13:37:01.998Z</time></trkpt><trkpt lat="44.77616201850297" lon="7.236995406691301"><ele>1109.0</ele><time>2026-04-25T13:37:04.998Z</time></trkpt><trkpt lat="44.776041088510425" lon="7.237042843089665"><ele>1108.25</ele><time>2026-04-25T13:37:13.998Z</time></trkpt><trkpt lat="44.77590387845537" lon="7.237120151781429"><ele>1107.5</ele><time>2026-04-25T13:37:14.998Z</time></trkpt><trkpt lat="44.775780606099715" lon="7.237198956804261"><ele>1106.75</ele><time>2026-04-25T13:37:15.998Z</time></trkpt><trkpt lat="44.77572458684266" lon="7.237316903835644"><ele>1106.0</ele><time>2026-04-25T13:37:17.998Z</time></trkpt><trkpt lat="44.775675329066736" lon="7.237431211352341"><ele>1109.6</ele><time>2026-04-25T13:37:19.998Z</time></trkpt><trkpt lat="44.775624271852344" lon="7.237506836365824"><ele>1113.1999999999998</ele><time>2026-04-25T13:37:20.998Z</time></trkpt><trkpt lat="44.77555429353833" lon="7.2375876200457006"><ele>1116.8000000000002</ele><time>2026-04-25T13:37:21.998Z</time></trkpt><trkpt lat="44.77548290263493" lon="7.237694801882332"><ele>1120.4</ele><time>2026-04-25T13:37:22.998Z</time></trkpt><trkpt lat="44.775420167677154" lon="7.237816975971775"><ele>1124.0</ele><time>2026-04-25T13:37:23.998Z</time></trkpt><trkpt lat="44.77539927669618" lon="7.237932587546525"><ele>1124.0</ele><time>2026-04-25T13:37:24.998Z</time></trkpt><trkpt lat="44.77541684813552" lon="7.2380293966375"><ele>1124.0</ele><time>2026-04-25T13:37:25.998Z</time></trkpt><trkpt lat="44.77535799647735" lon="7.238088916831536"><ele>1124.0</ele><time>2026-04-25T13:37:43Z</time></trkpt><trkpt lat="44.77531256925361" lon="7.238169425351013"><ele>1124.0</ele><time>2026-04-25T13:37:47Z</time></trkpt><trkpt lat="44.77525315143751" lon="7.238242830606529"><ele>1124.0</ele><time>2026-04-25T13:37:49Z</time></trkpt><trkpt lat="44.775199657007526" lon="7.238314125281731"><ele>1124.0</ele><time>2026-04-25T13:37:52Z</time></trkpt><trkpt lat="44.77509681034976" lon="7.238389504772368"><ele>1126.1666666666667</ele><time>2026-04-25T13:37:56Z</time></trkpt><trkpt lat="44.775038493804075" lon="7.238485293870726"><ele>1128.3333333333335</ele><time>2026-04-25T13:37:59Z</time></trkpt><trkpt lat="44.774969360738524" lon="7.238514401280766"><ele>1130.5</ele><time>2026-04-25T13:38:05Z</time></trkpt><trkpt lat="44.774890588966805" lon="7.238476352355722"><ele>1132.6666666666667</ele><time>2026-04-25T13:38:17.999Z</time></trkpt><trkpt lat="44.7748149002644" lon="7.238421164981257"><ele>1134.8333333333333</ele><time>2026-04-25T13:38:20.999Z</time></trkpt><trkpt lat="44.774723606851325" lon="7.238453755201723"><ele>1137.0</ele><time>2026-04-25T13:38:23.999Z</time></trkpt><trkpt lat="44.77463309469009" lon="7.2385375670197885"><ele>1136.9999999999998</ele><time>2026-04-25T13:38:25.999Z</time></trkpt><trkpt lat="44.7745594547892" lon="7.238580097244218"><ele>1137.0</ele><time>2026-04-25T13:38:27.999Z</time></trkpt><trkpt lat="44.774507863409774" lon="7.238644741610383"><ele>1137.0</ele><time>2026-04-25T13:38:31.999Z</time></trkpt><trkpt lat="44.774463496006135" lon="7.238730184999109"><ele>1137.0</ele><time>2026-04-25T13:38:33.999Z</time></trkpt><trkpt lat="44.77441462735979" lon="7.238796145349213"><ele>1137.0</ele><time>2026-04-25T13:38:34.999Z</time></trkpt><trkpt lat="44.774342795380804" lon="7.238816655844483"><ele>1136.9999999999998</ele><time>2026-04-25T13:38:36.999Z</time></trkpt><trkpt lat="44.774315767840484" lon="7.238918415169385"><ele>1137.0</ele><time>2026-04-25T13:38:38.999Z</time></trkpt><trkpt lat="44.77425107136457" lon="7.239050707143193"><ele>1140.8</ele><time>2026-04-25T13:38:40.999Z</time></trkpt><trkpt lat="44.77416563844869" lon="7.239112317495476"><ele>1144.6</ele><time>2026-04-25T13:38:41.999Z</time></trkpt><trkpt lat="44.774090740376586" lon="7.239170909100478"><ele>1148.3999999999999</ele><time>2026-04-25T13:38:42.999Z</time></trkpt><trkpt lat="44.77402261309909" lon="7.239230146475498"><ele>1152.2</ele><time>2026-04-25T13:38:43.999Z</time></trkpt><trkpt lat="44.77393712522216" lon="7.239269891665856"><ele>1156.0</ele><time>2026-04-25T13:38:44.999Z</time></trkpt><trkpt lat="44.77379848652573" lon="7.239252028266124"><ele>1156.0</ele><time>2026-04-25T13:38:46.999Z</time></trkpt><trkpt lat="44.77369411143565" lon="7.239287892757215"><ele>1156.0</ele><time>2026-04-25T13:38:47.999Z</time></trkpt><trkpt lat="44.77359613307618" lon="7.239341356672264"><ele>1156.0</ele><time>2026-04-25T13:38:48.999Z</time></trkpt><trkpt lat="44.77352768505333" lon="7.239388484115738"><ele>1156.0</ele><time>2026-04-25T13:38:49.999Z</time></trkpt><trkpt lat="44.77342896349653" lon="7.239473592113982"><ele>1156.0</ele><time>2026-04-25T13:38:51.999Z</time></trkpt><trkpt lat="44.77334129475696" lon="7.239478918776692"><ele>1157.3333333333333</ele><time>2026-04-25T13:38:53.999Z</time></trkpt><trkpt lat="44.77327929767908" lon="7.2394181446318004"><ele>1158.6666666666665</ele><time>2026-04-25T13:38:55.999Z</time></trkpt><trkpt lat="44.77320671197417" lon="7.239391019864652"><ele>1160.0</ele><time>2026-04-25T13:38:57.999Z</time></trkpt><trkpt lat="44.77309200951703" lon="7.239350705340017"><ele>1161.3333333333333</ele><time>2026-04-25T13:39:00.999Z</time></trkpt><trkpt lat="44.772991963506726" lon="7.239367338433217"><ele>1162.6666666666667</ele><time>2026-04-25T13:39:03.999Z</time></trkpt><trkpt lat="44.77292435266051" lon="7.239426752684508"><ele>1164.0</ele><time>2026-04-25T13:39:05.998Z</time></trkpt><trkpt lat="44.77284307937543" lon="7.239451503351377"><ele>1164.0</ele><time>2026-04-25T13:39:08.998Z</time></trkpt><trkpt lat="44.77277024549004" lon="7.239479560658231"><ele>1164.0</ele><time>2026-04-25T13:39:11.998Z</time></trkpt><trkpt lat="44.77267722330199" lon="7.23949907939849"><ele>1164.0</ele><time>2026-04-25T13:39:14.998Z</time></trkpt><trkpt lat="44.772612246706416" lon="7.239565510395898"><ele>1164.0</ele><time>2026-04-25T13:39:17.998Z</time></trkpt><trkpt lat="44.77256757596264" lon="7.239674127428151"><ele>1164.0</ele><time>2026-04-25T13:39:20.998Z</time></trkpt><trkpt lat="44.77251284945178" lon="7.239761630045564"><ele>1164.0</ele><time>2026-04-25T13:39:23.998Z</time></trkpt><trkpt lat="44.77245089236165" lon="7.239855647388902"><ele>1165.0</ele><time>2026-04-25T13:39:26.998Z</time></trkpt><trkpt lat="44.77240261015367" lon="7.239917346160269"><ele>1166.0</ele><time>2026-04-25T13:39:28.998Z</time></trkpt><trkpt lat="44.772329095502876" lon="7.239951225062862"><ele>1167.0</ele><time>2026-04-25T13:39:36.998Z</time></trkpt><trkpt lat="44.77226008183068" lon="7.239920536274297"><ele>1168.0</ele><time>2026-04-25T13:39:41Z</time></trkpt><trkpt lat="44.772197081095115" lon="7.239992322991188"><ele>1169.0</ele><time>2026-04-25T13:39:43Z</time></trkpt><trkpt lat="44.77213674399407" lon="7.2400251766099695"><ele>1170.0</ele><time>2026-04-25T13:39:45Z</time></trkpt><trkpt lat="44.772065701621685" lon="7.240080036396542"><ele>1171.0</ele><time>2026-04-25T13:39:48Z</time></trkpt><trkpt lat="44.771999055132284" lon="7.240168955041033"><ele>1173.0</ele><time>2026-04-25T13:39:51Z</time></trkpt><trkpt lat="44.771714594217606" lon="7.240298948182155"><ele>1175.0</ele><time>2026-04-25T13:39:53Z</time></trkpt><trkpt lat="44.771660661143706" lon="7.240353155332867"><ele>1177.0</ele><time>2026-04-25T13:39:54Z</time></trkpt><trkpt lat="44.77159766033096" lon="7.240378202123599"><ele>1179.0</ele><time>2026-04-25T13:39:55Z</time></trkpt><trkpt lat="44.77149709582356" lon="7.240384954879247"><ele>1179.0</ele><time>2026-04-25T13:39:57Z</time></trkpt><trkpt lat="44.77141024623649" lon="7.240484683112467"><ele>1179.0</ele><time>2026-04-25T13:39:59Z</time></trkpt><trkpt lat="44.77136545923071" lon="7.240555510885233"><ele>1179.0</ele><time>2026-04-25T13:40:00Z</time></trkpt><trkpt lat="44.77126839938995" lon="7.2406259862426445"><ele>1179.0</ele><time>2026-04-25T13:40:02Z</time></trkpt><trkpt lat="44.77118946368688" lon="7.240684276863324"><ele>1179.0</ele><time>2026-04-25T13:40:04Z</time></trkpt><trkpt lat="44.771108051794705" lon="7.240805773392436"><ele>1180.3333333333333</ele><time>2026-04-25T13:40:06Z</time></trkpt><trkpt lat="44.771050932922286" lon="7.240866397478643"><ele>1181.6666666666667</ele><time>2026-04-25T13:40:07Z</time></trkpt><trkpt lat="44.77100283294591" lon="7.240923774273705"><ele>1183.0</ele><time>2026-04-25T13:40:08Z</time></trkpt><trkpt lat="44.77098384984401" lon="7.24109689914617"><ele>1184.3333333333335</ele><time>2026-04-25T13:40:10Z</time></trkpt><trkpt lat="44.77097450564219" lon="7.241249368059377"><ele>1185.6666666666667</ele><time>2026-04-25T13:40:12Z</time></trkpt><trkpt lat="44.77092477824704" lon="7.241312567322169"><ele>1187.0</ele><time>2026-04-25T13:40:18Z</time></trkpt><trkpt lat="44.77084786100016" lon="7.241294689191406"><ele>1188.0</ele><time>2026-04-25T13:40:21.999Z</time></trkpt><trkpt lat="44.77077119367219" lon="7.241310107402559"><ele>1189.0</ele><time>2026-04-25T13:40:28.999Z</time></trkpt><trkpt lat="44.7706765583672" lon="7.241350206213405"><ele>1190.0</ele><time>2026-04-25T13:40:31.999Z</time></trkpt><trkpt lat="44.770610368205716" lon="7.241385673300607"><ele>1191.0</ele><time>2026-04-25T13:40:33.999Z</time></trkpt><trkpt lat="44.77052299193615" lon="7.241508748043542"><ele>1192.0</ele><time>2026-04-25T13:40:35.999Z</time></trkpt><trkpt lat="44.77045288723181" lon="7.241622326801436"><ele>1193.5</ele><time>2026-04-25T13:40:37.999Z</time></trkpt><trkpt lat="44.770416736980906" lon="7.241729669761349"><ele>1195.0</ele><time>2026-04-25T13:40:40.999Z</time></trkpt><trkpt lat="44.77038165274751" lon="7.241823982183229"><ele>1196.5</ele><time>2026-04-25T13:40:43.999Z</time></trkpt><trkpt lat="44.77033297232199" lon="7.241887041235918"><ele>1198.0</ele><time>2026-04-25T13:40:45.999Z</time></trkpt><trkpt lat="44.77031071421199" lon="7.242015778185799"><ele>1199.5</ele><time>2026-04-25T13:40:47.999Z</time></trkpt><trkpt lat="44.77029725438921" lon="7.242133352342699"><ele>1201.0</ele><time>2026-04-25T13:40:49.999Z</time></trkpt><trkpt lat="44.77026542192744" lon="7.242231994084231"><ele>1202.8333333333333</ele><time>2026-04-25T13:40:52.999Z</time></trkpt><trkpt lat="44.77019116959058" lon="7.242268378383657"><ele>1204.6666666666665</ele><time>2026-04-25T13:40:55.999Z</time></trkpt><trkpt lat="44.770140414663125" lon="7.2423799787415275"><ele>1206.5</ele><time>2026-04-25T13:40:58.999Z</time></trkpt><trkpt lat="44.77007149633932" lon="7.242468799349312"><ele>1208.3333333333333</ele><time>2026-04-25T13:41:01.999Z</time></trkpt><trkpt lat="44.76997375467881" lon="7.242518736419285"><ele>1210.1666666666667</ele><time>2026-04-25T13:41:07.999Z</time></trkpt><trkpt lat="44.76991828238836" lon="7.242591876207111"><ele>1212.0</ele><time>2026-04-25T13:41:09.999Z</time></trkpt><trkpt lat="44.76990970403834" lon="7.242717659002406"><ele>1214.0</ele><time>2026-04-25T13:41:11.998Z</time></trkpt><trkpt lat="44.76984558293966" lon="7.242743322538767"><ele>1216.0</ele><time>2026-04-25T13:41:13.998Z</time></trkpt><trkpt lat="44.76977662207335" lon="7.242775185084779"><ele>1218.0</ele><time>2026-04-25T13:41:15.998Z</time></trkpt><trkpt lat="44.76969597418487" lon="7.242835037753704"><ele>1220.0</ele><time>2026-04-25T13:41:17.998Z</time></trkpt><trkpt lat="44.76963419582769" lon="7.2429099984144125"><ele>1222.0</ele><time>2026-04-25T13:41:20.998Z</time></trkpt><trkpt lat="44.76959714390605" lon="7.243005816266612"><ele>1224.0</ele><time>2026-04-25T13:41:22.998Z</time></trkpt><trkpt lat="44.76951717071327" lon="7.243024292173946"><ele>1224.0</ele><time>2026-04-25T13:41:25.998Z</time></trkpt><trkpt lat="44.76940567926912" lon="7.243103026230586"><ele>1224.0</ele><time>2026-04-25T13:41:28.998Z</time></trkpt><trkpt lat="44.76934030470542" lon="7.24314596519424"><ele>1224.0</ele><time>2026-04-25T13:41:29.998Z</time></trkpt><trkpt lat="44.76927670388634" lon="7.243170595794147"><ele>1224.0</ele><time>2026-04-25T13:41:31.998Z</time></trkpt><trkpt lat="44.7691932841125" lon="7.243213877548729"><ele>1224.0</ele><time>2026-04-25T13:41:33.998Z</time></trkpt><trkpt lat="44.76910739833105" lon="7.243305435004584"><ele>1226.0</ele><time>2026-04-25T13:41:35.998Z</time></trkpt><trkpt lat="44.769012940754024" lon="7.243345486344887"><ele>1228.0</ele><time>2026-04-25T13:41:37.998Z</time></trkpt><trkpt lat="44.768908294587796" lon="7.243373834331326"><ele>1230.0</ele><time>2026-04-25T13:41:39.998Z</time></trkpt><trkpt lat="44.768843924068015" lon="7.243347213557981"><ele>1232.0</ele><time>2026-04-25T13:41:40.998Z</time></trkpt><trkpt lat="44.76874347651573" lon="7.2433085173259775"><ele>1234.0</ele><time>2026-04-25T13:41:42.998Z</time></trkpt><trkpt lat="44.76866795033823" lon="7.243275354339146"><ele>1234.0</ele><time>2026-04-25T13:41:45Z</time></trkpt><trkpt lat="44.76857667396387" lon="7.243249792140276"><ele>1234.0</ele><time>2026-04-25T13:41:47Z</time></trkpt><trkpt lat="44.7685057417949" lon="7.243227599585259"><ele>1234.0</ele><time>2026-04-25T13:41:49Z</time></trkpt><trkpt lat="44.76840437396513" lon="7.2432026555813716"><ele>1234.0</ele><time>2026-04-25T13:41:51Z</time></trkpt><trkpt lat="44.768303495625645" lon="7.2431885493676464"><ele>1234.0</ele><time>2026-04-25T13:41:53Z</time></trkpt><trkpt lat="44.76822105243697" lon="7.243209413794745"><ele>1233.4</ele><time>2026-04-25T13:41:55Z</time></trkpt><trkpt lat="44.76810481440831" lon="7.243223794812276"><ele>1232.8000000000002</ele><time>2026-04-25T13:41:57Z</time></trkpt><trkpt lat="44.768033180853365" lon="7.243240740925246"><ele>1232.1999999999998</ele><time>2026-04-25T13:41:58Z</time></trkpt><trkpt lat="44.76796227679718" lon="7.243268892930447"><ele>1231.6</ele><time>2026-04-25T13:41:59Z</time></trkpt><trkpt lat="44.76785594038355" lon="7.24330646642606"><ele>1231.0</ele><time>2026-04-25T13:42:01Z</time></trkpt><trkpt lat="44.767768934919026" lon="7.24327751830367"><ele>1229.8333333333333</ele><time>2026-04-25T13:42:03Z</time></trkpt><trkpt lat="44.76768620800038" lon="7.243265348841682"><ele>1228.6666666666665</ele><time>2026-04-25T13:42:05Z</time></trkpt><trkpt lat="44.767599122958856" lon="7.243248166771589"><ele>1227.5</ele><time>2026-04-25T13:42:07Z</time></trkpt><trkpt lat="44.767489691775644" lon="7.243214675959215"><ele>1226.3333333333333</ele><time>2026-04-25T13:42:09Z</time></trkpt><trkpt lat="44.76741661636576" lon="7.243146607358475"><ele>1225.1666666666667</ele><time>2026-04-25T13:42:12Z</time></trkpt><trkpt lat="44.767347262274875" lon="7.243115299380055"><ele>1224.0</ele><time>2026-04-25T13:42:14Z</time></trkpt><trkpt lat="44.76726602411438" lon="7.243110673253929"><ele>1224.0</ele><time>2026-04-25T13:42:16Z</time></trkpt><trkpt lat="44.767201185596264" lon="7.24315687212634"><ele>1224.0</ele><time>2026-04-25T13:42:18Z</time></trkpt><trkpt lat="44.76711604985936" lon="7.243225001143202"><ele>1224.0</ele><time>2026-04-25T13:42:20Z</time></trkpt><trkpt lat="44.76703723703701" lon="7.2433355522192775"><ele>1224.0</ele><time>2026-04-25T13:42:22Z</time></trkpt><trkpt lat="44.766974035901164" lon="7.2434505024991"><ele>1224.0</ele><time>2026-04-25T13:42:24Z</time></trkpt><trkpt lat="44.76691523657367" lon="7.243513308240784"><ele>1224.0</ele><time>2026-04-25T13:42:25.999Z</time></trkpt><trkpt lat="44.76684841738193" lon="7.243508181157185"><ele>1224.0</ele><time>2026-04-25T13:42:27.999Z</time></trkpt><trkpt lat="44.76676118547459" lon="7.243502231334463"><ele>1224.0</ele><time>2026-04-25T13:42:29.999Z</time></trkpt><trkpt lat="44.76668226611754" lon="7.243504241819945"><ele>1224.0</ele><time>2026-04-25T13:42:46.999Z</time></trkpt><trkpt lat="44.76674853592382" lon="7.24356452662714"><ele>1224.0</ele><time>2026-04-25T13:42:50.999Z</time></trkpt><trkpt lat="44.766825998010475" lon="7.243548031189795"><ele>1224.0</ele><time>2026-04-25T13:42:52.999Z</time></trkpt><trkpt lat="44.76690213807785" lon="7.243544037844125"><ele>1224.0</ele><time>2026-04-25T13:42:54.999Z</time></trkpt><trkpt lat="44.7669717936254" lon="7.243521367569479"><ele>1224.0</ele><time>2026-04-25T13:42:56.999Z</time></trkpt><trkpt lat="44.76703504129799" lon="7.24350831851238"><ele>1224.0</ele><time>2026-04-25T13:42:58.999Z</time></trkpt><trkpt lat="44.76705625774749" lon="7.243413394755482"><ele>1224.0</ele><time>2026-04-25T13:44:03Z</time></trkpt><trkpt lat="44.76699137337421" lon="7.243389400284006"><ele>1224.0</ele><time>2026-04-25T13:44:06Z</time></trkpt><trkpt lat="44.76690505621762" lon="7.243486101676636"><ele>1224.0</ele><time>2026-04-25T13:44:08Z</time></trkpt><trkpt lat="44.76681357436573" lon="7.243528270648952"><ele>1223.2</ele><time>2026-04-25T13:44:10Z</time></trkpt><trkpt lat="44.76669512996673" lon="7.243528078452682"><ele>1222.4</ele><time>2026-04-25T13:44:12Z</time></trkpt><trkpt lat="44.76661430540473" lon="7.243534371010594"><ele>1221.6</ele><time>2026-04-25T13:44:13Z</time></trkpt><trkpt lat="44.76651972788244" lon="7.243553125446418"><ele>1220.8</ele><time>2026-04-25T13:44:14Z</time></trkpt><trkpt lat="44.766420865137476" lon="7.243585118034833"><ele>1220.0</ele><time>2026-04-25T13:44:15Z</time></trkpt><trkpt lat="44.76632037708326" lon="7.2436262960131215"><ele>1220.0</ele><time>2026-04-25T13:44:16Z</time></trkpt><trkpt lat="44.766203774851924" lon="7.243670304782391"><ele>1220.0</ele><time>2026-04-25T13:44:17Z</time></trkpt><trkpt lat="44.766088241490266" lon="7.243720267507213"><ele>1220.0</ele><time>2026-04-25T13:44:18Z</time></trkpt><trkpt lat="44.76596581940533" lon="7.243774425774256"><ele>1220.0</ele><time>2026-04-25T13:44:19Z</time></trkpt><trkpt lat="44.7658351058452" lon="7.243829341202097"><ele>1221.25</ele><time>2026-04-25T13:44:20Z</time></trkpt><trkpt lat="44.76569511123528" lon="7.243885323933891"><ele>1222.5</ele><time>2026-04-25T13:44:21Z</time></trkpt><trkpt lat="44.76555797254584" lon="7.243941672012622"><ele>1223.75</ele><time>2026-04-25T13:44:22Z</time></trkpt><trkpt lat="44.76543233327721" lon="7.243994685720125"><ele>1225.0</ele><time>2026-04-25T13:44:23Z</time></trkpt><trkpt lat="44.76528971840392" lon="7.244055324531831"><ele>1231.0</ele><time>2026-04-25T13:44:24Z</time></trkpt><trkpt lat="44.76513965727102" lon="7.244112972657939"><ele>1237.0</ele><time>2026-04-25T13:44:25Z</time></trkpt><trkpt lat="44.76496851589333" lon="7.244194626851013"><ele>1243.0</ele><time>2026-04-25T13:44:26Z</time></trkpt><trkpt lat="44.764792363577975" lon="7.2442689570268435"><ele>1243.0</ele><time>2026-04-25T13:44:27Z</time></trkpt><trkpt lat="44.76465099323731" lon="7.244339760844842"><ele>1243.0</ele><time>2026-04-25T13:44:28Z</time></trkpt><trkpt lat="44.76452274699741" lon="7.244419232391518"><ele>1243.0</ele><time>2026-04-25T13:44:29Z</time></trkpt><trkpt lat="44.76440754441537" lon="7.2444980468791"><ele>1243.0</ele><time>2026-04-25T13:44:30Z</time></trkpt><trkpt lat="44.76430458596543" lon="7.244575771122814"><ele>1243.2</ele><time>2026-04-25T13:44:30.999Z</time></trkpt><trkpt lat="44.76420860446589" lon="7.244651614789224"><ele>1243.4</ele><time>2026-04-25T13:44:31.999Z</time></trkpt><trkpt lat="44.76410223206064" lon="7.244730895751099"><ele>1243.6000000000001</ele><time>2026-04-25T13:44:32.999Z</time></trkpt><trkpt lat="44.76400152167341" lon="7.244806289648313"><ele>1243.8</ele><time>2026-04-25T13:44:33.999Z</time></trkpt><trkpt lat="44.76391468915605" lon="7.244877094981427"><ele>1244.0</ele><time>2026-04-25T13:44:34.999Z</time></trkpt><trkpt lat="44.76383775743942" lon="7.24494632886633"><ele>1244.8333333333335</ele><time>2026-04-25T13:44:35.999Z</time></trkpt><trkpt lat="44.76375994873703" lon="7.245020550639061"><ele>1245.6666666666667</ele><time>2026-04-25T13:44:36.999Z</time></trkpt><trkpt lat="44.76369391282079" lon="7.245085456992702"><ele>1246.5</ele><time>2026-04-25T13:44:37.999Z</time></trkpt><trkpt lat="44.763641028558126" lon="7.245134375318884"><ele>1247.3333333333333</ele><time>2026-04-25T13:44:38.999Z</time></trkpt><trkpt lat="44.76358512496002" lon="7.245195427061091"><ele>1248.1666666666665</ele><time>2026-04-25T13:44:40.999Z</time></trkpt><trkpt lat="44.763582643246274" lon="7.2453127847179495"><ele>1249.0</ele><time>2026-04-25T13:44:42.999Z</time></trkpt><trkpt lat="44.76364566037025" lon="7.245415997138975"><ele>1248.9999999999998</ele><time>2026-04-25T13:44:44.999Z</time></trkpt><trkpt lat="44.76368974841353" lon="7.245496307396577"><ele>1249.0</ele><time>2026-04-25T13:44:49.999Z</time></trkpt><trkpt lat="44.76375230757613" lon="7.245463063913036"><ele>1249.0</ele><time>2026-04-25T13:45:20.998Z</time></trkpt><trkpt lat="44.763815189629646" lon="7.24546790369193"><ele>1249.0</ele><time>2026-04-25T13:46:09Z</time></trkpt><trkpt lat="44.76376564366457" lon="7.245402637731636"><ele>1249.0</ele><time>2026-04-25T14:32:00.998Z</time></trkpt><trkpt lat="44.76367333015391" lon="7.245384271657997"><ele>1248.9999999999998</ele><time>2026-04-25T14:33:29.999Z</time></trkpt><trkpt lat="44.7636593274656" lon="7.245268873321102"><ele>1249.0</ele><time>2026-04-25T14:33:31.999Z</time></trkpt><trkpt lat="44.76370522060244" lon="7.2451479660126"><ele>1249.0</ele><time>2026-04-25T14:33:33.998Z</time></trkpt><trkpt lat="44.763791673239076" lon="7.245074218762995"><ele>1249.0</ele><time>2026-04-25T14:33:35.998Z</time></trkpt><trkpt lat="44.76384864410402" lon="7.245028192488661"><ele>1249.0</ele><time>2026-04-25T14:33:36.998Z</time></trkpt><trkpt lat="44.7639063362169" lon="7.2449741055499945"><ele>1249.0</ele><time>2026-04-25T14:33:37.998Z</time></trkpt><trkpt lat="44.763977216437624" lon="7.244915729391459"><ele>1249.0</ele><time>2026-04-25T14:33:38.998Z</time></trkpt><trkpt lat="44.76404958015856" lon="7.244859382912659"><ele>1249.0</ele><time>2026-04-25T14:33:39.998Z</time></trkpt><trkpt lat="44.76411743789021" lon="7.244803573189608"><ele>1248.2857142857142</ele><time>2026-04-25T14:33:40.998Z</time></trkpt><trkpt lat="44.7641859595227" lon="7.244752220716039"><ele>1247.5714285714284</ele><time>2026-04-25T14:33:41.998Z</time></trkpt><trkpt lat="44.76424867009236" lon="7.244700463754237"><ele>1246.8571428571427</ele><time>2026-04-25T14:33:42.998Z</time></trkpt><trkpt lat="44.764309040089586" lon="7.244648728507119"><ele>1246.142857142857</ele><time>2026-04-25T14:33:43.998Z</time></trkpt><trkpt lat="44.764373636454515" lon="7.244599281354559"><ele>1245.4285714285716</ele><time>2026-04-25T14:33:44.998Z</time></trkpt><trkpt lat="44.76443478337857" lon="7.244555275533326"><ele>1244.7142857142856</ele><time>2026-04-25T14:33:45.998Z</time></trkpt><trkpt lat="44.76449290002999" lon="7.244513870523633"><ele>1244.0</ele><time>2026-04-25T14:33:46.998Z</time></trkpt><trkpt lat="44.764558263634925" lon="7.244474342045479"><ele>1243.8333333333335</ele><time>2026-04-25T14:33:47.998Z</time></trkpt><trkpt lat="44.76461799993285" lon="7.244433302031428"><ele>1243.6666666666667</ele><time>2026-04-25T14:33:48.998Z</time></trkpt><trkpt lat="44.76468008258009" lon="7.244398504425602"><ele>1243.5</ele><time>2026-04-25T14:33:49.998Z</time></trkpt><trkpt lat="44.7647421338887" lon="7.244366887559179"><ele>1243.3333333333333</ele><time>2026-04-25T14:33:50.998Z</time></trkpt><trkpt lat="44.76480969269457" lon="7.244329071637823"><ele>1243.1666666666665</ele><time>2026-04-25T14:33:51.998Z</time></trkpt><trkpt lat="44.764894981643465" lon="7.244286361571399"><ele>1243.0</ele><time>2026-04-25T14:33:52.998Z</time></trkpt><trkpt lat="44.76499121523559" lon="7.244241276591497"><ele>1243.0</ele><time>2026-04-25T14:33:53.998Z</time></trkpt><trkpt lat="44.765079677197086" lon="7.244197581931173"><ele>1243.0</ele><time>2026-04-25T14:33:54.998Z</time></trkpt><trkpt lat="44.76516468895164" lon="7.244158206940206"><ele>1243.0</ele><time>2026-04-25T14:33:55.998Z</time></trkpt><trkpt lat="44.76524777415803" lon="7.244123854959127"><ele>1243.0</ele><time>2026-04-25T14:33:56.998Z</time></trkpt><trkpt lat="44.76532628193326" lon="7.244092472038387"><ele>1243.0</ele><time>2026-04-25T14:33:57.998Z</time></trkpt><trkpt lat="44.7654014694041" lon="7.244061113839827"><ele>1243.0</ele><time>2026-04-25T14:33:58.998Z</time></trkpt><trkpt lat="44.76547706199089" lon="7.244026444553772"><ele>1242.4</ele><time>2026-04-25T14:33:59.998Z</time></trkpt><trkpt lat="44.76555406450041" lon="7.243988735119489"><ele>1241.8</ele><time>2026-04-25T14:34:00.998Z</time></trkpt><trkpt lat="44.76564345461643" lon="7.243951449151013"><ele>1241.2</ele><time>2026-04-25T14:34:01.998Z</time></trkpt><trkpt lat="44.7657419675793" lon="7.2439123791977575"><ele>1240.6</ele><time>2026-04-25T14:34:02.998Z</time></trkpt><trkpt lat="44.765844578944204" lon="7.243871529901525"><ele>1240.0</ele><time>2026-04-25T14:34:03.998Z</time></trkpt><trkpt lat="44.76594565592235" lon="7.243831879893131"><ele>1235.0</ele><time>2026-04-25T14:34:04.998Z</time></trkpt><trkpt lat="44.766045245638566" lon="7.243794480669287"><ele>1230.0</ele><time>2026-04-25T14:34:05.998Z</time></trkpt><trkpt lat="44.766152225084824" lon="7.243752559700965"><ele>1225.0</ele><time>2026-04-25T14:34:06.998Z</time></trkpt><trkpt lat="44.76626466158103" lon="7.243701374927521"><ele>1220.0</ele><time>2026-04-25T14:34:07.998Z</time></trkpt><trkpt lat="44.76637809917256" lon="7.243653756496918"><ele>1220.0</ele><time>2026-04-25T14:34:08.998Z</time></trkpt><trkpt lat="44.76649017388286" lon="7.2436096925412485"><ele>1220.0</ele><time>2026-04-25T14:34:09.998Z</time></trkpt><trkpt lat="44.76660086088375" lon="7.243574502301959"><ele>1220.0</ele><time>2026-04-25T14:34:11Z</time></trkpt><trkpt lat="44.766714151270385" lon="7.243554135621311"><ele>1220.0</ele><time>2026-04-25T14:34:12Z</time></trkpt><trkpt lat="44.76681869599824" lon="7.243577938099678"><ele>1221.0</ele><time>2026-04-25T14:34:13Z</time></trkpt><trkpt lat="44.76690865966016" lon="7.2436011970942396"><ele>1222.0</ele><time>2026-04-25T14:34:14Z</time></trkpt><trkpt lat="44.767013658861416" lon="7.243632256524718"><ele>1223.0</ele><time>2026-04-25T14:34:16Z</time></trkpt><trkpt lat="44.76706882964193" lon="7.243378113402866"><ele>1224.0</ele><time>2026-04-25T14:34:17Z</time></trkpt><trkpt lat="44.76708962737861" lon="7.243289056634292"><ele>1224.0</ele><time>2026-04-25T14:34:18Z</time></trkpt><trkpt lat="44.76715583906766" lon="7.243165252130394"><ele>1224.0</ele><time>2026-04-25T14:34:20Z</time></trkpt><trkpt lat="44.7672161204547" lon="7.243088074258684"><ele>1224.0</ele><time>2026-04-25T14:34:22Z</time></trkpt><trkpt lat="44.76730180630368" lon="7.242975875028078"><ele>1224.0</ele><time>2026-04-25T14:34:24Z</time></trkpt><trkpt lat="44.767520783500565" lon="7.24320649164961"><ele>1224.0</ele><time>2026-04-25T14:34:28Z</time></trkpt><trkpt lat="44.76761363996092" lon="7.2432619225582995"><ele>1224.0</ele><time>2026-04-25T14:34:30Z</time></trkpt><trkpt lat="44.7677277580398" lon="7.243281029994564"><ele>1224.0</ele><time>2026-04-25T14:34:32Z</time></trkpt><trkpt lat="44.767795025110736" lon="7.243299026431773"><ele>1224.0</ele><time>2026-04-25T14:34:33Z</time></trkpt><trkpt lat="44.767871540040574" lon="7.2433144120939055"><ele>1224.0</ele><time>2026-04-25T14:34:34Z</time></trkpt><trkpt lat="44.76794001724133" lon="7.243315422410413"><ele>1224.0</ele><time>2026-04-25T14:34:35Z</time></trkpt><trkpt lat="44.76800486261097" lon="7.243296533739241"><ele>1225.4</ele><time>2026-04-25T14:34:37Z</time></trkpt><trkpt lat="44.768103943633356" lon="7.243245020102804"><ele>1226.8000000000002</ele><time>2026-04-25T14:34:41Z</time></trkpt><trkpt lat="44.76824374275274" lon="7.243207327522436"><ele>1228.1999999999998</ele><time>2026-04-25T14:34:43Z</time></trkpt><trkpt lat="44.76831652353179" lon="7.243198048184953"><ele>1229.6</ele><time>2026-04-25T14:34:44Z</time></trkpt><trkpt lat="44.768381504346124" lon="7.243200403909099"><ele>1231.0</ele><time>2026-04-25T14:34:45Z</time></trkpt><trkpt lat="44.76844836853068" lon="7.2432050765671425"><ele>1231.0</ele><time>2026-04-25T14:34:46Z</time></trkpt><trkpt lat="44.76852271124989" lon="7.243222944349743"><ele>1231.0</ele><time>2026-04-25T14:34:47Z</time></trkpt><trkpt lat="44.76859625892442" lon="7.243244737700485"><ele>1231.0</ele><time>2026-04-25T14:34:47.999Z</time></trkpt><trkpt lat="44.76866418293813" lon="7.2432654470872"><ele>1231.0</ele><time>2026-04-25T14:34:48.999Z</time></trkpt><trkpt lat="44.768734351051826" lon="7.243290339726713"><ele>1231.0</ele><time>2026-04-25T14:34:49.999Z</time></trkpt><trkpt lat="44.76881091265562" lon="7.243321977576169"><ele>1231.0</ele><time>2026-04-25T14:34:50.999Z</time></trkpt><trkpt lat="44.768893616242586" lon="7.243353001908881"><ele>1231.5</ele><time>2026-04-25T14:34:51.999Z</time></trkpt><trkpt lat="44.76897975319817" lon="7.243370502377201"><ele>1232.0</ele><time>2026-04-25T14:34:52.999Z</time></trkpt><trkpt lat="44.76905627352471" lon="7.243368805111282"><ele>1232.5</ele><time>2026-04-25T14:34:53.999Z</time></trkpt><trkpt lat="44.769114948500345" lon="7.243322919635144"><ele>1233.0</ele><time>2026-04-25T14:34:54.999Z</time></trkpt><trkpt lat="44.769197451911005" lon="7.243261258764118"><ele>1233.5</ele><time>2026-04-25T14:34:56.999Z</time></trkpt><trkpt lat="44.76927881346116" lon="7.243193281784382"><ele>1234.0</ele><time>2026-04-25T14:34:58.999Z</time></trkpt><trkpt lat="44.76935224157362" lon="7.243164742071314"><ele>1232.5</ele><time>2026-04-25T14:34:59.999Z</time></trkpt><trkpt lat="44.76941903830817" lon="7.24313731885972"><ele>1231.0</ele><time>2026-04-25T14:35:00.999Z</time></trkpt><trkpt lat="44.76947849222693" lon="7.243097144523527"><ele>1229.5</ele><time>2026-04-25T14:35:01.999Z</time></trkpt><trkpt lat="44.769579814051085" lon="7.243040668910974"><ele>1228.0</ele><time>2026-04-25T14:35:03.999Z</time></trkpt><trkpt lat="44.76965707387449" lon="7.242951351948097"><ele>1226.5</ele><time>2026-04-25T14:35:05.999Z</time></trkpt><trkpt lat="44.76969803275992" lon="7.2428670587315125"><ele>1225.0</ele><time>2026-04-25T14:35:07.999Z</time></trkpt><trkpt lat="44.769794371755665" lon="7.24279616795486"><ele>1224.8</ele><time>2026-04-25T14:35:09.999Z</time></trkpt><trkpt lat="44.76988220529328" lon="7.242773129870957"><ele>1224.6</ele><time>2026-04-25T14:35:12.999Z</time></trkpt><trkpt lat="44.76993079775459" lon="7.242708415551487"><ele>1224.4</ele><time>2026-04-25T14:35:14.999Z</time></trkpt><trkpt lat="44.77000859501827" lon="7.242527574120899"><ele>1224.2</ele><time>2026-04-25T14:35:16.999Z</time></trkpt><trkpt lat="44.770089131860665" lon="7.242536823176259"><ele>1224.0</ele><time>2026-04-25T14:35:18.999Z</time></trkpt><trkpt lat="44.77016722522791" lon="7.24250487680777"><ele>1220.1666666666667</ele><time>2026-04-25T14:35:20.999Z</time></trkpt><trkpt lat="44.770236668997455" lon="7.242405765079489"><ele>1216.3333333333333</ele><time>2026-04-25T14:35:22.999Z</time></trkpt><trkpt lat="44.77028629687105" lon="7.242326052770222"><ele>1212.5</ele><time>2026-04-25T14:35:24.999Z</time></trkpt><trkpt lat="44.770353718214544" lon="7.242259472566655"><ele>1208.6666666666665</ele><time>2026-04-25T14:35:27.999Z</time></trkpt><trkpt lat="44.77035898232669" lon="7.242164441208775"><ele>1204.8333333333333</ele><time>2026-04-25T14:35:28.999Z</time></trkpt><trkpt lat="44.77037410463528" lon="7.242078055377066"><ele>1201.0</ele><time>2026-04-25T14:35:29.999Z</time></trkpt><trkpt lat="44.77040928342239" lon="7.2419351571142405"><ele>1201.0</ele><time>2026-04-25T14:35:31.999Z</time></trkpt><trkpt lat="44.77045997903001" lon="7.2418071789916665"><ele>1201.0</ele><time>2026-04-25T14:35:33.999Z</time></trkpt><trkpt lat="44.77050797080941" lon="7.241656328930979"><ele>1201.0</ele><time>2026-04-25T14:35:35.999Z</time></trkpt><trkpt lat="44.770543437288126" lon="7.241582603107189"><ele>1201.0</ele><time>2026-04-25T14:35:36.999Z</time></trkpt><trkpt lat="44.77058191663727" lon="7.241494414158236"><ele>1201.0</ele><time>2026-04-25T14:35:37.998Z</time></trkpt><trkpt lat="44.77067308726972" lon="7.24143128488794"><ele>1199.5</ele><time>2026-04-25T14:35:39.998Z</time></trkpt><trkpt lat="44.77074208687616" lon="7.241373910818424"><ele>1198.0</ele><time>2026-04-25T14:35:41.998Z</time></trkpt><trkpt lat="44.770832424244745" lon="7.2413397934348485"><ele>1196.5</ele><time>2026-04-25T14:35:47.998Z</time></trkpt><trkpt lat="44.770927981960455" lon="7.241315493250637"><ele>1195.0</ele><time>2026-04-25T14:35:49.998Z</time></trkpt><trkpt lat="44.77099814863028" lon="7.241295466247452"><ele>1193.5</ele><time>2026-04-25T14:35:50.998Z</time></trkpt><trkpt lat="44.77106832293053" lon="7.241271151495572"><ele>1192.0</ele><time>2026-04-25T14:35:52.998Z</time></trkpt><trkpt lat="44.77107622758702" lon="7.241110533745502"><ele>1191.1666666666665</ele><time>2026-04-25T14:37:43.998Z</time></trkpt><trkpt lat="44.7710495213132" lon="7.241007479282029"><ele>1190.3333333333333</ele><time>2026-04-25T14:37:45.998Z</time></trkpt><trkpt lat="44.77109905459901" lon="7.240903306453406"><ele>1189.5</ele><time>2026-04-25T14:37:49.998Z</time></trkpt><trkpt lat="44.77120111622958" lon="7.240828241029252"><ele>1188.6666666666667</ele><time>2026-04-25T14:37:51.998Z</time></trkpt><trkpt lat="44.77124836690292" lon="7.240768413579786"><ele>1187.8333333333335</ele><time>2026-04-25T14:37:52.998Z</time></trkpt><trkpt lat="44.771296015163095" lon="7.240702335916457"><ele>1187.0</ele><time>2026-04-25T14:37:53.998Z</time></trkpt><trkpt lat="44.771378883513876" lon="7.2406360437089194"><ele>1185.4</ele><time>2026-04-25T14:37:55.998Z</time></trkpt><trkpt lat="44.77146542213503" lon="7.240613668024689"><ele>1183.8000000000002</ele><time>2026-04-25T14:37:57.998Z</time></trkpt><trkpt lat="44.771537946412195" lon="7.240484445922925"><ele>1182.2</ele><time>2026-04-25T14:37:59.998Z</time></trkpt><trkpt lat="44.771624616313325" lon="7.240393287894659"><ele>1180.6000000000001</ele><time>2026-04-25T14:38:01.998Z</time></trkpt><trkpt lat="44.771751259515426" lon="7.24038412169029"><ele>1179.0</ele><time>2026-04-25T14:38:03.998Z</time></trkpt><trkpt lat="44.771844803992124" lon="7.24026976456165"><ele>1177.6666666666667</ele><time>2026-04-25T14:38:05.998Z</time></trkpt><trkpt lat="44.771897140925724" lon="7.240169649115937"><ele>1176.3333333333333</ele><time>2026-04-25T14:38:06.998Z</time></trkpt><trkpt lat="44.77195458662209" lon="7.240116899390345"><ele>1175.0</ele><time>2026-04-25T14:38:07.998Z</time></trkpt><trkpt lat="44.77203271077328" lon="7.2400746536940215"><ele>1173.6666666666665</ele><time>2026-04-25T14:38:09.998Z</time></trkpt><trkpt lat="44.77211085799794" lon="7.239995012210217"><ele>1172.3333333333333</ele><time>2026-04-25T14:38:11.998Z</time></trkpt><trkpt lat="44.77217631547477" lon="7.239937654555886"><ele>1171.0</ele><time>2026-04-25T14:38:13.998Z</time></trkpt><trkpt lat="44.772211906851446" lon="7.240012850664655"><ele>1171.0</ele><time>2026-04-25T14:38:17.998Z</time></trkpt><trkpt lat="44.772290076878186" lon="7.239974517893219"><ele>1171.0</ele><time>2026-04-25T14:38:19.998Z</time></trkpt><trkpt lat="44.772355129296216" lon="7.239903397609354"><ele>1171.0</ele><time>2026-04-25T14:38:20.998Z</time></trkpt><trkpt lat="44.77240795821248" lon="7.2398375895139075"><ele>1171.0</ele><time>2026-04-25T14:38:21.998Z</time></trkpt><trkpt lat="44.772490476521526" lon="7.239715383051802"><ele>1171.0</ele><time>2026-04-25T14:38:24Z</time></trkpt><trkpt lat="44.77255231583182" lon="7.239628372764792"><ele>1171.0</ele><time>2026-04-25T14:38:26Z</time></trkpt><trkpt lat="44.772594849175455" lon="7.239550903764519"><ele>1169.6</ele><time>2026-04-25T14:38:40Z</time></trkpt><trkpt lat="44.772687962007375" lon="7.239503957772818"><ele>1168.1999999999998</ele><time>2026-04-25T14:38:44Z</time></trkpt><trkpt lat="44.77275252998677" lon="7.239488725516834"><ele>1166.8000000000002</ele><time>2026-04-25T14:38:46Z</time></trkpt><trkpt lat="44.772834432668525" lon="7.239458635069806"><ele>1165.4</ele><time>2026-04-25T14:38:48Z</time></trkpt><trkpt lat="44.77294219008158" lon="7.239418269194842"><ele>1164.0</ele><time>2026-04-25T14:38:50Z</time></trkpt><trkpt lat="44.77303157838017" lon="7.239335010984557"><ele>1164.0</ele><time>2026-04-25T14:38:52Z</time></trkpt><trkpt lat="44.77314353376611" lon="7.239295078781479"><ele>1164.0</ele><time>2026-04-25T14:38:54Z</time></trkpt><trkpt lat="44.773207337727825" lon="7.239317735174499"><ele>1164.0</ele><time>2026-04-25T14:38:54.999Z</time></trkpt><trkpt lat="44.773297443205614" lon="7.239402992101254"><ele>1164.0</ele><time>2026-04-25T14:38:56.999Z</time></trkpt><trkpt lat="44.77336525110229" lon="7.239492946257784"><ele>1164.0</ele><time>2026-04-25T14:38:58.999Z</time></trkpt><trkpt lat="44.77348465353566" lon="7.239468518397872"><ele>1162.4</ele><time>2026-04-25T14:39:00.999Z</time></trkpt><trkpt lat="44.77354756758676" lon="7.239443102783576"><ele>1160.8000000000002</ele><time>2026-04-25T14:39:01.999Z</time></trkpt><trkpt lat="44.77365630400578" lon="7.239356532561082"><ele>1159.1999999999998</ele><time>2026-04-25T14:39:03.999Z</time></trkpt><trkpt lat="44.77372220612663" lon="7.239344536063078"><ele>1157.6</ele><time>2026-04-25T14:39:04.999Z</time></trkpt><trkpt lat="44.773811469847885" lon="7.239323424244702"><ele>1156.0</ele><time>2026-04-25T14:39:06.999Z</time></trkpt><trkpt lat="44.77392218877275" lon="7.239296164025304"><ele>1156.0</ele><time>2026-04-25T14:39:08.999Z</time></trkpt><trkpt lat="44.774006289302775" lon="7.2392691085263"><ele>1156.0</ele><time>2026-04-25T14:39:11.999Z</time></trkpt><trkpt lat="44.77417675900689" lon="7.239195175947638"><ele>1156.0</ele><time>2026-04-25T14:39:13.999Z</time></trkpt><trkpt lat="44.7742516400563" lon="7.239132402818977"><ele>1156.0</ele><time>2026-04-25T14:39:14.999Z</time></trkpt><trkpt lat="44.77433245387172" lon="7.2390739329213325"><ele>1156.0</ele><time>2026-04-25T14:39:15.999Z</time></trkpt><trkpt lat="44.774367385843455" lon="7.2389935996406765"><ele>1153.2857142857142</ele><time>2026-04-25T14:39:16.999Z</time></trkpt><trkpt lat="44.774415778795635" lon="7.238922710659767"><ele>1150.5714285714284</ele><time>2026-04-25T14:39:17.999Z</time></trkpt><trkpt lat="44.774467382173825" lon="7.238816421067343"><ele>1147.8571428571427</ele><time>2026-04-25T14:39:37.999Z</time></trkpt><trkpt lat="44.774519022950756" lon="7.238757186905946"><ele>1145.142857142857</ele><time>2026-04-25T14:39:38.999Z</time></trkpt><trkpt lat="44.774559306492634" lon="7.238675979711747"><ele>1142.4285714285713</ele><time>2026-04-25T14:39:40.999Z</time></trkpt><trkpt lat="44.774585786783796" lon="7.238592488117046"><ele>1139.7142857142856</ele><time>2026-04-25T14:39:44.998Z</time></trkpt><trkpt lat="44.77465205547501" lon="7.238559889429132"><ele>1137.0</ele><time>2026-04-25T14:39:46.998Z</time></trkpt><trkpt lat="44.77470570683079" lon="7.238496811388361"><ele>1137.0</ele><time>2026-04-25T14:39:48.998Z</time></trkpt><trkpt lat="44.77480353187465" lon="7.238413231268237"><ele>1137.0</ele><time>2026-04-25T14:39:49.998Z</time></trkpt><trkpt lat="44.774889119668565" lon="7.238450429872088"><ele>1137.0</ele><time>2026-04-25T14:39:52.998Z</time></trkpt><trkpt lat="44.77495562731594" lon="7.238536928781758"><ele>1137.0</ele><time>2026-04-25T14:39:55.998Z</time></trkpt><trkpt lat="44.77501934232621" lon="7.238449182115645"><ele>1137.0</ele><time>2026-04-25T14:39:59.998Z</time></trkpt><trkpt lat="44.775113203411934" lon="7.238372249565225"><ele>1134.8333333333333</ele><time>2026-04-25T14:40:01.998Z</time></trkpt><trkpt lat="44.77521312242768" lon="7.238350441523094"><ele>1132.6666666666667</ele><time>2026-04-25T14:40:03.998Z</time></trkpt><trkpt lat="44.775272327343004" lon="7.238287622807401"><ele>1130.5</ele><time>2026-04-25T14:40:04.998Z</time></trkpt><trkpt lat="44.77533791778287" lon="7.238203409049714"><ele>1128.3333333333335</ele><time>2026-04-25T14:40:06.998Z</time></trkpt><trkpt lat="44.77538926703259" lon="7.2381358224825805"><ele>1126.1666666666667</ele><time>2026-04-25T14:40:08.998Z</time></trkpt><trkpt lat="44.7754427756511" lon="7.2380731544532955"><ele>1124.0</ele><time>2026-04-25T14:40:10.998Z</time></trkpt><trkpt lat="44.77547354539702" lon="7.237973911270486"><ele>1124.0</ele><time>2026-04-25T14:40:13.998Z</time></trkpt><trkpt lat="44.77559121647534" lon="7.237845935089757"><ele>1124.0</ele><time>2026-04-25T14:40:14.998Z</time></trkpt><trkpt lat="44.77565024521562" lon="7.237773165530144"><ele>1124.0</ele><time>2026-04-25T14:40:16.998Z</time></trkpt><trkpt lat="44.77571920176744" lon="7.237708130814032"><ele>1124.0</ele><time>2026-04-25T14:40:18.998Z</time></trkpt><trkpt lat="44.77578447961284" lon="7.237638428166445"><ele>1124.0</ele><time>2026-04-25T14:40:20.998Z</time></trkpt><trkpt lat="44.77584527529038" lon="7.237596590252512"><ele>1124.0000000000002</ele><time>2026-04-25T14:40:22.998Z</time></trkpt><trkpt lat="44.775920844489164" lon="7.237568977888934"><ele>1124.0</ele><time>2026-04-25T14:40:25.998Z</time></trkpt><trkpt lat="44.775967122917436" lon="7.237477181511459"><ele>1124.0</ele><time>2026-04-25T14:40:35Z</time></trkpt><trkpt lat="44.77604756975866" lon="7.237421812781407"><ele>1124.0</ele><time>2026-04-25T14:40:38Z</time></trkpt><trkpt lat="44.7761010484607" lon="7.237360391451994"><ele>1124.0</ele><time>2026-04-25T14:40:41Z</time></trkpt><trkpt lat="44.77615773366039" lon="7.237318553108712"><ele>1124.0000000000002</ele><time>2026-04-25T14:40:44Z</time></trkpt><trkpt lat="44.77620173899173" lon="7.237253319583823"><ele>1124.0</ele><time>2026-04-25T14:40:47Z</time></trkpt><trkpt lat="44.77625278150444" lon="7.237179369085378"><ele>1121.0</ele><time>2026-04-25T14:40:51Z</time></trkpt><trkpt lat="44.77630078067851" lon="7.236980748626487"><ele>1118.0</ele><time>2026-04-25T14:40:54Z</time></trkpt><trkpt lat="44.77633315749946" lon="7.23708634615618"><ele>1115.0</ele><time>2026-04-25T14:41:20.999Z</time></trkpt><trkpt lat="44.77638250317822" lon="7.237200403521998"><ele>1112.0</ele><time>2026-04-25T14:41:22.999Z</time></trkpt><trkpt lat="44.77642661093471" lon="7.237264446214261"><ele>1109.0</ele><time>2026-04-25T14:41:44.999Z</time></trkpt><trkpt lat="44.776499003138426" lon="7.2372807418052325"><ele>1109.0</ele><time>2026-04-25T14:41:46.999Z</time></trkpt><trkpt lat="44.77658204673866" lon="7.237247012889611"><ele>1109.0</ele><time>2026-04-25T14:41:49.998Z</time></trkpt><trkpt lat="44.776665332829246" lon="7.237165281456688"><ele>1109.0</ele><time>2026-04-25T14:41:51.998Z</time></trkpt><trkpt lat="44.77673875817619" lon="7.237107448961634"><ele>1109.0</ele><time>2026-04-25T14:41:53.998Z</time></trkpt><trkpt lat="44.77684922228887" lon="7.237065081608878"><ele>1109.0</ele><time>2026-04-25T14:41:55.998Z</time></trkpt><trkpt lat="44.776945803579714" lon="7.237053083784847"><ele>1106.6666666666667</ele><time>2026-04-25T14:41:56.998Z</time></trkpt><trkpt lat="44.777033342284646" lon="7.2370410180037075"><ele>1104.3333333333335</ele><time>2026-04-25T14:41:57.998Z</time></trkpt><trkpt lat="44.77710820384983" lon="7.23705091219857"><ele>1102.0</ele><time>2026-04-25T14:41:58.998Z</time></trkpt><trkpt lat="44.777175456240954" lon="7.237057657968109"><ele>1099.6666666666667</ele><time>2026-04-25T14:41:59.998Z</time></trkpt><trkpt lat="44.777244255262" lon="7.23705373873415"><ele>1097.3333333333333</ele><time>2026-04-25T14:42:00.998Z</time></trkpt><trkpt lat="44.77731034569061" lon="7.237026807685426"><ele>1095.0</ele><time>2026-04-25T14:42:01.998Z</time></trkpt><trkpt lat="44.7774044043082" lon="7.236972638760262"><ele>1094.9999999999998</ele><time>2026-04-25T14:42:03.998Z</time></trkpt><trkpt lat="44.77746137964874" lon="7.236933897159672"><ele>1095.0</ele><time>2026-04-25T14:42:04.998Z</time></trkpt><trkpt lat="44.77753312000354" lon="7.236901020936046"><ele>1095.0</ele><time>2026-04-25T14:42:05.998Z</time></trkpt><trkpt lat="44.77761158148469" lon="7.236893989278258"><ele>1095.0</ele><time>2026-04-25T14:42:06.998Z</time></trkpt><trkpt lat="44.77767981374233" lon="7.236889582934856"><ele>1095.0</ele><time>2026-04-25T14:42:07.998Z</time></trkpt><trkpt lat="44.77775860149441" lon="7.236875931614491"><ele>1094.9999999999998</ele><time>2026-04-25T14:42:08.998Z</time></trkpt><trkpt lat="44.77783787697552" lon="7.2368444587740415"><ele>1095.0</ele><time>2026-04-25T14:42:09.998Z</time></trkpt><trkpt lat="44.777911434193875" lon="7.236812800562194"><ele>1094.0</ele><time>2026-04-25T14:42:10.998Z</time></trkpt><trkpt lat="44.77799929079137" lon="7.236767458732231"><ele>1093.0</ele><time>2026-04-25T14:42:11.998Z</time></trkpt><trkpt lat="44.778117402962245" lon="7.236725473616574"><ele>1092.0</ele><time>2026-04-25T14:42:12.998Z</time></trkpt><trkpt lat="44.7782530756661" lon="7.23666426770639"><ele>1091.0</ele><time>2026-04-25T14:42:13.998Z</time></trkpt><trkpt lat="44.77833406198558" lon="7.236620067439169"><ele>1090.0</ele><time>2026-04-25T14:42:14.998Z</time></trkpt><trkpt lat="44.77846275506396" lon="7.236675021617293"><ele>1086.0</ele><time>2026-04-25T14:42:16.998Z</time></trkpt><trkpt lat="44.778531898873716" lon="7.236715333285717"><ele>1082.0</ele><time>2026-04-25T14:42:17.998Z</time></trkpt><trkpt lat="44.778591032493544" lon="7.236754540222346"><ele>1078.0</ele><time>2026-04-25T14:42:18.998Z</time></trkpt><trkpt lat="44.778674627176784" lon="7.236890608559538"><ele>1074.0</ele><time>2026-04-25T14:42:20.998Z</time></trkpt><trkpt lat="44.77871675541259" lon="7.236963541264023"><ele>1070.0</ele><time>2026-04-25T14:42:21.998Z</time></trkpt><trkpt lat="44.77875326811982" lon="7.237048056261289"><ele>1066.0</ele><time>2026-04-25T14:42:22.998Z</time></trkpt><trkpt lat="44.77879229125984" lon="7.237125372074124"><ele>1066.0</ele><time>2026-04-25T14:42:23.998Z</time></trkpt><trkpt lat="44.77889832898587" lon="7.237239203834218"><ele>1066.0</ele><time>2026-04-25T14:42:25.998Z</time></trkpt><trkpt lat="44.77896498782136" lon="7.23727290851426"><ele>1066.0</ele><time>2026-04-25T14:42:26.998Z</time></trkpt><trkpt lat="44.77903293636858" lon="7.237325086773896"><ele>1066.0</ele><time>2026-04-25T14:42:27.998Z</time></trkpt><trkpt lat="44.77909765459802" lon="7.2373876052170445"><ele>1066.0</ele><time>2026-04-25T14:42:29.998Z</time></trkpt><trkpt lat="44.77912704825598" lon="7.237473173166767"><ele>1066.0</ele><time>2026-04-25T14:42:30.998Z</time></trkpt><trkpt lat="44.77921951104158" lon="7.237575669021385"><ele>1067.3333333333333</ele><time>2026-04-25T14:42:32.998Z</time></trkpt><trkpt lat="44.77929293902191" lon="7.2376376048601"><ele>1068.6666666666665</ele><time>2026-04-25T14:42:33.998Z</time></trkpt><trkpt lat="44.779340122440324" lon="7.237734162961549"><ele>1070.0</ele><time>2026-04-25T14:42:35Z</time></trkpt><trkpt lat="44.77940538409706" lon="7.237833719795943"><ele>1071.3333333333333</ele><time>2026-04-25T14:42:36Z</time></trkpt><trkpt lat="44.77946313474195" lon="7.2378925610504306"><ele>1072.6666666666667</ele><time>2026-04-25T14:42:37Z</time></trkpt><trkpt lat="44.7795306170453" lon="7.237931828046223"><ele>1074.0</ele><time>2026-04-25T14:42:38Z</time></trkpt><trkpt lat="44.779621274946464" lon="7.237985253188462"><ele>1070.6666666666667</ele><time>2026-04-25T14:42:39Z</time></trkpt><trkpt lat="44.77970903671175" lon="7.2380591025508245"><ele>1067.3333333333333</ele><time>2026-04-25T14:42:40Z</time></trkpt><trkpt lat="44.77977153321682" lon="7.238134603223512"><ele>1064.0</ele><time>2026-04-25T14:42:41Z</time></trkpt><trkpt lat="44.77982606727046" lon="7.238205407013413"><ele>1060.6666666666665</ele><time>2026-04-25T14:42:42Z</time></trkpt><trkpt lat="44.7798851743904" lon="7.238301200480295"><ele>1057.3333333333333</ele><time>2026-04-25T14:42:43Z</time></trkpt><trkpt lat="44.77995286753109" lon="7.23838657995143"><ele>1054.0</ele><time>2026-04-25T14:42:44Z</time></trkpt><trkpt lat="44.780024907778746" lon="7.2384565020035"><ele>1054.0</ele><time>2026-04-25T14:42:45Z</time></trkpt><trkpt lat="44.78010083584629" lon="7.238527227244639"><ele>1054.0</ele><time>2026-04-25T14:42:46Z</time></trkpt><trkpt lat="44.78015953240558" lon="7.238574087527733"><ele>1054.0</ele><time>2026-04-25T14:42:47Z</time></trkpt><trkpt lat="44.780238243451876" lon="7.238592202539813"><ele>1054.0</ele><time>2026-04-25T14:42:48Z</time></trkpt><trkpt lat="44.78030521575975" lon="7.238587681161863"><ele>1054.0</ele><time>2026-04-25T14:42:49Z</time></trkpt><trkpt lat="44.7804069924305" lon="7.238670018006963"><ele>1054.0</ele><time>2026-04-25T14:42:51Z</time></trkpt><trkpt lat="44.78049977974977" lon="7.238687732477595"><ele>1050.6000000000001</ele><time>2026-04-25T14:42:53Z</time></trkpt><trkpt lat="44.78054805192729" lon="7.238602440608167"><ele>1047.2</ele><time>2026-04-25T14:42:54Z</time></trkpt><trkpt lat="44.78061778363065" lon="7.238520302781411"><ele>1043.8000000000002</ele><time>2026-04-25T14:42:55Z</time></trkpt><trkpt lat="44.7807048154075" lon="7.238525741656231"><ele>1040.4</ele><time>2026-04-25T14:42:57Z</time></trkpt><trkpt lat="44.78083679049638" lon="7.2385812357113535"><ele>1037.0</ele><time>2026-04-25T14:42:59Z</time></trkpt><trkpt lat="44.78093656670834" lon="7.238662143718406"><ele>1037.0</ele><time>2026-04-25T14:43:00Z</time></trkpt><trkpt lat="44.7810078107224" lon="7.2387173683064345"><ele>1037.0</ele><time>2026-04-25T14:43:01Z</time></trkpt><trkpt lat="44.78110369011872" lon="7.2387396392599666"><ele>1037.0</ele><time>2026-04-25T14:43:02Z</time></trkpt><trkpt lat="44.78119236667654" lon="7.238764913594777"><ele>1037.0</ele><time>2026-04-25T14:43:03Z</time></trkpt><trkpt lat="44.78129246406272" lon="7.238809067021034"><ele>1037.0</ele><time>2026-04-25T14:43:03.999Z</time></trkpt><trkpt lat="44.78138784358829" lon="7.238823057511315"><ele>1031.5</ele><time>2026-04-25T14:43:04.999Z</time></trkpt><trkpt lat="44.781492838163" lon="7.238843230891121"><ele>1026.0</ele><time>2026-04-25T14:43:05.999Z</time></trkpt><trkpt lat="44.78159346684571" lon="7.238864540825418"><ele>1020.5</ele><time>2026-04-25T14:43:06.999Z</time></trkpt><trkpt lat="44.78169363278614" lon="7.238893869812667"><ele>1015.0</ele><time>2026-04-25T14:43:07.999Z</time></trkpt><trkpt lat="44.78183147093037" lon="7.238934981129789"><ele>1014.6</ele><time>2026-04-25T14:43:08.999Z</time></trkpt><trkpt lat="44.781970979133064" lon="7.238982244269395"><ele>1014.2</ele><time>2026-04-25T14:43:09.999Z</time></trkpt><trkpt lat="44.78207965613226" lon="7.239012921521144"><ele>1013.8</ele><time>2026-04-25T14:43:10.999Z</time></trkpt><trkpt lat="44.78217851519663" lon="7.239027054688742"><ele>1013.4</ele><time>2026-04-25T14:43:11.999Z</time></trkpt><trkpt lat="44.78227274773732" lon="7.239047242332446"><ele>1013.0</ele><time>2026-04-25T14:43:12.999Z</time></trkpt><trkpt lat="44.782393385896285" lon="7.239074886165028"><ele>1013.0</ele><time>2026-04-25T14:43:13.999Z</time></trkpt><trkpt lat="44.78249137789862" lon="7.239067437964401"><ele>1013.0</ele><time>2026-04-25T14:43:14.999Z</time></trkpt><trkpt lat="44.782563385539255" lon="7.2390306018841635"><ele>1013.0</ele><time>2026-04-25T14:43:15.999Z</time></trkpt><trkpt lat="44.782698854193505" lon="7.238900157519836"><ele>1013.0</ele><time>2026-04-25T14:43:17.999Z</time></trkpt><trkpt lat="44.78281565305168" lon="7.2388363097548405"><ele>1011.0</ele><time>2026-04-25T14:43:18.999Z</time></trkpt><trkpt lat="44.78289897767714" lon="7.2387791510744295"><ele>1009.0</ele><time>2026-04-25T14:43:19.999Z</time></trkpt><trkpt lat="44.78298268030654" lon="7.238734304806902"><ele>1007.0</ele><time>2026-04-25T14:43:21.999Z</time></trkpt><trkpt lat="44.78304450836681" lon="7.23858366607774"><ele>1005.0</ele><time>2026-04-25T14:43:39.999Z</time></trkpt><trkpt lat="44.78310666167102" lon="7.238484385742362"><ele>1003.0</ele><time>2026-04-25T14:43:40.999Z</time></trkpt><trkpt lat="44.78317979425616" lon="7.238406646080941"><ele>1003.0</ele><time>2026-04-25T14:43:41.999Z</time></trkpt><trkpt lat="44.783241175363806" lon="7.238343440159603"><ele>1003.0</ele><time>2026-04-25T14:43:42.999Z</time></trkpt><trkpt lat="44.78334487454592" lon="7.238248330117163"><ele>1003.0</ele><time>2026-04-25T14:43:44.999Z</time></trkpt><trkpt lat="44.78345452762806" lon="7.2382007138023035"><ele>1003.0</ele><time>2026-04-25T14:43:46.999Z</time></trkpt><trkpt lat="44.78361068903062" lon="7.238189161142534"><ele>1000.9999999999999</ele><time>2026-04-25T14:43:48.999Z</time></trkpt><trkpt lat="44.783694428877766" lon="7.238160965677328"><ele>999.0</ele><time>2026-04-25T14:43:49.999Z</time></trkpt><trkpt lat="44.783772789842935" lon="7.238132928188584"><ele>997.0</ele><time>2026-04-25T14:43:50.999Z</time></trkpt><trkpt lat="44.78384489508811" lon="7.238094461526778"><ele>995.0</ele><time>2026-04-25T14:43:51.999Z</time></trkpt><trkpt lat="44.783928458289246" lon="7.23804829215043"><ele>992.9999999999999</ele><time>2026-04-25T14:43:52.999Z</time></trkpt><trkpt lat="44.78399970165369" lon="7.238027927741555"><ele>991.0</ele><time>2026-04-25T14:43:53.998Z</time></trkpt><trkpt lat="44.78407665456302" lon="7.238022680278182"><ele>990.4</ele><time>2026-04-25T14:43:54.998Z</time></trkpt><trkpt lat="44.784167006930055" lon="7.23803198531639"><ele>989.8</ele><time>2026-04-25T14:43:55.998Z</time></trkpt><trkpt lat="44.78424521012652" lon="7.238030703980227"><ele>989.1999999999999</ele><time>2026-04-25T14:43:56.998Z</time></trkpt><trkpt lat="44.78433249828618" lon="7.238015686016026"><ele>988.5999999999999</ele><time>2026-04-25T14:43:57.998Z</time></trkpt><trkpt lat="44.78443160495152" lon="7.237986938437194"><ele>988.0</ele><time>2026-04-25T14:43:58.998Z</time></trkpt><trkpt lat="44.78453350996986" lon="7.237957491939229"><ele>987.2</ele><time>2026-04-25T14:43:59.998Z</time></trkpt><trkpt lat="44.7846373569079" lon="7.237930616683391"><ele>986.4</ele><time>2026-04-25T14:44:00.998Z</time></trkpt><trkpt lat="44.78473312255244" lon="7.237908611003454"><ele>985.6000000000001</ele><time>2026-04-25T14:44:01.998Z</time></trkpt><trkpt lat="44.78480655808393" lon="7.237907180405126"><ele>984.8000000000001</ele><time>2026-04-25T14:44:02.998Z</time></trkpt><trkpt lat="44.784933264264865" lon="7.237937162777583"><ele>984.0</ele><time>2026-04-25T14:44:04.998Z</time></trkpt><trkpt lat="44.78499827354802" lon="7.237963812875201"><ele>984.0</ele><time>2026-04-25T14:44:05.998Z</time></trkpt><trkpt lat="44.785065951518575" lon="7.237967744213008"><ele>984.0</ele><time>2026-04-25T14:44:06.998Z</time></trkpt><trkpt lat="44.78513141343573" lon="7.237944624810653"><ele>984.0</ele><time>2026-04-25T14:44:07.998Z</time></trkpt><trkpt lat="44.78519746016909" lon="7.237899433490381"><ele>984.0</ele><time>2026-04-25T14:44:08.998Z</time></trkpt><trkpt lat="44.78525176737967" lon="7.237851974667442"><ele>984.0</ele><time>2026-04-25T14:44:09.998Z</time></trkpt><trkpt lat="44.78531164315248" lon="7.237812766362999"><ele>984.0</ele><time>2026-04-25T14:44:10.998Z</time></trkpt><trkpt lat="44.78541954056266" lon="7.2378862987336605"><ele>983.6</ele><time>2026-04-25T14:44:11.998Z</time></trkpt><trkpt lat="44.78548075725426" lon="7.237838034087759"><ele>983.2</ele><time>2026-04-25T14:44:12.998Z</time></trkpt><trkpt lat="44.78556791960082" lon="7.237798481525598"><ele>982.8000000000001</ele><time>2026-04-25T14:44:13.998Z</time></trkpt><trkpt lat="44.7856534312405" lon="7.237713049187753"><ele>982.4000000000001</ele><time>2026-04-25T14:44:14.998Z</time></trkpt><trkpt lat="44.785724700298374" lon="7.237613096718645"><ele>982.0</ele><time>2026-04-25T14:44:15.998Z</time></trkpt><trkpt lat="44.78580265873193" lon="7.237528620328831"><ele>981.9999999999999</ele><time>2026-04-25T14:44:16.998Z</time></trkpt><trkpt lat="44.785875026617674" lon="7.2374617305966815"><ele>982.0</ele><time>2026-04-25T14:44:17.998Z</time></trkpt><trkpt lat="44.785942407919734" lon="7.237409833231836"><ele>982.0</ele><time>2026-04-25T14:44:18.998Z</time></trkpt><trkpt lat="44.78600114221394" lon="7.237356911885874"><ele>982.0</ele><time>2026-04-25T14:44:19.998Z</time></trkpt><trkpt lat="44.78606256383335" lon="7.237326808133822"><ele>981.9999999999999</ele><time>2026-04-25T14:44:20.998Z</time></trkpt><trkpt lat="44.786176321582175" lon="7.237365309144866"><ele>982.0</ele><time>2026-04-25T14:44:22.998Z</time></trkpt><trkpt lat="44.78625762062908" lon="7.2373900035776"><ele>981.0</ele><time>2026-04-25T14:44:23.998Z</time></trkpt><trkpt lat="44.78634270416883" lon="7.2373926516214055"><ele>980.0</ele><time>2026-04-25T14:44:24.998Z</time></trkpt><trkpt lat="44.786431483130656" lon="7.237278129410337"><ele>979.0</ele><time>2026-04-25T14:44:25.998Z</time></trkpt><trkpt lat="44.786515227321274" lon="7.237201961298659"><ele>978.0</ele><time>2026-04-25T14:44:26.998Z</time></trkpt><trkpt lat="44.78660010271564" lon="7.237129606017887"><ele>977.0</ele><time>2026-04-25T14:44:27.998Z</time></trkpt><trkpt lat="44.78668619301341" lon="7.23705526463378"><ele>977.0</ele><time>2026-04-25T14:44:28.998Z</time></trkpt><trkpt lat="44.78676954211851" lon="7.236963594231827"><ele>977.0</ele><time>2026-04-25T14:44:29.998Z</time></trkpt><trkpt lat="44.786862238079976" lon="7.236874414105287"><ele>977.0</ele><time>2026-04-25T14:44:30.998Z</time></trkpt><trkpt lat="44.786960497609115" lon="7.236783175650122"><ele>977.0</ele><time>2026-04-25T14:44:31.998Z</time></trkpt><trkpt lat="44.787052443617355" lon="7.23668496978912"><ele>977.6</ele><time>2026-04-25T14:44:32.998Z</time></trkpt><trkpt lat="44.78712889682816" lon="7.236587940157346"><ele>978.2</ele><time>2026-04-25T14:44:33.998Z</time></trkpt><trkpt lat="44.78718381045273" lon="7.236498714989447"><ele>978.8</ele><time>2026-04-25T14:44:34.998Z</time></trkpt><trkpt lat="44.78721132678077" lon="7.236415306207222"><ele>979.4</ele><time>2026-04-25T14:44:35.998Z</time></trkpt><trkpt lat="44.78717190808496" lon="7.236246757886218"><ele>980.0</ele><time>2026-04-25T14:44:37.998Z</time></trkpt><trkpt lat="44.78716892334852" lon="7.236115933584953"><ele>979.5000000000001</ele><time>2026-04-25T14:44:38.998Z</time></trkpt><trkpt lat="44.787160499687474" lon="7.23599565706254"><ele>979.0</ele><time>2026-04-25T14:44:40Z</time></trkpt><trkpt lat="44.78715160860584" lon="7.235884734925709"><ele>978.5</ele><time>2026-04-25T14:44:41Z</time></trkpt><trkpt lat="44.78714355012338" lon="7.235781478065237"><ele>978.0</ele><time>2026-04-25T14:44:42Z</time></trkpt><trkpt lat="44.78713848259515" lon="7.235681088967466"><ele>977.5000000000001</ele><time>2026-04-25T14:44:43Z</time></trkpt><trkpt lat="44.78713856126957" lon="7.235570872235259"><ele>977.0</ele><time>2026-04-25T14:44:44Z</time></trkpt><trkpt lat="44.78714660157626" lon="7.235467752633279"><ele>977.0000000000001</ele><time>2026-04-25T14:44:45Z</time></trkpt><trkpt lat="44.7871670146506" lon="7.235365642113148"><ele>977.0</ele><time>2026-04-25T14:44:46Z</time></trkpt><trkpt lat="44.78719501427766" lon="7.235274189362654"><ele>977.0</ele><time>2026-04-25T14:44:47Z</time></trkpt><trkpt lat="44.7872271080301" lon="7.235181211888103"><ele>977.0</ele><time>2026-04-25T14:44:48Z</time></trkpt><trkpt lat="44.78727308794772" lon="7.235069265146195"><ele>977.0000000000001</ele><time>2026-04-25T14:44:49Z</time></trkpt><trkpt lat="44.78733114239384" lon="7.234943840815551"><ele>977.0</ele><time>2026-04-25T14:44:50Z</time></trkpt><trkpt lat="44.7874033088296" lon="7.234799584973667"><ele>975.25</ele><time>2026-04-25T14:44:51Z</time></trkpt><trkpt lat="44.7874850688264" lon="7.2346309671181706"><ele>973.5</ele><time>2026-04-25T14:44:52Z</time></trkpt><trkpt lat="44.787568837438236" lon="7.234478962941016"><ele>971.75</ele><time>2026-04-25T14:44:53Z</time></trkpt><trkpt lat="44.787625786826446" lon="7.2343437634346675"><ele>970.0</ele><time>2026-04-25T14:44:54Z</time></trkpt><trkpt lat="44.78767714417474" lon="7.234246383021216"><ele>970.0</ele><time>2026-04-25T14:44:55Z</time></trkpt><trkpt lat="44.78770330346262" lon="7.234163871511273"><ele>970.0</ele><time>2026-04-25T14:44:56Z</time></trkpt><trkpt lat="44.78769709043419" lon="7.2340635779613764"><ele>970.0</ele><time>2026-04-25T14:44:58Z</time></trkpt><trkpt lat="44.787564377456285" lon="7.233922664821315"><ele>970.0</ele><time>2026-04-25T14:45:00Z</time></trkpt><trkpt lat="44.787449416667485" lon="7.233854335164309"><ele>970.0</ele><time>2026-04-25T14:45:01Z</time></trkpt><trkpt lat="44.787349373624124" lon="7.233815229445929"><ele>969.2</ele><time>2026-04-25T14:45:02Z</time></trkpt><trkpt lat="44.78727604859159" lon="7.233795957423611"><ele>968.4</ele><time>2026-04-25T14:45:03Z</time></trkpt><trkpt lat="44.787201590600496" lon="7.233794507313879"><ele>967.5999999999999</ele><time>2026-04-25T14:45:04Z</time></trkpt><trkpt lat="44.78712462781259" lon="7.233837272945363"><ele>966.8</ele><time>2026-04-25T14:45:04.999Z</time></trkpt><trkpt lat="44.78705202100976" lon="7.233928574994541"><ele>966.0</ele><time>2026-04-25T14:45:05.999Z</time></trkpt><trkpt lat="44.786962847408184" lon="7.234042806193684"><ele>966.0</ele><time>2026-04-25T14:45:06.999Z</time></trkpt><trkpt lat="44.78687923051005" lon="7.234194922934208"><ele>965.9999999999999</ele><time>2026-04-25T14:45:07.999Z</time></trkpt><trkpt lat="44.78680534388302" lon="7.234317094839328"><ele>965.9999999999999</ele><time>2026-04-25T14:45:08.999Z</time></trkpt><trkpt lat="44.78675680700546" lon="7.234401758285731"><ele>966.0</ele><time>2026-04-25T14:45:09.999Z</time></trkpt><trkpt lat="44.7867160627268" lon="7.234472357651179"><ele>966.0</ele><time>2026-04-25T14:45:10.999Z</time></trkpt><trkpt lat="44.78666353134706" lon="7.2345707989834"><ele>962.4</ele><time>2026-04-25T14:45:12.999Z</time></trkpt><trkpt lat="44.78658975232963" lon="7.234370481495437"><ele>958.8</ele><time>2026-04-25T14:45:14.999Z</time></trkpt><trkpt lat="44.78660654263117" lon="7.234230940828592"><ele>955.1999999999999</ele><time>2026-04-25T14:45:15.999Z</time></trkpt><trkpt lat="44.78662294429214" lon="7.234115822628163"><ele>951.5999999999999</ele><time>2026-04-25T14:45:16.999Z</time></trkpt><trkpt lat="44.786640413192934" lon="7.2340019427314415"><ele>948.0</ele><time>2026-04-25T14:45:17.999Z</time></trkpt><trkpt lat="44.786653516452915" lon="7.233887007319555"><ele>944.8</ele><time>2026-04-25T14:45:18.999Z</time></trkpt><trkpt lat="44.78665811741423" lon="7.2337723607528845"><ele>941.5999999999999</ele><time>2026-04-25T14:45:19.999Z</time></trkpt><trkpt lat="44.78664190859085" lon="7.233649438923595"><ele>938.4000000000001</ele><time>2026-04-25T14:45:21.999Z</time></trkpt><trkpt lat="44.7865090109029" lon="7.233688827443047"><ele>935.2</ele><time>2026-04-25T14:45:25.999Z</time></trkpt><trkpt lat="44.78649556225691" lon="7.233812332911003"><ele>932.0</ele><time>2026-04-25T14:46:05.998Z</time></trkpt><trkpt lat="44.78655288690157" lon="7.2336892786573985"><ele>932.0</ele><time>2026-04-25T14:46:15.998Z</time></trkpt><trkpt lat="44.78664811996418" lon="7.233622616185402"><ele>932.0</ele><time>2026-04-25T14:46:17.998Z</time></trkpt><trkpt lat="44.786705945342305" lon="7.233677681462639"><ele>932.0</ele><time>2026-04-25T14:46:19.998Z</time></trkpt><trkpt lat="44.786688034174816" lon="7.233818302761496"><ele>932.0</ele><time>2026-04-25T14:46:21.998Z</time></trkpt><trkpt lat="44.78665393435081" lon="7.233982408353411"><ele>932.0</ele><time>2026-04-25T14:46:23.998Z</time></trkpt><trkpt lat="44.78664798508912" lon="7.234097022287131"><ele>935.2</ele><time>2026-04-25T14:46:24.998Z</time></trkpt><trkpt lat="44.78657719459008" lon="7.234198641847032"><ele>938.4000000000001</ele><time>2026-04-25T14:46:25.998Z</time></trkpt><trkpt lat="44.786558027227606" lon="7.234328367877542"><ele>941.5999999999999</ele><time>2026-04-25T14:46:26.998Z</time></trkpt><trkpt lat="44.78655443193381" lon="7.234422223973129"><ele>944.8</ele><time>2026-04-25T14:46:27.998Z</time></trkpt><trkpt lat="44.786575576085085" lon="7.234601777881837"><ele>948.0</ele><time>2026-04-25T14:46:29.998Z</time></trkpt><trkpt lat="44.78664761421573" lon="7.234679682762445"><ele>948.0</ele><time>2026-04-25T14:46:30.998Z</time></trkpt><trkpt lat="44.786754318647056" lon="7.234574778519313"><ele>948.0</ele><time>2026-04-25T14:46:31.998Z</time></trkpt><trkpt lat="44.78678180585065" lon="7.234442872768163"><ele>948.0</ele><time>2026-04-25T14:46:32.998Z</time></trkpt><trkpt lat="44.78683435923361" lon="7.234332075353703"><ele>948.0</ele><time>2026-04-25T14:46:33.998Z</time></trkpt><trkpt lat="44.78689803207177" lon="7.234229797673267"><ele>948.0</ele><time>2026-04-25T14:46:34.998Z</time></trkpt><trkpt lat="44.786974351334045" lon="7.234096403724048"><ele>948.5999999999999</ele><time>2026-04-25T14:46:35.998Z</time></trkpt><trkpt lat="44.78705346731042" lon="7.233952056959785"><ele>949.1999999999999</ele><time>2026-04-25T14:46:36.998Z</time></trkpt><trkpt lat="44.787126317004386" lon="7.233886552341023"><ele>949.8</ele><time>2026-04-25T14:46:37.998Z</time></trkpt><trkpt lat="44.7871992918164" lon="7.233843524139675"><ele>950.4</ele><time>2026-04-25T14:46:38.998Z</time></trkpt><trkpt lat="44.78728850501846" lon="7.233821154286937"><ele>951.0</ele><time>2026-04-25T14:46:39.998Z</time></trkpt><trkpt lat="44.78737245671173" lon="7.233867224099133"><ele>951.0</ele><time>2026-04-25T14:46:40.998Z</time></trkpt><trkpt lat="44.787456300966404" lon="7.2339075994110456"><ele>951.0</ele><time>2026-04-25T14:46:41.998Z</time></trkpt><trkpt lat="44.78754087939153" lon="7.233965349532009"><ele>951.0</ele><time>2026-04-25T14:46:42.998Z</time></trkpt><trkpt lat="44.78763158901762" lon="7.234051959953106"><ele>951.0</ele><time>2026-04-25T14:46:43.998Z</time></trkpt><trkpt lat="44.78768059475068" lon="7.234137707771102"><ele>951.0</ele><time>2026-04-25T14:46:45Z</time></trkpt><trkpt lat="44.78770386044438" lon="7.234242604248548"><ele>951.0</ele><time>2026-04-25T14:46:47Z</time></trkpt><trkpt lat="44.787640938166746" lon="7.234363326863626"><ele>954.0</ele><time>2026-04-25T14:46:50Z</time></trkpt><trkpt lat="44.787547843991305" lon="7.234477649575461"><ele>956.9999999999999</ele><time>2026-04-25T14:46:52Z</time></trkpt><trkpt lat="44.787498852218754" lon="7.234552270736754"><ele>959.9999999999999</ele><time>2026-04-25T14:46:53Z</time></trkpt><trkpt lat="44.78742870749551" lon="7.234659271809266"><ele>963.0</ele><time>2026-04-25T14:46:54Z</time></trkpt><trkpt lat="44.78736566538432" lon="7.234773236549111"><ele>966.0</ele><time>2026-04-25T14:46:55Z</time></trkpt><trkpt lat="44.78731315148723" lon="7.234893468198766"><ele>968.1999999999999</ele><time>2026-04-25T14:46:56Z</time></trkpt><trkpt lat="44.78725582041003" lon="7.235043366025502"><ele>970.3999999999999</ele><time>2026-04-25T14:46:57Z</time></trkpt><trkpt lat="44.78720138432398" lon="7.235201094510771"><ele>972.6</ele><time>2026-04-25T14:46:58Z</time></trkpt><trkpt lat="44.787159329166435" lon="7.235342285828741"><ele>974.8</ele><time>2026-04-25T14:46:59Z</time></trkpt><trkpt lat="44.78714610408082" lon="7.235471289805186"><ele>977.0</ele><time>2026-04-25T14:47:00Z</time></trkpt><trkpt lat="44.78714004048654" lon="7.2356198634277336"><ele>979.25</ele><time>2026-04-25T14:47:01Z</time></trkpt><trkpt lat="44.7871443880402" lon="7.235786501746702"><ele>981.5</ele><time>2026-04-25T14:47:02Z</time></trkpt><trkpt lat="44.787156725113505" lon="7.235956947581388"><ele>983.75</ele><time>2026-04-25T14:47:02.999Z</time></trkpt><trkpt lat="44.787164973048746" lon="7.236113325947982"><ele>986.0</ele><time>2026-04-25T14:47:03.999Z</time></trkpt><trkpt lat="44.78716569813632" lon="7.236255021161049"><ele>986.0</ele><time>2026-04-25T14:47:04.999Z</time></trkpt><trkpt lat="44.787168670883794" lon="7.236368667323317"><ele>985.9999999999999</ele><time>2026-04-25T14:47:05.999Z</time></trkpt><trkpt lat="44.7871395724396" lon="7.236496378210091"><ele>985.9999999999999</ele><time>2026-04-25T14:47:07.999Z</time></trkpt><trkpt lat="44.78709697178227" lon="7.236572983700297"><ele>986.0</ele><time>2026-04-25T14:47:08.999Z</time></trkpt><trkpt lat="44.7870249944884" lon="7.23665443786137"><ele>986.0</ele><time>2026-04-25T14:47:09.999Z</time></trkpt><trkpt lat="44.78691831819694" lon="7.236754321640818"><ele>983.75</ele><time>2026-04-25T14:47:10.999Z</time></trkpt><trkpt lat="44.786825901122704" lon="7.23684852686902"><ele>981.5</ele><time>2026-04-25T14:47:11.999Z</time></trkpt><trkpt lat="44.78673641399132" lon="7.236947424101731"><ele>979.25</ele><time>2026-04-25T14:47:12.999Z</time></trkpt><trkpt lat="44.78664505640662" lon="7.237043991973575"><ele>977.0</ele><time>2026-04-25T14:47:13.999Z</time></trkpt><trkpt lat="44.78654392913751" lon="7.237134755604"><ele>977.0</ele><time>2026-04-25T14:47:14.999Z</time></trkpt><trkpt lat="44.7864430596318" lon="7.237217115519266"><ele>977.0</ele><time>2026-04-25T14:47:15.999Z</time></trkpt><trkpt lat="44.78635201153584" lon="7.237268944058566"><ele>977.0</ele><time>2026-04-25T14:47:16.999Z</time></trkpt><trkpt lat="44.78625894697808" lon="7.237289124423963"><ele>977.0</ele><time>2026-04-25T14:47:17.999Z</time></trkpt><trkpt lat="44.786178887228786" lon="7.237274212260543"><ele>977.0</ele><time>2026-04-25T14:47:18.999Z</time></trkpt><trkpt lat="44.786096080255184" lon="7.23723568309285"><ele>977.0</ele><time>2026-04-25T14:47:19.999Z</time></trkpt><trkpt lat="44.786015302085254" lon="7.237237651818417"><ele>977.0</ele><time>2026-04-25T14:47:20.999Z</time></trkpt><trkpt lat="44.78593883575733" lon="7.237273937755812"><ele>977.0</ele><time>2026-04-25T14:47:21.999Z</time></trkpt><trkpt lat="44.78588673366352" lon="7.237407859063761"><ele>977.0</ele><time>2026-04-25T14:47:22.999Z</time></trkpt><trkpt lat="44.785826990888815" lon="7.237520555780637"><ele>977.0</ele><time>2026-04-25T14:47:23.999Z</time></trkpt><trkpt lat="44.785745474475114" lon="7.237599567524409"><ele>978.0</ele><time>2026-04-25T14:47:24.999Z</time></trkpt><trkpt lat="44.785653533998634" lon="7.237663784430288"><ele>979.0</ele><time>2026-04-25T14:47:25.999Z</time></trkpt><trkpt lat="44.785568411727745" lon="7.237719255322712"><ele>980.0</ele><time>2026-04-25T14:47:26.999Z</time></trkpt><trkpt lat="44.78548642321883" lon="7.237760889954586"><ele>981.0</ele><time>2026-04-25T14:47:27.999Z</time></trkpt><trkpt lat="44.78538901019997" lon="7.237767344892951"><ele>982.0</ele><time>2026-04-25T14:47:28.999Z</time></trkpt><trkpt lat="44.785301541966085" lon="7.237775953332092"><ele>982.0</ele><time>2026-04-25T14:47:29.999Z</time></trkpt><trkpt lat="44.785208765915876" lon="7.237822364333942"><ele>982.0</ele><time>2026-04-25T14:47:30.999Z</time></trkpt><trkpt lat="44.78511799377666" lon="7.23787754685259"><ele>982.0</ele><time>2026-04-25T14:47:31.999Z</time></trkpt><trkpt lat="44.785017925601146" lon="7.237907648204895"><ele>982.0</ele><time>2026-04-25T14:47:32.999Z</time></trkpt><trkpt lat="44.78491519776733" lon="7.23789724881791"><ele>982.0</ele><time>2026-04-25T14:47:33.999Z</time></trkpt><trkpt lat="44.78481199373671" lon="7.2378630771280665"><ele>982.4000000000001</ele><time>2026-04-25T14:47:34.999Z</time></trkpt><trkpt lat="44.784712316215156" lon="7.237840590090871"><ele>982.8000000000001</ele><time>2026-04-25T14:47:35.999Z</time></trkpt><trkpt lat="44.78461426197241" lon="7.237841899676195"><ele>983.2</ele><time>2026-04-25T14:47:36.999Z</time></trkpt><trkpt lat="44.78452243214149" lon="7.237870686314893"><ele>983.6</ele><time>2026-04-25T14:47:37.999Z</time></trkpt><trkpt lat="44.78442436944061" lon="7.237918092053732"><ele>984.0</ele><time>2026-04-25T14:47:38.999Z</time></trkpt><trkpt lat="44.78431817257838" lon="7.237971690715066"><ele>985.0</ele><time>2026-04-25T14:47:39.999Z</time></trkpt><trkpt lat="44.78419898436409" lon="7.2379829263561675"><ele>986.0</ele><time>2026-04-25T14:47:40.999Z</time></trkpt><trkpt lat="44.78409108410629" lon="7.23797857475971"><ele>987.0</ele><time>2026-04-25T14:47:41.999Z</time></trkpt><trkpt lat="44.78396900971738" lon="7.237982994443383"><ele>988.0</ele><time>2026-04-25T14:47:42.999Z</time></trkpt><trkpt lat="44.78385535632885" lon="7.238000996053636"><ele>988.0</ele><time>2026-04-25T14:47:43.999Z</time></trkpt><trkpt lat="44.78375440666418" lon="7.238053674916038"><ele>988.0</ele><time>2026-04-25T14:47:44.999Z</time></trkpt><trkpt lat="44.783669521850534" lon="7.238115534890804"><ele>988.0</ele><time>2026-04-25T14:47:45.999Z</time></trkpt><trkpt lat="44.78358045695622" lon="7.238153426511065"><ele>988.0</ele><time>2026-04-25T14:47:46.999Z</time></trkpt><trkpt lat="44.783485337805814" lon="7.23816545388198"><ele>988.0</ele><time>2026-04-25T14:47:47.999Z</time></trkpt><trkpt lat="44.783397646053" lon="7.2381717110658474"><ele>990.4999999999999</ele><time>2026-04-25T14:47:48.999Z</time></trkpt><trkpt lat="44.783317218243226" lon="7.23819105104213"><ele>993.0</ele><time>2026-04-25T14:47:49.999Z</time></trkpt><trkpt lat="44.78325029482884" lon="7.238244019065614"><ele>995.5</ele><time>2026-04-25T14:47:50.999Z</time></trkpt><trkpt lat="44.78319216480382" lon="7.238326354157575"><ele>998.0</ele><time>2026-04-25T14:47:51.999Z</time></trkpt><trkpt lat="44.78311727736174" lon="7.238401199324888"><ele>1000.4999999999999</ele><time>2026-04-25T14:47:52.999Z</time></trkpt><trkpt lat="44.783051171587246" lon="7.238496564106323"><ele>1003.0</ele><time>2026-04-25T14:47:53.999Z</time></trkpt><trkpt lat="44.783004236146574" lon="7.2385953685889755"><ele>1003.0</ele><time>2026-04-25T14:47:54.999Z</time></trkpt><trkpt lat="44.78297607611476" lon="7.238679128623941"><ele>1003.0</ele><time>2026-04-25T14:47:55.999Z</time></trkpt><trkpt lat="44.78295728044383" lon="7.238824163298203"><ele>1003.0</ele><time>2026-04-25T14:48:29.998Z</time></trkpt><trkpt lat="44.782927204581995" lon="7.23895768028526"><ele>1003.0</ele><time>2026-04-25T14:48:30.998Z</time></trkpt><trkpt lat="44.7828637979346" lon="7.239127136504989"><ele>1003.0</ele><time>2026-04-25T14:48:31.998Z</time></trkpt><trkpt lat="44.7827675139724" lon="7.239312891492344"><ele>1006.3333333333333</ele><time>2026-04-25T14:48:32.998Z</time></trkpt><trkpt lat="44.782617415324836" lon="7.23946546836595"><ele>1009.6666666666667</ele><time>2026-04-25T14:48:33.998Z</time></trkpt><trkpt lat="44.78248047227055" lon="7.239589549074586"><ele>1013.0</ele><time>2026-04-25T14:48:34.998Z</time></trkpt><trkpt lat="44.78235787063989" lon="7.239705994784914"><ele>1008.75</ele><time>2026-04-25T14:48:35.998Z</time></trkpt><trkpt lat="44.78226070388368" lon="7.239846083622935"><ele>1004.5</ele><time>2026-04-25T14:48:36.998Z</time></trkpt><trkpt lat="44.78219068158699" lon="7.240007347130072"><ele>1000.25</ele><time>2026-04-25T14:48:37.998Z</time></trkpt><trkpt lat="44.782135416013766" lon="7.240160049821372"><ele>996.0</ele><time>2026-04-25T14:48:38.998Z</time></trkpt><trkpt lat="44.78209188952699" lon="7.240301995736064"><ele>996.0</ele><time>2026-04-25T14:48:39.998Z</time></trkpt><trkpt lat="44.78201212592921" lon="7.240437627630495"><ele>996.0</ele><time>2026-04-25T14:48:40.998Z</time></trkpt><trkpt lat="44.781940533020524" lon="7.2405496588847305"><ele>996.0</ele><time>2026-04-25T14:48:41.998Z</time></trkpt><trkpt lat="44.78186119865397" lon="7.240662157974606"><ele>996.0</ele><time>2026-04-25T14:48:42.998Z</time></trkpt><trkpt lat="44.78178935933361" lon="7.240799312490398"><ele>999.0</ele><time>2026-04-25T14:48:43.998Z</time></trkpt><trkpt lat="44.781705671743936" lon="7.240932461582329"><ele>1002.0</ele><time>2026-04-25T14:48:44.998Z</time></trkpt><trkpt lat="44.781635739985326" lon="7.241049049991068"><ele>1005.0</ele><time>2026-04-25T14:48:45.998Z</time></trkpt><trkpt lat="44.78153947764325" lon="7.241152271018856"><ele>1008.0</ele><time>2026-04-25T14:48:47.998Z</time></trkpt><trkpt lat="44.781403115136364" lon="7.2412237887141755"><ele>1008.0</ele><time>2026-04-25T14:48:49.997Z</time></trkpt><trkpt lat="44.781321225807226" lon="7.241213000040111"><ele>1008.0</ele><time>2026-04-25T14:48:51Z</time></trkpt><trkpt lat="44.781190577363255" lon="7.241164864252842"><ele>1008.0</ele><time>2026-04-25T14:48:52Z</time></trkpt><trkpt lat="44.781080774021206" lon="7.2411534520990966"><ele>1008.0</ele><time>2026-04-25T14:48:53Z</time></trkpt><trkpt lat="44.78097730652269" lon="7.241140758740911"><ele>1008.0</ele><time>2026-04-25T14:48:54Z</time></trkpt><trkpt lat="44.780881893949285" lon="7.2410976469106165"><ele>1007.6666666666667</ele><time>2026-04-25T14:48:55Z</time></trkpt><trkpt lat="44.78078423170794" lon="7.240970972786082"><ele>1007.3333333333334</ele><time>2026-04-25T14:48:56Z</time></trkpt><trkpt lat="44.78066698851948" lon="7.240791639229654"><ele>1007.0</ele><time>2026-04-25T14:48:57Z</time></trkpt><trkpt lat="44.7805467799412" lon="7.24065866496283"><ele>1007.0</ele><time>2026-04-25T14:48:58Z</time></trkpt><trkpt lat="44.78045919582515" lon="7.240618851828098"><ele>1007.0</ele><time>2026-04-25T14:48:59Z</time></trkpt><trkpt lat="44.780370052797174" lon="7.24064654057183"><ele>1007.0</ele><time>2026-04-25T14:49:00Z</time></trkpt><trkpt lat="44.78026805267672" lon="7.24070762636134"><ele>1007.0</ele><time>2026-04-25T14:49:01Z</time></trkpt><trkpt lat="44.78016700334953" lon="7.240742464303856"><ele>1007.0</ele><time>2026-04-25T14:49:02Z</time></trkpt><trkpt lat="44.780056272594486" lon="7.240755267905196"><ele>1004.3333333333334</ele><time>2026-04-25T14:49:03Z</time></trkpt><trkpt lat="44.77999159834651" lon="7.240753424439389"><ele>1001.6666666666667</ele><time>2026-04-25T14:49:04Z</time></trkpt><trkpt lat="44.77990267575143" lon="7.240710476793454"><ele>999.0</ele><time>2026-04-25T14:49:05Z</time></trkpt><trkpt lat="44.77983805433896" lon="7.24066476406509"><ele>996.3333333333333</ele><time>2026-04-25T14:49:06Z</time></trkpt><trkpt lat="44.77977643455196" lon="7.240593620713173"><ele>993.6666666666666</ele><time>2026-04-25T14:49:07Z</time></trkpt><trkpt lat="44.77971747631649" lon="7.24051361228813"><ele>991.0</ele><time>2026-04-25T14:49:08Z</time></trkpt><trkpt lat="44.77964305040993" lon="7.240426550718089"><ele>992.4999999999999</ele><time>2026-04-25T14:49:09Z</time></trkpt><trkpt lat="44.77958260327888" lon="7.240343598604271"><ele>994.0</ele><time>2026-04-25T14:49:10Z</time></trkpt><trkpt lat="44.77951121527509" lon="7.24025282130935"><ele>995.5</ele><time>2026-04-25T14:49:10.999Z</time></trkpt><trkpt lat="44.7794385476003" lon="7.240170739499242"><ele>997.0</ele><time>2026-04-25T14:49:11.999Z</time></trkpt><trkpt lat="44.77934744500871" lon="7.240105575666458"><ele>998.4999999999999</ele><time>2026-04-25T14:49:12.999Z</time></trkpt><trkpt lat="44.77927850587803" lon="7.240071920021509"><ele>1000.0</ele><time>2026-04-25T14:49:13.999Z</time></trkpt><trkpt lat="44.77919947787919" lon="7.240069022779952"><ele>1000.0</ele><time>2026-04-25T14:49:14.999Z</time></trkpt><trkpt lat="44.779108001830295" lon="7.2400750079279765"><ele>1000.0</ele><time>2026-04-25T14:49:15.999Z</time></trkpt><trkpt lat="44.77901051852773" lon="7.2400871584476185"><ele>1000.0</ele><time>2026-04-25T14:49:16.999Z</time></trkpt><trkpt lat="44.77892510883402" lon="7.240085721057248"><ele>1000.0</ele><time>2026-04-25T14:49:17.999Z</time></trkpt><trkpt lat="44.77883762098266" lon="7.240080624015242"><ele>1000.0</ele><time>2026-04-25T14:49:18.999Z</time></trkpt><trkpt lat="44.77874014346322" lon="7.240079981909588"><ele>1000.0</ele><time>2026-04-25T14:49:19.999Z</time></trkpt><trkpt lat="44.778623923828754" lon="7.240074129976792"><ele>1000.0</ele><time>2026-04-25T14:49:20.999Z</time></trkpt><trkpt lat="44.77850049193182" lon="7.240054432192763"><ele>1000.0</ele><time>2026-04-25T14:49:21.999Z</time></trkpt><trkpt lat="44.77838157703532" lon="7.2400674764929365"><ele>1000.0</ele><time>2026-04-25T14:49:22.999Z</time></trkpt><trkpt lat="44.77829031920912" lon="7.240140055508806"><ele>997.6</ele><time>2026-04-25T14:49:23.999Z</time></trkpt><trkpt lat="44.778191197778305" lon="7.240194162960969"><ele>995.2</ele><time>2026-04-25T14:49:24.999Z</time></trkpt><trkpt lat="44.778095859353755" lon="7.240202067984671"><ele>992.8</ele><time>2026-04-25T14:49:25.999Z</time></trkpt><trkpt lat="44.778008049573806" lon="7.240207415269425"><ele>990.4</ele><time>2026-04-25T14:49:26.999Z</time></trkpt><trkpt lat="44.7779287587144" lon="7.240231319321371"><ele>988.0</ele><time>2026-04-25T14:49:27.999Z</time></trkpt><trkpt lat="44.77785443476473" lon="7.2403100610876"><ele>988.0</ele><time>2026-04-25T14:49:28.999Z</time></trkpt><trkpt lat="44.777789106978624" lon="7.2404225665360435"><ele>988.0</ele><time>2026-04-25T14:49:29.999Z</time></trkpt><trkpt lat="44.77771163945662" lon="7.240539566290943"><ele>988.0</ele><time>2026-04-25T14:49:30.999Z</time></trkpt><trkpt lat="44.7776518629472" lon="7.240651358593442"><ele>988.0</ele><time>2026-04-25T14:49:31.999Z</time></trkpt><trkpt lat="44.7776567907954" lon="7.240810564025048"><ele>988.0</ele><time>2026-04-25T14:49:33.999Z</time></trkpt><trkpt lat="44.77770258342475" lon="7.240935424611005"><ele>982.8</ele><time>2026-04-25T14:49:34.999Z</time></trkpt><trkpt lat="44.7777349833609" lon="7.241075842904536"><ele>977.5999999999999</ele><time>2026-04-25T14:49:35.999Z</time></trkpt><trkpt lat="44.77776323256253" lon="7.241228197032171"><ele>972.4000000000001</ele><time>2026-04-25T14:49:36.999Z</time></trkpt><trkpt lat="44.77781330951605" lon="7.241375122357172"><ele>967.2</ele><time>2026-04-25T14:49:37.999Z</time></trkpt><trkpt lat="44.777817522542136" lon="7.241484959782788"><ele>962.0</ele><time>2026-04-25T14:49:38.999Z</time></trkpt><trkpt lat="44.77779470142366" lon="7.241607241844772"><ele>958.6</ele><time>2026-04-25T14:49:39.999Z</time></trkpt><trkpt lat="44.77775723066718" lon="7.241733673605528"><ele>955.2</ele><time>2026-04-25T14:49:40.999Z</time></trkpt><trkpt lat="44.77773592229533" lon="7.2418872725365695"><ele>951.8</ele><time>2026-04-25T14:49:41.999Z</time></trkpt><trkpt lat="44.77772333763096" lon="7.2420560290357"><ele>948.4</ele><time>2026-04-25T14:49:42.999Z</time></trkpt><trkpt lat="44.77773209741546" lon="7.2421947024490185"><ele>945.0</ele><time>2026-04-25T14:49:43.999Z</time></trkpt><trkpt lat="44.777722791212014" lon="7.2423190547569805"><ele>942.3333333333334</ele><time>2026-04-25T14:49:44.999Z</time></trkpt><trkpt lat="44.77769536945011" lon="7.242442451861838"><ele>939.6666666666667</ele><time>2026-04-25T14:49:45.999Z</time></trkpt><trkpt lat="44.777684343409646" lon="7.242541434926317"><ele>937.0</ele><time>2026-04-25T14:49:46.999Z</time></trkpt><trkpt lat="44.77765113601145" lon="7.242640951470463"><ele>934.3333333333334</ele><time>2026-04-25T14:49:47.999Z</time></trkpt><trkpt lat="44.777605316595256" lon="7.242730134198861"><ele>931.6666666666667</ele><time>2026-04-25T14:49:48.999Z</time></trkpt><trkpt lat="44.7775414813655" lon="7.242804224705957"><ele>929.0</ele><time>2026-04-25T14:49:49.999Z</time></trkpt><trkpt lat="44.77747839644201" lon="7.242876254217462"><ele>933.5000000000001</ele><time>2026-04-25T14:49:50.999Z</time></trkpt><trkpt lat="44.77742940791341" lon="7.24297687905696"><ele>938.0</ele><time>2026-04-25T14:49:51.999Z</time></trkpt><trkpt lat="44.777402025757816" lon="7.243092333795296"><ele>942.5</ele><time>2026-04-25T14:49:52.999Z</time></trkpt><trkpt lat="44.777383113485804" lon="7.243218151549941"><ele>947.0</ele><time>2026-04-25T14:49:53.999Z</time></trkpt><trkpt lat="44.77737512881592" lon="7.243322094390439"><ele>951.5000000000001</ele><time>2026-04-25T14:49:54.999Z</time></trkpt><trkpt lat="44.777386377646245" lon="7.243423892655885"><ele>956.0</ele><time>2026-04-25T14:49:55.999Z</time></trkpt><trkpt lat="44.77739851101493" lon="7.243518418317497"><ele>956.0</ele><time>2026-04-25T14:49:56.999Z</time></trkpt><trkpt lat="44.77741008732811" lon="7.243627156442002"><ele>955.9999999999999</ele><time>2026-04-25T14:49:58.999Z</time></trkpt><trkpt lat="44.77736390755299" lon="7.243719039366527"><ele>955.9999999999999</ele><time>2026-04-25T14:50:00.999Z</time></trkpt><trkpt lat="44.777242287612054" lon="7.2437852699970655"><ele>956.0</ele><time>2026-04-25T14:50:02.999Z</time></trkpt><trkpt lat="44.777146111252286" lon="7.243805731806847"><ele>956.0</ele><time>2026-04-25T14:50:03.999Z</time></trkpt><trkpt lat="44.77705196873565" lon="7.243864967973129"><ele>956.0</ele><time>2026-04-25T14:50:04.998Z</time></trkpt><trkpt lat="44.776921904693296" lon="7.243878831078847"><ele>956.0</ele><time>2026-04-25T14:50:05.998Z</time></trkpt><trkpt lat="44.776731722085536" lon="7.243880339534647"><ele>956.0</ele><time>2026-04-25T14:50:06.998Z</time></trkpt><trkpt lat="44.77663492480051" lon="7.243923551182043"><ele>956.0</ele><time>2026-04-25T14:50:07.998Z</time></trkpt><trkpt lat="44.77655368449727" lon="7.24393227506459"><ele>955.8333333333334</ele><time>2026-04-25T14:50:08.998Z</time></trkpt><trkpt lat="44.77650118579743" lon="7.243995709044091"><ele>955.6666666666667</ele><time>2026-04-25T14:50:09.998Z</time></trkpt><trkpt lat="44.77642509655348" lon="7.244015775650646"><ele>955.5</ele><time>2026-04-25T14:50:10.998Z</time></trkpt><trkpt lat="44.776342221360515" lon="7.244024855681491"><ele>955.3333333333333</ele><time>2026-04-25T14:50:11.998Z</time></trkpt><trkpt lat="44.77625395493225" lon="7.24403883134933"><ele>955.1666666666666</ele><time>2026-04-25T14:50:12.998Z</time></trkpt><trkpt lat="44.77613823223243" lon="7.244078689054432"><ele>955.0</ele><time>2026-04-25T14:50:13.998Z</time></trkpt><trkpt lat="44.776033277353825" lon="7.244029769661059"><ele>957.4</ele><time>2026-04-25T14:50:14.998Z</time></trkpt><trkpt lat="44.77592865573088" lon="7.243988237800304"><ele>959.8</ele><time>2026-04-25T14:50:15.998Z</time></trkpt><trkpt lat="44.77584071152001" lon="7.243949443357358"><ele>962.2</ele><time>2026-04-25T14:50:16.998Z</time></trkpt><trkpt lat="44.77577227947502" lon="7.243950716965202"><ele>964.6</ele><time>2026-04-25T14:50:17.998Z</time></trkpt><trkpt lat="44.77570169633951" lon="7.243998958571073"><ele>967.0</ele><time>2026-04-25T14:50:19.998Z</time></trkpt><trkpt lat="44.77568241630321" lon="7.244147687516346"><ele>967.0</ele><time>2026-04-25T14:50:21.998Z</time></trkpt><trkpt lat="44.77569758497238" lon="7.244293254898629"><ele>967.0</ele><time>2026-04-25T14:50:24.998Z</time></trkpt><trkpt lat="44.77570050540569" lon="7.244421070563967"><ele>967.0</ele><time>2026-04-25T14:50:26.998Z</time></trkpt><trkpt lat="44.775709325253885" lon="7.244624524815648"><ele>967.0</ele><time>2026-04-25T14:50:27.998Z</time></trkpt><trkpt lat="44.77572536173545" lon="7.2447420310731765"><ele>967.0</ele><time>2026-04-25T14:50:28.998Z</time></trkpt><trkpt lat="44.77576105531655" lon="7.24490540840073"><ele>965.6666666666666</ele><time>2026-04-25T14:50:29.998Z</time></trkpt><trkpt lat="44.77580845982633" lon="7.245016616638124"><ele>964.3333333333333</ele><time>2026-04-25T14:50:30.998Z</time></trkpt><trkpt lat="44.77586238687335" lon="7.245127568483752"><ele>963.0</ele><time>2026-04-25T14:50:31.998Z</time></trkpt><trkpt lat="44.77593866826306" lon="7.245200129787537"><ele>961.6666666666667</ele><time>2026-04-25T14:50:32.998Z</time></trkpt><trkpt lat="44.776009626652886" lon="7.245246208173246"><ele>960.3333333333334</ele><time>2026-04-25T14:50:33.998Z</time></trkpt><trkpt lat="44.77607712792642" lon="7.245312607189379"><ele>959.0</ele><time>2026-04-25T14:50:34.998Z</time></trkpt><trkpt lat="44.77616778019746" lon="7.245407138630243"><ele>955.8333333333334</ele><time>2026-04-25T14:50:36.998Z</time></trkpt><trkpt lat="44.776205161032934" lon="7.245500327752183"><ele>952.6666666666667</ele><time>2026-04-25T14:50:37.998Z</time></trkpt><trkpt lat="44.7762552094896" lon="7.2455731859457035"><ele>949.5</ele><time>2026-04-25T14:50:38.998Z</time></trkpt><trkpt lat="44.77632622070449" lon="7.245651003685145"><ele>946.3333333333333</ele><time>2026-04-25T14:50:39.998Z</time></trkpt><trkpt lat="44.77640901319049" lon="7.245730022685047"><ele>943.1666666666666</ele><time>2026-04-25T14:50:40.998Z</time></trkpt><trkpt lat="44.77648666664182" lon="7.245806179042303"><ele>940.0</ele><time>2026-04-25T14:50:41.998Z</time></trkpt><trkpt lat="44.77656365380518" lon="7.245879423631424"><ele>939.9999999999999</ele><time>2026-04-25T14:50:42.998Z</time></trkpt><trkpt lat="44.776630948740284" lon="7.245957534181526"><ele>940.0</ele><time>2026-04-25T14:50:43.998Z</time></trkpt><trkpt lat="44.77670266257243" lon="7.246027171861508"><ele>940.0</ele><time>2026-04-25T14:50:44.998Z</time></trkpt><trkpt lat="44.776771191579854" lon="7.246100053252746"><ele>940.0</ele><time>2026-04-25T14:50:45.998Z</time></trkpt><trkpt lat="44.776843682866364" lon="7.246167690403738"><ele>939.9999999999999</ele><time>2026-04-25T14:50:46.998Z</time></trkpt><trkpt lat="44.77691909956007" lon="7.246233472190038"><ele>940.0</ele><time>2026-04-25T14:50:47.998Z</time></trkpt><trkpt lat="44.77697252602673" lon="7.24631041578"><ele>939.4999999999999</ele><time>2026-04-25T14:50:48.998Z</time></trkpt><trkpt lat="44.777040178067004" lon="7.246439012618781"><ele>939.0</ele><time>2026-04-25T14:50:50.998Z</time></trkpt><trkpt lat="44.7771327373923" lon="7.246521378581811"><ele>938.5</ele><time>2026-04-25T14:50:51.998Z</time></trkpt><trkpt lat="44.77719549689734" lon="7.246576310873983"><ele>938.0</ele><time>2026-04-25T14:50:52.998Z</time></trkpt><trkpt lat="44.77724589564246" lon="7.246631175359564"><ele>937.4999999999999</ele><time>2026-04-25T14:50:53.998Z</time></trkpt><trkpt lat="44.777295553506455" lon="7.246726585437781"><ele>937.0</ele><time>2026-04-25T14:50:55.998Z</time></trkpt><trkpt lat="44.777356710479765" lon="7.246843849228599"><ele>937.0</ele><time>2026-04-25T14:50:59Z</time></trkpt><trkpt lat="44.77740163034012" lon="7.246968319414641"><ele>937.0</ele><time>2026-04-25T14:51:01Z</time></trkpt><trkpt lat="44.77735031104413" lon="7.247063865080408"><ele>937.0</ele><time>2026-04-25T14:51:03Z</time></trkpt><trkpt lat="44.77726439582561" lon="7.247155243996158"><ele>937.0</ele><time>2026-04-25T14:51:06Z</time></trkpt><trkpt lat="44.77720759835951" lon="7.247233035061957"><ele>937.0</ele><time>2026-04-25T14:51:07Z</time></trkpt><trkpt lat="44.77713506545992" lon="7.24731265127793"><ele>937.0</ele><time>2026-04-25T14:51:08Z</time></trkpt><trkpt lat="44.77705419744333" lon="7.247390934481287"><ele>937.0</ele><time>2026-04-25T14:51:09Z</time></trkpt><trkpt lat="44.77698252435922" lon="7.247476692346116"><ele>937.0</ele><time>2026-04-25T14:51:10Z</time></trkpt><trkpt lat="44.77690061604524" lon="7.247568468107369"><ele>937.0</ele><time>2026-04-25T14:51:11Z</time></trkpt><trkpt lat="44.77683520153811" lon="7.247656473767611"><ele>937.0</ele><time>2026-04-25T14:51:12Z</time></trkpt><trkpt lat="44.77680036633661" lon="7.2477328376095524"><ele>938.8333333333333</ele><time>2026-04-25T14:51:13Z</time></trkpt><trkpt lat="44.77675666435199" lon="7.2478487193264085"><ele>940.6666666666666</ele><time>2026-04-25T14:51:14Z</time></trkpt><trkpt lat="44.776700616242934" lon="7.247949496044856"><ele>942.5</ele><time>2026-04-25T14:51:15Z</time></trkpt><trkpt lat="44.77667146751412" lon="7.248039743460837"><ele>944.3333333333333</ele><time>2026-04-25T14:51:16Z</time></trkpt><trkpt lat="44.77667339499841" lon="7.248145352954751"><ele>946.1666666666666</ele><time>2026-04-25T14:51:17Z</time></trkpt><trkpt lat="44.776706017738796" lon="7.248247022623992"><ele>948.0</ele><time>2026-04-25T14:51:17.999Z</time></trkpt><trkpt lat="44.776764705961284" lon="7.248314257328887"><ele>948.0</ele><time>2026-04-25T14:51:18.999Z</time></trkpt><trkpt lat="44.77683592691572" lon="7.248380991236007"><ele>948.0</ele><time>2026-04-25T14:51:19.999Z</time></trkpt><trkpt lat="44.77691641942286" lon="7.248473857504303"><ele>948.0</ele><time>2026-04-25T14:51:20.999Z</time></trkpt><trkpt lat="44.777007180904455" lon="7.248581754698683"><ele>948.0</ele><time>2026-04-25T14:51:21.999Z</time></trkpt><trkpt lat="44.777117937285574" lon="7.248649944442525"><ele>948.0</ele><time>2026-04-25T14:51:22.999Z</time></trkpt><trkpt lat="44.7772267845894" lon="7.2486979226132515"><ele>944.2</ele><time>2026-04-25T14:51:23.999Z</time></trkpt><trkpt lat="44.77732678340259" lon="7.248703986900732"><ele>940.4</ele><time>2026-04-25T14:51:24.999Z</time></trkpt><trkpt lat="44.77742087517177" lon="7.248751637166082"><ele>936.6000000000001</ele><time>2026-04-25T14:51:25.999Z</time></trkpt><trkpt lat="44.777515310781986" lon="7.248846363023526"><ele>932.8000000000001</ele><time>2026-04-25T14:51:26.999Z</time></trkpt><trkpt lat="44.77758899659116" lon="7.248973310403054"><ele>929.0</ele><time>2026-04-25T14:51:27.999Z</time></trkpt><trkpt lat="44.77764872908575" lon="7.249117103581371"><ele>920.25</ele><time>2026-04-25T14:51:28.999Z</time></trkpt><trkpt lat="44.777716134177716" lon="7.24927210487471"><ele>911.5</ele><time>2026-04-25T14:51:29.999Z</time></trkpt><trkpt lat="44.77778841032248" lon="7.249437028326366"><ele>902.75</ele><time>2026-04-25T14:51:30.999Z</time></trkpt><trkpt lat="44.777846301518" lon="7.249585030455342"><ele>894.0</ele><time>2026-04-25T14:51:31.999Z</time></trkpt><trkpt lat="44.77792065208917" lon="7.249719117693678"><ele>895.8000000000001</ele><time>2026-04-25T14:51:32.999Z</time></trkpt><trkpt lat="44.77798706581176" lon="7.249853758085733"><ele>897.6000000000001</ele><time>2026-04-25T14:51:33.999Z</time></trkpt><trkpt lat="44.7780391038458" lon="7.24998248809183"><ele>899.4</ele><time>2026-04-25T14:51:34.999Z</time></trkpt><trkpt lat="44.77808082911464" lon="7.250095290023552"><ele>901.2</ele><time>2026-04-25T14:51:35.999Z</time></trkpt><trkpt lat="44.77813391766812" lon="7.250217196867329"><ele>903.0</ele><time>2026-04-25T14:51:36.999Z</time></trkpt><trkpt lat="44.77819224851136" lon="7.250326926328956"><ele>903.0</ele><time>2026-04-25T14:51:37.999Z</time></trkpt><trkpt lat="44.77824661360787" lon="7.250420024439617"><ele>903.0</ele><time>2026-04-25T14:51:38.999Z</time></trkpt><trkpt lat="44.77829596592896" lon="7.250509156028759"><ele>903.0</ele><time>2026-04-25T14:51:39.999Z</time></trkpt><trkpt lat="44.77832011860567" lon="7.250605967976418"><ele>903.0</ele><time>2026-04-25T14:51:40.999Z</time></trkpt><trkpt lat="44.77831198718828" lon="7.250722274218513"><ele>903.0</ele><time>2026-04-25T14:51:41.999Z</time></trkpt><trkpt lat="44.77830864926086" lon="7.250854865944482"><ele>903.0</ele><time>2026-04-25T14:51:42.999Z</time></trkpt><trkpt lat="44.77831290481836" lon="7.250975197954067"><ele>904.0</ele><time>2026-04-25T14:51:43.999Z</time></trkpt><trkpt lat="44.778315426436045" lon="7.251090716068577"><ele>905.0</ele><time>2026-04-25T14:51:44.999Z</time></trkpt><trkpt lat="44.77833915839612" lon="7.251209286698309"><ele>906.0</ele><time>2026-04-25T14:51:45.999Z</time></trkpt><trkpt lat="44.77834844238403" lon="7.25132957475432"><ele>907.0</ele><time>2026-04-25T14:51:46.999Z</time></trkpt><trkpt lat="44.77835924387696" lon="7.251437449701864"><ele>908.0</ele><time>2026-04-25T14:51:47.999Z</time></trkpt><trkpt lat="44.77836539217027" lon="7.251538749644609"><ele>909.0</ele><time>2026-04-25T14:51:48.999Z</time></trkpt><trkpt lat="44.778360324469034" lon="7.25164405187278"><ele>909.1666666666666</ele><time>2026-04-25T14:51:49.999Z</time></trkpt><trkpt lat="44.77834701955499" lon="7.251752544804364"><ele>909.3333333333333</ele><time>2026-04-25T14:51:50.999Z</time></trkpt><trkpt lat="44.77832640450904" lon="7.251872361419593"><ele>909.5</ele><time>2026-04-25T14:51:51.999Z</time></trkpt><trkpt lat="44.77831216548607" lon="7.251986100709946"><ele>909.6666666666666</ele><time>2026-04-25T14:51:52.999Z</time></trkpt><trkpt lat="44.778296874061574" lon="7.25209692708141"><ele>909.8333333333333</ele><time>2026-04-25T14:51:53.999Z</time></trkpt><trkpt lat="44.778298358469236" lon="7.25220057164073"><ele>910.0</ele><time>2026-04-25T14:51:54.999Z</time></trkpt><trkpt lat="44.778305889965566" lon="7.252307079776019"><ele>909.9999999999999</ele><time>2026-04-25T14:51:55.999Z</time></trkpt><trkpt lat="44.778315670460735" lon="7.252396080420366"><ele>910.0</ele><time>2026-04-25T14:51:56.999Z</time></trkpt><trkpt lat="44.77833179043156" lon="7.252494449013213"><ele>910.0</ele><time>2026-04-25T14:51:57.999Z</time></trkpt><trkpt lat="44.778367403998146" lon="7.252585190110604"><ele>910.0</ele><time>2026-04-25T14:51:59.999Z</time></trkpt><trkpt lat="44.778337519335246" lon="7.252482260370695"><ele>909.9999999999999</ele><time>2026-04-25T14:52:35.998Z</time></trkpt><trkpt lat="44.77835441115095" lon="7.252349402004522"><ele>910.0</ele><time>2026-04-25T14:52:37.998Z</time></trkpt><trkpt lat="44.77836594569281" lon="7.252251805056529"><ele>910.0</ele><time>2026-04-25T14:52:38.998Z</time></trkpt><trkpt lat="44.77837512010222" lon="7.2521295981787395"><ele>910.0</ele><time>2026-04-25T14:52:39.998Z</time></trkpt><trkpt lat="44.77839040825502" lon="7.252007731232001"><ele>910.0</ele><time>2026-04-25T14:52:40.998Z</time></trkpt><trkpt lat="44.77840461027074" lon="7.251882242320175"><ele>910.0</ele><time>2026-04-25T14:52:41.998Z</time></trkpt><trkpt lat="44.77841514822066" lon="7.251749467504095"><ele>910.0</ele><time>2026-04-25T14:52:42.998Z</time></trkpt><trkpt lat="44.77842913211925" lon="7.251617459490187"><ele>909.75</ele><time>2026-04-25T14:52:43.998Z</time></trkpt><trkpt lat="44.77844178070388" lon="7.251455727342692"><ele>909.5</ele><time>2026-04-25T14:52:44.998Z</time></trkpt><trkpt lat="44.77842662766728" lon="7.251279550884797"><ele>909.25</ele><time>2026-04-25T14:52:45.998Z</time></trkpt><trkpt lat="44.7783910120912" lon="7.251100558675736"><ele>909.0</ele><time>2026-04-25T14:52:46.998Z</time></trkpt><trkpt lat="44.77838491105668" lon="7.250952582474704"><ele>909.0</ele><time>2026-04-25T14:52:47.998Z</time></trkpt><trkpt lat="44.778382063928056" lon="7.250802845640531"><ele>909.0000000000001</ele><time>2026-04-25T14:52:48.998Z</time></trkpt><trkpt lat="44.778385300029036" lon="7.2506561107827325"><ele>909.0000000000001</ele><time>2026-04-25T14:52:49.998Z</time></trkpt><trkpt lat="44.778361602183644" lon="7.250514498973477"><ele>909.0</ele><time>2026-04-25T14:52:50.998Z</time></trkpt><trkpt lat="44.77830682619304" lon="7.250390411259586"><ele>909.0</ele><time>2026-04-25T14:52:51.998Z</time></trkpt><trkpt lat="44.77823702636853" lon="7.25027825411623"><ele>907.5</ele><time>2026-04-25T14:52:52.998Z</time></trkpt><trkpt lat="44.77816039965476" lon="7.2501453403939875"><ele>906.0</ele><time>2026-04-25T14:52:53.998Z</time></trkpt><trkpt lat="44.778088855415454" lon="7.249999961989432"><ele>904.5</ele><time>2026-04-25T14:52:54.998Z</time></trkpt><trkpt lat="44.77800510549222" lon="7.249835372666475"><ele>903.0</ele><time>2026-04-25T14:52:55.998Z</time></trkpt><trkpt lat="44.77791691325047" lon="7.249659593173331"><ele>900.75</ele><time>2026-04-25T14:52:56.998Z</time></trkpt><trkpt lat="44.77783341311001" lon="7.249471635090953"><ele>898.5</ele><time>2026-04-25T14:52:57.998Z</time></trkpt><trkpt lat="44.77774852252777" lon="7.249300429995548"><ele>896.25</ele><time>2026-04-25T14:52:58.998Z</time></trkpt><trkpt lat="44.7776793455343" lon="7.249150172387136"><ele>894.0</ele><time>2026-04-25T14:52:59.998Z</time></trkpt><trkpt lat="44.77762495487442" lon="7.249002296500663"><ele>898.8000000000001</ele><time>2026-04-25T14:53:00.998Z</time></trkpt><trkpt lat="44.77756294487427" lon="7.248881200760883"><ele>903.6000000000001</ele><time>2026-04-25T14:53:01.998Z</time></trkpt><trkpt lat="44.77748042327764" lon="7.248769224201132"><ele>908.4</ele><time>2026-04-25T14:53:03Z</time></trkpt><trkpt lat="44.7773817882573" lon="7.248681255520978"><ele>913.2</ele><time>2026-04-25T14:53:04Z</time></trkpt><trkpt lat="44.77730521961851" lon="7.248640778459672"><ele>918.0</ele><time>2026-04-25T14:53:05Z</time></trkpt><trkpt lat="44.777216393640636" lon="7.24862046638833"><ele>918.0</ele><time>2026-04-25T14:53:06Z</time></trkpt><trkpt lat="44.77710328751234" lon="7.248599505305678"><ele>918.0</ele><time>2026-04-25T14:53:07Z</time></trkpt><trkpt lat="44.776999346743736" lon="7.2485521417508405"><ele>918.0</ele><time>2026-04-25T14:53:08Z</time></trkpt><trkpt lat="44.77692146469293" lon="7.24845309160451"><ele>918.0</ele><time>2026-04-25T14:53:09Z</time></trkpt><trkpt lat="44.776837339153815" lon="7.2483269382493765"><ele>921.1666666666666</ele><time>2026-04-25T14:53:10Z</time></trkpt><trkpt lat="44.776764370955924" lon="7.248207071485449"><ele>924.3333333333333</ele><time>2026-04-25T14:53:11Z</time></trkpt><trkpt lat="44.776722121416" lon="7.248106748454502"><ele>927.5</ele><time>2026-04-25T14:53:12Z</time></trkpt><trkpt lat="44.77672134420168" lon="7.248016062453738"><ele>930.6666666666666</ele><time>2026-04-25T14:53:13Z</time></trkpt><trkpt lat="44.776778789294816" lon="7.247917014446964"><ele>933.8333333333333</ele><time>2026-04-25T14:53:14Z</time></trkpt><trkpt lat="44.77685562431193" lon="7.247837620044526"><ele>937.0</ele><time>2026-04-25T14:53:15Z</time></trkpt><trkpt lat="44.77691239949036" lon="7.2477285268467195"><ele>937.0</ele><time>2026-04-25T14:53:16Z</time></trkpt><trkpt lat="44.77696656924999" lon="7.247605039943503"><ele>937.0</ele><time>2026-04-25T14:53:17Z</time></trkpt><trkpt lat="44.777041862083685" lon="7.24749282086788"><ele>937.0</ele><time>2026-04-25T14:53:18Z</time></trkpt><trkpt lat="44.777150950595704" lon="7.247416267348102"><ele>937.0</ele><time>2026-04-25T14:53:19Z</time></trkpt><trkpt lat="44.77728080145131" lon="7.247284546522911"><ele>937.0</ele><time>2026-04-25T14:53:20Z</time></trkpt><trkpt lat="44.77734858534296" lon="7.2471596826707865"><ele>937.0</ele><time>2026-04-25T14:53:21Z</time></trkpt><trkpt lat="44.77738635544765" lon="7.247010214360502"><ele>937.0</ele><time>2026-04-25T14:53:23Z</time></trkpt><trkpt lat="44.77737136116274" lon="7.246887716019118"><ele>937.0</ele><time>2026-04-25T14:53:24Z</time></trkpt><trkpt lat="44.777310986682664" lon="7.246734955814733"><ele>937.0</ele><time>2026-04-25T14:53:24.999Z</time></trkpt><trkpt lat="44.777267248270576" lon="7.246610161517736"><ele>937.0</ele><time>2026-04-25T14:53:25.999Z</time></trkpt><trkpt lat="44.777195139114795" lon="7.2465230192174666"><ele>937.0</ele><time>2026-04-25T14:53:26.999Z</time></trkpt><trkpt lat="44.777095032194495" lon="7.246406318300922"><ele>937.0</ele><time>2026-04-25T14:53:27.999Z</time></trkpt><trkpt lat="44.77701132590111" lon="7.24627263829928"><ele>937.0</ele><time>2026-04-25T14:53:28.999Z</time></trkpt><trkpt lat="44.77687586829437" lon="7.24612929496574"><ele>938.0</ele><time>2026-04-25T14:53:29.999Z</time></trkpt><trkpt lat="44.77671617601331" lon="7.245950206767484"><ele>939.0</ele><time>2026-04-25T14:53:30.999Z</time></trkpt><trkpt lat="44.776541899252955" lon="7.245779323782257"><ele>940.0</ele><time>2026-04-25T14:53:31.999Z</time></trkpt><trkpt lat="44.776431736020164" lon="7.245663961738238"><ele>937.75</ele><time>2026-04-25T14:53:32.999Z</time></trkpt><trkpt lat="44.77633108951025" lon="7.245570578783127"><ele>935.5</ele><time>2026-04-25T14:53:33.999Z</time></trkpt><trkpt lat="44.77622672759319" lon="7.245468133582275"><ele>933.25</ele><time>2026-04-25T14:53:34.999Z</time></trkpt><trkpt lat="44.77611800439762" lon="7.245363957718944"><ele>931.0</ele><time>2026-04-25T14:53:35.999Z</time></trkpt><trkpt lat="44.77605295416331" lon="7.2452404945146665"><ele>935.6666666666666</ele><time>2026-04-25T14:53:36.999Z</time></trkpt><trkpt lat="44.77596228133892" lon="7.245138196805747"><ele>940.3333333333333</ele><time>2026-04-25T14:53:37.999Z</time></trkpt><trkpt lat="44.77588038035865" lon="7.245078294039422"><ele>945.0</ele><time>2026-04-25T14:53:38.999Z</time></trkpt><trkpt lat="44.77582238554161" lon="7.2450253606726855"><ele>949.6666666666667</ele><time>2026-04-25T14:53:39.999Z</time></trkpt><trkpt lat="44.77579356189014" lon="7.24492030349815"><ele>954.3333333333334</ele><time>2026-04-25T14:53:40.999Z</time></trkpt><trkpt lat="44.77577948969977" lon="7.244792229825311"><ele>959.0</ele><time>2026-04-25T14:53:41.999Z</time></trkpt><trkpt lat="44.77575925561586" lon="7.2446602760957415"><ele>961.0</ele><time>2026-04-25T14:53:42.999Z</time></trkpt><trkpt lat="44.775732856429265" lon="7.244506447630555"><ele>963.0</ele><time>2026-04-25T14:53:43.999Z</time></trkpt><trkpt lat="44.77570529409009" lon="7.244335647879466"><ele>965.0</ele><time>2026-04-25T14:53:44.999Z</time></trkpt><trkpt lat="44.77569872831586" lon="7.244161229301329"><ele>967.0</ele><time>2026-04-25T14:53:45.999Z</time></trkpt><trkpt lat="44.7757071259545" lon="7.244031390261746"><ele>967.0</ele><time>2026-04-25T14:53:46.999Z</time></trkpt><trkpt lat="44.7757667941394" lon="7.243922581482472"><ele>967.0</ele><time>2026-04-25T14:53:48.999Z</time></trkpt><trkpt lat="44.775835973598014" lon="7.243945678832472"><ele>967.0</ele><time>2026-04-25T14:53:49.999Z</time></trkpt><trkpt lat="44.77592156384167" lon="7.243988960781124"><ele>967.0</ele><time>2026-04-25T14:53:50.999Z</time></trkpt><trkpt lat="44.77604973261238" lon="7.2440512636029295"><ele>967.0</ele><time>2026-04-25T14:53:51.999Z</time></trkpt><trkpt lat="44.776189556285246" lon="7.244086567921072"><ele>963.0</ele><time>2026-04-25T14:53:52.999Z</time></trkpt><trkpt lat="44.77636617393152" lon="7.244068357261931"><ele>959.0</ele><time>2026-04-25T14:53:53.999Z</time></trkpt><trkpt lat="44.77652451267781" lon="7.244064619236638"><ele>955.0</ele><time>2026-04-25T14:53:54.999Z</time></trkpt><trkpt lat="44.77666811420599" lon="7.243991154293761"><ele>955.25</ele><time>2026-04-25T14:53:56.999Z</time></trkpt><trkpt lat="44.77677656202742" lon="7.243900067873358"><ele>955.5</ele><time>2026-04-25T14:53:57.999Z</time></trkpt><trkpt lat="44.776874132425384" lon="7.24388789434324"><ele>955.75</ele><time>2026-04-25T14:53:58.999Z</time></trkpt><trkpt lat="44.777022357219465" lon="7.243917532781443"><ele>956.0</ele><time>2026-04-25T14:53:59.999Z</time></trkpt><trkpt lat="44.77715892528171" lon="7.2438966183995905"><ele>956.0</ele><time>2026-04-25T14:54:00.999Z</time></trkpt><trkpt lat="44.777241965084364" lon="7.243890247936863"><ele>955.9999999999999</ele><time>2026-04-25T14:54:01.999Z</time></trkpt><trkpt lat="44.77730898548472" lon="7.243856242857746"><ele>955.9999999999999</ele><time>2026-04-25T14:54:02.999Z</time></trkpt><trkpt lat="44.77737826742093" lon="7.2438024989133085"><ele>956.0</ele><time>2026-04-25T14:54:04.999Z</time></trkpt><trkpt lat="44.77742297166284" lon="7.24366234095343"><ele>956.0</ele><time>2026-04-25T14:54:06.999Z</time></trkpt><trkpt lat="44.7773973856468" lon="7.243461950693988"><ele>956.0</ele><time>2026-04-25T14:54:08.999Z</time></trkpt><trkpt lat="44.77737894894474" lon="7.243323315626494"><ele>956.0</ele><time>2026-04-25T14:54:09.999Z</time></trkpt><trkpt lat="44.77740028912126" lon="7.243144418966808"><ele>956.0</ele><time>2026-04-25T14:54:10.999Z</time></trkpt><trkpt lat="44.77744218428228" lon="7.242941364141658"><ele>956.0</ele><time>2026-04-25T14:54:11.999Z</time></trkpt><trkpt lat="44.77748342900804" lon="7.242801410819586"><ele>954.1666666666667</ele><time>2026-04-25T14:54:12.999Z</time></trkpt><trkpt lat="44.77754848003562" lon="7.242730621554979"><ele>952.3333333333334</ele><time>2026-04-25T14:54:13.999Z</time></trkpt><trkpt lat="44.77761663870691" lon="7.2427058155812105"><ele>950.5</ele><time>2026-04-25T14:54:14.999Z</time></trkpt><trkpt lat="44.77769320552843" lon="7.242638152464764"><ele>948.6666666666667</ele><time>2026-04-25T14:54:15.999Z</time></trkpt><trkpt lat="44.77772493221315" lon="7.2425249030201595"><ele>946.8333333333334</ele><time>2026-04-25T14:54:16.998Z</time></trkpt><trkpt lat="44.77773404672718" lon="7.2423852030388485"><ele>945.0</ele><time>2026-04-25T14:54:17.998Z</time></trkpt><trkpt lat="44.777745640473796" lon="7.242218240800911"><ele>945.0</ele><time>2026-04-25T14:54:18.998Z</time></trkpt><trkpt lat="44.77777360780073" lon="7.2420372711169305"><ele>945.0</ele><time>2026-04-25T14:54:19.998Z</time></trkpt><trkpt lat="44.77780439136871" lon="7.2418953020627015"><ele>945.0</ele><time>2026-04-25T14:54:20.998Z</time></trkpt><trkpt lat="44.777817421924944" lon="7.241786643436508"><ele>945.0</ele><time>2026-04-25T14:54:21.998Z</time></trkpt><trkpt lat="44.77782620593874" lon="7.241612439097632"><ele>945.0</ele><time>2026-04-25T14:54:23.998Z</time></trkpt><trkpt lat="44.777843108840194" lon="7.241493027404386"><ele>947.8333333333334</ele><time>2026-04-25T14:54:24.998Z</time></trkpt><trkpt lat="44.7778555455753" lon="7.241358909951201"><ele>950.6666666666667</ele><time>2026-04-25T14:54:25.998Z</time></trkpt><trkpt lat="44.77784086849571" lon="7.2412394361778585"><ele>953.5</ele><time>2026-04-25T14:54:26.998Z</time></trkpt><trkpt lat="44.77779578786913" lon="7.241130723960427"><ele>956.3333333333334</ele><time>2026-04-25T14:54:27.998Z</time></trkpt><trkpt lat="44.77775578568356" lon="7.241017291408887"><ele>959.1666666666667</ele><time>2026-04-25T14:54:28.998Z</time></trkpt><trkpt lat="44.777727583564086" lon="7.2409228365923015"><ele>962.0</ele><time>2026-04-25T14:54:29.998Z</time></trkpt><trkpt lat="44.77771519203697" lon="7.240806980408345"><ele>962.0</ele><time>2026-04-25T14:54:30.998Z</time></trkpt><trkpt lat="44.77769321421283" lon="7.240687499102643"><ele>962.0</ele><time>2026-04-25T14:54:31.998Z</time></trkpt><trkpt lat="44.77768274058848" lon="7.240586943764912"><ele>962.0</ele><time>2026-04-25T14:54:32.998Z</time></trkpt><trkpt lat="44.77779314953639" lon="7.240473753272547"><ele>962.0</ele><time>2026-04-25T14:54:34.998Z</time></trkpt><trkpt lat="44.777898357523675" lon="7.240352981666108"><ele>962.0</ele><time>2026-04-25T14:54:35.998Z</time></trkpt><trkpt lat="44.777979466882364" lon="7.240260704288762"><ele>967.2</ele><time>2026-04-25T14:54:36.998Z</time></trkpt><trkpt lat="44.778041658502076" lon="7.240219366658836"><ele>972.4000000000001</ele><time>2026-04-25T14:54:37.998Z</time></trkpt><trkpt lat="44.77812688653877" lon="7.2402417641931285"><ele>977.5999999999999</ele><time>2026-04-25T14:54:38.998Z</time></trkpt><trkpt lat="44.778226111907685" lon="7.240267124021531"><ele>982.8</ele><time>2026-04-25T14:54:39.998Z</time></trkpt><trkpt lat="44.77832573390543" lon="7.240224044425208"><ele>988.0</ele><time>2026-04-25T14:54:40.998Z</time></trkpt><trkpt lat="44.77845095715497" lon="7.240178982140775"><ele>990.4</ele><time>2026-04-25T14:54:41.998Z</time></trkpt><trkpt lat="44.77858049641173" lon="7.240152637912823"><ele>992.8</ele><time>2026-04-25T14:54:42.998Z</time></trkpt><trkpt lat="44.77868791336086" lon="7.240154431802729"><ele>995.2</ele><time>2026-04-25T14:54:43.998Z</time></trkpt><trkpt lat="44.778789835133104" lon="7.240152086963387"><ele>997.6</ele><time>2026-04-25T14:54:44.998Z</time></trkpt><trkpt lat="44.778881299137275" lon="7.240154912615002"><ele>1000.0</ele><time>2026-04-25T14:54:45.998Z</time></trkpt><trkpt lat="44.77899295410241" lon="7.2401226355206125"><ele>1000.0</ele><time>2026-04-25T14:54:46.998Z</time></trkpt><trkpt lat="44.779116797512906" lon="7.240114101254947"><ele>1000.0</ele><time>2026-04-25T14:54:47.998Z</time></trkpt><trkpt lat="44.77924891381073" lon="7.2401320072351325"><ele>1000.0</ele><time>2026-04-25T14:54:48.998Z</time></trkpt><trkpt lat="44.77937120424464" lon="7.2401300715843195"><ele>1000.0</ele><time>2026-04-25T14:54:49.998Z</time></trkpt><trkpt lat="44.77944787035606" lon="7.24015714518778"><ele>998.4999999999999</ele><time>2026-04-25T14:54:50.998Z</time></trkpt><trkpt lat="44.779533964810966" lon="7.240292765812663"><ele>997.0</ele><time>2026-04-25T14:54:52.998Z</time></trkpt><trkpt lat="44.779584572661406" lon="7.240370762352148"><ele>995.5</ele><time>2026-04-25T14:54:53.998Z</time></trkpt><trkpt lat="44.77964337837901" lon="7.240461223468381"><ele>994.0</ele><time>2026-04-25T14:54:55.998Z</time></trkpt><trkpt lat="44.77969493367866" lon="7.240527150820127"><ele>992.4999999999999</ele><time>2026-04-25T14:54:56.998Z</time></trkpt><trkpt lat="44.77975477960113" lon="7.2406132352371575"><ele>991.0</ele><time>2026-04-25T14:54:57.998Z</time></trkpt><trkpt lat="44.779822291808806" lon="7.240685085450649"><ele>991.0</ele><time>2026-04-25T14:54:58.998Z</time></trkpt><trkpt lat="44.779934183330546" lon="7.240766649689526"><ele>990.9999999999999</ele><time>2026-04-25T14:55:00.998Z</time></trkpt><trkpt lat="44.7800533475247" lon="7.240787499368718"><ele>990.9999999999999</ele><time>2026-04-25T14:55:02.998Z</time></trkpt><trkpt lat="44.78011856530403" lon="7.240778306790036"><ele>991.0</ele><time>2026-04-25T14:55:03.998Z</time></trkpt><trkpt lat="44.780203680436145" lon="7.240740159773827"><ele>991.0</ele><time>2026-04-25T14:55:04.998Z</time></trkpt><trkpt lat="44.7802851333656" lon="7.2406989929897625"><ele>993.6666666666666</ele><time>2026-04-25T14:55:05.998Z</time></trkpt><trkpt lat="44.78037181920162" lon="7.240666668328374"><ele>996.3333333333333</ele><time>2026-04-25T14:55:06.998Z</time></trkpt><trkpt lat="44.78045981230231" lon="7.2406590227251035"><ele>999.0</ele><time>2026-04-25T14:55:07.998Z</time></trkpt><trkpt lat="44.780539571796425" lon="7.240664960308607"><ele>1001.6666666666667</ele><time>2026-04-25T14:55:09Z</time></trkpt><trkpt lat="44.78060928562982" lon="7.240709499181961"><ele>1004.3333333333334</ele><time>2026-04-25T14:55:10Z</time></trkpt><trkpt lat="44.78066877761114" lon="7.2407913807709585"><ele>1007.0</ele><time>2026-04-25T14:55:11Z</time></trkpt><trkpt lat="44.780735904362025" lon="7.240892866420167"><ele>1007.0</ele><time>2026-04-25T14:55:12Z</time></trkpt><trkpt lat="44.780844409602764" lon="7.2410275529763295"><ele>1007.0</ele><time>2026-04-25T14:55:13Z</time></trkpt><trkpt lat="44.78095747304232" lon="7.241084158933076"><ele>1007.0</ele><time>2026-04-25T14:55:14Z</time></trkpt><trkpt lat="44.78104200248609" lon="7.2410854801845606"><ele>1007.0</ele><time>2026-04-25T14:55:15Z</time></trkpt><trkpt lat="44.78113356508155" lon="7.241099514432278"><ele>1007.0</ele><time>2026-04-25T14:55:16Z</time></trkpt><trkpt lat="44.781243242124496" lon="7.241107901437277"><ele>1007.1666666666667</ele><time>2026-04-25T14:55:17Z</time></trkpt><trkpt lat="44.78134171635517" lon="7.241126109801573"><ele>1007.3333333333334</ele><time>2026-04-25T14:55:18Z</time></trkpt><trkpt lat="44.78143317062371" lon="7.241168265921266"><ele>1007.5</ele><time>2026-04-25T14:55:19Z</time></trkpt><trkpt lat="44.781505942175606" lon="7.241207201669181"><ele>1007.6666666666667</ele><time>2026-04-25T14:55:22Z</time></trkpt><trkpt lat="44.78157396791927" lon="7.241229320398345"><ele>1007.8333333333334</ele><time>2026-04-25T14:55:39.999Z</time></trkpt><trkpt lat="44.78161078598097" lon="7.2413375514056675"><ele>1008.0</ele><time>2026-04-25T14:55:41.999Z</time></trkpt><trkpt lat="44.78156256413962" lon="7.241412012393804"><ele>1008.0</ele><time>2026-04-25T14:55:43.999Z</time></trkpt><trkpt lat="44.78147219393423" lon="7.2414415383130875"><ele>1008.0</ele><time>2026-04-25T14:55:45.999Z</time></trkpt><trkpt lat="44.78150527227725" lon="7.241610678152751"><ele>1008.0</ele><time>2026-04-25T14:55:47.999Z</time></trkpt><trkpt lat="44.78154847712046" lon="7.241691682748897"><ele>1008.0</ele><time>2026-04-25T14:55:48.999Z</time></trkpt><trkpt lat="44.78158700585513" lon="7.241770242906705"><ele>1008.0</ele><time>2026-04-25T14:55:49.999Z</time></trkpt><trkpt lat="44.78164247093004" lon="7.2418912636670365"><ele>1004.1666666666666</ele><time>2026-04-25T14:55:51.999Z</time></trkpt><trkpt lat="44.78170764318949" lon="7.241952370624945"><ele>1000.3333333333333</ele><time>2026-04-25T14:55:53.999Z</time></trkpt><trkpt lat="44.78177988781492" lon="7.242039222454409"><ele>996.5</ele><time>2026-04-25T14:55:55.999Z</time></trkpt><trkpt lat="44.78182228633557" lon="7.242121069024772"><ele>992.6666666666666</ele><time>2026-04-25T14:55:57.999Z</time></trkpt><trkpt lat="44.781869190849946" lon="7.242239119473307"><ele>988.8333333333333</ele><time>2026-04-25T14:56:00.999Z</time></trkpt><trkpt lat="44.78192053527844" lon="7.24235255046199"><ele>985.0</ele><time>2026-04-25T14:56:02.999Z</time></trkpt><trkpt lat="44.78200257094038" lon="7.242432119503798"><ele>977.6666666666666</ele><time>2026-04-25T14:56:05.999Z</time></trkpt><trkpt lat="44.78204227257658" lon="7.242567901858816"><ele>970.3333333333333</ele><time>2026-04-25T14:56:08.999Z</time></trkpt><trkpt lat="44.782095559959295" lon="7.242666377783358"><ele>963.0</ele><time>2026-04-25T14:56:10.999Z</time></trkpt><trkpt lat="44.78217184343051" lon="7.242650687613499"><ele>955.6666666666667</ele><time>2026-04-25T14:56:13.999Z</time></trkpt><trkpt lat="44.78225477029933" lon="7.242651443305768"><ele>948.3333333333334</ele><time>2026-04-25T14:56:19.999Z</time></trkpt><trkpt lat="44.7823158485487" lon="7.242599374592631"><ele>941.0</ele><time>2026-04-25T14:56:24.998Z</time></trkpt><trkpt lat="44.78237631318925" lon="7.242639142469964"><ele>941.0000000000001</ele><time>2026-04-25T14:56:43.998Z</time></trkpt><trkpt lat="44.78239405245912" lon="7.242746191029913"><ele>941.0</ele><time>2026-04-25T14:56:48.998Z</time></trkpt><trkpt lat="44.782392855660966" lon="7.242860328197247"><ele>941.0</ele><time>2026-04-25T14:56:51.998Z</time></trkpt><trkpt lat="44.78238667374734" lon="7.242965554998386"><ele>941.0</ele><time>2026-04-25T14:56:55.998Z</time></trkpt><trkpt lat="44.78237688279048" lon="7.243064710305242"><ele>941.0000000000001</ele><time>2026-04-25T14:56:58.998Z</time></trkpt><trkpt lat="44.78234443039055" lon="7.243144616187221"><ele>941.0</ele><time>2026-04-25T14:57:01.998Z</time></trkpt><trkpt lat="44.782298184337094" lon="7.243237858717333"><ele>938.8571428571427</ele><time>2026-04-25T14:57:05.998Z</time></trkpt><trkpt lat="44.78225417940489" lon="7.243319039918121"><ele>936.7142857142857</ele><time>2026-04-25T14:57:15Z</time></trkpt><trkpt lat="44.78222264051454" lon="7.243433767203237"><ele>934.5714285714284</ele><time>2026-04-25T14:57:19Z</time></trkpt><trkpt lat="44.78217128221682" lon="7.243501934352605"><ele>932.4285714285713</ele><time>2026-04-25T14:57:22Z</time></trkpt><trkpt lat="44.782111773602615" lon="7.243543591820496"><ele>930.2857142857142</ele><time>2026-04-25T14:57:25Z</time></trkpt><trkpt lat="44.78204824568841" lon="7.243589688800949"><ele>928.1428571428571</ele><time>2026-04-25T14:57:28Z</time></trkpt><trkpt lat="44.78198426702591" lon="7.243618611310815"><ele>926.0</ele><time>2026-04-25T14:57:31Z</time></trkpt><trkpt lat="44.78199650611193" lon="7.243710015630553"><ele>926.0000000000001</ele><time>2026-04-25T14:57:32.999Z</time></trkpt><trkpt lat="44.78205123346686" lon="7.2438164379749805"><ele>926.0</ele><time>2026-04-25T14:57:34.999Z</time></trkpt><trkpt lat="44.78210846286155" lon="7.243857473511134"><ele>926.0</ele><time>2026-04-25T14:57:36.999Z</time></trkpt><trkpt lat="44.78215565518732" lon="7.243990723959006"><ele>926.0</ele><time>2026-04-25T14:57:39.999Z</time></trkpt><trkpt lat="44.7822133995628" lon="7.244088080004298"><ele>926.0000000000001</ele><time>2026-04-25T14:57:41.999Z</time></trkpt><trkpt lat="44.782238448620035" lon="7.244196463835679"><ele>926.0</ele><time>2026-04-25T14:57:45.999Z</time></trkpt><trkpt lat="44.78230700953401" lon="7.244264838001136"><ele>922.4285714285713</ele><time>2026-04-25T14:57:49.999Z</time></trkpt><trkpt lat="44.78237044811981" lon="7.244332109590278"><ele>918.8571428571428</ele><time>2026-04-25T14:57:52.999Z</time></trkpt><trkpt lat="44.78239177024128" lon="7.244421906336813"><ele>915.2857142857142</ele><time>2026-04-25T14:57:55.999Z</time></trkpt><trkpt lat="44.7824345594419" lon="7.2445205369195005"><ele>911.7142857142858</ele><time>2026-04-25T14:58:03.999Z</time></trkpt><trkpt lat="44.78242105563861" lon="7.244627133055503"><ele>908.1428571428572</ele><time>2026-04-25T14:58:06.999Z</time></trkpt><trkpt lat="44.78244003401682" lon="7.244716687749325"><ele>904.5714285714287</ele><time>2026-04-25T14:58:16.999Z</time></trkpt><trkpt lat="44.78242740796708" lon="7.244811341726569"><ele>901.0</ele><time>2026-04-25T14:58:19.999Z</time></trkpt><trkpt lat="44.78243859016079" lon="7.244923974642557"><ele>897.1666666666666</ele><time>2026-04-25T14:58:26.998Z</time></trkpt><trkpt lat="44.78240396583146" lon="7.245032559050524"><ele>893.3333333333333</ele><time>2026-04-25T14:58:30.998Z</time></trkpt><trkpt lat="44.7824573799962" lon="7.245136317900621"><ele>889.5</ele><time>2026-04-25T14:58:49.998Z</time></trkpt><trkpt lat="44.78251923731643" lon="7.245173844187201"><ele>885.6666666666667</ele><time>2026-04-25T14:58:51.998Z</time></trkpt><trkpt lat="44.78260418877551" lon="7.24514516798177"><ele>881.8333333333334</ele><time>2026-04-25T14:58:53.998Z</time></trkpt><trkpt lat="44.78269291275908" lon="7.245050762199542"><ele>878.0</ele><time>2026-04-25T14:58:55.998Z</time></trkpt><trkpt lat="44.78276128410332" lon="7.245008802943611"><ele>872.0000000000001</ele><time>2026-04-25T14:58:59.998Z</time></trkpt><trkpt lat="44.78281486543445" lon="7.245125545129911"><ele>866.0</ele><time>2026-04-25T14:59:04.998Z</time></trkpt><trkpt lat="44.78281502048439" lon="7.24522238967114"><ele>860.0</ele><time>2026-04-25T14:59:06.998Z</time></trkpt><trkpt lat="44.782842928296915" lon="7.2453264800396795"><ele>854.0</ele><time>2026-04-25T14:59:08.998Z</time></trkpt><trkpt lat="44.78283825113805" lon="7.245432080342438"><ele>848.0000000000001</ele><time>2026-04-25T14:59:12.998Z</time></trkpt><trkpt lat="44.78284123007961" lon="7.245548697441751"><ele>842.0</ele><time>2026-04-25T14:59:16.997Z</time></trkpt><trkpt lat="44.78288908337272" lon="7.245662001375588"><ele>839.6666666666667</ele><time>2026-04-25T14:59:19.997Z</time></trkpt><trkpt lat="44.782912432251244" lon="7.245784019264813"><ele>837.3333333333334</ele><time>2026-04-25T14:59:22Z</time></trkpt><trkpt lat="44.78288879859547" lon="7.24590028857348"><ele>835.0</ele><time>2026-04-25T14:59:24Z</time></trkpt><trkpt lat="44.78293574703175" lon="7.24600180298224"><ele>832.6666666666667</ele><time>2026-04-25T14:59:27Z</time></trkpt><trkpt lat="44.78297409755064" lon="7.246120694226032"><ele>830.3333333333334</ele><time>2026-04-25T14:59:29Z</time></trkpt><trkpt lat="44.782992681740026" lon="7.246236542152885"><ele>828.0</ele><time>2026-04-25T14:59:31Z</time></trkpt><trkpt lat="44.783027505044835" lon="7.246327599329367"><ele>828.0</ele><time>2026-04-25T14:59:33Z</time></trkpt><trkpt lat="44.78311984647939" lon="7.246367632713144"><ele>828.0</ele><time>2026-04-25T14:59:36Z</time></trkpt><trkpt lat="44.78319858213552" lon="7.246281478440672"><ele>828.0</ele><time>2026-04-25T14:59:37.999Z</time></trkpt><trkpt lat="44.78325592541856" lon="7.246172841385051"><ele>828.0</ele><time>2026-04-25T14:59:39.999Z</time></trkpt><trkpt lat="44.78330661280486" lon="7.2461158811525035"><ele>828.0</ele><time>2026-04-25T14:59:40.999Z</time></trkpt><trkpt lat="44.78336655869653" lon="7.246024744559429"><ele>828.0</ele><time>2026-04-25T14:59:42.999Z</time></trkpt><trkpt lat="44.783414530646546" lon="7.245911751974461"><ele>828.0</ele><time>2026-04-25T14:59:48.999Z</time></trkpt><trkpt lat="44.783445448414575" lon="7.245821394885656"><ele>828.0</ele><time>2026-04-25T14:59:51Z</time></trkpt><trkpt lat="44.783510042769066" lon="7.245759890652721"><ele>828.0</ele><time>2026-04-25T14:59:53Z</time></trkpt><trkpt lat="44.78357671928127" lon="7.24563674724979"><ele>828.0</ele><time>2026-04-25T14:59:55Z</time></trkpt><trkpt lat="44.78361111679386" lon="7.245481479084324"><ele>828.0</ele><time>2026-04-25T14:59:57Z</time></trkpt><trkpt lat="44.783661140175056" lon="7.2453949343117765"><ele>824.3333333333334</ele><time>2026-04-25T15:00:01Z</time></trkpt><trkpt lat="44.78368706198999" lon="7.245496809589733"><ele>820.6666666666667</ele><time>2026-04-25T15:00:05Z</time></trkpt><trkpt lat="44.78370268932307" lon="7.245641877456081"><ele>817.0</ele><time>2026-04-25T15:00:09Z</time></trkpt><trkpt lat="44.78368997089485" lon="7.245741144776335"><ele>813.3333333333334</ele><time>2026-04-25T15:00:12Z</time></trkpt><trkpt lat="44.78367718984385" lon="7.245831589568572"><ele>809.6666666666667</ele><time>2026-04-25T15:00:14Z</time></trkpt><trkpt lat="44.78370380003884" lon="7.245916708679967"><ele>806.0</ele><time>2026-04-25T15:00:16Z</time></trkpt><trkpt lat="44.783781809873894" lon="7.2461949409912325"><ele>801.5000000000001</ele><time>2026-04-25T15:00:17Z</time></trkpt><trkpt lat="44.78380024501232" lon="7.246290653296814"><ele>797.0</ele><time>2026-04-25T15:00:18Z</time></trkpt><trkpt lat="44.78382797426428" lon="7.2463904705643"><ele>792.5</ele><time>2026-04-25T15:00:19Z</time></trkpt><trkpt lat="44.783870151529634" lon="7.246479041303033"><ele>788.0</ele><time>2026-04-25T15:00:20Z</time></trkpt><trkpt lat="44.783937270334995" lon="7.246610084339851"><ele>783.5000000000001</ele><time>2026-04-25T15:00:22Z</time></trkpt><trkpt lat="44.783993396034376" lon="7.2466782167655115"><ele>779.0</ele><time>2026-04-25T15:00:24Z</time></trkpt><trkpt lat="44.783997089241446" lon="7.246566252646037"><ele>779.0000000000001</ele><time>2026-04-25T15:00:26Z</time></trkpt><trkpt lat="44.78401021899007" lon="7.246438081335138"><ele>779.0</ele><time>2026-04-25T15:00:27.999Z</time></trkpt><trkpt lat="44.784030136459805" lon="7.246301698288799"><ele>779.0</ele><time>2026-04-25T15:00:29.999Z</time></trkpt><trkpt lat="44.78404399690302" lon="7.246171039351437"><ele>779.0</ele><time>2026-04-25T15:00:31.999Z</time></trkpt><trkpt lat="44.78409655948931" lon="7.246109823972375"><ele>779.0000000000001</ele><time>2026-04-25T15:00:33.999Z</time></trkpt><trkpt lat="44.78413327110314" lon="7.246014989421625"><ele>779.0</ele><time>2026-04-25T15:00:36.999Z</time></trkpt><trkpt lat="44.78417342528226" lon="7.245915220761185"><ele>779.0000000000001</ele><time>2026-04-25T15:00:38.999Z</time></trkpt><trkpt lat="44.78414722911447" lon="7.245830348597926"><ele>779.0</ele><time>2026-04-25T15:00:40.999Z</time></trkpt><trkpt lat="44.7842077666352" lon="7.245724065823509"><ele>779.0</ele><time>2026-04-25T15:00:57.999Z</time></trkpt><trkpt lat="44.784326860537895" lon="7.245690130455848"><ele>779.0</ele><time>2026-04-25T15:00:59.999Z</time></trkpt><trkpt lat="44.78439996568615" lon="7.245692015430902"><ele>779.0000000000001</ele><time>2026-04-25T15:01:01.999Z</time></trkpt><trkpt lat="44.78447796977295" lon="7.245649998497345"><ele>779.0</ele><time>2026-04-25T15:01:03.999Z</time></trkpt><trkpt lat="44.78448250834779" lon="7.24575207510976"><ele>774.5000000000001</ele><time>2026-04-25T15:01:05.999Z</time></trkpt><trkpt lat="44.78445661166499" lon="7.245874151358728"><ele>770.0</ele><time>2026-04-25T15:02:30.999Z</time></trkpt><trkpt lat="44.78440956077252" lon="7.245956609443739"><ele>765.5</ele><time>2026-04-25T15:02:32.999Z</time></trkpt><trkpt lat="44.7843630655998" lon="7.246059489927714"><ele>761.0</ele><time>2026-04-25T15:02:34.999Z</time></trkpt><trkpt lat="44.784467139009024" lon="7.246103915059186"><ele>756.5</ele><time>2026-04-25T15:02:36.999Z</time></trkpt><trkpt lat="44.78454011968062" lon="7.2460786810037865"><ele>752.0</ele><time>2026-04-25T15:02:37.999Z</time></trkpt><trkpt lat="44.78460401150457" lon="7.24602812170964"><ele>752.0</ele><time>2026-04-25T15:02:38.999Z</time></trkpt><trkpt lat="44.784667414776216" lon="7.2459969062944625"><ele>752.0</ele><time>2026-04-25T15:02:40.999Z</time></trkpt><trkpt lat="44.7847205731345" lon="7.246089745550722"><ele>752.0</ele><time>2026-04-25T15:02:43.999Z</time></trkpt><trkpt lat="44.784718569309646" lon="7.2461880385251165"><ele>752.0</ele><time>2026-04-25T15:02:45.999Z</time></trkpt><trkpt lat="44.784708079248986" lon="7.246331245756524"><ele>752.0</ele><time>2026-04-25T15:02:47.999Z</time></trkpt><trkpt lat="44.78477927338566" lon="7.246272583707927"><ele>752.0</ele><time>2026-04-25T15:03:04.999Z</time></trkpt><trkpt lat="44.78485870289263" lon="7.246320767010011"><ele>752.0</ele><time>2026-04-25T15:03:12.999Z</time></trkpt><trkpt lat="44.78485916442385" lon="7.246420848089645"><ele>752.0</ele><time>2026-04-25T15:03:14.999Z</time></trkpt><trkpt lat="44.78491896021086" lon="7.246478581158738"><ele>752.0</ele><time>2026-04-25T15:03:17.999Z</time></trkpt><trkpt lat="44.78499683691051" lon="7.246506893137519"><ele>752.0</ele><time>2026-04-25T15:03:20.999Z</time></trkpt><trkpt lat="44.78507682470493" lon="7.246425124544998"><ele>752.0</ele><time>2026-04-25T15:03:23.998Z</time></trkpt><trkpt lat="44.78514492291049" lon="7.246378106585626"><ele>752.0</ele><time>2026-04-25T15:03:26.998Z</time></trkpt><trkpt lat="44.78524469728718" lon="7.246429847172805"><ele>747.5</ele><time>2026-04-25T15:03:29.998Z</time></trkpt><trkpt lat="44.785299618255806" lon="7.246485592719838"><ele>743.0</ele><time>2026-04-25T15:03:31.998Z</time></trkpt><trkpt lat="44.78537177403972" lon="7.246447899301255"><ele>738.5</ele><time>2026-04-25T15:04:58.999Z</time></trkpt><trkpt lat="44.78543712971462" lon="7.246398455926036"><ele>734.0</ele><time>2026-04-25T15:05:00.999Z</time></trkpt><trkpt lat="44.78547053565521" lon="7.246304399658437"><ele>729.5</ele><time>2026-04-25T15:05:02.999Z</time></trkpt><trkpt lat="44.785544641351386" lon="7.246377509059905"><ele>725.0</ele><time>2026-04-25T15:05:04.999Z</time></trkpt><trkpt lat="44.78558515334841" lon="7.2465077748467115"><ele>725.0</ele><time>2026-04-25T15:05:06.999Z</time></trkpt><trkpt lat="44.78565885848653" lon="7.246459643381006"><ele>725.0</ele><time>2026-04-25T15:05:08.999Z</time></trkpt><trkpt lat="44.78570449119805" lon="7.246393381763545"><ele>725.0</ele><time>2026-04-25T15:05:09.999Z</time></trkpt><trkpt lat="44.785768606466476" lon="7.246343939543217"><ele>725.0</ele><time>2026-04-25T15:05:10.999Z</time></trkpt><trkpt lat="44.78586778427925" lon="7.2463239229652725"><ele>725.0</ele><time>2026-04-25T15:05:12.999Z</time></trkpt><trkpt lat="44.78595366454257" lon="7.246283628913263"><ele>725.0</ele><time>2026-04-25T15:05:14.999Z</time></trkpt><trkpt lat="44.78605702325208" lon="7.2462932430452005"><ele>720.8333333333333</ele><time>2026-04-25T15:05:16.999Z</time></trkpt><trkpt lat="44.78618167405761" lon="7.246246890968515"><ele>716.6666666666666</ele><time>2026-04-25T15:05:18.999Z</time></trkpt><trkpt lat="44.78626379285268" lon="7.246190049844857"><ele>712.5</ele><time>2026-04-25T15:05:19.999Z</time></trkpt><trkpt lat="44.78633015538062" lon="7.2461359159666925"><ele>708.3333333333334</ele><time>2026-04-25T15:05:20.999Z</time></trkpt><trkpt lat="44.78639546963262" lon="7.246105892202967"><ele>704.1666666666667</ele><time>2026-04-25T15:05:23.999Z</time></trkpt><trkpt lat="44.78647513491713" lon="7.2461013211667185"><ele>700.0</ele><time>2026-04-25T15:05:25.999Z</time></trkpt><trkpt lat="44.78659776620285" lon="7.246135407814555"><ele>700.0</ele><time>2026-04-25T15:05:27.998Z</time></trkpt><trkpt lat="44.786676605020105" lon="7.24613819752387"><ele>700.0</ele><time>2026-04-25T15:05:28.998Z</time></trkpt><trkpt lat="44.78678127930186" lon="7.24613026871754"><ele>700.0</ele><time>2026-04-25T15:05:29.998Z</time></trkpt><trkpt lat="44.786898529533666" lon="7.246125481467774"><ele>700.0</ele><time>2026-04-25T15:05:30.998Z</time></trkpt><trkpt lat="44.78699848109975" lon="7.246127150763251"><ele>700.0</ele><time>2026-04-25T15:05:32.998Z</time></trkpt><trkpt lat="44.787102846224506" lon="7.246093251305557"><ele>698.5</ele><time>2026-04-25T15:05:34.998Z</time></trkpt><trkpt lat="44.78716469346697" lon="7.2460686484393895"><ele>697.0</ele><time>2026-04-25T15:05:36.998Z</time></trkpt><trkpt lat="44.78726599923974" lon="7.246065401441854"><ele>695.5</ele><time>2026-04-25T15:05:39.001Z</time></trkpt><trkpt lat="44.78732852644099" lon="7.246081917550606"><ele>694.0</ele><time>2026-04-25T15:05:40.001Z</time></trkpt><trkpt lat="44.78744895527537" lon="7.246050884944256"><ele>692.5</ele><time>2026-04-25T15:05:42.001Z</time></trkpt><trkpt lat="44.78751831263767" lon="7.246042958840132"><ele>691.0</ele><time>2026-04-25T15:05:43.001Z</time></trkpt><trkpt lat="44.78759876027509" lon="7.246042452651239"><ele>687.5</ele><time>2026-04-25T15:05:44.001Z</time></trkpt><trkpt lat="44.787685693240356" lon="7.246022377411798"><ele>684.0</ele><time>2026-04-25T15:05:45.001Z</time></trkpt><trkpt lat="44.78776308172688" lon="7.246024690813857"><ele>680.5</ele><time>2026-04-25T15:05:46.001Z</time></trkpt><trkpt lat="44.78785455968961" lon="7.246035944707069"><ele>677.0</ele><time>2026-04-25T15:05:47Z</time></trkpt><trkpt lat="44.78792223116504" lon="7.2460366764583375"><ele>673.5</ele><time>2026-04-25T15:05:48.001Z</time></trkpt><trkpt lat="44.7880159562276" lon="7.246028863499792"><ele>670.0</ele><time>2026-04-25T15:05:50Z</time></trkpt><trkpt lat="44.7881127049078" lon="7.246005481763273"><ele>670.0</ele><time>2026-04-25T15:05:52.001Z</time></trkpt><trkpt lat="44.788230329069904" lon="7.245945217656069"><ele>670.0</ele><time>2026-04-25T15:05:54Z</time></trkpt><trkpt lat="44.78829631188425" lon="7.245901576666053"><ele>670.0</ele><time>2026-04-25T15:05:55Z</time></trkpt><trkpt lat="44.78836049067943" lon="7.245834737648823"><ele>670.0</ele><time>2026-04-25T15:05:56Z</time></trkpt><trkpt lat="44.788416907494195" lon="7.24576899291032"><ele>670.0</ele><time>2026-04-25T15:05:57Z</time></trkpt><trkpt lat="44.78849553103179" lon="7.245708126132792"><ele>670.0</ele><time>2026-04-25T15:05:59Z</time></trkpt><trkpt lat="44.78860271234324" lon="7.2457133587118285"><ele>670.5</ele><time>2026-04-25T15:06:01Z</time></trkpt><trkpt lat="44.78866737372098" lon="7.245719328372457"><ele>671.0</ele><time>2026-04-25T15:06:02Z</time></trkpt><trkpt lat="44.788761871712445" lon="7.245695228578191"><ele>671.5</ele><time>2026-04-25T15:06:04Z</time></trkpt><trkpt lat="44.78882932089216" lon="7.245664560587649"><ele>672.0</ele><time>2026-04-25T15:06:05Z</time></trkpt><trkpt lat="44.788915911326605" lon="7.245606046851603"><ele>672.5</ele><time>2026-04-25T15:06:06Z</time></trkpt><trkpt lat="44.78898708862838" lon="7.245572923993845"><ele>673.0</ele><time>2026-04-25T15:06:07Z</time></trkpt><trkpt lat="44.78912166469798" lon="7.245575496576236"><ele>673.0</ele><time>2026-04-25T15:06:09Z</time></trkpt><trkpt lat="44.78920722942027" lon="7.2455574243781555"><ele>673.0</ele><time>2026-04-25T15:06:10Z</time></trkpt><trkpt lat="44.78930475301188" lon="7.2455637576210465"><ele>673.0</ele><time>2026-04-25T15:06:11Z</time></trkpt><trkpt lat="44.78940056025433" lon="7.24557075021806"><ele>673.0</ele><time>2026-04-25T15:06:12Z</time></trkpt><trkpt lat="44.78947185147051" lon="7.245552184004033"><ele>673.0</ele><time>2026-04-25T15:06:13Z</time></trkpt><trkpt lat="44.78952281591169" lon="7.245484058398918"><ele>673.0</ele><time>2026-04-25T15:06:14Z</time></trkpt><trkpt lat="44.78953928010833" lon="7.245390788855502"><ele>669.8333333333334</ele><time>2026-04-25T15:06:15Z</time></trkpt><trkpt lat="44.78962705438913" lon="7.245317573662549"><ele>666.6666666666667</ele><time>2026-04-25T15:06:17Z</time></trkpt><trkpt lat="44.78971753518698" lon="7.245324391062387"><ele>663.5</ele><time>2026-04-25T15:06:18Z</time></trkpt><trkpt lat="44.78979695625047" lon="7.245336711313245"><ele>660.3333333333334</ele><time>2026-04-25T15:06:19Z</time></trkpt><trkpt lat="44.78987530389473" lon="7.245337068800597"><ele>657.1666666666666</ele><time>2026-04-25T15:06:20Z</time></trkpt><trkpt lat="44.789947038298706" lon="7.2453103128981535"><ele>654.0</ele><time>2026-04-25T15:06:21Z</time></trkpt><trkpt lat="44.790005005545986" lon="7.245271984516042"><ele>654.0</ele><time>2026-04-25T15:06:22Z</time></trkpt><trkpt lat="44.79008837227365" lon="7.245227297202942"><ele>654.0</ele><time>2026-04-25T15:06:23Z</time></trkpt><trkpt lat="44.790179059931646" lon="7.245213611605972"><ele>654.0</ele><time>2026-04-25T15:06:24Z</time></trkpt><trkpt lat="44.79030239836351" lon="7.245188492634171"><ele>654.0</ele><time>2026-04-25T15:06:25Z</time></trkpt><trkpt lat="44.7904271584546" lon="7.245169686925749"><ele>654.0</ele><time>2026-04-25T15:06:26Z</time></trkpt><trkpt lat="44.790513637170356" lon="7.245166342322945"><ele>652.8000000000001</ele><time>2026-04-25T15:06:27Z</time></trkpt><trkpt lat="44.79062191995621" lon="7.245152122724693"><ele>651.6</ele><time>2026-04-25T15:06:29Z</time></trkpt><trkpt lat="44.79069407621713" lon="7.245222256498755"><ele>650.4</ele><time>2026-04-25T15:06:30Z</time></trkpt><trkpt lat="44.79079522581291" lon="7.245266707172866"><ele>649.2</ele><time>2026-04-25T15:06:31Z</time></trkpt><trkpt lat="44.79088579794318" lon="7.245299718442856"><ele>648.0</ele><time>2026-04-25T15:06:32Z</time></trkpt><trkpt lat="44.79102380297179" lon="7.2453032414260035"><ele>644.75</ele><time>2026-04-25T15:06:33Z</time></trkpt><trkpt lat="44.79115982127787" lon="7.245350887860382"><ele>641.5</ele><time>2026-04-25T15:06:34Z</time></trkpt><trkpt lat="44.791292919546976" lon="7.245395580569841"><ele>638.25</ele><time>2026-04-25T15:06:35Z</time></trkpt><trkpt lat="44.79143063413099" lon="7.245436488850376"><ele>635.0</ele><time>2026-04-25T15:06:36Z</time></trkpt><trkpt lat="44.7915685522648" lon="7.245459781048438"><ele>635.0</ele><time>2026-04-25T15:06:37Z</time></trkpt><trkpt lat="44.79166872692219" lon="7.245434608917664"><ele>635.0</ele><time>2026-04-25T15:06:38Z</time></trkpt><trkpt lat="44.791753427309615" lon="7.245434076152973"><ele>635.0</ele><time>2026-04-25T15:06:39Z</time></trkpt><trkpt lat="44.79186883694406" lon="7.245412815779468"><ele>635.0</ele><time>2026-04-25T15:06:40Z</time></trkpt><trkpt lat="44.79196422182768" lon="7.245363995925324"><ele>635.0</ele><time>2026-04-25T15:06:40.999Z</time></trkpt><trkpt lat="44.79206462695495" lon="7.245330190422347"><ele>630.5</ele><time>2026-04-25T15:06:41.999Z</time></trkpt><trkpt lat="44.792195823337266" lon="7.245327713307619"><ele>626.0</ele><time>2026-04-25T15:06:42.999Z</time></trkpt><trkpt lat="44.79232304165959" lon="7.245288570663243"><ele>621.5</ele><time>2026-04-25T15:06:43.999Z</time></trkpt><trkpt lat="44.792440423445406" lon="7.245275251489654"><ele>617.0</ele><time>2026-04-25T15:06:44.999Z</time></trkpt><trkpt lat="44.7925505616506" lon="7.245277116182365"><ele>617.0</ele><time>2026-04-25T15:06:45.999Z</time></trkpt><trkpt lat="44.792664957918234" lon="7.2452701199934815"><ele>617.0</ele><time>2026-04-25T15:06:46.999Z</time></trkpt><trkpt lat="44.79275536070767" lon="7.245284943673735"><ele>617.0</ele><time>2026-04-25T15:06:47.999Z</time></trkpt><trkpt lat="44.79286211107182" lon="7.245293805281908"><ele>617.0</ele><time>2026-04-25T15:06:48.999Z</time></trkpt><trkpt lat="44.792968142469" lon="7.245254783058448"><ele>617.0</ele><time>2026-04-25T15:06:49.999Z</time></trkpt><trkpt lat="44.793070836877156" lon="7.245255788874809"><ele>615.0</ele><time>2026-04-25T15:06:50.999Z</time></trkpt><trkpt lat="44.79318376925085" lon="7.245249709183682"><ele>613.0</ele><time>2026-04-25T15:06:51.999Z</time></trkpt><trkpt lat="44.79328128333973" lon="7.245299567317651"><ele>611.0</ele><time>2026-04-25T15:06:52.999Z</time></trkpt><trkpt lat="44.7933628493775" lon="7.245339738486215"><ele>609.0</ele><time>2026-04-25T15:06:53.999Z</time></trkpt><trkpt lat="44.79346448867425" lon="7.2453760223580375"><ele>607.0</ele><time>2026-04-25T15:06:54.999Z</time></trkpt><trkpt lat="44.793550799807036" lon="7.245366086874686"><ele>606.8000000000001</ele><time>2026-04-25T15:06:55.999Z</time></trkpt><trkpt lat="44.79363783078373" lon="7.245306045535638"><ele>606.6</ele><time>2026-04-25T15:06:56.999Z</time></trkpt><trkpt lat="44.79372719616691" lon="7.2452936741231335"><ele>606.4000000000001</ele><time>2026-04-25T15:06:57.999Z</time></trkpt><trkpt lat="44.79382005739396" lon="7.245315679559018"><ele>606.2</ele><time>2026-04-25T15:06:58.999Z</time></trkpt><trkpt lat="44.79392242676493" lon="7.245315355637254"><ele>606.0</ele><time>2026-04-25T15:06:59.999Z</time></trkpt><trkpt lat="44.79401707962892" lon="7.245331966981991"><ele>606.0</ele><time>2026-04-25T15:07:00.999Z</time></trkpt><trkpt lat="44.794113701202434" lon="7.245387439312982"><ele>606.0</ele><time>2026-04-25T15:07:01.999Z</time></trkpt><trkpt lat="44.794199503973196" lon="7.245467331226695"><ele>606.0</ele><time>2026-04-25T15:07:02.999Z</time></trkpt><trkpt lat="44.79426823392179" lon="7.245551667708579"><ele>606.0</ele><time>2026-04-25T15:07:03.999Z</time></trkpt><trkpt lat="44.79431631456908" lon="7.245665215705516"><ele>606.0</ele><time>2026-04-25T15:07:04.999Z</time></trkpt><trkpt lat="44.794354680766695" lon="7.245767785281617"><ele>602.0</ele><time>2026-04-25T15:07:05.999Z</time></trkpt><trkpt lat="44.794408656639085" lon="7.245845381998552"><ele>598.0</ele><time>2026-04-25T15:07:06.999Z</time></trkpt><trkpt lat="44.79448525890347" lon="7.245883010984034"><ele>594.0</ele><time>2026-04-25T15:07:07.999Z</time></trkpt><trkpt lat="44.79456909820034" lon="7.2459254027508395"><ele>590.0</ele><time>2026-04-25T15:07:08.999Z</time></trkpt><trkpt lat="44.794663756498636" lon="7.245942563419344"><ele>586.0</ele><time>2026-04-25T15:07:09.999Z</time></trkpt><trkpt lat="44.794766202839824" lon="7.245962743333582"><ele>582.0</ele><time>2026-04-25T15:07:10.999Z</time></trkpt><trkpt lat="44.79485093735407" lon="7.24597826316443"><ele>582.0</ele><time>2026-04-25T15:07:11.999Z</time></trkpt><trkpt lat="44.79494040030033" lon="7.245990160165624"><ele>582.0</ele><time>2026-04-25T15:07:12.999Z</time></trkpt><trkpt lat="44.79503640568501" lon="7.245969308848998"><ele>582.0</ele><time>2026-04-25T15:07:13.999Z</time></trkpt><trkpt lat="44.79513737227728" lon="7.245943089270453"><ele>582.0</ele><time>2026-04-25T15:07:14.999Z</time></trkpt><trkpt lat="44.79524334699054" lon="7.24590934812887"><ele>582.0</ele><time>2026-04-25T15:07:15.999Z</time></trkpt><trkpt lat="44.79537882468195" lon="7.2458444927808445"><ele>580.8000000000001</ele><time>2026-04-25T15:07:16.999Z</time></trkpt><trkpt lat="44.79548795540142" lon="7.245804866736542"><ele>579.6</ele><time>2026-04-25T15:07:17.999Z</time></trkpt><trkpt lat="44.79559235194709" lon="7.245779438231582"><ele>578.4000000000001</ele><time>2026-04-25T15:07:18.999Z</time></trkpt><trkpt lat="44.79567914125877" lon="7.245778919238954"><ele>577.2</ele><time>2026-04-25T15:07:19.999Z</time></trkpt><trkpt lat="44.79576320570558" lon="7.245803274813337"><ele>576.0</ele><time>2026-04-25T15:07:20.999Z</time></trkpt><trkpt lat="44.795866325228495" lon="7.245856838505454"><ele>576.0</ele><time>2026-04-25T15:07:21.999Z</time></trkpt><trkpt lat="44.795987951749936" lon="7.245890514065912"><ele>576.0</ele><time>2026-04-25T15:07:22.999Z</time></trkpt><trkpt lat="44.796109288472714" lon="7.2458835489479725"><ele>576.0</ele><time>2026-04-25T15:07:23.999Z</time></trkpt><trkpt lat="44.796216411906286" lon="7.245869786692906"><ele>576.0</ele><time>2026-04-25T15:07:24.999Z</time></trkpt><trkpt lat="44.79630924506354" lon="7.24586793431465"><ele>576.0</ele><time>2026-04-25T15:07:25.999Z</time></trkpt><trkpt lat="44.79639376142149" lon="7.24584640906841"><ele>575.6666666666666</ele><time>2026-04-25T15:07:26.999Z</time></trkpt><trkpt lat="44.79650694270799" lon="7.245843507273866"><ele>575.3333333333334</ele><time>2026-04-25T15:07:28.999Z</time></trkpt><trkpt lat="44.796593256171136" lon="7.24583671788873"><ele>575.0</ele><time>2026-04-25T15:07:29.999Z</time></trkpt><trkpt lat="44.79666333740795" lon="7.245845348082968"><ele>574.6666666666667</ele><time>2026-04-25T15:07:30.998Z</time></trkpt><trkpt lat="44.79673100080656" lon="7.24584748489527"><ele>574.3333333333334</ele><time>2026-04-25T15:07:31.998Z</time></trkpt><trkpt lat="44.796832425530575" lon="7.245857592405954"><ele>574.0</ele><time>2026-04-25T15:07:33.998Z</time></trkpt><trkpt lat="44.79687136220418" lon="7.246004407255665"><ele>572.6</ele><time>2026-04-25T15:08:28Z</time></trkpt><trkpt lat="44.79687204428669" lon="7.246133648581086"><ele>571.2</ele><time>2026-04-25T15:08:29Z</time></trkpt><trkpt lat="44.796858723188016" lon="7.246257213344702"><ele>569.8000000000001</ele><time>2026-04-25T15:08:30Z</time></trkpt><trkpt lat="44.796900859587566" lon="7.246346430715829"><ele>568.4</ele><time>2026-04-25T15:08:31Z</time></trkpt><trkpt lat="44.79697852647861" lon="7.246408682082865"><ele>567.0</ele><time>2026-04-25T15:08:32Z</time></trkpt><trkpt lat="44.79709814473558" lon="7.246365001423514"><ele>567.0</ele><time>2026-04-25T15:08:33Z</time></trkpt><trkpt lat="44.79719647075428" lon="7.2463432990509915"><ele>567.0</ele><time>2026-04-25T15:08:34Z</time></trkpt><trkpt lat="44.797293222696176" lon="7.246318095548424"><ele>567.0</ele><time>2026-04-25T15:08:35Z</time></trkpt><trkpt lat="44.797376631448614" lon="7.246318811867066"><ele>567.0</ele><time>2026-04-25T15:08:36Z</time></trkpt><trkpt lat="44.79743462010982" lon="7.246395181469445"><ele>567.0</ele><time>2026-04-25T15:08:37Z</time></trkpt><trkpt lat="44.797545619147755" lon="7.246469883721331"><ele>564.25</ele><time>2026-04-25T15:08:38Z</time></trkpt><trkpt lat="44.797656177842406" lon="7.246541455275737"><ele>561.5</ele><time>2026-04-25T15:08:39Z</time></trkpt><trkpt lat="44.797776059446505" lon="7.246609397355047"><ele>558.75</ele><time>2026-04-25T15:08:40Z</time></trkpt><trkpt lat="44.797900180653066" lon="7.2466712584489645"><ele>556.0</ele><time>2026-04-25T15:08:41Z</time></trkpt><trkpt lat="44.798033870372585" lon="7.246724821963186"><ele>554.5</ele><time>2026-04-25T15:08:41.999Z</time></trkpt><trkpt lat="44.79816240424232" lon="7.246784327879266"><ele>553.0</ele><time>2026-04-25T15:08:42.999Z</time></trkpt><trkpt lat="44.7982935202749" lon="7.246854023725936"><ele>551.5</ele><time>2026-04-25T15:08:43.999Z</time></trkpt><trkpt lat="44.79842205151157" lon="7.246931400522504"><ele>550.0</ele><time>2026-04-25T15:08:44.999Z</time></trkpt><trkpt lat="44.79854719328327" lon="7.247022772194961"><ele>549.75</ele><time>2026-04-25T15:08:45.999Z</time></trkpt><trkpt lat="44.79865578738539" lon="7.247125477889334"><ele>549.5</ele><time>2026-04-25T15:08:46.999Z</time></trkpt><trkpt lat="44.798715226568646" lon="7.247253201882132"><ele>549.25</ele><time>2026-04-25T15:08:47.999Z</time></trkpt><trkpt lat="44.79877548033532" lon="7.2473945877632895"><ele>549.0</ele><time>2026-04-25T15:08:48.999Z</time></trkpt><trkpt lat="44.79883452505507" lon="7.247541824813099"><ele>546.75</ele><time>2026-04-25T15:08:49.999Z</time></trkpt><trkpt lat="44.798892628306234" lon="7.247683874969344"><ele>544.5</ele><time>2026-04-25T15:08:50.999Z</time></trkpt><trkpt lat="44.79896800128528" lon="7.24783166467992"><ele>542.25</ele><time>2026-04-25T15:08:51.999Z</time></trkpt><trkpt lat="44.799059827523415" lon="7.247929100464847"><ele>540.0</ele><time>2026-04-25T15:08:52.999Z</time></trkpt><trkpt lat="44.79915707977742" lon="7.2479805343049755"><ele>540.0</ele><time>2026-04-25T15:08:53.999Z</time></trkpt><trkpt lat="44.799268242396145" lon="7.2480337811125075"><ele>540.0</ele><time>2026-04-25T15:08:54.999Z</time></trkpt><trkpt lat="44.79939571131194" lon="7.248122557113553"><ele>540.0</ele><time>2026-04-25T15:08:55.999Z</time></trkpt><trkpt lat="44.79951567218835" lon="7.248234948210158"><ele>540.0</ele><time>2026-04-25T15:08:56.999Z</time></trkpt><trkpt lat="44.799617339960754" lon="7.248347981858298"><ele>537.5</ele><time>2026-04-25T15:08:57.999Z</time></trkpt><trkpt lat="44.79970811680663" lon="7.2484738605387635"><ele>535.0</ele><time>2026-04-25T15:08:58.999Z</time></trkpt><trkpt lat="44.79979904401004" lon="7.2486128185208205"><ele>532.5</ele><time>2026-04-25T15:08:59.999Z</time></trkpt><trkpt lat="44.7998833473822" lon="7.24876139618333"><ele>530.0</ele><time>2026-04-25T15:09:00.999Z</time></trkpt><trkpt lat="44.79996753547348" lon="7.2489118002842785"><ele>528.25</ele><time>2026-04-25T15:09:01.999Z</time></trkpt><trkpt lat="44.800042407914404" lon="7.249056238336785"><ele>526.5</ele><time>2026-04-25T15:09:02.999Z</time></trkpt><trkpt lat="44.80008182120532" lon="7.249214695469453"><ele>524.75</ele><time>2026-04-25T15:09:03.999Z</time></trkpt><trkpt lat="44.800129136893936" lon="7.249367438175319"><ele>523.0</ele><time>2026-04-25T15:09:04.999Z</time></trkpt><trkpt lat="44.800181241389296" lon="7.249500513906017"><ele>522.75</ele><time>2026-04-25T15:09:05.999Z</time></trkpt><trkpt lat="44.80024403857769" lon="7.249615489618562"><ele>522.5</ele><time>2026-04-25T15:09:06.999Z</time></trkpt><trkpt lat="44.80032226185615" lon="7.249732259194226"><ele>522.25</ele><time>2026-04-25T15:09:07.999Z</time></trkpt><trkpt lat="44.80041526755273" lon="7.249844405815661"><ele>522.0</ele><time>2026-04-25T15:09:08.999Z</time></trkpt><trkpt lat="44.80051941349012" lon="7.249948214591128"><ele>521.2</ele><time>2026-04-25T15:09:09.999Z</time></trkpt><trkpt lat="44.80061887091538" lon="7.250043685919577"><ele>520.4000000000001</ele><time>2026-04-25T15:09:10.999Z</time></trkpt><trkpt lat="44.80070548442931" lon="7.250135280098956"><ele>519.5999999999999</ele><time>2026-04-25T15:09:11.999Z</time></trkpt><trkpt lat="44.800778351619314" lon="7.250241877003791"><ele>518.8</ele><time>2026-04-25T15:09:12.999Z</time></trkpt><trkpt lat="44.8008531155454" lon="7.250364569111169"><ele>518.0</ele><time>2026-04-25T15:09:13.999Z</time></trkpt><trkpt lat="44.80092996969197" lon="7.250492482424532"><ele>517.6</ele><time>2026-04-25T15:09:14.999Z</time></trkpt><trkpt lat="44.801002731625516" lon="7.250613944737433"><ele>517.1999999999999</ele><time>2026-04-25T15:09:15.999Z</time></trkpt><trkpt lat="44.80106515248241" lon="7.2507181446665685"><ele>516.8</ele><time>2026-04-25T15:09:16.999Z</time></trkpt><trkpt lat="44.80111980553707" lon="7.250801530496409"><ele>516.4</ele><time>2026-04-25T15:09:17.999Z</time></trkpt><trkpt lat="44.80120476460319" lon="7.25083523776296"><ele>516.0</ele><time>2026-04-25T15:09:18.999Z</time></trkpt><trkpt lat="44.801296344670924" lon="7.250787033092616"><ele>516.0</ele><time>2026-04-25T15:09:19.999Z</time></trkpt><trkpt lat="44.80136221277245" lon="7.250802438781998"><ele>516.0</ele><time>2026-04-25T15:09:20.999Z</time></trkpt><trkpt lat="44.80143344982663" lon="7.250756978503599"><ele>516.0</ele><time>2026-04-25T15:09:21.999Z</time></trkpt><trkpt lat="44.80149852139708" lon="7.250740501623082"><ele>516.0</ele><time>2026-04-25T15:09:22.999Z</time></trkpt><trkpt lat="44.8016229322656" lon="7.250672529727184"><ele>516.0</ele><time>2026-04-25T15:09:24.999Z</time></trkpt><trkpt lat="44.801724103192974" lon="7.250594952460472"><ele>516.0</ele><time>2026-04-25T15:09:26.999Z</time></trkpt><trkpt lat="44.801777449792716" lon="7.250526937814239"><ele>516.0</ele><time>2026-04-25T15:09:27.999Z</time></trkpt><trkpt lat="44.80183581799733" lon="7.250449843817287"><ele>516.0</ele><time>2026-04-25T15:09:28.999Z</time></trkpt><trkpt lat="44.80189966466465" lon="7.250365019210491"><ele>516.0</ele><time>2026-04-25T15:09:29.999Z</time></trkpt><trkpt lat="44.801957339677685" lon="7.250280434340481"><ele>516.0</ele><time>2026-04-25T15:09:30.999Z</time></trkpt><trkpt lat="44.80201536785543" lon="7.250196221244201"><ele>516.0</ele><time>2026-04-25T15:09:31.998Z</time></trkpt><trkpt lat="44.80207683013209" lon="7.250114099237825"><ele>515.1428571428571</ele><time>2026-04-25T15:09:32.998Z</time></trkpt><trkpt lat="44.802142071183525" lon="7.250053993692225"><ele>514.2857142857142</ele><time>2026-04-25T15:09:33.998Z</time></trkpt><trkpt lat="44.80220414143383" lon="7.250005924851252"><ele>513.4285714285714</ele><time>2026-04-25T15:09:34.998Z</time></trkpt><trkpt lat="44.802277707226075" lon="7.250048835077742"><ele>512.5714285714286</ele><time>2026-04-25T15:09:35.998Z</time></trkpt><trkpt lat="44.802354021177585" lon="7.250040817601585"><ele>511.7142857142858</ele><time>2026-04-25T15:09:36.998Z</time></trkpt><trkpt lat="44.80242467579167" lon="7.25003339461773"><ele>510.8571428571429</ele><time>2026-04-25T15:09:37.998Z</time></trkpt><trkpt lat="44.80248898122993" lon="7.25001737422333"><ele>510.0</ele><time>2026-04-25T15:09:38.998Z</time></trkpt><trkpt lat="44.80255493294941" lon="7.250006083795961"><ele>510.0</ele><time>2026-04-25T15:09:39.998Z</time></trkpt><trkpt lat="44.80261560919206" lon="7.249979616986929"><ele>510.00000000000006</ele><time>2026-04-25T15:09:40.998Z</time></trkpt><trkpt lat="44.80267686530876" lon="7.2499421338686165"><ele>510.0</ele><time>2026-04-25T15:09:41.998Z</time></trkpt><trkpt lat="44.802736031496124" lon="7.249896060427692"><ele>510.0</ele><time>2026-04-25T15:09:42.998Z</time></trkpt><trkpt lat="44.80280362680619" lon="7.249885420493233"><ele>510.00000000000006</ele><time>2026-04-25T15:09:43.998Z</time></trkpt><trkpt lat="44.80287088322908" lon="7.2498615830007465"><ele>510.0</ele><time>2026-04-25T15:09:44.998Z</time></trkpt><trkpt lat="44.80293544724742" lon="7.249837662366437"><ele>510.0</ele><time>2026-04-25T15:09:45.998Z</time></trkpt><trkpt lat="44.803001576182794" lon="7.24979168197747"><ele>508.0</ele><time>2026-04-25T15:09:46.998Z</time></trkpt><trkpt lat="44.80306949165542" lon="7.249767065770102"><ele>506.0</ele><time>2026-04-25T15:09:47.998Z</time></trkpt><trkpt lat="44.803155747522695" lon="7.249733177522373"><ele>504.0</ele><time>2026-04-25T15:09:49.998Z</time></trkpt><trkpt lat="44.80323895364174" lon="7.249701098684084"><ele>502.0</ele><time>2026-04-25T15:09:55Z</time></trkpt><trkpt lat="44.803169210204985" lon="7.249588064787513"><ele>500.0</ele><time>2026-04-25T15:09:56Z</time></trkpt><trkpt lat="44.803139273135706" lon="7.249480421249391"><ele>498.0</ele><time>2026-04-25T15:09:57Z</time></trkpt><trkpt lat="44.803107784995944" lon="7.249354381180834"><ele>498.0</ele><time>2026-04-25T15:09:58Z</time></trkpt><trkpt lat="44.80308095682396" lon="7.249211728928572"><ele>498.0</ele><time>2026-04-25T15:09:59Z</time></trkpt><trkpt lat="44.80303179912667" lon="7.249066962805777"><ele>498.0</ele><time>2026-04-25T15:10:00Z</time></trkpt><trkpt lat="44.80296345153791" lon="7.248915644479327"><ele>498.0</ele><time>2026-04-25T15:10:01Z</time></trkpt><trkpt lat="44.80291097311214" lon="7.248765797751467"><ele>498.25</ele><time>2026-04-25T15:10:02Z</time></trkpt><trkpt lat="44.80287820555041" lon="7.2486125323997594"><ele>498.5</ele><time>2026-04-25T15:10:03Z</time></trkpt><trkpt lat="44.80283946310241" lon="7.248466112574367"><ele>498.75</ele><time>2026-04-25T15:10:04Z</time></trkpt><trkpt lat="44.80281227097909" lon="7.248307491711626"><ele>499.0</ele><time>2026-04-25T15:10:05Z</time></trkpt><trkpt lat="44.80279089068022" lon="7.248150145585618"><ele>499.2</ele><time>2026-04-25T15:10:06Z</time></trkpt><trkpt lat="44.802766440147025" lon="7.248010885580298"><ele>499.4</ele><time>2026-04-25T15:10:07Z</time></trkpt><trkpt lat="44.802745708711534" lon="7.247876674268753"><ele>499.6</ele><time>2026-04-25T15:10:08Z</time></trkpt><trkpt lat="44.80272253978433" lon="7.247754751768276"><ele>499.8</ele><time>2026-04-25T15:10:09Z</time></trkpt><trkpt lat="44.80270429536693" lon="7.247631039616085"><ele>500.0</ele><time>2026-04-25T15:10:10Z</time></trkpt><trkpt lat="44.80268336773494" lon="7.247495336917759"><ele>500.0</ele><time>2026-04-25T15:10:11Z</time></trkpt><trkpt lat="44.80267119632233" lon="7.247351643304422"><ele>500.0</ele><time>2026-04-25T15:10:12Z</time></trkpt><trkpt lat="44.80268495860778" lon="7.247205011545824"><ele>500.0</ele><time>2026-04-25T15:10:13Z</time></trkpt><trkpt lat="44.80271920958447" lon="7.24705204775595"><ele>500.0</ele><time>2026-04-25T15:10:14Z</time></trkpt><trkpt lat="44.80277020101755" lon="7.246889456619907"><ele>500.0</ele><time>2026-04-25T15:10:15Z</time></trkpt><trkpt lat="44.80282048232946" lon="7.246729630211549"><ele>500.5</ele><time>2026-04-25T15:10:16Z</time></trkpt><trkpt lat="44.8028629427421" lon="7.246574852716968"><ele>501.0</ele><time>2026-04-25T15:10:17Z</time></trkpt><trkpt lat="44.80290473706005" lon="7.246418468023321"><ele>501.5</ele><time>2026-04-25T15:10:18Z</time></trkpt><trkpt lat="44.8029462557488" lon="7.246259849665174"><ele>502.0</ele><time>2026-04-25T15:10:19Z</time></trkpt><trkpt lat="44.802998227502776" lon="7.246099361469612"><ele>502.6</ele><time>2026-04-25T15:10:20Z</time></trkpt><trkpt lat="44.80305040516587" lon="7.245944027055846"><ele>503.20000000000005</ele><time>2026-04-25T15:10:21Z</time></trkpt><trkpt lat="44.80309997203918" lon="7.2458049974165295"><ele>503.8</ele><time>2026-04-25T15:10:22Z</time></trkpt><trkpt lat="44.803153156320974" lon="7.245681673110604"><ele>504.4</ele><time>2026-04-25T15:10:23Z</time></trkpt><trkpt lat="44.80321334078797" lon="7.245562738559064"><ele>505.0</ele><time>2026-04-25T15:10:24Z</time></trkpt><trkpt lat="44.80328925307096" lon="7.245427237224354"><ele>505.5</ele><time>2026-04-25T15:10:25Z</time></trkpt><trkpt lat="44.803352431042924" lon="7.2452907628057295"><ele>506.0</ele><time>2026-04-25T15:10:26Z</time></trkpt><trkpt lat="44.80340383536334" lon="7.245148971375063"><ele>506.5</ele><time>2026-04-25T15:10:27Z</time></trkpt><trkpt lat="44.803450212086496" lon="7.24499052834393"><ele>507.0</ele><time>2026-04-25T15:10:28Z</time></trkpt><trkpt lat="44.80348913950954" lon="7.244809454478619"><ele>503.66666666666663</ele><time>2026-04-25T15:10:29Z</time></trkpt><trkpt lat="44.8035266720403" lon="7.2446191175590755"><ele>500.3333333333333</ele><time>2026-04-25T15:10:30Z</time></trkpt><trkpt lat="44.80356580186816" lon="7.244411808189472"><ele>497.0</ele><time>2026-04-25T15:10:31Z</time></trkpt><trkpt lat="44.803615327393764" lon="7.244178437884968"><ele>498.3333333333333</ele><time>2026-04-25T15:10:32Z</time></trkpt><trkpt lat="44.803670844793174" lon="7.243925655967484"><ele>499.66666666666663</ele><time>2026-04-25T15:10:33Z</time></trkpt><trkpt lat="44.80372768917232" lon="7.243664068545466"><ele>501.0</ele><time>2026-04-25T15:10:34Z</time></trkpt><trkpt lat="44.80377707354566" lon="7.243426130912763"><ele>501.0</ele><time>2026-04-25T15:10:35Z</time></trkpt><trkpt lat="44.803821522342176" lon="7.24320336890093"><ele>501.0</ele><time>2026-04-25T15:10:36Z</time></trkpt><trkpt lat="44.803870757174856" lon="7.242992047517893"><ele>501.0</ele><time>2026-04-25T15:10:37Z</time></trkpt><trkpt lat="44.80392303191816" lon="7.24278682009759"><ele>500.75</ele><time>2026-04-25T15:10:38Z</time></trkpt><trkpt lat="44.80396904722347" lon="7.242599716581575"><ele>500.5</ele><time>2026-04-25T15:10:39Z</time></trkpt><trkpt lat="44.80402572936874" lon="7.2424404649412555"><ele>500.25</ele><time>2026-04-25T15:10:40Z</time></trkpt><trkpt lat="44.80410317852161" lon="7.242297904023394"><ele>500.0</ele><time>2026-04-25T15:10:41Z</time></trkpt><trkpt lat="44.804207777028594" lon="7.242171652527617"><ele>499.75</ele><time>2026-04-25T15:10:42Z</time></trkpt><trkpt lat="44.80432441872588" lon="7.242048048264146"><ele>499.5</ele><time>2026-04-25T15:10:43Z</time></trkpt><trkpt lat="44.804423761712435" lon="7.241930828170824"><ele>499.25</ele><time>2026-04-25T15:10:44Z</time></trkpt><trkpt lat="44.80452327504757" lon="7.241843027693163"><ele>499.0</ele><time>2026-04-25T15:10:45Z</time></trkpt><trkpt lat="44.80461727370352" lon="7.24177859562328"><ele>504.4</ele><time>2026-04-25T15:10:46Z</time></trkpt><trkpt lat="44.80470572375473" lon="7.2417379441090635"><ele>509.79999999999995</ele><time>2026-04-25T15:10:46.999Z</time></trkpt><trkpt lat="44.80477377275344" lon="7.241850326356605"><ele>515.2</ele><time>2026-04-25T15:10:47.999Z</time></trkpt><trkpt lat="44.80483128615052" lon="7.241950882026726"><ele>520.6</ele><time>2026-04-25T15:10:48.999Z</time></trkpt><trkpt lat="44.80484276364589" lon="7.242071167085632"><ele>526.0</ele><time>2026-04-25T15:10:49.999Z</time></trkpt><trkpt lat="44.80485433263831" lon="7.242195190274468"><ele>523.0</ele><time>2026-04-25T15:10:50.999Z</time></trkpt><trkpt lat="44.80486532793518" lon="7.242327934098969"><ele>520.0</ele><time>2026-04-25T15:10:51.999Z</time></trkpt><trkpt lat="44.80487662616589" lon="7.242460138349653"><ele>517.0</ele><time>2026-04-25T15:10:52.999Z</time></trkpt><trkpt lat="44.804899458777044" lon="7.242570681964729"><ele>514.0</ele><time>2026-04-25T15:10:53.999Z</time></trkpt><trkpt lat="44.80493085587523" lon="7.242658455503659"><ele>511.00000000000006</ele><time>2026-04-25T15:10:54.999Z</time></trkpt><trkpt lat="44.80497276989554" lon="7.242730416304665"><ele>508.0</ele><time>2026-04-25T15:10:55.999Z</time></trkpt><trkpt lat="44.80503626223573" lon="7.242761845574616"><ele>508.0</ele><time>2026-04-25T15:10:56.999Z</time></trkpt><trkpt lat="44.80502337731339" lon="7.242864179738587"><ele>507.99999999999994</ele><time>2026-04-25T15:10:57.999Z</time></trkpt><trkpt lat="44.80506776153252" lon="7.24293498429793"><ele>507.99999999999994</ele><time>2026-04-25T15:10:58.999Z</time></trkpt><trkpt lat="44.80520770844675" lon="7.242962157771607"><ele>508.0</ele><time>2026-04-25T15:11:00.999Z</time></trkpt><trkpt lat="44.80526751106139" lon="7.242850586756687"><ele>508.0</ele><time>2026-04-25T15:11:01.999Z</time></trkpt><trkpt lat="44.80536472925552" lon="7.242881039096879"><ele>507.79999999999995</ele><time>2026-04-25T15:11:03.999Z</time></trkpt><trkpt lat="44.8054573008475" lon="7.243019069752295"><ele>507.59999999999997</ele><time>2026-04-25T15:11:05.999Z</time></trkpt><trkpt lat="44.80554199179482" lon="7.243061593518787"><ele>507.40000000000003</ele><time>2026-04-25T15:11:06.999Z</time></trkpt><trkpt lat="44.805632619254695" lon="7.2430977073941225"><ele>507.20000000000005</ele><time>2026-04-25T15:11:07.999Z</time></trkpt><trkpt lat="44.805729538087945" lon="7.243117278145833"><ele>507.0</ele><time>2026-04-25T15:11:08.999Z</time></trkpt><trkpt lat="44.80583295711403" lon="7.243134774264655"><ele>507.0</ele><time>2026-04-25T15:11:09.999Z</time></trkpt><trkpt lat="44.8059326737522" lon="7.243151644015984"><ele>507.00000000000006</ele><time>2026-04-25T15:11:10.999Z</time></trkpt><trkpt lat="44.80603362450122" lon="7.243164554378058"><ele>507.00000000000006</ele><time>2026-04-25T15:11:11.999Z</time></trkpt><trkpt lat="44.806138241399104" lon="7.243168318066028"><ele>507.0</ele><time>2026-04-25T15:11:12.999Z</time></trkpt><trkpt lat="44.8062371545873" lon="7.243138378408583"><ele>507.0</ele><time>2026-04-25T15:11:13.999Z</time></trkpt><trkpt lat="44.8063234918651" lon="7.243074455807855"><ele>507.0</ele><time>2026-04-25T15:11:14.999Z</time></trkpt><trkpt lat="44.80641148625665" lon="7.243012678954352"><ele>507.00000000000006</ele><time>2026-04-25T15:11:15.999Z</time></trkpt><trkpt lat="44.806517228206694" lon="7.24296760078967"><ele>507.00000000000006</ele><time>2026-04-25T15:11:16.999Z</time></trkpt><trkpt lat="44.806623420594356" lon="7.24290405988381"><ele>507.0</ele><time>2026-04-25T15:11:17.999Z</time></trkpt><trkpt lat="44.806724530594074" lon="7.24282104265484"><ele>507.0</ele><time>2026-04-25T15:11:18.999Z</time></trkpt><trkpt lat="44.806830531749895" lon="7.242790395069965"><ele>505.8</ele><time>2026-04-25T15:11:19.999Z</time></trkpt><trkpt lat="44.80692859031847" lon="7.242780063214395"><ele>504.6</ele><time>2026-04-25T15:11:20.999Z</time></trkpt><trkpt lat="44.8070262981009" lon="7.2427866650978086"><ele>503.40000000000003</ele><time>2026-04-25T15:11:21.999Z</time></trkpt><trkpt lat="44.80712653017504" lon="7.242792286376505"><ele>502.20000000000005</ele><time>2026-04-25T15:11:22.999Z</time></trkpt><trkpt lat="44.80723074881042" lon="7.242799018619828"><ele>501.0</ele><time>2026-04-25T15:11:23.999Z</time></trkpt><trkpt lat="44.80733806406527" lon="7.242805950902548"><ele>501.0</ele><time>2026-04-25T15:11:24.999Z</time></trkpt><trkpt lat="44.807441226030214" lon="7.242812614887537"><ele>501.0</ele><time>2026-04-25T15:11:25.999Z</time></trkpt><trkpt lat="44.80754417721048" lon="7.242819025885743"><ele>501.0</ele><time>2026-04-25T15:11:26.999Z</time></trkpt><trkpt lat="44.80766012829264" lon="7.242824888968912"><ele>501.0</ele><time>2026-04-25T15:11:27.999Z</time></trkpt><trkpt lat="44.80777074209555" lon="7.242830482170636"><ele>501.0</ele><time>2026-04-25T15:11:28.999Z</time></trkpt><trkpt lat="44.80788605484997" lon="7.242836312976684"><ele>500.0</ele><time>2026-04-25T15:11:29.999Z</time></trkpt><trkpt lat="44.80801490189107" lon="7.242842828146586"><ele>499.0</ele><time>2026-04-25T15:11:30.999Z</time></trkpt><trkpt lat="44.80813190447299" lon="7.242850308693815"><ele>498.0</ele><time>2026-04-25T15:11:31.999Z</time></trkpt><trkpt lat="44.80824265331135" lon="7.242859509285382"><ele>497.0</ele><time>2026-04-25T15:11:32.999Z</time></trkpt><trkpt lat="44.808347022433196" lon="7.242877383357389"><ele>497.0</ele><time>2026-04-25T15:11:33.999Z</time></trkpt><trkpt lat="44.80844708782357" lon="7.242908188927893"><ele>497.00000000000006</ele><time>2026-04-25T15:11:34.999Z</time></trkpt><trkpt lat="44.80853158558244" lon="7.242966443597054"><ele>497.00000000000006</ele><time>2026-04-25T15:11:35.998Z</time></trkpt><trkpt lat="44.80862249099116" lon="7.24300642102507"><ele>497.0</ele><time>2026-04-25T15:11:36.998Z</time></trkpt><trkpt lat="44.808666165094" lon="7.243134713541202"><ele>497.0</ele><time>2026-04-25T15:11:37.998Z</time></trkpt><trkpt lat="44.80871481806419" lon="7.2432281665962215"><ele>496.0</ele><time>2026-04-25T15:11:38.998Z</time></trkpt><trkpt lat="44.80880672944393" lon="7.243250581496812"><ele>495.00000000000006</ele><time>2026-04-25T15:11:39.998Z</time></trkpt><trkpt lat="44.808900481603445" lon="7.2432996594196615"><ele>494.00000000000006</ele><time>2026-04-25T15:11:40.998Z</time></trkpt><trkpt lat="44.809014956030154" lon="7.243317671518643"><ele>493.0</ele><time>2026-04-25T15:11:41.998Z</time></trkpt><trkpt lat="44.8091138271411" lon="7.243323227784105"><ele>492.0</ele><time>2026-04-25T15:11:42.998Z</time></trkpt><trkpt lat="44.80921236258988" lon="7.243332012720241"><ele>492.0</ele><time>2026-04-25T15:11:43.998Z</time></trkpt><trkpt lat="44.80930142560448" lon="7.243339699131877"><ele>492.0</ele><time>2026-04-25T15:11:44.998Z</time></trkpt><trkpt lat="44.809393353896596" lon="7.243345282649398"><ele>492.0</ele><time>2026-04-25T15:11:45.998Z</time></trkpt><trkpt lat="44.80947943246732" lon="7.24333837383968"><ele>492.0</ele><time>2026-04-25T15:11:46.998Z</time></trkpt><trkpt lat="44.809559433504134" lon="7.2433097134275535"><ele>492.0</ele><time>2026-04-25T15:11:47.998Z</time></trkpt><trkpt lat="44.80962366325387" lon="7.243233528845649"><ele>492.0</ele><time>2026-04-25T15:11:48.998Z</time></trkpt><trkpt lat="44.809654109021274" lon="7.243087463553517"><ele>489.0</ele><time>2026-04-25T15:11:49.998Z</time></trkpt><trkpt lat="44.80968252637203" lon="7.242928278789851"><ele>486.0</ele><time>2026-04-25T15:11:50.998Z</time></trkpt><trkpt lat="44.809720164555664" lon="7.242740060858374"><ele>483.0</ele><time>2026-04-25T15:11:51.998Z</time></trkpt><trkpt lat="44.809768045120656" lon="7.242543335474218"><ele>480.0</ele><time>2026-04-25T15:11:52.998Z</time></trkpt><trkpt lat="44.80981399170301" lon="7.242355968408084"><ele>481.0</ele><time>2026-04-25T15:11:53.998Z</time></trkpt><trkpt lat="44.80985573161333" lon="7.24218230815249"><ele>482.0</ele><time>2026-04-25T15:11:54.998Z</time></trkpt><trkpt lat="44.8098969506094" lon="7.242019861461366"><ele>483.0</ele><time>2026-04-25T15:11:55.998Z</time></trkpt><trkpt lat="44.809942557065625" lon="7.241868516084694"><ele>484.0</ele><time>2026-04-25T15:11:57Z</time></trkpt><trkpt lat="44.809989465209476" lon="7.241732361138893"><ele>484.0</ele><time>2026-04-25T15:11:58Z</time></trkpt><trkpt lat="44.810050938896346" lon="7.241643519128168"><ele>484.0</ele><time>2026-04-25T15:11:59Z</time></trkpt><trkpt lat="44.81013498983678" lon="7.241629569762939"><ele>484.0</ele><time>2026-04-25T15:12:00Z</time></trkpt><trkpt lat="44.81020074095707" lon="7.241726448983867"><ele>484.0</ele><time>2026-04-25T15:12:01Z</time></trkpt><trkpt lat="44.81021777061805" lon="7.241838908843451"><ele>484.0</ele><time>2026-04-25T15:12:02Z</time></trkpt><trkpt lat="44.81020252293392" lon="7.241979338125657"><ele>480.75</ele><time>2026-04-25T15:12:03Z</time></trkpt><trkpt lat="44.81021651142437" lon="7.242137530662023"><ele>477.5</ele><time>2026-04-25T15:12:04Z</time></trkpt><trkpt lat="44.81023273387821" lon="7.242310964416204"><ele>474.25</ele><time>2026-04-25T15:12:05Z</time></trkpt><trkpt lat="44.81025147994326" lon="7.24250865004766"><ele>471.0</ele><time>2026-04-25T15:12:06Z</time></trkpt><trkpt lat="44.81030081633249" lon="7.242694330054687"><ele>470.5</ele><time>2026-04-25T15:12:07Z</time></trkpt><trkpt lat="44.81031253893128" lon="7.242872889721642"><ele>470.0</ele><time>2026-04-25T15:12:08Z</time></trkpt><trkpt lat="44.81032361330591" lon="7.24304158107363"><ele>469.5</ele><time>2026-04-25T15:12:09Z</time></trkpt><trkpt lat="44.810340424880884" lon="7.243204914711867"><ele>469.0</ele><time>2026-04-25T15:12:10Z</time></trkpt><trkpt lat="44.81033353285588" lon="7.243366645742649"><ele>469.0</ele><time>2026-04-25T15:12:11Z</time></trkpt><trkpt lat="44.8103720108463" lon="7.243522189660967"><ele>469.0</ele><time>2026-04-25T15:12:12Z</time></trkpt><trkpt lat="44.81044762986183" lon="7.243662148432933"><ele>469.0</ele><time>2026-04-25T15:12:13Z</time></trkpt><trkpt lat="44.81055871277891" lon="7.243768842542693"><ele>469.0</ele><time>2026-04-25T15:12:14Z</time></trkpt><trkpt lat="44.810688981672065" lon="7.243832420258697"><ele>469.0</ele><time>2026-04-25T15:12:15Z</time></trkpt><trkpt lat="44.810827700657114" lon="7.243891496449315"><ele>469.0</ele><time>2026-04-25T15:12:16Z</time></trkpt><trkpt lat="44.8109734115796" lon="7.243953049360479"><ele>469.0</ele><time>2026-04-25T15:12:17Z</time></trkpt><trkpt lat="44.81113030158337" lon="7.244019317399891"><ele>469.0</ele><time>2026-04-25T15:12:18Z</time></trkpt><trkpt lat="44.8112808533917" lon="7.244082887305049"><ele>469.0</ele><time>2026-04-25T15:12:19Z</time></trkpt><trkpt lat="44.81142601576504" lon="7.244144181503118"><ele>469.0</ele><time>2026-04-25T15:12:20Z</time></trkpt><trkpt lat="44.81157182320095" lon="7.244204847701608"><ele>469.0</ele><time>2026-04-25T15:12:21Z</time></trkpt><trkpt lat="44.811705684411166" lon="7.244261601653824"><ele>469.0</ele><time>2026-04-25T15:12:22Z</time></trkpt><trkpt lat="44.8118408629503" lon="7.244318914091544"><ele>469.0</ele><time>2026-04-25T15:12:23Z</time></trkpt><trkpt lat="44.811969849549115" lon="7.2443736013532245"><ele>469.0</ele><time>2026-04-25T15:12:24Z</time></trkpt><trkpt lat="44.812088426246135" lon="7.244423917327578"><ele>469.5</ele><time>2026-04-25T15:12:25Z</time></trkpt><trkpt lat="44.81220616047791" lon="7.2444742400873245"><ele>470.0</ele><time>2026-04-25T15:12:26Z</time></trkpt><trkpt lat="44.81232566828103" lon="7.244525320939946"><ele>470.5</ele><time>2026-04-25T15:12:27Z</time></trkpt><trkpt lat="44.81244827720902" lon="7.2445777272857805"><ele>471.0</ele><time>2026-04-25T15:12:28Z</time></trkpt><trkpt lat="44.8125691954094" lon="7.244629410951241"><ele>471.75</ele><time>2026-04-25T15:12:29Z</time></trkpt><trkpt lat="44.81269452190768" lon="7.244682979287454"><ele>472.5</ele><time>2026-04-25T15:12:30Z</time></trkpt><trkpt lat="44.81282123471682" lon="7.2447388604541265"><ele>473.25</ele><time>2026-04-25T15:12:31Z</time></trkpt><trkpt lat="44.81294898604732" lon="7.244794245724921"><ele>474.0</ele><time>2026-04-25T15:12:32Z</time></trkpt><trkpt lat="44.81306712856441" lon="7.24484510736223"><ele>474.2</ele><time>2026-04-25T15:12:33Z</time></trkpt><trkpt lat="44.81317654793678" lon="7.244893082653798"><ele>474.4</ele><time>2026-04-25T15:12:34Z</time></trkpt><trkpt lat="44.81327950969674" lon="7.244938226750089"><ele>474.6</ele><time>2026-04-25T15:12:35Z</time></trkpt><trkpt lat="44.813376456362555" lon="7.24498049135105"><ele>474.8</ele><time>2026-04-25T15:12:36Z</time></trkpt><trkpt lat="44.813467902864055" lon="7.245020422330447"><ele>475.0</ele><time>2026-04-25T15:12:37Z</time></trkpt><trkpt lat="44.813543572418276" lon="7.245055412363286"><ele>475.6</ele><time>2026-04-25T15:12:38Z</time></trkpt><trkpt lat="44.81361349693266" lon="7.245095136285323"><ele>476.2</ele><time>2026-04-25T15:12:39Z</time></trkpt><trkpt lat="44.81368906071437" lon="7.245128525178157"><ele>476.79999999999995</ele><time>2026-04-25T15:12:48Z</time></trkpt><trkpt lat="44.81374327554958" lon="7.245282476205793"><ele>477.4</ele><time>2026-04-25T15:12:50.999Z</time></trkpt><trkpt lat="44.813812935222394" lon="7.245330583040406"><ele>478.0</ele><time>2026-04-25T15:12:51.999Z</time></trkpt><trkpt lat="44.81391295916009" lon="7.245243801812264"><ele>478.0</ele><time>2026-04-25T15:12:52.999Z</time></trkpt><trkpt lat="44.81399542669251" lon="7.245184130909593"><ele>477.99999999999994</ele><time>2026-04-25T15:12:53.999Z</time></trkpt><trkpt lat="44.814087954034825" lon="7.245145063636374"><ele>477.99999999999994</ele><time>2026-04-25T15:12:54.999Z</time></trkpt><trkpt lat="44.81419605754732" lon="7.245154899802095"><ele>478.0</ele><time>2026-04-25T15:12:55.999Z</time></trkpt><trkpt lat="44.8143122751978" lon="7.245189096437995"><ele>478.0</ele><time>2026-04-25T15:12:56.999Z</time></trkpt><trkpt lat="44.814427585649284" lon="7.245253344660297"><ele>478.5</ele><time>2026-04-25T15:12:57.999Z</time></trkpt><trkpt lat="44.814556733819515" lon="7.2452762685918675"><ele>479.0</ele><time>2026-04-25T15:12:58.999Z</time></trkpt><trkpt lat="44.81468709654063" lon="7.245299408094152"><ele>479.5</ele><time>2026-04-25T15:12:59.999Z</time></trkpt><trkpt lat="44.81481868540191" lon="7.245322765225315"><ele>480.0</ele><time>2026-04-25T15:13:00.999Z</time></trkpt><trkpt lat="44.81494752171166" lon="7.245347029894499"><ele>480.0</ele><time>2026-04-25T15:13:01.999Z</time></trkpt><trkpt lat="44.815076810869876" lon="7.245371523171503"><ele>480.0</ele><time>2026-04-25T15:13:02.999Z</time></trkpt><trkpt lat="44.81520495982717" lon="7.2453958004667385"><ele>480.0</ele><time>2026-04-25T15:13:03.999Z</time></trkpt><trkpt lat="44.815327483071535" lon="7.245419014000386"><ele>480.0</ele><time>2026-04-25T15:13:04.999Z</time></trkpt><trkpt lat="44.81544563772238" lon="7.245441213310677"><ele>480.0</ele><time>2026-04-25T15:13:05.999Z</time></trkpt><trkpt lat="44.8155708709977" lon="7.245465171252679"><ele>480.0</ele><time>2026-04-25T15:13:06.999Z</time></trkpt><trkpt lat="44.815696268246086" lon="7.245489148632754"><ele>480.0</ele><time>2026-04-25T15:13:07.999Z</time></trkpt><trkpt lat="44.815823743205605" lon="7.24551110278173"><ele>480.0</ele><time>2026-04-25T15:13:08.999Z</time></trkpt><trkpt lat="44.81595467946787" lon="7.2455318669342414"><ele>480.33333333333337</ele><time>2026-04-25T15:13:09.999Z</time></trkpt><trkpt lat="44.8160947658287" lon="7.245556336661224"><ele>480.6666666666667</ele><time>2026-04-25T15:13:10.999Z</time></trkpt><trkpt lat="44.81625216930886" lon="7.2455980419347705"><ele>481.0</ele><time>2026-04-25T15:13:11.999Z</time></trkpt><trkpt lat="44.816427275171506" lon="7.245640416748219"><ele>481.0</ele><time>2026-04-25T15:13:12.999Z</time></trkpt><trkpt lat="44.81658273955743" lon="7.245671497738648"><ele>481.0</ele><time>2026-04-25T15:13:13.999Z</time></trkpt><trkpt lat="44.8167250298179" lon="7.245699945008965"><ele>481.0</ele><time>2026-04-25T15:13:14.999Z</time></trkpt><trkpt lat="44.81686068086264" lon="7.245726288277515"><ele>481.0</ele><time>2026-04-25T15:13:15.999Z</time></trkpt><trkpt lat="44.816997894882824" lon="7.245754730342999"><ele>481.75</ele><time>2026-04-25T15:13:16.999Z</time></trkpt><trkpt lat="44.817139347800534" lon="7.2457850703923095"><ele>482.5</ele><time>2026-04-25T15:13:17.999Z</time></trkpt><trkpt lat="44.817274516203035" lon="7.245812347136224"><ele>483.25</ele><time>2026-04-25T15:13:18.999Z</time></trkpt><trkpt lat="44.81741497679052" lon="7.245838613226709"><ele>484.0</ele><time>2026-04-25T15:13:19.999Z</time></trkpt><trkpt lat="44.817549680142115" lon="7.245863087291771"><ele>484.5</ele><time>2026-04-25T15:13:20.999Z</time></trkpt><trkpt lat="44.81768513013754" lon="7.245886604598604"><ele>485.0</ele><time>2026-04-25T15:13:21.999Z</time></trkpt><trkpt lat="44.81781025286226" lon="7.245907194419202"><ele>485.5</ele><time>2026-04-25T15:13:22.999Z</time></trkpt><trkpt lat="44.81793733613869" lon="7.245928106945206"><ele>486.0</ele><time>2026-04-25T15:13:23.999Z</time></trkpt><trkpt lat="44.81806450171512" lon="7.245952333240344"><ele>486.0</ele><time>2026-04-25T15:13:24.999Z</time></trkpt><trkpt lat="44.818195534982685" lon="7.245976757678095"><ele>486.0</ele><time>2026-04-25T15:13:25.999Z</time></trkpt><trkpt lat="44.818343634357056" lon="7.24600411366089"><ele>486.0</ele><time>2026-04-25T15:13:26.999Z</time></trkpt><trkpt lat="44.81849834023466" lon="7.24603232894652"><ele>486.0</ele><time>2026-04-25T15:13:27.999Z</time></trkpt><trkpt lat="44.81865099193882" lon="7.24606016968653"><ele>487.75</ele><time>2026-04-25T15:13:28.999Z</time></trkpt><trkpt lat="44.818789898056096" lon="7.24608829755156"><ele>489.5</ele><time>2026-04-25T15:13:29.999Z</time></trkpt><trkpt lat="44.81893188206435" lon="7.246116507872622"><ele>491.25</ele><time>2026-04-25T15:13:30.999Z</time></trkpt><trkpt lat="44.81907288947945" lon="7.246143602760202"><ele>493.0</ele><time>2026-04-25T15:13:31.999Z</time></trkpt><trkpt lat="44.819210487032585" lon="7.246170092311172"><ele>494.25</ele><time>2026-04-25T15:13:32.999Z</time></trkpt><trkpt lat="44.81935113216646" lon="7.246197724311201"><ele>495.5</ele><time>2026-04-25T15:13:33.999Z</time></trkpt><trkpt lat="44.81949230181588" lon="7.246226994905435"><ele>496.75</ele><time>2026-04-25T15:13:34.999Z</time></trkpt><trkpt lat="44.819634075004785" lon="7.246256390733573"><ele>498.0</ele><time>2026-04-25T15:13:35.999Z</time></trkpt><trkpt lat="44.81976218378983" lon="7.246277685113216"><ele>498.0</ele><time>2026-04-25T15:13:36.999Z</time></trkpt><trkpt lat="44.81986855827312" lon="7.246296457114291"><ele>497.99999999999994</ele><time>2026-04-25T15:13:37.999Z</time></trkpt><trkpt lat="44.819956473137644" lon="7.246314172854516"><ele>497.99999999999994</ele><time>2026-04-25T15:13:38.998Z</time></trkpt><trkpt lat="44.82004106851211" lon="7.246311324469776"><ele>498.0</ele><time>2026-04-25T15:13:39.998Z</time></trkpt><trkpt lat="44.82010403809374" lon="7.246375867875414"><ele>498.0</ele><time>2026-04-25T15:13:40.998Z</time></trkpt><trkpt lat="44.82014561629031" lon="7.246576249951114"><ele>498.0</ele><time>2026-04-25T15:13:42.998Z</time></trkpt><trkpt lat="44.82015358741352" lon="7.246723820406873"><ele>498.0</ele><time>2026-04-25T15:13:43.998Z</time></trkpt><trkpt lat="44.82015962761477" lon="7.246881654505758"><ele>498.0</ele><time>2026-04-25T15:13:44.998Z</time></trkpt><trkpt lat="44.82015876835053" lon="7.247048911293366"><ele>498.0</ele><time>2026-04-25T15:13:45.998Z</time></trkpt><trkpt lat="44.820153710943636" lon="7.247235006160415"><ele>497.0</ele><time>2026-04-25T15:13:46.998Z</time></trkpt><trkpt lat="44.820145382897536" lon="7.247420718828425"><ele>496.0</ele><time>2026-04-25T15:13:47.998Z</time></trkpt><trkpt lat="44.82014094397193" lon="7.247596407059427"><ele>495.0</ele><time>2026-04-25T15:13:48.998Z</time></trkpt><trkpt lat="44.82015933162859" lon="7.247785915057536"><ele>494.0</ele><time>2026-04-25T15:13:49.998Z</time></trkpt><trkpt lat="44.820232404393785" lon="7.247974030978892"><ele>494.5</ele><time>2026-04-25T15:13:50.998Z</time></trkpt><trkpt lat="44.8202989388543" lon="7.248148709744496"><ele>495.0</ele><time>2026-04-25T15:13:51.998Z</time></trkpt><trkpt lat="44.820344933826085" lon="7.248342583207586"><ele>495.5</ele><time>2026-04-25T15:13:52.998Z</time></trkpt><trkpt lat="44.82036103967709" lon="7.248553324081769"><ele>496.0</ele><time>2026-04-25T15:13:53.998Z</time></trkpt><trkpt lat="44.820370917527974" lon="7.248766528590947"><ele>494.6666666666667</ele><time>2026-04-25T15:13:54.998Z</time></trkpt><trkpt lat="44.82037182347937" lon="7.248975481379858"><ele>493.33333333333337</ele><time>2026-04-25T15:13:55.998Z</time></trkpt><trkpt lat="44.82036878443197" lon="7.24919506958787"><ele>492.0</ele><time>2026-04-25T15:13:56.998Z</time></trkpt><trkpt lat="44.82036226631309" lon="7.249404444717384"><ele>492.0</ele><time>2026-04-25T15:13:57.998Z</time></trkpt><trkpt lat="44.820355320384074" lon="7.249588694633999"><ele>492.0</ele><time>2026-04-25T15:13:58.998Z</time></trkpt><trkpt lat="44.82034787467055" lon="7.249786202157686"><ele>492.0</ele><time>2026-04-25T15:13:59.998Z</time></trkpt><trkpt lat="44.82034185546306" lon="7.249990503993758"><ele>492.0</ele><time>2026-04-25T15:14:00.998Z</time></trkpt><trkpt lat="44.82032940848436" lon="7.250196684751445"><ele>491.5</ele><time>2026-04-25T15:14:01.998Z</time></trkpt><trkpt lat="44.820307827420365" lon="7.250385417651826"><ele>491.0</ele><time>2026-04-25T15:14:03Z</time></trkpt><trkpt lat="44.82028568229051" lon="7.250586588798636"><ele>490.5</ele><time>2026-04-25T15:14:04Z</time></trkpt><trkpt lat="44.82026282472717" lon="7.250776781942926"><ele>490.0</ele><time>2026-04-25T15:14:05Z</time></trkpt><trkpt lat="44.82024244806264" lon="7.250955494019152"><ele>489.75</ele><time>2026-04-25T15:14:06Z</time></trkpt><trkpt lat="44.82022144555319" lon="7.251136278524449"><ele>489.5</ele><time>2026-04-25T15:14:07Z</time></trkpt><trkpt lat="44.82020070200685" lon="7.25131448263183"><ele>489.25</ele><time>2026-04-25T15:14:08Z</time></trkpt><trkpt lat="44.82018170434589" lon="7.251477688346987"><ele>489.0</ele><time>2026-04-25T15:14:09Z</time></trkpt><trkpt lat="44.820164018942414" lon="7.251624512219435"><ele>489.0</ele><time>2026-04-25T15:14:10Z</time></trkpt><trkpt lat="44.82014701494467" lon="7.251766995189975"><ele>489.0</ele><time>2026-04-25T15:14:11Z</time></trkpt><trkpt lat="44.82012756632384" lon="7.251915753754698"><ele>489.0</ele><time>2026-04-25T15:14:12Z</time></trkpt><trkpt lat="44.82010655741842" lon="7.252067232374841"><ele>489.0</ele><time>2026-04-25T15:14:13Z</time></trkpt><trkpt lat="44.82008414197604" lon="7.252209979325941"><ele>489.0</ele><time>2026-04-25T15:14:14Z</time></trkpt><trkpt lat="44.820059916574735" lon="7.252349933935335"><ele>488.25</ele><time>2026-04-25T15:14:15Z</time></trkpt><trkpt lat="44.82003023434633" lon="7.25251425188572"><ele>487.5</ele><time>2026-04-25T15:14:16Z</time></trkpt><trkpt lat="44.81999613754036" lon="7.252686566720604"><ele>486.75</ele><time>2026-04-25T15:14:17Z</time></trkpt><trkpt lat="44.819963122116036" lon="7.252871660154473"><ele>486.0</ele><time>2026-04-25T15:14:18Z</time></trkpt><trkpt lat="44.81993248805753" lon="7.253049864704379"><ele>485.5</ele><time>2026-04-25T15:14:19Z</time></trkpt><trkpt lat="44.819902351235946" lon="7.253225176746052"><ele>485.0</ele><time>2026-04-25T15:14:20Z</time></trkpt><trkpt lat="44.81986923927531" lon="7.253403012734716"><ele>484.5</ele><time>2026-04-25T15:14:21Z</time></trkpt><trkpt lat="44.81983655083841" lon="7.253578442950185"><ele>484.0</ele><time>2026-04-25T15:14:22Z</time></trkpt><trkpt lat="44.819803146046375" lon="7.253757717661783"><ele>484.0</ele><time>2026-04-25T15:14:23Z</time></trkpt><trkpt lat="44.81977181201151" lon="7.253925879150869"><ele>484.0</ele><time>2026-04-25T15:14:24Z</time></trkpt><trkpt lat="44.819743423254536" lon="7.254089332658353"><ele>484.0</ele><time>2026-04-25T15:14:25Z</time></trkpt><trkpt lat="44.81972516754384" lon="7.254246551940826"><ele>484.0</ele><time>2026-04-25T15:14:26Z</time></trkpt><trkpt lat="44.819726963922264" lon="7.254401057875123"><ele>484.0</ele><time>2026-04-25T15:14:27Z</time></trkpt><trkpt lat="44.819748203811194" lon="7.254546802008245"><ele>484.0</ele><time>2026-04-25T15:14:28Z</time></trkpt><trkpt lat="44.81978595747641" lon="7.254694932100031"><ele>484.0</ele><time>2026-04-25T15:14:29Z</time></trkpt><trkpt lat="44.81983411494052" lon="7.2548385307030046"><ele>484.0</ele><time>2026-04-25T15:14:30Z</time></trkpt><trkpt lat="44.81989924947488" lon="7.254981867419896"><ele>483.6</ele><time>2026-04-25T15:14:31Z</time></trkpt><trkpt lat="44.819980111870606" lon="7.255098040305389"><ele>483.2</ele><time>2026-04-25T15:14:32Z</time></trkpt><trkpt lat="44.820037278729096" lon="7.255219799276412"><ele>482.80000000000007</ele><time>2026-04-25T15:14:33Z</time></trkpt><trkpt lat="44.82006973794196" lon="7.25534537977515"><ele>482.40000000000003</ele><time>2026-04-25T15:14:34Z</time></trkpt><trkpt lat="44.82008960933864" lon="7.255480780758394"><ele>482.0</ele><time>2026-04-25T15:14:35Z</time></trkpt><trkpt lat="44.820024190468665" lon="7.255603782488009"><ele>482.0</ele><time>2026-04-25T15:14:36Z</time></trkpt><trkpt lat="44.81996502070587" lon="7.255757228152025"><ele>482.0</ele><time>2026-04-25T15:14:37Z</time></trkpt><trkpt lat="44.819897091061186" lon="7.255944864947345"><ele>482.0</ele><time>2026-04-25T15:14:38Z</time></trkpt><trkpt lat="44.81984444242541" lon="7.256123563003105"><ele>482.0</ele><time>2026-04-25T15:14:39Z</time></trkpt><trkpt lat="44.819799199360155" lon="7.256281147857112"><ele>482.0</ele><time>2026-04-25T15:14:40Z</time></trkpt><trkpt lat="44.819756441960635" lon="7.256430193208739"><ele>482.00000000000006</ele><time>2026-04-25T15:14:41Z</time></trkpt><trkpt lat="44.81971656630504" lon="7.256572597151333"><ele>482.00000000000006</ele><time>2026-04-25T15:14:42Z</time></trkpt><trkpt lat="44.81966947632006" lon="7.256703375548067"><ele>482.0</ele><time>2026-04-25T15:14:43Z</time></trkpt><trkpt lat="44.81964313489924" lon="7.256856448424175"><ele>482.0</ele><time>2026-04-25T15:14:44Z</time></trkpt><trkpt lat="44.81961965944197" lon="7.257003968898924"><ele>482.0</ele><time>2026-04-25T15:14:45Z</time></trkpt><trkpt lat="44.81962453300481" lon="7.257164492808514"><ele>482.00000000000006</ele><time>2026-04-25T15:14:46Z</time></trkpt><trkpt lat="44.819623130659664" lon="7.257317157175988"><ele>482.00000000000006</ele><time>2026-04-25T15:14:47Z</time></trkpt><trkpt lat="44.81962957164744" lon="7.25746040355019"><ele>482.0</ele><time>2026-04-25T15:14:48Z</time></trkpt><trkpt lat="44.81964363430603" lon="7.257613362040763"><ele>482.0</ele><time>2026-04-25T15:14:49Z</time></trkpt><trkpt lat="44.819668650174286" lon="7.257774348269641"><ele>482.0</ele><time>2026-04-25T15:14:50Z</time></trkpt><trkpt lat="44.81970080587616" lon="7.257944453543676"><ele>482.0</ele><time>2026-04-25T15:14:51Z</time></trkpt><trkpt lat="44.81971750836198" lon="7.258124460341238"><ele>482.0</ele><time>2026-04-25T15:14:52Z</time></trkpt><trkpt lat="44.819750706870934" lon="7.258299568405756"><ele>482.0</ele><time>2026-04-25T15:14:52.999Z</time></trkpt><trkpt lat="44.81977772133324" lon="7.258455965460073"><ele>482.0</ele><time>2026-04-25T15:14:53.999Z</time></trkpt><trkpt lat="44.81979849107517" lon="7.258601912535192"><ele>482.00000000000006</ele><time>2026-04-25T15:14:54.999Z</time></trkpt><trkpt lat="44.819815227362206" lon="7.258738444695618"><ele>482.00000000000006</ele><time>2026-04-25T15:14:55.999Z</time></trkpt><trkpt lat="44.81983022201585" lon="7.2588701521244205"><ele>482.0</ele><time>2026-04-25T15:14:56.999Z</time></trkpt><trkpt lat="44.81984595760968" lon="7.259005673083718"><ele>482.0</ele><time>2026-04-25T15:14:57.999Z</time></trkpt><trkpt lat="44.81987380486709" lon="7.259167400122417"><ele>482.0</ele><time>2026-04-25T15:14:58.999Z</time></trkpt><trkpt lat="44.819918345326315" lon="7.259341091439503"><ele>482.0</ele><time>2026-04-25T15:14:59.999Z</time></trkpt><trkpt lat="44.819962030357885" lon="7.259508669496968"><ele>482.0</ele><time>2026-04-25T15:15:00.999Z</time></trkpt><trkpt lat="44.82000307577844" lon="7.259670138986098"><ele>482.0</ele><time>2026-04-25T15:15:01.999Z</time></trkpt><trkpt lat="44.820039920513494" lon="7.25981698855964"><ele>481.6</ele><time>2026-04-25T15:15:02.999Z</time></trkpt><trkpt lat="44.820072929937595" lon="7.259955628124044"><ele>481.20000000000005</ele><time>2026-04-25T15:15:03.999Z</time></trkpt><trkpt lat="44.8200993404064" lon="7.260084601105181"><ele>480.8</ele><time>2026-04-25T15:15:04.999Z</time></trkpt><trkpt lat="44.82011857872283" lon="7.260207578568091"><ele>480.4</ele><time>2026-04-25T15:15:05.999Z</time></trkpt><trkpt lat="44.82013502965623" lon="7.260324154033388"><ele>480.0</ele><time>2026-04-25T15:15:06.999Z</time></trkpt><trkpt lat="44.82015141069614" lon="7.2604346714770465"><ele>483.0</ele><time>2026-04-25T15:15:07.999Z</time></trkpt><trkpt lat="44.820169162493194" lon="7.260541734297067"><ele>486.0</ele><time>2026-04-25T15:15:08.999Z</time></trkpt><trkpt lat="44.82019530182318" lon="7.2606689352205365"><ele>489.0</ele><time>2026-04-25T15:15:09.999Z</time></trkpt><trkpt lat="44.820245654835354" lon="7.260817276374411"><ele>492.0</ele><time>2026-04-25T15:15:10.999Z</time></trkpt><trkpt lat="44.820309454369095" lon="7.260961369731194"><ele>495.0</ele><time>2026-04-25T15:15:11.999Z</time></trkpt><trkpt lat="44.82037131921342" lon="7.261097848995393"><ele>495.0</ele><time>2026-04-25T15:15:12.999Z</time></trkpt><trkpt lat="44.82042355284388" lon="7.2612189025805565"><ele>495.0</ele><time>2026-04-25T15:15:13.999Z</time></trkpt><trkpt lat="44.82047339651839" lon="7.261340178634649"><ele>495.0</ele><time>2026-04-25T15:15:14.999Z</time></trkpt><trkpt lat="44.820497770669704" lon="7.261458246680636"><ele>495.0</ele><time>2026-04-25T15:15:15.999Z</time></trkpt><trkpt lat="44.820420907895524" lon="7.261589053143622"><ele>495.0</ele><time>2026-04-25T15:15:16.999Z</time></trkpt><trkpt lat="44.820396530598146" lon="7.261747442750674"><ele>495.0</ele><time>2026-04-25T15:15:17.999Z</time></trkpt><trkpt lat="44.82035473859694" lon="7.2618991010041425"><ele>495.0</ele><time>2026-04-25T15:15:18.999Z</time></trkpt><trkpt lat="44.8203628652542" lon="7.262068239916051"><ele>495.0</ele><time>2026-04-25T15:15:19.999Z</time></trkpt><trkpt lat="44.820361208222955" lon="7.262243808345534"><ele>495.0</ele><time>2026-04-25T15:15:20.999Z</time></trkpt><trkpt lat="44.82037777046314" lon="7.2624375213109875"><ele>496.5</ele><time>2026-04-25T15:15:21.999Z</time></trkpt><trkpt lat="44.82039441894269" lon="7.262636988198629"><ele>498.0</ele><time>2026-04-25T15:15:22.999Z</time></trkpt><trkpt lat="44.82038791401454" lon="7.262835322142818"><ele>499.5</ele><time>2026-04-25T15:15:23.999Z</time></trkpt><trkpt lat="44.820403538125206" lon="7.263021244306082"><ele>501.0</ele><time>2026-04-25T15:15:24.999Z</time></trkpt><trkpt lat="44.82043407793872" lon="7.263200712115494"><ele>501.75</ele><time>2026-04-25T15:15:25.999Z</time></trkpt><trkpt lat="44.82042480956227" lon="7.263366639519296"><ele>502.5</ele><time>2026-04-25T15:15:26.999Z</time></trkpt><trkpt lat="44.82044561534772" lon="7.263520795511209"><ele>503.25</ele><time>2026-04-25T15:15:27.999Z</time></trkpt><trkpt lat="44.82051351597885" lon="7.263647636255903"><ele>504.0</ele><time>2026-04-25T15:15:28.999Z</time></trkpt><trkpt lat="44.820566009029726" lon="7.2637976423861685"><ele>504.0</ele><time>2026-04-25T15:15:29.999Z</time></trkpt><trkpt lat="44.82061060895691" lon="7.26394304008549"><ele>504.0</ele><time>2026-04-25T15:15:30.999Z</time></trkpt><trkpt lat="44.82064305902111" lon="7.264071137617146"><ele>504.0</ele><time>2026-04-25T15:15:31.999Z</time></trkpt><trkpt lat="44.820669643124305" lon="7.264189151967097"><ele>504.0</ele><time>2026-04-25T15:15:32.999Z</time></trkpt><trkpt lat="44.8206925997039" lon="7.26429290083621"><ele>504.0</ele><time>2026-04-25T15:15:33.999Z</time></trkpt><trkpt lat="44.82068075386739" lon="7.264388411335094"><ele>504.0</ele><time>2026-04-25T15:15:34.999Z</time></trkpt><trkpt lat="44.82067683305988" lon="7.264482867237062"><ele>504.2</ele><time>2026-04-25T15:15:35.999Z</time></trkpt><trkpt lat="44.82066878112567" lon="7.264641621982062"><ele>504.4</ele><time>2026-04-25T15:15:37.999Z</time></trkpt><trkpt lat="44.820659223164405" lon="7.264778406055634"><ele>504.6</ele><time>2026-04-25T15:15:39.999Z</time></trkpt><trkpt lat="44.82064976252976" lon="7.264940968427174"><ele>504.8</ele><time>2026-04-25T15:15:41.998Z</time></trkpt><trkpt lat="44.82064764826822" lon="7.26509148228437"><ele>505.0</ele><time>2026-04-25T15:15:43.998Z</time></trkpt><trkpt lat="44.820656681357384" lon="7.265221566625115"><ele>505.0</ele><time>2026-04-25T15:15:45.998Z</time></trkpt><trkpt lat="44.82067329202995" lon="7.265343030873684"><ele>505.0</ele><time>2026-04-25T15:15:47.998Z</time></trkpt><trkpt lat="44.82069820255379" lon="7.2654714282876025"><ele>505.0</ele><time>2026-04-25T15:15:49.998Z</time></trkpt><trkpt lat="44.8207434095092" lon="7.265614787930302"><ele>505.0</ele><time>2026-04-25T15:15:51.998Z</time></trkpt><trkpt lat="44.82079686745437" lon="7.265765246688565"><ele>505.0</ele><time>2026-04-25T15:15:53.998Z</time></trkpt><trkpt lat="44.82086116523652" lon="7.26584462994043"><ele>505.50000000000006</ele><time>2026-04-25T15:15:54.998Z</time></trkpt><trkpt lat="44.820955330926054" lon="7.265874200818825"><ele>506.0</ele><time>2026-04-25T15:15:55.998Z</time></trkpt><trkpt lat="44.82101136344778" lon="7.265951417179303"><ele>506.5</ele><time>2026-04-25T15:15:56.998Z</time></trkpt><trkpt lat="44.821080044167964" lon="7.266025050916241"><ele>507.0</ele><time>2026-04-25T15:15:57.998Z</time></trkpt><trkpt lat="44.82114860302973" lon="7.266101287091253"><ele>507.50000000000006</ele><time>2026-04-25T15:15:58.998Z</time></trkpt><trkpt lat="44.82118017745309" lon="7.266233992792302"><ele>508.0</ele><time>2026-04-25T15:15:59.998Z</time></trkpt><trkpt lat="44.82123333681748" lon="7.266318921535963"><ele>505.59999999999997</ele><time>2026-04-25T15:16:00.998Z</time></trkpt><trkpt lat="44.8212891807274" lon="7.266423706961952"><ele>503.19999999999993</ele><time>2026-04-25T15:16:01.998Z</time></trkpt><trkpt lat="44.821340511032" lon="7.266533821033491"><ele>500.8</ele><time>2026-04-25T15:16:02.998Z</time></trkpt><trkpt lat="44.821388339160066" lon="7.266649035909488"><ele>498.4</ele><time>2026-04-25T15:16:03.998Z</time></trkpt><trkpt lat="44.82143102172623" lon="7.2667680600322875"><ele>496.0</ele><time>2026-04-25T15:16:04.998Z</time></trkpt><trkpt lat="44.82147140612112" lon="7.266885955375353"><ele>495.83333333333337</ele><time>2026-04-25T15:16:05.998Z</time></trkpt><trkpt lat="44.82150579956504" lon="7.267003735420402"><ele>495.6666666666667</ele><time>2026-04-25T15:16:06.998Z</time></trkpt><trkpt lat="44.82153947082795" lon="7.2671177968411085"><ele>495.5</ele><time>2026-04-25T15:16:07.998Z</time></trkpt><trkpt lat="44.82156859413108" lon="7.267226403746181"><ele>495.33333333333337</ele><time>2026-04-25T15:16:09Z</time></trkpt><trkpt lat="44.82159476592493" lon="7.2673336316596"><ele>495.1666666666667</ele><time>2026-04-25T15:16:10Z</time></trkpt><trkpt lat="44.8216175429162" lon="7.267441969154913"><ele>495.0</ele><time>2026-04-25T15:16:11Z</time></trkpt><trkpt lat="44.82163398109702" lon="7.267551057901411"><ele>495.0</ele><time>2026-04-25T15:16:12Z</time></trkpt><trkpt lat="44.82164832497643" lon="7.267676196452604"><ele>495.0</ele><time>2026-04-25T15:16:13Z</time></trkpt><trkpt lat="44.821669180104315" lon="7.267805345176619"><ele>495.0</ele><time>2026-04-25T15:16:14Z</time></trkpt><trkpt lat="44.82168468123227" lon="7.2679456169018195"><ele>495.0</ele><time>2026-04-25T15:16:15Z</time></trkpt><trkpt lat="44.82162416614135" lon="7.2680905568924965"><ele>495.0</ele><time>2026-04-25T15:16:16Z</time></trkpt><trkpt lat="44.82159484902574" lon="7.2682514891722665"><ele>494.0</ele><time>2026-04-25T15:16:17Z</time></trkpt><trkpt lat="44.821569565407266" lon="7.268431666195663"><ele>493.0</ele><time>2026-04-25T15:16:18Z</time></trkpt><trkpt lat="44.8215432561832" lon="7.268591181477494"><ele>492.0</ele><time>2026-04-25T15:16:19Z</time></trkpt><trkpt lat="44.82152684532943" lon="7.268755645660867"><ele>491.0</ele><time>2026-04-25T15:16:20Z</time></trkpt><trkpt lat="44.821510858419636" lon="7.268906605635382"><ele>490.5</ele><time>2026-04-25T15:16:21Z</time></trkpt><trkpt lat="44.82151012326074" lon="7.269076605791434"><ele>490.0</ele><time>2026-04-25T15:16:22Z</time></trkpt><trkpt lat="44.82152230255606" lon="7.269263604524201"><ele>489.5</ele><time>2026-04-25T15:16:23Z</time></trkpt><trkpt lat="44.821498094402244" lon="7.269440529364711"><ele>489.0</ele><time>2026-04-25T15:16:24Z</time></trkpt><trkpt lat="44.821486088543246" lon="7.2696243610863585"><ele>489.0</ele><time>2026-04-25T15:16:25Z</time></trkpt><trkpt lat="44.8214689694772" lon="7.2698171257610245"><ele>489.0</ele><time>2026-04-25T15:16:26Z</time></trkpt><trkpt lat="44.82144878022234" lon="7.26998980741506"><ele>489.0</ele><time>2026-04-25T15:16:27Z</time></trkpt><trkpt lat="44.82142613922307" lon="7.2701822280257185"><ele>489.0</ele><time>2026-04-25T15:16:28Z</time></trkpt><trkpt lat="44.821404763150404" lon="7.270366821884482"><ele>489.0</ele><time>2026-04-25T15:16:29Z</time></trkpt><trkpt lat="44.821398238034284" lon="7.270539744641446"><ele>489.0</ele><time>2026-04-25T15:16:30Z</time></trkpt><trkpt lat="44.82140527543364" lon="7.270719414088968"><ele>489.0</ele><time>2026-04-25T15:16:31Z</time></trkpt><trkpt lat="44.821413753875404" lon="7.270876059065788"><ele>489.0</ele><time>2026-04-25T15:16:32Z</time></trkpt><trkpt lat="44.82143348309671" lon="7.270999929734052"><ele>487.0</ele><time>2026-04-25T15:16:33Z</time></trkpt><trkpt lat="44.82148504163909" lon="7.271116566886794"><ele>485.0</ele><time>2026-04-25T15:16:34Z</time></trkpt><trkpt lat="44.821521755964646" lon="7.271294248143639"><ele>483.0</ele><time>2026-04-25T15:16:35Z</time></trkpt><trkpt lat="44.821541845714464" lon="7.271457507611114"><ele>481.0</ele><time>2026-04-25T15:16:36Z</time></trkpt><trkpt lat="44.8215441063298" lon="7.271593806021968"><ele>479.0</ele><time>2026-04-25T15:16:37Z</time></trkpt><trkpt lat="44.82152289847312" lon="7.2716906707254845"><ele>478.4</ele><time>2026-04-25T15:16:38Z</time></trkpt><trkpt lat="44.82148874090386" lon="7.271771380696597"><ele>477.79999999999995</ele><time>2026-04-25T15:16:39Z</time></trkpt><trkpt lat="44.82139691079256" lon="7.271803168509663"><ele>477.20000000000005</ele><time>2026-04-25T15:16:40Z</time></trkpt><trkpt lat="44.82129801858586" lon="7.271895313047657"><ele>476.6</ele><time>2026-04-25T15:16:41Z</time></trkpt><trkpt lat="44.821172820201255" lon="7.271999587751978"><ele>476.0</ele><time>2026-04-25T15:16:42Z</time></trkpt><trkpt lat="44.8210723452237" lon="7.272097019052689"><ele>476.0</ele><time>2026-04-25T15:16:43Z</time></trkpt><trkpt lat="44.82098786512617" lon="7.272176434211629"><ele>476.0</ele><time>2026-04-25T15:16:44Z</time></trkpt><trkpt lat="44.82089378916584" lon="7.27223955207"><ele>476.0</ele><time>2026-04-25T15:16:45Z</time></trkpt><trkpt lat="44.82082142674282" lon="7.272308315862064"><ele>476.0</ele><time>2026-04-25T15:16:46Z</time></trkpt><trkpt lat="44.82075060468911" lon="7.272380066562914"><ele>476.0</ele><time>2026-04-25T15:16:47Z</time></trkpt><trkpt lat="44.8206902116035" lon="7.272439847618072"><ele>475.25</ele><time>2026-04-25T15:16:48Z</time></trkpt><trkpt lat="44.82064148266406" lon="7.272567683538945"><ele>474.5</ele><time>2026-04-25T15:16:49Z</time></trkpt><trkpt lat="44.820629244537415" lon="7.272743239250645"><ele>473.75</ele><time>2026-04-25T15:16:50Z</time></trkpt><trkpt lat="44.82064219095119" lon="7.272914377696189"><ele>473.0</ele><time>2026-04-25T15:16:51Z</time></trkpt><trkpt lat="44.82066315270248" lon="7.273079233266189"><ele>473.25</ele><time>2026-04-25T15:16:52Z</time></trkpt><trkpt lat="44.82069720791399" lon="7.273229075027347"><ele>473.5</ele><time>2026-04-25T15:16:53Z</time></trkpt><trkpt lat="44.82069985441557" lon="7.273397126624007"><ele>473.75</ele><time>2026-04-25T15:16:54Z</time></trkpt><trkpt lat="44.82071215930836" lon="7.2735809380097525"><ele>474.0</ele><time>2026-04-25T15:16:55Z</time></trkpt><trkpt lat="44.82072122376922" lon="7.273743403559585"><ele>474.0</ele><time>2026-04-25T15:16:55.999Z</time></trkpt><trkpt lat="44.8207346580297" lon="7.273916188457585"><ele>474.0</ele><time>2026-04-25T15:16:56.999Z</time></trkpt><trkpt lat="44.820746413695716" lon="7.274088345618554"><ele>474.0</ele><time>2026-04-25T15:16:57.999Z</time></trkpt><trkpt lat="44.82073860392233" lon="7.274256319398357"><ele>474.0</ele><time>2026-04-25T15:16:58.999Z</time></trkpt><trkpt lat="44.82073797965044" lon="7.274415836994682"><ele>472.75</ele><time>2026-04-25T15:16:59.999Z</time></trkpt><trkpt lat="44.8207373709588" lon="7.274571373183489"><ele>471.5</ele><time>2026-04-25T15:17:00.999Z</time></trkpt><trkpt lat="44.82073724993413" lon="7.2747381952557335"><ele>470.25</ele><time>2026-04-25T15:17:01.999Z</time></trkpt><trkpt lat="44.82074012331785" lon="7.274902936646807"><ele>469.0</ele><time>2026-04-25T15:17:02.999Z</time></trkpt><trkpt lat="44.8207489197942" lon="7.275079113897829"><ele>468.25</ele><time>2026-04-25T15:17:03.999Z</time></trkpt><trkpt lat="44.82077613331085" lon="7.275249756466229"><ele>467.5</ele><time>2026-04-25T15:17:04.999Z</time></trkpt><trkpt lat="44.82077132684696" lon="7.2754124945822545"><ele>466.75</ele><time>2026-04-25T15:17:05.999Z</time></trkpt><trkpt lat="44.82078189243743" lon="7.275570341913426"><ele>466.0</ele><time>2026-04-25T15:17:06.999Z</time></trkpt><trkpt lat="44.820790857510104" lon="7.275707823455612"><ele>465.00000000000006</ele><time>2026-04-25T15:17:07.999Z</time></trkpt><trkpt lat="44.82079996841563" lon="7.275824134508028"><ele>464.0</ele><time>2026-04-25T15:17:08.999Z</time></trkpt><trkpt lat="44.82080535371641" lon="7.275915278587651"><ele>463.0</ele><time>2026-04-25T15:17:09.999Z</time></trkpt><trkpt lat="44.82077567692047" lon="7.276007679229737"><ele>462.0</ele><time>2026-04-25T15:17:10.999Z</time></trkpt><trkpt lat="44.820721363242704" lon="7.27615528538567"><ele>461.00000000000006</ele><time>2026-04-25T15:17:11.999Z</time></trkpt><trkpt lat="44.82066033209933" lon="7.2762622575253815"><ele>460.0</ele><time>2026-04-25T15:17:12.999Z</time></trkpt><trkpt lat="44.82067281497877" lon="7.276406356806062"><ele>459.0</ele><time>2026-04-25T15:17:13.999Z</time></trkpt><trkpt lat="44.8207413545937" lon="7.276589947566377"><ele>458.0</ele><time>2026-04-25T15:17:14.999Z</time></trkpt><trkpt lat="44.82079021617399" lon="7.276772012208319"><ele>457.0</ele><time>2026-04-25T15:17:15.999Z</time></trkpt><trkpt lat="44.820830179295996" lon="7.276947258459935"><ele>456.0</ele><time>2026-04-25T15:17:16.999Z</time></trkpt><trkpt lat="44.820852969473336" lon="7.277098333825433"><ele>456.0</ele><time>2026-04-25T15:17:17.999Z</time></trkpt><trkpt lat="44.820912494984434" lon="7.277236415543324"><ele>456.0</ele><time>2026-04-25T15:17:18.999Z</time></trkpt><trkpt lat="44.821033727749175" lon="7.277358416518847"><ele>456.0</ele><time>2026-04-25T15:17:19.999Z</time></trkpt><trkpt lat="44.8211607684149" lon="7.277509031710971"><ele>456.0</ele><time>2026-04-25T15:17:20.999Z</time></trkpt><trkpt lat="44.82124714341137" lon="7.277656561632751"><ele>454.25</ele><time>2026-04-25T15:17:21.999Z</time></trkpt><trkpt lat="44.82130373102354" lon="7.277823392007727"><ele>452.5</ele><time>2026-04-25T15:17:22.999Z</time></trkpt><trkpt lat="44.821344971061954" lon="7.278006886549776"><ele>450.75</ele><time>2026-04-25T15:17:23.999Z</time></trkpt><trkpt lat="44.82141606339141" lon="7.278149121442844"><ele>449.0</ele><time>2026-04-25T15:17:24.999Z</time></trkpt><trkpt lat="44.821526881978826" lon="7.278254793104394"><ele>448.75</ele><time>2026-04-25T15:17:25.999Z</time></trkpt><trkpt lat="44.82168383464229" lon="7.278338393410416"><ele>448.5</ele><time>2026-04-25T15:17:26.999Z</time></trkpt><trkpt lat="44.821808368938235" lon="7.278432186309814"><ele>448.25</ele><time>2026-04-25T15:17:27.999Z</time></trkpt><trkpt lat="44.821926130772184" lon="7.278527749012254"><ele>448.0</ele><time>2026-04-25T15:17:28.999Z</time></trkpt><trkpt lat="44.82202379051998" lon="7.278627810672976"><ele>447.0</ele><time>2026-04-25T15:17:29.999Z</time></trkpt><trkpt lat="44.82213774127771" lon="7.27871090322354"><ele>445.99999999999994</ele><time>2026-04-25T15:17:30.999Z</time></trkpt><trkpt lat="44.82223504009075" lon="7.278785492796673"><ele>444.99999999999994</ele><time>2026-04-25T15:17:31.999Z</time></trkpt><trkpt lat="44.82230922387712" lon="7.278844272714146"><ele>444.0</ele><time>2026-04-25T15:17:32.999Z</time></trkpt><trkpt lat="44.82237908754957" lon="7.278938772897999"><ele>443.0</ele><time>2026-04-25T15:17:34.999Z</time></trkpt><trkpt lat="44.82255174334193" lon="7.278799642252535"><ele>442.99999999999994</ele><time>2026-04-25T15:17:37.999Z</time></trkpt><trkpt lat="44.8226415878848" lon="7.278691137905991"><ele>443.0</ele><time>2026-04-25T15:17:39.999Z</time></trkpt><trkpt lat="44.82271464652008" lon="7.278642546996002"><ele>443.0</ele><time>2026-04-25T15:17:43.999Z</time></trkpt><trkpt lat="44.82275214924422" lon="7.278569488175683"><ele>443.0</ele><time>2026-04-25T15:17:47.998Z</time></trkpt><trkpt lat="44.82280039173888" lon="7.27846947290345"><ele>442.99999999999994</ele><time>2026-04-25T15:17:52.998Z</time></trkpt><trkpt lat="44.822761688867516" lon="7.2783397538413865"><ele>443.0</ele><time>2026-04-25T15:17:54.998Z</time></trkpt><trkpt lat="44.822774779572" lon="7.278207784101462"><ele>442.25</ele><time>2026-04-25T15:17:56.998Z</time></trkpt><trkpt lat="44.82279018986352" lon="7.278066772508393"><ele>441.5</ele><time>2026-04-25T15:17:58.998Z</time></trkpt><trkpt lat="44.8227908462941" lon="7.277941111461455"><ele>440.75</ele><time>2026-04-25T15:17:59.998Z</time></trkpt><trkpt lat="44.82277338413913" lon="7.277826031501105"><ele>440.0</ele><time>2026-04-25T15:18:02.998Z</time></trkpt><trkpt lat="44.823213570850925" lon="7.27703004549662"><ele>442.3333333333333</ele><time>2026-04-25T15:18:07.998Z</time></trkpt><trkpt lat="44.82328253168328" lon="7.276855300190397"><ele>444.66666666666663</ele><time>2026-04-25T15:18:08.998Z</time></trkpt><trkpt lat="44.82336348183825" lon="7.276695918380598"><ele>447.0</ele><time>2026-04-25T15:18:09.998Z</time></trkpt><trkpt lat="44.823479404054595" lon="7.276490229175095"><ele>444.33333333333337</ele><time>2026-04-25T15:18:10.998Z</time></trkpt><trkpt lat="44.8236093618746" lon="7.276256741237596"><ele>441.6666666666667</ele><time>2026-04-25T15:18:11.998Z</time></trkpt><trkpt lat="44.82370178925466" lon="7.27608127754429"><ele>439.0</ele><time>2026-04-25T15:18:12.998Z</time></trkpt><trkpt lat="44.82379711510627" lon="7.275913761821583"><ele>439.0</ele><time>2026-04-25T15:18:13.998Z</time></trkpt><trkpt lat="44.82386115128452" lon="7.275780130300908"><ele>439.0</ele><time>2026-04-25T15:18:15Z</time></trkpt><trkpt lat="44.82390082962795" lon="7.275642633913071"><ele>439.0</ele><time>2026-04-25T15:18:16Z</time></trkpt><trkpt lat="44.82392981109326" lon="7.275512922783023"><ele>439.0</ele><time>2026-04-25T15:18:17Z</time></trkpt><trkpt lat="44.82395330495025" lon="7.275375339954916"><ele>439.0</ele><time>2026-04-25T15:18:18Z</time></trkpt><trkpt lat="44.82398228920752" lon="7.275269864794082"><ele>440.00000000000006</ele><time>2026-04-25T15:18:19Z</time></trkpt><trkpt lat="44.82403808136059" lon="7.2752222198039"><ele>441.0</ele><time>2026-04-25T15:18:23Z</time></trkpt><trkpt lat="44.82413179070467" lon="7.275205318750671"><ele>442.0</ele><time>2026-04-25T15:18:27Z</time></trkpt><trkpt lat="44.824176420783495" lon="7.275110622655388"><ele>443.0</ele><time>2026-04-25T15:18:30Z</time></trkpt><trkpt lat="44.82424879809477" lon="7.2750416035007355"><ele>444.00000000000006</ele><time>2026-04-25T15:18:33Z</time></trkpt><trkpt lat="44.824304000661336" lon="7.27495667097004"><ele>445.0</ele><time>2026-04-25T15:18:35Z</time></trkpt><trkpt lat="44.82435612535699" lon="7.274859978471063"><ele>446.5</ele><time>2026-04-25T15:18:36Z</time></trkpt><trkpt lat="44.82443569250762" lon="7.274758739744574"><ele>448.0</ele><time>2026-04-25T15:18:37Z</time></trkpt><trkpt lat="44.824537077341226" lon="7.274639599374378"><ele>449.5</ele><time>2026-04-25T15:18:38Z</time></trkpt><trkpt lat="44.82465931117515" lon="7.27448660621926"><ele>451.0</ele><time>2026-04-25T15:18:39Z</time></trkpt><trkpt lat="44.8247807659797" lon="7.274346751488877"><ele>451.0</ele><time>2026-04-25T15:18:40Z</time></trkpt><trkpt lat="44.8248988261381" lon="7.274196714544977"><ele>451.0</ele><time>2026-04-25T15:18:41Z</time></trkpt><trkpt lat="44.825026191008995" lon="7.2741002599463"><ele>451.0</ele><time>2026-04-25T15:18:42Z</time></trkpt><trkpt lat="44.825093182774545" lon="7.273970072153255"><ele>451.0</ele><time>2026-04-25T15:18:43Z</time></trkpt><trkpt lat="44.825141604037306" lon="7.273790467077142"><ele>460.25</ele><time>2026-04-25T15:18:44Z</time></trkpt><trkpt lat="44.82517667258548" lon="7.27359353616418"><ele>469.5</ele><time>2026-04-25T15:18:45Z</time></trkpt><trkpt lat="44.82519428955184" lon="7.273406677155424"><ele>478.75</ele><time>2026-04-25T15:18:46Z</time></trkpt><trkpt lat="44.82522997920249" lon="7.27321716321454"><ele>488.0</ele><time>2026-04-25T15:18:47Z</time></trkpt><trkpt lat="44.8252534044057" lon="7.273021014467403"><ele>489.66666666666663</ele><time>2026-04-25T15:18:48Z</time></trkpt><trkpt lat="44.82525861068079" lon="7.2727778430620695"><ele>491.33333333333337</ele><time>2026-04-25T15:18:49Z</time></trkpt><trkpt lat="44.82525586036298" lon="7.2725319366179715"><ele>493.0</ele><time>2026-04-25T15:18:50Z</time></trkpt><trkpt lat="44.82523963621349" lon="7.272348429594648"><ele>493.2</ele><time>2026-04-25T15:18:51Z</time></trkpt><trkpt lat="44.825219369541934" lon="7.272163013189194"><ele>493.4</ele><time>2026-04-25T15:18:52Z</time></trkpt><trkpt lat="44.82518231188862" lon="7.272002345229387"><ele>493.59999999999997</ele><time>2026-04-25T15:18:53Z</time></trkpt><trkpt lat="44.825178857251906" lon="7.271887169767409"><ele>493.79999999999995</ele><time>2026-04-25T15:18:54Z</time></trkpt><trkpt lat="44.82520769984894" lon="7.271807793766539"><ele>494.0</ele><time>2026-04-25T15:18:55Z</time></trkpt><trkpt lat="44.825260891086735" lon="7.271686235594225"><ele>494.0</ele><time>2026-04-25T15:18:56Z</time></trkpt><trkpt lat="44.82533248579337" lon="7.271568077919559"><ele>494.0</ele><time>2026-04-25T15:18:57Z</time></trkpt><trkpt lat="44.825379281316316" lon="7.2714272202343535"><ele>494.0</ele><time>2026-04-25T15:18:58Z</time></trkpt><trkpt lat="44.82540557495262" lon="7.271238931508064"><ele>494.0</ele><time>2026-04-25T15:18:59Z</time></trkpt><trkpt lat="44.82545932044465" lon="7.271013934915406"><ele>492.6</ele><time>2026-04-25T15:18:59.999Z</time></trkpt><trkpt lat="44.82551548947968" lon="7.2708298989740126"><ele>491.2</ele><time>2026-04-25T15:19:00.999Z</time></trkpt><trkpt lat="44.8255522633626" lon="7.270696886178569"><ele>489.80000000000007</ele><time>2026-04-25T15:19:01.999Z</time></trkpt><trkpt lat="44.82560238059506" lon="7.270612089969771"><ele>488.40000000000003</ele><time>2026-04-25T15:19:02.999Z</time></trkpt><trkpt lat="44.82567680053638" lon="7.270517353803395"><ele>487.0</ele><time>2026-04-25T15:19:03.999Z</time></trkpt><trkpt lat="44.82577876355324" lon="7.270401971201162"><ele>484.0</ele><time>2026-04-25T15:19:04.999Z</time></trkpt><trkpt lat="44.825856923744354" lon="7.270187694735002"><ele>481.0</ele><time>2026-04-25T15:19:05.999Z</time></trkpt><trkpt lat="44.82591140840005" lon="7.269955903499149"><ele>478.0</ele><time>2026-04-25T15:19:06.999Z</time></trkpt><trkpt lat="44.82595471662317" lon="7.269818956360785"><ele>484.59999999999997</ele><time>2026-04-25T15:19:07.999Z</time></trkpt><trkpt lat="44.82599751267711" lon="7.269738991900995"><ele>491.19999999999993</ele><time>2026-04-25T15:19:08.999Z</time></trkpt><trkpt lat="44.8260834469146" lon="7.269680304489985"><ele>497.8</ele><time>2026-04-25T15:19:09.999Z</time></trkpt><trkpt lat="44.82613072290836" lon="7.269581825752333"><ele>504.4</ele><time>2026-04-25T15:19:10.999Z</time></trkpt><trkpt lat="44.826187549073545" lon="7.269449948913223"><ele>511.0</ele><time>2026-04-25T15:19:11.999Z</time></trkpt><trkpt lat="44.8262379499234" lon="7.269298807807206"><ele>511.0</ele><time>2026-04-25T15:19:12.999Z</time></trkpt><trkpt lat="44.826261044911384" lon="7.2691165725481435"><ele>511.0</ele><time>2026-04-25T15:19:13.999Z</time></trkpt><trkpt lat="44.82626450494253" lon="7.2689202221751765"><ele>511.0</ele><time>2026-04-25T15:19:14.999Z</time></trkpt><trkpt lat="44.826272259130995" lon="7.268746457287906"><ele>511.0</ele><time>2026-04-25T15:19:15.999Z</time></trkpt><trkpt lat="44.8262548279564" lon="7.268648767359461"><ele>509.75</ele><time>2026-04-25T15:19:16.999Z</time></trkpt><trkpt lat="44.826187272267425" lon="7.268582539202903"><ele>508.5</ele><time>2026-04-25T15:19:17.999Z</time></trkpt><trkpt lat="44.826070952553685" lon="7.268482481661695"><ele>507.25</ele><time>2026-04-25T15:19:18.999Z</time></trkpt><trkpt lat="44.82598406078618" lon="7.268325824906312"><ele>506.0</ele><time>2026-04-25T15:19:19.999Z</time></trkpt><trkpt lat="44.82598982781969" lon="7.268172052775086"><ele>504.8</ele><time>2026-04-25T15:19:20.999Z</time></trkpt><trkpt lat="44.82597012492458" lon="7.2680519491450335"><ele>503.6</ele><time>2026-04-25T15:19:21.999Z</time></trkpt><trkpt lat="44.82599472917867" lon="7.267945333618482"><ele>502.4</ele><time>2026-04-25T15:19:22.999Z</time></trkpt><trkpt lat="44.82601404475611" lon="7.26784692606284"><ele>501.2</ele><time>2026-04-25T15:19:23.999Z</time></trkpt><trkpt lat="44.82612829198662" lon="7.267721467754378"><ele>500.0</ele><time>2026-04-25T15:19:25.999Z</time></trkpt><trkpt lat="44.826222149970654" lon="7.267672640745813"><ele>500.0</ele><time>2026-04-25T15:19:26.999Z</time></trkpt><trkpt lat="44.82631143508664" lon="7.267627789640028"><ele>500.0</ele><time>2026-04-25T15:19:27.999Z</time></trkpt><trkpt lat="44.82639660151529" lon="7.2675197807859035"><ele>500.0</ele><time>2026-04-25T15:19:28.999Z</time></trkpt><trkpt lat="44.82646989513938" lon="7.267335488770488"><ele>500.0</ele><time>2026-04-25T15:19:29.999Z</time></trkpt><trkpt lat="44.82651991098759" lon="7.267167735377704"><ele>497.0</ele><time>2026-04-25T15:19:30.999Z</time></trkpt><trkpt lat="44.82657699528026" lon="7.267006665312572"><ele>494.0</ele><time>2026-04-25T15:19:31.999Z</time></trkpt><trkpt lat="44.82662864660203" lon="7.266867786806749"><ele>491.0</ele><time>2026-04-25T15:19:32.999Z</time></trkpt><trkpt lat="44.82669574558745" lon="7.266765047855054"><ele>488.0</ele><time>2026-04-25T15:19:33.999Z</time></trkpt><trkpt lat="44.82676377613858" lon="7.266674156834969"><ele>485.0</ele><time>2026-04-25T15:19:34.999Z</time></trkpt><trkpt lat="44.82681025451375" lon="7.266561511753144"><ele>485.16666666666663</ele><time>2026-04-25T15:19:35.999Z</time></trkpt><trkpt lat="44.82685794756659" lon="7.2664364666048815"><ele>485.3333333333333</ele><time>2026-04-25T15:19:37.999Z</time></trkpt><trkpt lat="44.82691837361393" lon="7.266388425879443"><ele>485.5</ele><time>2026-04-25T15:19:40.999Z</time></trkpt><trkpt lat="44.82701607475933" lon="7.266329124035105"><ele>485.66666666666663</ele><time>2026-04-25T15:19:48.998Z</time></trkpt><trkpt lat="44.82707592809093" lon="7.2662934041234895"><ele>485.8333333333333</ele><time>2026-04-25T15:19:49.998Z</time></trkpt><trkpt lat="44.82715184543219" lon="7.266273968963057"><ele>486.0</ele><time>2026-04-25T15:19:50.998Z</time></trkpt><trkpt lat="44.827232641366024" lon="7.266243382081284"><ele>486.0</ele><time>2026-04-25T15:19:51.998Z</time></trkpt><trkpt lat="44.827327600327706" lon="7.266207257537032"><ele>486.0</ele><time>2026-04-25T15:19:52.998Z</time></trkpt><trkpt lat="44.82742836225701" lon="7.266176480363775"><ele>486.0</ele><time>2026-04-25T15:19:53.998Z</time></trkpt><trkpt lat="44.82754290754802" lon="7.266167105682344"><ele>486.0</ele><time>2026-04-25T15:19:54.998Z</time></trkpt><trkpt lat="44.827638804495535" lon="7.266166990563325"><ele>486.0</ele><time>2026-04-25T15:19:55.998Z</time></trkpt><trkpt lat="44.82770380941575" lon="7.266170216380082"><ele>487.4</ele><time>2026-04-25T15:19:56.998Z</time></trkpt><trkpt lat="44.82776944923209" lon="7.266178730813573"><ele>488.8</ele><time>2026-04-25T15:19:57.998Z</time></trkpt><trkpt lat="44.82784273612715" lon="7.266191261173744"><ele>490.19999999999993</ele><time>2026-04-25T15:19:58.998Z</time></trkpt><trkpt lat="44.82792930593094" lon="7.26621141980961"><ele>491.59999999999997</ele><time>2026-04-25T15:19:59.998Z</time></trkpt><trkpt lat="44.82803198555949" lon="7.266234331513306"><ele>493.0</ele><time>2026-04-25T15:20:00.998Z</time></trkpt><trkpt lat="44.82814666876002" lon="7.266280938465088"><ele>493.0</ele><time>2026-04-25T15:20:01.998Z</time></trkpt><trkpt lat="44.82832841371984" lon="7.266053148464393"><ele>493.0</ele><time>2026-04-25T15:20:02.998Z</time></trkpt><trkpt lat="44.82845077611073" lon="7.265950775711114"><ele>493.0</ele><time>2026-04-25T15:20:03.998Z</time></trkpt><trkpt lat="44.82855069267589" lon="7.265833907842083"><ele>492.6666666666667</ele><time>2026-04-25T15:20:04.998Z</time></trkpt><trkpt lat="44.82864364236091" lon="7.265664399731344"><ele>492.33333333333337</ele><time>2026-04-25T15:20:05.998Z</time></trkpt><trkpt lat="44.82875353463046" lon="7.265431071650587"><ele>492.0</ele><time>2026-04-25T15:20:06.998Z</time></trkpt><trkpt lat="44.828855889561645" lon="7.265264718008952"><ele>492.0</ele><time>2026-04-25T15:20:07.998Z</time></trkpt><trkpt lat="44.82896497311659" lon="7.265198902421744"><ele>492.0</ele><time>2026-04-25T15:20:08.998Z</time></trkpt><trkpt lat="44.829063437799164" lon="7.265294631311506"><ele>492.0</ele><time>2026-04-25T15:20:10.998Z</time></trkpt><trkpt lat="44.82914233327507" lon="7.265371183001615"><ele>492.0</ele><time>2026-04-25T15:20:11.998Z</time></trkpt><trkpt lat="44.82929917287771" lon="7.265427690128589"><ele>493.75</ele><time>2026-04-25T15:20:12.998Z</time></trkpt><trkpt lat="44.82946983937357" lon="7.2654115583192915"><ele>495.5</ele><time>2026-04-25T15:20:13.998Z</time></trkpt><trkpt lat="44.82962302189449" lon="7.265404175666905"><ele>497.25</ele><time>2026-04-25T15:20:14.998Z</time></trkpt><trkpt lat="44.82974684153046" lon="7.265416093464752"><ele>499.0</ele><time>2026-04-25T15:20:15.998Z</time></trkpt><trkpt lat="44.829851065084746" lon="7.265426103476482"><ele>499.0</ele><time>2026-04-25T15:20:16.998Z</time></trkpt><trkpt lat="44.829969690418245" lon="7.265400300891518"><ele>499.0</ele><time>2026-04-25T15:20:17.998Z</time></trkpt><trkpt lat="44.83006770782632" lon="7.265333390424734"><ele>499.0</ele><time>2026-04-25T15:20:18.998Z</time></trkpt><trkpt lat="44.83015317126728" lon="7.265249754983781"><ele>499.0</ele><time>2026-04-25T15:20:19.998Z</time></trkpt><trkpt lat="44.83022812948001" lon="7.265133289650214"><ele>499.0</ele><time>2026-04-25T15:20:21Z</time></trkpt><trkpt lat="44.83029506048854" lon="7.264988079113524"><ele>503.0</ele><time>2026-04-25T15:20:22Z</time></trkpt><trkpt lat="44.83037047439872" lon="7.26481963444986"><ele>507.0</ele><time>2026-04-25T15:20:23Z</time></trkpt><trkpt lat="44.8304861075974" lon="7.264670148500771"><ele>511.0</ele><time>2026-04-25T15:20:24Z</time></trkpt><trkpt lat="44.830530693905764" lon="7.264551596421465"><ele>515.0</ele><time>2026-04-25T15:20:25Z</time></trkpt><trkpt lat="44.83065566203528" lon="7.264503652714899"><ele>515.0</ele><time>2026-04-25T15:20:29Z</time></trkpt><trkpt lat="44.830720795362076" lon="7.264453643211344"><ele>515.0</ele><time>2026-04-25T15:20:32Z</time></trkpt><trkpt lat="44.830780791901404" lon="7.264402425752747"><ele>515.0</ele><time>2026-04-25T15:20:34Z</time></trkpt><trkpt lat="44.83083989903627" lon="7.26435364790988"><ele>515.0</ele><time>2026-04-25T15:20:37Z</time></trkpt><trkpt lat="44.830914122725765" lon="7.264250273124394"><ele>515.0</ele><time>2026-04-25T15:20:40Z</time></trkpt><trkpt lat="44.8309663614149" lon="7.26420030664929"><ele>515.0</ele><time>2026-04-25T15:20:41Z</time></trkpt><trkpt lat="44.83103174287746" lon="7.26415902398433"><ele>516.0</ele><time>2026-04-25T15:20:42Z</time></trkpt><trkpt lat="44.831109222203814" lon="7.264134639103916"><ele>517.0</ele><time>2026-04-25T15:20:43Z</time></trkpt><trkpt lat="44.83120443042795" lon="7.264146931950525"><ele>518.0</ele><time>2026-04-25T15:20:44Z</time></trkpt><trkpt lat="44.831310071922836" lon="7.264142616517883"><ele>519.0</ele><time>2026-04-25T15:20:45Z</time></trkpt><trkpt lat="44.8314153659276" lon="7.264084930504209"><ele>520.0</ele><time>2026-04-25T15:20:46Z</time></trkpt><trkpt lat="44.831516102655804" lon="7.2639690007459805"><ele>520.0</ele><time>2026-04-25T15:20:47Z</time></trkpt><trkpt lat="44.83160777583433" lon="7.2639053594354746"><ele>520.0</ele><time>2026-04-25T15:20:48Z</time></trkpt><trkpt lat="44.831680276604544" lon="7.263903978840875"><ele>520.0</ele><time>2026-04-25T15:20:49Z</time></trkpt><trkpt lat="44.83174375339873" lon="7.2639637532864585"><ele>520.0</ele><time>2026-04-25T15:20:50Z</time></trkpt><trkpt lat="44.83183517205064" lon="7.264034861124372"><ele>520.0</ele><time>2026-04-25T15:20:51Z</time></trkpt><trkpt lat="44.831987105568956" lon="7.264047788421911"><ele>521.0</ele><time>2026-04-25T15:20:52Z</time></trkpt><trkpt lat="44.83212186342864" lon="7.263984924473706"><ele>522.0</ele><time>2026-04-25T15:20:53Z</time></trkpt><trkpt lat="44.832209630269105" lon="7.2639047323962"><ele>523.0</ele><time>2026-04-25T15:20:54Z</time></trkpt><trkpt lat="44.83229518737701" lon="7.263801663833772"><ele>524.0</ele><time>2026-04-25T15:20:55Z</time></trkpt><trkpt lat="44.83237956099029" lon="7.263689878823681"><ele>524.0</ele><time>2026-04-25T15:20:56Z</time></trkpt><trkpt lat="44.83247648448685" lon="7.263513385247193"><ele>524.0</ele><time>2026-04-25T15:20:57Z</time></trkpt><trkpt lat="44.83256120122069" lon="7.263348338743261"><ele>524.0</ele><time>2026-04-25T15:20:58Z</time></trkpt><trkpt lat="44.83261538832007" lon="7.263200297415105"><ele>524.0</ele><time>2026-04-25T15:20:59Z</time></trkpt><trkpt lat="44.83270309486954" lon="7.263127101845109"><ele>524.2</ele><time>2026-04-25T15:21:00Z</time></trkpt><trkpt lat="44.83276471213763" lon="7.263063408695169"><ele>524.4</ele><time>2026-04-25T15:21:00.999Z</time></trkpt><trkpt lat="44.8328537486764" lon="7.263017202046814"><ele>524.6</ele><time>2026-04-25T15:21:01.999Z</time></trkpt><trkpt lat="44.832963842441906" lon="7.26293475582748"><ele>524.8</ele><time>2026-04-25T15:21:02.999Z</time></trkpt><trkpt lat="44.83308032202389" lon="7.262821005642869"><ele>525.0</ele><time>2026-04-25T15:21:03.999Z</time></trkpt><trkpt lat="44.83320637467738" lon="7.262692351088991"><ele>525.0</ele><time>2026-04-25T15:21:04.999Z</time></trkpt><trkpt lat="44.83331948981494" lon="7.262556909349228"><ele>525.0</ele><time>2026-04-25T15:21:05.999Z</time></trkpt><trkpt lat="44.83339932011946" lon="7.262434287696743"><ele>525.0</ele><time>2026-04-25T15:21:06.999Z</time></trkpt><trkpt lat="44.8334581110814" lon="7.262367272993184"><ele>525.0</ele><time>2026-04-25T15:21:07.999Z</time></trkpt><trkpt lat="44.83351361990023" lon="7.262253580901501"><ele>525.0</ele><time>2026-04-25T15:21:08.999Z</time></trkpt><trkpt lat="44.83356684274891" lon="7.26209786281906"><ele>526.25</ele><time>2026-04-25T15:21:09.999Z</time></trkpt><trkpt lat="44.83362776536918" lon="7.2619629007244"><ele>527.5</ele><time>2026-04-25T15:21:10.999Z</time></trkpt><trkpt lat="44.83370095767775" lon="7.261817185247683"><ele>528.75</ele><time>2026-04-25T15:21:11.999Z</time></trkpt><trkpt lat="44.8337951272612" lon="7.2616789118332665"><ele>530.0</ele><time>2026-04-25T15:21:12.999Z</time></trkpt><trkpt lat="44.833860693289516" lon="7.261598033283006"><ele>530.0</ele><time>2026-04-25T15:21:13.999Z</time></trkpt><trkpt lat="44.83396187048077" lon="7.261555393419938"><ele>530.0</ele><time>2026-04-25T15:21:14.999Z</time></trkpt><trkpt lat="44.83406467082059" lon="7.261544170987081"><ele>530.0</ele><time>2026-04-25T15:21:15.999Z</time></trkpt><trkpt lat="44.83418132804476" lon="7.261605863541016"><ele>530.0</ele><time>2026-04-25T15:21:16.999Z</time></trkpt><trkpt lat="44.83433166038797" lon="7.261623173866905"><ele>533.5</ele><time>2026-04-25T15:21:17.999Z</time></trkpt><trkpt lat="44.83453959689122" lon="7.2616387886462705"><ele>537.0</ele><time>2026-04-25T15:21:18.999Z</time></trkpt><trkpt lat="44.834915148487795" lon="7.261589099600811"><ele>537.0</ele><time>2026-04-25T15:21:20.999Z</time></trkpt><trkpt lat="44.83505226626101" lon="7.261610231740936"><ele>537.0</ele><time>2026-04-25T15:21:21.999Z</time></trkpt><trkpt lat="44.835168730785085" lon="7.261642758967894"><ele>537.0</ele><time>2026-04-25T15:21:22.999Z</time></trkpt><trkpt lat="44.835287763439524" lon="7.261647398471711"><ele>537.0</ele><time>2026-04-25T15:21:23.999Z</time></trkpt><trkpt lat="44.8354061389794" lon="7.261621624161948"><ele>539.8000000000001</ele><time>2026-04-25T15:21:24.999Z</time></trkpt><trkpt lat="44.83553310720776" lon="7.261585875202402"><ele>542.6</ele><time>2026-04-25T15:21:25.999Z</time></trkpt><trkpt lat="44.83563312517446" lon="7.261566036924197"><ele>545.4000000000001</ele><time>2026-04-25T15:21:26.999Z</time></trkpt><trkpt lat="44.83567861579089" lon="7.26146544179837"><ele>548.2</ele><time>2026-04-25T15:21:27.999Z</time></trkpt><trkpt lat="44.835736569362076" lon="7.261303064566818"><ele>551.0</ele><time>2026-04-25T15:21:28.999Z</time></trkpt><trkpt lat="44.83564821594991" lon="7.261193897654893"><ele>551.0</ele><time>2026-04-25T15:21:30.999Z</time></trkpt><trkpt lat="44.83554741520562" lon="7.261162915577982"><ele>551.0</ele><time>2026-04-25T15:21:31.999Z</time></trkpt><trkpt lat="44.835486526113165" lon="7.26110958309649"><ele>551.0</ele><time>2026-04-25T15:21:32.999Z</time></trkpt><trkpt lat="44.8355222411492" lon="7.261027581690425"><ele>551.0</ele><time>2026-04-25T15:21:34.999Z</time></trkpt><trkpt lat="44.83558083536605" lon="7.260968037126142"><ele>551.0</ele><time>2026-04-25T15:21:56.998Z</time></trkpt><trkpt lat="44.83563304756907" lon="7.260880934595785"><ele>551.0</ele><time>2026-04-25T15:21:58.998Z</time></trkpt><trkpt lat="44.83567699918525" lon="7.260805214311032"><ele>551.0</ele><time>2026-04-25T15:21:59.998Z</time></trkpt><trkpt lat="44.83573237754768" lon="7.260707771723543"><ele>551.0</ele><time>2026-04-25T15:22:00.998Z</time></trkpt><trkpt lat="44.83580078144958" lon="7.260627271808282"><ele>551.0</ele><time>2026-04-25T15:22:01.998Z</time></trkpt><trkpt lat="44.8358843287081" lon="7.26058432536732"><ele>551.0</ele><time>2026-04-25T15:22:02.998Z</time></trkpt><trkpt lat="44.83600599867461" lon="7.260531002725594"><ele>551.0</ele><time>2026-04-25T15:22:03.998Z</time></trkpt><trkpt lat="44.83612842577861" lon="7.260455773118171"><ele>552.0</ele><time>2026-04-25T15:22:04.998Z</time></trkpt><trkpt lat="44.83623548742025" lon="7.260416282579175"><ele>553.0</ele><time>2026-04-25T15:22:05.998Z</time></trkpt><trkpt lat="44.83633311308741" lon="7.260389760571875"><ele>554.0</ele><time>2026-04-25T15:22:06.998Z</time></trkpt><trkpt lat="44.83645776543617" lon="7.260374703000791"><ele>555.0</ele><time>2026-04-25T15:22:07.998Z</time></trkpt><trkpt lat="44.836558781266135" lon="7.260323866351005"><ele>556.0</ele><time>2026-04-25T15:22:08.998Z</time></trkpt><trkpt lat="44.8366204720889" lon="7.260226646475192"><ele>556.0</ele><time>2026-04-25T15:22:13.998Z</time></trkpt><trkpt lat="44.836726081919494" lon="7.260188642284604"><ele>556.0</ele><time>2026-04-25T15:22:15.998Z</time></trkpt><trkpt lat="44.83678412135778" lon="7.260139569771828"><ele>556.0</ele><time>2026-04-25T15:22:18.998Z</time></trkpt><trkpt lat="44.83680771746849" lon="7.2599686494812605"><ele>556.0</ele><time>2026-04-25T15:22:20.998Z</time></trkpt><trkpt lat="44.83684191970566" lon="7.259881043815005"><ele>556.0</ele><time>2026-04-25T15:22:21.998Z</time></trkpt><trkpt lat="44.836906885213985" lon="7.259810452371494"><ele>560.3333333333334</ele><time>2026-04-25T15:22:24.998Z</time></trkpt><trkpt lat="44.83720585653146" lon="7.259608912902345"><ele>564.6666666666666</ele><time>2026-04-25T15:22:28Z</time></trkpt><trkpt lat="44.83726212547404" lon="7.259527461719302"><ele>569.0</ele><time>2026-04-25T15:22:29Z</time></trkpt><trkpt lat="44.83732336204554" lon="7.259441007189769"><ele>569.0</ele><time>2026-04-25T15:22:30Z</time></trkpt><trkpt lat="44.83737591811394" lon="7.259323610855735"><ele>569.0</ele><time>2026-04-25T15:22:31Z</time></trkpt><trkpt lat="44.837428567793864" lon="7.259229230220781"><ele>569.0</ele><time>2026-04-25T15:22:32Z</time></trkpt><trkpt lat="44.83747360667404" lon="7.259148397793488"><ele>569.0</ele><time>2026-04-25T15:22:33Z</time></trkpt><trkpt lat="44.83752982094697" lon="7.259072381855038"><ele>569.0</ele><time>2026-04-25T15:22:34Z</time></trkpt><trkpt lat="44.83758742586916" lon="7.2589818646744195"><ele>569.0</ele><time>2026-04-25T15:22:35Z</time></trkpt><trkpt lat="44.83763895615295" lon="7.258901615259109"><ele>570.0</ele><time>2026-04-25T15:22:36Z</time></trkpt><trkpt lat="44.837692774446474" lon="7.25881863795562"><ele>571.0</ele><time>2026-04-25T15:22:37Z</time></trkpt><trkpt lat="44.83774881583491" lon="7.258748865781332"><ele>572.0</ele><time>2026-04-25T15:22:38Z</time></trkpt><trkpt lat="44.837829940403424" lon="7.258679363192953"><ele>573.0</ele><time>2026-04-25T15:22:40Z</time></trkpt><trkpt lat="44.83793607725109" lon="7.258630919276562"><ele>574.0</ele><time>2026-04-25T15:22:42Z</time></trkpt><trkpt lat="44.83804395666724" lon="7.258559813253208"><ele>574.0</ele><time>2026-04-25T15:22:44Z</time></trkpt><trkpt lat="44.83810039162479" lon="7.258506289339777"><ele>574.0</ele><time>2026-04-25T15:22:45Z</time></trkpt><trkpt lat="44.83815042532806" lon="7.258433033877957"><ele>574.0</ele><time>2026-04-25T15:22:46Z</time></trkpt><trkpt lat="44.83821464143634" lon="7.258368495816517"><ele>574.0</ele><time>2026-04-25T15:22:47Z</time></trkpt><trkpt lat="44.83828448317799" lon="7.258256367493146"><ele>574.0</ele><time>2026-04-25T15:22:48Z</time></trkpt><trkpt lat="44.8383688295376" lon="7.258189601222942"><ele>574.0</ele><time>2026-04-25T15:22:49Z</time></trkpt><trkpt lat="44.83847614990324" lon="7.258109747183778"><ele>576.8</ele><time>2026-04-25T15:22:50Z</time></trkpt><trkpt lat="44.8385821651164" lon="7.258074210422164"><ele>579.5999999999999</ele><time>2026-04-25T15:22:51Z</time></trkpt><trkpt lat="44.83865423763797" lon="7.258041199195581"><ele>582.4</ele><time>2026-04-25T15:22:52Z</time></trkpt><trkpt lat="44.83874050213016" lon="7.258019263087935"><ele>585.1999999999999</ele><time>2026-04-25T15:22:53Z</time></trkpt><trkpt lat="44.8388688642626" lon="7.257946467674984"><ele>588.0</ele><time>2026-04-25T15:22:54Z</time></trkpt><trkpt lat="44.838986250699456" lon="7.257813474021139"><ele>588.0</ele><time>2026-04-25T15:22:55Z</time></trkpt><trkpt lat="44.839062337633" lon="7.257694546737497"><ele>588.0</ele><time>2026-04-25T15:22:56Z</time></trkpt><trkpt lat="44.83908857633758" lon="7.257613669793409"><ele>588.0</ele><time>2026-04-25T15:22:57Z</time></trkpt><trkpt lat="44.83909569782417" lon="7.257516066001287"><ele>588.0</ele><time>2026-04-25T15:22:58Z</time></trkpt><trkpt lat="44.83911400910334" lon="7.257415003088221"><ele>588.0</ele><time>2026-04-25T15:22:59Z</time></trkpt><trkpt lat="44.839244750454284" lon="7.257365026001972"><ele>591.0</ele><time>2026-04-25T15:23:03Z</time></trkpt><trkpt lat="44.83933136746716" lon="7.257289882185237"><ele>594.0</ele><time>2026-04-25T15:23:03.999Z</time></trkpt><trkpt lat="44.83942011220483" lon="7.257158795518058"><ele>597.0</ele><time>2026-04-25T15:23:04.999Z</time></trkpt><trkpt lat="44.83950462551024" lon="7.257079856634804"><ele>600.0</ele><time>2026-04-25T15:23:05.999Z</time></trkpt><trkpt lat="44.83960254802735" lon="7.257047683662547"><ele>603.0</ele><time>2026-04-25T15:23:07.999Z</time></trkpt><trkpt lat="44.83982301086056" lon="7.257036056170417"><ele>603.0</ele><time>2026-04-25T15:24:21.998Z</time></trkpt><trkpt lat="44.83985836393821" lon="7.256957176331452"><ele>603.0</ele><time>2026-04-25T15:24:25.998Z</time></trkpt><trkpt lat="44.83991420211987" lon="7.256911617701589"><ele>603.0</ele><time>2026-04-25T15:25:02Z</time></trkpt><trkpt lat="44.83991326324697" lon="7.256815712492019"><ele>603.0</ele><time>2026-04-25T15:28:49Z</time></trkpt><trkpt lat="44.83987451106827" lon="7.2568998285026565"><ele>603.0</ele><time>2026-04-25T15:28:59Z</time></trkpt><trkpt lat="44.83984327796846" lon="7.256982461668808"><ele>603.0</ele><time>2026-04-25T15:30:13.998Z</time></trkpt><trkpt lat="44.8399109373366" lon="7.257010821087647"><ele>603.0</ele><time>2026-04-25T15:32:58Z</time></trkpt><trkpt lat="44.839941804931456" lon="7.256930518044381"><ele>603.0</ele><time>2026-04-25T15:33:10Z</time></trkpt><trkpt lat="44.840004452762834" lon="7.25689185208598"><ele>603.0</ele><time>2026-04-25T15:33:18Z</time></trkpt><trkpt lat="44.84006084997734" lon="7.2568386411089225"><ele>603.0</ele><time>2026-04-25T15:34:28.998Z</time></trkpt><trkpt lat="44.840192902015474" lon="7.25677749943357"><ele>603.0</ele><time>2026-04-25T15:34:34.998Z</time></trkpt><trkpt lat="44.84025764639687" lon="7.256750735981892"><ele>603.0</ele><time>2026-04-25T15:34:37.998Z</time></trkpt><trkpt lat="44.840405260584326" lon="7.256726107716842"><ele>603.4</ele><time>2026-04-25T15:34:41.998Z</time></trkpt><trkpt lat="44.84049123618834" lon="7.256661916735169"><ele>603.8</ele><time>2026-04-25T15:34:43.998Z</time></trkpt><trkpt lat="44.84059146673745" lon="7.256577084828319"><ele>604.2</ele><time>2026-04-25T15:34:45.998Z</time></trkpt><trkpt lat="44.840658564212355" lon="7.256508135665285"><ele>604.6</ele><time>2026-04-25T15:34:46.998Z</time></trkpt><trkpt lat="44.840733736964125" lon="7.256421145734296"><ele>605.0</ele><time>2026-04-25T15:34:47.998Z</time></trkpt><trkpt lat="44.840812442674796" lon="7.256324163165686"><ele>606.1666666666666</ele><time>2026-04-25T15:34:48.998Z</time></trkpt><trkpt lat="44.84089212786071" lon="7.256253942493793"><ele>607.3333333333333</ele><time>2026-04-25T15:34:49.998Z</time></trkpt><trkpt lat="44.840976307314705" lon="7.2562313726385606"><ele>608.5</ele><time>2026-04-25T15:34:50.998Z</time></trkpt><trkpt lat="44.84102098539817" lon="7.2560932936622295"><ele>609.6666666666666</ele><time>2026-04-25T15:34:52.998Z</time></trkpt><trkpt lat="44.84108939307183" lon="7.256079249007146"><ele>610.8333333333334</ele><time>2026-04-25T15:34:54.998Z</time></trkpt><trkpt lat="44.84106407031354" lon="7.255977812826924"><ele>612.0</ele><time>2026-04-25T15:34:57.998Z</time></trkpt><trkpt lat="44.841059591713055" lon="7.255882898168786"><ele>612.6</ele><time>2026-04-25T15:35:00.998Z</time></trkpt><trkpt lat="44.84104412833885" lon="7.255751321564944"><ele>613.2</ele><time>2026-04-25T15:35:03Z</time></trkpt><trkpt lat="44.84102234253904" lon="7.255655921261087"><ele>613.8</ele><time>2026-04-25T15:35:05Z</time></trkpt><trkpt lat="44.84101874956016" lon="7.255518866435365"><ele>614.4</ele><time>2026-04-25T15:35:07Z</time></trkpt><trkpt lat="44.84102788926734" lon="7.255313644454483"><ele>615.0</ele><time>2026-04-25T15:35:09Z</time></trkpt><trkpt lat="44.841053194987964" lon="7.2552218971391955"><ele>615.0</ele><time>2026-04-25T15:35:10Z</time></trkpt><trkpt lat="44.84109767826354" lon="7.255140047063051"><ele>615.0</ele><time>2026-04-25T15:35:11Z</time></trkpt><trkpt lat="44.84114282387353" lon="7.2550441004388375"><ele>615.0</ele><time>2026-04-25T15:35:12Z</time></trkpt><trkpt lat="44.84118146986911" lon="7.254950415468453"><ele>615.0</ele><time>2026-04-25T15:35:13Z</time></trkpt><trkpt lat="44.841242853394384" lon="7.254899389672314"><ele>615.0</ele><time>2026-04-25T15:35:14Z</time></trkpt><trkpt lat="44.84129047647456" lon="7.254831938960621"><ele>615.0</ele><time>2026-04-25T15:35:15Z</time></trkpt><trkpt lat="44.8413468871022" lon="7.254738267860454"><ele>617.2</ele><time>2026-04-25T15:35:16Z</time></trkpt><trkpt lat="44.84141355164863" lon="7.254669550334042"><ele>619.4</ele><time>2026-04-25T15:35:17Z</time></trkpt><trkpt lat="44.84147224143728" lon="7.254624127297404"><ele>621.6</ele><time>2026-04-25T15:35:18Z</time></trkpt><trkpt lat="44.84155369327743" lon="7.2545616427275785"><ele>623.8</ele><time>2026-04-25T15:35:20Z</time></trkpt><trkpt lat="44.841585667977036" lon="7.254354543168871"><ele>626.0</ele><time>2026-04-25T15:35:22Z</time></trkpt><trkpt lat="44.841609532430454" lon="7.254223789280843"><ele>626.0</ele><time>2026-04-25T15:35:23Z</time></trkpt><trkpt lat="44.84162661742839" lon="7.25409999521061"><ele>626.0</ele><time>2026-04-25T15:35:24Z</time></trkpt><trkpt lat="44.84165093580168" lon="7.253995092984746"><ele>626.0</ele><time>2026-04-25T15:35:25Z</time></trkpt><trkpt lat="44.84170397685381" lon="7.253942951321953"><ele>626.0</ele><time>2026-04-25T15:35:26Z</time></trkpt><trkpt lat="44.84178612984094" lon="7.253889583579165"><ele>626.0</ele><time>2026-04-25T15:35:27Z</time></trkpt><trkpt lat="44.84182823087876" lon="7.253807410845562"><ele>626.0</ele><time>2026-04-25T15:35:28Z</time></trkpt><trkpt lat="44.841811254201346" lon="7.2536503777445125"><ele>626.0</ele><time>2026-04-25T15:35:30Z</time></trkpt><trkpt lat="44.841728706294454" lon="7.2536218966341375"><ele>626.0</ele><time>2026-04-25T15:35:32Z</time></trkpt><trkpt lat="44.841691763159304" lon="7.2537110769369475"><ele>626.0</ele><time>2026-04-25T15:35:34.999Z</time></trkpt><trkpt lat="44.84153875401779" lon="7.253806819500349"><ele>626.0</ele><time>2026-04-25T15:35:39.999Z</time></trkpt><trkpt lat="44.8415010813123" lon="7.253885469239498"><ele>626.0</ele><time>2026-04-25T15:35:41.999Z</time></trkpt><trkpt lat="44.84148237590551" lon="7.253978732835615"><ele>626.0</ele><time>2026-04-25T15:35:43.999Z</time></trkpt><trkpt lat="44.84142727781946" lon="7.254061798120241"><ele>626.0</ele><time>2026-04-25T15:35:46.999Z</time></trkpt><trkpt lat="44.84150764343514" lon="7.253753107084669"><ele>626.0</ele><time>2026-04-25T15:35:50.999Z</time></trkpt><trkpt lat="44.841395678382135" lon="7.2536976713644465"><ele>626.0</ele><time>2026-04-25T15:35:52.999Z</time></trkpt><trkpt lat="44.8412653114018" lon="7.253695750537923"><ele>630.0</ele><time>2026-04-25T15:35:54.999Z</time></trkpt><trkpt lat="44.84116466349114" lon="7.253764857843871"><ele>634.0</ele><time>2026-04-25T15:35:55.999Z</time></trkpt><trkpt lat="44.84110449788148" lon="7.253798237919365"><ele>638.0</ele><time>2026-04-25T15:35:57.999Z</time></trkpt><trkpt lat="44.841035382695225" lon="7.253801186222013"><ele>642.0</ele><time>2026-04-25T15:35:59.999Z</time></trkpt><trkpt lat="44.840896290674756" lon="7.254015871204627"><ele>643.1666666666666</ele><time>2026-04-25T15:36:02.999Z</time></trkpt><trkpt lat="44.8407983037624" lon="7.254130128589192"><ele>644.3333333333334</ele><time>2026-04-25T15:36:03.999Z</time></trkpt><trkpt lat="44.840732222889585" lon="7.254230810520917"><ele>645.5</ele><time>2026-04-25T15:36:04.999Z</time></trkpt><trkpt lat="44.840695712689595" lon="7.254306091522536"><ele>646.6666666666667</ele><time>2026-04-25T15:36:06.999Z</time></trkpt><trkpt lat="44.840653599045474" lon="7.254372548646683"><ele>647.8333333333334</ele><time>2026-04-25T15:36:08.999Z</time></trkpt><trkpt lat="44.84057964770889" lon="7.254436316782898"><ele>649.0</ele><time>2026-04-25T15:36:09.999Z</time></trkpt><trkpt lat="44.84067079190838" lon="7.254374696670742"><ele>649.0</ele><time>2026-04-25T15:39:31Z</time></trkpt><trkpt lat="44.840828378450695" lon="7.254348535828135"><ele>649.0</ele><time>2026-04-25T15:39:33Z</time></trkpt><trkpt lat="44.84091415142425" lon="7.254265061402118"><ele>649.0</ele><time>2026-04-25T15:39:34Z</time></trkpt><trkpt lat="44.84099670072208" lon="7.254178090432303"><ele>649.0</ele><time>2026-04-25T15:39:35Z</time></trkpt><trkpt lat="44.841062487043786" lon="7.254080284512449"><ele>647.8333333333334</ele><time>2026-04-25T15:39:36Z</time></trkpt><trkpt lat="44.84109497486956" lon="7.253998081733018"><ele>646.6666666666667</ele><time>2026-04-25T15:39:37Z</time></trkpt><trkpt lat="44.84108457366333" lon="7.253856705452532"><ele>645.5</ele><time>2026-04-25T15:39:38Z</time></trkpt><trkpt lat="44.84114160657614" lon="7.253758679541627"><ele>644.3333333333334</ele><time>2026-04-25T15:39:39Z</time></trkpt><trkpt lat="44.84121921541037" lon="7.253728307650707"><ele>643.1666666666666</ele><time>2026-04-25T15:39:39.999Z</time></trkpt><trkpt lat="44.84129524702455" lon="7.2536750554291025"><ele>642.0</ele><time>2026-04-25T15:39:40.999Z</time></trkpt><trkpt lat="44.84134019671593" lon="7.253504213871069"><ele>642.0</ele><time>2026-04-25T15:39:41.999Z</time></trkpt><trkpt lat="44.84139119635768" lon="7.253331324784693"><ele>642.0</ele><time>2026-04-25T15:39:42.999Z</time></trkpt><trkpt lat="44.84143857691187" lon="7.253175330938794"><ele>642.0</ele><time>2026-04-25T15:39:43.999Z</time></trkpt><trkpt lat="44.84145136219276" lon="7.253049600780949"><ele>642.0</ele><time>2026-04-25T15:39:44.999Z</time></trkpt><trkpt lat="44.841466754270506" lon="7.252913519386046"><ele>642.0</ele><time>2026-04-25T15:39:45.999Z</time></trkpt><trkpt lat="44.84144766943343" lon="7.2527734413235265"><ele>643.1666666666666</ele><time>2026-04-25T15:39:46.999Z</time></trkpt><trkpt lat="44.84142531476597" lon="7.2526445196162435"><ele>644.3333333333334</ele><time>2026-04-25T15:39:47.999Z</time></trkpt><trkpt lat="44.84138951225705" lon="7.252564439356435"><ele>645.5</ele><time>2026-04-25T15:39:48.999Z</time></trkpt><trkpt lat="44.84134037010755" lon="7.252495958490073"><ele>646.6666666666667</ele><time>2026-04-25T15:39:49.999Z</time></trkpt><trkpt lat="44.84126309564592" lon="7.252429285277827"><ele>647.8333333333334</ele><time>2026-04-25T15:39:50.999Z</time></trkpt><trkpt lat="44.84116022257492" lon="7.252349355014447"><ele>649.0</ele><time>2026-04-25T15:39:51.999Z</time></trkpt><trkpt lat="44.84109483304361" lon="7.252295322462656"><ele>654.0</ele><time>2026-04-25T15:39:52.999Z</time></trkpt><trkpt lat="44.84108912582257" lon="7.25216154406328"><ele>659.0</ele><time>2026-04-25T15:39:54.999Z</time></trkpt><trkpt lat="44.841146021447955" lon="7.252106411098461"><ele>664.0</ele><time>2026-04-25T15:39:55.999Z</time></trkpt><trkpt lat="44.84122888476648" lon="7.252090060486494"><ele>669.0</ele><time>2026-04-25T15:39:56.999Z</time></trkpt><trkpt lat="44.841316294996396" lon="7.252098641085554"><ele>674.0</ele><time>2026-04-25T15:39:57.999Z</time></trkpt><trkpt lat="44.84145195608407" lon="7.2521084115868355"><ele>674.0</ele><time>2026-04-25T15:39:58.999Z</time></trkpt><trkpt lat="44.84160417399688" lon="7.252120685690155"><ele>674.0</ele><time>2026-04-25T15:39:59.999Z</time></trkpt><trkpt lat="44.841720474339276" lon="7.25210519232045"><ele>674.0</ele><time>2026-04-25T15:40:00.999Z</time></trkpt><trkpt lat="44.84188441799592" lon="7.252040259661515"><ele>674.0</ele><time>2026-04-25T15:40:02.999Z</time></trkpt><trkpt lat="44.8419784925112" lon="7.2519270051935685"><ele>675.4000000000001</ele><time>2026-04-25T15:40:03.999Z</time></trkpt><trkpt lat="44.842088231600236" lon="7.251806421225051"><ele>676.8</ele><time>2026-04-25T15:40:04.999Z</time></trkpt><trkpt lat="44.84218490377908" lon="7.251724197882416"><ele>678.2</ele><time>2026-04-25T15:40:05.999Z</time></trkpt><trkpt lat="44.84226607038754" lon="7.251627733571277"><ele>679.5999999999999</ele><time>2026-04-25T15:40:06.999Z</time></trkpt><trkpt lat="44.842320837247605" lon="7.251549173467444"><ele>681.0</ele><time>2026-04-25T15:40:07.999Z</time></trkpt><trkpt lat="44.84235926490202" lon="7.251653390813652"><ele>681.0</ele><time>2026-04-25T15:40:09.999Z</time></trkpt><trkpt lat="44.842370942709806" lon="7.251743175018472"><ele>681.0</ele><time>2026-04-25T15:40:10.999Z</time></trkpt><trkpt lat="44.84237982366737" lon="7.251879370318604"><ele>681.0</ele><time>2026-04-25T15:40:11.999Z</time></trkpt><trkpt lat="44.842358720962956" lon="7.251989105459278"><ele>681.0</ele><time>2026-04-25T15:40:12.999Z</time></trkpt><trkpt lat="44.8423734161185" lon="7.252089995972799"><ele>681.0</ele><time>2026-04-25T15:40:13.999Z</time></trkpt><trkpt lat="44.84239871654469" lon="7.252204485755176"><ele>681.0</ele><time>2026-04-25T15:40:14.999Z</time></trkpt><trkpt lat="44.842414174974586" lon="7.252334806816113"><ele>679.0</ele><time>2026-04-25T15:40:15.999Z</time></trkpt><trkpt lat="44.842424605542334" lon="7.252461908499156"><ele>677.0</ele><time>2026-04-25T15:40:16.999Z</time></trkpt><trkpt lat="44.842437688144905" lon="7.252560258034045"><ele>675.0</ele><time>2026-04-25T15:40:17.999Z</time></trkpt><trkpt lat="44.842472956841625" lon="7.252645581440059"><ele>673.0</ele><time>2026-04-25T15:40:18.999Z</time></trkpt><trkpt lat="44.842503586349416" lon="7.2527398748625185"><ele>671.0</ele><time>2026-04-25T15:40:19.999Z</time></trkpt><trkpt lat="44.84251506662724" lon="7.252850125743173"><ele>669.0</ele><time>2026-04-25T15:40:20.999Z</time></trkpt><trkpt lat="44.8425156131534" lon="7.252957672006555"><ele>669.0</ele><time>2026-04-25T15:40:21.999Z</time></trkpt><trkpt lat="44.8424927703016" lon="7.253060157241653"><ele>669.0</ele><time>2026-04-25T15:40:22.999Z</time></trkpt><trkpt lat="44.84249214231347" lon="7.253174003726424"><ele>669.0</ele><time>2026-04-25T15:40:23.999Z</time></trkpt><trkpt lat="44.8424797168292" lon="7.253306940765796"><ele>669.0</ele><time>2026-04-25T15:40:24.999Z</time></trkpt><trkpt lat="44.842508950209535" lon="7.253417367938811"><ele>669.0</ele><time>2026-04-25T15:40:25.999Z</time></trkpt><trkpt lat="44.84259501023239" lon="7.253511518433235"><ele>669.0</ele><time>2026-04-25T15:40:27.999Z</time></trkpt><trkpt lat="44.84268102908763" lon="7.253529140262263"><ele>669.3333333333334</ele><time>2026-04-25T15:40:28.999Z</time></trkpt><trkpt lat="44.842744863525226" lon="7.253541078230347"><ele>669.6666666666666</ele><time>2026-04-25T15:40:29.999Z</time></trkpt><trkpt lat="44.842813265401595" lon="7.25351876276453"><ele>670.0</ele><time>2026-04-25T15:40:30.998Z</time></trkpt><trkpt lat="44.842877855723096" lon="7.2535296387476205"><ele>670.3333333333333</ele><time>2026-04-25T15:40:31.998Z</time></trkpt><trkpt lat="44.84299571041927" lon="7.253491502476638"><ele>670.6666666666666</ele><time>2026-04-25T15:40:33.998Z</time></trkpt><trkpt lat="44.84304985532936" lon="7.2534275169465845"><ele>671.0</ele><time>2026-04-25T15:40:34.998Z</time></trkpt><trkpt lat="44.84310599576453" lon="7.253342755586326"><ele>671.0</ele><time>2026-04-25T15:40:35.998Z</time></trkpt><trkpt lat="44.84315798676232" lon="7.2532776344361185"><ele>671.0</ele><time>2026-04-25T15:40:36.998Z</time></trkpt><trkpt lat="44.84321469657763" lon="7.2532243836496555"><ele>671.0</ele><time>2026-04-25T15:40:37.998Z</time></trkpt><trkpt lat="44.84328919051347" lon="7.253153663721069"><ele>671.0</ele><time>2026-04-25T15:40:38.998Z</time></trkpt><trkpt lat="44.8433588343243" lon="7.253084340782119"><ele>671.0</ele><time>2026-04-25T15:40:39.998Z</time></trkpt><trkpt lat="44.84342601988715" lon="7.253019101035174"><ele>671.0</ele><time>2026-04-25T15:40:40.998Z</time></trkpt><trkpt lat="44.843481237545234" lon="7.252962989938524"><ele>675.1666666666666</ele><time>2026-04-25T15:40:41.998Z</time></trkpt><trkpt lat="44.8435949754824" lon="7.252933362842276"><ele>679.3333333333333</ele><time>2026-04-25T15:40:43.998Z</time></trkpt><trkpt lat="44.8436690215067" lon="7.252970572120697"><ele>683.5</ele><time>2026-04-25T15:40:44.998Z</time></trkpt><trkpt lat="44.84374089414676" lon="7.252977704279349"><ele>687.6666666666666</ele><time>2026-04-25T15:40:45.998Z</time></trkpt><trkpt lat="44.843818668269705" lon="7.252984889176925"><ele>691.8333333333334</ele><time>2026-04-25T15:40:46.998Z</time></trkpt><trkpt lat="44.84389663070992" lon="7.252992173641529"><ele>696.0</ele><time>2026-04-25T15:40:47.998Z</time></trkpt><trkpt lat="44.84398437913485" lon="7.25299240070595"><ele>696.0</ele><time>2026-04-25T15:40:48.998Z</time></trkpt><trkpt lat="44.84407194126012" lon="7.253012856903818"><ele>696.0</ele><time>2026-04-25T15:40:49.998Z</time></trkpt><trkpt lat="44.84416086943152" lon="7.253019974087811"><ele>696.0</ele><time>2026-04-25T15:40:50.998Z</time></trkpt><trkpt lat="44.844251486334734" lon="7.253041494064536"><ele>696.0</ele><time>2026-04-25T15:40:51.998Z</time></trkpt><trkpt lat="44.84433408311511" lon="7.253033860723331"><ele>696.0</ele><time>2026-04-25T15:40:52.998Z</time></trkpt><trkpt lat="44.84439489992689" lon="7.252997026395064"><ele>696.0</ele><time>2026-04-25T15:40:53.998Z</time></trkpt><trkpt lat="44.84447079104469" lon="7.25294019379284"><ele>692.1999999999999</ele><time>2026-04-25T15:40:54.998Z</time></trkpt><trkpt lat="44.84453866409232" lon="7.25284244730781"><ele>688.4</ele><time>2026-04-25T15:40:55.998Z</time></trkpt><trkpt lat="44.84461203718849" lon="7.252747998140636"><ele>684.6</ele><time>2026-04-25T15:40:56.998Z</time></trkpt><trkpt lat="44.84469488596209" lon="7.252574951680824"><ele>680.8</ele><time>2026-04-25T15:40:58.998Z</time></trkpt><trkpt lat="44.84473125431986" lon="7.252454826124615"><ele>677.0</ele><time>2026-04-25T15:40:59.998Z</time></trkpt><trkpt lat="44.84476547628652" lon="7.252354588982621"><ele>678.8333333333333</ele><time>2026-04-25T15:41:00.998Z</time></trkpt><trkpt lat="44.84479506693219" lon="7.25224941907759"><ele>680.6666666666666</ele><time>2026-04-25T15:41:01.998Z</time></trkpt><trkpt lat="44.84484734558212" lon="7.252133414856887"><ele>682.5</ele><time>2026-04-25T15:41:02.998Z</time></trkpt><trkpt lat="44.84489735172689" lon="7.252017516106686"><ele>684.3333333333334</ele><time>2026-04-25T15:41:03.998Z</time></trkpt><trkpt lat="44.84493153300764" lon="7.251918223489468"><ele>686.1666666666667</ele><time>2026-04-25T15:41:04.998Z</time></trkpt><trkpt lat="44.84497746045529" lon="7.251824196794969"><ele>688.0</ele><time>2026-04-25T15:41:05.998Z</time></trkpt><trkpt lat="44.84501784367341" lon="7.251723405901535"><ele>688.0</ele><time>2026-04-25T15:41:06.998Z</time></trkpt><trkpt lat="44.845046495544125" lon="7.251617608853072"><ele>688.0</ele><time>2026-04-25T15:41:07.998Z</time></trkpt><trkpt lat="44.845055488789065" lon="7.251502239974258"><ele>688.0</ele><time>2026-04-25T15:41:08.998Z</time></trkpt><trkpt lat="44.84504638997325" lon="7.251375789847484"><ele>688.0</ele><time>2026-04-25T15:41:09.998Z</time></trkpt><trkpt lat="44.845063364656454" lon="7.251242993394977"><ele>688.0</ele><time>2026-04-25T15:41:10.998Z</time></trkpt><trkpt lat="44.845131947982324" lon="7.25118809448345"><ele>688.0</ele><time>2026-04-25T15:41:12.998Z</time></trkpt><trkpt lat="44.84519723740319" lon="7.251266868860767"><ele>692.6666666666667</ele><time>2026-04-25T15:41:14.998Z</time></trkpt><trkpt lat="44.845225791261036" lon="7.251374604509586"><ele>697.3333333333334</ele><time>2026-04-25T15:41:16.998Z</time></trkpt><trkpt lat="44.84528194009671" lon="7.25188672502009"><ele>702.0</ele><time>2026-04-25T15:41:20Z</time></trkpt><trkpt lat="44.84520300352191" lon="7.252038036021808"><ele>704.8</ele><time>2026-04-25T15:41:21Z</time></trkpt><trkpt lat="44.84514418286202" lon="7.25214954989109"><ele>707.6</ele><time>2026-04-25T15:41:22Z</time></trkpt><trkpt lat="44.84509788100874" lon="7.252254652649209"><ele>710.4</ele><time>2026-04-25T15:41:23Z</time></trkpt><trkpt lat="44.8451075693822" lon="7.252355931362872"><ele>713.1999999999999</ele><time>2026-04-25T15:41:24Z</time></trkpt><trkpt lat="44.84513150459827" lon="7.252484667651459"><ele>716.0</ele><time>2026-04-25T15:41:25Z</time></trkpt><trkpt lat="44.8451723003178" lon="7.252615487779697"><ele>716.5714285714287</ele><time>2026-04-25T15:41:26Z</time></trkpt><trkpt lat="44.845166898077814" lon="7.252713604802452"><ele>717.1428571428571</ele><time>2026-04-25T15:41:27Z</time></trkpt><trkpt lat="44.84515096040788" lon="7.252811724267511"><ele>717.7142857142858</ele><time>2026-04-25T15:41:28Z</time></trkpt><trkpt lat="44.845134464225865" lon="7.252919362089615"><ele>718.2857142857143</ele><time>2026-04-25T15:41:29Z</time></trkpt><trkpt lat="44.84511589659862" lon="7.253024937889143"><ele>718.8571428571429</ele><time>2026-04-25T15:41:30Z</time></trkpt><trkpt lat="44.84510423386794" lon="7.253117367715643"><ele>719.4285714285714</ele><time>2026-04-25T15:41:31Z</time></trkpt><trkpt lat="44.84512357129339" lon="7.253223414760381"><ele>720.0</ele><time>2026-04-25T15:41:33Z</time></trkpt><trkpt lat="44.84515703874798" lon="7.253308553955061"><ele>716.1428571428571</ele><time>2026-04-25T15:41:35Z</time></trkpt><trkpt lat="44.84519365591667" lon="7.253383432311041"><ele>712.2857142857143</ele><time>2026-04-25T15:41:38Z</time></trkpt><trkpt lat="44.84526508184345" lon="7.253420403710124"><ele>708.4285714285714</ele><time>2026-04-25T15:41:41Z</time></trkpt><trkpt lat="44.84527586840411" lon="7.2535208201464485"><ele>704.5714285714286</ele><time>2026-04-25T15:41:47.999Z</time></trkpt><trkpt lat="44.84526348630307" lon="7.253430300251176"><ele>700.7142857142858</ele><time>2026-04-25T15:41:56.999Z</time></trkpt><trkpt lat="44.84524998143425" lon="7.253338905630591"><ele>696.8571428571429</ele><time>2026-04-25T15:41:58.999Z</time></trkpt><trkpt lat="44.845200055430155" lon="7.25324505361857"><ele>693.0</ele><time>2026-04-25T15:42:00.999Z</time></trkpt><trkpt lat="44.84519539591055" lon="7.253151689325735"><ele>693.0</ele><time>2026-04-25T15:42:04.999Z</time></trkpt><trkpt lat="44.84527387927475" lon="7.253218474654414"><ele>693.0</ele><time>2026-04-25T15:42:10.999Z</time></trkpt><trkpt lat="44.84564011692534" lon="7.2534206235517855"><ele>693.0</ele><time>2026-04-25T15:42:15.999Z</time></trkpt><trkpt lat="44.845730636522156" lon="7.253462192882239"><ele>693.0</ele><time>2026-04-25T15:42:16.999Z</time></trkpt><trkpt lat="44.8458327252384" lon="7.253506399970996"><ele>693.0</ele><time>2026-04-25T15:42:17.999Z</time></trkpt><trkpt lat="44.84593527075523" lon="7.253558838663529"><ele>693.0</ele><time>2026-04-25T15:42:18.999Z</time></trkpt><trkpt lat="44.84603348965986" lon="7.2536109852820525"><ele>693.0</ele><time>2026-04-25T15:42:19.999Z</time></trkpt><trkpt lat="44.846101428296855" lon="7.253637547814666"><ele>694.8333333333334</ele><time>2026-04-25T15:42:20.999Z</time></trkpt><trkpt lat="44.84616615670117" lon="7.253658301663048"><ele>696.6666666666666</ele><time>2026-04-25T15:42:21.999Z</time></trkpt><trkpt lat="44.84626830294856" lon="7.253656216864182"><ele>698.5</ele><time>2026-04-25T15:42:23.999Z</time></trkpt><trkpt lat="44.8463368067952" lon="7.253579315872781"><ele>700.3333333333333</ele><time>2026-04-25T15:42:26.999Z</time></trkpt><trkpt lat="44.846276989736936" lon="7.253519560562667"><ele>702.1666666666666</ele><time>2026-04-25T15:42:29.999Z</time></trkpt><trkpt lat="44.84628644294477" lon="7.253419180005471"><ele>704.0</ele><time>2026-04-25T15:42:32.999Z</time></trkpt><trkpt lat="44.846022536789505" lon="7.253155557855764"><ele>707.2</ele><time>2026-04-25T15:42:35.998Z</time></trkpt><trkpt lat="44.84593799948621" lon="7.253078209949904"><ele>710.4000000000001</ele><time>2026-04-25T15:42:36.998Z</time></trkpt><trkpt lat="44.84586295447701" lon="7.252981702949618"><ele>713.6</ele><time>2026-04-25T15:42:37.998Z</time></trkpt><trkpt lat="44.845777165990036" lon="7.252909356401026"><ele>716.8</ele><time>2026-04-25T15:42:38.998Z</time></trkpt><trkpt lat="44.84571650944828" lon="7.2527398078738425"><ele>720.0</ele><time>2026-04-25T15:42:43.998Z</time></trkpt><trkpt lat="44.845700366094576" lon="7.2526511161812"><ele>720.0</ele><time>2026-04-25T15:42:44.998Z</time></trkpt><trkpt lat="44.845694880098726" lon="7.252549750632024"><ele>720.0</ele><time>2026-04-25T15:42:45.998Z</time></trkpt><trkpt lat="44.84568674312789" lon="7.25238518705639"><ele>720.0</ele><time>2026-04-25T15:42:46.998Z</time></trkpt><trkpt lat="44.84564625478957" lon="7.252209720617477"><ele>720.0</ele><time>2026-04-25T15:42:48.998Z</time></trkpt><trkpt lat="44.845638324965584" lon="7.252118312732028"><ele>720.0</ele><time>2026-04-25T15:42:49.998Z</time></trkpt><trkpt lat="44.84566583998664" lon="7.252000678886343"><ele>719.2</ele><time>2026-04-25T15:42:51.998Z</time></trkpt><trkpt lat="44.84570110752677" lon="7.251894918725833"><ele>718.4</ele><time>2026-04-25T15:42:52.998Z</time></trkpt><trkpt lat="44.84572754567398" lon="7.251781148577963"><ele>717.5999999999999</ele><time>2026-04-25T15:42:53.998Z</time></trkpt><trkpt lat="44.84575716041368" lon="7.251683816713505"><ele>716.8</ele><time>2026-04-25T15:42:54.998Z</time></trkpt><trkpt lat="44.84580885544127" lon="7.251511628377986"><ele>716.0</ele><time>2026-04-25T15:42:56.998Z</time></trkpt><trkpt lat="44.84586618312887" lon="7.251384091138167"><ele>713.1999999999999</ele><time>2026-04-25T15:42:58.998Z</time></trkpt><trkpt lat="44.845936612576565" lon="7.2513290135432324"><ele>710.4</ele><time>2026-04-25T15:42:59.998Z</time></trkpt><trkpt lat="44.84601111404905" lon="7.251250797647373"><ele>707.6</ele><time>2026-04-25T15:43:00.998Z</time></trkpt><trkpt lat="44.84609741372613" lon="7.251175372076448"><ele>704.8</ele><time>2026-04-25T15:43:02.998Z</time></trkpt><trkpt lat="44.8461905755183" lon="7.251095672363231"><ele>702.0</ele><time>2026-04-25T15:43:04.998Z</time></trkpt><trkpt lat="44.84627691026423" lon="7.251060307573248"><ele>707.8</ele><time>2026-04-25T15:43:05.998Z</time></trkpt><trkpt lat="44.84636840186916" lon="7.250978244752907"><ele>713.6</ele><time>2026-04-25T15:43:06.998Z</time></trkpt><trkpt lat="44.846431455701264" lon="7.250852889313431"><ele>719.4</ele><time>2026-04-25T15:43:07.998Z</time></trkpt><trkpt lat="44.84646702340821" lon="7.25071222250059"><ele>725.1999999999999</ele><time>2026-04-25T15:43:08.998Z</time></trkpt><trkpt lat="44.84649021444082" lon="7.250592911412002"><ele>731.0</ele><time>2026-04-25T15:43:09.998Z</time></trkpt><trkpt lat="44.84651910649712" lon="7.250480699268629"><ele>731.0</ele><time>2026-04-25T15:43:10.998Z</time></trkpt><trkpt lat="44.84654644384053" lon="7.2503745719856"><ele>731.0</ele><time>2026-04-25T15:43:11.998Z</time></trkpt><trkpt lat="44.846593830365364" lon="7.250263151892181"><ele>731.0</ele><time>2026-04-25T15:43:12.998Z</time></trkpt><trkpt lat="44.84661806396699" lon="7.250126563443254"><ele>731.0</ele><time>2026-04-25T15:43:13.998Z</time></trkpt><trkpt lat="44.84664032518786" lon="7.249997960531765"><ele>731.0</ele><time>2026-04-25T15:43:14.998Z</time></trkpt><trkpt lat="44.846665633841425" lon="7.249906087231167"><ele>731.0</ele><time>2026-04-25T15:43:15.998Z</time></trkpt><trkpt lat="44.84668912676695" lon="7.249813560261679"><ele>730.6666666666666</ele><time>2026-04-25T15:43:16.998Z</time></trkpt><trkpt lat="44.84671875288547" lon="7.249721834125801"><ele>730.3333333333333</ele><time>2026-04-25T15:43:17.998Z</time></trkpt><trkpt lat="44.84674594515453" lon="7.249623460225222"><ele>730.0</ele><time>2026-04-25T15:43:18.998Z</time></trkpt><trkpt lat="44.84677634090564" lon="7.2495299664425"><ele>729.6666666666666</ele><time>2026-04-25T15:43:19.998Z</time></trkpt><trkpt lat="44.84682247554994" lon="7.249427099725182"><ele>729.3333333333334</ele><time>2026-04-25T15:43:20.998Z</time></trkpt><trkpt lat="44.84685528594389" lon="7.249310428169475"><ele>729.0</ele><time>2026-04-25T15:43:21.998Z</time></trkpt><trkpt lat="44.84688689401047" lon="7.249184696215255"><ele>737.2</ele><time>2026-04-25T15:43:22.998Z</time></trkpt><trkpt lat="44.846938735008095" lon="7.24901700876455"><ele>745.4000000000001</ele><time>2026-04-25T15:43:24Z</time></trkpt><trkpt lat="44.846957133085425" lon="7.248872085613045"><ele>753.6</ele><time>2026-04-25T15:43:25Z</time></trkpt><trkpt lat="44.84699176412587" lon="7.248747429711932"><ele>761.8</ele><time>2026-04-25T15:43:26Z</time></trkpt><trkpt lat="44.84698979473424" lon="7.248647794043369"><ele>770.0</ele><time>2026-04-25T15:43:27Z</time></trkpt><trkpt lat="44.846951785817055" lon="7.2485328085324365"><ele>770.5000000000001</ele><time>2026-04-25T15:43:29Z</time></trkpt><trkpt lat="44.846963283048304" lon="7.248427593349744"><ele>771.0</ele><time>2026-04-25T15:43:30Z</time></trkpt><trkpt lat="44.84699508314809" lon="7.2483274458109515"><ele>771.5</ele><time>2026-04-25T15:43:31Z</time></trkpt><trkpt lat="44.84699092728871" lon="7.248221120381721"><ele>772.0</ele><time>2026-04-25T15:43:33Z</time></trkpt><trkpt lat="44.847012285947734" lon="7.248127478657517"><ele>772.5000000000001</ele><time>2026-04-25T15:43:36Z</time></trkpt><trkpt lat="44.846995744373636" lon="7.248038479494963"><ele>773.0</ele><time>2026-04-25T15:43:41Z</time></trkpt><trkpt lat="44.84701388314396" lon="7.248184268323099"><ele>773.0000000000001</ele><time>2026-04-25T15:43:47Z</time></trkpt><trkpt lat="44.84702211907517" lon="7.248316527000787"><ele>773.0</ele><time>2026-04-25T15:43:48.999Z</time></trkpt><trkpt lat="44.84704377258692" lon="7.248404351590356"><ele>773.0</ele><time>2026-04-25T15:43:50.999Z</time></trkpt><trkpt lat="44.84711728718268" lon="7.24852193428255"><ele>773.0</ele><time>2026-04-25T15:43:52.999Z</time></trkpt><trkpt lat="44.84705587169966" lon="7.248500330281016"><ele>773.0000000000001</ele><time>2026-04-25T15:43:58.999Z</time></trkpt><trkpt lat="44.84701689758034" lon="7.248629001678113"><ele>773.0</ele><time>2026-04-25T15:44:43.998Z</time></trkpt><trkpt lat="44.846994143173234" lon="7.24884630180494"><ele>772.4</ele><time>2026-04-25T15:44:45.998Z</time></trkpt><trkpt lat="44.84700702876044" lon="7.248972500740201"><ele>771.8</ele><time>2026-04-25T15:44:46.998Z</time></trkpt><trkpt lat="44.84704722128797" lon="7.249129134951547"><ele>771.2</ele><time>2026-04-25T15:44:47.998Z</time></trkpt><trkpt lat="44.847098737769855" lon="7.249268408262348"><ele>770.6</ele><time>2026-04-25T15:44:48.998Z</time></trkpt><trkpt lat="44.847132412445475" lon="7.249363929662951"><ele>770.0</ele><time>2026-04-25T15:44:49.998Z</time></trkpt><trkpt lat="44.84717873866836" lon="7.249497513849546"><ele>770.0</ele><time>2026-04-25T15:44:50.998Z</time></trkpt><trkpt lat="44.847187739518304" lon="7.249641313011997"><ele>770.0</ele><time>2026-04-25T15:44:51.998Z</time></trkpt><trkpt lat="44.84718645530367" lon="7.249795316107917"><ele>770.0</ele><time>2026-04-25T15:44:52.998Z</time></trkpt><trkpt lat="44.8471790337268" lon="7.249906295543583"><ele>770.0</ele><time>2026-04-25T15:44:53.998Z</time></trkpt><trkpt lat="44.84719013698099" lon="7.250023806537496"><ele>770.0</ele><time>2026-04-25T15:44:54.998Z</time></trkpt><trkpt lat="44.84716598671542" lon="7.25013571211413"><ele>769.3333333333334</ele><time>2026-04-25T15:44:55.998Z</time></trkpt><trkpt lat="44.84717758214799" lon="7.250308830962599"><ele>768.6666666666667</ele><time>2026-04-25T15:44:56.998Z</time></trkpt><trkpt lat="44.84716511020128" lon="7.250418237444139"><ele>768.0</ele><time>2026-04-25T15:44:57.998Z</time></trkpt><trkpt lat="44.847181451390234" lon="7.250524318538827"><ele>767.3333333333334</ele><time>2026-04-25T15:44:58.998Z</time></trkpt><trkpt lat="44.84722888646234" lon="7.250598912998527"><ele>766.6666666666667</ele><time>2026-04-25T15:44:59.998Z</time></trkpt><trkpt lat="44.84729234905317" lon="7.250676202637917"><ele>766.0</ele><time>2026-04-25T15:45:00.998Z</time></trkpt><trkpt lat="44.84732198238354" lon="7.250796193040258"><ele>765.3333333333334</ele><time>2026-04-25T15:45:01.998Z</time></trkpt><trkpt lat="44.84733464168175" lon="7.250910789743594"><ele>764.6666666666667</ele><time>2026-04-25T15:45:02.998Z</time></trkpt><trkpt lat="44.8473387580088" lon="7.2510076957037475"><ele>764.0</ele><time>2026-04-25T15:45:03.998Z</time></trkpt><trkpt lat="44.847329666501125" lon="7.251147383791454"><ele>763.3333333333334</ele><time>2026-04-25T15:45:05.998Z</time></trkpt><trkpt lat="44.84739620163122" lon="7.251153436131889"><ele>762.6666666666666</ele><time>2026-04-25T15:45:08.998Z</time></trkpt><trkpt lat="44.84744712785736" lon="7.251091650578144"><ele>762.0</ele><time>2026-04-25T15:45:10.998Z</time></trkpt><trkpt lat="44.847490238249016" lon="7.25097840348924"><ele>762.0</ele><time>2026-04-25T15:45:25.998Z</time></trkpt><trkpt lat="44.84752878871333" lon="7.250870601446908"><ele>762.0</ele><time>2026-04-25T15:45:27.997Z</time></trkpt><trkpt lat="44.84758504818075" lon="7.250788566901867"><ele>762.0</ele><time>2026-04-25T15:45:30Z</time></trkpt><trkpt lat="44.84763190568278" lon="7.250698177098022"><ele>762.0</ele><time>2026-04-25T15:45:32Z</time></trkpt><trkpt lat="44.84768221528009" lon="7.250586828471592"><ele>762.0</ele><time>2026-04-25T15:45:34Z</time></trkpt><trkpt lat="44.84775280392072" lon="7.25042724229377"><ele>763.6</ele><time>2026-04-25T15:45:36Z</time></trkpt><trkpt lat="44.84781346225734" lon="7.250312733131001"><ele>765.2</ele><time>2026-04-25T15:45:37Z</time></trkpt><trkpt lat="44.84787278596792" lon="7.250197336101934"><ele>766.8</ele><time>2026-04-25T15:45:38Z</time></trkpt><trkpt lat="44.84791689927282" lon="7.250114018174286"><ele>768.4</ele><time>2026-04-25T15:45:39Z</time></trkpt><trkpt lat="44.84800581733089" lon="7.250012473835467"><ele>770.0</ele><time>2026-04-25T15:45:41Z</time></trkpt><trkpt lat="44.84805484462841" lon="7.249930279677206"><ele>770.0000000000001</ele><time>2026-04-25T15:45:42Z</time></trkpt><trkpt lat="44.84809378412158" lon="7.249839025279855"><ele>770.0</ele><time>2026-04-25T15:45:43Z</time></trkpt><trkpt lat="44.84812677095227" lon="7.249669718354061"><ele>770.0</ele><time>2026-04-25T15:45:45Z</time></trkpt><trkpt lat="44.84814631074352" lon="7.249573115359328"><ele>770.0</ele><time>2026-04-25T15:45:46Z</time></trkpt><trkpt lat="44.848174733439464" lon="7.249464424938655"><ele>770.0000000000001</ele><time>2026-04-25T15:45:47Z</time></trkpt><trkpt lat="44.848212276569555" lon="7.2493762852100865"><ele>770.0</ele><time>2026-04-25T15:45:48Z</time></trkpt><trkpt lat="44.84823977005289" lon="7.249281643138499"><ele>773.3333333333334</ele><time>2026-04-25T15:45:48.999Z</time></trkpt><trkpt lat="44.84826186963115" lon="7.249182977547161"><ele>776.6666666666667</ele><time>2026-04-25T15:45:49.999Z</time></trkpt><trkpt lat="44.84828431104512" lon="7.249097507283051"><ele>780.0</ele><time>2026-04-25T15:45:50.999Z</time></trkpt><trkpt lat="44.84831889715159" lon="7.249017203279684"><ele>783.3333333333333</ele><time>2026-04-25T15:45:51.999Z</time></trkpt><trkpt lat="44.84833879987168" lon="7.248895620556871"><ele>786.6666666666666</ele><time>2026-04-25T15:45:52.999Z</time></trkpt><trkpt lat="44.84836264454309" lon="7.248772423025474"><ele>790.0</ele><time>2026-04-25T15:45:53.999Z</time></trkpt><trkpt lat="44.848384577339104" lon="7.248679127540568"><ele>789.4</ele><time>2026-04-25T15:45:54.999Z</time></trkpt><trkpt lat="44.84841192287142" lon="7.248577882082565"><ele>788.8</ele><time>2026-04-25T15:45:55.999Z</time></trkpt><trkpt lat="44.84843692468023" lon="7.2484640417753585"><ele>788.2</ele><time>2026-04-25T15:45:56.999Z</time></trkpt><trkpt lat="44.84845637928724" lon="7.248365824722471"><ele>787.6</ele><time>2026-04-25T15:45:57.999Z</time></trkpt><trkpt lat="44.848477251959466" lon="7.248226900635525"><ele>787.0</ele><time>2026-04-25T15:45:59.999Z</time></trkpt><trkpt lat="44.84853751703226" lon="7.248077688856529"><ele>789.3333333333333</ele><time>2026-04-25T15:46:01.999Z</time></trkpt><trkpt lat="44.848582190180075" lon="7.247989273692685"><ele>791.6666666666666</ele><time>2026-04-25T15:46:02.999Z</time></trkpt><trkpt lat="44.84864201439436" lon="7.247866434299685"><ele>794.0</ele><time>2026-04-25T15:46:03.999Z</time></trkpt><trkpt lat="44.848686402864935" lon="7.247755056912787"><ele>796.3333333333333</ele><time>2026-04-25T15:46:04.999Z</time></trkpt><trkpt lat="44.84873618867254" lon="7.247660042204068"><ele>798.6666666666666</ele><time>2026-04-25T15:46:05.999Z</time></trkpt><trkpt lat="44.8487869209534" lon="7.247562588865346"><ele>801.0</ele><time>2026-04-25T15:46:06.999Z</time></trkpt><trkpt lat="44.84884727173997" lon="7.247468538000908"><ele>801.0</ele><time>2026-04-25T15:46:07.999Z</time></trkpt><trkpt lat="44.84890829890409" lon="7.247371913315732"><ele>801.0</ele><time>2026-04-25T15:46:08.999Z</time></trkpt><trkpt lat="44.848974806390395" lon="7.247280036777397"><ele>801.0</ele><time>2026-04-25T15:46:09.999Z</time></trkpt><trkpt lat="44.84904643427578" lon="7.247189374384555"><ele>801.0</ele><time>2026-04-25T15:46:10.999Z</time></trkpt><trkpt lat="44.849110429720895" lon="7.247110801157622"><ele>801.0</ele><time>2026-04-25T15:46:11.999Z</time></trkpt><trkpt lat="44.849167274446565" lon="7.247031806794246"><ele>801.0</ele><time>2026-04-25T15:46:12.999Z</time></trkpt><trkpt lat="44.84922260344189" lon="7.246953653084033"><ele>804.5</ele><time>2026-04-25T15:46:13.999Z</time></trkpt><trkpt lat="44.849269172377184" lon="7.246874385681124"><ele>808.0</ele><time>2026-04-25T15:46:14.999Z</time></trkpt><trkpt lat="44.84930935026161" lon="7.246777164444153"><ele>811.5</ele><time>2026-04-25T15:46:15.999Z</time></trkpt><trkpt lat="44.849339963772685" lon="7.246657308144506"><ele>815.0</ele><time>2026-04-25T15:46:16.999Z</time></trkpt><trkpt lat="44.849379949365094" lon="7.24655459396613"><ele>818.5</ele><time>2026-04-25T15:46:17.999Z</time></trkpt><trkpt lat="44.84944051392856" lon="7.2464897911579484"><ele>822.0</ele><time>2026-04-25T15:46:18.999Z</time></trkpt><trkpt lat="44.849525595932406" lon="7.246445700162475"><ele>822.0</ele><time>2026-04-25T15:46:19.999Z</time></trkpt><trkpt lat="44.849604637603846" lon="7.246405281416407"><ele>822.0</ele><time>2026-04-25T15:46:20.999Z</time></trkpt><trkpt lat="44.84967780625325" lon="7.2463657956299965"><ele>822.0</ele><time>2026-04-25T15:46:21.999Z</time></trkpt><trkpt lat="44.84975427069224" lon="7.246341759569554"><ele>822.0</ele><time>2026-04-25T15:46:22.999Z</time></trkpt><trkpt lat="44.849822735454964" lon="7.246344984829091"><ele>822.0</ele><time>2026-04-25T15:46:23.999Z</time></trkpt><trkpt lat="44.84982988959601" lon="7.246481309646603"><ele>822.0</ele><time>2026-04-25T15:46:25.999Z</time></trkpt><trkpt lat="44.84980097807677" lon="7.246623385502331"><ele>822.0</ele><time>2026-04-25T15:46:26.999Z</time></trkpt><trkpt lat="44.84979468663837" lon="7.24676995378462"><ele>822.0</ele><time>2026-04-25T15:46:27.999Z</time></trkpt><trkpt lat="44.84983799148321" lon="7.24696272492005"><ele>822.0</ele><time>2026-04-25T15:46:28.999Z</time></trkpt><trkpt lat="44.84995766390936" lon="7.24717297446161"><ele>822.0</ele><time>2026-04-25T15:46:29.999Z</time></trkpt><trkpt lat="44.85005670730002" lon="7.2473214212553385"><ele>819.6</ele><time>2026-04-25T15:46:30.999Z</time></trkpt><trkpt lat="44.85009328251368" lon="7.247474779902455"><ele>817.2</ele><time>2026-04-25T15:46:31.999Z</time></trkpt><trkpt lat="44.85011960560748" lon="7.247583961599499"><ele>814.8</ele><time>2026-04-25T15:46:32.999Z</time></trkpt><trkpt lat="44.8501739903159" lon="7.247705084637542"><ele>812.4</ele><time>2026-04-25T15:46:33.999Z</time></trkpt><trkpt lat="44.85020964802826" lon="7.247850271705227"><ele>810.0</ele><time>2026-04-25T15:46:34.999Z</time></trkpt><trkpt lat="44.850263129235934" lon="7.24797178281539"><ele>815.8</ele><time>2026-04-25T15:46:35.999Z</time></trkpt><trkpt lat="44.85031521642867" lon="7.248072940115475"><ele>821.6</ele><time>2026-04-25T15:46:36.999Z</time></trkpt><trkpt lat="44.85037788641279" lon="7.248100775627187"><ele>827.4000000000001</ele><time>2026-04-25T15:46:37.999Z</time></trkpt><trkpt lat="44.850497274392204" lon="7.248083257831318"><ele>833.2</ele><time>2026-04-25T15:46:38.999Z</time></trkpt><trkpt lat="44.85064016718654" lon="7.248058252301964"><ele>839.0</ele><time>2026-04-25T15:46:39.998Z</time></trkpt><trkpt lat="44.85082353706273" lon="7.24797669145625"><ele>839.0</ele><time>2026-04-25T15:46:40.998Z</time></trkpt><trkpt lat="44.85095659743467" lon="7.247981920450551"><ele>839.0</ele><time>2026-04-25T15:46:41.998Z</time></trkpt><trkpt lat="44.85102948090624" lon="7.247991160807236"><ele>839.0</ele><time>2026-04-25T15:46:42.998Z</time></trkpt><trkpt lat="44.85109244234282" lon="7.248010547819679"><ele>839.0</ele><time>2026-04-25T15:46:43.998Z</time></trkpt><trkpt lat="44.85120557267715" lon="7.248068072175538"><ele>839.0</ele><time>2026-04-25T15:46:45.998Z</time></trkpt><trkpt lat="44.85125359630066" lon="7.248179690579924"><ele>838.25</ele><time>2026-04-25T15:46:46.998Z</time></trkpt><trkpt lat="44.85128778343375" lon="7.248370677355407"><ele>837.5</ele><time>2026-04-25T15:46:47.998Z</time></trkpt><trkpt lat="44.851294691399715" lon="7.2485995304574615"><ele>836.75</ele><time>2026-04-25T15:46:48.998Z</time></trkpt><trkpt lat="44.8513177276202" lon="7.248767562054462"><ele>836.0</ele><time>2026-04-25T15:46:49.998Z</time></trkpt><trkpt lat="44.851325247383976" lon="7.248903923358453"><ele>834.0</ele><time>2026-04-25T15:46:50.998Z</time></trkpt><trkpt lat="44.851335344689026" lon="7.249074233031687"><ele>832.0</ele><time>2026-04-25T15:46:51.998Z</time></trkpt><trkpt lat="44.85137876322605" lon="7.249197429258025"><ele>830.0</ele><time>2026-04-25T15:46:52.998Z</time></trkpt><trkpt lat="44.851437335316824" lon="7.249314622322611"><ele>828.0</ele><time>2026-04-25T15:46:53.998Z</time></trkpt><trkpt lat="44.8515117176857" lon="7.24940877006931"><ele>826.0</ele><time>2026-04-25T15:46:54.998Z</time></trkpt><trkpt lat="44.8515737863508" lon="7.249447974782846"><ele>826.0</ele><time>2026-04-25T15:46:55.998Z</time></trkpt><trkpt lat="44.85165674505093" lon="7.249469720983442"><ele>826.0</ele><time>2026-04-25T15:46:56.998Z</time></trkpt><trkpt lat="44.85174978838987" lon="7.249441602659283"><ele>826.0</ele><time>2026-04-25T15:46:57.998Z</time></trkpt><trkpt lat="44.85187949351711" lon="7.249412700530644"><ele>826.0</ele><time>2026-04-25T15:46:58.998Z</time></trkpt><trkpt lat="44.85200755949879" lon="7.249392581465054"><ele>826.0</ele><time>2026-04-25T15:46:59.998Z</time></trkpt><trkpt lat="44.85212364992546" lon="7.2493211812502585"><ele>826.5</ele><time>2026-04-25T15:47:00.998Z</time></trkpt><trkpt lat="44.85223349236173" lon="7.249191221804446"><ele>827.0</ele><time>2026-04-25T15:47:01.998Z</time></trkpt><trkpt lat="44.852353715774115" lon="7.249078762197529"><ele>827.5</ele><time>2026-04-25T15:47:02.998Z</time></trkpt><trkpt lat="44.85247080420583" lon="7.248999155252276"><ele>828.0</ele><time>2026-04-25T15:47:03.998Z</time></trkpt><trkpt lat="44.85258001992293" lon="7.2489879494779546"><ele>830.0</ele><time>2026-04-25T15:47:04.998Z</time></trkpt><trkpt lat="44.85268133208578" lon="7.248998674257978"><ele>832.0</ele><time>2026-04-25T15:47:05.998Z</time></trkpt><trkpt lat="44.8528091135022" lon="7.2490336818533825"><ele>834.0</ele><time>2026-04-25T15:47:06.998Z</time></trkpt><trkpt lat="44.85291560405639" lon="7.249004814819121"><ele>836.0</ele><time>2026-04-25T15:47:07.998Z</time></trkpt><trkpt lat="44.85301068484203" lon="7.248997160601027"><ele>838.0</ele><time>2026-04-25T15:47:08.998Z</time></trkpt><trkpt lat="44.85311313486444" lon="7.248986963894413"><ele>837.9999999999999</ele><time>2026-04-25T15:47:09.998Z</time></trkpt><trkpt lat="44.85321605061571" lon="7.2489919612574445"><ele>838.0</ele><time>2026-04-25T15:47:10.998Z</time></trkpt><trkpt lat="44.85330137289497" lon="7.24898716698679"><ele>838.0</ele><time>2026-04-25T15:47:11.998Z</time></trkpt><trkpt lat="44.85338129332284" lon="7.249007894833908"><ele>838.0</ele><time>2026-04-25T15:47:12.998Z</time></trkpt><trkpt lat="44.85343509611871" lon="7.249063351230001"><ele>837.9999999999999</ele><time>2026-04-25T15:47:13.998Z</time></trkpt><trkpt lat="44.853456629625455" lon="7.249179697300519"><ele>838.0</ele><time>2026-04-25T15:47:14.998Z</time></trkpt><trkpt lat="44.85347436219021" lon="7.249327949273983"><ele>841.0</ele><time>2026-04-25T15:47:15.998Z</time></trkpt><trkpt lat="44.85347926494893" lon="7.24953560220328"><ele>844.0</ele><time>2026-04-25T15:47:16.998Z</time></trkpt><trkpt lat="44.85351279538615" lon="7.249688944294499"><ele>847.0</ele><time>2026-04-25T15:47:17.998Z</time></trkpt><trkpt lat="44.85354986290015" lon="7.249789178084525"><ele>850.0</ele><time>2026-04-25T15:47:18.998Z</time></trkpt><trkpt lat="44.85365850491234" lon="7.249861055037537"><ele>850.0</ele><time>2026-04-25T15:47:20.998Z</time></trkpt><trkpt lat="44.853743852850954" lon="7.249852190263909"><ele>850.0</ele><time>2026-04-25T15:47:21.998Z</time></trkpt><trkpt lat="44.85382815247056" lon="7.2498935095804455"><ele>850.0</ele><time>2026-04-25T15:47:22.998Z</time></trkpt><trkpt lat="44.853972467534795" lon="7.249913302299115"><ele>850.0</ele><time>2026-04-25T15:47:23.998Z</time></trkpt><trkpt lat="44.854117813243924" lon="7.249954205500363"><ele>850.0</ele><time>2026-04-25T15:47:24.998Z</time></trkpt><trkpt lat="44.854286903615254" lon="7.2500287670676595"><ele>850.0</ele><time>2026-04-25T15:47:25.998Z</time></trkpt><trkpt lat="44.85442916592142" lon="7.2501354664022255"><ele>850.0</ele><time>2026-04-25T15:47:26.998Z</time></trkpt><trkpt lat="44.854559593898706" lon="7.250173338890844"><ele>851.0</ele><time>2026-04-25T15:47:27.998Z</time></trkpt><trkpt lat="44.85469469291372" lon="7.25021796184506"><ele>852.0</ele><time>2026-04-25T15:47:28.998Z</time></trkpt><trkpt lat="44.854774570424" lon="7.250176659277505"><ele>853.0</ele><time>2026-04-25T15:47:29.997Z</time></trkpt><trkpt lat="44.85483007345666" lon="7.250252387691849"><ele>854.0</ele><time>2026-04-25T15:47:33.997Z</time></trkpt><trkpt lat="44.85485729851006" lon="7.250352595754077"><ele>855.0</ele><time>2026-04-25T15:47:38Z</time></trkpt><trkpt lat="44.8548423499332" lon="7.250452612060478"><ele>855.0</ele><time>2026-04-25T15:47:42Z</time></trkpt><trkpt lat="44.85484079236226" lon="7.250553171254625"><ele>855.0</ele><time>2026-04-25T15:47:44Z</time></trkpt><trkpt lat="44.854909289358496" lon="7.250686176624907"><ele>855.0</ele><time>2026-04-25T15:47:46Z</time></trkpt><trkpt lat="44.85496086982676" lon="7.25076505149733"><ele>855.0</ele><time>2026-04-25T15:47:47Z</time></trkpt><trkpt lat="44.85500992464697" lon="7.250837667691994"><ele>855.0</ele><time>2026-04-25T15:47:48Z</time></trkpt><trkpt lat="44.855102127152236" lon="7.2509500271090435"><ele>853.2</ele><time>2026-04-25T15:47:50Z</time></trkpt><trkpt lat="44.85519171654636" lon="7.251102498056932"><ele>851.4</ele><time>2026-04-25T15:47:51.999Z</time></trkpt><trkpt lat="44.85523705696072" lon="7.251181797462252"><ele>849.5999999999999</ele><time>2026-04-25T15:47:52.999Z</time></trkpt><trkpt lat="44.855326139496846" lon="7.251296348248297"><ele>847.8</ele><time>2026-04-25T15:47:54.999Z</time></trkpt><trkpt lat="44.855390443119866" lon="7.25134715460793"><ele>846.0</ele><time>2026-04-25T15:47:55.999Z</time></trkpt><trkpt lat="44.855455679819904" lon="7.251381679547654"><ele>846.0</ele><time>2026-04-25T15:47:56.999Z</time></trkpt><trkpt lat="44.855519279763186" lon="7.2514024943794615"><ele>846.0</ele><time>2026-04-25T15:47:57.999Z</time></trkpt><trkpt lat="44.85559215028227" lon="7.251408293305549"><ele>846.0</ele><time>2026-04-25T15:47:58.999Z</time></trkpt><trkpt lat="44.85568701819712" lon="7.251393123863101"><ele>846.0</ele><time>2026-04-25T15:47:59.999Z</time></trkpt><trkpt lat="44.85578275556686" lon="7.25137717678431"><ele>846.0</ele><time>2026-04-25T15:48:00.999Z</time></trkpt><trkpt lat="44.85586297185696" lon="7.251358674866359"><ele>846.0</ele><time>2026-04-25T15:48:01.999Z</time></trkpt><trkpt lat="44.85592809732555" lon="7.2513487077111"><ele>843.1999999999999</ele><time>2026-04-25T15:48:02.999Z</time></trkpt><trkpt lat="44.85600765494599" lon="7.2514185845858865"><ele>840.4</ele><time>2026-04-25T15:48:04.999Z</time></trkpt><trkpt lat="44.856123828840076" lon="7.251432102910209"><ele>837.6</ele><time>2026-04-25T15:48:06.999Z</time></trkpt><trkpt lat="44.856195963003046" lon="7.251426284394577"><ele>834.8</ele><time>2026-04-25T15:48:07.999Z</time></trkpt><trkpt lat="44.85628015623602" lon="7.251438831390421"><ele>832.0</ele><time>2026-04-25T15:48:08.999Z</time></trkpt><trkpt lat="44.85637304099441" lon="7.251439390160884"><ele>830.3333333333333</ele><time>2026-04-25T15:48:09.999Z</time></trkpt><trkpt lat="44.85646572176807" lon="7.251465405176461"><ele>828.6666666666666</ele><time>2026-04-25T15:48:10.999Z</time></trkpt><trkpt lat="44.856530344935855" lon="7.251505399503132"><ele>827.0</ele><time>2026-04-25T15:48:11.999Z</time></trkpt><trkpt lat="44.85659271838936" lon="7.251530447678738"><ele>825.3333333333333</ele><time>2026-04-25T15:48:12.999Z</time></trkpt><trkpt lat="44.856674722418255" lon="7.251544490624376"><ele>823.6666666666666</ele><time>2026-04-25T15:48:13.999Z</time></trkpt><trkpt lat="44.85673917450873" lon="7.251515370909142"><ele>822.0</ele><time>2026-04-25T15:48:14.999Z</time></trkpt><trkpt lat="44.8568317227656" lon="7.25143326698036"><ele>822.0</ele><time>2026-04-25T15:48:16.999Z</time></trkpt><trkpt lat="44.85689660914674" lon="7.251419904929224"><ele>822.0</ele><time>2026-04-25T15:48:17.999Z</time></trkpt><trkpt lat="44.85699074041081" lon="7.251425360252578"><ele>822.0</ele><time>2026-04-25T15:48:18.999Z</time></trkpt><trkpt lat="44.85707597258856" lon="7.251451906164273"><ele>822.0</ele><time>2026-04-25T15:48:19.999Z</time></trkpt><trkpt lat="44.85713856784243" lon="7.251477872109162"><ele>822.0</ele><time>2026-04-25T15:48:20.999Z</time></trkpt><trkpt lat="44.85723680817219" lon="7.251523205376437"><ele>822.0</ele><time>2026-04-25T15:48:22.999Z</time></trkpt><trkpt lat="44.85729876574393" lon="7.251559389034191"><ele>824.2</ele><time>2026-04-25T15:48:23.999Z</time></trkpt><trkpt lat="44.85736366088977" lon="7.2515932269131405"><ele>826.4000000000001</ele><time>2026-04-25T15:48:24.999Z</time></trkpt><trkpt lat="44.857426811404906" lon="7.251639571305084"><ele>828.5999999999999</ele><time>2026-04-25T15:48:25.999Z</time></trkpt><trkpt lat="44.85755662847517" lon="7.251685403688355"><ele>830.8</ele><time>2026-04-25T15:48:27.999Z</time></trkpt><trkpt lat="44.8576437606063" lon="7.251683392661237"><ele>833.0</ele><time>2026-04-25T15:48:28.999Z</time></trkpt><trkpt lat="44.857741043690524" lon="7.25167373430135"><ele>833.0000000000001</ele><time>2026-04-25T15:48:29.999Z</time></trkpt><trkpt lat="44.85783213445468" lon="7.251672427307354"><ele>833.0</ele><time>2026-04-25T15:48:30.999Z</time></trkpt><trkpt lat="44.85791226330582" lon="7.251690925744382"><ele>833.0</ele><time>2026-04-25T15:48:31.999Z</time></trkpt><trkpt lat="44.857977796064354" lon="7.251704514545844"><ele>833.0</ele><time>2026-04-25T15:48:36.999Z</time></trkpt><trkpt lat="44.85806245596919" lon="7.251713691448932"><ele>833.0000000000001</ele><time>2026-04-25T15:48:38.999Z</time></trkpt><trkpt lat="44.85818248810184" lon="7.251701758374104"><ele>833.0</ele><time>2026-04-25T15:48:40.999Z</time></trkpt><trkpt lat="44.85828093485611" lon="7.251638710123233"><ele>833.0</ele><time>2026-04-25T15:48:43.998Z</time></trkpt><trkpt lat="44.85838919488281" lon="7.251627622826586"><ele>833.0</ele><time>2026-04-25T15:48:46.998Z</time></trkpt><trkpt lat="44.85859136239204" lon="7.2515599384972935"><ele>833.0</ele><time>2026-04-25T15:48:48.998Z</time></trkpt><trkpt lat="44.85867134825055" lon="7.251510734354733"><ele>833.0</ele><time>2026-04-25T15:48:49.998Z</time></trkpt><trkpt lat="44.85874404428909" lon="7.251453609529651"><ele>827.3333333333334</ele><time>2026-04-25T15:48:50.998Z</time></trkpt><trkpt lat="44.858841279945175" lon="7.251383349576465"><ele>821.6666666666667</ele><time>2026-04-25T15:48:51.998Z</time></trkpt><trkpt lat="44.85892125681665" lon="7.251316880840853"><ele>816.0</ele><time>2026-04-25T15:48:52.998Z</time></trkpt><trkpt lat="44.85898649959252" lon="7.251247182589738"><ele>810.3333333333333</ele><time>2026-04-25T15:48:53.998Z</time></trkpt><trkpt lat="44.859003357084774" lon="7.251147665351435"><ele>804.6666666666666</ele><time>2026-04-25T15:48:56.998Z</time></trkpt><trkpt lat="44.85902784893532" lon="7.2512409500268955"><ele>799.0</ele><time>2026-04-25T15:49:00.998Z</time></trkpt><trkpt lat="44.85901533525708" lon="7.251350521275078"><ele>801.0</ele><time>2026-04-25T15:49:02.998Z</time></trkpt><trkpt lat="44.85899059820328" lon="7.251520214841357"><ele>803.0</ele><time>2026-04-25T15:49:04.998Z</time></trkpt><trkpt lat="44.858980136246124" lon="7.251636719812015"><ele>805.0</ele><time>2026-04-25T15:49:05.998Z</time></trkpt><trkpt lat="44.858973680614895" lon="7.251772543468392"><ele>807.0</ele><time>2026-04-25T15:49:06.998Z</time></trkpt><trkpt lat="44.85895338951637" lon="7.251899271853363"><ele>809.0</ele><time>2026-04-25T15:49:07.998Z</time></trkpt><trkpt lat="44.859069361227384" lon="7.252327431840237"><ele>809.2</ele><time>2026-04-25T15:49:08.998Z</time></trkpt><trkpt lat="44.859117135931285" lon="7.252481015341835"><ele>809.4000000000001</ele><time>2026-04-25T15:49:09.998Z</time></trkpt><trkpt lat="44.85915476527213" lon="7.252595013107731"><ele>809.6</ele><time>2026-04-25T15:49:10.998Z</time></trkpt><trkpt lat="44.85914663661083" lon="7.25273362467102"><ele>809.8</ele><time>2026-04-25T15:49:11.998Z</time></trkpt><trkpt lat="44.859163273290946" lon="7.252844130791763"><ele>810.0</ele><time>2026-04-25T15:49:13.998Z</time></trkpt><trkpt lat="44.859237655970055" lon="7.252889659241995"><ele>804.8333333333334</ele><time>2026-04-25T15:49:15.998Z</time></trkpt><trkpt lat="44.85932580003451" lon="7.2529483021406485"><ele>799.6666666666667</ele><time>2026-04-25T15:49:17.998Z</time></trkpt><trkpt lat="44.85940293225093" lon="7.252952382766599"><ele>794.5</ele><time>2026-04-25T15:49:20.998Z</time></trkpt><trkpt lat="44.859472410793195" lon="7.252970048070422"><ele>789.3333333333334</ele><time>2026-04-25T15:49:22.998Z</time></trkpt><trkpt lat="44.85953697531972" lon="7.252972010585469"><ele>784.1666666666667</ele><time>2026-04-25T15:49:24.998Z</time></trkpt><trkpt lat="44.85962189238824" lon="7.252939322884113"><ele>779.0</ele><time>2026-04-25T15:49:27.998Z</time></trkpt><trkpt lat="44.85969793447528" lon="7.2529108278244205"><ele>779.0</ele><time>2026-04-25T15:49:30.998Z</time></trkpt><trkpt lat="44.85975822685979" lon="7.252876358525683"><ele>779.0</ele><time>2026-04-25T15:49:32.997Z</time></trkpt><trkpt lat="44.85992554546683" lon="7.252806246329102"><ele>779.0</ele><time>2026-04-25T15:49:33.997Z</time></trkpt><trkpt lat="44.86001136691093" lon="7.252767747307285"><ele>779.0</ele><time>2026-04-25T15:49:35.997Z</time></trkpt><trkpt lat="44.86008685556815" lon="7.252749478557265"><ele>779.0</ele><time>2026-04-25T15:49:37.997Z</time></trkpt><trkpt lat="44.86018732772332" lon="7.2526971532168645"><ele>774.3333333333334</ele><time>2026-04-25T15:49:39.999Z</time></trkpt><trkpt lat="44.860265081857925" lon="7.252698031428433"><ele>769.6666666666667</ele><time>2026-04-25T15:49:41.999Z</time></trkpt><trkpt lat="44.86034294151461" lon="7.252670888268769"><ele>765.0</ele><time>2026-04-25T15:49:43.999Z</time></trkpt><trkpt lat="44.860403588813405" lon="7.252643720942069"><ele>760.3333333333334</ele><time>2026-04-25T15:49:53.999Z</time></trkpt><trkpt lat="44.86041469593209" lon="7.252549078348013"><ele>755.6666666666667</ele><time>2026-04-25T15:50:04.999Z</time></trkpt><trkpt lat="44.8603325004643" lon="7.2525523833093395"><ele>751.0</ele><time>2026-04-25T15:50:24.999Z</time></trkpt><trkpt lat="44.86029697039513" lon="7.25266329295595"><ele>751.0000000000001</ele><time>2026-04-25T15:54:38Z</time></trkpt><trkpt lat="44.86033206370779" lon="7.252745971639436"><ele>751.0</ele><time>2026-04-25T15:54:58.999Z</time></trkpt><trkpt lat="44.86028585862846" lon="7.252810527813701"><ele>751.0</ele><time>2026-04-25T15:55:29.999Z</time></trkpt><trkpt lat="44.86023732318298" lon="7.25289303273415"><ele>751.0</ele><time>2026-04-25T15:55:38.999Z</time></trkpt><trkpt lat="44.86019388906965" lon="7.252966630559478"><ele>751.0</ele><time>2026-04-25T15:55:43.998Z</time></trkpt><trkpt lat="44.86014857463476" lon="7.253048251253396"><ele>751.0000000000001</ele><time>2026-04-25T15:55:51.998Z</time></trkpt><trkpt lat="44.860110218501795" lon="7.253148094855326"><ele>751.0</ele><time>2026-04-25T15:55:55.998Z</time></trkpt><trkpt lat="44.86006943543828" lon="7.2532740534920315"><ele>755.0</ele><time>2026-04-25T15:55:59Z</time></trkpt><trkpt lat="44.86002457406321" lon="7.253370167838951"><ele>759.0</ele><time>2026-04-25T15:56:01Z</time></trkpt><trkpt lat="44.85996025759009" lon="7.2534840673626215"><ele>763.0</ele><time>2026-04-25T15:56:03Z</time></trkpt><trkpt lat="44.85986977752666" lon="7.253597201998362"><ele>767.0</ele><time>2026-04-25T15:56:05Z</time></trkpt><trkpt lat="44.85982138236848" lon="7.2536962569907715"><ele>771.0</ele><time>2026-04-25T15:56:08Z</time></trkpt><trkpt lat="44.85974286107535" lon="7.253772488583183"><ele>771.0</ele><time>2026-04-25T15:56:11Z</time></trkpt><trkpt lat="44.85967194571248" lon="7.253850564783192"><ele>771.0</ele><time>2026-04-25T15:56:14Z</time></trkpt><trkpt lat="44.85961098253376" lon="7.253879934639006"><ele>771.0</ele><time>2026-04-25T15:56:22Z</time></trkpt><trkpt lat="44.85952886260072" lon="7.2539383613388635"><ele>771.0</ele><time>2026-04-25T15:56:39Z</time></trkpt><trkpt lat="44.85947052892552" lon="7.254069256808568"><ele>771.0</ele><time>2026-04-25T15:56:41Z</time></trkpt><trkpt lat="44.85937148688895" lon="7.254192707060996"><ele>770.1999999999999</ele><time>2026-04-25T15:56:43Z</time></trkpt><trkpt lat="44.859277612222684" lon="7.254290290709617"><ele>769.4</ele><time>2026-04-25T15:56:45Z</time></trkpt><trkpt lat="44.85921044289243" lon="7.254396818839056"><ele>768.6</ele><time>2026-04-25T15:56:47Z</time></trkpt><trkpt lat="44.85912243445496" lon="7.254436853457265"><ele>767.8</ele><time>2026-04-25T15:56:49Z</time></trkpt><trkpt lat="44.85901588877739" lon="7.254374797610413"><ele>767.0</ele><time>2026-04-25T15:56:51Z</time></trkpt><trkpt lat="44.85890111060028" lon="7.254302588598468"><ele>767.0</ele><time>2026-04-25T15:56:53Z</time></trkpt><trkpt lat="44.858800717901985" lon="7.25423709966482"><ele>767.0</ele><time>2026-04-25T15:56:55Z</time></trkpt><trkpt lat="44.858691633350624" lon="7.254308308628474"><ele>767.0</ele><time>2026-04-25T15:56:57Z</time></trkpt><trkpt lat="44.85855689896256" lon="7.254332256197309"><ele>767.0</ele><time>2026-04-25T15:56:58.999Z</time></trkpt><trkpt lat="44.858499660083226" lon="7.254378164418758"><ele>767.0</ele><time>2026-04-25T15:57:00.999Z</time></trkpt><trkpt lat="44.85844043266369" lon="7.254431298430862"><ele>768.2857142857143</ele><time>2026-04-25T15:57:05.999Z</time></trkpt><trkpt lat="44.85837412801214" lon="7.254449587914312"><ele>769.5714285714287</ele><time>2026-04-25T15:57:10.999Z</time></trkpt><trkpt lat="44.858311028972906" lon="7.2544541407346665"><ele>770.8571428571429</ele><time>2026-04-25T15:57:20.999Z</time></trkpt><trkpt lat="44.8582963502832" lon="7.254549747466929"><ele>772.1428571428571</ele><time>2026-04-25T15:57:32.999Z</time></trkpt><trkpt lat="44.85828362103267" lon="7.2546449075696895"><ele>773.4285714285714</ele><time>2026-04-25T15:57:44.999Z</time></trkpt><trkpt lat="44.85825078073137" lon="7.254726427216969"><ele>774.7142857142857</ele><time>2026-04-25T15:57:50.998Z</time></trkpt><trkpt lat="44.858218439435966" lon="7.254802761872792"><ele>776.0</ele><time>2026-04-25T15:58:30Z</time></trkpt><trkpt lat="44.85814764216697" lon="7.2548514904382175"><ele>772.2857142857142</ele><time>2026-04-25T15:58:47Z</time></trkpt><trkpt lat="44.85809408157236" lon="7.254901069085238"><ele>768.5714285714287</ele><time>2026-04-25T15:58:50Z</time></trkpt><trkpt lat="44.85804022901067" lon="7.254969067896345"><ele>764.8571428571429</ele><time>2026-04-25T15:58:58Z</time></trkpt><trkpt lat="44.85796999321556" lon="7.254998017555503"><ele>761.1428571428571</ele><time>2026-04-25T16:00:15Z</time></trkpt><trkpt lat="44.857900441857005" lon="7.255010887936932"><ele>757.4285714285713</ele><time>2026-04-25T16:00:23Z</time></trkpt><trkpt lat="44.85786788361845" lon="7.254932604047814"><ele>753.7142857142858</ele><time>2026-04-25T16:00:28Z</time></trkpt><trkpt lat="44.85778782319731" lon="7.2548915313516265"><ele>750.0</ele><time>2026-04-25T16:00:32Z</time></trkpt><trkpt lat="44.85772414255315" lon="7.254922978453624"><ele>750.0</ele><time>2026-04-25T16:00:35Z</time></trkpt><trkpt lat="44.857659241664656" lon="7.254966743677424"><ele>750.0</ele><time>2026-04-25T16:00:38Z</time></trkpt><trkpt lat="44.85755255818126" lon="7.254951292833645"><ele>750.0</ele><time>2026-04-25T16:00:40Z</time></trkpt><trkpt lat="44.85747165725741" lon="7.2549435638648205"><ele>750.0</ele><time>2026-04-25T16:00:42Z</time></trkpt><trkpt lat="44.85740017328619" lon="7.2550582350630135"><ele>750.0</ele><time>2026-04-25T16:00:47Z</time></trkpt><trkpt lat="44.85735547121843" lon="7.25519765596237"><ele>752.6666666666666</ele><time>2026-04-25T16:00:49Z</time></trkpt><trkpt lat="44.85723634499373" lon="7.255284601836689"><ele>755.3333333333334</ele><time>2026-04-25T16:00:51Z</time></trkpt><trkpt lat="44.8571967978319" lon="7.255364431804381"><ele>758.0</ele><time>2026-04-25T16:00:55Z</time></trkpt><trkpt lat="44.8571073392185" lon="7.255375522639232"><ele>760.6666666666667</ele><time>2026-04-25T16:00:58Z</time></trkpt><trkpt lat="44.857043367052995" lon="7.255386290993556"><ele>763.3333333333334</ele><time>2026-04-25T16:01:00Z</time></trkpt><trkpt lat="44.85697044875149" lon="7.2553984845692305"><ele>766.0</ele><time>2026-04-25T16:01:03Z</time></trkpt><trkpt lat="44.85690306424557" lon="7.255441698062556"><ele>766.0</ele><time>2026-04-25T16:01:05.999Z</time></trkpt><trkpt lat="44.856829181626104" lon="7.2554631874216104"><ele>766.0</ele><time>2026-04-25T16:01:08.999Z</time></trkpt><trkpt lat="44.85652952503278" lon="7.255577555373998"><ele>766.0</ele><time>2026-04-25T16:01:10.999Z</time></trkpt><trkpt lat="44.85644963927717" lon="7.255672298911254"><ele>767.6666666666667</ele><time>2026-04-25T16:01:11.999Z</time></trkpt><trkpt lat="44.85640721335925" lon="7.255767565756527"><ele>769.3333333333334</ele><time>2026-04-25T16:01:12.999Z</time></trkpt><trkpt lat="44.85635926703356" lon="7.255847243718282"><ele>771.0</ele><time>2026-04-25T16:01:13.999Z</time></trkpt><trkpt lat="44.85632429012813" lon="7.255928578002099"><ele>772.6666666666667</ele><time>2026-04-25T16:01:14.999Z</time></trkpt><trkpt lat="44.85625128934757" lon="7.256057782988886"><ele>774.3333333333334</ele><time>2026-04-25T16:01:16.999Z</time></trkpt><trkpt lat="44.85620212298186" lon="7.256157636256598"><ele>776.0</ele><time>2026-04-25T16:01:17.999Z</time></trkpt><trkpt lat="44.85630093997734" lon="7.256314485513857"><ele>776.0</ele><time>2026-04-25T16:01:18.999Z</time></trkpt><trkpt lat="44.85622420322727" lon="7.256336317192768"><ele>776.0</ele><time>2026-04-25T16:01:19.999Z</time></trkpt><trkpt lat="44.85610680828049" lon="7.256347061970356"><ele>776.0</ele><time>2026-04-25T16:01:20.999Z</time></trkpt><trkpt lat="44.85602329464704" lon="7.2564113014661205"><ele>776.0</ele><time>2026-04-25T16:01:21.999Z</time></trkpt><trkpt lat="44.856007588972304" lon="7.256512791646565"><ele>776.0</ele><time>2026-04-25T16:01:23.999Z</time></trkpt><trkpt lat="44.85595862317523" lon="7.2566263114146565"><ele>780.1999999999999</ele><time>2026-04-25T16:01:26.999Z</time></trkpt><trkpt lat="44.85584756805372" lon="7.256674874188051"><ele>784.4</ele><time>2026-04-25T16:01:27.999Z</time></trkpt><trkpt lat="44.85584923058845" lon="7.25678613217491"><ele>788.6</ele><time>2026-04-25T16:01:30.999Z</time></trkpt><trkpt lat="44.85583914235286" lon="7.256934435257858"><ele>792.8</ele><time>2026-04-25T16:01:32.999Z</time></trkpt><trkpt lat="44.85579497704776" lon="7.25711982761545"><ele>797.0</ele><time>2026-04-25T16:01:34.999Z</time></trkpt><trkpt lat="44.85579074331891" lon="7.25722358242571"><ele>798.0000000000001</ele><time>2026-04-25T16:01:35.999Z</time></trkpt><trkpt lat="44.85578900967766" lon="7.257357838769592"><ele>799.0</ele><time>2026-04-25T16:01:36.999Z</time></trkpt><trkpt lat="44.855792743177034" lon="7.2574726678574955"><ele>800.0</ele><time>2026-04-25T16:01:37.999Z</time></trkpt><trkpt lat="44.855805794861475" lon="7.257589922780872"><ele>801.0</ele><time>2026-04-25T16:01:38.999Z</time></trkpt><trkpt lat="44.85583086708847" lon="7.257700694641954"><ele>802.0000000000001</ele><time>2026-04-25T16:01:39.999Z</time></trkpt><trkpt lat="44.85584333904366" lon="7.25781477552797"><ele>803.0</ele><time>2026-04-25T16:01:40.999Z</time></trkpt><trkpt lat="44.85585285302352" lon="7.257923883712769"><ele>803.0</ele><time>2026-04-25T16:01:41.999Z</time></trkpt><trkpt lat="44.85586026394041" lon="7.258031558757236"><ele>803.0</ele><time>2026-04-25T16:01:42.999Z</time></trkpt><trkpt lat="44.85586701765674" lon="7.258137164551375"><ele>803.0</ele><time>2026-04-25T16:01:43.999Z</time></trkpt><trkpt lat="44.855875194019035" lon="7.258236361447148"><ele>803.0</ele><time>2026-04-25T16:01:44.999Z</time></trkpt><trkpt lat="44.85589923342544" lon="7.258357130111767"><ele>803.0</ele><time>2026-04-25T16:01:46.999Z</time></trkpt><trkpt lat="44.85615362074514" lon="7.258586388410104"><ele>803.5999999999999</ele><time>2026-04-25T16:01:47.999Z</time></trkpt><trkpt lat="44.85623204926228" lon="7.258552520987133"><ele>804.1999999999999</ele><time>2026-04-25T16:01:51.999Z</time></trkpt><trkpt lat="44.85628932949111" lon="7.258416818626346"><ele>804.8</ele><time>2026-04-25T16:01:54.998Z</time></trkpt><trkpt lat="44.85634241947872" lon="7.25832653885431"><ele>805.4</ele><time>2026-04-25T16:01:55.998Z</time></trkpt><trkpt lat="44.856379434028646" lon="7.2582453983568875"><ele>806.0</ele><time>2026-04-25T16:01:56.998Z</time></trkpt><trkpt lat="44.85646566970438" lon="7.258145886464349"><ele>801.1999999999999</ele><time>2026-04-25T16:01:57.998Z</time></trkpt><trkpt lat="44.85653772894502" lon="7.2580659373249965"><ele>796.4</ele><time>2026-04-25T16:01:58.998Z</time></trkpt><trkpt lat="44.85661843519886" lon="7.258004344012163"><ele>791.6</ele><time>2026-04-25T16:01:59.998Z</time></trkpt><trkpt lat="44.856695465908615" lon="7.257961047435782"><ele>786.8</ele><time>2026-04-25T16:02:00.998Z</time></trkpt><trkpt lat="44.856791947078996" lon="7.257918780574725"><ele>782.0</ele><time>2026-04-25T16:02:01.998Z</time></trkpt><trkpt lat="44.856894433762754" lon="7.257871522100663"><ele>781.4000000000001</ele><time>2026-04-25T16:02:02.998Z</time></trkpt><trkpt lat="44.856984028205055" lon="7.257862418100899"><ele>780.8000000000001</ele><time>2026-04-25T16:02:03.998Z</time></trkpt><trkpt lat="44.857074765811106" lon="7.25785215444876"><ele>780.2</ele><time>2026-04-25T16:02:04.998Z</time></trkpt><trkpt lat="44.857182426442556" lon="7.257883087203199"><ele>779.6</ele><time>2026-04-25T16:02:05.998Z</time></trkpt><trkpt lat="44.85731010303132" lon="7.2579036977293425"><ele>779.0</ele><time>2026-04-25T16:02:06.998Z</time></trkpt><trkpt lat="44.85737257742771" lon="7.257953647943784"><ele>779.0</ele><time>2026-04-25T16:02:07.998Z</time></trkpt><trkpt lat="44.857448985602616" lon="7.258085739741807"><ele>779.0</ele><time>2026-04-25T16:02:08.998Z</time></trkpt><trkpt lat="44.85753584753762" lon="7.2582510783151815"><ele>779.0</ele><time>2026-04-25T16:02:09.998Z</time></trkpt><trkpt lat="44.857583823383905" lon="7.258401225573763"><ele>779.0</ele><time>2026-04-25T16:02:10.998Z</time></trkpt><trkpt lat="44.85760402274185" lon="7.258568599377354"><ele>778.8333333333334</ele><time>2026-04-25T16:02:12.998Z</time></trkpt><trkpt lat="44.85762460411921" lon="7.258659249863083"><ele>778.6666666666667</ele><time>2026-04-25T16:02:13.998Z</time></trkpt><trkpt lat="44.85765561723218" lon="7.2587544584762815"><ele>778.5</ele><time>2026-04-25T16:02:15Z</time></trkpt><trkpt lat="44.85770267880448" lon="7.258839403039366"><ele>778.3333333333333</ele><time>2026-04-25T16:02:16Z</time></trkpt><trkpt lat="44.8577744017221" lon="7.258918853545125"><ele>778.1666666666666</ele><time>2026-04-25T16:02:18Z</time></trkpt><trkpt lat="44.85784262475057" lon="7.258965085052403"><ele>778.0</ele><time>2026-04-25T16:02:20Z</time></trkpt><trkpt lat="44.8579450890441" lon="7.258984155458776"><ele>784.5</ele><time>2026-04-25T16:02:24Z</time></trkpt><trkpt lat="44.85816526035604" lon="7.259011643745644"><ele>791.0</ele><time>2026-04-25T16:02:25Z</time></trkpt><trkpt lat="44.85825200844863" lon="7.259043588988421"><ele>797.5</ele><time>2026-04-25T16:02:26Z</time></trkpt><trkpt lat="44.85834173661895" lon="7.259073063338291"><ele>804.0</ele><time>2026-04-25T16:02:27Z</time></trkpt><trkpt lat="44.85844636416844" lon="7.2590655720282085"><ele>801.8571428571428</ele><time>2026-04-25T16:02:28Z</time></trkpt><trkpt lat="44.85851985589917" lon="7.25905938351082"><ele>799.7142857142858</ele><time>2026-04-25T16:02:31Z</time></trkpt><trkpt lat="44.85859630207866" lon="7.259099644578373"><ele>797.5714285714286</ele><time>2026-04-25T16:03:02Z</time></trkpt><trkpt lat="44.85865551753521" lon="7.259132108426235"><ele>795.4285714285713</ele><time>2026-04-25T16:03:05Z</time></trkpt><trkpt lat="44.858712633942716" lon="7.25917764631495"><ele>793.2857142857142</ele><time>2026-04-25T16:03:10.999Z</time></trkpt><trkpt lat="44.85875562718813" lon="7.25924299309573"><ele>791.1428571428571</ele><time>2026-04-25T16:03:42.999Z</time></trkpt><trkpt lat="44.858703226050224" lon="7.259352794156114"><ele>789.0</ele><time>2026-04-25T16:03:45.999Z</time></trkpt><trkpt lat="44.85864895785634" lon="7.2594589573272215"><ele>789.0</ele><time>2026-04-25T16:03:46.999Z</time></trkpt><trkpt lat="44.85859931147756" lon="7.2595598754174855"><ele>789.0</ele><time>2026-04-25T16:03:47.999Z</time></trkpt><trkpt lat="44.858570885727296" lon="7.259651203306637"><ele>789.0</ele><time>2026-04-25T16:03:48.999Z</time></trkpt><trkpt lat="44.858533531162294" lon="7.259790945896628"><ele>789.0</ele><time>2026-04-25T16:03:50.999Z</time></trkpt><trkpt lat="44.85849538445334" lon="7.2598781869136335"><ele>789.0</ele><time>2026-04-25T16:03:52.999Z</time></trkpt><trkpt lat="44.85844882072158" lon="7.2599468146853425"><ele>789.0</ele><time>2026-04-25T16:03:53.999Z</time></trkpt><trkpt lat="44.85840269015582" lon="7.260022836745719"><ele>792.8000000000001</ele><time>2026-04-25T16:03:54.999Z</time></trkpt><trkpt lat="44.85834537499722" lon="7.260103882322522"><ele>796.6</ele><time>2026-04-25T16:03:55.999Z</time></trkpt><trkpt lat="44.85827484853541" lon="7.2601849951976725"><ele>800.4</ele><time>2026-04-25T16:03:56.998Z</time></trkpt><trkpt lat="44.858238935208355" lon="7.260295703759341"><ele>804.2</ele><time>2026-04-25T16:03:57.998Z</time></trkpt><trkpt lat="44.858217167786904" lon="7.260417635266893"><ele>808.0</ele><time>2026-04-25T16:03:58.998Z</time></trkpt><trkpt lat="44.85820638861957" lon="7.2605699880971"><ele>806.5</ele><time>2026-04-25T16:03:59.998Z</time></trkpt><trkpt lat="44.85817181424045" lon="7.260717408870392"><ele>805.0</ele><time>2026-04-25T16:04:00.998Z</time></trkpt><trkpt lat="44.85814782152297" lon="7.260892727980786"><ele>803.5</ele><time>2026-04-25T16:04:01.998Z</time></trkpt><trkpt lat="44.85814583698016" lon="7.261077144876575"><ele>802.0</ele><time>2026-04-25T16:04:02.998Z</time></trkpt><trkpt lat="44.85813842729946" lon="7.261249022622581"><ele>802.0</ele><time>2026-04-25T16:04:03.998Z</time></trkpt><trkpt lat="44.858146214367416" lon="7.261377185030319"><ele>802.0</ele><time>2026-04-25T16:04:04.998Z</time></trkpt><trkpt lat="44.8582146578785" lon="7.261449926609581"><ele>802.0</ele><time>2026-04-25T16:04:05.998Z</time></trkpt><trkpt lat="44.858295013438344" lon="7.26147698304349"><ele>802.0</ele><time>2026-04-25T16:04:06.998Z</time></trkpt><trkpt lat="44.85842323795286" lon="7.261495343940567"><ele>802.0</ele><time>2026-04-25T16:04:08.998Z</time></trkpt><trkpt lat="44.858503890492045" lon="7.2615057453984795"><ele>802.9999999999999</ele><time>2026-04-25T16:04:09.998Z</time></trkpt><trkpt lat="44.858577677284124" lon="7.261507635228638"><ele>804.0</ele><time>2026-04-25T16:04:10.998Z</time></trkpt><trkpt lat="44.858654250213014" lon="7.261525940886262"><ele>805.0</ele><time>2026-04-25T16:04:11.998Z</time></trkpt><trkpt lat="44.858765125159906" lon="7.261553777859546"><ele>806.0</ele><time>2026-04-25T16:04:13.998Z</time></trkpt><trkpt lat="44.85883016016087" lon="7.261551016476349"><ele>806.9999999999999</ele><time>2026-04-25T16:04:14.998Z</time></trkpt><trkpt lat="44.85889465056577" lon="7.261550393193558"><ele>808.0</ele><time>2026-04-25T16:04:15.998Z</time></trkpt><trkpt lat="44.85896995782591" lon="7.261539514580745"><ele>808.0</ele><time>2026-04-25T16:04:16.998Z</time></trkpt><trkpt lat="44.859067043772754" lon="7.261451639286629"><ele>808.0</ele><time>2026-04-25T16:04:18.998Z</time></trkpt><trkpt lat="44.85909702897483" lon="7.261329063733837"><ele>808.0</ele><time>2026-04-25T16:04:20Z</time></trkpt><trkpt lat="44.85912365459568" lon="7.261185488473025"><ele>808.0</ele><time>2026-04-25T16:04:21Z</time></trkpt><trkpt lat="44.85921112701355" lon="7.261147552709251"><ele>808.0</ele><time>2026-04-25T16:04:22Z</time></trkpt><trkpt lat="44.859321833006426" lon="7.261114610168711"><ele>803.8</ele><time>2026-04-25T16:04:23Z</time></trkpt><trkpt lat="44.85940992183466" lon="7.261058800017265"><ele>799.5999999999999</ele><time>2026-04-25T16:04:24Z</time></trkpt><trkpt lat="44.85950417350665" lon="7.261007547793119"><ele>795.4000000000001</ele><time>2026-04-25T16:04:25Z</time></trkpt><trkpt lat="44.85958545571478" lon="7.260968127855337"><ele>791.2</ele><time>2026-04-25T16:04:26Z</time></trkpt><trkpt lat="44.859668375593195" lon="7.26092517470859"><ele>787.0</ele><time>2026-04-25T16:04:27Z</time></trkpt><trkpt lat="44.85974879794367" lon="7.260885208470308"><ele>787.0</ele><time>2026-04-25T16:04:28Z</time></trkpt><trkpt lat="44.859833185546805" lon="7.260860975222025"><ele>787.0</ele><time>2026-04-25T16:04:29Z</time></trkpt><trkpt lat="44.85990503153755" lon="7.2608512891736465"><ele>787.0</ele><time>2026-04-25T16:04:30Z</time></trkpt><trkpt lat="44.859989527037534" lon="7.260841427934236"><ele>787.0</ele><time>2026-04-25T16:04:31Z</time></trkpt><trkpt lat="44.860096453638555" lon="7.260822055871422"><ele>787.0</ele><time>2026-04-25T16:04:32Z</time></trkpt><trkpt lat="44.86019803430176" lon="7.260775877510755"><ele>787.2</ele><time>2026-04-25T16:04:33Z</time></trkpt><trkpt lat="44.8602762456377" lon="7.260667156237843"><ele>787.4000000000001</ele><time>2026-04-25T16:04:34Z</time></trkpt><trkpt lat="44.86031793951959" lon="7.260594212591648"><ele>787.5999999999999</ele><time>2026-04-25T16:04:35Z</time></trkpt><trkpt lat="44.86050282212766" lon="7.2606347997098055"><ele>787.8</ele><time>2026-04-25T16:04:37Z</time></trkpt><trkpt lat="44.86058603926714" lon="7.2606449343864385"><ele>788.0</ele><time>2026-04-25T16:04:38Z</time></trkpt><trkpt lat="44.86068857814972" lon="7.260619895187035"><ele>780.0</ele><time>2026-04-25T16:04:39Z</time></trkpt><trkpt lat="44.86086364389836" lon="7.2605425978489055"><ele>772.0</ele><time>2026-04-25T16:04:40Z</time></trkpt><trkpt lat="44.86102854967966" lon="7.260454079706174"><ele>764.0</ele><time>2026-04-25T16:04:41Z</time></trkpt><trkpt lat="44.86114845591741" lon="7.260380185934589"><ele>763.5</ele><time>2026-04-25T16:04:42Z</time></trkpt><trkpt lat="44.86123825045097" lon="7.260363518338817"><ele>763.0</ele><time>2026-04-25T16:04:43Z</time></trkpt><trkpt lat="44.86129480204794" lon="7.260429198156716"><ele>762.5</ele><time>2026-04-25T16:04:44Z</time></trkpt><trkpt lat="44.86136681359162" lon="7.260457238094118"><ele>762.0</ele><time>2026-04-25T16:04:45Z</time></trkpt><trkpt lat="44.8614648992087" lon="7.260485374754687"><ele>761.5</ele><time>2026-04-25T16:04:46Z</time></trkpt><trkpt lat="44.86155144681787" lon="7.260511423886989"><ele>761.0</ele><time>2026-04-25T16:04:47Z</time></trkpt><trkpt lat="44.86162354695491" lon="7.2606053019379155"><ele>763.0</ele><time>2026-04-25T16:04:49Z</time></trkpt><trkpt lat="44.861636715502186" lon="7.26075898625136"><ele>765.0</ele><time>2026-04-25T16:04:51Z</time></trkpt><trkpt lat="44.86159284659121" lon="7.260930293333211"><ele>767.0</ele><time>2026-04-25T16:04:53Z</time></trkpt><trkpt lat="44.86155337407256" lon="7.261041983146655"><ele>769.0</ele><time>2026-04-25T16:04:54Z</time></trkpt><trkpt lat="44.86149920991285" lon="7.261144100687778"><ele>771.0</ele><time>2026-04-25T16:04:55Z</time></trkpt><trkpt lat="44.86142026535611" lon="7.261300405814669"><ele>771.0</ele><time>2026-04-25T16:04:56Z</time></trkpt><trkpt lat="44.86133365045715" lon="7.2613589945102675"><ele>771.0</ele><time>2026-04-25T16:04:57Z</time></trkpt><trkpt lat="44.861307505432826" lon="7.261509723223258"><ele>771.0</ele><time>2026-04-25T16:04:58Z</time></trkpt><trkpt lat="44.86129932162689" lon="7.26165976817506"><ele>771.0</ele><time>2026-04-25T16:04:59Z</time></trkpt><trkpt lat="44.861296503870456" lon="7.2618767555320805"><ele>769.5999999999999</ele><time>2026-04-25T16:05:00Z</time></trkpt><trkpt lat="44.86127043997634" lon="7.2620832980339"><ele>768.2</ele><time>2026-04-25T16:05:01Z</time></trkpt><trkpt lat="44.8612386228992" lon="7.262199920567988"><ele>766.8</ele><time>2026-04-25T16:05:02Z</time></trkpt><trkpt lat="44.861252327798454" lon="7.2623059758878075"><ele>765.4000000000001</ele><time>2026-04-25T16:05:03Z</time></trkpt><trkpt lat="44.86124142707903" lon="7.262449671054134"><ele>764.0</ele><time>2026-04-25T16:05:04Z</time></trkpt><trkpt lat="44.861237868065125" lon="7.262551257842347"><ele>760.8000000000001</ele><time>2026-04-25T16:05:05Z</time></trkpt><trkpt lat="44.861189763188214" lon="7.262629240158642"><ele>757.6</ele><time>2026-04-25T16:05:06Z</time></trkpt><trkpt lat="44.86117469119497" lon="7.262759953629813"><ele>754.4</ele><time>2026-04-25T16:05:07Z</time></trkpt><trkpt lat="44.861114467443926" lon="7.262849854962658"><ele>751.2</ele><time>2026-04-25T16:05:08Z</time></trkpt><trkpt lat="44.86102525334009" lon="7.262953847627355"><ele>748.0</ele><time>2026-04-25T16:05:08.999Z</time></trkpt><trkpt lat="44.860921208987634" lon="7.26303884545059"><ele>752.5999999999999</ele><time>2026-04-25T16:05:09.999Z</time></trkpt><trkpt lat="44.86083453249501" lon="7.263124807931525"><ele>757.1999999999999</ele><time>2026-04-25T16:05:10.999Z</time></trkpt><trkpt lat="44.86075496362383" lon="7.263198409938505"><ele>761.8</ele><time>2026-04-25T16:05:11.999Z</time></trkpt><trkpt lat="44.86070997241503" lon="7.2632646475628935"><ele>766.4</ele><time>2026-04-25T16:05:12.999Z</time></trkpt><trkpt lat="44.86061906485616" lon="7.263258014514031"><ele>771.0</ele><time>2026-04-25T16:05:14.999Z</time></trkpt><trkpt lat="44.86074642257813" lon="7.263424106236864"><ele>771.0</ele><time>2026-04-25T16:05:16.999Z</time></trkpt><trkpt lat="44.86080061826739" lon="7.263558894008079"><ele>771.0</ele><time>2026-04-25T16:05:17.999Z</time></trkpt><trkpt lat="44.86097198540542" lon="7.263680378759964"><ele>771.0</ele><time>2026-04-25T16:05:18.999Z</time></trkpt><trkpt lat="44.86114944115821" lon="7.263785116489806"><ele>770.0</ele><time>2026-04-25T16:05:19.999Z</time></trkpt><trkpt lat="44.86126250546216" lon="7.263897140196831"><ele>769.0</ele><time>2026-04-25T16:05:20.999Z</time></trkpt><trkpt lat="44.86140577430036" lon="7.263970542481301"><ele>768.0</ele><time>2026-04-25T16:05:21.999Z</time></trkpt><trkpt lat="44.861538217676944" lon="7.264060519553147"><ele>767.0</ele><time>2026-04-25T16:05:22.999Z</time></trkpt><trkpt lat="44.86162994004026" lon="7.264125228374744"><ele>767.0</ele><time>2026-04-25T16:05:23.999Z</time></trkpt><trkpt lat="44.86173300852591" lon="7.264208792189071"><ele>767.0</ele><time>2026-04-25T16:05:24.999Z</time></trkpt><trkpt lat="44.8618018074014" lon="7.264283602148343"><ele>767.0</ele><time>2026-04-25T16:05:25.999Z</time></trkpt><trkpt lat="44.86186049657675" lon="7.264351166712493"><ele>767.0</ele><time>2026-04-25T16:05:26.999Z</time></trkpt><trkpt lat="44.861935698961744" lon="7.264406737743426"><ele>767.0</ele><time>2026-04-25T16:05:27.999Z</time></trkpt><trkpt lat="44.86199753022834" lon="7.264479588013953"><ele>767.0</ele><time>2026-04-25T16:05:28.999Z</time></trkpt><trkpt lat="44.862098327221126" lon="7.264583908583148"><ele>764.0</ele><time>2026-04-25T16:05:30.999Z</time></trkpt><trkpt lat="44.86215381064048" lon="7.264651698629041"><ele>761.0</ele><time>2026-04-25T16:05:31.999Z</time></trkpt><trkpt lat="44.862234613811495" lon="7.2647994637896725"><ele>758.0</ele><time>2026-04-25T16:05:33.999Z</time></trkpt><trkpt lat="44.86228390650976" lon="7.264874469676881"><ele>755.0</ele><time>2026-04-25T16:05:34.999Z</time></trkpt><trkpt lat="44.86233417634937" lon="7.264961414331535"><ele>752.0</ele><time>2026-04-25T16:05:35.999Z</time></trkpt><trkpt lat="44.862363436172664" lon="7.265059645217321"><ele>749.0</ele><time>2026-04-25T16:05:36.999Z</time></trkpt><trkpt lat="44.86240088226298" lon="7.265167236981644"><ele>749.0</ele><time>2026-04-25T16:05:37.999Z</time></trkpt><trkpt lat="44.86234415068766" lon="7.2652234857492095"><ele>749.0</ele><time>2026-04-25T16:05:38.999Z</time></trkpt><trkpt lat="44.862280950814245" lon="7.265263351894507"><ele>749.0</ele><time>2026-04-25T16:05:39.999Z</time></trkpt><trkpt lat="44.8621743547516" lon="7.265351151377943"><ele>749.0</ele><time>2026-04-25T16:05:40.999Z</time></trkpt><trkpt lat="44.86208316295855" lon="7.2654553384665155"><ele>749.0</ele><time>2026-04-25T16:05:41.999Z</time></trkpt><trkpt lat="44.861933954864696" lon="7.265586157030093"><ele>750.2</ele><time>2026-04-25T16:05:42.999Z</time></trkpt><trkpt lat="44.861846717169044" lon="7.265680185596265"><ele>751.4000000000001</ele><time>2026-04-25T16:05:43.999Z</time></trkpt><trkpt lat="44.86177391727668" lon="7.2657648510167006"><ele>752.6</ele><time>2026-04-25T16:05:44.999Z</time></trkpt><trkpt lat="44.861701972350716" lon="7.265882761725797"><ele>753.8</ele><time>2026-04-25T16:05:45.999Z</time></trkpt><trkpt lat="44.8616448164667" lon="7.265963800171153"><ele>755.0</ele><time>2026-04-25T16:05:46.999Z</time></trkpt><trkpt lat="44.861582757146614" lon="7.266064456892575"><ele>755.0</ele><time>2026-04-25T16:05:47.999Z</time></trkpt><trkpt lat="44.86151333704739" lon="7.266129437006127"><ele>755.0</ele><time>2026-04-25T16:05:48.999Z</time></trkpt><trkpt lat="44.861468245268426" lon="7.266196071631746"><ele>755.0</ele><time>2026-04-25T16:05:49.999Z</time></trkpt><trkpt lat="44.86141558932508" lon="7.266283527612616"><ele>755.0</ele><time>2026-04-25T16:05:50.999Z</time></trkpt><trkpt lat="44.861370192353746" lon="7.266356145165585"><ele>755.0</ele><time>2026-04-25T16:05:51.999Z</time></trkpt><trkpt lat="44.861333228527315" lon="7.266437395917104"><ele>755.0</ele><time>2026-04-25T16:05:52.999Z</time></trkpt><trkpt lat="44.86135856963691" lon="7.266533676494181"><ele>755.0</ele><time>2026-04-25T16:05:54.999Z</time></trkpt><trkpt lat="44.861486652498165" lon="7.266602730604098"><ele>753.6</ele><time>2026-04-25T16:05:56.999Z</time></trkpt><trkpt lat="44.86156516672157" lon="7.266643465026245"><ele>752.2</ele><time>2026-04-25T16:05:57.998Z</time></trkpt><trkpt lat="44.861651444977355" lon="7.266692233063906"><ele>750.8</ele><time>2026-04-25T16:05:58.998Z</time></trkpt><trkpt lat="44.861752789997425" lon="7.26672395641914"><ele>749.4</ele><time>2026-04-25T16:05:59.998Z</time></trkpt><trkpt lat="44.861878567062" lon="7.266738742760466"><ele>748.0</ele><time>2026-04-25T16:06:00.998Z</time></trkpt><trkpt lat="44.861992942884314" lon="7.266752617307309"><ele>744.8</ele><time>2026-04-25T16:06:01.998Z</time></trkpt><trkpt lat="44.862094455666615" lon="7.266754945296679"><ele>741.5999999999999</ele><time>2026-04-25T16:06:02.998Z</time></trkpt><trkpt lat="44.8621889783895" lon="7.26676862501485"><ele>738.4000000000001</ele><time>2026-04-25T16:06:03.998Z</time></trkpt><trkpt lat="44.86228222150831" lon="7.266777123226482"><ele>735.2</ele><time>2026-04-25T16:06:04.998Z</time></trkpt><trkpt lat="44.86237003885475" lon="7.266803244290447"><ele>732.0</ele><time>2026-04-25T16:06:05.998Z</time></trkpt><trkpt lat="44.86245272535455" lon="7.266821924232168"><ele>732.0</ele><time>2026-04-25T16:06:06.998Z</time></trkpt><trkpt lat="44.86253700235935" lon="7.266838177129463"><ele>732.0</ele><time>2026-04-25T16:06:07.998Z</time></trkpt><trkpt lat="44.86261329536815" lon="7.266876090093461"><ele>732.0</ele><time>2026-04-25T16:06:08.998Z</time></trkpt><trkpt lat="44.8626731071321" lon="7.266964364936916"><ele>732.0</ele><time>2026-04-25T16:06:09.998Z</time></trkpt><trkpt lat="44.86268720419935" lon="7.267123538282131"><ele>732.0</ele><time>2026-04-25T16:06:10.998Z</time></trkpt><trkpt lat="44.86271576183017" lon="7.267253563386456"><ele>731.2</ele><time>2026-04-25T16:06:11.998Z</time></trkpt><trkpt lat="44.86271201669766" lon="7.267411288172224"><ele>730.4000000000001</ele><time>2026-04-25T16:06:12.998Z</time></trkpt><trkpt lat="44.86271392130017" lon="7.26757862807157"><ele>729.5999999999999</ele><time>2026-04-25T16:06:13.998Z</time></trkpt><trkpt lat="44.862707945575536" lon="7.2677316353580945"><ele>728.8</ele><time>2026-04-25T16:06:14.998Z</time></trkpt><trkpt lat="44.86271658347882" lon="7.267871627399914"><ele>728.0</ele><time>2026-04-25T16:06:15.998Z</time></trkpt><trkpt lat="44.86273482323783" lon="7.267964476318413"><ele>728.0</ele><time>2026-04-25T16:06:16.998Z</time></trkpt><trkpt lat="44.86282281871451" lon="7.26801264942585"><ele>728.0</ele><time>2026-04-25T16:06:18.998Z</time></trkpt><trkpt lat="44.86290627170569" lon="7.267982786744823"><ele>728.0</ele><time>2026-04-25T16:06:19.998Z</time></trkpt><trkpt lat="44.86297416155174" lon="7.267911018496078"><ele>728.0</ele><time>2026-04-25T16:06:20.998Z</time></trkpt><trkpt lat="44.86305069267107" lon="7.267841022903384"><ele>728.0</ele><time>2026-04-25T16:06:21.998Z</time></trkpt><trkpt lat="44.86312842161976" lon="7.267772852290795"><ele>728.0</ele><time>2026-04-25T16:06:22.998Z</time></trkpt><trkpt lat="44.86320656941703" lon="7.2676847656454875"><ele>728.0</ele><time>2026-04-25T16:06:23.998Z</time></trkpt><trkpt lat="44.86328108049329" lon="7.267580959821481"><ele>728.0</ele><time>2026-04-25T16:06:24.998Z</time></trkpt><trkpt lat="44.86336533684287" lon="7.267481847363107"><ele>728.0</ele><time>2026-04-25T16:06:26Z</time></trkpt><trkpt lat="44.863463436443915" lon="7.267410729579818"><ele>728.0</ele><time>2026-04-25T16:06:27Z</time></trkpt><trkpt lat="44.86353914189706" lon="7.267346683519873"><ele>728.0</ele><time>2026-04-25T16:06:28Z</time></trkpt><trkpt lat="44.86362052579714" lon="7.267305689070837"><ele>729.0</ele><time>2026-04-25T16:06:29Z</time></trkpt><trkpt lat="44.863697859896334" lon="7.267293612571026"><ele>730.0</ele><time>2026-04-25T16:06:30Z</time></trkpt><trkpt lat="44.863799843717345" lon="7.267269656631902"><ele>731.0</ele><time>2026-04-25T16:06:31Z</time></trkpt><trkpt lat="44.86390623593785" lon="7.2672408222365315"><ele>732.0</ele><time>2026-04-25T16:06:32Z</time></trkpt><trkpt lat="44.86399571756743" lon="7.267215360485382"><ele>733.0</ele><time>2026-04-25T16:06:33Z</time></trkpt><trkpt lat="44.86407224200329" lon="7.267212144855981"><ele>731.2</ele><time>2026-04-25T16:06:34Z</time></trkpt><trkpt lat="44.864187338352096" lon="7.26724403918141"><ele>729.4</ele><time>2026-04-25T16:06:36Z</time></trkpt><trkpt lat="44.864299884630675" lon="7.267316360958011"><ele>727.6</ele><time>2026-04-25T16:06:38Z</time></trkpt><trkpt lat="44.86435987592682" lon="7.267392579650702"><ele>725.8000000000001</ele><time>2026-04-25T16:06:39Z</time></trkpt><trkpt lat="44.864414529598804" lon="7.26748546399111"><ele>724.0</ele><time>2026-04-25T16:06:40Z</time></trkpt><trkpt lat="44.86446146979222" lon="7.267604310831328"><ele>724.0</ele><time>2026-04-25T16:06:41Z</time></trkpt><trkpt lat="44.864500815332796" lon="7.267723377220774"><ele>724.0</ele><time>2026-04-25T16:06:42Z</time></trkpt><trkpt lat="44.86454183929924" lon="7.267844946234437"><ele>724.0</ele><time>2026-04-25T16:06:43Z</time></trkpt><trkpt lat="44.86458669074226" lon="7.267967381478085"><ele>724.0</ele><time>2026-04-25T16:06:44Z</time></trkpt><trkpt lat="44.86462695666969" lon="7.268099273806842"><ele>724.0</ele><time>2026-04-25T16:06:45Z</time></trkpt><trkpt lat="44.86466532422787" lon="7.268220487392004"><ele>726.0</ele><time>2026-04-25T16:06:46Z</time></trkpt><trkpt lat="44.86473678916745" lon="7.268309512497264"><ele>728.0</ele><time>2026-04-25T16:06:47Z</time></trkpt><trkpt lat="44.8648253921697" lon="7.268370684282199"><ele>730.0</ele><time>2026-04-25T16:06:48Z</time></trkpt><trkpt lat="44.86493332002744" lon="7.268405276935983"><ele>732.0</ele><time>2026-04-25T16:06:49Z</time></trkpt><trkpt lat="44.86504193867069" lon="7.268421351321896"><ele>734.0</ele><time>2026-04-25T16:06:50Z</time></trkpt><trkpt lat="44.86513711342601" lon="7.268433015733001"><ele>735.0</ele><time>2026-04-25T16:06:51Z</time></trkpt><trkpt lat="44.86523999705515" lon="7.268459033604559"><ele>736.0</ele><time>2026-04-25T16:06:52Z</time></trkpt><trkpt lat="44.86533669042653" lon="7.268505206877164"><ele>737.0</ele><time>2026-04-25T16:06:53Z</time></trkpt><trkpt lat="44.86541743992823" lon="7.268557945744539"><ele>738.0</ele><time>2026-04-25T16:06:54Z</time></trkpt><trkpt lat="44.86549690143965" lon="7.268610771869755"><ele>739.0</ele><time>2026-04-25T16:06:55Z</time></trkpt><trkpt lat="44.86558633751556" lon="7.268469416121739"><ele>739.0</ele><time>2026-04-25T16:06:56Z</time></trkpt><trkpt lat="44.865661158960265" lon="7.268435674321179"><ele>739.0</ele><time>2026-04-25T16:06:57Z</time></trkpt><trkpt lat="44.865727424477065" lon="7.268386042837215"><ele>739.0</ele><time>2026-04-25T16:06:58Z</time></trkpt><trkpt lat="44.865774727359906" lon="7.2683046545262435"><ele>739.0</ele><time>2026-04-25T16:06:59Z</time></trkpt><trkpt lat="44.86582934068171" lon="7.268218040489202"><ele>739.0</ele><time>2026-04-25T16:07:00Z</time></trkpt><trkpt lat="44.86593931650458" lon="7.268191054291211"><ele>739.0</ele><time>2026-04-25T16:07:01Z</time></trkpt><trkpt lat="44.86601788042006" lon="7.268112838559767"><ele>740.4000000000001</ele><time>2026-04-25T16:07:02Z</time></trkpt><trkpt lat="44.86610857230104" lon="7.268072941679098"><ele>741.8</ele><time>2026-04-25T16:07:03Z</time></trkpt><trkpt lat="44.866200127013684" lon="7.268096334499563"><ele>743.2</ele><time>2026-04-25T16:07:04Z</time></trkpt><trkpt lat="44.86629984722372" lon="7.268134339939758"><ele>744.5999999999999</ele><time>2026-04-25T16:07:05Z</time></trkpt><trkpt lat="44.86641440289032" lon="7.268130921024026"><ele>746.0</ele><time>2026-04-25T16:07:06Z</time></trkpt><trkpt lat="44.86652627363028" lon="7.268096092528013"><ele>746.1666666666666</ele><time>2026-04-25T16:07:07Z</time></trkpt><trkpt lat="44.86661534677337" lon="7.268065161765221"><ele>746.3333333333333</ele><time>2026-04-25T16:07:08Z</time></trkpt><trkpt lat="44.86668744432301" lon="7.2680463280584515"><ele>746.5</ele><time>2026-04-25T16:07:09Z</time></trkpt><trkpt lat="44.86675922603571" lon="7.268046559175832"><ele>746.6666666666666</ele><time>2026-04-25T16:07:10Z</time></trkpt><trkpt lat="44.86683256028699" lon="7.2680635175588195"><ele>746.8333333333334</ele><time>2026-04-25T16:07:11Z</time></trkpt><trkpt lat="44.8669181739429" lon="7.268088926818383"><ele>747.0</ele><time>2026-04-25T16:07:12Z</time></trkpt><trkpt lat="44.86700930961398" lon="7.268123264377343"><ele>748.4000000000001</ele><time>2026-04-25T16:07:13Z</time></trkpt><trkpt lat="44.86709422354712" lon="7.268179290359581"><ele>749.8000000000001</ele><time>2026-04-25T16:07:13.999Z</time></trkpt><trkpt lat="44.867172004757045" lon="7.268263801538472"><ele>751.2</ele><time>2026-04-25T16:07:14.999Z</time></trkpt><trkpt lat="44.86725906956732" lon="7.268357742284361"><ele>752.6</ele><time>2026-04-25T16:07:15.999Z</time></trkpt><trkpt lat="44.86733881297591" lon="7.268424186647081"><ele>754.0</ele><time>2026-04-25T16:07:16.999Z</time></trkpt><trkpt lat="44.867427190180514" lon="7.268474678870449"><ele>754.0</ele><time>2026-04-25T16:07:17.999Z</time></trkpt><trkpt lat="44.867516650641136" lon="7.268502521894301"><ele>754.0</ele><time>2026-04-25T16:07:18.999Z</time></trkpt><trkpt lat="44.86759935394153" lon="7.2685239424587005"><ele>754.0</ele><time>2026-04-25T16:07:19.999Z</time></trkpt><trkpt lat="44.86767429578467" lon="7.268543789485473"><ele>754.0</ele><time>2026-04-25T16:07:20.999Z</time></trkpt><trkpt lat="44.86775250224405" lon="7.268440805951731"><ele>754.0</ele><time>2026-04-25T16:07:21.999Z</time></trkpt><trkpt lat="44.8678173702968" lon="7.268400994082756"><ele>754.0</ele><time>2026-04-25T16:07:22.999Z</time></trkpt><trkpt lat="44.867882235421206" lon="7.268355604330187"><ele>755.0</ele><time>2026-04-25T16:07:23.999Z</time></trkpt><trkpt lat="44.8679539856811" lon="7.268291837443329"><ele>756.0</ele><time>2026-04-25T16:07:24.999Z</time></trkpt><trkpt lat="44.86801578706928" lon="7.268225220334874"><ele>757.0</ele><time>2026-04-25T16:07:25.999Z</time></trkpt><trkpt lat="44.86808508390349" lon="7.26817264209856"><ele>758.0</ele><time>2026-04-25T16:07:26.999Z</time></trkpt><trkpt lat="44.86815318850331" lon="7.268123842663941"><ele>759.0</ele><time>2026-04-25T16:07:27.999Z</time></trkpt><trkpt lat="44.868211942098455" lon="7.268068082636776"><ele>760.0</ele><time>2026-04-25T16:07:28.999Z</time></trkpt><trkpt lat="44.86828506241391" lon="7.268000367323442"><ele>763.0</ele><time>2026-04-25T16:07:29.999Z</time></trkpt><trkpt lat="44.86835543326433" lon="7.26792695683967"><ele>766.0</ele><time>2026-04-25T16:07:30.999Z</time></trkpt><trkpt lat="44.868420279310534" lon="7.267864834907698"><ele>769.0</ele><time>2026-04-25T16:07:31.999Z</time></trkpt><trkpt lat="44.8684814931789" lon="7.267827656125989"><ele>772.0</ele><time>2026-04-25T16:07:32.999Z</time></trkpt><trkpt lat="44.86854746233743" lon="7.267783512453614"><ele>775.0</ele><time>2026-04-25T16:07:33.999Z</time></trkpt><trkpt lat="44.868610071997075" lon="7.267747764179857"><ele>778.0</ele><time>2026-04-25T16:07:34.999Z</time></trkpt><trkpt lat="44.86867733907279" lon="7.267708651863661"><ele>781.0</ele><time>2026-04-25T16:07:35.999Z</time></trkpt><trkpt lat="44.86878423035261" lon="7.26766207985924"><ele>781.8333333333333</ele><time>2026-04-25T16:07:36.999Z</time></trkpt><trkpt lat="44.86888185372461" lon="7.2676122975296265"><ele>782.6666666666666</ele><time>2026-04-25T16:07:37.999Z</time></trkpt><trkpt lat="44.86895501836271" lon="7.267589057738456"><ele>783.5</ele><time>2026-04-25T16:07:38.999Z</time></trkpt><trkpt lat="44.869041674292916" lon="7.267553890971368"><ele>784.3333333333333</ele><time>2026-04-25T16:07:40.999Z</time></trkpt><trkpt lat="44.8691059240352" lon="7.267627922704185"><ele>785.1666666666666</ele><time>2026-04-25T16:07:41.999Z</time></trkpt><trkpt lat="44.8691686505484" lon="7.267685541205139"><ele>786.0</ele><time>2026-04-25T16:07:42.999Z</time></trkpt><trkpt lat="44.86923622571022" lon="7.267712299342986"><ele>789.0</ele><time>2026-04-25T16:07:43.999Z</time></trkpt><trkpt lat="44.86928410139622" lon="7.2678108263928145"><ele>792.0</ele><time>2026-04-25T16:07:44.999Z</time></trkpt><trkpt lat="44.86934146142963" lon="7.2678582028984415"><ele>795.0</ele><time>2026-04-25T16:07:45.999Z</time></trkpt><trkpt lat="44.869413127639326" lon="7.267897905165691"><ele>798.0</ele><time>2026-04-25T16:07:47.999Z</time></trkpt><trkpt lat="44.86950259419978" lon="7.267900236357727"><ele>801.0</ele><time>2026-04-25T16:07:50.999Z</time></trkpt><trkpt lat="44.86956219271402" lon="7.267847929409378"><ele>804.0</ele><time>2026-04-25T16:07:51.999Z</time></trkpt><trkpt lat="44.869622904868464" lon="7.267789670271619"><ele>804.0</ele><time>2026-04-25T16:07:52.999Z</time></trkpt><trkpt lat="44.869708847982324" lon="7.267704431367983"><ele>804.0</ele><time>2026-04-25T16:07:53.999Z</time></trkpt><trkpt lat="44.869793544832696" lon="7.26761765981681"><ele>804.0</ele><time>2026-04-25T16:07:54.999Z</time></trkpt><trkpt lat="44.86988593983615" lon="7.267520344311359"><ele>804.0</ele><time>2026-04-25T16:07:55.999Z</time></trkpt><trkpt lat="44.8699848667093" lon="7.267412931999201"><ele>804.0</ele><time>2026-04-25T16:07:56.999Z</time></trkpt><trkpt lat="44.87007806319235" lon="7.267334971522712"><ele>804.0</ele><time>2026-04-25T16:07:57.999Z</time></trkpt><trkpt lat="44.87019143247279" lon="7.267264441891269"><ele>804.0</ele><time>2026-04-25T16:07:58.999Z</time></trkpt><trkpt lat="44.87031129195175" lon="7.2671876526577925"><ele>804.0</ele><time>2026-04-25T16:07:59.999Z</time></trkpt><trkpt lat="44.87041144208775" lon="7.267060115108328"><ele>805.2</ele><time>2026-04-25T16:08:00.999Z</time></trkpt><trkpt lat="44.87046020348043" lon="7.2669028517371625"><ele>806.4000000000001</ele><time>2026-04-25T16:08:01.998Z</time></trkpt><trkpt lat="44.87048658463484" lon="7.266757540453248"><ele>807.6</ele><time>2026-04-25T16:08:02.998Z</time></trkpt><trkpt lat="44.87052628927866" lon="7.266632853584178"><ele>808.8</ele><time>2026-04-25T16:08:03.998Z</time></trkpt><trkpt lat="44.87056988425605" lon="7.26653021940234"><ele>810.0</ele><time>2026-04-25T16:08:04.998Z</time></trkpt><trkpt lat="44.870608324338036" lon="7.2664318427729055"><ele>810.0</ele><time>2026-04-25T16:08:05.998Z</time></trkpt><trkpt lat="44.87092159911999" lon="7.265944384317441"><ele>813.0</ele><time>2026-04-25T16:08:10.998Z</time></trkpt><trkpt lat="44.87101107190988" lon="7.265893402451671"><ele>816.0</ele><time>2026-04-25T16:08:11.998Z</time></trkpt><trkpt lat="44.871090642551216" lon="7.265844442169734"><ele>819.0</ele><time>2026-04-25T16:08:12.998Z</time></trkpt><trkpt lat="44.87115596969352" lon="7.26579305817511"><ele>822.0</ele><time>2026-04-25T16:08:13.998Z</time></trkpt><trkpt lat="44.87122082754285" lon="7.265735828053138"><ele>825.0</ele><time>2026-04-25T16:08:14.998Z</time></trkpt><trkpt lat="44.871263759398275" lon="7.265632956738775"><ele>828.0</ele><time>2026-04-25T16:08:15.998Z</time></trkpt><trkpt lat="44.87127897445174" lon="7.2655194398978855"><ele>828.0</ele><time>2026-04-25T16:08:16.998Z</time></trkpt><trkpt lat="44.87131296090837" lon="7.265423774850566"><ele>828.0</ele><time>2026-04-25T16:08:17.998Z</time></trkpt><trkpt lat="44.8713387296082" lon="7.265336925323802"><ele>828.0</ele><time>2026-04-25T16:08:18.998Z</time></trkpt><trkpt lat="44.87136666613015" lon="7.265248843697522"><ele>828.0</ele><time>2026-04-25T16:08:19.998Z</time></trkpt><trkpt lat="44.871417039757524" lon="7.265154609355972"><ele>828.0</ele><time>2026-04-25T16:08:20.998Z</time></trkpt><trkpt lat="44.87147711389829" lon="7.26505901676782"><ele>828.0</ele><time>2026-04-25T16:08:21.998Z</time></trkpt><trkpt lat="44.87153606878956" lon="7.264973406552799"><ele>828.0</ele><time>2026-04-25T16:08:22.998Z</time></trkpt><trkpt lat="44.87160408626349" lon="7.264898440798153"><ele>828.0</ele><time>2026-04-25T16:08:23.998Z</time></trkpt><trkpt lat="44.87165893505061" lon="7.264821475759099"><ele>828.0</ele><time>2026-04-25T16:08:24.998Z</time></trkpt><trkpt lat="44.87171577404537" lon="7.264734997799079"><ele>828.0</ele><time>2026-04-25T16:08:25.998Z</time></trkpt><trkpt lat="44.871771305844106" lon="7.264672658112817"><ele>828.0</ele><time>2026-04-25T16:08:26.998Z</time></trkpt><trkpt lat="44.871834466366124" lon="7.264614943946636"><ele>828.0</ele><time>2026-04-25T16:08:27.998Z</time></trkpt><trkpt lat="44.871873939376684" lon="7.264480460956252"><ele>827.5</ele><time>2026-04-25T16:08:29.998Z</time></trkpt><trkpt lat="44.87185079378867" lon="7.264381844280299"><ele>827.0</ele><time>2026-04-25T16:08:30.998Z</time></trkpt><trkpt lat="44.87180990108751" lon="7.264264828591951"><ele>826.5</ele><time>2026-04-25T16:08:32Z</time></trkpt><trkpt lat="44.87176868697345" lon="7.264164673681479"><ele>826.0</ele><time>2026-04-25T16:08:33Z</time></trkpt><trkpt lat="44.87173775973545" lon="7.264069599223918"><ele>825.5</ele><time>2026-04-25T16:08:38Z</time></trkpt><trkpt lat="44.871754057144365" lon="7.263980498762998"><ele>825.0</ele><time>2026-04-25T16:08:43Z</time></trkpt><trkpt lat="44.871801019234375" lon="7.263889184960149"><ele>828.0</ele><time>2026-04-25T16:08:46Z</time></trkpt><trkpt lat="44.87179004738156" lon="7.263784280509212"><ele>831.0</ele><time>2026-04-25T16:08:50Z</time></trkpt><trkpt lat="44.871805195642075" lon="7.263681349752132"><ele>834.0</ele><time>2026-04-25T16:08:55Z</time></trkpt><trkpt lat="44.87187196677356" lon="7.26367324954079"><ele>837.0</ele><time>2026-04-25T16:08:59Z</time></trkpt><trkpt lat="44.87191542323069" lon="7.263744519703208"><ele>840.0</ele><time>2026-04-25T16:09:01Z</time></trkpt><trkpt lat="44.87197686089739" lon="7.26370507807677"><ele>843.0</ele><time>2026-04-25T16:09:05Z</time></trkpt><trkpt lat="44.8720539629405" lon="7.2637546034139335"><ele>846.0</ele><time>2026-04-25T16:09:09Z</time></trkpt><trkpt lat="44.87212364119112" lon="7.263765270811951"><ele>846.0</ele><time>2026-04-25T16:09:12Z</time></trkpt><trkpt lat="44.872208498824676" lon="7.263756278594315"><ele>846.0</ele><time>2026-04-25T16:09:14.999Z</time></trkpt><trkpt lat="44.87230840617908" lon="7.263771732926248"><ele>846.0</ele><time>2026-04-25T16:09:18.999Z</time></trkpt><trkpt lat="44.87240272023346" lon="7.263810003469966"><ele>846.0</ele><time>2026-04-25T16:09:21.999Z</time></trkpt><trkpt lat="44.87248437626262" lon="7.263779650944351"><ele>846.0</ele><time>2026-04-25T16:09:24.999Z</time></trkpt><trkpt lat="44.872543229187414" lon="7.263812059518184"><ele>846.0</ele><time>2026-04-25T16:09:27.999Z</time></trkpt><trkpt lat="44.87260829176686" lon="7.263827179282268"><ele>846.0</ele><time>2026-04-25T16:09:29.999Z</time></trkpt><trkpt lat="44.872673369489405" lon="7.263854117232998"><ele>846.0</ele><time>2026-04-25T16:09:33.999Z</time></trkpt><trkpt lat="44.87268710550246" lon="7.263962579374629"><ele>846.0</ele><time>2026-04-25T16:09:38.999Z</time></trkpt><trkpt lat="44.87268236715349" lon="7.264078874168232"><ele>846.0</ele><time>2026-04-25T16:09:41.999Z</time></trkpt><trkpt lat="44.87270068894309" lon="7.26420277765405"><ele>846.0</ele><time>2026-04-25T16:09:46.999Z</time></trkpt><trkpt lat="44.872784697648676" lon="7.264502290827952"><ele>846.8571428571428</ele><time>2026-04-25T16:09:49.999Z</time></trkpt><trkpt lat="44.872801157037195" lon="7.264597134101635"><ele>847.7142857142858</ele><time>2026-04-25T16:09:50.999Z</time></trkpt><trkpt lat="44.872819587808685" lon="7.2646895557777"><ele>848.5714285714286</ele><time>2026-04-25T16:09:51.999Z</time></trkpt><trkpt lat="44.87282776992473" lon="7.264780207212532"><ele>849.4285714285713</ele><time>2026-04-25T16:09:52.999Z</time></trkpt><trkpt lat="44.872828726991" lon="7.264878201971598"><ele>850.2857142857142</ele><time>2026-04-25T16:09:53.999Z</time></trkpt><trkpt lat="44.87283465711971" lon="7.264975235231835"><ele>851.1428571428571</ele><time>2026-04-25T16:09:54.999Z</time></trkpt><trkpt lat="44.87280944081294" lon="7.265096175248888"><ele>852.0</ele><time>2026-04-25T16:09:56.999Z</time></trkpt><trkpt lat="44.87276418852514" lon="7.265206510462204"><ele>853.8333333333334</ele><time>2026-04-25T16:09:58.999Z</time></trkpt><trkpt lat="44.87273753118306" lon="7.265363107201051"><ele>855.6666666666667</ele><time>2026-04-25T16:10:00.998Z</time></trkpt><trkpt lat="44.87273207779618" lon="7.265492942611842"><ele>857.5</ele><time>2026-04-25T16:10:02.998Z</time></trkpt><trkpt lat="44.87275403824167" lon="7.265608823735059"><ele>859.3333333333334</ele><time>2026-04-25T16:10:04.998Z</time></trkpt><trkpt lat="44.872789054125924" lon="7.265687538201521"><ele>861.1666666666667</ele><time>2026-04-25T16:10:06.998Z</time></trkpt><trkpt lat="44.872852400449055" lon="7.265656012458508"><ele>863.0</ele><time>2026-04-25T16:10:09.998Z</time></trkpt><trkpt lat="44.87291654350331" lon="7.265703851973668"><ele>864.1666666666667</ele><time>2026-04-25T16:10:47Z</time></trkpt><trkpt lat="44.87298231549575" lon="7.265717350376725"><ele>865.3333333333334</ele><time>2026-04-25T16:10:51Z</time></trkpt><trkpt lat="44.87305142567636" lon="7.265719178559701"><ele>866.5</ele><time>2026-04-25T16:10:57Z</time></trkpt><trkpt lat="44.87313510251796" lon="7.265743423387687"><ele>867.6666666666667</ele><time>2026-04-25T16:10:59Z</time></trkpt><trkpt lat="44.873252951490294" lon="7.265811162743268"><ele>868.8333333333334</ele><time>2026-04-25T16:11:01Z</time></trkpt><trkpt lat="44.873303386176836" lon="7.2658656213969435"><ele>870.0</ele><time>2026-04-25T16:11:02Z</time></trkpt><trkpt lat="44.87337220624898" lon="7.266000564176904"><ele>870.0</ele><time>2026-04-25T16:11:04Z</time></trkpt><trkpt lat="44.87343034505409" lon="7.266063992790245"><ele>870.0</ele><time>2026-04-25T16:11:06Z</time></trkpt><trkpt lat="44.873502637954424" lon="7.266178972913942"><ele>870.0</ele><time>2026-04-25T16:11:08Z</time></trkpt><trkpt lat="44.87355313614047" lon="7.266239307266491"><ele>870.0</ele><time>2026-04-25T16:11:09Z</time></trkpt><trkpt lat="44.873632600508444" lon="7.266244474382825"><ele>870.0</ele><time>2026-04-25T16:11:11Z</time></trkpt><trkpt lat="44.87386007024865" lon="7.2663159109585775"><ele>866.4</ele><time>2026-04-25T16:11:13Z</time></trkpt><trkpt lat="44.87395194414117" lon="7.266307099507558"><ele>862.8</ele><time>2026-04-25T16:11:15Z</time></trkpt><trkpt lat="44.87401901489239" lon="7.266311459395766"><ele>859.2</ele><time>2026-04-25T16:11:17Z</time></trkpt><trkpt lat="44.874124920690704" lon="7.266359925284209"><ele>855.6</ele><time>2026-04-25T16:11:18.999Z</time></trkpt><trkpt lat="44.87422824905594" lon="7.266370681849299"><ele>852.0</ele><time>2026-04-25T16:11:20.999Z</time></trkpt><trkpt lat="44.874316777210105" lon="7.266386524726693"><ele>847.0</ele><time>2026-04-25T16:11:22.999Z</time></trkpt><trkpt lat="44.87440335555454" lon="7.266381546476428"><ele>842.0</ele><time>2026-04-25T16:11:24.999Z</time></trkpt><trkpt lat="44.87449833148421" lon="7.266398099655311"><ele>837.0</ele><time>2026-04-25T16:11:30.999Z</time></trkpt><trkpt lat="44.874592997113055" lon="7.266372020294881"><ele>832.0</ele><time>2026-04-25T16:11:32.999Z</time></trkpt><trkpt lat="44.874681588689015" lon="7.266360164405639"><ele>827.0</ele><time>2026-04-25T16:11:36.999Z</time></trkpt><trkpt lat="44.87484176475818" lon="7.266354349935531"><ele>827.0000000000001</ele><time>2026-04-25T16:11:38.999Z</time></trkpt><trkpt lat="44.87492627146534" lon="7.266340283857881"><ele>827.0</ele><time>2026-04-25T16:11:39.999Z</time></trkpt><trkpt lat="44.87503077465669" lon="7.266303414035946"><ele>827.0</ele><time>2026-04-25T16:11:40.999Z</time></trkpt><trkpt lat="44.875097976008455" lon="7.266286615062292"><ele>827.0</ele><time>2026-04-25T16:11:41.999Z</time></trkpt><trkpt lat="44.87516695428096" lon="7.266250143597486"><ele>827.0000000000001</ele><time>2026-04-25T16:11:43.999Z</time></trkpt><trkpt lat="44.8752476314103" lon="7.266222831372617"><ele>827.0</ele><time>2026-04-25T16:11:45.999Z</time></trkpt><trkpt lat="44.87535956733264" lon="7.266197578502766"><ele>825.8</ele><time>2026-04-25T16:11:47.999Z</time></trkpt><trkpt lat="44.87546648557136" lon="7.266179364543247"><ele>824.6</ele><time>2026-04-25T16:11:49.999Z</time></trkpt><trkpt lat="44.87556659446293" lon="7.266124048100835"><ele>823.4</ele><time>2026-04-25T16:11:51.999Z</time></trkpt><trkpt lat="44.875649060378954" lon="7.266055742272669"><ele>822.1999999999999</ele><time>2026-04-25T16:11:53.999Z</time></trkpt><trkpt lat="44.87571196300962" lon="7.266038155861367"><ele>821.0</ele><time>2026-04-25T16:11:56.999Z</time></trkpt><trkpt lat="44.875823692889306" lon="7.266082047228761"><ele>821.0000000000001</ele><time>2026-04-25T16:11:59.999Z</time></trkpt><trkpt lat="44.87589272584687" lon="7.266146460796093"><ele>821.0</ele><time>2026-04-25T16:12:01.999Z</time></trkpt><trkpt lat="44.87598695647251" lon="7.266116404830681"><ele>821.0</ele><time>2026-04-25T16:12:03.999Z</time></trkpt><trkpt lat="44.87608595383974" lon="7.266091794161057"><ele>821.0</ele><time>2026-04-25T16:12:05.999Z</time></trkpt><trkpt lat="44.87614495681136" lon="7.266027383807335"><ele>821.0000000000001</ele><time>2026-04-25T16:12:07.998Z</time></trkpt><trkpt lat="44.87623203479875" lon="7.266058663528864"><ele>821.0</ele><time>2026-04-25T16:12:09.998Z</time></trkpt><trkpt lat="44.87634008903783" lon="7.266073200967199"><ele>819.5999999999999</ele><time>2026-04-25T16:12:11.998Z</time></trkpt><trkpt lat="44.8764413673073" lon="7.266063758730864"><ele>818.2</ele><time>2026-04-25T16:12:13.998Z</time></trkpt><trkpt lat="44.87655478817403" lon="7.266024651745764"><ele>816.8</ele><time>2026-04-25T16:12:15.998Z</time></trkpt><trkpt lat="44.876627185848776" lon="7.266025852654424"><ele>815.4000000000001</ele><time>2026-04-25T16:12:16.998Z</time></trkpt><trkpt lat="44.876737288237095" lon="7.266123258703306"><ele>814.0</ele><time>2026-04-25T16:12:18.998Z</time></trkpt><trkpt lat="44.876808042569586" lon="7.266163865301317"><ele>811.4000000000001</ele><time>2026-04-25T16:12:19.998Z</time></trkpt><trkpt lat="44.87688864643027" lon="7.266182006110233"><ele>808.8</ele><time>2026-04-25T16:12:20.998Z</time></trkpt><trkpt lat="44.876968617593626" lon="7.266185940908938"><ele>806.2</ele><time>2026-04-25T16:12:21.998Z</time></trkpt><trkpt lat="44.87706747102701" lon="7.2661893825925485"><ele>803.5999999999999</ele><time>2026-04-25T16:12:23.998Z</time></trkpt><trkpt lat="44.87718471334712" lon="7.266199430390573"><ele>801.0</ele><time>2026-04-25T16:12:25.998Z</time></trkpt><trkpt lat="44.87729217464268" lon="7.266227790477203"><ele>801.0</ele><time>2026-04-25T16:12:27.998Z</time></trkpt><trkpt lat="44.87737027683154" lon="7.266192756832844"><ele>801.0</ele><time>2026-04-25T16:12:30.998Z</time></trkpt><trkpt lat="44.87747753417877" lon="7.2661343013433966"><ele>801.0</ele><time>2026-04-25T16:12:32.998Z</time></trkpt><trkpt lat="44.8775549685776" lon="7.266116358872844"><ele>801.0</ele><time>2026-04-25T16:12:34.998Z</time></trkpt><trkpt lat="44.87764353193665" lon="7.266095174955794"><ele>801.0</ele><time>2026-04-25T16:12:36.998Z</time></trkpt><trkpt lat="44.87771428756796" lon="7.266073545557779"><ele>801.0</ele><time>2026-04-25T16:12:38.998Z</time></trkpt><trkpt lat="44.87780581198132" lon="7.26601175446087"><ele>798.1999999999999</ele><time>2026-04-25T16:12:40.998Z</time></trkpt><trkpt lat="44.87787209480602" lon="7.265984432504695"><ele>795.4</ele><time>2026-04-25T16:12:43Z</time></trkpt><trkpt lat="44.87802422252348" lon="7.265914981214631"><ele>792.6</ele><time>2026-04-25T16:12:44Z</time></trkpt><trkpt lat="44.87809862524142" lon="7.265882598140109"><ele>789.8</ele><time>2026-04-25T16:12:45Z</time></trkpt><trkpt lat="44.87818987056434" lon="7.265852648461406"><ele>787.0</ele><time>2026-04-25T16:12:46Z</time></trkpt><trkpt lat="44.87826468051936" lon="7.265827788228027"><ele>786.9999999999999</ele><time>2026-04-25T16:12:47Z</time></trkpt><trkpt lat="44.878351328955596" lon="7.265836904276491"><ele>787.0</ele><time>2026-04-25T16:12:49Z</time></trkpt><trkpt lat="44.87842468911878" lon="7.265864339128803"><ele>787.0</ele><time>2026-04-25T16:12:52Z</time></trkpt><trkpt lat="44.8784783058955" lon="7.265923153509705"><ele>787.0</ele><time>2026-04-25T16:12:54Z</time></trkpt><trkpt lat="44.87847735222129" lon="7.266035317606086"><ele>786.9999999999999</ele><time>2026-04-25T16:12:59Z</time></trkpt><trkpt lat="44.87839317908683" lon="7.266154234903829"><ele>787.0</ele><time>2026-04-25T16:13:01Z</time></trkpt><trkpt lat="44.87832373043753" lon="7.266238908415786"><ele>786.9999999999999</ele><time>2026-04-25T16:13:02Z</time></trkpt><trkpt lat="44.87826050209823" lon="7.266329398977217"><ele>787.0</ele><time>2026-04-25T16:13:03Z</time></trkpt><trkpt lat="44.87820485356498" lon="7.266432920252695"><ele>787.0</ele><time>2026-04-25T16:13:04Z</time></trkpt><trkpt lat="44.87820592846875" lon="7.266534146390446"><ele>787.0</ele><time>2026-04-25T16:13:05Z</time></trkpt><trkpt lat="44.87821717399861" lon="7.266634559286828"><ele>786.9999999999999</ele><time>2026-04-25T16:13:06Z</time></trkpt><trkpt lat="44.87826690086174" lon="7.26675900294709"><ele>787.0</ele><time>2026-04-25T16:13:08Z</time></trkpt><trkpt lat="44.87831467829619" lon="7.2668840485159345"><ele>784.9999999999999</ele><time>2026-04-25T16:13:10Z</time></trkpt><trkpt lat="44.878325234042144" lon="7.266987929540415"><ele>783.0</ele><time>2026-04-25T16:13:11Z</time></trkpt><trkpt lat="44.87831340141398" lon="7.267119882571714"><ele>781.0</ele><time>2026-04-25T16:13:12Z</time></trkpt><trkpt lat="44.87829386460679" lon="7.267224375836383"><ele>779.0</ele><time>2026-04-25T16:13:13Z</time></trkpt><trkpt lat="44.87830874848437" lon="7.2673490541274175"><ele>776.9999999999999</ele><time>2026-04-25T16:13:14Z</time></trkpt><trkpt lat="44.87834130307555" lon="7.267468272818606"><ele>775.0</ele><time>2026-04-25T16:13:15Z</time></trkpt><trkpt lat="44.878382297856334" lon="7.267603246025721"><ele>772.9999999999999</ele><time>2026-04-25T16:13:16Z</time></trkpt><trkpt lat="44.878399336155006" lon="7.267736520378497"><ele>771.0</ele><time>2026-04-25T16:13:17Z</time></trkpt><trkpt lat="44.87839329122108" lon="7.267833129724817"><ele>769.0</ele><time>2026-04-25T16:13:18Z</time></trkpt><trkpt lat="44.87837893920603" lon="7.267922506381201"><ele>767.0</ele><time>2026-04-25T16:13:19Z</time></trkpt><trkpt lat="44.878307643314216" lon="7.268076644618258"><ele>765.0</ele><time>2026-04-25T16:13:21Z</time></trkpt><trkpt lat="44.878263389136364" lon="7.268146792243677"><ele>763.0</ele><time>2026-04-25T16:13:21.999Z</time></trkpt><trkpt lat="44.87821317510368" lon="7.268219331834769"><ele>761.1666666666667</ele><time>2026-04-25T16:13:22.999Z</time></trkpt><trkpt lat="44.87815080389429" lon="7.268290112109707"><ele>759.3333333333334</ele><time>2026-04-25T16:13:23.999Z</time></trkpt><trkpt lat="44.87809762250955" lon="7.268353856435719"><ele>757.5</ele><time>2026-04-25T16:13:24.999Z</time></trkpt><trkpt lat="44.878051078496455" lon="7.268503381745865"><ele>755.6666666666666</ele><time>2026-04-25T16:13:26.999Z</time></trkpt><trkpt lat="44.878037688753196" lon="7.268622459137984"><ele>753.8333333333333</ele><time>2026-04-25T16:13:27.999Z</time></trkpt><trkpt lat="44.878047791901515" lon="7.268726144526695"><ele>752.0</ele><time>2026-04-25T16:13:28.999Z</time></trkpt><trkpt lat="44.87806742472451" lon="7.268830739817111"><ele>752.0</ele><time>2026-04-25T16:13:29.999Z</time></trkpt><trkpt lat="44.87813362338378" lon="7.268979393511448"><ele>752.0</ele><time>2026-04-25T16:13:31.999Z</time></trkpt><trkpt lat="44.87815343567174" lon="7.2690704053963655"><ele>752.0</ele><time>2026-04-25T16:13:33.999Z</time></trkpt><trkpt lat="44.87808060082149" lon="7.269078213595617"><ele>752.0</ele><time>2026-04-25T16:13:36.999Z</time></trkpt><trkpt lat="44.87800319821937" lon="7.26895645604528"><ele>752.0</ele><time>2026-04-25T16:13:38.999Z</time></trkpt><trkpt lat="44.87795215516264" lon="7.268878908998576"><ele>752.0</ele><time>2026-04-25T16:13:39.999Z</time></trkpt><trkpt lat="44.87789472653364" lon="7.268798401957567"><ele>752.0</ele><time>2026-04-25T16:13:40.999Z</time></trkpt><trkpt lat="44.877836803894105" lon="7.268719867554787"><ele>752.0</ele><time>2026-04-25T16:13:41.999Z</time></trkpt><trkpt lat="44.877774111172286" lon="7.268641534528904"><ele>752.0</ele><time>2026-04-25T16:13:42.999Z</time></trkpt><trkpt lat="44.87772968991942" lon="7.268527569909944"><ele>752.0</ele><time>2026-04-25T16:13:43.999Z</time></trkpt><trkpt lat="44.87766665801871" lon="7.268439511922526"><ele>752.0</ele><time>2026-04-25T16:13:44.999Z</time></trkpt><trkpt lat="44.87760071369644" lon="7.268355782887079"><ele>748.8333333333333</ele><time>2026-04-25T16:13:45.999Z</time></trkpt><trkpt lat="44.87753579734553" lon="7.268286275852968"><ele>745.6666666666666</ele><time>2026-04-25T16:13:46.999Z</time></trkpt><trkpt lat="44.877469645838126" lon="7.268219686936112"><ele>742.5</ele><time>2026-04-25T16:13:47.999Z</time></trkpt><trkpt lat="44.87739104698981" lon="7.2681824300583795"><ele>739.3333333333334</ele><time>2026-04-25T16:13:48.999Z</time></trkpt><trkpt lat="44.87731787643887" lon="7.268142230736431"><ele>736.1666666666667</ele><time>2026-04-25T16:13:49.999Z</time></trkpt><trkpt lat="44.87724322365794" lon="7.268133423406917"><ele>733.0</ele><time>2026-04-25T16:13:50.999Z</time></trkpt><trkpt lat="44.87715550863441" lon="7.268157367115342"><ele>733.0</ele><time>2026-04-25T16:13:51.999Z</time></trkpt><trkpt lat="44.87705539493413" lon="7.268179022405084"><ele>733.0</ele><time>2026-04-25T16:13:52.999Z</time></trkpt><trkpt lat="44.87694741215938" lon="7.268226112757624"><ele>733.0</ele><time>2026-04-25T16:13:53.999Z</time></trkpt><trkpt lat="44.87683258918688" lon="7.268295907808195"><ele>733.0</ele><time>2026-04-25T16:13:54.999Z</time></trkpt><trkpt lat="44.87671213280035" lon="7.268321632575275"><ele>731.5999999999999</ele><time>2026-04-25T16:13:55.999Z</time></trkpt><trkpt lat="44.876607855820694" lon="7.2683475974224"><ele>730.1999999999999</ele><time>2026-04-25T16:13:56.999Z</time></trkpt><trkpt lat="44.876498175655286" lon="7.26836629507306"><ele>728.8</ele><time>2026-04-25T16:13:57.999Z</time></trkpt><trkpt lat="44.8763901485065" lon="7.268389659887565"><ele>727.4</ele><time>2026-04-25T16:13:58.999Z</time></trkpt><trkpt lat="44.87628580800143" lon="7.268429004400117"><ele>726.0</ele><time>2026-04-25T16:13:59.999Z</time></trkpt><trkpt lat="44.87617874806237" lon="7.268465875594019"><ele>726.0</ele><time>2026-04-25T16:14:00.999Z</time></trkpt><trkpt lat="44.87610402671138" lon="7.268563910389581"><ele>726.0</ele><time>2026-04-25T16:14:01.999Z</time></trkpt><trkpt lat="44.87602261806491" lon="7.268651891811666"><ele>726.0</ele><time>2026-04-25T16:14:02.999Z</time></trkpt><trkpt lat="44.875981670790736" lon="7.268937661566677"><ele>726.0</ele><time>2026-04-25T16:14:03.999Z</time></trkpt><trkpt lat="44.87589647556655" lon="7.2689944837302916"><ele>723.75</ele><time>2026-04-25T16:14:04.999Z</time></trkpt><trkpt lat="44.87575449613457" lon="7.269049535119594"><ele>721.5</ele><time>2026-04-25T16:14:05.999Z</time></trkpt><trkpt lat="44.87565819696113" lon="7.269097631564294"><ele>719.25</ele><time>2026-04-25T16:14:06.999Z</time></trkpt><trkpt lat="44.87571967013956" lon="7.269076067858997"><ele>717.0</ele><time>2026-04-25T16:14:07.999Z</time></trkpt><trkpt lat="44.87555787392547" lon="7.269131731343163"><ele>717.0</ele><time>2026-04-25T16:14:09.999Z</time></trkpt><trkpt lat="44.87543562705065" lon="7.269166133241894"><ele>717.0</ele><time>2026-04-25T16:14:11.998Z</time></trkpt><trkpt lat="44.87533440931252" lon="7.269181515494545"><ele>717.0</ele><time>2026-04-25T16:14:12.998Z</time></trkpt><trkpt lat="44.875213713380106" lon="7.269218396293535"><ele>717.0</ele><time>2026-04-25T16:14:13.998Z</time></trkpt><trkpt lat="44.87509451553907" lon="7.269243436485652"><ele>718.75</ele><time>2026-04-25T16:14:14.998Z</time></trkpt><trkpt lat="44.87496987270366" lon="7.269265233089131"><ele>720.5</ele><time>2026-04-25T16:14:15.998Z</time></trkpt><trkpt lat="44.87484385346846" lon="7.269297227628506"><ele>722.25</ele><time>2026-04-25T16:14:16.998Z</time></trkpt><trkpt lat="44.874726920789186" lon="7.269373958003113"><ele>724.0</ele><time>2026-04-25T16:14:17.998Z</time></trkpt><trkpt lat="44.87461895273543" lon="7.269425553437308"><ele>724.0</ele><time>2026-04-25T16:14:18.998Z</time></trkpt><trkpt lat="44.87453155867681" lon="7.269480751623554"><ele>724.0</ele><time>2026-04-25T16:14:19.998Z</time></trkpt><trkpt lat="44.87444537267698" lon="7.269535186668143"><ele>724.0</ele><time>2026-04-25T16:14:21.998Z</time></trkpt><trkpt lat="44.87453060953196" lon="7.269603155494489"><ele>724.0</ele><time>2026-04-25T16:14:22.998Z</time></trkpt><trkpt lat="44.87447200463003" lon="7.269507442751051"><ele>724.0</ele><time>2026-04-25T16:14:23.998Z</time></trkpt><trkpt lat="44.87457870987739" lon="7.26954214195224"><ele>724.0</ele><time>2026-04-25T16:14:25.998Z</time></trkpt><trkpt lat="44.87472155202667" lon="7.269725347521874"><ele>724.0</ele><time>2026-04-25T16:14:29.998Z</time></trkpt><trkpt lat="44.87475449899768" lon="7.269823727824054"><ele>724.0</ele><time>2026-04-25T16:14:31.998Z</time></trkpt><trkpt lat="44.874788864638056" lon="7.269928271773282"><ele>724.0</ele><time>2026-04-25T16:14:33.998Z</time></trkpt><trkpt lat="44.874817239981894" lon="7.270014592525551"><ele>724.0</ele><time>2026-04-25T16:14:35.998Z</time></trkpt><trkpt lat="44.874846615664865" lon="7.270102450921456"><ele>722.8000000000001</ele><time>2026-04-25T16:14:37.998Z</time></trkpt><trkpt lat="44.87488202076062" lon="7.270200469275802"><ele>721.6</ele><time>2026-04-25T16:14:39.998Z</time></trkpt><trkpt lat="44.87503418957067" lon="7.270134244949"><ele>720.4</ele><time>2026-04-25T16:14:40.998Z</time></trkpt><trkpt lat="44.87509830464195" lon="7.27021191520874"><ele>719.2</ele><time>2026-04-25T16:14:42.998Z</time></trkpt><trkpt lat="44.87514643111641" lon="7.2701406650149965"><ele>718.0</ele><time>2026-04-25T16:14:45.998Z</time></trkpt><trkpt lat="44.87512663473943" lon="7.270048427391377"><ele>714.1666666666667</ele><time>2026-04-25T16:14:48Z</time></trkpt><trkpt lat="44.87520072450043" lon="7.270076579638479"><ele>710.3333333333334</ele><time>2026-04-25T16:14:52Z</time></trkpt><trkpt lat="44.87528753698946" lon="7.27012810078913"><ele>706.5</ele><time>2026-04-25T16:14:54Z</time></trkpt><trkpt lat="44.87538078833857" lon="7.2701153927443585"><ele>702.6666666666666</ele><time>2026-04-25T16:14:57Z</time></trkpt><trkpt lat="44.87546893423779" lon="7.270109576328677"><ele>698.8333333333333</ele><time>2026-04-25T16:14:59Z</time></trkpt><trkpt lat="44.87553801946983" lon="7.270125966462791"><ele>695.0</ele><time>2026-04-25T16:15:01Z</time></trkpt><trkpt lat="44.87563270339157" lon="7.270137899763033"><ele>695.0</ele><time>2026-04-25T16:15:04Z</time></trkpt><trkpt lat="44.875701262864666" lon="7.270121011290937"><ele>695.0</ele><time>2026-04-25T16:15:06Z</time></trkpt><trkpt lat="44.87578263709967" lon="7.270080995265183"><ele>695.0</ele><time>2026-04-25T16:15:08Z</time></trkpt><trkpt lat="44.87582898232108" lon="7.270165789275515"><ele>695.0</ele><time>2026-04-25T16:15:10Z</time></trkpt><trkpt lat="44.87589006716303" lon="7.270217471702008"><ele>695.0</ele><time>2026-04-25T16:15:13Z</time></trkpt><trkpt lat="44.87596106516167" lon="7.270255940418243"><ele>695.0</ele><time>2026-04-25T16:15:16Z</time></trkpt><trkpt lat="44.87602813425816" lon="7.270330701495991"><ele>692.5</ele><time>2026-04-25T16:15:20Z</time></trkpt><trkpt lat="44.8761001593359" lon="7.270307991096919"><ele>690.0</ele><time>2026-04-25T16:15:24Z</time></trkpt><trkpt lat="44.87618096278696" lon="7.270300428695594"><ele>687.5</ele><time>2026-04-25T16:15:26.999Z</time></trkpt><trkpt lat="44.876309714719184" lon="7.270336483870966"><ele>685.0</ele><time>2026-04-25T16:15:45.999Z</time></trkpt><trkpt lat="44.876355013171846" lon="7.270408562018721"><ele>682.5</ele><time>2026-04-25T16:15:47.999Z</time></trkpt><trkpt lat="44.87642339322253" lon="7.270425825065497"><ele>680.0</ele><time>2026-04-25T16:15:50.999Z</time></trkpt><trkpt lat="44.87651715819742" lon="7.270372800535969"><ele>680.0</ele><time>2026-04-25T16:15:53.999Z</time></trkpt><trkpt lat="44.87662157792763" lon="7.270326996829952"><ele>680.0</ele><time>2026-04-25T16:15:55.999Z</time></trkpt><trkpt lat="44.87669917265603" lon="7.2703110272702185"><ele>680.0</ele><time>2026-04-25T16:15:56.999Z</time></trkpt><trkpt lat="44.87679111959223" lon="7.270364318582789"><ele>680.0</ele><time>2026-04-25T16:15:58.999Z</time></trkpt><trkpt lat="44.876840764580585" lon="7.270444229073141"><ele>680.0</ele><time>2026-04-25T16:15:59.999Z</time></trkpt><trkpt lat="44.87694088585896" lon="7.270549216975015"><ele>680.1666666666666</ele><time>2026-04-25T16:16:01.999Z</time></trkpt><trkpt lat="44.87700801276815" lon="7.270582525680189"><ele>680.3333333333333</ele><time>2026-04-25T16:16:02.999Z</time></trkpt><trkpt lat="44.87707132037195" lon="7.270612191968919"><ele>680.5</ele><time>2026-04-25T16:16:03.999Z</time></trkpt><trkpt lat="44.877128452480726" lon="7.270674634987968"><ele>680.6666666666666</ele><time>2026-04-25T16:16:05.999Z</time></trkpt><trkpt lat="44.877155050189245" lon="7.2707682333727615"><ele>680.8333333333334</ele><time>2026-04-25T16:16:07.999Z</time></trkpt><trkpt lat="44.87720763441253" lon="7.270856298269297"><ele>681.0</ele><time>2026-04-25T16:16:11.999Z</time></trkpt><trkpt lat="44.87724576962829" lon="7.270994305061614"><ele>676.1999999999999</ele><time>2026-04-25T16:16:13.999Z</time></trkpt><trkpt lat="44.877259023664784" lon="7.2710924866255136"><ele>671.4</ele><time>2026-04-25T16:16:15.998Z</time></trkpt><trkpt lat="44.87734474503402" lon="7.2711768736500755"><ele>666.6</ele><time>2026-04-25T16:16:18.998Z</time></trkpt><trkpt lat="44.87742334676376" lon="7.271176123711972"><ele>661.8</ele><time>2026-04-25T16:16:21.998Z</time></trkpt><trkpt lat="44.87751846776167" lon="7.271119213408261"><ele>657.0</ele><time>2026-04-25T16:16:23.998Z</time></trkpt><trkpt lat="44.8776218980661" lon="7.271142219142875"><ele>654.4000000000001</ele><time>2026-04-25T16:16:25.998Z</time></trkpt><trkpt lat="44.877702150756875" lon="7.271216300052282"><ele>651.8000000000001</ele><time>2026-04-25T16:16:27.998Z</time></trkpt><trkpt lat="44.87776058764953" lon="7.271345511917426"><ele>649.2</ele><time>2026-04-25T16:16:29.998Z</time></trkpt><trkpt lat="44.87779679001384" lon="7.271478906379686"><ele>646.6</ele><time>2026-04-25T16:16:31.998Z</time></trkpt><trkpt lat="44.877839269584875" lon="7.271596687222972"><ele>644.0</ele><time>2026-04-25T16:16:33.998Z</time></trkpt><trkpt lat="44.87792505924908" lon="7.27172254672667"><ele>641.2</ele><time>2026-04-25T16:16:35.998Z</time></trkpt><trkpt lat="44.87797360823986" lon="7.271829907421047"><ele>638.4000000000001</ele><time>2026-04-25T16:16:36.998Z</time></trkpt><trkpt lat="44.878020334173435" lon="7.2719276781310445"><ele>635.6</ele><time>2026-04-25T16:16:37.998Z</time></trkpt><trkpt lat="44.8780480391869" lon="7.272086066619856"><ele>632.8</ele><time>2026-04-25T16:16:39.998Z</time></trkpt><trkpt lat="44.878052687959425" lon="7.2722186466823455"><ele>630.0</ele><time>2026-04-25T16:16:40.998Z</time></trkpt><trkpt lat="44.87806556945454" lon="7.272334381047301"><ele>630.0</ele><time>2026-04-25T16:16:41.998Z</time></trkpt><trkpt lat="44.87809880909789" lon="7.272429181044401"><ele>630.0</ele><time>2026-04-25T16:16:42.998Z</time></trkpt><trkpt lat="44.878136081992004" lon="7.272511415166303"><ele>630.0</ele><time>2026-04-25T16:16:43.998Z</time></trkpt><trkpt lat="44.8781057779916" lon="7.272649411710834"><ele>630.0</ele><time>2026-04-25T16:16:45.998Z</time></trkpt><trkpt lat="44.8780997027219" lon="7.272764213927858"><ele>630.0</ele><time>2026-04-25T16:16:46.998Z</time></trkpt><trkpt lat="44.87814182641193" lon="7.27285382744641"><ele>630.0</ele><time>2026-04-25T16:16:48.998Z</time></trkpt><trkpt lat="44.87818482216969" lon="7.272930502355108"><ele>630.0</ele><time>2026-04-25T16:16:51.998Z</time></trkpt><trkpt lat="44.87813728424051" lon="7.272997197662063"><ele>630.0</ele><time>2026-04-25T16:16:56Z</time></trkpt><trkpt lat="44.87814388587097" lon="7.273086422089612"><ele>630.0</ele><time>2026-04-25T16:16:58Z</time></trkpt><trkpt lat="44.878090117911235" lon="7.27316127631502"><ele>630.0</ele><time>2026-04-25T16:17:01Z</time></trkpt><trkpt lat="44.878560240216714" lon="7.273887508804409"><ele>628.8</ele><time>2026-04-25T16:17:02Z</time></trkpt><trkpt lat="44.87849978853849" lon="7.27393131907751"><ele>627.6</ele><time>2026-04-25T16:17:03Z</time></trkpt><trkpt lat="44.878437570181944" lon="7.273981555750672"><ele>626.4</ele><time>2026-04-25T16:17:04Z</time></trkpt><trkpt lat="44.87834420459319" lon="7.274078083911047"><ele>625.2</ele><time>2026-04-25T16:17:06Z</time></trkpt><trkpt lat="44.87825447055516" lon="7.274200876114725"><ele>624.0</ele><time>2026-04-25T16:17:08Z</time></trkpt><trkpt lat="44.87820362197246" lon="7.274271857297871"><ele>624.0</ele><time>2026-04-25T16:17:09Z</time></trkpt><trkpt lat="44.87814821956498" lon="7.2743391483503865"><ele>624.0</ele><time>2026-04-25T16:17:10Z</time></trkpt><trkpt lat="44.87807092956258" lon="7.274379187011672"><ele>624.0</ele><time>2026-04-25T16:17:11Z</time></trkpt><trkpt lat="44.87801684814696" lon="7.274433414706454"><ele>624.0</ele><time>2026-04-25T16:17:12Z</time></trkpt><trkpt lat="44.87795461866659" lon="7.274482686531601"><ele>624.0</ele><time>2026-04-25T16:17:13Z</time></trkpt><trkpt lat="44.87787281168058" lon="7.274605428230354"><ele>624.0</ele><time>2026-04-25T16:17:15Z</time></trkpt><trkpt lat="44.87784238167489" lon="7.274754941473742"><ele>621.5</ele><time>2026-04-25T16:17:17Z</time></trkpt><trkpt lat="44.87784555056786" lon="7.27490024176247"><ele>619.0</ele><time>2026-04-25T16:17:19Z</time></trkpt><trkpt lat="44.87789584752779" lon="7.2750164985947885"><ele>616.5</ele><time>2026-04-25T16:17:21Z</time></trkpt><trkpt lat="44.87793914305617" lon="7.275084235756105"><ele>614.0</ele><time>2026-04-25T16:17:22Z</time></trkpt><trkpt lat="44.878074706520906" lon="7.275265130351884"><ele>614.0</ele><time>2026-04-25T16:17:23Z</time></trkpt><trkpt lat="44.878137345449645" lon="7.275346601015732"><ele>614.0</ele><time>2026-04-25T16:17:24Z</time></trkpt><trkpt lat="44.878164805982685" lon="7.275433282972235"><ele>614.0</ele><time>2026-04-25T16:17:25Z</time></trkpt><trkpt lat="44.87819857769631" lon="7.275531723056493"><ele>614.0</ele><time>2026-04-25T16:17:26Z</time></trkpt><trkpt lat="44.878215592321425" lon="7.2756313558890655"><ele>614.0</ele><time>2026-04-25T16:17:27Z</time></trkpt><trkpt lat="44.8781821975099" lon="7.27576263088727"><ele>614.0</ele><time>2026-04-25T16:17:28.999Z</time></trkpt><trkpt lat="44.878119369595886" lon="7.275828620388585"><ele>615.2</ele><time>2026-04-25T16:17:31.999Z</time></trkpt><trkpt lat="44.87805995909329" lon="7.275966907417416"><ele>616.4</ele><time>2026-04-25T16:17:33.999Z</time></trkpt><trkpt lat="44.87799630536057" lon="7.276038908166017"><ele>617.6</ele><time>2026-04-25T16:17:34.999Z</time></trkpt><trkpt lat="44.8779166307702" lon="7.276127522100854"><ele>618.8</ele><time>2026-04-25T16:17:35.999Z</time></trkpt><trkpt lat="44.87787376248906" lon="7.27623768715494"><ele>620.0</ele><time>2026-04-25T16:17:36.999Z</time></trkpt><trkpt lat="44.87786484941743" lon="7.276358595315031"><ele>622.4</ele><time>2026-04-25T16:17:37.999Z</time></trkpt><trkpt lat="44.87786258283405" lon="7.276483245920364"><ele>624.8</ele><time>2026-04-25T16:17:38.999Z</time></trkpt><trkpt lat="44.87782440293755" lon="7.276566409256807"><ele>627.2</ele><time>2026-04-25T16:17:39.999Z</time></trkpt><trkpt lat="44.87773578944455" lon="7.276649026459797"><ele>629.6</ele><time>2026-04-25T16:17:41.999Z</time></trkpt><trkpt lat="44.87766512303893" lon="7.276665129815529"><ele>632.0</ele><time>2026-04-25T16:17:43.999Z</time></trkpt><trkpt lat="44.87754626963576" lon="7.276685096874474"><ele>632.0</ele><time>2026-04-25T16:17:45.999Z</time></trkpt><trkpt lat="44.87748890954995" lon="7.2767228232086465"><ele>632.0</ele><time>2026-04-25T16:17:46.999Z</time></trkpt><trkpt lat="44.87743287130664" lon="7.276833762380555"><ele>632.0</ele><time>2026-04-25T16:17:48.999Z</time></trkpt><trkpt lat="44.877382052296596" lon="7.276894463968474"><ele>632.0</ele><time>2026-04-25T16:17:49.999Z</time></trkpt><trkpt lat="44.87724114445764" lon="7.277107787924104"><ele>632.0</ele><time>2026-04-25T16:17:51.999Z</time></trkpt><trkpt lat="44.87717481211908" lon="7.277234836826049"><ele>630.1666666666666</ele><time>2026-04-25T16:17:52.999Z</time></trkpt><trkpt lat="44.877124957004696" lon="7.277364028365192"><ele>628.3333333333333</ele><time>2026-04-25T16:17:53.999Z</time></trkpt><trkpt lat="44.87706687571224" lon="7.277462005676583"><ele>626.5</ele><time>2026-04-25T16:17:54.999Z</time></trkpt><trkpt lat="44.87701660163881" lon="7.277555319623571"><ele>624.6666666666666</ele><time>2026-04-25T16:17:57.999Z</time></trkpt><trkpt lat="44.876965865690565" lon="7.277611731449274"><ele>622.8333333333334</ele><time>2026-04-25T16:18:06.999Z</time></trkpt><trkpt lat="44.877019124875375" lon="7.27770189314038"><ele>621.0</ele><time>2026-04-25T16:18:08.999Z</time></trkpt><trkpt lat="44.87707518423311" lon="7.277759326061699"><ele>621.0</ele><time>2026-04-25T16:18:09.999Z</time></trkpt><trkpt lat="44.87714809750062" lon="7.277833595406198"><ele>621.0</ele><time>2026-04-25T16:18:10.999Z</time></trkpt><trkpt lat="44.87718870583975" lon="7.27791152636606"><ele>621.0</ele><time>2026-04-25T16:18:11.999Z</time></trkpt><trkpt lat="44.87719168642088" lon="7.278038654984168"><ele>621.0</ele><time>2026-04-25T16:18:12.999Z</time></trkpt><trkpt lat="44.877193040821375" lon="7.278181057712573"><ele>621.0</ele><time>2026-04-25T16:18:13.999Z</time></trkpt><trkpt lat="44.87722166258188" lon="7.2782841922463675"><ele>621.0</ele><time>2026-04-25T16:18:14.999Z</time></trkpt><trkpt lat="44.877317934662685" lon="7.278400986495957"><ele>623.4</ele><time>2026-04-25T16:18:16.999Z</time></trkpt><trkpt lat="44.877379534381824" lon="7.2784398275280795"><ele>625.8</ele><time>2026-04-25T16:18:17.999Z</time></trkpt><trkpt lat="44.87745671997473" lon="7.278440336147476"><ele>628.1999999999999</ele><time>2026-04-25T16:18:18.998Z</time></trkpt><trkpt lat="44.87759141168561" lon="7.278509212039591"><ele>630.6</ele><time>2026-04-25T16:18:20.998Z</time></trkpt><trkpt lat="44.87766638570409" lon="7.278562183781255"><ele>633.0</ele><time>2026-04-25T16:18:21.998Z</time></trkpt><trkpt lat="44.87774635246746" lon="7.2785761757149094"><ele>632.0</ele><time>2026-04-25T16:18:22.998Z</time></trkpt><trkpt lat="44.87787593222352" lon="7.278600291631233"><ele>631.0</ele><time>2026-04-25T16:18:24.998Z</time></trkpt><trkpt lat="44.877928807942624" lon="7.278667946833807"><ele>630.0</ele><time>2026-04-25T16:18:25.998Z</time></trkpt><trkpt lat="44.87796593421012" lon="7.278765909179864"><ele>629.0</ele><time>2026-04-25T16:18:26.998Z</time></trkpt><trkpt lat="44.87799148344924" lon="7.278863871533001"><ele>628.0</ele><time>2026-04-25T16:18:27.998Z</time></trkpt><trkpt lat="44.87800217655883" lon="7.2789748455993575"><ele>627.0</ele><time>2026-04-25T16:18:28.998Z</time></trkpt><trkpt lat="44.87799871871777" lon="7.2791128792739235"><ele>627.0</ele><time>2026-04-25T16:18:29.998Z</time></trkpt><trkpt lat="44.878017573494546" lon="7.279263634766221"><ele>627.0</ele><time>2026-04-25T16:18:30.998Z</time></trkpt><trkpt lat="44.87807074056976" lon="7.2793793106491576"><ele>627.0</ele><time>2026-04-25T16:18:31.998Z</time></trkpt><trkpt lat="44.878146468924236" lon="7.279442055286747"><ele>627.0</ele><time>2026-04-25T16:18:32.998Z</time></trkpt><trkpt lat="44.87827151894047" lon="7.279490720434392"><ele>627.0</ele><time>2026-04-25T16:18:33.998Z</time></trkpt><trkpt lat="44.87839618070967" lon="7.279461209463356"><ele>628.0</ele><time>2026-04-25T16:18:34.998Z</time></trkpt><trkpt lat="44.87846834857105" lon="7.2795588409878595"><ele>629.0</ele><time>2026-04-25T16:18:36.998Z</time></trkpt><trkpt lat="44.87850539278201" lon="7.2796892252928656"><ele>630.0</ele><time>2026-04-25T16:18:39.998Z</time></trkpt><trkpt lat="44.87848889176102" lon="7.279851987439327"><ele>631.0</ele><time>2026-04-25T16:18:41.998Z</time></trkpt><trkpt lat="44.878447652106324" lon="7.279941124777168"><ele>632.0</ele><time>2026-04-25T16:18:42.998Z</time></trkpt><trkpt lat="44.878386356045816" lon="7.280018160886259"><ele>632.0</ele><time>2026-04-25T16:18:43.998Z</time></trkpt><trkpt lat="44.87833554976765" lon="7.280083763054087"><ele>632.0</ele><time>2026-04-25T16:18:44.998Z</time></trkpt><trkpt lat="44.87826607553449" lon="7.2801441512610205"><ele>632.0</ele><time>2026-04-25T16:18:46.998Z</time></trkpt><trkpt lat="44.87826657392888" lon="7.2802456115519005"><ele>632.0</ele><time>2026-04-25T16:18:50.998Z</time></trkpt><trkpt lat="44.878262363962044" lon="7.280355220336211"><ele>632.0</ele><time>2026-04-25T16:18:55.998Z</time></trkpt><trkpt lat="44.87829470589972" lon="7.280492348596766"><ele>632.0</ele><time>2026-04-25T16:19:32Z</time></trkpt><trkpt lat="44.87831203409025" lon="7.280624291740508"><ele>631.0</ele><time>2026-04-25T16:19:33.999Z</time></trkpt><trkpt lat="44.87833252966737" lon="7.280774488423366"><ele>630.0</ele><time>2026-04-25T16:19:35.999Z</time></trkpt><trkpt lat="44.87826201372153" lon="7.280884484019803"><ele>629.0</ele><time>2026-04-25T16:19:37.999Z</time></trkpt><trkpt lat="44.87820420513218" lon="7.28097588290218"><ele>628.0</ele><time>2026-04-25T16:19:38.999Z</time></trkpt><trkpt lat="44.87814038675746" lon="7.281057864620313"><ele>627.0</ele><time>2026-04-25T16:19:39.999Z</time></trkpt><trkpt lat="44.878096756206034" lon="7.281156395585622"><ele>627.0</ele><time>2026-04-25T16:19:40.999Z</time></trkpt><trkpt lat="44.87808812732734" lon="7.281304325204466"><ele>627.0</ele><time>2026-04-25T16:19:42.999Z</time></trkpt><trkpt lat="44.87806609250353" lon="7.281443598478499"><ele>627.0</ele><time>2026-04-25T16:19:44.999Z</time></trkpt><trkpt lat="44.87803048055752" lon="7.281534350647953"><ele>627.0</ele><time>2026-04-25T16:19:45.999Z</time></trkpt><trkpt lat="44.87802447642824" lon="7.281677583820177"><ele>627.0</ele><time>2026-04-25T16:19:46.999Z</time></trkpt><trkpt lat="44.878007993163884" lon="7.281786411799528"><ele>624.4</ele><time>2026-04-25T16:19:47.999Z</time></trkpt><trkpt lat="44.87796008049087" lon="7.281936207540681"><ele>621.8000000000001</ele><time>2026-04-25T16:19:49.999Z</time></trkpt><trkpt lat="44.87790703991852" lon="7.281999293550275"><ele>619.2</ele><time>2026-04-25T16:19:50.999Z</time></trkpt><trkpt lat="44.87785198180494" lon="7.282065513142125"><ele>616.6</ele><time>2026-04-25T16:19:51.999Z</time></trkpt><trkpt lat="44.877766377975895" lon="7.282101247276883"><ele>614.0</ele><time>2026-04-25T16:19:52.999Z</time></trkpt><trkpt lat="44.877683932850466" lon="7.2822009043544655"><ele>617.4</ele><time>2026-04-25T16:19:54.999Z</time></trkpt><trkpt lat="44.87763769913044" lon="7.282301885368719"><ele>620.8</ele><time>2026-04-25T16:19:56.999Z</time></trkpt><trkpt lat="44.87759298052387" lon="7.282367289426399"><ele>624.2</ele><time>2026-04-25T16:19:57.999Z</time></trkpt><trkpt lat="44.87746416790556" lon="7.282444258886398"><ele>627.6</ele><time>2026-04-25T16:19:59.999Z</time></trkpt><trkpt lat="44.87749553561901" lon="7.282546599634307"><ele>631.0</ele><time>2026-04-25T16:20:00.999Z</time></trkpt><trkpt lat="44.87747698707461" lon="7.2826583832123735"><ele>631.0</ele><time>2026-04-25T16:20:01.999Z</time></trkpt><trkpt lat="44.8774749733552" lon="7.28278363668439"><ele>631.0</ele><time>2026-04-25T16:20:02.999Z</time></trkpt><trkpt lat="44.877473876900716" lon="7.282905257663004"><ele>631.0</ele><time>2026-04-25T16:20:03.999Z</time></trkpt><trkpt lat="44.877460675908274" lon="7.2830184472412585"><ele>631.0</ele><time>2026-04-25T16:20:04.999Z</time></trkpt><trkpt lat="44.87745257506418" lon="7.283133459411807"><ele>631.0</ele><time>2026-04-25T16:20:05.999Z</time></trkpt><trkpt lat="44.87743952868356" lon="7.283245343390808"><ele>631.0</ele><time>2026-04-25T16:20:06.999Z</time></trkpt><trkpt lat="44.877466655219855" lon="7.283374864923935"><ele>627.6</ele><time>2026-04-25T16:20:08.999Z</time></trkpt><trkpt lat="44.87751665013248" lon="7.283467363358401"><ele>624.2</ele><time>2026-04-25T16:20:09.999Z</time></trkpt><trkpt lat="44.87760101117279" lon="7.28353230162053"><ele>620.8</ele><time>2026-04-25T16:20:10.999Z</time></trkpt><trkpt lat="44.877513235722965" lon="7.283649604872832"><ele>617.4</ele><time>2026-04-25T16:20:13.999Z</time></trkpt><trkpt lat="44.87744713142155" lon="7.283712541154566"><ele>614.0</ele><time>2026-04-25T16:20:14.999Z</time></trkpt><trkpt lat="44.87747014629499" lon="7.2838190807565635"><ele>610.0</ele><time>2026-04-25T16:20:20.999Z</time></trkpt><trkpt lat="44.877435454975625" lon="7.28394677013911"><ele>606.0</ele><time>2026-04-25T16:20:23.998Z</time></trkpt><trkpt lat="44.87739696626329" lon="7.284085328571074"><ele>602.0</ele><time>2026-04-25T16:20:25.998Z</time></trkpt><trkpt lat="44.87733849607094" lon="7.2841964427646975"><ele>598.0</ele><time>2026-04-25T16:20:26.998Z</time></trkpt><trkpt lat="44.87727536576908" lon="7.284261934951372"><ele>594.0</ele><time>2026-04-25T16:20:27.998Z</time></trkpt><trkpt lat="44.87719404507404" lon="7.284361563092343"><ele>594.0</ele><time>2026-04-25T16:20:28.998Z</time></trkpt><trkpt lat="44.87711711498916" lon="7.2844594201319355"><ele>594.0</ele><time>2026-04-25T16:20:29.998Z</time></trkpt><trkpt lat="44.877048183775024" lon="7.284555586906952"><ele>594.0</ele><time>2026-04-25T16:20:30.998Z</time></trkpt><trkpt lat="44.87704556600026" lon="7.2847178932796774"><ele>594.0</ele><time>2026-04-25T16:20:31.998Z</time></trkpt><trkpt lat="44.877004169292164" lon="7.284891387055552"><ele>594.0</ele><time>2026-04-25T16:20:32.998Z</time></trkpt><trkpt lat="44.876972217410625" lon="7.285107629155731"><ele>589.75</ele><time>2026-04-25T16:20:33.998Z</time></trkpt><trkpt lat="44.87694140387178" lon="7.285332021953422"><ele>585.5</ele><time>2026-04-25T16:20:34.998Z</time></trkpt><trkpt lat="44.876898372228375" lon="7.285506171011654"><ele>581.25</ele><time>2026-04-25T16:20:35.998Z</time></trkpt><trkpt lat="44.87685813296908" lon="7.285641164565655"><ele>577.0</ele><time>2026-04-25T16:20:36.998Z</time></trkpt><trkpt lat="44.8768367247306" lon="7.285795309537061"><ele>576.3333333333334</ele><time>2026-04-25T16:20:37.998Z</time></trkpt><trkpt lat="44.87681317853867" lon="7.285928756579175"><ele>575.6666666666667</ele><time>2026-04-25T16:20:38.998Z</time></trkpt><trkpt lat="44.87679314346524" lon="7.286041783409081"><ele>575.0</ele><time>2026-04-25T16:20:39.998Z</time></trkpt><trkpt lat="44.87677537974695" lon="7.286157588890252"><ele>574.3333333333334</ele><time>2026-04-25T16:20:40.998Z</time></trkpt><trkpt lat="44.87676954343413" lon="7.286256169063179"><ele>573.6666666666666</ele><time>2026-04-25T16:20:41.998Z</time></trkpt><trkpt lat="44.87676605779191" lon="7.286352148585669"><ele>573.0</ele><time>2026-04-25T16:20:42.998Z</time></trkpt><trkpt lat="44.87676216282546" lon="7.286458409487971"><ele>573.0</ele><time>2026-04-25T16:20:43.998Z</time></trkpt><trkpt lat="44.876764152018225" lon="7.28656714745461"><ele>573.0</ele><time>2026-04-25T16:20:44.998Z</time></trkpt><trkpt lat="44.876769586655556" lon="7.286685736260161"><ele>573.0</ele><time>2026-04-25T16:20:45.998Z</time></trkpt><trkpt lat="44.87684659959418" lon="7.286916307746838"><ele>573.0</ele><time>2026-04-25T16:20:46.998Z</time></trkpt><trkpt lat="44.87684592553175" lon="7.2870204555366485"><ele>573.0</ele><time>2026-04-25T16:20:47.998Z</time></trkpt><trkpt lat="44.87684642581468" lon="7.2871107470001375"><ele>571.1666666666666</ele><time>2026-04-25T16:20:48.998Z</time></trkpt><trkpt lat="44.876862005679456" lon="7.287225142283488"><ele>569.3333333333334</ele><time>2026-04-25T16:20:50.998Z</time></trkpt><trkpt lat="44.87693501740498" lon="7.287283086706355"><ele>567.5</ele><time>2026-04-25T16:20:52.998Z</time></trkpt><trkpt lat="44.87692722506198" lon="7.287379555768632"><ele>565.6666666666667</ele><time>2026-04-25T16:22:06.999Z</time></trkpt><trkpt lat="44.87686706814404" lon="7.287445713766551"><ele>563.8333333333334</ele><time>2026-04-25T16:22:12.999Z</time></trkpt><trkpt lat="44.876797651037755" lon="7.287537312612018"><ele>562.0</ele><time>2026-04-25T16:22:15.999Z</time></trkpt><trkpt lat="44.8767149456962" lon="7.287609666935952"><ele>562.0</ele><time>2026-04-25T16:22:17.999Z</time></trkpt><trkpt lat="44.87661013234497" lon="7.287589962686888"><ele>562.0</ele><time>2026-04-25T16:22:19.999Z</time></trkpt><trkpt lat="44.876590356236264" lon="7.2876851873848665"><ele>562.0</ele><time>2026-04-25T16:22:22.999Z</time></trkpt><trkpt lat="44.876639691164776" lon="7.287833484510434"><ele>562.0</ele><time>2026-04-25T16:22:24.999Z</time></trkpt><trkpt lat="44.876667149236155" lon="7.28791345939681"><ele>562.0</ele><time>2026-04-25T16:22:25.999Z</time></trkpt><trkpt lat="44.87670554147281" lon="7.288001901787485"><ele>562.0</ele><time>2026-04-25T16:22:26.999Z</time></trkpt><trkpt lat="44.876716911377706" lon="7.288105067905751"><ele>560.0</ele><time>2026-04-25T16:22:27.999Z</time></trkpt><trkpt lat="44.876728619348356" lon="7.288203755965626"><ele>558.0</ele><time>2026-04-25T16:22:28.998Z</time></trkpt><trkpt lat="44.87672027131995" lon="7.288306609531492"><ele>556.0</ele><time>2026-04-25T16:22:29.998Z</time></trkpt><trkpt lat="44.876707103080854" lon="7.288419135875011"><ele>554.0</ele><time>2026-04-25T16:22:30.998Z</time></trkpt><trkpt lat="44.876694049211544" lon="7.288523807967024"><ele>552.0</ele><time>2026-04-25T16:22:31.998Z</time></trkpt><trkpt lat="44.8766817990013" lon="7.288651029034469"><ele>550.0</ele><time>2026-04-25T16:22:32.998Z</time></trkpt><trkpt lat="44.87669210912642" lon="7.288788692153897"><ele>548.8333333333334</ele><time>2026-04-25T16:22:33.998Z</time></trkpt><trkpt lat="44.87668476673954" lon="7.288927721724854"><ele>547.6666666666667</ele><time>2026-04-25T16:22:34.998Z</time></trkpt><trkpt lat="44.876698747190936" lon="7.289045992810894"><ele>546.5</ele><time>2026-04-25T16:22:35.998Z</time></trkpt><trkpt lat="44.876747511005206" lon="7.289137188258027"><ele>545.3333333333334</ele><time>2026-04-25T16:22:36.998Z</time></trkpt><trkpt lat="44.876829730173824" lon="7.289188977414224"><ele>544.1666666666666</ele><time>2026-04-25T16:22:37.998Z</time></trkpt><trkpt lat="44.876891457986424" lon="7.2892813426603045"><ele>543.0</ele><time>2026-04-25T16:22:38.998Z</time></trkpt><trkpt lat="44.87694106272068" lon="7.289381011489671"><ele>543.1999999999999</ele><time>2026-04-25T16:22:39.998Z</time></trkpt><trkpt lat="44.877000946260345" lon="7.289476934183202"><ele>543.4</ele><time>2026-04-25T16:22:40.998Z</time></trkpt><trkpt lat="44.877042121371744" lon="7.2896067876989274"><ele>543.5999999999999</ele><time>2026-04-25T16:22:41.998Z</time></trkpt><trkpt lat="44.87707652318725" lon="7.2897268524527385"><ele>543.8</ele><time>2026-04-25T16:22:42.998Z</time></trkpt><trkpt lat="44.87707082788767" lon="7.289858714516719"><ele>544.0</ele><time>2026-04-25T16:22:43.998Z</time></trkpt><trkpt lat="44.87706925414945" lon="7.289982141773236"><ele>544.0</ele><time>2026-04-25T16:22:44.998Z</time></trkpt><trkpt lat="44.87706872612129" lon="7.290105270971554"><ele>544.0</ele><time>2026-04-25T16:22:46.998Z</time></trkpt><trkpt lat="44.87704719346507" lon="7.290207170017436"><ele>544.0</ele><time>2026-04-25T16:22:48.998Z</time></trkpt><trkpt lat="44.8770441021803" lon="7.290325479393595"><ele>544.0</ele><time>2026-04-25T16:22:50.998Z</time></trkpt><trkpt lat="44.87701754564197" lon="7.290416010456056"><ele>544.0</ele><time>2026-04-25T16:22:52.998Z</time></trkpt><trkpt lat="44.87683286075025" lon="7.290466004873164"><ele>544.0</ele><time>2026-04-25T16:22:53.998Z</time></trkpt><trkpt lat="44.876776525894535" lon="7.290533655943835"><ele>544.0</ele><time>2026-04-25T16:22:54.998Z</time></trkpt><trkpt lat="44.87670831937352" lon="7.290667039128963"><ele>544.0</ele><time>2026-04-25T16:22:56.998Z</time></trkpt><trkpt lat="44.876651545688695" lon="7.2907294177791435"><ele>544.0</ele><time>2026-04-25T16:22:58.998Z</time></trkpt><trkpt lat="44.876519184124426" lon="7.290692134037157"><ele>544.0</ele><time>2026-04-25T16:23:00.998Z</time></trkpt><trkpt lat="44.87644876780983" lon="7.290678628964293"><ele>541.0</ele><time>2026-04-25T16:23:01.998Z</time></trkpt><trkpt lat="44.87637673702813" lon="7.290712252097039"><ele>538.0</ele><time>2026-04-25T16:23:02.998Z</time></trkpt><trkpt lat="44.87630611067121" lon="7.290745823440385"><ele>535.0</ele><time>2026-04-25T16:23:03.998Z</time></trkpt><trkpt lat="44.87622725385554" lon="7.290781082149074"><ele>532.0</ele><time>2026-04-25T16:23:04.998Z</time></trkpt><trkpt lat="44.87614613617225" lon="7.290835279987921"><ele>529.0</ele><time>2026-04-25T16:23:05.998Z</time></trkpt><trkpt lat="44.87604765275629" lon="7.290867627892028"><ele>526.0</ele><time>2026-04-25T16:23:06.998Z</time></trkpt><trkpt lat="44.87595972471085" lon="7.290901048780705"><ele>524.1666666666667</ele><time>2026-04-25T16:23:07.998Z</time></trkpt><trkpt lat="44.875874873504074" lon="7.290927002827319"><ele>522.3333333333334</ele><time>2026-04-25T16:23:08.998Z</time></trkpt><trkpt lat="44.87578712683653" lon="7.2909398400233885"><ele>520.5</ele><time>2026-04-25T16:23:09.998Z</time></trkpt><trkpt lat="44.8757075972349" lon="7.290921477901777"><ele>518.6666666666666</ele><time>2026-04-25T16:23:11Z</time></trkpt><trkpt lat="44.87564188033063" lon="7.290875684027744"><ele>516.8333333333333</ele><time>2026-04-25T16:23:12Z</time></trkpt><trkpt lat="44.87558629801581" lon="7.290819836412842"><ele>515.0</ele><time>2026-04-25T16:23:13Z</time></trkpt><trkpt lat="44.87548409943119" lon="7.290800542190634"><ele>515.0</ele><time>2026-04-25T16:23:15Z</time></trkpt><trkpt lat="44.875450461914824" lon="7.290899841140943"><ele>515.0</ele><time>2026-04-25T16:23:17Z</time></trkpt><trkpt lat="44.87546045981089" lon="7.290994902403585"><ele>515.0</ele><time>2026-04-25T16:23:19Z</time></trkpt><trkpt lat="44.875507633369274" lon="7.291161118792422"><ele>515.0</ele><time>2026-04-25T16:23:21Z</time></trkpt><trkpt lat="44.87554032902986" lon="7.291275149444319"><ele>515.0</ele><time>2026-04-25T16:23:22Z</time></trkpt><trkpt lat="44.87556950532328" lon="7.2914093136942855"><ele>515.1666666666666</ele><time>2026-04-25T16:23:23Z</time></trkpt><trkpt lat="44.87561601097011" lon="7.291528407084176"><ele>515.3333333333333</ele><time>2026-04-25T16:23:24Z</time></trkpt><trkpt lat="44.87565658461817" lon="7.291606695962872"><ele>515.5</ele><time>2026-04-25T16:23:25Z</time></trkpt><trkpt lat="44.87570872153123" lon="7.291692521151671"><ele>515.6666666666666</ele><time>2026-04-25T16:23:26Z</time></trkpt><trkpt lat="44.87579169931194" lon="7.291777103980434"><ele>515.8333333333334</ele><time>2026-04-25T16:23:27Z</time></trkpt><trkpt lat="44.87585546375934" lon="7.291827474843698"><ele>516.0</ele><time>2026-04-25T16:23:28Z</time></trkpt><trkpt lat="44.875922884480396" lon="7.291852865805032"><ele>514.75</ele><time>2026-04-25T16:23:29Z</time></trkpt><trkpt lat="44.87603476913351" lon="7.291869069028706"><ele>513.5</ele><time>2026-04-25T16:23:31Z</time></trkpt><trkpt lat="44.876119275985914" lon="7.291992842572747"><ele>512.25</ele><time>2026-04-25T16:23:33Z</time></trkpt><trkpt lat="44.876127157053375" lon="7.2921394956435535"><ele>511.0</ele><time>2026-04-25T16:23:35Z</time></trkpt><trkpt lat="44.8760569463129" lon="7.292287538939562"><ele>511.00000000000006</ele><time>2026-04-25T16:23:37Z</time></trkpt><trkpt lat="44.87600115317601" lon="7.292398934924276"><ele>511.0</ele><time>2026-04-25T16:23:38Z</time></trkpt><trkpt lat="44.875937170156234" lon="7.292500907378395"><ele>511.0</ele><time>2026-04-25T16:23:39Z</time></trkpt><trkpt lat="44.875876313761076" lon="7.292577633167853"><ele>511.0</ele><time>2026-04-25T16:23:40Z</time></trkpt><trkpt lat="44.87581632414518" lon="7.292640033759532"><ele>511.00000000000006</ele><time>2026-04-25T16:23:41Z</time></trkpt><trkpt lat="44.875740715298775" lon="7.292724000119191"><ele>511.0</ele><time>2026-04-25T16:23:42Z</time></trkpt><trkpt lat="44.87567336492005" lon="7.2928197596865525"><ele>511.0</ele><time>2026-04-25T16:23:42.999Z</time></trkpt><trkpt lat="44.8756024916328" lon="7.292899097008145"><ele>511.0</ele><time>2026-04-25T16:23:43.999Z</time></trkpt><trkpt lat="44.87551930011284" lon="7.292959641842264"><ele>511.0</ele><time>2026-04-25T16:23:44.999Z</time></trkpt><trkpt lat="44.875433765740205" lon="7.293014775647274"><ele>511.0</ele><time>2026-04-25T16:23:45.999Z</time></trkpt><trkpt lat="44.87535023968352" lon="7.293054482026786"><ele>511.0</ele><time>2026-04-25T16:23:46.999Z</time></trkpt><trkpt lat="44.87525751565222" lon="7.2930774388738255"><ele>509.83333333333337</ele><time>2026-04-25T16:23:47.999Z</time></trkpt><trkpt lat="44.87516147296554" lon="7.293104095418734"><ele>508.6666666666667</ele><time>2026-04-25T16:23:48.999Z</time></trkpt><trkpt lat="44.87507403046424" lon="7.293131826769706"><ele>507.5</ele><time>2026-04-25T16:23:49.999Z</time></trkpt><trkpt lat="44.874998067648434" lon="7.293147569155547"><ele>506.33333333333337</ele><time>2026-04-25T16:23:50.999Z</time></trkpt><trkpt lat="44.87492563324168" lon="7.293147729567893"><ele>505.1666666666667</ele><time>2026-04-25T16:23:51.999Z</time></trkpt><trkpt lat="44.87486037940177" lon="7.293113949703329"><ele>504.0</ele><time>2026-04-25T16:23:52.999Z</time></trkpt><trkpt lat="44.87481422039319" lon="7.293026525765419"><ele>504.0</ele><time>2026-04-25T16:23:53.999Z</time></trkpt><trkpt lat="44.87477712209621" lon="7.292915579761454"><ele>504.0</ele><time>2026-04-25T16:23:54.999Z</time></trkpt><trkpt lat="44.87474004154665" lon="7.292816010488263"><ele>504.0</ele><time>2026-04-25T16:23:55.999Z</time></trkpt><trkpt lat="44.8746957547071" lon="7.292729157642554"><ele>504.0</ele><time>2026-04-25T16:23:56.999Z</time></trkpt><trkpt lat="44.87464660061418" lon="7.292662289127804"><ele>504.0</ele><time>2026-04-25T16:23:57.999Z</time></trkpt><trkpt lat="44.87458949645469" lon="7.292623094016206"><ele>504.0</ele><time>2026-04-25T16:23:58.999Z</time></trkpt><trkpt lat="44.8745437717968" lon="7.292687834098377"><ele>504.0</ele><time>2026-04-25T16:24:00.999Z</time></trkpt><trkpt lat="44.87454841966669" lon="7.292797114890821"><ele>504.0</ele><time>2026-04-25T16:24:01.999Z</time></trkpt><trkpt lat="44.874598161241316" lon="7.292929943637181"><ele>504.0</ele><time>2026-04-25T16:24:03.999Z</time></trkpt><trkpt lat="44.87426321519937" lon="7.292895846248404"><ele>504.0</ele><time>2026-04-25T16:24:08.999Z</time></trkpt><trkpt lat="44.87428076438341" lon="7.293047471460835"><ele>500.6</ele><time>2026-04-25T16:24:09.999Z</time></trkpt><trkpt lat="44.87428238381149" lon="7.293228381232703"><ele>497.2</ele><time>2026-04-25T16:24:10.999Z</time></trkpt><trkpt lat="44.87428263494539" lon="7.29337815775424"><ele>493.80000000000007</ele><time>2026-04-25T16:24:11.999Z</time></trkpt><trkpt lat="44.87427080828718" lon="7.293524126720295"><ele>490.40000000000003</ele><time>2026-04-25T16:24:12.999Z</time></trkpt><trkpt lat="44.874253863757716" lon="7.293670361871266"><ele>487.0</ele><time>2026-04-25T16:24:13.999Z</time></trkpt><trkpt lat="44.874232961000665" lon="7.293798058190044"><ele>487.00000000000006</ele><time>2026-04-25T16:24:14.999Z</time></trkpt><trkpt lat="44.87420847645893" lon="7.293893360879273"><ele>487.0</ele><time>2026-04-25T16:24:15.999Z</time></trkpt><trkpt lat="44.87418293324723" lon="7.293984093196172"><ele>487.0</ele><time>2026-04-25T16:24:16.999Z</time></trkpt><trkpt lat="44.87414381003404" lon="7.294061912284323"><ele>487.0</ele><time>2026-04-25T16:24:17.999Z</time></trkpt><trkpt lat="44.874057925742356" lon="7.294180633175319"><ele>487.00000000000006</ele><time>2026-04-25T16:24:19.999Z</time></trkpt><trkpt lat="44.87398666078079" lon="7.294305377471133"><ele>487.0</ele><time>2026-04-25T16:24:21.999Z</time></trkpt><trkpt lat="44.873945657243105" lon="7.294376852736849"><ele>484.8571428571429</ele><time>2026-04-25T16:24:22.999Z</time></trkpt><trkpt lat="44.87390807845986" lon="7.294453305173498"><ele>482.71428571428567</ele><time>2026-04-25T16:24:23.999Z</time></trkpt><trkpt lat="44.87385850697683" lon="7.294517346412239"><ele>480.57142857142856</ele><time>2026-04-25T16:24:24.999Z</time></trkpt><trkpt lat="44.873807703950966" lon="7.294579945749418"><ele>478.42857142857144</ele><time>2026-04-25T16:24:25.999Z</time></trkpt><trkpt lat="44.873764523133005" lon="7.294648042825158"><ele>476.28571428571433</ele><time>2026-04-25T16:24:26.999Z</time></trkpt><trkpt lat="44.873723450967894" lon="7.294721769230606"><ele>474.1428571428571</ele><time>2026-04-25T16:24:27.999Z</time></trkpt><trkpt lat="44.87371431104247" lon="7.294852988368589"><ele>472.0</ele><time>2026-04-25T16:24:28.999Z</time></trkpt><trkpt lat="44.87373678255995" lon="7.295017082458493"><ele>471.0</ele><time>2026-04-25T16:24:29.999Z</time></trkpt><trkpt lat="44.873673712665074" lon="7.295058517008501"><ele>470.00000000000006</ele><time>2026-04-25T16:24:30.999Z</time></trkpt><trkpt lat="44.87352816907763" lon="7.295012073173071"><ele>469.00000000000006</ele><time>2026-04-25T16:24:31.998Z</time></trkpt><trkpt lat="44.87344054633664" lon="7.295094235871041"><ele>468.0</ele><time>2026-04-25T16:24:32.998Z</time></trkpt><trkpt lat="44.87336363986457" lon="7.29514699169188"><ele>467.0</ele><time>2026-04-25T16:24:33.998Z</time></trkpt><trkpt lat="44.873312254177264" lon="7.2952232514959325"><ele>465.8</ele><time>2026-04-25T16:24:34.998Z</time></trkpt><trkpt lat="44.87326472377351" lon="7.295328473757923"><ele>464.6</ele><time>2026-04-25T16:24:35.998Z</time></trkpt><trkpt lat="44.87322041325747" lon="7.295400368897839"><ele>463.40000000000003</ele><time>2026-04-25T16:24:36.998Z</time></trkpt><trkpt lat="44.87311103162682" lon="7.295508017795232"><ele>462.20000000000005</ele><time>2026-04-25T16:24:38.998Z</time></trkpt><trkpt lat="44.873036200202364" lon="7.295586779267742"><ele>461.0</ele><time>2026-04-25T16:24:39.998Z</time></trkpt><trkpt lat="44.872955016649634" lon="7.295651302123376"><ele>460.99999999999994</ele><time>2026-04-25T16:24:40.998Z</time></trkpt><trkpt lat="44.8728675520767" lon="7.295718939014962"><ele>461.0</ele><time>2026-04-25T16:24:41.998Z</time></trkpt><trkpt lat="44.872800258455726" lon="7.295787089229125"><ele>461.0</ele><time>2026-04-25T16:24:42.998Z</time></trkpt><trkpt lat="44.87272090796371" lon="7.29583575748734"><ele>461.0</ele><time>2026-04-25T16:24:43.998Z</time></trkpt><trkpt lat="44.872654455628144" lon="7.295884620515409"><ele>460.99999999999994</ele><time>2026-04-25T16:24:44.998Z</time></trkpt><trkpt lat="44.87259838362939" lon="7.295958476355605"><ele>461.0</ele><time>2026-04-25T16:24:45.998Z</time></trkpt><trkpt lat="44.872548138220665" lon="7.296030466034433"><ele>459.20000000000005</ele><time>2026-04-25T16:24:46.998Z</time></trkpt><trkpt lat="44.87250111117245" lon="7.2961777200766305"><ele>457.40000000000003</ele><time>2026-04-25T16:24:48.998Z</time></trkpt><trkpt lat="44.872393145928456" lon="7.296241073557011"><ele>455.6</ele><time>2026-04-25T16:24:50.998Z</time></trkpt><trkpt lat="44.87232170197015" lon="7.296244249394798"><ele>453.8</ele><time>2026-04-25T16:24:51.998Z</time></trkpt><trkpt lat="44.87220536196237" lon="7.296240775592846"><ele>452.0</ele><time>2026-04-25T16:24:53.998Z</time></trkpt><trkpt lat="44.872120610595964" lon="7.296370184336624"><ele>452.0</ele><time>2026-04-25T16:24:55.998Z</time></trkpt><trkpt lat="44.872082845170645" lon="7.29645151313778"><ele>452.00000000000006</ele><time>2026-04-25T16:24:56.998Z</time></trkpt><trkpt lat="44.872031312422415" lon="7.296513082319947"><ele>452.00000000000006</ele><time>2026-04-25T16:24:57.998Z</time></trkpt><trkpt lat="44.87192530029668" lon="7.296565035846502"><ele>452.0</ele><time>2026-04-25T16:24:59.998Z</time></trkpt><trkpt lat="44.871843877401254" lon="7.2966361128330925"><ele>452.0</ele><time>2026-04-25T16:25:01.998Z</time></trkpt><trkpt lat="44.87166624092861" lon="7.296507480640179"><ele>450.49999999999994</ele><time>2026-04-25T16:25:03.998Z</time></trkpt><trkpt lat="44.871636193069826" lon="7.296592592247968"><ele>449.0</ele><time>2026-04-25T16:25:04.998Z</time></trkpt><trkpt lat="44.87161155385044" lon="7.296696668492655"><ele>447.5</ele><time>2026-04-25T16:25:06.998Z</time></trkpt><trkpt lat="44.87174544774608" lon="7.296757555680631"><ele>446.0</ele><time>2026-04-25T16:25:28Z</time></trkpt><trkpt lat="44.871725353143475" lon="7.296850469662177"><ele>444.49999999999994</ele><time>2026-04-25T16:40:58.999Z</time></trkpt><trkpt lat="44.87170434953632" lon="7.2969343852587185"><ele>443.0</ele><time>2026-04-25T16:41:02.998Z</time></trkpt><trkpt lat="44.871660879724125" lon="7.297037373230263"><ele>443.0</ele><time>2026-04-25T16:41:04.998Z</time></trkpt><trkpt lat="44.87160041443603" lon="7.297206564171763"><ele>442.99999999999994</ele><time>2026-04-25T16:41:06.998Z</time></trkpt><trkpt lat="44.87158622958152" lon="7.297327029277047"><ele>442.99999999999994</ele><time>2026-04-25T16:41:07.998Z</time></trkpt><trkpt lat="44.87155720265811" lon="7.297443846132434"><ele>443.0</ele><time>2026-04-25T16:41:08.998Z</time></trkpt><trkpt lat="44.87155177453851" lon="7.297572727397746"><ele>443.0</ele><time>2026-04-25T16:41:09.998Z</time></trkpt><trkpt lat="44.87157552100784" lon="7.29769927241152"><ele>443.79999999999995</ele><time>2026-04-25T16:41:10.998Z</time></trkpt><trkpt lat="44.871640640025284" lon="7.297814084608548"><ele>444.59999999999997</ele><time>2026-04-25T16:41:11.998Z</time></trkpt><trkpt lat="44.87170868587692" lon="7.297929091734538"><ele>445.40000000000003</ele><time>2026-04-25T16:41:12.998Z</time></trkpt><trkpt lat="44.871781786427064" lon="7.298044877843426"><ele>446.20000000000005</ele><time>2026-04-25T16:41:13.998Z</time></trkpt><trkpt lat="44.87183363117388" lon="7.298169401304901"><ele>447.0</ele><time>2026-04-25T16:41:14.998Z</time></trkpt><trkpt lat="44.87185979502845" lon="7.298312567500782"><ele>445.20000000000005</ele><time>2026-04-25T16:41:15.998Z</time></trkpt><trkpt lat="44.871853600522066" lon="7.298463767156928"><ele>443.40000000000003</ele><time>2026-04-25T16:41:16.998Z</time></trkpt><trkpt lat="44.87182195238802" lon="7.298612447952872"><ele>441.59999999999997</ele><time>2026-04-25T16:41:17.998Z</time></trkpt><trkpt lat="44.871782195840865" lon="7.298758378300873"><ele>439.79999999999995</ele><time>2026-04-25T16:41:18.998Z</time></trkpt><trkpt lat="44.87172778525199" lon="7.298898377695329"><ele>438.0</ele><time>2026-04-25T16:41:19.998Z</time></trkpt><trkpt lat="44.871658456686816" lon="7.299034532157874"><ele>434.5</ele><time>2026-04-25T16:41:20.998Z</time></trkpt><trkpt lat="44.87155651927999" lon="7.299155199003168"><ele>431.0</ele><time>2026-04-25T16:41:21.998Z</time></trkpt><trkpt lat="44.871499554155264" lon="7.299320397678037"><ele>427.5</ele><time>2026-04-25T16:41:22.998Z</time></trkpt><trkpt lat="44.871420769757634" lon="7.299453485655352"><ele>424.0</ele><time>2026-04-25T16:41:23.998Z</time></trkpt><trkpt lat="44.871357904520266" lon="7.299592814416249"><ele>424.0</ele><time>2026-04-25T16:41:24.998Z</time></trkpt><trkpt lat="44.87129155496943" lon="7.29972451513423"><ele>424.0</ele><time>2026-04-25T16:41:25.998Z</time></trkpt><trkpt lat="44.87122128206727" lon="7.299859709747339"><ele>424.0</ele><time>2026-04-25T16:41:26.998Z</time></trkpt><trkpt lat="44.87115245241852" lon="7.299987798121441"><ele>424.0</ele><time>2026-04-25T16:41:27.998Z</time></trkpt><trkpt lat="44.87108813518562" lon="7.300102590866528"><ele>422.79999999999995</ele><time>2026-04-25T16:41:28.998Z</time></trkpt><trkpt lat="44.87102623505402" lon="7.300227759986675"><ele>421.59999999999997</ele><time>2026-04-25T16:41:29.998Z</time></trkpt><trkpt lat="44.87098810360913" lon="7.300387754525351"><ele>420.4</ele><time>2026-04-25T16:41:30.998Z</time></trkpt><trkpt lat="44.870951356435285" lon="7.300528872834953"><ele>419.2</ele><time>2026-04-25T16:41:31.998Z</time></trkpt><trkpt lat="44.870939381531606" lon="7.300659454940212"><ele>418.0</ele><time>2026-04-25T16:41:32.998Z</time></trkpt><trkpt lat="44.870949675348655" lon="7.300780012259577"><ele>414.4</ele><time>2026-04-25T16:41:33.998Z</time></trkpt><trkpt lat="44.870976816237466" lon="7.300896149731194"><ele>410.79999999999995</ele><time>2026-04-25T16:41:35.998Z</time></trkpt><trkpt lat="44.87084489428269" lon="7.301026563163171"><ele>407.2</ele><time>2026-04-25T16:41:47.998Z</time></trkpt><trkpt lat="44.870772390444564" lon="7.301047599251837"><ele>403.6</ele><time>2026-04-25T16:41:48.998Z</time></trkpt><trkpt lat="44.87070459473542" lon="7.3010701640147255"><ele>400.0</ele><time>2026-04-25T16:41:49.998Z</time></trkpt><trkpt lat="44.870618428156476" lon="7.30106748004623"><ele>400.0</ele><time>2026-04-25T16:41:51.998Z</time></trkpt><trkpt lat="44.870627695110784" lon="7.301313313634128"><ele>400.0</ele><time>2026-04-25T16:42:00.998Z</time></trkpt><trkpt lat="44.8706966909175" lon="7.301399293758774"><ele>400.0</ele><time>2026-04-25T16:42:01.998Z</time></trkpt><trkpt lat="44.870754242234355" lon="7.301513595540996"><ele>400.0</ele><time>2026-04-25T16:42:03.001Z</time></trkpt><trkpt lat="44.87080406243314" lon="7.301661518386633"><ele>398.5</ele><time>2026-04-25T16:42:04.001Z</time></trkpt><trkpt lat="44.87084873447951" lon="7.301815663396922"><ele>397.0</ele><time>2026-04-25T16:42:05Z</time></trkpt><trkpt lat="44.87089445954222" lon="7.301977073097028"><ele>395.5</ele><time>2026-04-25T16:42:06.001Z</time></trkpt><trkpt lat="44.870941461491554" lon="7.302136346097934"><ele>394.0</ele><time>2026-04-25T16:42:07.001Z</time></trkpt><trkpt lat="44.87098716722245" lon="7.302317565707581"><ele>392.5</ele><time>2026-04-25T16:42:08Z</time></trkpt><trkpt lat="44.87103673283272" lon="7.302492012366882"><ele>391.0</ele><time>2026-04-25T16:42:09.001Z</time></trkpt><trkpt lat="44.8710797086725" lon="7.302669098508003"><ele>389.5</ele><time>2026-04-25T16:42:10.001Z</time></trkpt><trkpt lat="44.87112731907311" lon="7.3028639457788"><ele>388.0</ele><time>2026-04-25T16:42:11Z</time></trkpt><trkpt lat="44.87117343514244" lon="7.303050598274161"><ele>388.0</ele><time>2026-04-25T16:42:12.001Z</time></trkpt><trkpt lat="44.871223832161284" lon="7.303228991075646"><ele>388.0</ele><time>2026-04-25T16:42:13Z</time></trkpt><trkpt lat="44.87126972428408" lon="7.303399141348673"><ele>388.0</ele><time>2026-04-25T16:42:14Z</time></trkpt><trkpt lat="44.871323418082596" lon="7.303546237480221"><ele>388.0</ele><time>2026-04-25T16:42:15Z</time></trkpt><trkpt lat="44.8714039652597" lon="7.303675609785345"><ele>388.0</ele><time>2026-04-25T16:42:16.001Z</time></trkpt><trkpt lat="44.87151407983114" lon="7.303772216695363"><ele>388.0</ele><time>2026-04-25T16:42:17Z</time></trkpt><trkpt lat="44.87165114621556" lon="7.303847658323271"><ele>388.0</ele><time>2026-04-25T16:42:18Z</time></trkpt><trkpt lat="44.87179813782917" lon="7.303940748339298"><ele>388.0</ele><time>2026-04-25T16:42:19Z</time></trkpt><trkpt lat="44.87193040899608" lon="7.304072179729064"><ele>387.6666666666667</ele><time>2026-04-25T16:42:20Z</time></trkpt><trkpt lat="44.87203003561463" lon="7.304228995254112"><ele>387.33333333333337</ele><time>2026-04-25T16:42:21Z</time></trkpt><trkpt lat="44.87211205895899" lon="7.30439973366058"><ele>387.0</ele><time>2026-04-25T16:42:22Z</time></trkpt><trkpt lat="44.872177952927565" lon="7.304605757510032"><ele>386.5</ele><time>2026-04-25T16:42:23Z</time></trkpt><trkpt lat="44.872239109744115" lon="7.304803833808174"><ele>386.0</ele><time>2026-04-25T16:42:24Z</time></trkpt><trkpt lat="44.872294159042475" lon="7.3049863428403485"><ele>385.5</ele><time>2026-04-25T16:42:25Z</time></trkpt><trkpt lat="44.87235042641285" lon="7.305170400766762"><ele>385.0</ele><time>2026-04-25T16:42:26Z</time></trkpt><trkpt lat="44.87240057718241" lon="7.305362711097303"><ele>385.0</ele><time>2026-04-25T16:42:27Z</time></trkpt><trkpt lat="44.87244911437775" lon="7.305559575044745"><ele>385.0</ele><time>2026-04-25T16:42:28Z</time></trkpt><trkpt lat="44.872503410448836" lon="7.305764240265174"><ele>385.0</ele><time>2026-04-25T16:42:29Z</time></trkpt><trkpt lat="44.872567953745886" lon="7.305945674882038"><ele>385.0</ele><time>2026-04-25T16:42:30Z</time></trkpt><trkpt lat="44.872660291870936" lon="7.306085800392285"><ele>384.6666666666667</ele><time>2026-04-25T16:42:31Z</time></trkpt><trkpt lat="44.87277837395085" lon="7.306204970632322"><ele>384.33333333333337</ele><time>2026-04-25T16:42:32Z</time></trkpt><trkpt lat="44.87291782449762" lon="7.306305128827398"><ele>384.0</ele><time>2026-04-25T16:42:33Z</time></trkpt><trkpt lat="44.87308251373233" lon="7.306386391066062"><ele>383.75</ele><time>2026-04-25T16:42:34Z</time></trkpt><trkpt lat="44.873246053700136" lon="7.306443177210081"><ele>383.5</ele><time>2026-04-25T16:42:35Z</time></trkpt><trkpt lat="44.87337910494357" lon="7.306473479021629"><ele>383.25</ele><time>2026-04-25T16:42:36Z</time></trkpt><trkpt lat="44.873493481174656" lon="7.3065024446721685"><ele>383.0</ele><time>2026-04-25T16:42:37Z</time></trkpt><trkpt lat="44.87359411826357" lon="7.306559190531878"><ele>383.5</ele><time>2026-04-25T16:42:38Z</time></trkpt><trkpt lat="44.87368004108922" lon="7.306655531066167"><ele>384.0</ele><time>2026-04-25T16:42:39Z</time></trkpt><trkpt lat="44.873754745544225" lon="7.306751661102222"><ele>384.5</ele><time>2026-04-25T16:42:40Z</time></trkpt><trkpt lat="44.873819373929614" lon="7.306898692608313"><ele>385.0</ele><time>2026-04-25T16:42:41Z</time></trkpt><trkpt lat="44.87389157389355" lon="7.3070444544459825"><ele>384.6666666666667</ele><time>2026-04-25T16:42:42Z</time></trkpt><trkpt lat="44.873870598313125" lon="7.307287718620058"><ele>384.33333333333337</ele><time>2026-04-25T16:42:43Z</time></trkpt><trkpt lat="44.87389112721508" lon="7.3075280978105575"><ele>384.0</ele><time>2026-04-25T16:42:44Z</time></trkpt><trkpt lat="44.873923184731986" lon="7.307777121220422"><ele>384.0</ele><time>2026-04-25T16:42:45Z</time></trkpt><trkpt lat="44.87393755398801" lon="7.3080035056670445"><ele>384.0</ele><time>2026-04-25T16:42:46Z</time></trkpt><trkpt lat="44.87395477601862" lon="7.308211794791241"><ele>384.0</ele><time>2026-04-25T16:42:47Z</time></trkpt><trkpt lat="44.87397641629809" lon="7.308420125239074"><ele>384.33333333333337</ele><time>2026-04-25T16:42:48Z</time></trkpt><trkpt lat="44.87402072773943" lon="7.308626105315116"><ele>384.6666666666667</ele><time>2026-04-25T16:42:49Z</time></trkpt><trkpt lat="44.874092533650995" lon="7.308833744655638"><ele>385.0</ele><time>2026-04-25T16:42:50Z</time></trkpt><trkpt lat="44.87415959067528" lon="7.309040243801833"><ele>385.0</ele><time>2026-04-25T16:42:51Z</time></trkpt><trkpt lat="44.87422788667152" lon="7.309241919594548"><ele>385.0</ele><time>2026-04-25T16:42:52Z</time></trkpt><trkpt lat="44.87428766877808" lon="7.309450851060337"><ele>385.0</ele><time>2026-04-25T16:42:53Z</time></trkpt><trkpt lat="44.87435482707028" lon="7.309654004753288"><ele>383.33333333333337</ele><time>2026-04-25T16:42:54Z</time></trkpt><trkpt lat="44.874442439937425" lon="7.309837911316491"><ele>381.6666666666667</ele><time>2026-04-25T16:42:55Z</time></trkpt><trkpt lat="44.8745380825557" lon="7.310027749158966"><ele>380.0</ele><time>2026-04-25T16:42:56Z</time></trkpt><trkpt lat="44.87463582382459" lon="7.310195279863166"><ele>380.0</ele><time>2026-04-25T16:42:57Z</time></trkpt><trkpt lat="44.87473498291228" lon="7.310358814306889"><ele>380.0</ele><time>2026-04-25T16:42:58Z</time></trkpt><trkpt lat="44.874835936964224" lon="7.310512169335465"><ele>380.0</ele><time>2026-04-25T16:42:59Z</time></trkpt><trkpt lat="44.87494744330328" lon="7.310678184444077"><ele>379.6666666666667</ele><time>2026-04-25T16:43:00Z</time></trkpt><trkpt lat="44.87506054611181" lon="7.310833026406918"><ele>379.3333333333333</ele><time>2026-04-25T16:43:01Z</time></trkpt><trkpt lat="44.87518268545591" lon="7.310983831981892"><ele>379.0</ele><time>2026-04-25T16:43:02Z</time></trkpt><trkpt lat="44.875303125525875" lon="7.311118806998776"><ele>379.3333333333333</ele><time>2026-04-25T16:43:03Z</time></trkpt><trkpt lat="44.875430685434324" lon="7.3112414432075825"><ele>379.6666666666667</ele><time>2026-04-25T16:43:03.999Z</time></trkpt><trkpt lat="44.87557154444851" lon="7.311357280237684"><ele>380.0</ele><time>2026-04-25T16:43:04.999Z</time></trkpt><trkpt lat="44.87570437513617" lon="7.311462814216911"><ele>380.0</ele><time>2026-04-25T16:43:05.999Z</time></trkpt><trkpt lat="44.87582644913578" lon="7.311553031032582"><ele>380.0</ele><time>2026-04-25T16:43:06.999Z</time></trkpt><trkpt lat="44.87594036297749" lon="7.311642910826504"><ele>380.0</ele><time>2026-04-25T16:43:07.999Z</time></trkpt><trkpt lat="44.87604497456875" lon="7.311726089169528"><ele>380.0</ele><time>2026-04-25T16:43:08.999Z</time></trkpt><trkpt lat="44.876140675147674" lon="7.311798550823441"><ele>380.4</ele><time>2026-04-25T16:43:09.999Z</time></trkpt><trkpt lat="44.87623242810299" lon="7.311867010813673"><ele>380.8</ele><time>2026-04-25T16:43:10.999Z</time></trkpt><trkpt lat="44.87630986605268" lon="7.311919010470646"><ele>381.20000000000005</ele><time>2026-04-25T16:43:11.999Z</time></trkpt><trkpt lat="44.87637217211963" lon="7.311977199273916"><ele>381.6</ele><time>2026-04-25T16:43:13.999Z</time></trkpt><trkpt lat="44.8764182899311" lon="7.311726300393591"><ele>382.0</ele><time>2026-04-25T16:43:14.999Z</time></trkpt><trkpt lat="44.876452885673565" lon="7.311636513503131"><ele>382.0</ele><time>2026-04-25T16:43:15.999Z</time></trkpt><trkpt lat="44.87650160563504" lon="7.311527984848395"><ele>382.0</ele><time>2026-04-25T16:43:16.999Z</time></trkpt><trkpt lat="44.87654204305136" lon="7.311404629437859"><ele>382.0</ele><time>2026-04-25T16:43:17.999Z</time></trkpt><trkpt lat="44.876595821334945" lon="7.311291455773282"><ele>382.0</ele><time>2026-04-25T16:43:18.999Z</time></trkpt><trkpt lat="44.87665348063123" lon="7.311176053046258"><ele>382.0</ele><time>2026-04-25T16:43:19.999Z</time></trkpt><trkpt lat="44.87670532925376" lon="7.311082135128696"><ele>382.0</ele><time>2026-04-25T16:43:20.999Z</time></trkpt><trkpt lat="44.87676076637511" lon="7.311011158372991"><ele>382.0</ele><time>2026-04-25T16:43:21.999Z</time></trkpt><trkpt lat="44.87687482952782" lon="7.310997092391413"><ele>382.0</ele><time>2026-04-25T16:43:23.999Z</time></trkpt><trkpt lat="44.87692107391849" lon="7.311069977085293"><ele>382.0</ele><time>2026-04-25T16:43:24.999Z</time></trkpt><trkpt lat="44.87699303973538" lon="7.311112498854779"><ele>382.0</ele><time>2026-04-25T16:43:25.999Z</time></trkpt><trkpt lat="44.87705816006126" lon="7.3111904805402235"><ele>382.0</ele><time>2026-04-25T16:43:26.999Z</time></trkpt><trkpt lat="44.87714034102499" lon="7.311284693584646"><ele>382.40000000000003</ele><time>2026-04-25T16:43:27.999Z</time></trkpt><trkpt lat="44.87722454864493" lon="7.31136672474902"><ele>382.8</ele><time>2026-04-25T16:43:28.999Z</time></trkpt><trkpt lat="44.87728825636476" lon="7.311417050594074"><ele>383.2</ele><time>2026-04-25T16:43:29.999Z</time></trkpt><trkpt lat="44.877389197681" lon="7.3113953610145845"><ele>383.6</ele><time>2026-04-25T16:43:31.999Z</time></trkpt><trkpt lat="44.87744054029585" lon="7.311271092112669"><ele>384.0</ele><time>2026-04-25T16:43:32.999Z</time></trkpt><trkpt lat="44.87748112722851" lon="7.311159734353329"><ele>384.0</ele><time>2026-04-25T16:43:33.999Z</time></trkpt><trkpt lat="44.87753491487638" lon="7.311042064822188"><ele>384.0</ele><time>2026-04-25T16:43:34.999Z</time></trkpt><trkpt lat="44.877593193625195" lon="7.31090410576238"><ele>384.0</ele><time>2026-04-25T16:43:35.999Z</time></trkpt><trkpt lat="44.877660480202344" lon="7.310751304952679"><ele>384.0</ele><time>2026-04-25T16:43:36.999Z</time></trkpt><trkpt lat="44.87773698952043" lon="7.3105746497748925"><ele>384.33333333333337</ele><time>2026-04-25T16:43:37.999Z</time></trkpt><trkpt lat="44.87781505878447" lon="7.3103863461455205"><ele>384.6666666666667</ele><time>2026-04-25T16:43:38.999Z</time></trkpt><trkpt lat="44.87790116293938" lon="7.310206108546594"><ele>385.0</ele><time>2026-04-25T16:43:39.999Z</time></trkpt><trkpt lat="44.87798987073001" lon="7.310000954984537"><ele>385.0</ele><time>2026-04-25T16:43:40.999Z</time></trkpt><trkpt lat="44.87807797900352" lon="7.309794130657081"><ele>385.0</ele><time>2026-04-25T16:43:41.999Z</time></trkpt><trkpt lat="44.87817393343411" lon="7.309571500465528"><ele>385.0</ele><time>2026-04-25T16:43:42.999Z</time></trkpt><trkpt lat="44.878268686355504" lon="7.309342392121508"><ele>385.2</ele><time>2026-04-25T16:43:43.999Z</time></trkpt><trkpt lat="44.87834584694674" lon="7.30917761909216"><ele>385.4</ele><time>2026-04-25T16:43:44.999Z</time></trkpt><trkpt lat="44.87839326720905" lon="7.309070707212921"><ele>385.6</ele><time>2026-04-25T16:43:45.999Z</time></trkpt><trkpt lat="44.87843769196845" lon="7.308973338256601"><ele>385.8</ele><time>2026-04-25T16:43:46.999Z</time></trkpt><trkpt lat="44.878474611701144" lon="7.3088739981486155"><ele>386.0</ele><time>2026-04-25T16:43:47.999Z</time></trkpt><trkpt lat="44.878520415758" lon="7.308787099488313"><ele>386.25</ele><time>2026-04-25T16:43:48.999Z</time></trkpt><trkpt lat="44.87860328345014" lon="7.308709358030527"><ele>386.5</ele><time>2026-04-25T16:43:49.999Z</time></trkpt><trkpt lat="44.87871892906554" lon="7.308616981633387"><ele>386.75</ele><time>2026-04-25T16:43:50.998Z</time></trkpt><trkpt lat="44.87886268485827" lon="7.308508044985542"><ele>387.0</ele><time>2026-04-25T16:43:51.998Z</time></trkpt><trkpt lat="44.878999460837555" lon="7.30843573293759"><ele>387.0</ele><time>2026-04-25T16:43:52.998Z</time></trkpt><trkpt lat="44.879135914696015" lon="7.308408249643688"><ele>387.0</ele><time>2026-04-25T16:43:53.998Z</time></trkpt><trkpt lat="44.87927161008077" lon="7.3083428054042425"><ele>387.0</ele><time>2026-04-25T16:43:54.998Z</time></trkpt><trkpt lat="44.87937095240108" lon="7.308228876926558"><ele>387.0</ele><time>2026-04-25T16:43:55.998Z</time></trkpt><trkpt lat="44.87945863144157" lon="7.308112492976179"><ele>387.20000000000005</ele><time>2026-04-25T16:43:56.998Z</time></trkpt><trkpt lat="44.87954588573165" lon="7.308006610285532"><ele>387.4</ele><time>2026-04-25T16:43:57.998Z</time></trkpt><trkpt lat="44.87963589009533" lon="7.307913092439238"><ele>387.6</ele><time>2026-04-25T16:43:58.998Z</time></trkpt><trkpt lat="44.879725776935004" lon="7.307837920899905"><ele>387.79999999999995</ele><time>2026-04-25T16:43:59.998Z</time></trkpt><trkpt lat="44.879819752895585" lon="7.307790722194901"><ele>388.0</ele><time>2026-04-25T16:44:00.998Z</time></trkpt><trkpt lat="44.87993228164506" lon="7.307768542983067"><ele>388.0</ele><time>2026-04-25T16:44:01.998Z</time></trkpt><trkpt lat="44.88006974338945" lon="7.3077618185461155"><ele>388.0</ele><time>2026-04-25T16:44:02.998Z</time></trkpt><trkpt lat="44.880223000318054" lon="7.307755369888404"><ele>388.0</ele><time>2026-04-25T16:44:03.998Z</time></trkpt><trkpt lat="44.88037392965023" lon="7.307751563925489"><ele>388.0</ele><time>2026-04-25T16:44:04.998Z</time></trkpt><trkpt lat="44.88050447520577" lon="7.307746176654005"><ele>388.59999999999997</ele><time>2026-04-25T16:44:05.998Z</time></trkpt><trkpt lat="44.88061772953635" lon="7.30773728211026"><ele>389.2</ele><time>2026-04-25T16:44:06.998Z</time></trkpt><trkpt lat="44.880725456494694" lon="7.3077430365213045"><ele>389.8</ele><time>2026-04-25T16:44:07.998Z</time></trkpt><trkpt lat="44.88081939424109" lon="7.307744008981121"><ele>390.4</ele><time>2026-04-25T16:44:09Z</time></trkpt><trkpt lat="44.88089687674381" lon="7.307717486143788"><ele>391.0</ele><time>2026-04-25T16:44:10Z</time></trkpt><trkpt lat="44.880955563425054" lon="7.307649712275229"><ele>391.0</ele><time>2026-04-25T16:44:11Z</time></trkpt><trkpt lat="44.88100624928165" lon="7.307549259521623"><ele>391.0</ele><time>2026-04-25T16:44:12Z</time></trkpt><trkpt lat="44.88107585498834" lon="7.307462194951629"><ele>391.0</ele><time>2026-04-25T16:44:13Z</time></trkpt><trkpt lat="44.88116698152073" lon="7.307385253051835"><ele>391.0</ele><time>2026-04-25T16:44:14Z</time></trkpt><trkpt lat="44.88125971163797" lon="7.30730687318348"><ele>391.0</ele><time>2026-04-25T16:44:15Z</time></trkpt><trkpt lat="44.88135258577108" lon="7.307206743150394"><ele>391.0</ele><time>2026-04-25T16:44:16Z</time></trkpt><trkpt lat="44.88144224729254" lon="7.3071060473590865"><ele>391.0</ele><time>2026-04-25T16:44:17Z</time></trkpt><trkpt lat="44.88153152233584" lon="7.307011207123076"><ele>391.0</ele><time>2026-04-25T16:44:18Z</time></trkpt><trkpt lat="44.88162395200095" lon="7.306922757043523"><ele>391.0</ele><time>2026-04-25T16:44:19Z</time></trkpt><trkpt lat="44.88172104977859" lon="7.306865859570601"><ele>391.0</ele><time>2026-04-25T16:44:20Z</time></trkpt><trkpt lat="44.88181242860975" lon="7.306814484532234"><ele>391.20000000000005</ele><time>2026-04-25T16:44:21Z</time></trkpt><trkpt lat="44.88187600072076" lon="7.306743618163828"><ele>391.40000000000003</ele><time>2026-04-25T16:44:22Z</time></trkpt><trkpt lat="44.88193812932686" lon="7.30666242742083"><ele>391.6</ele><time>2026-04-25T16:44:24Z</time></trkpt><trkpt lat="44.882074613140986" lon="7.306632652679511"><ele>391.8</ele><time>2026-04-25T16:44:26Z</time></trkpt><trkpt lat="44.8821573587868" lon="7.306633559843553"><ele>392.0</ele><time>2026-04-25T16:44:27Z</time></trkpt><trkpt lat="44.882245976305875" lon="7.306603161835201"><ele>392.0</ele><time>2026-04-25T16:44:28Z</time></trkpt><trkpt lat="44.88232801567094" lon="7.306535874327634"><ele>392.0</ele><time>2026-04-25T16:44:29Z</time></trkpt><trkpt lat="44.882392060871645" lon="7.306414194265832"><ele>392.0</ele><time>2026-04-25T16:44:30Z</time></trkpt><trkpt lat="44.88243350785078" lon="7.306260568655748"><ele>392.0</ele><time>2026-04-25T16:44:31Z</time></trkpt><trkpt lat="44.88246672263854" lon="7.306091120626297"><ele>392.0</ele><time>2026-04-25T16:44:32Z</time></trkpt><trkpt lat="44.88247748250518" lon="7.305913926207607"><ele>392.25</ele><time>2026-04-25T16:44:33Z</time></trkpt><trkpt lat="44.88250095150325" lon="7.305763253216885"><ele>392.5</ele><time>2026-04-25T16:44:34Z</time></trkpt><trkpt lat="44.882460798026" lon="7.305628477334734"><ele>392.75</ele><time>2026-04-25T16:44:35Z</time></trkpt><trkpt lat="44.88237357792272" lon="7.305507891824502"><ele>393.0</ele><time>2026-04-25T16:44:36Z</time></trkpt><trkpt lat="44.88226104621208" lon="7.305392533932746"><ele>393.5</ele><time>2026-04-25T16:44:37Z</time></trkpt><trkpt lat="44.88214763148483" lon="7.3052620863196545"><ele>394.0</ele><time>2026-04-25T16:44:38Z</time></trkpt><trkpt lat="44.88205500882055" lon="7.305126039921785"><ele>394.5</ele><time>2026-04-25T16:44:39Z</time></trkpt><trkpt lat="44.881985160445346" lon="7.3049933870360375"><ele>395.0</ele><time>2026-04-25T16:44:40Z</time></trkpt><trkpt lat="44.88193613221686" lon="7.304854449675008"><ele>395.0</ele><time>2026-04-25T16:44:41Z</time></trkpt><trkpt lat="44.88189512095853" lon="7.304705361981581"><ele>395.0</ele><time>2026-04-25T16:44:42Z</time></trkpt><trkpt lat="44.88185919513975" lon="7.304544844415004"><ele>395.0</ele><time>2026-04-25T16:44:43Z</time></trkpt><trkpt lat="44.88182253125998" lon="7.304364432114637"><ele>395.0</ele><time>2026-04-25T16:44:44Z</time></trkpt><trkpt lat="44.88178964512808" lon="7.304176708775247"><ele>395.0</ele><time>2026-04-25T16:44:45Z</time></trkpt><trkpt lat="44.8817700815914" lon="7.303985006385653"><ele>395.0</ele><time>2026-04-25T16:44:46Z</time></trkpt><trkpt lat="44.881757486056955" lon="7.303791907603795"><ele>395.0</ele><time>2026-04-25T16:44:47Z</time></trkpt><trkpt lat="44.881743737316086" lon="7.303589058979743"><ele>395.0</ele><time>2026-04-25T16:44:48Z</time></trkpt><trkpt lat="44.881731824350574" lon="7.303403766827975"><ele>395.0</ele><time>2026-04-25T16:44:49Z</time></trkpt><trkpt lat="44.88172014236602" lon="7.303224164983649"><ele>395.0</ele><time>2026-04-25T16:44:50Z</time></trkpt><trkpt lat="44.8817059205445" lon="7.303038963051463"><ele>395.0</ele><time>2026-04-25T16:44:51Z</time></trkpt><trkpt lat="44.88169293048864" lon="7.302863466374673"><ele>395.0</ele><time>2026-04-25T16:44:52Z</time></trkpt><trkpt lat="44.88167934700113" lon="7.3027072481608855"><ele>395.25</ele><time>2026-04-25T16:44:53Z</time></trkpt><trkpt lat="44.88166924352609" lon="7.302555973862369"><ele>395.5</ele><time>2026-04-25T16:44:54Z</time></trkpt><trkpt lat="44.881661852861605" lon="7.302394396819895"><ele>395.75</ele><time>2026-04-25T16:44:55Z</time></trkpt><trkpt lat="44.88165584717901" lon="7.3022147093909995"><ele>396.0</ele><time>2026-04-25T16:44:56Z</time></trkpt><trkpt lat="44.88165348641671" lon="7.30201672088272"><ele>396.0</ele><time>2026-04-25T16:44:57Z</time></trkpt><trkpt lat="44.881658681557475" lon="7.30182755250858"><ele>396.0</ele><time>2026-04-25T16:44:58Z</time></trkpt><trkpt lat="44.88167568251097" lon="7.301648332659079"><ele>396.0</ele><time>2026-04-25T16:44:59Z</time></trkpt><trkpt lat="44.88170269757831" lon="7.30146623671525"><ele>396.0</ele><time>2026-04-25T16:45:00Z</time></trkpt><trkpt lat="44.881721181061565" lon="7.3012957236035945"><ele>396.0</ele><time>2026-04-25T16:45:01Z</time></trkpt><trkpt lat="44.88173547669723" lon="7.301149531400733"><ele>396.0</ele><time>2026-04-25T16:45:02Z</time></trkpt><trkpt lat="44.88175482659498" lon="7.30103474630658"><ele>396.0</ele><time>2026-04-25T16:45:03Z</time></trkpt><trkpt lat="44.88178920926702" lon="7.300948581095046"><ele>396.0</ele><time>2026-04-25T16:45:04Z</time></trkpt><trkpt lat="44.881918029081874" lon="7.30089720655825"><ele>396.0</ele><time>2026-04-25T16:45:06Z</time></trkpt><trkpt lat="44.88202298675643" lon="7.3010671685776"><ele>396.25</ele><time>2026-04-25T16:45:07.999Z</time></trkpt><trkpt lat="44.88207269334909" lon="7.301184740730783"><ele>396.5</ele><time>2026-04-25T16:45:08.999Z</time></trkpt><trkpt lat="44.88212849938413" lon="7.301312707154981"><ele>396.75</ele><time>2026-04-25T16:45:09.999Z</time></trkpt><trkpt lat="44.88218149411414" lon="7.30146737822382"><ele>397.0</ele><time>2026-04-25T16:45:10.999Z</time></trkpt><trkpt lat="44.882234667419084" lon="7.301658411229219"><ele>397.0</ele><time>2026-04-25T16:45:11.999Z</time></trkpt><trkpt lat="44.88229242536638" lon="7.301853584883394"><ele>397.0</ele><time>2026-04-25T16:45:12.999Z</time></trkpt><trkpt lat="44.8823617973618" lon="7.302026250352816"><ele>397.0</ele><time>2026-04-25T16:45:13.999Z</time></trkpt><trkpt lat="44.88244547023239" lon="7.302171725721291"><ele>397.0</ele><time>2026-04-25T16:45:14.999Z</time></trkpt><trkpt lat="44.88255769757279" lon="7.302286496451445"><ele>397.0</ele><time>2026-04-25T16:45:15.999Z</time></trkpt><trkpt lat="44.882690464146606" lon="7.302357758659786"><ele>397.0</ele><time>2026-04-25T16:45:16.999Z</time></trkpt><trkpt lat="44.882838804997206" lon="7.302385202992964"><ele>397.0</ele><time>2026-04-25T16:45:17.999Z</time></trkpt><trkpt lat="44.88299746390104" lon="7.3023960346824905"><ele>397.0</ele><time>2026-04-25T16:45:18.999Z</time></trkpt><trkpt lat="44.88317952239542" lon="7.302383877956366"><ele>397.0</ele><time>2026-04-25T16:45:19.999Z</time></trkpt><trkpt lat="44.883315266847696" lon="7.302412655889383"><ele>397.0</ele><time>2026-04-25T16:45:20.999Z</time></trkpt><trkpt lat="44.88343420750332" lon="7.302502426835917"><ele>397.1666666666667</ele><time>2026-04-25T16:45:21.999Z</time></trkpt><trkpt lat="44.88352188985324" lon="7.302577021216737"><ele>397.33333333333337</ele><time>2026-04-25T16:45:22.999Z</time></trkpt><trkpt lat="44.8835630115479" lon="7.302665062094127"><ele>397.5</ele><time>2026-04-25T16:45:23.999Z</time></trkpt><trkpt lat="44.883549290955315" lon="7.302754006256067"><ele>397.66666666666663</ele><time>2026-04-25T16:45:26.999Z</time></trkpt><trkpt lat="44.88359156373664" lon="7.302830673030635"><ele>397.8333333333333</ele><time>2026-04-25T16:45:28.999Z</time></trkpt><trkpt lat="44.883664376586424" lon="7.302861098767652"><ele>398.0</ele><time>2026-04-25T16:45:29.999Z</time></trkpt><trkpt lat="44.883761106120225" lon="7.302861309564416"><ele>398.0</ele><time>2026-04-25T16:45:30.999Z</time></trkpt><trkpt lat="44.88387239066171" lon="7.302864924193993"><ele>398.0</ele><time>2026-04-25T16:45:31.999Z</time></trkpt><trkpt lat="44.8839829679719" lon="7.3028980062225655"><ele>398.0</ele><time>2026-04-25T16:45:32.999Z</time></trkpt><trkpt lat="44.884078174096075" lon="7.302935707322472"><ele>398.0</ele><time>2026-04-25T16:45:33.999Z</time></trkpt><trkpt lat="44.88418212529599" lon="7.302984456753731"><ele>398.0</ele><time>2026-04-25T16:45:34.999Z</time></trkpt><trkpt lat="44.88431849149431" lon="7.302993555542378"><ele>399.0</ele><time>2026-04-25T16:45:35.999Z</time></trkpt><trkpt lat="44.88448134070391" lon="7.302953681974759"><ele>400.0</ele><time>2026-04-25T16:45:36.999Z</time></trkpt><trkpt lat="44.88464713538489" lon="7.302950999343748"><ele>401.0</ele><time>2026-04-25T16:45:37.999Z</time></trkpt><trkpt lat="44.88479506934348" lon="7.302961986364471"><ele>401.0</ele><time>2026-04-25T16:45:38.999Z</time></trkpt><trkpt lat="44.88494708713241" lon="7.3029486434431234"><ele>401.0</ele><time>2026-04-25T16:45:39.999Z</time></trkpt><trkpt lat="44.88508996990185" lon="7.302958414801571"><ele>401.0</ele><time>2026-04-25T16:45:40.999Z</time></trkpt><trkpt lat="44.88522501146865" lon="7.302959184282767"><ele>401.0</ele><time>2026-04-25T16:45:41.999Z</time></trkpt><trkpt lat="44.88533763656086" lon="7.302950568803413"><ele>401.0</ele><time>2026-04-25T16:45:42.999Z</time></trkpt><trkpt lat="44.88541763058998" lon="7.302971839919726"><ele>401.0</ele><time>2026-04-25T16:45:43.999Z</time></trkpt><trkpt lat="44.885492440027946" lon="7.30300087108108"><ele>401.0</ele><time>2026-04-25T16:45:47.999Z</time></trkpt><trkpt lat="44.885476088056194" lon="7.303151105461026"><ele>401.0</ele><time>2026-04-25T16:45:48.999Z</time></trkpt><trkpt lat="44.88546617888576" lon="7.303284826367195"><ele>401.0</ele><time>2026-04-25T16:45:49.999Z</time></trkpt><trkpt lat="44.8854475780553" lon="7.3034352380429"><ele>400.75</ele><time>2026-04-25T16:45:50.999Z</time></trkpt><trkpt lat="44.88542826938541" lon="7.303603670150081"><ele>400.5</ele><time>2026-04-25T16:45:51.999Z</time></trkpt><trkpt lat="44.88544086891485" lon="7.303775439130716"><ele>400.25</ele><time>2026-04-25T16:45:52.999Z</time></trkpt><trkpt lat="44.88544015912044" lon="7.303958435877561"><ele>400.0</ele><time>2026-04-25T16:45:53.999Z</time></trkpt><trkpt lat="44.88552621004352" lon="7.304128107371636"><ele>400.0</ele><time>2026-04-25T16:45:54.998Z</time></trkpt><trkpt lat="44.88562308061484" lon="7.304317226587792"><ele>400.0</ele><time>2026-04-25T16:45:55.998Z</time></trkpt><trkpt lat="44.88570198482185" lon="7.304546428630536"><ele>400.0</ele><time>2026-04-25T16:45:56.998Z</time></trkpt><trkpt lat="44.88579252896048" lon="7.304760548363303"><ele>400.25</ele><time>2026-04-25T16:45:57.998Z</time></trkpt><trkpt lat="44.88587221279803" lon="7.304953981326982"><ele>400.5</ele><time>2026-04-25T16:45:58.998Z</time></trkpt><trkpt lat="44.885943402718375" lon="7.30513644656563"><ele>400.75</ele><time>2026-04-25T16:45:59.998Z</time></trkpt><trkpt lat="44.88598476271308" lon="7.305319516910281"><ele>401.0</ele><time>2026-04-25T16:46:00.998Z</time></trkpt><trkpt lat="44.88601219379846" lon="7.3055013721449304"><ele>400.75</ele><time>2026-04-25T16:46:01.998Z</time></trkpt><trkpt lat="44.88603898538064" lon="7.305678936864174"><ele>400.5</ele><time>2026-04-25T16:46:02.998Z</time></trkpt><trkpt lat="44.88606219744571" lon="7.305850307424483"><ele>400.25</ele><time>2026-04-25T16:46:03.998Z</time></trkpt><trkpt lat="44.886087014249064" lon="7.306033370214079"><ele>400.0</ele><time>2026-04-25T16:46:04.998Z</time></trkpt><trkpt lat="44.88610844267103" lon="7.306224200154018"><ele>400.0</ele><time>2026-04-25T16:46:05.998Z</time></trkpt><trkpt lat="44.88612172474674" lon="7.306395294371521"><ele>400.0</ele><time>2026-04-25T16:46:06.998Z</time></trkpt><trkpt lat="44.88613657431517" lon="7.306538699352563"><ele>400.0</ele><time>2026-04-25T16:46:07.998Z</time></trkpt><trkpt lat="44.88614511622983" lon="7.306661991541405"><ele>400.0</ele><time>2026-04-25T16:46:08.998Z</time></trkpt><trkpt lat="44.88615987486185" lon="7.306785365973699"><ele>400.0</ele><time>2026-04-25T16:46:09.998Z</time></trkpt><trkpt lat="44.886134277823" lon="7.306893429764891"><ele>400.1666666666667</ele><time>2026-04-25T16:46:10.998Z</time></trkpt><trkpt lat="44.88612121040547" lon="7.306994871317575"><ele>400.33333333333337</ele><time>2026-04-25T16:46:11.998Z</time></trkpt><trkpt lat="44.88611819222988" lon="7.307104779052469"><ele>400.5</ele><time>2026-04-25T16:46:12.998Z</time></trkpt><trkpt lat="44.886099593023694" lon="7.3072180639887545"><ele>400.66666666666663</ele><time>2026-04-25T16:46:13.998Z</time></trkpt><trkpt lat="44.88608134665001" lon="7.307346667007169"><ele>400.8333333333333</ele><time>2026-04-25T16:46:15Z</time></trkpt><trkpt lat="44.88606854350939" lon="7.307468177201637"><ele>401.0</ele><time>2026-04-25T16:46:16Z</time></trkpt><trkpt lat="44.88606169439319" lon="7.307575775255092"><ele>401.4</ele><time>2026-04-25T16:46:17Z</time></trkpt><trkpt lat="44.8860524724543" lon="7.307689332286763"><ele>401.8</ele><time>2026-04-25T16:46:18Z</time></trkpt><trkpt lat="44.886047002550164" lon="7.307795601285034"><ele>402.2</ele><time>2026-04-25T16:46:19Z</time></trkpt><trkpt lat="44.88602259027789" lon="7.307944140805317"><ele>402.59999999999997</ele><time>2026-04-25T16:46:21Z</time></trkpt><trkpt lat="44.88613867875676" lon="7.308014232658219"><ele>403.0</ele><time>2026-04-25T16:46:23Z</time></trkpt><trkpt lat="44.8862235093054" lon="7.308007928394638"><ele>403.0</ele><time>2026-04-25T16:46:24Z</time></trkpt><trkpt lat="44.886306379155066" lon="7.3080236390988365"><ele>403.0</ele><time>2026-04-25T16:46:25Z</time></trkpt><trkpt lat="44.88639920413003" lon="7.308055468204508"><ele>403.0</ele><time>2026-04-25T16:46:26Z</time></trkpt><trkpt lat="44.88649851541628" lon="7.308085412280792"><ele>403.0</ele><time>2026-04-25T16:46:27Z</time></trkpt><trkpt lat="44.8866023048432" lon="7.308124999356777"><ele>403.0</ele><time>2026-04-25T16:46:28Z</time></trkpt><trkpt lat="44.88669967969391" lon="7.308164070450078"><ele>402.6666666666667</ele><time>2026-04-25T16:46:29Z</time></trkpt><trkpt lat="44.886789064975154" lon="7.308199634594557"><ele>402.33333333333337</ele><time>2026-04-25T16:46:30Z</time></trkpt><trkpt lat="44.88686902269019" lon="7.308226161185396"><ele>402.0</ele><time>2026-04-25T16:46:31Z</time></trkpt><trkpt lat="44.88693566662192" lon="7.308245586898183"><ele>401.66666666666663</ele><time>2026-04-25T16:46:32Z</time></trkpt><trkpt lat="44.88700195130121" lon="7.308349485081836"><ele>401.3333333333333</ele><time>2026-04-25T16:46:34Z</time></trkpt><trkpt lat="44.8870387352593" lon="7.308442989264894"><ele>401.0</ele><time>2026-04-25T16:46:35Z</time></trkpt><trkpt lat="44.887095426974724" lon="7.308510198798383"><ele>401.0</ele><time>2026-04-25T16:46:36Z</time></trkpt><trkpt lat="44.887073803437595" lon="7.3087155268504445"><ele>401.0</ele><time>2026-04-25T16:46:38Z</time></trkpt><trkpt lat="44.88706422484728" lon="7.3088748651431645"><ele>401.0</ele><time>2026-04-25T16:46:39Z</time></trkpt><trkpt lat="44.887035221244005" lon="7.3090578091619784"><ele>401.0</ele><time>2026-04-25T16:46:40Z</time></trkpt><trkpt lat="44.88700605579433" lon="7.309261804903574"><ele>400.0</ele><time>2026-04-25T16:46:41Z</time></trkpt><trkpt lat="44.886976986851835" lon="7.309481564661739"><ele>399.0</ele><time>2026-04-25T16:46:42Z</time></trkpt><trkpt lat="44.88694610704803" lon="7.309725665134914"><ele>398.0</ele><time>2026-04-25T16:46:43Z</time></trkpt><trkpt lat="44.8868869035438" lon="7.310001662001745"><ele>397.0</ele><time>2026-04-25T16:46:44Z</time></trkpt><trkpt lat="44.886848751334526" lon="7.31031662531999"><ele>396.0</ele><time>2026-04-25T16:46:45Z</time></trkpt><trkpt lat="44.88680917395648" lon="7.31064335358896"><ele>396.0</ele><time>2026-04-25T16:46:46Z</time></trkpt><trkpt lat="44.886774697508436" lon="7.310927971426375"><ele>396.0</ele><time>2026-04-25T16:46:47Z</time></trkpt><trkpt lat="44.88675879903998" lon="7.311187534872248"><ele>396.0</ele><time>2026-04-25T16:46:48Z</time></trkpt><trkpt lat="44.88671946610781" lon="7.311423473586752"><ele>395.5</ele><time>2026-04-25T16:46:49Z</time></trkpt><trkpt lat="44.88668395452379" lon="7.3116314793648085"><ele>395.0</ele><time>2026-04-25T16:46:50Z</time></trkpt><trkpt lat="44.88665672488291" lon="7.311830157807923"><ele>394.5</ele><time>2026-04-25T16:46:51Z</time></trkpt><trkpt lat="44.88664760418915" lon="7.31201432619459"><ele>394.0</ele><time>2026-04-25T16:46:52Z</time></trkpt><trkpt lat="44.886647348764605" lon="7.312164577706776"><ele>393.6666666666667</ele><time>2026-04-25T16:46:53Z</time></trkpt><trkpt lat="44.88665197603699" lon="7.3122875525197815"><ele>393.33333333333337</ele><time>2026-04-25T16:46:54Z</time></trkpt><trkpt lat="44.88664939304028" lon="7.312398296787231"><ele>393.0</ele><time>2026-04-25T16:46:55Z</time></trkpt><trkpt lat="44.88661992290111" lon="7.312567576942051"><ele>392.66666666666663</ele><time>2026-04-25T16:46:57Z</time></trkpt><trkpt lat="44.886594338617584" lon="7.3126674884523695"><ele>392.3333333333333</ele><time>2026-04-25T16:46:58Z</time></trkpt><trkpt lat="44.88660327408805" lon="7.312785993661804"><ele>392.0</ele><time>2026-04-25T16:46:59Z</time></trkpt><trkpt lat="44.88668368901563" lon="7.312912507770591"><ele>392.0</ele><time>2026-04-25T16:47:00Z</time></trkpt><trkpt lat="44.88673393145269" lon="7.313043916684799"><ele>392.0</ele><time>2026-04-25T16:47:01Z</time></trkpt><trkpt lat="44.886777863757715" lon="7.313207368873549"><ele>392.0</ele><time>2026-04-25T16:47:02Z</time></trkpt><trkpt lat="44.88682321665332" lon="7.313393988929812"><ele>392.0</ele><time>2026-04-25T16:47:03Z</time></trkpt><trkpt lat="44.88686623619648" lon="7.313598297073556"><ele>392.0</ele><time>2026-04-25T16:47:04Z</time></trkpt><trkpt lat="44.88691504895638" lon="7.313814593565812"><ele>392.0</ele><time>2026-04-25T16:47:05Z</time></trkpt><trkpt lat="44.88694751576517" lon="7.314012414150203"><ele>392.0</ele><time>2026-04-25T16:47:06Z</time></trkpt><trkpt lat="44.88697324436741" lon="7.314181752401558"><ele>392.0</ele><time>2026-04-25T16:47:07Z</time></trkpt><trkpt lat="44.887014329866155" lon="7.314308114827159"><ele>392.20000000000005</ele><time>2026-04-25T16:47:08Z</time></trkpt><trkpt lat="44.88708634046607" lon="7.314390571318917"><ele>392.4</ele><time>2026-04-25T16:47:08.999Z</time></trkpt><trkpt lat="44.88718333183363" lon="7.314418228467901"><ele>392.6</ele><time>2026-04-25T16:47:09.999Z</time></trkpt><trkpt lat="44.8872924107658" lon="7.314359757000439"><ele>392.79999999999995</ele><time>2026-04-25T16:47:10.999Z</time></trkpt><trkpt lat="44.887427722146526" lon="7.3143274827203895"><ele>393.0</ele><time>2026-04-25T16:47:11.999Z</time></trkpt><trkpt lat="44.887562579662" lon="7.314256593178839"><ele>393.0</ele><time>2026-04-25T16:47:12.999Z</time></trkpt><trkpt lat="44.887707292269575" lon="7.3141943826181155"><ele>393.0</ele><time>2026-04-25T16:47:13.999Z</time></trkpt><trkpt lat="44.88788080569233" lon="7.314128172757519"><ele>393.0</ele><time>2026-04-25T16:47:14.999Z</time></trkpt><trkpt lat="44.8880668600121" lon="7.314053760619504"><ele>393.0</ele><time>2026-04-25T16:47:15.999Z</time></trkpt><trkpt lat="44.88823591798915" lon="7.313988581054095"><ele>393.0</ele><time>2026-04-25T16:47:16.999Z</time></trkpt><trkpt lat="44.8883922364805" lon="7.313924012083718"><ele>393.0</ele><time>2026-04-25T16:47:17.999Z</time></trkpt><trkpt lat="44.88854228960891" lon="7.313864859005474"><ele>393.75</ele><time>2026-04-25T16:47:18.999Z</time></trkpt><trkpt lat="44.8886788222718" lon="7.313810833154452"><ele>394.5</ele><time>2026-04-25T16:47:19.999Z</time></trkpt><trkpt lat="44.8888058483919" lon="7.31376263643098"><ele>395.25</ele><time>2026-04-25T16:47:20.999Z</time></trkpt><trkpt lat="44.88892494157093" lon="7.31371707527133"><ele>396.0</ele><time>2026-04-25T16:47:21.999Z</time></trkpt><trkpt lat="44.88901926357996" lon="7.313680532984891"><ele>396.0</ele><time>2026-04-25T16:47:22.999Z</time></trkpt><trkpt lat="44.889079788929976" lon="7.313640505860709"><ele>396.0</ele><time>2026-04-25T16:47:23.999Z</time></trkpt><trkpt lat="44.88923691582875" lon="7.31374853973383"><ele>396.0</ele><time>2026-04-25T16:47:25.999Z</time></trkpt><trkpt lat="44.889327131511735" lon="7.313820411282367"><ele>396.0</ele><time>2026-04-25T16:47:26.999Z</time></trkpt><trkpt lat="44.88942380473814" lon="7.313899560287396"><ele>396.33333333333337</ele><time>2026-04-25T16:47:27.999Z</time></trkpt><trkpt lat="44.88953555818336" lon="7.3140018094379196"><ele>396.6666666666667</ele><time>2026-04-25T16:47:28.999Z</time></trkpt><trkpt lat="44.88963828410602" lon="7.314165514405104"><ele>397.0</ele><time>2026-04-25T16:47:29.999Z</time></trkpt><trkpt lat="44.88975080707423" lon="7.314339521706095"><ele>397.0</ele><time>2026-04-25T16:47:30.999Z</time></trkpt><trkpt lat="44.88986783736929" lon="7.3144668008399325"><ele>397.0</ele><time>2026-04-25T16:47:31.999Z</time></trkpt><trkpt lat="44.88997864519436" lon="7.314572132120336"><ele>397.0</ele><time>2026-04-25T16:47:32.999Z</time></trkpt><trkpt lat="44.890117341646096" lon="7.314636695690384"><ele>397.0</ele><time>2026-04-25T16:47:33.999Z</time></trkpt><trkpt lat="44.8902754317641" lon="7.314672095612145"><ele>396.6666666666667</ele><time>2026-04-25T16:47:34.999Z</time></trkpt><trkpt lat="44.89045447492103" lon="7.314716517092635"><ele>396.33333333333337</ele><time>2026-04-25T16:47:35.999Z</time></trkpt><trkpt lat="44.89063018148915" lon="7.314846184211498"><ele>396.0</ele><time>2026-04-25T16:47:36.999Z</time></trkpt><trkpt lat="44.890800590103126" lon="7.314936521627118"><ele>396.33333333333337</ele><time>2026-04-25T16:47:37.999Z</time></trkpt><trkpt lat="44.890946900693216" lon="7.315022607969604"><ele>396.6666666666667</ele><time>2026-04-25T16:47:38.999Z</time></trkpt><trkpt lat="44.89111333312331" lon="7.315036537379713"><ele>397.0</ele><time>2026-04-25T16:47:39.999Z</time></trkpt><trkpt lat="44.89129442925939" lon="7.315071739975301"><ele>397.0</ele><time>2026-04-25T16:47:40.999Z</time></trkpt><trkpt lat="44.8914548448795" lon="7.315061660031235"><ele>397.0</ele><time>2026-04-25T16:47:41.999Z</time></trkpt><trkpt lat="44.891590703344605" lon="7.315029315501127"><ele>397.0</ele><time>2026-04-25T16:47:42.999Z</time></trkpt><trkpt lat="44.89170438384247" lon="7.314989545827292"><ele>397.0</ele><time>2026-04-25T16:47:43.999Z</time></trkpt><trkpt lat="44.8917892695639" lon="7.314897171542989"><ele>397.25</ele><time>2026-04-25T16:47:44.999Z</time></trkpt><trkpt lat="44.89186345248973" lon="7.314775122806363"><ele>397.5</ele><time>2026-04-25T16:47:45.999Z</time></trkpt><trkpt lat="44.89196052124504" lon="7.314608996696712"><ele>397.75</ele><time>2026-04-25T16:47:46.999Z</time></trkpt><trkpt lat="44.89205468452366" lon="7.314428520861557"><ele>398.0</ele><time>2026-04-25T16:47:47.999Z</time></trkpt><trkpt lat="44.89216985686523" lon="7.3142759031666005"><ele>398.66666666666663</ele><time>2026-04-25T16:47:48.999Z</time></trkpt><trkpt lat="44.89230267932899" lon="7.314179460665144"><ele>399.33333333333337</ele><time>2026-04-25T16:47:49.999Z</time></trkpt><trkpt lat="44.89245391237221" lon="7.314106907376987"><ele>400.0</ele><time>2026-04-25T16:47:50.999Z</time></trkpt><trkpt lat="44.89259381885105" lon="7.314018021466162"><ele>401.25</ele><time>2026-04-25T16:47:51.999Z</time></trkpt><trkpt lat="44.89267939040424" lon="7.313855397277307"><ele>402.5</ele><time>2026-04-25T16:47:52.999Z</time></trkpt><trkpt lat="44.89276762722024" lon="7.313690323287183"><ele>403.75</ele><time>2026-04-25T16:47:53.999Z</time></trkpt><trkpt lat="44.89285809275506" lon="7.313566057532409"><ele>405.0</ele><time>2026-04-25T16:47:54.999Z</time></trkpt><trkpt lat="44.892960580902816" lon="7.313444410815407"><ele>405.0</ele><time>2026-04-25T16:47:55.999Z</time></trkpt><trkpt lat="44.89311281951968" lon="7.313368098847389"><ele>405.0</ele><time>2026-04-25T16:47:56.998Z</time></trkpt><trkpt lat="44.893281724697985" lon="7.313314716241866"><ele>405.0</ele><time>2026-04-25T16:47:57.998Z</time></trkpt><trkpt lat="44.8934541809406" lon="7.313281427021081"><ele>407.5</ele><time>2026-04-25T16:47:58.998Z</time></trkpt><trkpt lat="44.893609230508076" lon="7.313280140674377"><ele>410.0</ele><time>2026-04-25T16:47:59.998Z</time></trkpt><trkpt lat="44.8937272937137" lon="7.313243078884224"><ele>412.5</ele><time>2026-04-25T16:48:00.998Z</time></trkpt><trkpt lat="44.893808353433975" lon="7.31313860554774"><ele>415.0</ele><time>2026-04-25T16:48:01.998Z</time></trkpt><trkpt lat="44.893876765332415" lon="7.312976572210025"><ele>417.25</ele><time>2026-04-25T16:48:02.998Z</time></trkpt><trkpt lat="44.89394446004989" lon="7.312812949982541"><ele>419.5</ele><time>2026-04-25T16:48:03.998Z</time></trkpt><trkpt lat="44.89400875090746" lon="7.312643350501167"><ele>421.75</ele><time>2026-04-25T16:48:04.998Z</time></trkpt><trkpt lat="44.89403011279998" lon="7.312437091356916"><ele>424.0</ele><time>2026-04-25T16:48:05.998Z</time></trkpt><trkpt lat="44.89402811365771" lon="7.312232130106716"><ele>424.75</ele><time>2026-04-25T16:48:06.998Z</time></trkpt><trkpt lat="44.89403543767164" lon="7.3120495173226345"><ele>425.5</ele><time>2026-04-25T16:48:07.998Z</time></trkpt><trkpt lat="44.894095688025864" lon="7.311882809758103"><ele>426.25</ele><time>2026-04-25T16:48:08.998Z</time></trkpt><trkpt lat="44.894200453255735" lon="7.311718587438322"><ele>427.0</ele><time>2026-04-25T16:48:09.998Z</time></trkpt><trkpt lat="44.89434599451073" lon="7.311551987987115"><ele>429.33333333333337</ele><time>2026-04-25T16:48:10.998Z</time></trkpt><trkpt lat="44.894483900436505" lon="7.311356750878395"><ele>431.66666666666663</ele><time>2026-04-25T16:48:11.998Z</time></trkpt><trkpt lat="44.89462781822528" lon="7.31116784897645"><ele>434.0</ele><time>2026-04-25T16:48:12.998Z</time></trkpt><trkpt lat="44.89480586838622" lon="7.311023059403097"><ele>434.0</ele><time>2026-04-25T16:48:13.998Z</time></trkpt><trkpt lat="44.895011975431146" lon="7.310869747120268"><ele>434.0</ele><time>2026-04-25T16:48:14.998Z</time></trkpt><trkpt lat="44.895193892315056" lon="7.310654773803647"><ele>435.66666666666663</ele><time>2026-04-25T16:48:15.998Z</time></trkpt><trkpt lat="44.89532881054297" lon="7.31045593675618"><ele>437.33333333333337</ele><time>2026-04-25T16:48:16.998Z</time></trkpt><trkpt lat="44.89546042279624" lon="7.310218628914359"><ele>439.0</ele><time>2026-04-25T16:48:17.998Z</time></trkpt><trkpt lat="44.8955910859343" lon="7.309983199159748"><ele>439.0</ele><time>2026-04-25T16:48:18.998Z</time></trkpt><trkpt lat="44.89572575572611" lon="7.3097818166848505"><ele>439.0</ele><time>2026-04-25T16:48:20Z</time></trkpt><trkpt lat="44.895831033274234" lon="7.309574873026194"><ele>439.0</ele><time>2026-04-25T16:48:21Z</time></trkpt><trkpt lat="44.89591838896128" lon="7.309407348125268"><ele>438.5</ele><time>2026-04-25T16:48:22Z</time></trkpt><trkpt lat="44.895994295651775" lon="7.309261298678822"><ele>438.0</ele><time>2026-04-25T16:48:23Z</time></trkpt><trkpt lat="44.89605656147699" lon="7.309095166565556"><ele>437.5</ele><time>2026-04-25T16:48:24Z</time></trkpt><trkpt lat="44.89611838022027" lon="7.308906818045748"><ele>437.0</ele><time>2026-04-25T16:48:25Z</time></trkpt><trkpt lat="44.89618359135716" lon="7.308681241532813"><ele>438.5</ele><time>2026-04-25T16:48:26Z</time></trkpt><trkpt lat="44.896242170319525" lon="7.3084578810651415"><ele>440.0</ele><time>2026-04-25T16:48:27Z</time></trkpt><trkpt lat="44.89628890074222" lon="7.308272697076159"><ele>441.5</ele><time>2026-04-25T16:48:28Z</time></trkpt><trkpt lat="44.89630934671964" lon="7.3081205982101345"><ele>443.0</ele><time>2026-04-25T16:48:29Z</time></trkpt><trkpt lat="44.89636107178611" lon="7.307973830224203"><ele>445.66666666666663</ele><time>2026-04-25T16:48:30Z</time></trkpt><trkpt lat="44.896450350424516" lon="7.307804518366208"><ele>448.33333333333337</ele><time>2026-04-25T16:48:31Z</time></trkpt><trkpt lat="44.89654987505713" lon="7.307609229232576"><ele>451.0</ele><time>2026-04-25T16:48:32Z</time></trkpt><trkpt lat="44.896619768259676" lon="7.307415274476778"><ele>451.0</ele><time>2026-04-25T16:48:33Z</time></trkpt><trkpt lat="44.896659452893175" lon="7.3072465608716755"><ele>451.0</ele><time>2026-04-25T16:48:34Z</time></trkpt><trkpt lat="44.8966704490987" lon="7.307101244892986"><ele>451.0</ele><time>2026-04-25T16:48:35Z</time></trkpt><trkpt lat="44.89664127986802" lon="7.306981618595046"><ele>451.0</ele><time>2026-04-25T16:48:36Z</time></trkpt><trkpt lat="44.89656911102328" lon="7.306894423969233"><ele>451.0</ele><time>2026-04-25T16:48:37Z</time></trkpt><trkpt lat="44.896474106890174" lon="7.306836972044182"><ele>452.50000000000006</ele><time>2026-04-25T16:48:38Z</time></trkpt><trkpt lat="44.89640592472266" lon="7.306751376983167"><ele>454.0</ele><time>2026-04-25T16:48:39Z</time></trkpt><trkpt lat="44.896351832925845" lon="7.306689543288447"><ele>455.5</ele><time>2026-04-25T16:48:40Z</time></trkpt><trkpt lat="44.89633108772093" lon="7.306601011179888"><ele>457.0</ele><time>2026-04-25T16:48:41Z</time></trkpt><trkpt lat="44.89638187288213" lon="7.306471560352114"><ele>458.50000000000006</ele><time>2026-04-25T16:48:42Z</time></trkpt><trkpt lat="44.89644653015477" lon="7.306352733170279"><ele>460.0</ele><time>2026-04-25T16:48:43Z</time></trkpt><trkpt lat="44.896496986345404" lon="7.306231230655366"><ele>460.4</ele><time>2026-04-25T16:48:44Z</time></trkpt><trkpt lat="44.896543563595024" lon="7.30610857932721"><ele>460.8</ele><time>2026-04-25T16:48:45Z</time></trkpt><trkpt lat="44.89660539224195" lon="7.305992245371252"><ele>461.20000000000005</ele><time>2026-04-25T16:48:46Z</time></trkpt><trkpt lat="44.89668229837376" lon="7.305893062733007"><ele>461.6</ele><time>2026-04-25T16:48:47Z</time></trkpt><trkpt lat="44.896765813040496" lon="7.305809940311642"><ele>462.0</ele><time>2026-04-25T16:48:48Z</time></trkpt><trkpt lat="44.89684891686751" lon="7.305727501234867"><ele>463.20000000000005</ele><time>2026-04-25T16:48:49Z</time></trkpt><trkpt lat="44.896955086344754" lon="7.30573908012794"><ele>464.40000000000003</ele><time>2026-04-25T16:48:50Z</time></trkpt><trkpt lat="44.897057681170644" lon="7.3057786968354055"><ele>465.59999999999997</ele><time>2026-04-25T16:48:51Z</time></trkpt><trkpt lat="44.897157346634074" lon="7.305819461213549"><ele>466.79999999999995</ele><time>2026-04-25T16:48:52Z</time></trkpt><trkpt lat="44.89724418236238" lon="7.305801930999658"><ele>468.0</ele><time>2026-04-25T16:48:53Z</time></trkpt><trkpt lat="44.89731482700828" lon="7.305724088752535"><ele>468.0</ele><time>2026-04-25T16:48:54Z</time></trkpt><trkpt lat="44.89739893085461" lon="7.305603573916143"><ele>468.0</ele><time>2026-04-25T16:48:55Z</time></trkpt><trkpt lat="44.89749008693589" lon="7.305452264701254"><ele>468.0</ele><time>2026-04-25T16:48:56Z</time></trkpt><trkpt lat="44.89759217652628" lon="7.305288158460133"><ele>468.0</ele><time>2026-04-25T16:48:57Z</time></trkpt><trkpt lat="44.89769040509216" lon="7.305100803680078"><ele>472.0</ele><time>2026-04-25T16:48:58Z</time></trkpt><trkpt lat="44.8977923321198" lon="7.304912231393579"><ele>476.0</ele><time>2026-04-25T16:48:59Z</time></trkpt><trkpt lat="44.897908376035126" lon="7.3047156801799575"><ele>480.0</ele><time>2026-04-25T16:49:00Z</time></trkpt><trkpt lat="44.89802132272625" lon="7.304511670368479"><ele>481.5</ele><time>2026-04-25T16:49:01Z</time></trkpt><trkpt lat="44.898099573038586" lon="7.304308798645721"><ele>483.0</ele><time>2026-04-25T16:49:02Z</time></trkpt><trkpt lat="44.89814509992555" lon="7.304140191935642"><ele>484.5</ele><time>2026-04-25T16:49:03Z</time></trkpt><trkpt lat="44.89816139028686" lon="7.303948575874959"><ele>486.0</ele><time>2026-04-25T16:49:04Z</time></trkpt><trkpt lat="44.898172322726474" lon="7.303776823806473"><ele>488.6</ele><time>2026-04-25T16:49:05Z</time></trkpt><trkpt lat="44.898190277520676" lon="7.303637539635052"><ele>491.20000000000005</ele><time>2026-04-25T16:49:06Z</time></trkpt><trkpt lat="44.898241471284045" lon="7.303550106144423"><ele>493.79999999999995</ele><time>2026-04-25T16:49:07Z</time></trkpt><trkpt lat="44.898308253159364" lon="7.30351144788759"><ele>496.4</ele><time>2026-04-25T16:49:08Z</time></trkpt><trkpt lat="44.89839092466643" lon="7.303504855866291"><ele>499.0</ele><time>2026-04-25T16:49:09Z</time></trkpt><trkpt lat="44.89848647539405" lon="7.303595245968209"><ele>499.0</ele><time>2026-04-25T16:49:10Z</time></trkpt><trkpt lat="44.89857885085669" lon="7.303661434547523"><ele>499.0</ele><time>2026-04-25T16:49:11Z</time></trkpt><trkpt lat="44.89867352499289" lon="7.303730332996799"><ele>499.0</ele><time>2026-04-25T16:49:12Z</time></trkpt><trkpt lat="44.89876122324994" lon="7.303725178275009"><ele>499.0</ele><time>2026-04-25T16:49:13Z</time></trkpt><trkpt lat="44.89883953745931" lon="7.303717579865559"><ele>499.0</ele><time>2026-04-25T16:49:14Z</time></trkpt><trkpt lat="44.8989205744162" lon="7.303685325366734"><ele>499.0</ele><time>2026-04-25T16:49:14.999Z</time></trkpt><trkpt lat="44.899005175788616" lon="7.303600434431242"><ele>499.0</ele><time>2026-04-25T16:49:15.999Z</time></trkpt><trkpt lat="44.89907919634716" lon="7.303514484302385"><ele>499.0</ele><time>2026-04-25T16:49:16.999Z</time></trkpt><trkpt lat="44.89912092932745" lon="7.303385751163181"><ele>499.0</ele><time>2026-04-25T16:49:17.999Z</time></trkpt><trkpt lat="44.89917202572013" lon="7.303304443556056"><ele>499.0</ele><time>2026-04-25T16:49:18.999Z</time></trkpt><trkpt lat="44.89926921124348" lon="7.303236717961186"><ele>499.0</ele><time>2026-04-25T16:49:20.999Z</time></trkpt><trkpt lat="44.89924898643484" lon="7.303450497050122"><ele>499.0</ele><time>2026-04-25T16:49:22.999Z</time></trkpt><trkpt lat="44.899240802439394" lon="7.3035578245507295"><ele>499.0</ele><time>2026-04-25T16:49:23.999Z</time></trkpt><trkpt lat="44.89924034758347" lon="7.303676383698035"><ele>499.0</ele><time>2026-04-25T16:49:24.999Z</time></trkpt><trkpt lat="44.89924421085298" lon="7.303799121602138"><ele>499.0</ele><time>2026-04-25T16:49:25.999Z</time></trkpt><trkpt lat="44.899285457897136" lon="7.303930608223855"><ele>500.25</ele><time>2026-04-25T16:49:26.999Z</time></trkpt><trkpt lat="44.89936843663846" lon="7.304039683210275"><ele>501.5</ele><time>2026-04-25T16:49:27.999Z</time></trkpt><trkpt lat="44.89940857140294" lon="7.304190215455132"><ele>502.75</ele><time>2026-04-25T16:49:28.999Z</time></trkpt><trkpt lat="44.89946970685821" lon="7.30433048042126"><ele>504.0</ele><time>2026-04-25T16:49:29.999Z</time></trkpt><trkpt lat="44.89953670341309" lon="7.304463810715508"><ele>504.0</ele><time>2026-04-25T16:49:30.999Z</time></trkpt><trkpt lat="44.89960751597714" lon="7.304598865258216"><ele>504.0</ele><time>2026-04-25T16:49:31.999Z</time></trkpt><trkpt lat="44.89966393141028" lon="7.304727122461009"><ele>504.0</ele><time>2026-04-25T16:49:32.999Z</time></trkpt><trkpt lat="44.899717909701224" lon="7.304807686026812"><ele>504.0</ele><time>2026-04-25T16:49:33.999Z</time></trkpt><trkpt lat="44.89979285840424" lon="7.304918515128702"><ele>504.0</ele><time>2026-04-25T16:49:35.999Z</time></trkpt><trkpt lat="44.89987891904686" lon="7.304962394437532"><ele>502.25</ele><time>2026-04-25T16:49:36.999Z</time></trkpt><trkpt lat="44.89997294480905" lon="7.3049779919735816"><ele>500.5</ele><time>2026-04-25T16:49:37.999Z</time></trkpt><trkpt lat="44.90008506558701" lon="7.3049625368003746"><ele>498.75</ele><time>2026-04-25T16:49:38.999Z</time></trkpt><trkpt lat="44.90021596902804" lon="7.304923938015964"><ele>497.0</ele><time>2026-04-25T16:49:39.999Z</time></trkpt><trkpt lat="44.90035609433043" lon="7.30488845382607"><ele>497.0</ele><time>2026-04-25T16:49:40.999Z</time></trkpt><trkpt lat="44.90051345654453" lon="7.304854303895747"><ele>497.0</ele><time>2026-04-25T16:49:41.999Z</time></trkpt><trkpt lat="44.900661643249045" lon="7.304825672863194"><ele>497.0</ele><time>2026-04-25T16:49:42.999Z</time></trkpt><trkpt lat="44.90079074687201" lon="7.304797345355138"><ele>497.0</ele><time>2026-04-25T16:49:43.999Z</time></trkpt><trkpt lat="44.90090549903077" lon="7.304770017453926"><ele>499.40000000000003</ele><time>2026-04-25T16:49:44.999Z</time></trkpt><trkpt lat="44.90099408467431" lon="7.30472614999986"><ele>501.80000000000007</ele><time>2026-04-25T16:49:45.999Z</time></trkpt><trkpt lat="44.901068502116765" lon="7.304661258934269"><ele>504.2</ele><time>2026-04-25T16:49:46.999Z</time></trkpt><trkpt lat="44.90115804383292" lon="7.304595732242833"><ele>506.6</ele><time>2026-04-25T16:49:47.999Z</time></trkpt><trkpt lat="44.901270995843205" lon="7.304511037202458"><ele>509.0</ele><time>2026-04-25T16:49:48.999Z</time></trkpt><trkpt lat="44.90137916632237" lon="7.304449930803729"><ele>509.0</ele><time>2026-04-25T16:49:49.999Z</time></trkpt><trkpt lat="44.901486652944236" lon="7.304347645536694"><ele>509.0</ele><time>2026-04-25T16:49:50.999Z</time></trkpt><trkpt lat="44.901566339605594" lon="7.304192205678374"><ele>509.0</ele><time>2026-04-25T16:49:51.999Z</time></trkpt><trkpt lat="44.90164860919732" lon="7.304016559846791"><ele>509.0</ele><time>2026-04-25T16:49:52.999Z</time></trkpt><trkpt lat="44.90171248806283" lon="7.303904069306933"><ele>509.6</ele><time>2026-04-25T16:49:53.999Z</time></trkpt><trkpt lat="44.90180152224229" lon="7.303855849047783"><ele>510.2</ele><time>2026-04-25T16:49:55.999Z</time></trkpt><trkpt lat="44.90186943903592" lon="7.3040336656607465"><ele>510.80000000000007</ele><time>2026-04-25T16:49:57.999Z</time></trkpt><trkpt lat="44.9018933071874" lon="7.304171128774352"><ele>511.40000000000003</ele><time>2026-04-25T16:49:58.999Z</time></trkpt><trkpt lat="44.90191558659903" lon="7.304290846446148"><ele>512.0</ele><time>2026-04-25T16:49:59.999Z</time></trkpt><trkpt lat="44.901963255285445" lon="7.304358152107612"><ele>512.0</ele><time>2026-04-25T16:50:00.999Z</time></trkpt><trkpt lat="44.902045051870644" lon="7.3043939675814595"><ele>512.0</ele><time>2026-04-25T16:50:01.998Z</time></trkpt><trkpt lat="44.902152820452166" lon="7.304411173853308"><ele>512.0</ele><time>2026-04-25T16:50:02.998Z</time></trkpt><trkpt lat="44.90228398750918" lon="7.304424940067641"><ele>512.0</ele><time>2026-04-25T16:50:03.998Z</time></trkpt><trkpt lat="44.90243185119756" lon="7.304423828018215"><ele>512.0</ele><time>2026-04-25T16:50:04.998Z</time></trkpt><trkpt lat="44.902568945198304" lon="7.30440542285654"><ele>512.0</ele><time>2026-04-25T16:50:05.998Z</time></trkpt><trkpt lat="44.902679512344896" lon="7.304358381556548"><ele>512.0</ele><time>2026-04-25T16:50:06.998Z</time></trkpt><trkpt lat="44.90277542317772" lon="7.304283448939177"><ele>512.0</ele><time>2026-04-25T16:50:07.998Z</time></trkpt><trkpt lat="44.90288650432968" lon="7.3042066214768"><ele>512.6</ele><time>2026-04-25T16:50:08.998Z</time></trkpt><trkpt lat="44.902992633754586" lon="7.3041583172354425"><ele>513.2</ele><time>2026-04-25T16:50:09.998Z</time></trkpt><trkpt lat="44.90307995951836" lon="7.304111241347622"><ele>513.8</ele><time>2026-04-25T16:50:10.998Z</time></trkpt><trkpt lat="44.903155777521434" lon="7.304161570050849"><ele>514.4</ele><time>2026-04-25T16:50:12.998Z</time></trkpt><trkpt lat="44.903143296474376" lon="7.304369758609127"><ele>515.0</ele><time>2026-04-25T16:50:14.998Z</time></trkpt><trkpt lat="44.90312243583697" lon="7.3045665676264395"><ele>512.6666666666666</ele><time>2026-04-25T16:50:15.998Z</time></trkpt><trkpt lat="44.903104785557204" lon="7.304760486533886"><ele>510.33333333333337</ele><time>2026-04-25T16:50:16.998Z</time></trkpt><trkpt lat="44.9030717710513" lon="7.30498507062299"><ele>508.0</ele><time>2026-04-25T16:50:17.998Z</time></trkpt><trkpt lat="44.9030047488537" lon="7.305182718992507"><ele>508.0</ele><time>2026-04-25T16:50:18.998Z</time></trkpt><trkpt lat="44.902945437961876" lon="7.30531132806358"><ele>507.99999999999994</ele><time>2026-04-25T16:50:19.998Z</time></trkpt><trkpt lat="44.90297567609476" lon="7.30547663407124"><ele>507.99999999999994</ele><time>2026-04-25T16:50:21.998Z</time></trkpt><trkpt lat="44.90307134265743" lon="7.305554937013429"><ele>508.0</ele><time>2026-04-25T16:50:23.998Z</time></trkpt><trkpt lat="44.90313406376073" lon="7.30558542081364"><ele>508.0</ele><time>2026-04-25T16:50:24.998Z</time></trkpt><trkpt lat="44.90322066899596" lon="7.3056192743049975"><ele>508.2</ele><time>2026-04-25T16:50:26Z</time></trkpt><trkpt lat="44.90331693185333" lon="7.30566037159321"><ele>508.4</ele><time>2026-04-25T16:50:27Z</time></trkpt><trkpt lat="44.90342419149235" lon="7.305697641931819"><ele>508.59999999999997</ele><time>2026-04-25T16:50:28Z</time></trkpt><trkpt lat="44.90351395603331" lon="7.305727008669438"><ele>508.79999999999995</ele><time>2026-04-25T16:50:29Z</time></trkpt><trkpt lat="44.90359459153248" lon="7.305797632217139"><ele>509.0</ele><time>2026-04-25T16:50:31Z</time></trkpt><trkpt lat="44.90359904777724" lon="7.305951417372513"><ele>509.0</ele><time>2026-04-25T16:50:33Z</time></trkpt><trkpt lat="44.903592205879036" lon="7.306095004929058"><ele>509.0</ele><time>2026-04-25T16:50:34Z</time></trkpt><trkpt lat="44.903601621248" lon="7.306256979864952"><ele>509.0</ele><time>2026-04-25T16:50:35Z</time></trkpt><trkpt lat="44.90361257181016" lon="7.30642314474043"><ele>509.0</ele><time>2026-04-25T16:50:36Z</time></trkpt><trkpt lat="44.903623612238796" lon="7.306594063635181"><ele>507.0</ele><time>2026-04-25T16:50:37Z</time></trkpt><trkpt lat="44.90365134488689" lon="7.30678490508668"><ele>505.0</ele><time>2026-04-25T16:50:38Z</time></trkpt><trkpt lat="44.9037146979038" lon="7.306993011493999"><ele>503.0</ele><time>2026-04-25T16:50:39Z</time></trkpt><trkpt lat="44.90380542684851" lon="7.307206430816726"><ele>501.0</ele><time>2026-04-25T16:50:40Z</time></trkpt><trkpt lat="44.90388996033032" lon="7.307390488692365"><ele>499.0</ele><time>2026-04-25T16:50:41Z</time></trkpt><trkpt lat="44.903971015984034" lon="7.307557857221135"><ele>497.0</ele><time>2026-04-25T16:50:42Z</time></trkpt><trkpt lat="44.90405487921855" lon="7.307712279077781"><ele>495.0</ele><time>2026-04-25T16:50:43Z</time></trkpt><trkpt lat="44.90412570314291" lon="7.307874081765847"><ele>495.0</ele><time>2026-04-25T16:50:44Z</time></trkpt><trkpt lat="44.90416285163234" lon="7.308055510002529"><ele>495.0</ele><time>2026-04-25T16:50:45Z</time></trkpt><trkpt lat="44.90416287072954" lon="7.3082523443890315"><ele>495.0</ele><time>2026-04-25T16:50:46Z</time></trkpt><trkpt lat="44.90415298672311" lon="7.308476095857048"><ele>495.0</ele><time>2026-04-25T16:50:47Z</time></trkpt><trkpt lat="44.90415901355809" lon="7.308728807068591"><ele>493.25</ele><time>2026-04-25T16:50:48Z</time></trkpt><trkpt lat="44.90417316109289" lon="7.308959460641566"><ele>491.5</ele><time>2026-04-25T16:50:49Z</time></trkpt><trkpt lat="44.904198048806904" lon="7.309139727206896"><ele>489.75</ele><time>2026-04-25T16:50:50Z</time></trkpt><trkpt lat="44.90425428409747" lon="7.309291453643899"><ele>488.0</ele><time>2026-04-25T16:50:51Z</time></trkpt><trkpt lat="44.90435535373924" lon="7.309388556311836"><ele>488.0</ele><time>2026-04-25T16:50:52Z</time></trkpt><trkpt lat="44.904467435502056" lon="7.309427078403587"><ele>488.0</ele><time>2026-04-25T16:50:53Z</time></trkpt><trkpt lat="44.90454917470485" lon="7.30944025221343"><ele>488.0</ele><time>2026-04-25T16:50:54Z</time></trkpt><trkpt lat="44.90451875581857" lon="7.3096837912847015"><ele>488.0</ele><time>2026-04-25T16:50:57Z</time></trkpt><trkpt lat="44.90445743761176" lon="7.309805595018173"><ele>486.25</ele><time>2026-04-25T16:50:58Z</time></trkpt><trkpt lat="44.904394688873914" lon="7.3099535687403465"><ele>484.5</ele><time>2026-04-25T16:50:59Z</time></trkpt><trkpt lat="44.904327505451406" lon="7.3101417389150525"><ele>482.75</ele><time>2026-04-25T16:51:00Z</time></trkpt><trkpt lat="44.904245500936504" lon="7.3103642952731835"><ele>481.0</ele><time>2026-04-25T16:51:01Z</time></trkpt><trkpt lat="44.90415108896754" lon="7.310617072721837"><ele>478.6666666666667</ele><time>2026-04-25T16:51:02Z</time></trkpt><trkpt lat="44.90406924914674" lon="7.310869775781609"><ele>476.33333333333337</ele><time>2026-04-25T16:51:03Z</time></trkpt><trkpt lat="44.90400690866372" lon="7.311096644091416"><ele>474.0</ele><time>2026-04-25T16:51:04Z</time></trkpt><trkpt lat="44.90394972336596" lon="7.311302607449616"><ele>472.2</ele><time>2026-04-25T16:51:05Z</time></trkpt><trkpt lat="44.90389294701025" lon="7.311478028927979"><ele>470.4</ele><time>2026-04-25T16:51:06Z</time></trkpt><trkpt lat="44.90384642759019" lon="7.311630402972889"><ele>468.6</ele><time>2026-04-25T16:51:07Z</time></trkpt><trkpt lat="44.9038253420473" lon="7.31175426141224"><ele>466.8</ele><time>2026-04-25T16:51:08Z</time></trkpt><trkpt lat="44.90383899245494" lon="7.311869321405711"><ele>465.0</ele><time>2026-04-25T16:51:09Z</time></trkpt><trkpt lat="44.903900106834904" lon="7.311957452800509"><ele>465.0</ele><time>2026-04-25T16:51:10Z</time></trkpt><trkpt lat="44.90399345621283" lon="7.311986847395859"><ele>465.0</ele><time>2026-04-25T16:51:11Z</time></trkpt><trkpt lat="44.90410923650779" lon="7.311977007519108"><ele>465.0</ele><time>2026-04-25T16:51:12Z</time></trkpt><trkpt lat="44.90423816433131" lon="7.311981580104813"><ele>465.0</ele><time>2026-04-25T16:51:13Z</time></trkpt><trkpt lat="44.90437888061601" lon="7.312025927484252"><ele>464.2</ele><time>2026-04-25T16:51:14Z</time></trkpt><trkpt lat="44.90450558339161" lon="7.312082761683463"><ele>463.4</ele><time>2026-04-25T16:51:15Z</time></trkpt><trkpt lat="44.90460563437681" lon="7.31211720689861"><ele>462.6</ele><time>2026-04-25T16:51:16Z</time></trkpt><trkpt lat="44.904686971229715" lon="7.312128534669023"><ele>461.8</ele><time>2026-04-25T16:51:17Z</time></trkpt><trkpt lat="44.904781972262334" lon="7.312115215985233"><ele>461.0</ele><time>2026-04-25T16:51:17.999Z</time></trkpt><trkpt lat="44.90488775888735" lon="7.312045510069453"><ele>461.0</ele><time>2026-04-25T16:51:18.999Z</time></trkpt><trkpt lat="44.90498868886261" lon="7.311974366170118"><ele>461.0</ele><time>2026-04-25T16:51:19.999Z</time></trkpt><trkpt lat="44.90510127953536" lon="7.311902047977347"><ele>461.0</ele><time>2026-04-25T16:51:20.999Z</time></trkpt><trkpt lat="44.905212518377745" lon="7.311860770635455"><ele>461.0</ele><time>2026-04-25T16:51:21.999Z</time></trkpt><trkpt lat="44.90531806955952" lon="7.311835140942624"><ele>459.99999999999994</ele><time>2026-04-25T16:51:22.999Z</time></trkpt><trkpt lat="44.90541266507267" lon="7.311821039444799"><ele>459.0</ele><time>2026-04-25T16:51:23.999Z</time></trkpt><trkpt lat="44.9054902408623" lon="7.311803430569778"><ele>458.0</ele><time>2026-04-25T16:51:24.999Z</time></trkpt><trkpt lat="44.90556683173851" lon="7.311784503111971"><ele>457.0</ele><time>2026-04-25T16:51:25.999Z</time></trkpt><trkpt lat="44.90563994783165" lon="7.311793989388806"><ele>455.99999999999994</ele><time>2026-04-25T16:51:26.999Z</time></trkpt><trkpt lat="44.90570776261108" lon="7.311794310517712"><ele>455.0</ele><time>2026-04-25T16:51:27.999Z</time></trkpt><trkpt lat="44.90581969465688" lon="7.311812835613351"><ele>455.0</ele><time>2026-04-25T16:51:29.999Z</time></trkpt><trkpt lat="44.90589859918786" lon="7.311847119359229"><ele>455.0</ele><time>2026-04-25T16:51:31.999Z</time></trkpt><trkpt lat="44.9059698916715" lon="7.3118934599929375"><ele>455.0</ele><time>2026-04-25T16:51:34.999Z</time></trkpt><trkpt lat="44.90616805716935" lon="7.312143385043629"><ele>455.0</ele><time>2026-04-25T16:51:44.999Z</time></trkpt><trkpt lat="44.906225333080066" lon="7.312215563309548"><ele>453.99999999999994</ele><time>2026-04-25T16:51:45.999Z</time></trkpt><trkpt lat="44.90631608882353" lon="7.312299416903228"><ele>453.0</ele><time>2026-04-25T16:51:47.999Z</time></trkpt><trkpt lat="44.90638132804682" lon="7.312389969824493"><ele>452.0</ele><time>2026-04-25T16:51:49.999Z</time></trkpt><trkpt lat="44.90646124860655" lon="7.31246738265518"><ele>451.0</ele><time>2026-04-25T16:51:51.999Z</time></trkpt><trkpt lat="44.90653156665005" lon="7.312504087905833"><ele>449.99999999999994</ele><time>2026-04-25T16:51:54.999Z</time></trkpt><trkpt lat="44.906598653514784" lon="7.312539326167038"><ele>449.0</ele><time>2026-04-25T16:51:56.999Z</time></trkpt><trkpt lat="44.90670783586387" lon="7.312636603915304"><ele>449.4</ele><time>2026-04-25T16:51:58.999Z</time></trkpt><trkpt lat="44.9067865343422" lon="7.31272095545494"><ele>449.79999999999995</ele><time>2026-04-25T16:52:00.999Z</time></trkpt><trkpt lat="44.90685067958601" lon="7.312769229451822"><ele>450.20000000000005</ele><time>2026-04-25T16:52:05.998Z</time></trkpt><trkpt lat="44.90695539736741" lon="7.312815958639461"><ele>450.6</ele><time>2026-04-25T16:52:08.998Z</time></trkpt><trkpt lat="44.907049416235324" lon="7.312867023639682"><ele>451.0</ele><time>2026-04-25T16:52:10.998Z</time></trkpt><trkpt lat="44.90711032014271" lon="7.312912161818094"><ele>451.0</ele><time>2026-04-25T16:52:14.998Z</time></trkpt><trkpt lat="44.90718973585134" lon="7.31294462079845"><ele>451.0</ele><time>2026-04-25T16:52:16.998Z</time></trkpt><trkpt lat="44.9072866803735" lon="7.3130081375896285"><ele>451.0</ele><time>2026-04-25T16:52:18.998Z</time></trkpt><trkpt lat="44.90739486477429" lon="7.313085197383093"><ele>451.0</ele><time>2026-04-25T16:52:20.998Z</time></trkpt><trkpt lat="44.90732650477593" lon="7.313133350570443"><ele>451.0</ele><time>2026-04-25T16:52:27.998Z</time></trkpt><trkpt lat="44.90730193712347" lon="7.313274390437604"><ele>450.33333333333337</ele><time>2026-04-25T16:52:28.998Z</time></trkpt><trkpt lat="44.90727153720002" lon="7.313395986661851"><ele>449.6666666666667</ele><time>2026-04-25T16:52:29.998Z</time></trkpt><trkpt lat="44.90736073590622" lon="7.313384510084647"><ele>449.0</ele><time>2026-04-25T16:52:34Z</time></trkpt><trkpt lat="44.90742482328371" lon="7.313285889809625"><ele>448.33333333333337</ele><time>2026-04-25T16:52:36Z</time></trkpt><trkpt lat="44.907484252405126" lon="7.3132536285134355"><ele>447.6666666666667</ele><time>2026-04-25T16:56:55Z</time></trkpt><trkpt lat="44.90754503250498" lon="7.313157046288596"><ele>447.0</ele><time>2026-04-25T16:56:57Z</time></trkpt><trkpt lat="44.9074134914498" lon="7.313264943038938"><ele>447.0</ele><time>2026-04-25T16:57:02Z</time></trkpt><trkpt lat="44.907303321077336" lon="7.313339385808706"><ele>447.0</ele><time>2026-04-25T16:57:04Z</time></trkpt><trkpt lat="44.90748224266195" lon="7.313294074692746"><ele>447.0</ele><time>2026-04-25T16:57:07Z</time></trkpt><trkpt lat="44.90765449732465" lon="7.313012710539629"><ele>449.0</ele><time>2026-04-25T17:00:48.998Z</time></trkpt><trkpt lat="44.90749076111962" lon="7.313288243765848"><ele>447.0</ele><time>2026-04-25T17:00:50.998Z</time></trkpt></trkseg></trk></gpx>